<?xml version="1.0" encoding="UTF-8" standalone="no" ?>
<gpx xmlns="http://www.topografix.com/GPX/1/1" xmlns:xsi="http://www.w3.org/2001/XMLSchema-instance" xsi:schemaLocation="http://www.topografix.com/GPX/1/1 http://www.topografix.com/GPX/1/1/gpx.xsd" version="1.1" creator="VisuGPX - https://www.visugpx.com">
  <metadata>
    <name>sortie du 07/09/2014</name>
    <desc><![CDATA[SENS-ST-MARTIN-Les Chollets]]></desc>
  </metadata>
  <trk>
    <name><![CDATA[07/09/2014 9:30]]></name>
    <desc><![CDATA[]]></desc>
    <trkseg>
      <trkpt lat="48.20455" lon="3.27307">
        <ele>66</ele>
        <time>2014-09-07T07:32:03.673Z</time>
      </trkpt>
      <trkpt lat="48.20461" lon="3.2732">
        <ele>66</ele>
        <time>2014-09-07T07:32:04.671Z</time>
      </trkpt>
      <trkpt lat="48.20461" lon="3.2732">
        <ele>66</ele>
        <time>2014-09-07T07:32:09.000Z</time>
      </trkpt>
      <trkpt lat="48.20453" lon="3.27309">
        <ele>66</ele>
        <time>2014-09-07T07:32:10.000Z</time>
      </trkpt>
      <trkpt lat="48.20452" lon="3.27298">
        <ele>66</ele>
        <time>2014-09-07T07:32:11.000Z</time>
      </trkpt>
      <trkpt lat="48.20451" lon="3.27287">
        <ele>66</ele>
        <time>2014-09-07T07:32:12.000Z</time>
      </trkpt>
      <trkpt lat="48.2045" lon="3.27277">
        <ele>66</ele>
        <time>2014-09-07T07:32:13.000Z</time>
      </trkpt>
      <trkpt lat="48.20449" lon="3.27268">
        <ele>66</ele>
        <time>2014-09-07T07:32:14.000Z</time>
      </trkpt>
      <trkpt lat="48.20449" lon="3.2726">
        <ele>66</ele>
        <time>2014-09-07T07:32:15.000Z</time>
      </trkpt>
      <trkpt lat="48.20448" lon="3.27247">
        <ele>66</ele>
        <time>2014-09-07T07:32:16.000Z</time>
      </trkpt>
      <trkpt lat="48.20448" lon="3.27234">
        <ele>66</ele>
        <time>2014-09-07T07:32:17.000Z</time>
      </trkpt>
      <trkpt lat="48.20448" lon="3.27221">
        <ele>66</ele>
        <time>2014-09-07T07:32:18.000Z</time>
      </trkpt>
      <trkpt lat="48.2045" lon="3.27206">
        <ele>65</ele>
        <time>2014-09-07T07:32:19.000Z</time>
      </trkpt>
      <trkpt lat="48.20453" lon="3.27193">
        <ele>65</ele>
        <time>2014-09-07T07:32:20.000Z</time>
      </trkpt>
      <trkpt lat="48.20457" lon="3.27182">
        <ele>65</ele>
        <time>2014-09-07T07:32:21.000Z</time>
      </trkpt>
      <trkpt lat="48.20463" lon="3.27174">
        <ele>65</ele>
        <time>2014-09-07T07:32:22.000Z</time>
      </trkpt>
      <trkpt lat="48.20468" lon="3.27167">
        <ele>65</ele>
        <time>2014-09-07T07:32:23.000Z</time>
      </trkpt>
      <trkpt lat="48.20476" lon="3.27161">
        <ele>65</ele>
        <time>2014-09-07T07:32:24.000Z</time>
      </trkpt>
      <trkpt lat="48.20482" lon="3.27157">
        <ele>65</ele>
        <time>2014-09-07T07:32:25.000Z</time>
      </trkpt>
      <trkpt lat="48.20489" lon="3.27152">
        <ele>65</ele>
        <time>2014-09-07T07:32:26.000Z</time>
      </trkpt>
      <trkpt lat="48.20495" lon="3.27148">
        <ele>65</ele>
        <time>2014-09-07T07:32:27.000Z</time>
      </trkpt>
      <trkpt lat="48.20501" lon="3.27144">
        <ele>65</ele>
        <time>2014-09-07T07:32:28.000Z</time>
      </trkpt>
      <trkpt lat="48.20508" lon="3.27139">
        <ele>65</ele>
        <time>2014-09-07T07:32:29.000Z</time>
      </trkpt>
      <trkpt lat="48.20514" lon="3.27135">
        <ele>65</ele>
        <time>2014-09-07T07:32:30.000Z</time>
      </trkpt>
      <trkpt lat="48.20521" lon="3.27133">
        <ele>65</ele>
        <time>2014-09-07T07:32:31.000Z</time>
      </trkpt>
      <trkpt lat="48.20527" lon="3.27129">
        <ele>65</ele>
        <time>2014-09-07T07:32:32.000Z</time>
      </trkpt>
      <trkpt lat="48.20535" lon="3.27124">
        <ele>66</ele>
        <time>2014-09-07T07:32:33.000Z</time>
      </trkpt>
      <trkpt lat="48.20541" lon="3.27122">
        <ele>66</ele>
        <time>2014-09-07T07:32:34.000Z</time>
      </trkpt>
      <trkpt lat="48.20548" lon="3.27118">
        <ele>66</ele>
        <time>2014-09-07T07:32:35.000Z</time>
      </trkpt>
      <trkpt lat="48.20554" lon="3.27116">
        <ele>66</ele>
        <time>2014-09-07T07:32:36.000Z</time>
      </trkpt>
      <trkpt lat="48.2056" lon="3.27111">
        <ele>66</ele>
        <time>2014-09-07T07:32:37.000Z</time>
      </trkpt>
      <trkpt lat="48.20568" lon="3.27109">
        <ele>66</ele>
        <time>2014-09-07T07:32:38.000Z</time>
      </trkpt>
      <trkpt lat="48.20574" lon="3.27105">
        <ele>66</ele>
        <time>2014-09-07T07:32:39.000Z</time>
      </trkpt>
      <trkpt lat="48.20581" lon="3.27103">
        <ele>66</ele>
        <time>2014-09-07T07:32:40.000Z</time>
      </trkpt>
      <trkpt lat="48.20587" lon="3.27099">
        <ele>66</ele>
        <time>2014-09-07T07:32:41.000Z</time>
      </trkpt>
      <trkpt lat="48.20594" lon="3.27096">
        <ele>66</ele>
        <time>2014-09-07T07:32:42.000Z</time>
      </trkpt>
      <trkpt lat="48.206" lon="3.27094">
        <ele>66</ele>
        <time>2014-09-07T07:32:43.000Z</time>
      </trkpt>
      <trkpt lat="48.20607" lon="3.27092">
        <ele>66</ele>
        <time>2014-09-07T07:32:44.000Z</time>
      </trkpt>
      <trkpt lat="48.20613" lon="3.27088">
        <ele>66</ele>
        <time>2014-09-07T07:32:45.000Z</time>
      </trkpt>
      <trkpt lat="48.20619" lon="3.27086">
        <ele>66</ele>
        <time>2014-09-07T07:32:46.000Z</time>
      </trkpt>
      <trkpt lat="48.20626" lon="3.27081">
        <ele>67</ele>
        <time>2014-09-07T07:32:47.000Z</time>
      </trkpt>
      <trkpt lat="48.20632" lon="3.27079">
        <ele>67</ele>
        <time>2014-09-07T07:32:48.000Z</time>
      </trkpt>
      <trkpt lat="48.20639" lon="3.27077">
        <ele>67</ele>
        <time>2014-09-07T07:32:49.000Z</time>
      </trkpt>
      <trkpt lat="48.20645" lon="3.27073">
        <ele>66</ele>
        <time>2014-09-07T07:32:50.000Z</time>
      </trkpt>
      <trkpt lat="48.20652" lon="3.27071">
        <ele>66</ele>
        <time>2014-09-07T07:32:51.000Z</time>
      </trkpt>
      <trkpt lat="48.20657" lon="3.27069">
        <ele>66</ele>
        <time>2014-09-07T07:32:52.000Z</time>
      </trkpt>
      <trkpt lat="48.20663" lon="3.27066">
        <ele>66</ele>
        <time>2014-09-07T07:32:53.000Z</time>
      </trkpt>
      <trkpt lat="48.2067" lon="3.27064">
        <ele>65</ele>
        <time>2014-09-07T07:32:54.000Z</time>
      </trkpt>
      <trkpt lat="48.20676" lon="3.2706">
        <ele>65</ele>
        <time>2014-09-07T07:32:55.000Z</time>
      </trkpt>
      <trkpt lat="48.20683" lon="3.27058">
        <ele>65</ele>
        <time>2014-09-07T07:32:56.000Z</time>
      </trkpt>
      <trkpt lat="48.20689" lon="3.27056">
        <ele>65</ele>
        <time>2014-09-07T07:32:57.000Z</time>
      </trkpt>
      <trkpt lat="48.20696" lon="3.27054">
        <ele>65</ele>
        <time>2014-09-07T07:32:58.000Z</time>
      </trkpt>
      <trkpt lat="48.20701" lon="3.27049">
        <ele>65</ele>
        <time>2014-09-07T07:32:59.000Z</time>
      </trkpt>
      <trkpt lat="48.20707" lon="3.27047">
        <ele>65</ele>
        <time>2014-09-07T07:33:00.000Z</time>
      </trkpt>
      <trkpt lat="48.20714" lon="3.27043">
        <ele>65</ele>
        <time>2014-09-07T07:33:01.000Z</time>
      </trkpt>
      <trkpt lat="48.2072" lon="3.27039">
        <ele>65</ele>
        <time>2014-09-07T07:33:02.000Z</time>
      </trkpt>
      <trkpt lat="48.20726" lon="3.27036">
        <ele>64</ele>
        <time>2014-09-07T07:33:03.000Z</time>
      </trkpt>
      <trkpt lat="48.20732" lon="3.27032">
        <ele>64</ele>
        <time>2014-09-07T07:33:04.000Z</time>
      </trkpt>
      <trkpt lat="48.20737" lon="3.27028">
        <ele>64</ele>
        <time>2014-09-07T07:33:05.000Z</time>
      </trkpt>
      <trkpt lat="48.20743" lon="3.27024">
        <ele>64</ele>
        <time>2014-09-07T07:33:06.000Z</time>
      </trkpt>
      <trkpt lat="48.20749" lon="3.27017">
        <ele>64</ele>
        <time>2014-09-07T07:33:07.000Z</time>
      </trkpt>
      <trkpt lat="48.20755" lon="3.27013">
        <ele>63</ele>
        <time>2014-09-07T07:33:08.000Z</time>
      </trkpt>
      <trkpt lat="48.20761" lon="3.27006">
        <ele>63</ele>
        <time>2014-09-07T07:33:09.000Z</time>
      </trkpt>
      <trkpt lat="48.20766" lon="3.27002">
        <ele>63</ele>
        <time>2014-09-07T07:33:10.000Z</time>
      </trkpt>
      <trkpt lat="48.20772" lon="3.26996">
        <ele>64</ele>
        <time>2014-09-07T07:33:11.000Z</time>
      </trkpt>
      <trkpt lat="48.20777" lon="3.26989">
        <ele>64</ele>
        <time>2014-09-07T07:33:12.000Z</time>
      </trkpt>
      <trkpt lat="48.20781" lon="3.26983">
        <ele>64</ele>
        <time>2014-09-07T07:33:13.000Z</time>
      </trkpt>
      <trkpt lat="48.20787" lon="3.26976">
        <ele>64</ele>
        <time>2014-09-07T07:33:14.000Z</time>
      </trkpt>
      <trkpt lat="48.20791" lon="3.26968">
        <ele>64</ele>
        <time>2014-09-07T07:33:15.000Z</time>
      </trkpt>
      <trkpt lat="48.20795" lon="3.26961">
        <ele>64</ele>
        <time>2014-09-07T07:33:16.000Z</time>
      </trkpt>
      <trkpt lat="48.208" lon="3.26953">
        <ele>64</ele>
        <time>2014-09-07T07:33:17.000Z</time>
      </trkpt>
      <trkpt lat="48.20804" lon="3.26946">
        <ele>64</ele>
        <time>2014-09-07T07:33:18.000Z</time>
      </trkpt>
      <trkpt lat="48.20809" lon="3.26938">
        <ele>65</ele>
        <time>2014-09-07T07:33:19.000Z</time>
      </trkpt>
      <trkpt lat="48.20814" lon="3.26929">
        <ele>65</ele>
        <time>2014-09-07T07:33:20.000Z</time>
      </trkpt>
      <trkpt lat="48.20818" lon="3.26923">
        <ele>65</ele>
        <time>2014-09-07T07:33:21.000Z</time>
      </trkpt>
      <trkpt lat="48.20823" lon="3.26914">
        <ele>66</ele>
        <time>2014-09-07T07:33:22.000Z</time>
      </trkpt>
      <trkpt lat="48.20828" lon="3.26908">
        <ele>66</ele>
        <time>2014-09-07T07:33:23.000Z</time>
      </trkpt>
      <trkpt lat="48.20833" lon="3.26899">
        <ele>66</ele>
        <time>2014-09-07T07:33:24.000Z</time>
      </trkpt>
      <trkpt lat="48.20837" lon="3.26893">
        <ele>66</ele>
        <time>2014-09-07T07:33:25.000Z</time>
      </trkpt>
      <trkpt lat="48.20843" lon="3.26884">
        <ele>65</ele>
        <time>2014-09-07T07:33:26.000Z</time>
      </trkpt>
      <trkpt lat="48.20847" lon="3.26878">
        <ele>65</ele>
        <time>2014-09-07T07:33:27.000Z</time>
      </trkpt>
      <trkpt lat="48.20852" lon="3.26871">
        <ele>65</ele>
        <time>2014-09-07T07:33:28.000Z</time>
      </trkpt>
      <trkpt lat="48.20857" lon="3.26865">
        <ele>65</ele>
        <time>2014-09-07T07:33:29.000Z</time>
      </trkpt>
      <trkpt lat="48.20862" lon="3.26858">
        <ele>65</ele>
        <time>2014-09-07T07:33:30.000Z</time>
      </trkpt>
      <trkpt lat="48.20867" lon="3.2685">
        <ele>65</ele>
        <time>2014-09-07T07:33:31.000Z</time>
      </trkpt>
      <trkpt lat="48.20872" lon="3.26843">
        <ele>65</ele>
        <time>2014-09-07T07:33:32.000Z</time>
      </trkpt>
      <trkpt lat="48.20877" lon="3.26835">
        <ele>65</ele>
        <time>2014-09-07T07:33:33.000Z</time>
      </trkpt>
      <trkpt lat="48.20882" lon="3.26828">
        <ele>64</ele>
        <time>2014-09-07T07:33:34.000Z</time>
      </trkpt>
      <trkpt lat="48.20887" lon="3.2682">
        <ele>64</ele>
        <time>2014-09-07T07:33:35.000Z</time>
      </trkpt>
      <trkpt lat="48.20892" lon="3.26813">
        <ele>64</ele>
        <time>2014-09-07T07:33:36.000Z</time>
      </trkpt>
      <trkpt lat="48.20897" lon="3.26805">
        <ele>64</ele>
        <time>2014-09-07T07:33:37.000Z</time>
      </trkpt>
      <trkpt lat="48.20903" lon="3.26798">
        <ele>64</ele>
        <time>2014-09-07T07:33:38.000Z</time>
      </trkpt>
      <trkpt lat="48.20907" lon="3.2679">
        <ele>64</ele>
        <time>2014-09-07T07:33:39.000Z</time>
      </trkpt>
      <trkpt lat="48.20912" lon="3.26783">
        <ele>64</ele>
        <time>2014-09-07T07:33:40.000Z</time>
      </trkpt>
      <trkpt lat="48.20918" lon="3.26775">
        <ele>64</ele>
        <time>2014-09-07T07:33:41.000Z</time>
      </trkpt>
      <trkpt lat="48.20922" lon="3.26768">
        <ele>64</ele>
        <time>2014-09-07T07:33:42.000Z</time>
      </trkpt>
      <trkpt lat="48.20927" lon="3.2676">
        <ele>64</ele>
        <time>2014-09-07T07:33:43.000Z</time>
      </trkpt>
      <trkpt lat="48.20933" lon="3.26753">
        <ele>64</ele>
        <time>2014-09-07T07:33:44.000Z</time>
      </trkpt>
      <trkpt lat="48.20937" lon="3.26747">
        <ele>64</ele>
        <time>2014-09-07T07:33:45.000Z</time>
      </trkpt>
      <trkpt lat="48.20942" lon="3.26738">
        <ele>64</ele>
        <time>2014-09-07T07:33:46.000Z</time>
      </trkpt>
      <trkpt lat="48.20947" lon="3.26732">
        <ele>65</ele>
        <time>2014-09-07T07:33:47.000Z</time>
      </trkpt>
      <trkpt lat="48.20951" lon="3.26723">
        <ele>65</ele>
        <time>2014-09-07T07:33:48.000Z</time>
      </trkpt>
      <trkpt lat="48.20956" lon="3.26717">
        <ele>65</ele>
        <time>2014-09-07T07:33:49.000Z</time>
      </trkpt>
      <trkpt lat="48.20961" lon="3.26708">
        <ele>65</ele>
        <time>2014-09-07T07:33:50.000Z</time>
      </trkpt>
      <trkpt lat="48.20965" lon="3.26699">
        <ele>65</ele>
        <time>2014-09-07T07:33:51.000Z</time>
      </trkpt>
      <trkpt lat="48.20969" lon="3.26693">
        <ele>65</ele>
        <time>2014-09-07T07:33:52.000Z</time>
      </trkpt>
      <trkpt lat="48.20972" lon="3.26682">
        <ele>65</ele>
        <time>2014-09-07T07:33:53.000Z</time>
      </trkpt>
      <trkpt lat="48.20975" lon="3.26674">
        <ele>65</ele>
        <time>2014-09-07T07:33:54.000Z</time>
      </trkpt>
      <trkpt lat="48.20976" lon="3.26663">
        <ele>65</ele>
        <time>2014-09-07T07:33:55.000Z</time>
      </trkpt>
      <trkpt lat="48.20976" lon="3.26654">
        <ele>65</ele>
        <time>2014-09-07T07:33:56.000Z</time>
      </trkpt>
      <trkpt lat="48.20976" lon="3.26644">
        <ele>65</ele>
        <time>2014-09-07T07:33:57.000Z</time>
      </trkpt>
      <trkpt lat="48.20976" lon="3.26635">
        <ele>65</ele>
        <time>2014-09-07T07:33:58.000Z</time>
      </trkpt>
      <trkpt lat="48.20976" lon="3.26624">
        <ele>65</ele>
        <time>2014-09-07T07:33:59.000Z</time>
      </trkpt>
      <trkpt lat="48.20976" lon="3.26614">
        <ele>65</ele>
        <time>2014-09-07T07:34:00.000Z</time>
      </trkpt>
      <trkpt lat="48.20976" lon="3.26605">
        <ele>65</ele>
        <time>2014-09-07T07:34:01.000Z</time>
      </trkpt>
      <trkpt lat="48.20976" lon="3.26594">
        <ele>65</ele>
        <time>2014-09-07T07:34:02.000Z</time>
      </trkpt>
      <trkpt lat="48.20978" lon="3.26586">
        <ele>65</ele>
        <time>2014-09-07T07:34:03.000Z</time>
      </trkpt>
      <trkpt lat="48.20981" lon="3.26577">
        <ele>65</ele>
        <time>2014-09-07T07:34:04.000Z</time>
      </trkpt>
      <trkpt lat="48.20985" lon="3.26571">
        <ele>65</ele>
        <time>2014-09-07T07:34:05.000Z</time>
      </trkpt>
      <trkpt lat="48.2099" lon="3.26566">
        <ele>65</ele>
        <time>2014-09-07T07:34:06.000Z</time>
      </trkpt>
      <trkpt lat="48.20995" lon="3.2656">
        <ele>65</ele>
        <time>2014-09-07T07:34:07.000Z</time>
      </trkpt>
      <trkpt lat="48.20999" lon="3.26556">
        <ele>65</ele>
        <time>2014-09-07T07:34:08.000Z</time>
      </trkpt>
      <trkpt lat="48.21004" lon="3.26551">
        <ele>66</ele>
        <time>2014-09-07T07:34:09.000Z</time>
      </trkpt>
      <trkpt lat="48.21007" lon="3.26551">
        <ele>66</ele>
        <time>2014-09-07T07:34:10.000Z</time>
      </trkpt>
      <trkpt lat="48.21011" lon="3.26551">
        <ele>66</ele>
        <time>2014-09-07T07:34:11.000Z</time>
      </trkpt>
      <trkpt lat="48.21015" lon="3.26554">
        <ele>66</ele>
        <time>2014-09-07T07:34:12.000Z</time>
      </trkpt>
      <trkpt lat="48.2102" lon="3.26556">
        <ele>66</ele>
        <time>2014-09-07T07:34:13.000Z</time>
      </trkpt>
      <trkpt lat="48.21024" lon="3.26558">
        <ele>66</ele>
        <time>2014-09-07T07:34:14.000Z</time>
      </trkpt>
      <trkpt lat="48.21028" lon="3.26558">
        <ele>66</ele>
        <time>2014-09-07T07:34:15.000Z</time>
      </trkpt>
      <trkpt lat="48.21033" lon="3.2656">
        <ele>66</ele>
        <time>2014-09-07T07:34:16.000Z</time>
      </trkpt>
      <trkpt lat="48.21037" lon="3.26562">
        <ele>66</ele>
        <time>2014-09-07T07:34:17.000Z</time>
      </trkpt>
      <trkpt lat="48.21042" lon="3.26564">
        <ele>66</ele>
        <time>2014-09-07T07:34:18.000Z</time>
      </trkpt>
      <trkpt lat="48.21046" lon="3.26566">
        <ele>66</ele>
        <time>2014-09-07T07:34:19.000Z</time>
      </trkpt>
      <trkpt lat="48.21051" lon="3.26569">
        <ele>66</ele>
        <time>2014-09-07T07:34:20.000Z</time>
      </trkpt>
      <trkpt lat="48.21056" lon="3.26571">
        <ele>66</ele>
        <time>2014-09-07T07:34:21.000Z</time>
      </trkpt>
      <trkpt lat="48.2106" lon="3.26573">
        <ele>66</ele>
        <time>2014-09-07T07:34:22.000Z</time>
      </trkpt>
      <trkpt lat="48.21066" lon="3.26575">
        <ele>66</ele>
        <time>2014-09-07T07:34:23.000Z</time>
      </trkpt>
      <trkpt lat="48.21071" lon="3.26577">
        <ele>66</ele>
        <time>2014-09-07T07:34:24.000Z</time>
      </trkpt>
      <trkpt lat="48.21077" lon="3.26579">
        <ele>65</ele>
        <time>2014-09-07T07:34:25.000Z</time>
      </trkpt>
      <trkpt lat="48.21082" lon="3.26581">
        <ele>65</ele>
        <time>2014-09-07T07:34:26.000Z</time>
      </trkpt>
      <trkpt lat="48.21087" lon="3.26584">
        <ele>65</ele>
        <time>2014-09-07T07:34:27.000Z</time>
      </trkpt>
      <trkpt lat="48.21093" lon="3.26584">
        <ele>65</ele>
        <time>2014-09-07T07:34:28.000Z</time>
      </trkpt>
      <trkpt lat="48.21098" lon="3.26586">
        <ele>65</ele>
        <time>2014-09-07T07:34:29.000Z</time>
      </trkpt>
      <trkpt lat="48.21103" lon="3.26586">
        <ele>65</ele>
        <time>2014-09-07T07:34:30.000Z</time>
      </trkpt>
      <trkpt lat="48.21109" lon="3.26586">
        <ele>65</ele>
        <time>2014-09-07T07:34:31.000Z</time>
      </trkpt>
      <trkpt lat="48.21113" lon="3.26586">
        <ele>65</ele>
        <time>2014-09-07T07:34:32.000Z</time>
      </trkpt>
      <trkpt lat="48.21118" lon="3.26586">
        <ele>65</ele>
        <time>2014-09-07T07:34:33.000Z</time>
      </trkpt>
      <trkpt lat="48.21124" lon="3.26586">
        <ele>65</ele>
        <time>2014-09-07T07:34:34.000Z</time>
      </trkpt>
      <trkpt lat="48.21129" lon="3.26586">
        <ele>65</ele>
        <time>2014-09-07T07:34:35.000Z</time>
      </trkpt>
      <trkpt lat="48.21134" lon="3.26584">
        <ele>65</ele>
        <time>2014-09-07T07:34:36.000Z</time>
      </trkpt>
      <trkpt lat="48.21139" lon="3.26581">
        <ele>66</ele>
        <time>2014-09-07T07:34:37.000Z</time>
      </trkpt>
      <trkpt lat="48.21144" lon="3.26579">
        <ele>66</ele>
        <time>2014-09-07T07:34:38.000Z</time>
      </trkpt>
      <trkpt lat="48.21148" lon="3.26577">
        <ele>66</ele>
        <time>2014-09-07T07:34:39.000Z</time>
      </trkpt>
      <trkpt lat="48.21154" lon="3.26575">
        <ele>66</ele>
        <time>2014-09-07T07:34:40.000Z</time>
      </trkpt>
      <trkpt lat="48.21158" lon="3.26571">
        <ele>66</ele>
        <time>2014-09-07T07:34:41.000Z</time>
      </trkpt>
      <trkpt lat="48.21163" lon="3.26569">
        <ele>66</ele>
        <time>2014-09-07T07:34:42.000Z</time>
      </trkpt>
      <trkpt lat="48.21168" lon="3.26564">
        <ele>66</ele>
        <time>2014-09-07T07:34:43.000Z</time>
      </trkpt>
      <trkpt lat="48.21173" lon="3.26562">
        <ele>66</ele>
        <time>2014-09-07T07:34:44.000Z</time>
      </trkpt>
      <trkpt lat="48.21177" lon="3.26558">
        <ele>66</ele>
        <time>2014-09-07T07:34:45.000Z</time>
      </trkpt>
      <trkpt lat="48.21182" lon="3.26554">
        <ele>66</ele>
        <time>2014-09-07T07:34:46.000Z</time>
      </trkpt>
      <trkpt lat="48.21186" lon="3.26549">
        <ele>66</ele>
        <time>2014-09-07T07:34:47.000Z</time>
      </trkpt>
      <trkpt lat="48.2119" lon="3.26545">
        <ele>66</ele>
        <time>2014-09-07T07:34:48.000Z</time>
      </trkpt>
      <trkpt lat="48.21193" lon="3.26541">
        <ele>66</ele>
        <time>2014-09-07T07:34:49.000Z</time>
      </trkpt>
      <trkpt lat="48.21198" lon="3.26536">
        <ele>66</ele>
        <time>2014-09-07T07:34:50.000Z</time>
      </trkpt>
      <trkpt lat="48.21201" lon="3.26532">
        <ele>66</ele>
        <time>2014-09-07T07:34:51.000Z</time>
      </trkpt>
      <trkpt lat="48.21204" lon="3.26528">
        <ele>66</ele>
        <time>2014-09-07T07:34:52.000Z</time>
      </trkpt>
      <trkpt lat="48.21207" lon="3.26524">
        <ele>67</ele>
        <time>2014-09-07T07:34:53.000Z</time>
      </trkpt>
      <trkpt lat="48.21211" lon="3.26519">
        <ele>67</ele>
        <time>2014-09-07T07:34:54.000Z</time>
      </trkpt>
      <trkpt lat="48.21213" lon="3.26517">
        <ele>67</ele>
        <time>2014-09-07T07:34:55.000Z</time>
      </trkpt>
      <trkpt lat="48.21216" lon="3.26513">
        <ele>67</ele>
        <time>2014-09-07T07:34:56.000Z</time>
      </trkpt>
      <trkpt lat="48.21218" lon="3.26511">
        <ele>67</ele>
        <time>2014-09-07T07:34:57.000Z</time>
      </trkpt>
      <trkpt lat="48.21221" lon="3.26509">
        <ele>67</ele>
        <time>2014-09-07T07:34:58.000Z</time>
      </trkpt>
      <trkpt lat="48.21223" lon="3.26504">
        <ele>67</ele>
        <time>2014-09-07T07:34:59.000Z</time>
      </trkpt>
      <trkpt lat="48.21226" lon="3.26502">
        <ele>67</ele>
        <time>2014-09-07T07:35:00.000Z</time>
      </trkpt>
      <trkpt lat="48.21227" lon="3.26498">
        <ele>72</ele>
        <time>2014-09-07T07:35:01.000Z</time>
      </trkpt>
      <trkpt lat="48.21229" lon="3.26494">
        <ele>72</ele>
        <time>2014-09-07T07:35:02.000Z</time>
      </trkpt>
      <trkpt lat="48.2123" lon="3.26489">
        <ele>72</ele>
        <time>2014-09-07T07:35:03.000Z</time>
      </trkpt>
      <trkpt lat="48.21232" lon="3.26485">
        <ele>72</ele>
        <time>2014-09-07T07:35:04.000Z</time>
      </trkpt>
      <trkpt lat="48.21234" lon="3.26481">
        <ele>73</ele>
        <time>2014-09-07T07:35:05.000Z</time>
      </trkpt>
      <trkpt lat="48.21236" lon="3.26476">
        <ele>73</ele>
        <time>2014-09-07T07:35:06.000Z</time>
      </trkpt>
      <trkpt lat="48.21239" lon="3.26472">
        <ele>73</ele>
        <time>2014-09-07T07:35:07.000Z</time>
      </trkpt>
      <trkpt lat="48.21241" lon="3.26466">
        <ele>74</ele>
        <time>2014-09-07T07:35:08.000Z</time>
      </trkpt>
      <trkpt lat="48.21244" lon="3.26461">
        <ele>75</ele>
        <time>2014-09-07T07:35:09.000Z</time>
      </trkpt>
      <trkpt lat="48.21247" lon="3.26457">
        <ele>75</ele>
        <time>2014-09-07T07:35:10.000Z</time>
      </trkpt>
      <trkpt lat="48.2125" lon="3.26451">
        <ele>73</ele>
        <time>2014-09-07T07:35:11.000Z</time>
      </trkpt>
      <trkpt lat="48.21254" lon="3.26444">
        <ele>74</ele>
        <time>2014-09-07T07:35:12.000Z</time>
      </trkpt>
      <trkpt lat="48.21257" lon="3.2644">
        <ele>75</ele>
        <time>2014-09-07T07:35:13.000Z</time>
      </trkpt>
      <trkpt lat="48.2126" lon="3.26433">
        <ele>75</ele>
        <time>2014-09-07T07:35:14.000Z</time>
      </trkpt>
      <trkpt lat="48.21264" lon="3.26427">
        <ele>76</ele>
        <time>2014-09-07T07:35:15.000Z</time>
      </trkpt>
      <trkpt lat="48.21269" lon="3.26423">
        <ele>76</ele>
        <time>2014-09-07T07:35:16.000Z</time>
      </trkpt>
      <trkpt lat="48.21273" lon="3.26418">
        <ele>75</ele>
        <time>2014-09-07T07:35:17.000Z</time>
      </trkpt>
      <trkpt lat="48.21278" lon="3.26412">
        <ele>83</ele>
        <time>2014-09-07T07:35:18.000Z</time>
      </trkpt>
      <trkpt lat="48.21284" lon="3.26408">
        <ele>83</ele>
        <time>2014-09-07T07:35:19.000Z</time>
      </trkpt>
      <trkpt lat="48.21289" lon="3.26406">
        <ele>83</ele>
        <time>2014-09-07T07:35:20.000Z</time>
      </trkpt>
      <trkpt lat="48.21294" lon="3.26401">
        <ele>83</ele>
        <time>2014-09-07T07:35:21.000Z</time>
      </trkpt>
      <trkpt lat="48.213" lon="3.26399">
        <ele>82</ele>
        <time>2014-09-07T07:35:22.000Z</time>
      </trkpt>
      <trkpt lat="48.21306" lon="3.26397">
        <ele>82</ele>
        <time>2014-09-07T07:35:23.000Z</time>
      </trkpt>
      <trkpt lat="48.21311" lon="3.26395">
        <ele>82</ele>
        <time>2014-09-07T07:35:24.000Z</time>
      </trkpt>
      <trkpt lat="48.21318" lon="3.26393">
        <ele>82</ele>
        <time>2014-09-07T07:35:25.000Z</time>
      </trkpt>
      <trkpt lat="48.21323" lon="3.26393">
        <ele>81</ele>
        <time>2014-09-07T07:35:26.000Z</time>
      </trkpt>
      <trkpt lat="48.2133" lon="3.26393">
        <ele>81</ele>
        <time>2014-09-07T07:35:27.000Z</time>
      </trkpt>
      <trkpt lat="48.21335" lon="3.26393">
        <ele>77</ele>
        <time>2014-09-07T07:35:28.000Z</time>
      </trkpt>
      <trkpt lat="48.21342" lon="3.26393">
        <ele>77</ele>
        <time>2014-09-07T07:35:29.000Z</time>
      </trkpt>
      <trkpt lat="48.21347" lon="3.26393">
        <ele>77</ele>
        <time>2014-09-07T07:35:30.000Z</time>
      </trkpt>
      <trkpt lat="48.21353" lon="3.26395">
        <ele>77</ele>
        <time>2014-09-07T07:35:31.000Z</time>
      </trkpt>
      <trkpt lat="48.2136" lon="3.26395">
        <ele>77</ele>
        <time>2014-09-07T07:35:32.000Z</time>
      </trkpt>
      <trkpt lat="48.21365" lon="3.26395">
        <ele>77</ele>
        <time>2014-09-07T07:35:33.000Z</time>
      </trkpt>
      <trkpt lat="48.21372" lon="3.26397">
        <ele>76</ele>
        <time>2014-09-07T07:35:34.000Z</time>
      </trkpt>
      <trkpt lat="48.21378" lon="3.26397">
        <ele>76</ele>
        <time>2014-09-07T07:35:35.000Z</time>
      </trkpt>
      <trkpt lat="48.21384" lon="3.26397">
        <ele>76</ele>
        <time>2014-09-07T07:35:36.000Z</time>
      </trkpt>
      <trkpt lat="48.2139" lon="3.26397">
        <ele>76</ele>
        <time>2014-09-07T07:35:37.000Z</time>
      </trkpt>
      <trkpt lat="48.21396" lon="3.26397">
        <ele>75</ele>
        <time>2014-09-07T07:35:38.000Z</time>
      </trkpt>
      <trkpt lat="48.21403" lon="3.26397">
        <ele>75</ele>
        <time>2014-09-07T07:35:39.000Z</time>
      </trkpt>
      <trkpt lat="48.21409" lon="3.26397">
        <ele>74</ele>
        <time>2014-09-07T07:35:40.000Z</time>
      </trkpt>
      <trkpt lat="48.21414" lon="3.26397">
        <ele>74</ele>
        <time>2014-09-07T07:35:41.000Z</time>
      </trkpt>
      <trkpt lat="48.21421" lon="3.26397">
        <ele>71</ele>
        <time>2014-09-07T07:35:42.000Z</time>
      </trkpt>
      <trkpt lat="48.21427" lon="3.26395">
        <ele>71</ele>
        <time>2014-09-07T07:35:43.000Z</time>
      </trkpt>
      <trkpt lat="48.21434" lon="3.26395">
        <ele>71</ele>
        <time>2014-09-07T07:35:44.000Z</time>
      </trkpt>
      <trkpt lat="48.2144" lon="3.26393">
        <ele>71</ele>
        <time>2014-09-07T07:35:45.000Z</time>
      </trkpt>
      <trkpt lat="48.21447" lon="3.26391">
        <ele>71</ele>
        <time>2014-09-07T07:35:46.000Z</time>
      </trkpt>
      <trkpt lat="48.21453" lon="3.26388">
        <ele>71</ele>
        <time>2014-09-07T07:35:47.000Z</time>
      </trkpt>
      <trkpt lat="48.2146" lon="3.26386">
        <ele>71</ele>
        <time>2014-09-07T07:35:48.000Z</time>
      </trkpt>
      <trkpt lat="48.21466" lon="3.26386">
        <ele>71</ele>
        <time>2014-09-07T07:35:49.000Z</time>
      </trkpt>
      <trkpt lat="48.21472" lon="3.26384">
        <ele>71</ele>
        <time>2014-09-07T07:35:50.000Z</time>
      </trkpt>
      <trkpt lat="48.21479" lon="3.26382">
        <ele>71</ele>
        <time>2014-09-07T07:35:51.000Z</time>
      </trkpt>
      <trkpt lat="48.21486" lon="3.2638">
        <ele>71</ele>
        <time>2014-09-07T07:35:52.000Z</time>
      </trkpt>
      <trkpt lat="48.21493" lon="3.2638">
        <ele>70</ele>
        <time>2014-09-07T07:35:53.000Z</time>
      </trkpt>
      <trkpt lat="48.21499" lon="3.26378">
        <ele>70</ele>
        <time>2014-09-07T07:35:54.000Z</time>
      </trkpt>
      <trkpt lat="48.21507" lon="3.26375">
        <ele>67</ele>
        <time>2014-09-07T07:35:55.000Z</time>
      </trkpt>
      <trkpt lat="48.21513" lon="3.26375">
        <ele>67</ele>
        <time>2014-09-07T07:35:56.000Z</time>
      </trkpt>
      <trkpt lat="48.21521" lon="3.26373">
        <ele>67</ele>
        <time>2014-09-07T07:35:57.000Z</time>
      </trkpt>
      <trkpt lat="48.21527" lon="3.26371">
        <ele>67</ele>
        <time>2014-09-07T07:35:58.000Z</time>
      </trkpt>
      <trkpt lat="48.21535" lon="3.26369">
        <ele>67</ele>
        <time>2014-09-07T07:35:59.000Z</time>
      </trkpt>
      <trkpt lat="48.21542" lon="3.26367">
        <ele>67</ele>
        <time>2014-09-07T07:36:00.000Z</time>
      </trkpt>
      <trkpt lat="48.2155" lon="3.26365">
        <ele>67</ele>
        <time>2014-09-07T07:36:01.000Z</time>
      </trkpt>
      <trkpt lat="48.21557" lon="3.2636">
        <ele>66</ele>
        <time>2014-09-07T07:36:02.000Z</time>
      </trkpt>
      <trkpt lat="48.21565" lon="3.26356">
        <ele>66</ele>
        <time>2014-09-07T07:36:03.000Z</time>
      </trkpt>
      <trkpt lat="48.21572" lon="3.26354">
        <ele>66</ele>
        <time>2014-09-07T07:36:04.000Z</time>
      </trkpt>
      <trkpt lat="48.2158" lon="3.2635">
        <ele>65</ele>
        <time>2014-09-07T07:36:05.000Z</time>
      </trkpt>
      <trkpt lat="48.21586" lon="3.26343">
        <ele>64</ele>
        <time>2014-09-07T07:36:06.000Z</time>
      </trkpt>
      <trkpt lat="48.21594" lon="3.26339">
        <ele>64</ele>
        <time>2014-09-07T07:36:07.000Z</time>
      </trkpt>
      <trkpt lat="48.216" lon="3.26335">
        <ele>65</ele>
        <time>2014-09-07T07:36:08.000Z</time>
      </trkpt>
      <trkpt lat="48.21605" lon="3.2633">
        <ele>65</ele>
        <time>2014-09-07T07:36:09.000Z</time>
      </trkpt>
      <trkpt lat="48.21609" lon="3.26328">
        <ele>65</ele>
        <time>2014-09-07T07:36:10.000Z</time>
      </trkpt>
      <trkpt lat="48.21613" lon="3.26328">
        <ele>65</ele>
        <time>2014-09-07T07:36:11.000Z</time>
      </trkpt>
      <trkpt lat="48.21617" lon="3.2633">
        <ele>65</ele>
        <time>2014-09-07T07:36:12.000Z</time>
      </trkpt>
      <trkpt lat="48.2162" lon="3.26333">
        <ele>65</ele>
        <time>2014-09-07T07:36:13.000Z</time>
      </trkpt>
      <trkpt lat="48.21624" lon="3.26335">
        <ele>65</ele>
        <time>2014-09-07T07:36:14.000Z</time>
      </trkpt>
      <trkpt lat="48.21627" lon="3.26337">
        <ele>65</ele>
        <time>2014-09-07T07:36:15.000Z</time>
      </trkpt>
      <trkpt lat="48.2163" lon="3.26339">
        <ele>65</ele>
        <time>2014-09-07T07:36:16.000Z</time>
      </trkpt>
      <trkpt lat="48.21633" lon="3.26341">
        <ele>65</ele>
        <time>2014-09-07T07:36:17.000Z</time>
      </trkpt>
      <trkpt lat="48.21638" lon="3.26343">
        <ele>65</ele>
        <time>2014-09-07T07:36:18.000Z</time>
      </trkpt>
      <trkpt lat="48.21641" lon="3.26343">
        <ele>65</ele>
        <time>2014-09-07T07:36:19.000Z</time>
      </trkpt>
      <trkpt lat="48.21644" lon="3.26345">
        <ele>65</ele>
        <time>2014-09-07T07:36:20.000Z</time>
      </trkpt>
      <trkpt lat="48.21647" lon="3.26348">
        <ele>65</ele>
        <time>2014-09-07T07:36:21.000Z</time>
      </trkpt>
      <trkpt lat="48.21652" lon="3.2635">
        <ele>65</ele>
        <time>2014-09-07T07:36:22.000Z</time>
      </trkpt>
      <trkpt lat="48.21655" lon="3.2635">
        <ele>65</ele>
        <time>2014-09-07T07:36:23.000Z</time>
      </trkpt>
      <trkpt lat="48.21658" lon="3.2635">
        <ele>65</ele>
        <time>2014-09-07T07:36:24.000Z</time>
      </trkpt>
      <trkpt lat="48.21662" lon="3.2635">
        <ele>65</ele>
        <time>2014-09-07T07:36:26.000Z</time>
      </trkpt>
      <trkpt lat="48.21663" lon="3.26348">
        <ele>65</ele>
        <time>2014-09-07T07:36:27.000Z</time>
      </trkpt>
      <trkpt lat="48.21667" lon="3.26343">
        <ele>65</ele>
        <time>2014-09-07T07:39:26.000Z</time>
      </trkpt>
      <trkpt lat="48.21667" lon="3.26341">
        <ele>65</ele>
        <time>2014-09-07T07:39:27.000Z</time>
      </trkpt>
      <trkpt lat="48.21668" lon="3.26335">
        <ele>65</ele>
        <time>2014-09-07T07:39:37.000Z</time>
      </trkpt>
      <trkpt lat="48.21669" lon="3.26333">
        <ele>65</ele>
        <time>2014-09-07T07:39:38.000Z</time>
      </trkpt>
      <trkpt lat="48.21668" lon="3.26326">
        <ele>65</ele>
        <time>2014-09-07T07:39:40.000Z</time>
      </trkpt>
      <trkpt lat="48.21668" lon="3.26322">
        <ele>65</ele>
        <time>2014-09-07T07:39:41.000Z</time>
      </trkpt>
      <trkpt lat="48.21664" lon="3.26318">
        <ele>65</ele>
        <time>2014-09-07T07:39:43.000Z</time>
      </trkpt>
      <trkpt lat="48.21661" lon="3.26313">
        <ele>65</ele>
        <time>2014-09-07T07:39:44.000Z</time>
      </trkpt>
      <trkpt lat="48.21658" lon="3.26313">
        <ele>65</ele>
        <time>2014-09-07T07:39:45.000Z</time>
      </trkpt>
      <trkpt lat="48.21655" lon="3.26311">
        <ele>65</ele>
        <time>2014-09-07T07:39:46.000Z</time>
      </trkpt>
      <trkpt lat="48.21652" lon="3.26309">
        <ele>65</ele>
        <time>2014-09-07T07:39:47.000Z</time>
      </trkpt>
      <trkpt lat="48.21649" lon="3.26307">
        <ele>65</ele>
        <time>2014-09-07T07:39:48.000Z</time>
      </trkpt>
      <trkpt lat="48.21646" lon="3.26303">
        <ele>65</ele>
        <time>2014-09-07T07:39:49.000Z</time>
      </trkpt>
      <trkpt lat="48.21644" lon="3.26298">
        <ele>65</ele>
        <time>2014-09-07T07:39:50.000Z</time>
      </trkpt>
      <trkpt lat="48.21641" lon="3.26294">
        <ele>65</ele>
        <time>2014-09-07T07:39:51.000Z</time>
      </trkpt>
      <trkpt lat="48.21639" lon="3.2629">
        <ele>65</ele>
        <time>2014-09-07T07:39:52.000Z</time>
      </trkpt>
      <trkpt lat="48.21637" lon="3.26285">
        <ele>65</ele>
        <time>2014-09-07T07:39:53.000Z</time>
      </trkpt>
      <trkpt lat="48.21635" lon="3.26283">
        <ele>65</ele>
        <time>2014-09-07T07:39:54.000Z</time>
      </trkpt>
      <trkpt lat="48.21634" lon="3.26279">
        <ele>65</ele>
        <time>2014-09-07T07:39:55.000Z</time>
      </trkpt>
      <trkpt lat="48.21633" lon="3.26275">
        <ele>65</ele>
        <time>2014-09-07T07:39:56.000Z</time>
      </trkpt>
      <trkpt lat="48.21633" lon="3.26268">
        <ele>65</ele>
        <time>2014-09-07T07:39:58.000Z</time>
      </trkpt>
      <trkpt lat="48.21634" lon="3.26264">
        <ele>65</ele>
        <time>2014-09-07T07:39:59.000Z</time>
      </trkpt>
      <trkpt lat="48.21637" lon="3.2626">
        <ele>65</ele>
        <time>2014-09-07T07:40:00.000Z</time>
      </trkpt>
      <trkpt lat="48.21639" lon="3.26255">
        <ele>65</ele>
        <time>2014-09-07T07:40:01.000Z</time>
      </trkpt>
      <trkpt lat="48.21641" lon="3.26251">
        <ele>65</ele>
        <time>2014-09-07T07:40:02.000Z</time>
      </trkpt>
      <trkpt lat="48.21644" lon="3.26247">
        <ele>66</ele>
        <time>2014-09-07T07:40:03.000Z</time>
      </trkpt>
      <trkpt lat="48.21646" lon="3.26245">
        <ele>66</ele>
        <time>2014-09-07T07:40:04.000Z</time>
      </trkpt>
      <trkpt lat="48.21648" lon="3.2624">
        <ele>67</ele>
        <time>2014-09-07T07:40:05.000Z</time>
      </trkpt>
      <trkpt lat="48.21651" lon="3.26236">
        <ele>67</ele>
        <time>2014-09-07T07:40:06.000Z</time>
      </trkpt>
      <trkpt lat="48.21653" lon="3.26232">
        <ele>67</ele>
        <time>2014-09-07T07:40:07.000Z</time>
      </trkpt>
      <trkpt lat="48.21655" lon="3.2623">
        <ele>67</ele>
        <time>2014-09-07T07:40:08.000Z</time>
      </trkpt>
      <trkpt lat="48.21656" lon="3.26225">
        <ele>67</ele>
        <time>2014-09-07T07:40:09.000Z</time>
      </trkpt>
      <trkpt lat="48.21657" lon="3.26221">
        <ele>67</ele>
        <time>2014-09-07T07:40:10.000Z</time>
      </trkpt>
      <trkpt lat="48.21658" lon="3.26217">
        <ele>67</ele>
        <time>2014-09-07T07:40:11.000Z</time>
      </trkpt>
      <trkpt lat="48.21657" lon="3.26212">
        <ele>67</ele>
        <time>2014-09-07T07:40:12.000Z</time>
      </trkpt>
      <trkpt lat="48.21655" lon="3.26208">
        <ele>67</ele>
        <time>2014-09-07T07:40:13.000Z</time>
      </trkpt>
      <trkpt lat="48.21653" lon="3.26204">
        <ele>67</ele>
        <time>2014-09-07T07:40:14.000Z</time>
      </trkpt>
      <trkpt lat="48.21651" lon="3.262">
        <ele>67</ele>
        <time>2014-09-07T07:40:15.000Z</time>
      </trkpt>
      <trkpt lat="48.21647" lon="3.26197">
        <ele>67</ele>
        <time>2014-09-07T07:40:16.000Z</time>
      </trkpt>
      <trkpt lat="48.21645" lon="3.26193">
        <ele>67</ele>
        <time>2014-09-07T07:40:17.000Z</time>
      </trkpt>
      <trkpt lat="48.21642" lon="3.26189">
        <ele>68</ele>
        <time>2014-09-07T07:40:18.000Z</time>
      </trkpt>
      <trkpt lat="48.21639" lon="3.26187">
        <ele>68</ele>
        <time>2014-09-07T07:40:19.000Z</time>
      </trkpt>
      <trkpt lat="48.21635" lon="3.26182">
        <ele>68</ele>
        <time>2014-09-07T07:40:20.000Z</time>
      </trkpt>
      <trkpt lat="48.21632" lon="3.26178">
        <ele>68</ele>
        <time>2014-09-07T07:40:21.000Z</time>
      </trkpt>
      <trkpt lat="48.21629" lon="3.26176">
        <ele>68</ele>
        <time>2014-09-07T07:40:22.000Z</time>
      </trkpt>
      <trkpt lat="48.21626" lon="3.26172">
        <ele>68</ele>
        <time>2014-09-07T07:40:23.000Z</time>
      </trkpt>
      <trkpt lat="48.21623" lon="3.26169">
        <ele>68</ele>
        <time>2014-09-07T07:40:24.000Z</time>
      </trkpt>
      <trkpt lat="48.21619" lon="3.26165">
        <ele>69</ele>
        <time>2014-09-07T07:40:25.000Z</time>
      </trkpt>
      <trkpt lat="48.21617" lon="3.26161">
        <ele>69</ele>
        <time>2014-09-07T07:40:26.000Z</time>
      </trkpt>
      <trkpt lat="48.21614" lon="3.26159">
        <ele>69</ele>
        <time>2014-09-07T07:40:27.000Z</time>
      </trkpt>
      <trkpt lat="48.21611" lon="3.26154">
        <ele>69</ele>
        <time>2014-09-07T07:40:28.000Z</time>
      </trkpt>
      <trkpt lat="48.21609" lon="3.26152">
        <ele>69</ele>
        <time>2014-09-07T07:40:29.000Z</time>
      </trkpt>
      <trkpt lat="48.21605" lon="3.26148">
        <ele>69</ele>
        <time>2014-09-07T07:40:30.000Z</time>
      </trkpt>
      <trkpt lat="48.21603" lon="3.26144">
        <ele>69</ele>
        <time>2014-09-07T07:40:31.000Z</time>
      </trkpt>
      <trkpt lat="48.216" lon="3.26139">
        <ele>70</ele>
        <time>2014-09-07T07:40:32.000Z</time>
      </trkpt>
      <trkpt lat="48.21598" lon="3.26137">
        <ele>70</ele>
        <time>2014-09-07T07:40:33.000Z</time>
      </trkpt>
      <trkpt lat="48.21595" lon="3.26133">
        <ele>70</ele>
        <time>2014-09-07T07:40:34.000Z</time>
      </trkpt>
      <trkpt lat="48.21593" lon="3.26131">
        <ele>70</ele>
        <time>2014-09-07T07:40:35.000Z</time>
      </trkpt>
      <trkpt lat="48.21589" lon="3.26127">
        <ele>70</ele>
        <time>2014-09-07T07:40:36.000Z</time>
      </trkpt>
      <trkpt lat="48.21587" lon="3.26122">
        <ele>70</ele>
        <time>2014-09-07T07:40:37.000Z</time>
      </trkpt>
      <trkpt lat="48.21584" lon="3.2612">
        <ele>70</ele>
        <time>2014-09-07T07:40:38.000Z</time>
      </trkpt>
      <trkpt lat="48.21581" lon="3.26116">
        <ele>70</ele>
        <time>2014-09-07T07:40:39.000Z</time>
      </trkpt>
      <trkpt lat="48.21579" lon="3.26114">
        <ele>70</ele>
        <time>2014-09-07T07:40:40.000Z</time>
      </trkpt>
      <trkpt lat="48.21575" lon="3.26109">
        <ele>70</ele>
        <time>2014-09-07T07:40:41.000Z</time>
      </trkpt>
      <trkpt lat="48.21572" lon="3.26107">
        <ele>70</ele>
        <time>2014-09-07T07:40:42.000Z</time>
      </trkpt>
      <trkpt lat="48.21569" lon="3.26105">
        <ele>70</ele>
        <time>2014-09-07T07:40:43.000Z</time>
      </trkpt>
      <trkpt lat="48.21567" lon="3.26101">
        <ele>70</ele>
        <time>2014-09-07T07:40:44.000Z</time>
      </trkpt>
      <trkpt lat="48.21564" lon="3.26099">
        <ele>70</ele>
        <time>2014-09-07T07:40:45.000Z</time>
      </trkpt>
      <trkpt lat="48.2156" lon="3.26094">
        <ele>70</ele>
        <time>2014-09-07T07:40:46.000Z</time>
      </trkpt>
      <trkpt lat="48.21557" lon="3.26092">
        <ele>70</ele>
        <time>2014-09-07T07:40:47.000Z</time>
      </trkpt>
      <trkpt lat="48.21555" lon="3.26088">
        <ele>70</ele>
        <time>2014-09-07T07:40:48.000Z</time>
      </trkpt>
      <trkpt lat="48.21552" lon="3.26086">
        <ele>70</ele>
        <time>2014-09-07T07:40:49.000Z</time>
      </trkpt>
      <trkpt lat="48.21549" lon="3.26082">
        <ele>72</ele>
        <time>2014-09-07T07:40:50.000Z</time>
      </trkpt>
      <trkpt lat="48.21545" lon="3.26079">
        <ele>72</ele>
        <time>2014-09-07T07:40:51.000Z</time>
      </trkpt>
      <trkpt lat="48.21542" lon="3.26077">
        <ele>72</ele>
        <time>2014-09-07T07:40:52.000Z</time>
      </trkpt>
      <trkpt lat="48.21539" lon="3.26073">
        <ele>72</ele>
        <time>2014-09-07T07:40:53.000Z</time>
      </trkpt>
      <trkpt lat="48.21536" lon="3.26071">
        <ele>72</ele>
        <time>2014-09-07T07:40:54.000Z</time>
      </trkpt>
      <trkpt lat="48.21532" lon="3.26066">
        <ele>72</ele>
        <time>2014-09-07T07:40:55.000Z</time>
      </trkpt>
      <trkpt lat="48.2153" lon="3.26064">
        <ele>72</ele>
        <time>2014-09-07T07:40:56.000Z</time>
      </trkpt>
      <trkpt lat="48.21527" lon="3.2606">
        <ele>72</ele>
        <time>2014-09-07T07:40:57.000Z</time>
      </trkpt>
      <trkpt lat="48.21524" lon="3.26058">
        <ele>72</ele>
        <time>2014-09-07T07:40:58.000Z</time>
      </trkpt>
      <trkpt lat="48.21521" lon="3.26054">
        <ele>72</ele>
        <time>2014-09-07T07:40:59.000Z</time>
      </trkpt>
      <trkpt lat="48.21517" lon="3.26051">
        <ele>72</ele>
        <time>2014-09-07T07:41:00.000Z</time>
      </trkpt>
      <trkpt lat="48.21514" lon="3.26047">
        <ele>72</ele>
        <time>2014-09-07T07:41:01.000Z</time>
      </trkpt>
      <trkpt lat="48.21511" lon="3.26045">
        <ele>72</ele>
        <time>2014-09-07T07:41:02.000Z</time>
      </trkpt>
      <trkpt lat="48.21508" lon="3.26041">
        <ele>72</ele>
        <time>2014-09-07T07:41:03.000Z</time>
      </trkpt>
      <trkpt lat="48.21505" lon="3.26039">
        <ele>72</ele>
        <time>2014-09-07T07:41:04.000Z</time>
      </trkpt>
      <trkpt lat="48.21501" lon="3.26036">
        <ele>72</ele>
        <time>2014-09-07T07:41:05.000Z</time>
      </trkpt>
      <trkpt lat="48.21498" lon="3.26032">
        <ele>72</ele>
        <time>2014-09-07T07:41:06.000Z</time>
      </trkpt>
      <trkpt lat="48.21495" lon="3.2603">
        <ele>72</ele>
        <time>2014-09-07T07:41:07.000Z</time>
      </trkpt>
      <trkpt lat="48.21492" lon="3.26028">
        <ele>72</ele>
        <time>2014-09-07T07:41:08.000Z</time>
      </trkpt>
      <trkpt lat="48.21488" lon="3.26024">
        <ele>72</ele>
        <time>2014-09-07T07:41:09.000Z</time>
      </trkpt>
      <trkpt lat="48.21485" lon="3.26021">
        <ele>72</ele>
        <time>2014-09-07T07:41:10.000Z</time>
      </trkpt>
      <trkpt lat="48.21482" lon="3.26017">
        <ele>72</ele>
        <time>2014-09-07T07:41:11.000Z</time>
      </trkpt>
      <trkpt lat="48.21479" lon="3.26015">
        <ele>72</ele>
        <time>2014-09-07T07:41:12.000Z</time>
      </trkpt>
      <trkpt lat="48.21476" lon="3.26013">
        <ele>72</ele>
        <time>2014-09-07T07:41:13.000Z</time>
      </trkpt>
      <trkpt lat="48.21472" lon="3.26009">
        <ele>72</ele>
        <time>2014-09-07T07:41:14.000Z</time>
      </trkpt>
      <trkpt lat="48.21469" lon="3.26006">
        <ele>72</ele>
        <time>2014-09-07T07:41:15.000Z</time>
      </trkpt>
      <trkpt lat="48.21466" lon="3.26002">
        <ele>73</ele>
        <time>2014-09-07T07:41:16.000Z</time>
      </trkpt>
      <trkpt lat="48.21463" lon="3.26">
        <ele>75</ele>
        <time>2014-09-07T07:41:17.000Z</time>
      </trkpt>
      <trkpt lat="48.2146" lon="3.25998">
        <ele>75</ele>
        <time>2014-09-07T07:41:18.000Z</time>
      </trkpt>
      <trkpt lat="48.21456" lon="3.25994">
        <ele>75</ele>
        <time>2014-09-07T07:41:19.000Z</time>
      </trkpt>
      <trkpt lat="48.21453" lon="3.25991">
        <ele>75</ele>
        <time>2014-09-07T07:41:20.000Z</time>
      </trkpt>
      <trkpt lat="48.2145" lon="3.25989">
        <ele>75</ele>
        <time>2014-09-07T07:41:21.000Z</time>
      </trkpt>
      <trkpt lat="48.21447" lon="3.25985">
        <ele>75</ele>
        <time>2014-09-07T07:41:22.000Z</time>
      </trkpt>
      <trkpt lat="48.21443" lon="3.25983">
        <ele>75</ele>
        <time>2014-09-07T07:41:23.000Z</time>
      </trkpt>
      <trkpt lat="48.2144" lon="3.25981">
        <ele>75</ele>
        <time>2014-09-07T07:41:24.000Z</time>
      </trkpt>
      <trkpt lat="48.21437" lon="3.25976">
        <ele>75</ele>
        <time>2014-09-07T07:41:25.000Z</time>
      </trkpt>
      <trkpt lat="48.21434" lon="3.25974">
        <ele>75</ele>
        <time>2014-09-07T07:41:26.000Z</time>
      </trkpt>
      <trkpt lat="48.21431" lon="3.25972">
        <ele>75</ele>
        <time>2014-09-07T07:41:27.000Z</time>
      </trkpt>
      <trkpt lat="48.21427" lon="3.25968">
        <ele>75</ele>
        <time>2014-09-07T07:41:28.000Z</time>
      </trkpt>
      <trkpt lat="48.21424" lon="3.25966">
        <ele>75</ele>
        <time>2014-09-07T07:41:29.000Z</time>
      </trkpt>
      <trkpt lat="48.21421" lon="3.25963">
        <ele>75</ele>
        <time>2014-09-07T07:41:30.000Z</time>
      </trkpt>
      <trkpt lat="48.21419" lon="3.25959">
        <ele>75</ele>
        <time>2014-09-07T07:41:31.000Z</time>
      </trkpt>
      <trkpt lat="48.21416" lon="3.25957">
        <ele>75</ele>
        <time>2014-09-07T07:41:32.000Z</time>
      </trkpt>
      <trkpt lat="48.21412" lon="3.25955">
        <ele>75</ele>
        <time>2014-09-07T07:41:33.000Z</time>
      </trkpt>
      <trkpt lat="48.21409" lon="3.25951">
        <ele>75</ele>
        <time>2014-09-07T07:41:34.000Z</time>
      </trkpt>
      <trkpt lat="48.21406" lon="3.25948">
        <ele>75</ele>
        <time>2014-09-07T07:41:35.000Z</time>
      </trkpt>
      <trkpt lat="48.21403" lon="3.25946">
        <ele>75</ele>
        <time>2014-09-07T07:41:36.000Z</time>
      </trkpt>
      <trkpt lat="48.21399" lon="3.25942">
        <ele>75</ele>
        <time>2014-09-07T07:41:37.000Z</time>
      </trkpt>
      <trkpt lat="48.21397" lon="3.2594">
        <ele>75</ele>
        <time>2014-09-07T07:41:38.000Z</time>
      </trkpt>
      <trkpt lat="48.21394" lon="3.25938">
        <ele>75</ele>
        <time>2014-09-07T07:41:39.000Z</time>
      </trkpt>
      <trkpt lat="48.21391" lon="3.25933">
        <ele>75</ele>
        <time>2014-09-07T07:41:40.000Z</time>
      </trkpt>
      <trkpt lat="48.21388" lon="3.25931">
        <ele>75</ele>
        <time>2014-09-07T07:41:41.000Z</time>
      </trkpt>
      <trkpt lat="48.21384" lon="3.25929">
        <ele>75</ele>
        <time>2014-09-07T07:41:42.000Z</time>
      </trkpt>
      <trkpt lat="48.21381" lon="3.25925">
        <ele>75</ele>
        <time>2014-09-07T07:41:43.000Z</time>
      </trkpt>
      <trkpt lat="48.21378" lon="3.25923">
        <ele>75</ele>
        <time>2014-09-07T07:41:44.000Z</time>
      </trkpt>
      <trkpt lat="48.21375" lon="3.25921">
        <ele>75</ele>
        <time>2014-09-07T07:41:45.000Z</time>
      </trkpt>
      <trkpt lat="48.21372" lon="3.25916">
        <ele>78</ele>
        <time>2014-09-07T07:41:46.000Z</time>
      </trkpt>
      <trkpt lat="48.21368" lon="3.25912">
        <ele>78</ele>
        <time>2014-09-07T07:41:47.000Z</time>
      </trkpt>
      <trkpt lat="48.21365" lon="3.2591">
        <ele>78</ele>
        <time>2014-09-07T07:41:48.000Z</time>
      </trkpt>
      <trkpt lat="48.21362" lon="3.25906">
        <ele>78</ele>
        <time>2014-09-07T07:41:49.000Z</time>
      </trkpt>
      <trkpt lat="48.21359" lon="3.25903">
        <ele>78</ele>
        <time>2014-09-07T07:41:50.000Z</time>
      </trkpt>
      <trkpt lat="48.21355" lon="3.25899">
        <ele>78</ele>
        <time>2014-09-07T07:41:51.000Z</time>
      </trkpt>
      <trkpt lat="48.21352" lon="3.25895">
        <ele>78</ele>
        <time>2014-09-07T07:41:52.000Z</time>
      </trkpt>
      <trkpt lat="48.21349" lon="3.25893">
        <ele>78</ele>
        <time>2014-09-07T07:41:53.000Z</time>
      </trkpt>
      <trkpt lat="48.21346" lon="3.25888">
        <ele>78</ele>
        <time>2014-09-07T07:41:54.000Z</time>
      </trkpt>
      <trkpt lat="48.21343" lon="3.25886">
        <ele>78</ele>
        <time>2014-09-07T07:41:55.000Z</time>
      </trkpt>
      <trkpt lat="48.21339" lon="3.25882">
        <ele>78</ele>
        <time>2014-09-07T07:41:56.000Z</time>
      </trkpt>
      <trkpt lat="48.21337" lon="3.2588">
        <ele>78</ele>
        <time>2014-09-07T07:41:57.000Z</time>
      </trkpt>
      <trkpt lat="48.21334" lon="3.25878">
        <ele>78</ele>
        <time>2014-09-07T07:41:58.000Z</time>
      </trkpt>
      <trkpt lat="48.21331" lon="3.25876">
        <ele>77</ele>
        <time>2014-09-07T07:41:59.000Z</time>
      </trkpt>
      <trkpt lat="48.21328" lon="3.25871">
        <ele>77</ele>
        <time>2014-09-07T07:42:00.000Z</time>
      </trkpt>
      <trkpt lat="48.21324" lon="3.25869">
        <ele>77</ele>
        <time>2014-09-07T07:42:01.000Z</time>
      </trkpt>
      <trkpt lat="48.21321" lon="3.25867">
        <ele>77</ele>
        <time>2014-09-07T07:42:02.000Z</time>
      </trkpt>
      <trkpt lat="48.21318" lon="3.25863">
        <ele>78</ele>
        <time>2014-09-07T07:42:03.000Z</time>
      </trkpt>
      <trkpt lat="48.21315" lon="3.25861">
        <ele>78</ele>
        <time>2014-09-07T07:42:04.000Z</time>
      </trkpt>
      <trkpt lat="48.21311" lon="3.25858">
        <ele>78</ele>
        <time>2014-09-07T07:42:05.000Z</time>
      </trkpt>
      <trkpt lat="48.21308" lon="3.25854">
        <ele>78</ele>
        <time>2014-09-07T07:42:06.000Z</time>
      </trkpt>
      <trkpt lat="48.21305" lon="3.25852">
        <ele>78</ele>
        <time>2014-09-07T07:42:07.000Z</time>
      </trkpt>
      <trkpt lat="48.21302" lon="3.2585">
        <ele>78</ele>
        <time>2014-09-07T07:42:08.000Z</time>
      </trkpt>
      <trkpt lat="48.213" lon="3.25845">
        <ele>78</ele>
        <time>2014-09-07T07:42:09.000Z</time>
      </trkpt>
      <trkpt lat="48.21296" lon="3.25843">
        <ele>77</ele>
        <time>2014-09-07T07:42:10.000Z</time>
      </trkpt>
      <trkpt lat="48.21293" lon="3.25841">
        <ele>77</ele>
        <time>2014-09-07T07:42:11.000Z</time>
      </trkpt>
      <trkpt lat="48.2129" lon="3.25837">
        <ele>77</ele>
        <time>2014-09-07T07:42:12.000Z</time>
      </trkpt>
      <trkpt lat="48.21288" lon="3.25833">
        <ele>80</ele>
        <time>2014-09-07T07:42:13.000Z</time>
      </trkpt>
      <trkpt lat="48.21286" lon="3.25828">
        <ele>80</ele>
        <time>2014-09-07T07:42:14.000Z</time>
      </trkpt>
      <trkpt lat="48.21284" lon="3.25824">
        <ele>80</ele>
        <time>2014-09-07T07:42:15.000Z</time>
      </trkpt>
      <trkpt lat="48.21281" lon="3.2582">
        <ele>80</ele>
        <time>2014-09-07T07:42:16.000Z</time>
      </trkpt>
      <trkpt lat="48.21279" lon="3.25813">
        <ele>80</ele>
        <time>2014-09-07T07:42:17.000Z</time>
      </trkpt>
      <trkpt lat="48.21276" lon="3.25809">
        <ele>80</ele>
        <time>2014-09-07T07:42:18.000Z</time>
      </trkpt>
      <trkpt lat="48.21274" lon="3.25807">
        <ele>80</ele>
        <time>2014-09-07T07:42:19.000Z</time>
      </trkpt>
      <trkpt lat="48.21272" lon="3.25803">
        <ele>80</ele>
        <time>2014-09-07T07:42:20.000Z</time>
      </trkpt>
      <trkpt lat="48.2127" lon="3.25798">
        <ele>80</ele>
        <time>2014-09-07T07:42:21.000Z</time>
      </trkpt>
      <trkpt lat="48.21265" lon="3.25796">
        <ele>80</ele>
        <time>2014-09-07T07:42:23.000Z</time>
      </trkpt>
      <trkpt lat="48.21262" lon="3.25794">
        <ele>80</ele>
        <time>2014-09-07T07:42:24.000Z</time>
      </trkpt>
      <trkpt lat="48.21258" lon="3.25794">
        <ele>80</ele>
        <time>2014-09-07T07:42:25.000Z</time>
      </trkpt>
      <trkpt lat="48.21252" lon="3.25796">
        <ele>80</ele>
        <time>2014-09-07T07:42:26.000Z</time>
      </trkpt>
      <trkpt lat="48.21248" lon="3.25798">
        <ele>77</ele>
        <time>2014-09-07T07:42:27.000Z</time>
      </trkpt>
      <trkpt lat="48.21243" lon="3.25803">
        <ele>77</ele>
        <time>2014-09-07T07:42:28.000Z</time>
      </trkpt>
      <trkpt lat="48.21237" lon="3.25809">
        <ele>77</ele>
        <time>2014-09-07T07:42:29.000Z</time>
      </trkpt>
      <trkpt lat="48.21233" lon="3.25813">
        <ele>77</ele>
        <time>2014-09-07T07:42:30.000Z</time>
      </trkpt>
      <trkpt lat="48.21228" lon="3.25815">
        <ele>77</ele>
        <time>2014-09-07T07:42:31.000Z</time>
      </trkpt>
      <trkpt lat="48.21221" lon="3.25811">
        <ele>77</ele>
        <time>2014-09-07T07:42:32.000Z</time>
      </trkpt>
      <trkpt lat="48.21218" lon="3.25805">
        <ele>77</ele>
        <time>2014-09-07T07:42:33.000Z</time>
      </trkpt>
      <trkpt lat="48.21214" lon="3.25798">
        <ele>77</ele>
        <time>2014-09-07T07:42:34.000Z</time>
      </trkpt>
      <trkpt lat="48.21211" lon="3.25792">
        <ele>77</ele>
        <time>2014-09-07T07:42:35.000Z</time>
      </trkpt>
      <trkpt lat="48.21208" lon="3.25785">
        <ele>77</ele>
        <time>2014-09-07T07:42:36.000Z</time>
      </trkpt>
      <trkpt lat="48.21206" lon="3.25781">
        <ele>77</ele>
        <time>2014-09-07T07:42:37.000Z</time>
      </trkpt>
      <trkpt lat="48.21204" lon="3.25775">
        <ele>77</ele>
        <time>2014-09-07T07:42:38.000Z</time>
      </trkpt>
      <trkpt lat="48.21202" lon="3.25768">
        <ele>77</ele>
        <time>2014-09-07T07:42:39.000Z</time>
      </trkpt>
      <trkpt lat="48.212" lon="3.25764">
        <ele>77</ele>
        <time>2014-09-07T07:42:40.000Z</time>
      </trkpt>
      <trkpt lat="48.21199" lon="3.2576">
        <ele>77</ele>
        <time>2014-09-07T07:42:41.000Z</time>
      </trkpt>
      <trkpt lat="48.21197" lon="3.25755">
        <ele>77</ele>
        <time>2014-09-07T07:42:42.000Z</time>
      </trkpt>
      <trkpt lat="48.21196" lon="3.25751">
        <ele>77</ele>
        <time>2014-09-07T07:42:43.000Z</time>
      </trkpt>
      <trkpt lat="48.21196" lon="3.25749">
        <ele>78</ele>
        <time>2014-09-07T07:42:45.000Z</time>
      </trkpt>
      <trkpt lat="48.21191" lon="3.25747">
        <ele>78</ele>
        <time>2014-09-07T07:42:46.000Z</time>
      </trkpt>
      <trkpt lat="48.21188" lon="3.25745">
        <ele>77</ele>
        <time>2014-09-07T07:42:47.000Z</time>
      </trkpt>
      <trkpt lat="48.21186" lon="3.25747">
        <ele>77</ele>
        <time>2014-09-07T07:42:48.000Z</time>
      </trkpt>
      <trkpt lat="48.21182" lon="3.25747">
        <ele>77</ele>
        <time>2014-09-07T07:42:49.000Z</time>
      </trkpt>
      <trkpt lat="48.21178" lon="3.25747">
        <ele>77</ele>
        <time>2014-09-07T07:42:50.000Z</time>
      </trkpt>
      <trkpt lat="48.21174" lon="3.25747">
        <ele>76</ele>
        <time>2014-09-07T07:42:51.000Z</time>
      </trkpt>
      <trkpt lat="48.21171" lon="3.25747">
        <ele>76</ele>
        <time>2014-09-07T07:42:52.000Z</time>
      </trkpt>
      <trkpt lat="48.21168" lon="3.25742">
        <ele>76</ele>
        <time>2014-09-07T07:42:53.000Z</time>
      </trkpt>
      <trkpt lat="48.21166" lon="3.25738">
        <ele>76</ele>
        <time>2014-09-07T07:42:54.000Z</time>
      </trkpt>
      <trkpt lat="48.21163" lon="3.25732">
        <ele>76</ele>
        <time>2014-09-07T07:42:55.000Z</time>
      </trkpt>
      <trkpt lat="48.21161" lon="3.25727">
        <ele>77</ele>
        <time>2014-09-07T07:42:56.000Z</time>
      </trkpt>
      <trkpt lat="48.21159" lon="3.25723">
        <ele>77</ele>
        <time>2014-09-07T07:42:57.000Z</time>
      </trkpt>
      <trkpt lat="48.21157" lon="3.25719">
        <ele>77</ele>
        <time>2014-09-07T07:42:58.000Z</time>
      </trkpt>
      <trkpt lat="48.21155" lon="3.25717">
        <ele>77</ele>
        <time>2014-09-07T07:42:59.000Z</time>
      </trkpt>
      <trkpt lat="48.21153" lon="3.25712">
        <ele>77</ele>
        <time>2014-09-07T07:43:00.000Z</time>
      </trkpt>
      <trkpt lat="48.21149" lon="3.25708">
        <ele>77</ele>
        <time>2014-09-07T07:43:01.000Z</time>
      </trkpt>
      <trkpt lat="48.21146" lon="3.25706">
        <ele>77</ele>
        <time>2014-09-07T07:43:02.000Z</time>
      </trkpt>
      <trkpt lat="48.21143" lon="3.25704">
        <ele>77</ele>
        <time>2014-09-07T07:43:03.000Z</time>
      </trkpt>
      <trkpt lat="48.2114" lon="3.257">
        <ele>77</ele>
        <time>2014-09-07T07:43:04.000Z</time>
      </trkpt>
      <trkpt lat="48.21137" lon="3.25697">
        <ele>77</ele>
        <time>2014-09-07T07:43:05.000Z</time>
      </trkpt>
      <trkpt lat="48.21133" lon="3.25695">
        <ele>77</ele>
        <time>2014-09-07T07:43:06.000Z</time>
      </trkpt>
      <trkpt lat="48.2113" lon="3.25693">
        <ele>77</ele>
        <time>2014-09-07T07:43:07.000Z</time>
      </trkpt>
      <trkpt lat="48.21127" lon="3.25691">
        <ele>77</ele>
        <time>2014-09-07T07:43:08.000Z</time>
      </trkpt>
      <trkpt lat="48.21124" lon="3.25689">
        <ele>77</ele>
        <time>2014-09-07T07:43:09.000Z</time>
      </trkpt>
      <trkpt lat="48.21121" lon="3.25687">
        <ele>77</ele>
        <time>2014-09-07T07:43:10.000Z</time>
      </trkpt>
      <trkpt lat="48.21117" lon="3.25685">
        <ele>77</ele>
        <time>2014-09-07T07:43:11.000Z</time>
      </trkpt>
      <trkpt lat="48.21114" lon="3.25682">
        <ele>77</ele>
        <time>2014-09-07T07:43:12.000Z</time>
      </trkpt>
      <trkpt lat="48.21112" lon="3.25678">
        <ele>77</ele>
        <time>2014-09-07T07:43:13.000Z</time>
      </trkpt>
      <trkpt lat="48.21111" lon="3.25674">
        <ele>77</ele>
        <time>2014-09-07T07:43:14.000Z</time>
      </trkpt>
      <trkpt lat="48.2111" lon="3.25667">
        <ele>77</ele>
        <time>2014-09-07T07:43:15.000Z</time>
      </trkpt>
      <trkpt lat="48.21111" lon="3.25663">
        <ele>77</ele>
        <time>2014-09-07T07:43:16.000Z</time>
      </trkpt>
      <trkpt lat="48.21111" lon="3.25659">
        <ele>77</ele>
        <time>2014-09-07T07:43:17.000Z</time>
      </trkpt>
      <trkpt lat="48.21111" lon="3.25652">
        <ele>77</ele>
        <time>2014-09-07T07:43:18.000Z</time>
      </trkpt>
      <trkpt lat="48.21112" lon="3.25648">
        <ele>77</ele>
        <time>2014-09-07T07:43:19.000Z</time>
      </trkpt>
      <trkpt lat="48.21112" lon="3.25644">
        <ele>77</ele>
        <time>2014-09-07T07:43:20.000Z</time>
      </trkpt>
      <trkpt lat="48.21113" lon="3.25639">
        <ele>77</ele>
        <time>2014-09-07T07:43:21.000Z</time>
      </trkpt>
      <trkpt lat="48.21113" lon="3.25635">
        <ele>77</ele>
        <time>2014-09-07T07:43:23.000Z</time>
      </trkpt>
      <trkpt lat="48.21113" lon="3.25631">
        <ele>77</ele>
        <time>2014-09-07T07:43:24.000Z</time>
      </trkpt>
      <trkpt lat="48.21114" lon="3.25624">
        <ele>77</ele>
        <time>2014-09-07T07:43:26.000Z</time>
      </trkpt>
      <trkpt lat="48.21114" lon="3.25622">
        <ele>77</ele>
        <time>2014-09-07T07:43:27.000Z</time>
      </trkpt>
      <trkpt lat="48.21115" lon="3.25618">
        <ele>77</ele>
        <time>2014-09-07T07:43:28.000Z</time>
      </trkpt>
      <trkpt lat="48.21115" lon="3.25614">
        <ele>77</ele>
        <time>2014-09-07T07:43:29.000Z</time>
      </trkpt>
      <trkpt lat="48.21116" lon="3.25607">
        <ele>77</ele>
        <time>2014-09-07T07:43:31.000Z</time>
      </trkpt>
      <trkpt lat="48.21116" lon="3.25603">
        <ele>77</ele>
        <time>2014-09-07T07:43:32.000Z</time>
      </trkpt>
      <trkpt lat="48.21117" lon="3.25599">
        <ele>77</ele>
        <time>2014-09-07T07:43:33.000Z</time>
      </trkpt>
      <trkpt lat="48.21117" lon="3.25594">
        <ele>78</ele>
        <time>2014-09-07T07:43:34.000Z</time>
      </trkpt>
      <trkpt lat="48.21118" lon="3.25588">
        <ele>78</ele>
        <time>2014-09-07T07:43:35.000Z</time>
      </trkpt>
      <trkpt lat="48.21119" lon="3.25584">
        <ele>78</ele>
        <time>2014-09-07T07:43:36.000Z</time>
      </trkpt>
      <trkpt lat="48.21119" lon="3.25579">
        <ele>79</ele>
        <time>2014-09-07T07:43:37.000Z</time>
      </trkpt>
      <trkpt lat="48.21121" lon="3.25573">
        <ele>80</ele>
        <time>2014-09-07T07:43:38.000Z</time>
      </trkpt>
      <trkpt lat="48.21121" lon="3.25569">
        <ele>80</ele>
        <time>2014-09-07T07:43:40.000Z</time>
      </trkpt>
      <trkpt lat="48.21119" lon="3.2556">
        <ele>80</ele>
        <time>2014-09-07T07:43:41.000Z</time>
      </trkpt>
      <trkpt lat="48.21116" lon="3.25558">
        <ele>80</ele>
        <time>2014-09-07T07:43:42.000Z</time>
      </trkpt>
      <trkpt lat="48.21113" lon="3.25556">
        <ele>80</ele>
        <time>2014-09-07T07:43:43.000Z</time>
      </trkpt>
      <trkpt lat="48.2111" lon="3.25556">
        <ele>80</ele>
        <time>2014-09-07T07:43:44.000Z</time>
      </trkpt>
      <trkpt lat="48.21107" lon="3.25554">
        <ele>80</ele>
        <time>2014-09-07T07:43:45.000Z</time>
      </trkpt>
      <trkpt lat="48.21102" lon="3.25552">
        <ele>80</ele>
        <time>2014-09-07T07:43:46.000Z</time>
      </trkpt>
      <trkpt lat="48.21099" lon="3.25552">
        <ele>80</ele>
        <time>2014-09-07T07:43:47.000Z</time>
      </trkpt>
      <trkpt lat="48.21095" lon="3.25549">
        <ele>80</ele>
        <time>2014-09-07T07:43:48.000Z</time>
      </trkpt>
      <trkpt lat="48.21092" lon="3.25549">
        <ele>80</ele>
        <time>2014-09-07T07:43:49.000Z</time>
      </trkpt>
      <trkpt lat="48.21088" lon="3.25547">
        <ele>80</ele>
        <time>2014-09-07T07:43:50.000Z</time>
      </trkpt>
      <trkpt lat="48.21084" lon="3.25545">
        <ele>80</ele>
        <time>2014-09-07T07:43:51.000Z</time>
      </trkpt>
      <trkpt lat="48.21081" lon="3.25545">
        <ele>80</ele>
        <time>2014-09-07T07:43:52.000Z</time>
      </trkpt>
      <trkpt lat="48.21077" lon="3.25543">
        <ele>80</ele>
        <time>2014-09-07T07:43:53.000Z</time>
      </trkpt>
      <trkpt lat="48.21073" lon="3.25541">
        <ele>81</ele>
        <time>2014-09-07T07:43:54.000Z</time>
      </trkpt>
      <trkpt lat="48.2107" lon="3.25539">
        <ele>81</ele>
        <time>2014-09-07T07:43:55.000Z</time>
      </trkpt>
      <trkpt lat="48.21066" lon="3.25539">
        <ele>81</ele>
        <time>2014-09-07T07:43:56.000Z</time>
      </trkpt>
      <trkpt lat="48.21063" lon="3.25536">
        <ele>81</ele>
        <time>2014-09-07T07:43:57.000Z</time>
      </trkpt>
      <trkpt lat="48.21059" lon="3.25534">
        <ele>81</ele>
        <time>2014-09-07T07:43:58.000Z</time>
      </trkpt>
      <trkpt lat="48.21055" lon="3.25532">
        <ele>81</ele>
        <time>2014-09-07T07:43:59.000Z</time>
      </trkpt>
      <trkpt lat="48.21052" lon="3.2553">
        <ele>81</ele>
        <time>2014-09-07T07:44:00.000Z</time>
      </trkpt>
      <trkpt lat="48.21048" lon="3.25528">
        <ele>81</ele>
        <time>2014-09-07T07:44:01.000Z</time>
      </trkpt>
      <trkpt lat="48.21044" lon="3.25526">
        <ele>81</ele>
        <time>2014-09-07T07:44:02.000Z</time>
      </trkpt>
      <trkpt lat="48.21041" lon="3.25524">
        <ele>81</ele>
        <time>2014-09-07T07:44:03.000Z</time>
      </trkpt>
      <trkpt lat="48.21038" lon="3.25521">
        <ele>81</ele>
        <time>2014-09-07T07:44:04.000Z</time>
      </trkpt>
      <trkpt lat="48.21035" lon="3.25521">
        <ele>81</ele>
        <time>2014-09-07T07:44:05.000Z</time>
      </trkpt>
      <trkpt lat="48.21031" lon="3.25519">
        <ele>81</ele>
        <time>2014-09-07T07:44:06.000Z</time>
      </trkpt>
      <trkpt lat="48.21028" lon="3.25517">
        <ele>81</ele>
        <time>2014-09-07T07:44:07.000Z</time>
      </trkpt>
      <trkpt lat="48.21025" lon="3.25515">
        <ele>81</ele>
        <time>2014-09-07T07:44:08.000Z</time>
      </trkpt>
      <trkpt lat="48.21022" lon="3.25513">
        <ele>81</ele>
        <time>2014-09-07T07:44:09.000Z</time>
      </trkpt>
      <trkpt lat="48.2102" lon="3.25511">
        <ele>81</ele>
        <time>2014-09-07T07:44:10.000Z</time>
      </trkpt>
      <trkpt lat="48.21016" lon="3.25511">
        <ele>81</ele>
        <time>2014-09-07T07:44:11.000Z</time>
      </trkpt>
      <trkpt lat="48.21014" lon="3.25509">
        <ele>81</ele>
        <time>2014-09-07T07:44:14.000Z</time>
      </trkpt>
      <trkpt lat="48.21008" lon="3.25506">
        <ele>81</ele>
        <time>2014-09-07T07:44:15.000Z</time>
      </trkpt>
      <trkpt lat="48.21008" lon="3.25506">
        <ele>81</ele>
        <time>2014-09-07T07:44:17.000Z</time>
      </trkpt>
      <trkpt lat="48.21002" lon="3.25502">
        <ele>81</ele>
        <time>2014-09-07T07:44:18.000Z</time>
      </trkpt>
      <trkpt lat="48.20999" lon="3.25502">
        <ele>81</ele>
        <time>2014-09-07T07:44:19.000Z</time>
      </trkpt>
      <trkpt lat="48.20997" lon="3.255">
        <ele>82</ele>
        <time>2014-09-07T07:44:20.000Z</time>
      </trkpt>
      <trkpt lat="48.20994" lon="3.255">
        <ele>82</ele>
        <time>2014-09-07T07:44:21.000Z</time>
      </trkpt>
      <trkpt lat="48.20991" lon="3.25498">
        <ele>83</ele>
        <time>2014-09-07T07:44:22.000Z</time>
      </trkpt>
      <trkpt lat="48.20987" lon="3.25498">
        <ele>83</ele>
        <time>2014-09-07T07:44:23.000Z</time>
      </trkpt>
      <trkpt lat="48.20984" lon="3.25496">
        <ele>83</ele>
        <time>2014-09-07T07:44:24.000Z</time>
      </trkpt>
      <trkpt lat="48.20981" lon="3.25496">
        <ele>83</ele>
        <time>2014-09-07T07:44:25.000Z</time>
      </trkpt>
      <trkpt lat="48.20978" lon="3.25494">
        <ele>84</ele>
        <time>2014-09-07T07:44:26.000Z</time>
      </trkpt>
      <trkpt lat="48.20976" lon="3.25494">
        <ele>84</ele>
        <time>2014-09-07T07:44:27.000Z</time>
      </trkpt>
      <trkpt lat="48.20972" lon="3.25491">
        <ele>84</ele>
        <time>2014-09-07T07:44:28.000Z</time>
      </trkpt>
      <trkpt lat="48.20972" lon="3.25491">
        <ele>84</ele>
        <time>2014-09-07T07:44:30.000Z</time>
      </trkpt>
      <trkpt lat="48.20967" lon="3.25489">
        <ele>84</ele>
        <time>2014-09-07T07:44:31.000Z</time>
      </trkpt>
      <trkpt lat="48.20967" lon="3.25489">
        <ele>84</ele>
        <time>2014-09-07T07:44:34.000Z</time>
      </trkpt>
      <trkpt lat="48.20961" lon="3.25487">
        <ele>84</ele>
        <time>2014-09-07T07:44:35.000Z</time>
      </trkpt>
      <trkpt lat="48.20956" lon="3.25485">
        <ele>85</ele>
        <time>2014-09-07T07:44:37.000Z</time>
      </trkpt>
      <trkpt lat="48.20953" lon="3.25485">
        <ele>85</ele>
        <time>2014-09-07T07:44:38.000Z</time>
      </trkpt>
      <trkpt lat="48.2095" lon="3.25483">
        <ele>85</ele>
        <time>2014-09-07T07:44:39.000Z</time>
      </trkpt>
      <trkpt lat="48.20947" lon="3.25483">
        <ele>85</ele>
        <time>2014-09-07T07:44:40.000Z</time>
      </trkpt>
      <trkpt lat="48.20945" lon="3.25481">
        <ele>85</ele>
        <time>2014-09-07T07:44:41.000Z</time>
      </trkpt>
      <trkpt lat="48.2094" lon="3.25481">
        <ele>85</ele>
        <time>2014-09-07T07:44:42.000Z</time>
      </trkpt>
      <trkpt lat="48.20937" lon="3.25479">
        <ele>85</ele>
        <time>2014-09-07T07:44:43.000Z</time>
      </trkpt>
      <trkpt lat="48.20935" lon="3.25479">
        <ele>85</ele>
        <time>2014-09-07T07:44:44.000Z</time>
      </trkpt>
      <trkpt lat="48.20932" lon="3.25476">
        <ele>85</ele>
        <time>2014-09-07T07:44:45.000Z</time>
      </trkpt>
      <trkpt lat="48.20928" lon="3.25476">
        <ele>85</ele>
        <time>2014-09-07T07:44:46.000Z</time>
      </trkpt>
      <trkpt lat="48.20925" lon="3.25474">
        <ele>85</ele>
        <time>2014-09-07T07:44:47.000Z</time>
      </trkpt>
      <trkpt lat="48.20922" lon="3.25472">
        <ele>85</ele>
        <time>2014-09-07T07:44:48.000Z</time>
      </trkpt>
      <trkpt lat="48.2092" lon="3.25472">
        <ele>85</ele>
        <time>2014-09-07T07:44:49.000Z</time>
      </trkpt>
      <trkpt lat="48.20917" lon="3.25472">
        <ele>84</ele>
        <time>2014-09-07T07:44:50.000Z</time>
      </trkpt>
      <trkpt lat="48.20913" lon="3.2547">
        <ele>84</ele>
        <time>2014-09-07T07:44:51.000Z</time>
      </trkpt>
      <trkpt lat="48.2091" lon="3.2547">
        <ele>84</ele>
        <time>2014-09-07T07:44:52.000Z</time>
      </trkpt>
      <trkpt lat="48.20907" lon="3.25468">
        <ele>84</ele>
        <time>2014-09-07T07:44:53.000Z</time>
      </trkpt>
      <trkpt lat="48.20904" lon="3.25468">
        <ele>84</ele>
        <time>2014-09-07T07:44:54.000Z</time>
      </trkpt>
      <trkpt lat="48.20901" lon="3.25466">
        <ele>84</ele>
        <time>2014-09-07T07:44:55.000Z</time>
      </trkpt>
      <trkpt lat="48.20897" lon="3.25466">
        <ele>84</ele>
        <time>2014-09-07T07:44:56.000Z</time>
      </trkpt>
      <trkpt lat="48.20894" lon="3.25464">
        <ele>84</ele>
        <time>2014-09-07T07:44:57.000Z</time>
      </trkpt>
      <trkpt lat="48.20891" lon="3.25464">
        <ele>84</ele>
        <time>2014-09-07T07:44:58.000Z</time>
      </trkpt>
      <trkpt lat="48.20888" lon="3.25461">
        <ele>85</ele>
        <time>2014-09-07T07:44:59.000Z</time>
      </trkpt>
      <trkpt lat="48.20884" lon="3.25459">
        <ele>85</ele>
        <time>2014-09-07T07:45:00.000Z</time>
      </trkpt>
      <trkpt lat="48.20881" lon="3.25459">
        <ele>85</ele>
        <time>2014-09-07T07:45:01.000Z</time>
      </trkpt>
      <trkpt lat="48.20877" lon="3.25457">
        <ele>85</ele>
        <time>2014-09-07T07:45:02.000Z</time>
      </trkpt>
      <trkpt lat="48.20874" lon="3.25457">
        <ele>85</ele>
        <time>2014-09-07T07:45:03.000Z</time>
      </trkpt>
      <trkpt lat="48.20871" lon="3.25455">
        <ele>85</ele>
        <time>2014-09-07T07:45:04.000Z</time>
      </trkpt>
      <trkpt lat="48.20866" lon="3.25453">
        <ele>85</ele>
        <time>2014-09-07T07:45:05.000Z</time>
      </trkpt>
      <trkpt lat="48.20863" lon="3.25453">
        <ele>85</ele>
        <time>2014-09-07T07:45:06.000Z</time>
      </trkpt>
      <trkpt lat="48.2086" lon="3.25451">
        <ele>85</ele>
        <time>2014-09-07T07:45:07.000Z</time>
      </trkpt>
      <trkpt lat="48.20857" lon="3.25451">
        <ele>85</ele>
        <time>2014-09-07T07:45:08.000Z</time>
      </trkpt>
      <trkpt lat="48.20853" lon="3.25449">
        <ele>85</ele>
        <time>2014-09-07T07:45:09.000Z</time>
      </trkpt>
      <trkpt lat="48.2085" lon="3.25449">
        <ele>85</ele>
        <time>2014-09-07T07:45:10.000Z</time>
      </trkpt>
      <trkpt lat="48.20847" lon="3.25446">
        <ele>85</ele>
        <time>2014-09-07T07:45:11.000Z</time>
      </trkpt>
      <trkpt lat="48.20843" lon="3.25444">
        <ele>85</ele>
        <time>2014-09-07T07:45:12.000Z</time>
      </trkpt>
      <trkpt lat="48.20839" lon="3.25444">
        <ele>85</ele>
        <time>2014-09-07T07:45:13.000Z</time>
      </trkpt>
      <trkpt lat="48.20836" lon="3.25442">
        <ele>85</ele>
        <time>2014-09-07T07:45:14.000Z</time>
      </trkpt>
      <trkpt lat="48.20833" lon="3.2544">
        <ele>85</ele>
        <time>2014-09-07T07:45:15.000Z</time>
      </trkpt>
      <trkpt lat="48.2083" lon="3.25438">
        <ele>85</ele>
        <time>2014-09-07T07:45:16.000Z</time>
      </trkpt>
      <trkpt lat="48.20825" lon="3.25438">
        <ele>85</ele>
        <time>2014-09-07T07:45:17.000Z</time>
      </trkpt>
      <trkpt lat="48.20822" lon="3.25436">
        <ele>85</ele>
        <time>2014-09-07T07:45:18.000Z</time>
      </trkpt>
      <trkpt lat="48.20819" lon="3.25433">
        <ele>85</ele>
        <time>2014-09-07T07:45:19.000Z</time>
      </trkpt>
      <trkpt lat="48.20817" lon="3.25431">
        <ele>85</ele>
        <time>2014-09-07T07:45:20.000Z</time>
      </trkpt>
      <trkpt lat="48.20814" lon="3.25431">
        <ele>85</ele>
        <time>2014-09-07T07:45:21.000Z</time>
      </trkpt>
      <trkpt lat="48.2081" lon="3.25429">
        <ele>85</ele>
        <time>2014-09-07T07:45:22.000Z</time>
      </trkpt>
      <trkpt lat="48.20807" lon="3.25429">
        <ele>85</ele>
        <time>2014-09-07T07:45:23.000Z</time>
      </trkpt>
      <trkpt lat="48.20805" lon="3.25427">
        <ele>85</ele>
        <time>2014-09-07T07:45:24.000Z</time>
      </trkpt>
      <trkpt lat="48.20802" lon="3.25427">
        <ele>85</ele>
        <time>2014-09-07T07:45:25.000Z</time>
      </trkpt>
      <trkpt lat="48.208" lon="3.25425">
        <ele>85</ele>
        <time>2014-09-07T07:45:26.000Z</time>
      </trkpt>
      <trkpt lat="48.20796" lon="3.25425">
        <ele>85</ele>
        <time>2014-09-07T07:45:27.000Z</time>
      </trkpt>
      <trkpt lat="48.20794" lon="3.25423">
        <ele>85</ele>
        <time>2014-09-07T07:45:28.000Z</time>
      </trkpt>
      <trkpt lat="48.20794" lon="3.25423">
        <ele>85</ele>
        <time>2014-09-07T07:45:30.000Z</time>
      </trkpt>
      <trkpt lat="48.20789" lon="3.25423">
        <ele>85</ele>
        <time>2014-09-07T07:45:31.000Z</time>
      </trkpt>
      <trkpt lat="48.20786" lon="3.25418">
        <ele>85</ele>
        <time>2014-09-07T07:45:33.000Z</time>
      </trkpt>
      <trkpt lat="48.20786" lon="3.25416">
        <ele>89</ele>
        <time>2014-09-07T07:45:34.000Z</time>
      </trkpt>
      <trkpt lat="48.20786" lon="3.2541">
        <ele>89</ele>
        <time>2014-09-07T07:45:37.000Z</time>
      </trkpt>
      <trkpt lat="48.20787" lon="3.25408">
        <ele>89</ele>
        <time>2014-09-07T07:45:38.000Z</time>
      </trkpt>
      <trkpt lat="48.20787" lon="3.25406">
        <ele>89</ele>
        <time>2014-09-07T07:45:40.000Z</time>
      </trkpt>
      <trkpt lat="48.20789" lon="3.25401">
        <ele>89</ele>
        <time>2014-09-07T07:45:41.000Z</time>
      </trkpt>
      <trkpt lat="48.20789" lon="3.25399">
        <ele>89</ele>
        <time>2014-09-07T07:45:44.000Z</time>
      </trkpt>
      <trkpt lat="48.20791" lon="3.25393">
        <ele>90</ele>
        <time>2014-09-07T07:45:45.000Z</time>
      </trkpt>
      <trkpt lat="48.20792" lon="3.25388">
        <ele>90</ele>
        <time>2014-09-07T07:45:48.000Z</time>
      </trkpt>
      <trkpt lat="48.20793" lon="3.25384">
        <ele>90</ele>
        <time>2014-09-07T07:45:49.000Z</time>
      </trkpt>
      <trkpt lat="48.20794" lon="3.25378">
        <ele>91</ele>
        <time>2014-09-07T07:45:52.000Z</time>
      </trkpt>
      <trkpt lat="48.20795" lon="3.25376">
        <ele>91</ele>
        <time>2014-09-07T07:45:53.000Z</time>
      </trkpt>
      <trkpt lat="48.20795" lon="3.25373">
        <ele>91</ele>
        <time>2014-09-07T07:45:57.000Z</time>
      </trkpt>
      <trkpt lat="48.20798" lon="3.25365">
        <ele>92</ele>
        <time>2014-09-07T07:45:58.000Z</time>
      </trkpt>
      <trkpt lat="48.20799" lon="3.25358">
        <ele>92</ele>
        <time>2014-09-07T07:46:02.000Z</time>
      </trkpt>
      <trkpt lat="48.208" lon="3.25356">
        <ele>92</ele>
        <time>2014-09-07T07:46:03.000Z</time>
      </trkpt>
      <trkpt lat="48.20801" lon="3.2535">
        <ele>93</ele>
        <time>2014-09-07T07:46:06.000Z</time>
      </trkpt>
      <trkpt lat="48.20802" lon="3.25348">
        <ele>93</ele>
        <time>2014-09-07T07:46:07.000Z</time>
      </trkpt>
      <trkpt lat="48.20803" lon="3.25341">
        <ele>93</ele>
        <time>2014-09-07T07:46:10.000Z</time>
      </trkpt>
      <trkpt lat="48.20804" lon="3.25339">
        <ele>93</ele>
        <time>2014-09-07T07:46:11.000Z</time>
      </trkpt>
      <trkpt lat="48.20805" lon="3.25333">
        <ele>100</ele>
        <time>2014-09-07T07:46:14.000Z</time>
      </trkpt>
      <trkpt lat="48.20806" lon="3.2533">
        <ele>100</ele>
        <time>2014-09-07T07:46:15.000Z</time>
      </trkpt>
      <trkpt lat="48.20807" lon="3.25326">
        <ele>100</ele>
        <time>2014-09-07T07:46:18.000Z</time>
      </trkpt>
      <trkpt lat="48.20808" lon="3.25324">
        <ele>100</ele>
        <time>2014-09-07T07:46:19.000Z</time>
      </trkpt>
      <trkpt lat="48.20809" lon="3.2532">
        <ele>100</ele>
        <time>2014-09-07T07:46:21.000Z</time>
      </trkpt>
      <trkpt lat="48.2081" lon="3.25318">
        <ele>100</ele>
        <time>2014-09-07T07:46:22.000Z</time>
      </trkpt>
      <trkpt lat="48.20812" lon="3.25311">
        <ele>101</ele>
        <time>2014-09-07T07:46:25.000Z</time>
      </trkpt>
      <trkpt lat="48.20813" lon="3.25309">
        <ele>101</ele>
        <time>2014-09-07T07:46:26.000Z</time>
      </trkpt>
      <trkpt lat="48.20814" lon="3.25303">
        <ele>101</ele>
        <time>2014-09-07T07:46:29.000Z</time>
      </trkpt>
      <trkpt lat="48.20814" lon="3.253">
        <ele>101</ele>
        <time>2014-09-07T07:46:30.000Z</time>
      </trkpt>
      <trkpt lat="48.20815" lon="3.25296">
        <ele>102</ele>
        <time>2014-09-07T07:46:33.000Z</time>
      </trkpt>
      <trkpt lat="48.20816" lon="3.25294">
        <ele>102</ele>
        <time>2014-09-07T07:46:34.000Z</time>
      </trkpt>
      <trkpt lat="48.20817" lon="3.25288">
        <ele>103</ele>
        <time>2014-09-07T07:46:38.000Z</time>
      </trkpt>
      <trkpt lat="48.20817" lon="3.25285">
        <ele>103</ele>
        <time>2014-09-07T07:46:39.000Z</time>
      </trkpt>
      <trkpt lat="48.20816" lon="3.25281">
        <ele>103</ele>
        <time>2014-09-07T07:46:43.000Z</time>
      </trkpt>
      <trkpt lat="48.20815" lon="3.25279">
        <ele>103</ele>
        <time>2014-09-07T07:46:44.000Z</time>
      </trkpt>
      <trkpt lat="48.20812" lon="3.25275">
        <ele>103</ele>
        <time>2014-09-07T07:46:48.000Z</time>
      </trkpt>
      <trkpt lat="48.2081" lon="3.25275">
        <ele>103</ele>
        <time>2014-09-07T07:46:49.000Z</time>
      </trkpt>
      <trkpt lat="48.20807" lon="3.2527">
        <ele>103</ele>
        <time>2014-09-07T07:46:52.000Z</time>
      </trkpt>
      <trkpt lat="48.20806" lon="3.2527">
        <ele>103</ele>
        <time>2014-09-07T07:46:53.000Z</time>
      </trkpt>
      <trkpt lat="48.20804" lon="3.25266">
        <ele>104</ele>
        <time>2014-09-07T07:46:55.000Z</time>
      </trkpt>
      <trkpt lat="48.20802" lon="3.25266">
        <ele>103</ele>
        <time>2014-09-07T07:46:56.000Z</time>
      </trkpt>
      <trkpt lat="48.20799" lon="3.25264">
        <ele>103</ele>
        <time>2014-09-07T07:46:58.000Z</time>
      </trkpt>
      <trkpt lat="48.20796" lon="3.25262">
        <ele>103</ele>
        <time>2014-09-07T07:46:59.000Z</time>
      </trkpt>
      <trkpt lat="48.20793" lon="3.2526">
        <ele>103</ele>
        <time>2014-09-07T07:47:01.000Z</time>
      </trkpt>
      <trkpt lat="48.20791" lon="3.25258">
        <ele>103</ele>
        <time>2014-09-07T07:47:02.000Z</time>
      </trkpt>
      <trkpt lat="48.20787" lon="3.25255">
        <ele>103</ele>
        <time>2014-09-07T07:47:04.000Z</time>
      </trkpt>
      <trkpt lat="48.20785" lon="3.25255">
        <ele>103</ele>
        <time>2014-09-07T07:47:05.000Z</time>
      </trkpt>
      <trkpt lat="48.20781" lon="3.25253">
        <ele>103</ele>
        <time>2014-09-07T07:47:07.000Z</time>
      </trkpt>
      <trkpt lat="48.20779" lon="3.25253">
        <ele>103</ele>
        <time>2014-09-07T07:47:08.000Z</time>
      </trkpt>
      <trkpt lat="48.20777" lon="3.25251">
        <ele>103</ele>
        <time>2014-09-07T07:47:09.000Z</time>
      </trkpt>
      <trkpt lat="48.20775" lon="3.25249">
        <ele>109</ele>
        <time>2014-09-07T07:47:10.000Z</time>
      </trkpt>
      <trkpt lat="48.20773" lon="3.25249">
        <ele>108</ele>
        <time>2014-09-07T07:47:11.000Z</time>
      </trkpt>
      <trkpt lat="48.2077" lon="3.25247">
        <ele>108</ele>
        <time>2014-09-07T07:47:12.000Z</time>
      </trkpt>
      <trkpt lat="48.20768" lon="3.25245">
        <ele>108</ele>
        <time>2014-09-07T07:47:13.000Z</time>
      </trkpt>
      <trkpt lat="48.20764" lon="3.25243">
        <ele>107</ele>
        <time>2014-09-07T07:47:14.000Z</time>
      </trkpt>
      <trkpt lat="48.20762" lon="3.25243">
        <ele>107</ele>
        <time>2014-09-07T07:47:15.000Z</time>
      </trkpt>
      <trkpt lat="48.20759" lon="3.2524">
        <ele>107</ele>
        <time>2014-09-07T07:47:16.000Z</time>
      </trkpt>
      <trkpt lat="48.20756" lon="3.25238">
        <ele>107</ele>
        <time>2014-09-07T07:47:17.000Z</time>
      </trkpt>
      <trkpt lat="48.20753" lon="3.25236">
        <ele>107</ele>
        <time>2014-09-07T07:47:18.000Z</time>
      </trkpt>
      <trkpt lat="48.2075" lon="3.25234">
        <ele>107</ele>
        <time>2014-09-07T07:47:19.000Z</time>
      </trkpt>
      <trkpt lat="48.20747" lon="3.25232">
        <ele>105</ele>
        <time>2014-09-07T07:47:20.000Z</time>
      </trkpt>
      <trkpt lat="48.20744" lon="3.2523">
        <ele>105</ele>
        <time>2014-09-07T07:47:21.000Z</time>
      </trkpt>
      <trkpt lat="48.20742" lon="3.25227">
        <ele>106</ele>
        <time>2014-09-07T07:47:22.000Z</time>
      </trkpt>
      <trkpt lat="48.20739" lon="3.25227">
        <ele>106</ele>
        <time>2014-09-07T07:47:23.000Z</time>
      </trkpt>
      <trkpt lat="48.20736" lon="3.25225">
        <ele>106</ele>
        <time>2014-09-07T07:47:24.000Z</time>
      </trkpt>
      <trkpt lat="48.20733" lon="3.25223">
        <ele>106</ele>
        <time>2014-09-07T07:47:25.000Z</time>
      </trkpt>
      <trkpt lat="48.20731" lon="3.25221">
        <ele>106</ele>
        <time>2014-09-07T07:47:26.000Z</time>
      </trkpt>
      <trkpt lat="48.20728" lon="3.25221">
        <ele>106</ele>
        <time>2014-09-07T07:47:27.000Z</time>
      </trkpt>
      <trkpt lat="48.20725" lon="3.25219">
        <ele>106</ele>
        <time>2014-09-07T07:47:28.000Z</time>
      </trkpt>
      <trkpt lat="48.20722" lon="3.25219">
        <ele>106</ele>
        <time>2014-09-07T07:47:29.000Z</time>
      </trkpt>
      <trkpt lat="48.20719" lon="3.25219">
        <ele>106</ele>
        <time>2014-09-07T07:47:30.000Z</time>
      </trkpt>
      <trkpt lat="48.20716" lon="3.25217">
        <ele>106</ele>
        <time>2014-09-07T07:47:31.000Z</time>
      </trkpt>
      <trkpt lat="48.20714" lon="3.25217">
        <ele>106</ele>
        <time>2014-09-07T07:47:32.000Z</time>
      </trkpt>
      <trkpt lat="48.20711" lon="3.25217">
        <ele>106</ele>
        <time>2014-09-07T07:47:33.000Z</time>
      </trkpt>
      <trkpt lat="48.20707" lon="3.25215">
        <ele>106</ele>
        <time>2014-09-07T07:47:34.000Z</time>
      </trkpt>
      <trkpt lat="48.20704" lon="3.25215">
        <ele>106</ele>
        <time>2014-09-07T07:47:35.000Z</time>
      </trkpt>
      <trkpt lat="48.20701" lon="3.25212">
        <ele>106</ele>
        <time>2014-09-07T07:47:36.000Z</time>
      </trkpt>
      <trkpt lat="48.20699" lon="3.25212">
        <ele>106</ele>
        <time>2014-09-07T07:47:37.000Z</time>
      </trkpt>
      <trkpt lat="48.20696" lon="3.25212">
        <ele>106</ele>
        <time>2014-09-07T07:47:38.000Z</time>
      </trkpt>
      <trkpt lat="48.20692" lon="3.2521">
        <ele>106</ele>
        <time>2014-09-07T07:47:39.000Z</time>
      </trkpt>
      <trkpt lat="48.20689" lon="3.2521">
        <ele>106</ele>
        <time>2014-09-07T07:47:40.000Z</time>
      </trkpt>
      <trkpt lat="48.20686" lon="3.2521">
        <ele>106</ele>
        <time>2014-09-07T07:47:41.000Z</time>
      </trkpt>
      <trkpt lat="48.20683" lon="3.25208">
        <ele>106</ele>
        <time>2014-09-07T07:47:42.000Z</time>
      </trkpt>
      <trkpt lat="48.2068" lon="3.25206">
        <ele>106</ele>
        <time>2014-09-07T07:47:43.000Z</time>
      </trkpt>
      <trkpt lat="48.20676" lon="3.25206">
        <ele>106</ele>
        <time>2014-09-07T07:47:44.000Z</time>
      </trkpt>
      <trkpt lat="48.20673" lon="3.25204">
        <ele>106</ele>
        <time>2014-09-07T07:47:45.000Z</time>
      </trkpt>
      <trkpt lat="48.2067" lon="3.25202">
        <ele>107</ele>
        <time>2014-09-07T07:47:46.000Z</time>
      </trkpt>
      <trkpt lat="48.20666" lon="3.25202">
        <ele>104</ele>
        <time>2014-09-07T07:47:47.000Z</time>
      </trkpt>
      <trkpt lat="48.20662" lon="3.252">
        <ele>104</ele>
        <time>2014-09-07T07:47:48.000Z</time>
      </trkpt>
      <trkpt lat="48.20658" lon="3.252">
        <ele>104</ele>
        <time>2014-09-07T07:47:49.000Z</time>
      </trkpt>
      <trkpt lat="48.20655" lon="3.25197">
        <ele>104</ele>
        <time>2014-09-07T07:47:50.000Z</time>
      </trkpt>
      <trkpt lat="48.20652" lon="3.25197">
        <ele>104</ele>
        <time>2014-09-07T07:47:51.000Z</time>
      </trkpt>
      <trkpt lat="48.20647" lon="3.25195">
        <ele>104</ele>
        <time>2014-09-07T07:47:52.000Z</time>
      </trkpt>
      <trkpt lat="48.20643" lon="3.25193">
        <ele>104</ele>
        <time>2014-09-07T07:47:53.000Z</time>
      </trkpt>
      <trkpt lat="48.20639" lon="3.25191">
        <ele>104</ele>
        <time>2014-09-07T07:47:54.000Z</time>
      </trkpt>
      <trkpt lat="48.20636" lon="3.25191">
        <ele>104</ele>
        <time>2014-09-07T07:47:55.000Z</time>
      </trkpt>
      <trkpt lat="48.20631" lon="3.25189">
        <ele>104</ele>
        <time>2014-09-07T07:47:56.000Z</time>
      </trkpt>
      <trkpt lat="48.20628" lon="3.25187">
        <ele>104</ele>
        <time>2014-09-07T07:47:57.000Z</time>
      </trkpt>
      <trkpt lat="48.20624" lon="3.25187">
        <ele>104</ele>
        <time>2014-09-07T07:47:58.000Z</time>
      </trkpt>
      <trkpt lat="48.20619" lon="3.25185">
        <ele>104</ele>
        <time>2014-09-07T07:47:59.000Z</time>
      </trkpt>
      <trkpt lat="48.20616" lon="3.25182">
        <ele>104</ele>
        <time>2014-09-07T07:48:00.000Z</time>
      </trkpt>
      <trkpt lat="48.20612" lon="3.25182">
        <ele>104</ele>
        <time>2014-09-07T07:48:01.000Z</time>
      </trkpt>
      <trkpt lat="48.20609" lon="3.2518">
        <ele>104</ele>
        <time>2014-09-07T07:48:02.000Z</time>
      </trkpt>
      <trkpt lat="48.20604" lon="3.25178">
        <ele>104</ele>
        <time>2014-09-07T07:48:03.000Z</time>
      </trkpt>
      <trkpt lat="48.20601" lon="3.25178">
        <ele>104</ele>
        <time>2014-09-07T07:48:04.000Z</time>
      </trkpt>
      <trkpt lat="48.20597" lon="3.25176">
        <ele>104</ele>
        <time>2014-09-07T07:48:05.000Z</time>
      </trkpt>
      <trkpt lat="48.20593" lon="3.25176">
        <ele>104</ele>
        <time>2014-09-07T07:48:06.000Z</time>
      </trkpt>
      <trkpt lat="48.20589" lon="3.25174">
        <ele>105</ele>
        <time>2014-09-07T07:48:07.000Z</time>
      </trkpt>
      <trkpt lat="48.20585" lon="3.25172">
        <ele>105</ele>
        <time>2014-09-07T07:48:08.000Z</time>
      </trkpt>
      <trkpt lat="48.20581" lon="3.2517">
        <ele>105</ele>
        <time>2014-09-07T07:48:09.000Z</time>
      </trkpt>
      <trkpt lat="48.20578" lon="3.25167">
        <ele>104</ele>
        <time>2014-09-07T07:48:10.000Z</time>
      </trkpt>
      <trkpt lat="48.20573" lon="3.25165">
        <ele>107</ele>
        <time>2014-09-07T07:48:11.000Z</time>
      </trkpt>
      <trkpt lat="48.20569" lon="3.25165">
        <ele>107</ele>
        <time>2014-09-07T07:48:12.000Z</time>
      </trkpt>
      <trkpt lat="48.20565" lon="3.25163">
        <ele>108</ele>
        <time>2014-09-07T07:48:13.000Z</time>
      </trkpt>
      <trkpt lat="48.2056" lon="3.25161">
        <ele>108</ele>
        <time>2014-09-07T07:48:14.000Z</time>
      </trkpt>
      <trkpt lat="48.20556" lon="3.25159">
        <ele>108</ele>
        <time>2014-09-07T07:48:15.000Z</time>
      </trkpt>
      <trkpt lat="48.20552" lon="3.25159">
        <ele>108</ele>
        <time>2014-09-07T07:48:16.000Z</time>
      </trkpt>
      <trkpt lat="48.20548" lon="3.25157">
        <ele>108</ele>
        <time>2014-09-07T07:48:17.000Z</time>
      </trkpt>
      <trkpt lat="48.20543" lon="3.25155">
        <ele>108</ele>
        <time>2014-09-07T07:48:18.000Z</time>
      </trkpt>
      <trkpt lat="48.20539" lon="3.25152">
        <ele>108</ele>
        <time>2014-09-07T07:48:19.000Z</time>
      </trkpt>
      <trkpt lat="48.20536" lon="3.25152">
        <ele>107</ele>
        <time>2014-09-07T07:48:20.000Z</time>
      </trkpt>
      <trkpt lat="48.20531" lon="3.2515">
        <ele>107</ele>
        <time>2014-09-07T07:48:21.000Z</time>
      </trkpt>
      <trkpt lat="48.20527" lon="3.25148">
        <ele>107</ele>
        <time>2014-09-07T07:48:22.000Z</time>
      </trkpt>
      <trkpt lat="48.20523" lon="3.25148">
        <ele>107</ele>
        <time>2014-09-07T07:48:23.000Z</time>
      </trkpt>
      <trkpt lat="48.20519" lon="3.25146">
        <ele>107</ele>
        <time>2014-09-07T07:48:24.000Z</time>
      </trkpt>
      <trkpt lat="48.20514" lon="3.25144">
        <ele>107</ele>
        <time>2014-09-07T07:48:25.000Z</time>
      </trkpt>
      <trkpt lat="48.2051" lon="3.25144">
        <ele>106</ele>
        <time>2014-09-07T07:48:26.000Z</time>
      </trkpt>
      <trkpt lat="48.20506" lon="3.25142">
        <ele>106</ele>
        <time>2014-09-07T07:48:27.000Z</time>
      </trkpt>
      <trkpt lat="48.205" lon="3.2514">
        <ele>107</ele>
        <time>2014-09-07T07:48:28.000Z</time>
      </trkpt>
      <trkpt lat="48.20496" lon="3.2514">
        <ele>104</ele>
        <time>2014-09-07T07:48:29.000Z</time>
      </trkpt>
      <trkpt lat="48.20491" lon="3.2514">
        <ele>104</ele>
        <time>2014-09-07T07:48:30.000Z</time>
      </trkpt>
      <trkpt lat="48.20486" lon="3.25137">
        <ele>104</ele>
        <time>2014-09-07T07:48:31.000Z</time>
      </trkpt>
      <trkpt lat="48.20481" lon="3.25137">
        <ele>104</ele>
        <time>2014-09-07T07:48:32.000Z</time>
      </trkpt>
      <trkpt lat="48.20476" lon="3.25137">
        <ele>104</ele>
        <time>2014-09-07T07:48:33.000Z</time>
      </trkpt>
      <trkpt lat="48.2047" lon="3.25137">
        <ele>104</ele>
        <time>2014-09-07T07:48:34.000Z</time>
      </trkpt>
      <trkpt lat="48.20465" lon="3.25137">
        <ele>104</ele>
        <time>2014-09-07T07:48:35.000Z</time>
      </trkpt>
      <trkpt lat="48.2046" lon="3.25137">
        <ele>104</ele>
        <time>2014-09-07T07:48:36.000Z</time>
      </trkpt>
      <trkpt lat="48.20454" lon="3.25137">
        <ele>104</ele>
        <time>2014-09-07T07:48:37.000Z</time>
      </trkpt>
      <trkpt lat="48.20449" lon="3.25137">
        <ele>104</ele>
        <time>2014-09-07T07:48:38.000Z</time>
      </trkpt>
      <trkpt lat="48.20442" lon="3.25137">
        <ele>104</ele>
        <time>2014-09-07T07:48:39.000Z</time>
      </trkpt>
      <trkpt lat="48.20437" lon="3.25137">
        <ele>103</ele>
        <time>2014-09-07T07:48:40.000Z</time>
      </trkpt>
      <trkpt lat="48.20431" lon="3.25135">
        <ele>103</ele>
        <time>2014-09-07T07:48:41.000Z</time>
      </trkpt>
      <trkpt lat="48.20423" lon="3.25135">
        <ele>103</ele>
        <time>2014-09-07T07:48:42.000Z</time>
      </trkpt>
      <trkpt lat="48.20417" lon="3.25135">
        <ele>100</ele>
        <time>2014-09-07T07:48:43.000Z</time>
      </trkpt>
      <trkpt lat="48.20409" lon="3.25133">
        <ele>100</ele>
        <time>2014-09-07T07:48:44.000Z</time>
      </trkpt>
      <trkpt lat="48.20402" lon="3.25131">
        <ele>100</ele>
        <time>2014-09-07T07:48:45.000Z</time>
      </trkpt>
      <trkpt lat="48.20395" lon="3.25125">
        <ele>101</ele>
        <time>2014-09-07T07:48:46.000Z</time>
      </trkpt>
      <trkpt lat="48.20388" lon="3.25122">
        <ele>100</ele>
        <time>2014-09-07T07:48:47.000Z</time>
      </trkpt>
      <trkpt lat="48.20381" lon="3.25118">
        <ele>101</ele>
        <time>2014-09-07T07:48:48.000Z</time>
      </trkpt>
      <trkpt lat="48.20375" lon="3.25114">
        <ele>101</ele>
        <time>2014-09-07T07:48:49.000Z</time>
      </trkpt>
      <trkpt lat="48.20369" lon="3.25109">
        <ele>101</ele>
        <time>2014-09-07T07:48:50.000Z</time>
      </trkpt>
      <trkpt lat="48.20363" lon="3.25107">
        <ele>100</ele>
        <time>2014-09-07T07:48:51.000Z</time>
      </trkpt>
      <trkpt lat="48.20357" lon="3.25103">
        <ele>100</ele>
        <time>2014-09-07T07:48:52.000Z</time>
      </trkpt>
      <trkpt lat="48.20351" lon="3.25099">
        <ele>100</ele>
        <time>2014-09-07T07:48:53.000Z</time>
      </trkpt>
      <trkpt lat="48.20346" lon="3.25097">
        <ele>100</ele>
        <time>2014-09-07T07:48:54.000Z</time>
      </trkpt>
      <trkpt lat="48.20341" lon="3.25094">
        <ele>101</ele>
        <time>2014-09-07T07:48:55.000Z</time>
      </trkpt>
      <trkpt lat="48.20335" lon="3.2509">
        <ele>101</ele>
        <time>2014-09-07T07:48:56.000Z</time>
      </trkpt>
      <trkpt lat="48.20331" lon="3.25088">
        <ele>100</ele>
        <time>2014-09-07T07:48:57.000Z</time>
      </trkpt>
      <trkpt lat="48.20325" lon="3.25086">
        <ele>99</ele>
        <time>2014-09-07T07:48:58.000Z</time>
      </trkpt>
      <trkpt lat="48.20321" lon="3.25084">
        <ele>98</ele>
        <time>2014-09-07T07:48:59.000Z</time>
      </trkpt>
      <trkpt lat="48.20317" lon="3.25082">
        <ele>101</ele>
        <time>2014-09-07T07:49:00.000Z</time>
      </trkpt>
      <trkpt lat="48.20313" lon="3.25079">
        <ele>101</ele>
        <time>2014-09-07T07:49:01.000Z</time>
      </trkpt>
      <trkpt lat="48.20309" lon="3.25077">
        <ele>101</ele>
        <time>2014-09-07T07:49:02.000Z</time>
      </trkpt>
      <trkpt lat="48.20307" lon="3.25077">
        <ele>101</ele>
        <time>2014-09-07T07:49:04.000Z</time>
      </trkpt>
      <trkpt lat="48.20303" lon="3.25075">
        <ele>101</ele>
        <time>2014-09-07T07:49:05.000Z</time>
      </trkpt>
      <trkpt lat="48.20299" lon="3.25073">
        <ele>101</ele>
        <time>2014-09-07T07:49:07.000Z</time>
      </trkpt>
      <trkpt lat="48.20295" lon="3.25073">
        <ele>101</ele>
        <time>2014-09-07T07:49:08.000Z</time>
      </trkpt>
      <trkpt lat="48.20295" lon="3.25073">
        <ele>101</ele>
        <time>2014-09-07T07:49:10.000Z</time>
      </trkpt>
      <trkpt lat="48.20288" lon="3.25077">
        <ele>100</ele>
        <time>2014-09-07T07:49:11.000Z</time>
      </trkpt>
      <trkpt lat="48.20286" lon="3.25082">
        <ele>100</ele>
        <time>2014-09-07T07:49:12.000Z</time>
      </trkpt>
      <trkpt lat="48.20283" lon="3.25086">
        <ele>95</ele>
        <time>2014-09-07T07:49:13.000Z</time>
      </trkpt>
      <trkpt lat="48.20282" lon="3.25088">
        <ele>95</ele>
        <time>2014-09-07T07:49:14.000Z</time>
      </trkpt>
      <trkpt lat="48.20279" lon="3.25092">
        <ele>95</ele>
        <time>2014-09-07T07:49:15.000Z</time>
      </trkpt>
      <trkpt lat="48.20278" lon="3.25099">
        <ele>95</ele>
        <time>2014-09-07T07:49:16.000Z</time>
      </trkpt>
      <trkpt lat="48.20276" lon="3.25101">
        <ele>95</ele>
        <time>2014-09-07T07:49:17.000Z</time>
      </trkpt>
      <trkpt lat="48.20274" lon="3.25105">
        <ele>94</ele>
        <time>2014-09-07T07:49:18.000Z</time>
      </trkpt>
      <trkpt lat="48.20273" lon="3.25109">
        <ele>94</ele>
        <time>2014-09-07T07:49:19.000Z</time>
      </trkpt>
      <trkpt lat="48.20271" lon="3.25114">
        <ele>94</ele>
        <time>2014-09-07T07:49:20.000Z</time>
      </trkpt>
      <trkpt lat="48.2027" lon="3.25118">
        <ele>94</ele>
        <time>2014-09-07T07:49:21.000Z</time>
      </trkpt>
      <trkpt lat="48.20268" lon="3.2512">
        <ele>94</ele>
        <time>2014-09-07T07:49:22.000Z</time>
      </trkpt>
      <trkpt lat="48.20265" lon="3.25125">
        <ele>94</ele>
        <time>2014-09-07T07:49:23.000Z</time>
      </trkpt>
      <trkpt lat="48.20264" lon="3.25129">
        <ele>93</ele>
        <time>2014-09-07T07:49:24.000Z</time>
      </trkpt>
      <trkpt lat="48.20262" lon="3.25133">
        <ele>93</ele>
        <time>2014-09-07T07:49:25.000Z</time>
      </trkpt>
      <trkpt lat="48.20261" lon="3.25137">
        <ele>93</ele>
        <time>2014-09-07T07:49:26.000Z</time>
      </trkpt>
      <trkpt lat="48.20259" lon="3.25142">
        <ele>93</ele>
        <time>2014-09-07T07:49:27.000Z</time>
      </trkpt>
      <trkpt lat="48.20255" lon="3.25144">
        <ele>92</ele>
        <time>2014-09-07T07:49:29.000Z</time>
      </trkpt>
      <trkpt lat="48.20253" lon="3.25144">
        <ele>92</ele>
        <time>2014-09-07T07:49:30.000Z</time>
      </trkpt>
      <trkpt lat="48.20248" lon="3.25142">
        <ele>93</ele>
        <time>2014-09-07T07:49:33.000Z</time>
      </trkpt>
      <trkpt lat="48.20247" lon="3.25142">
        <ele>93</ele>
        <time>2014-09-07T07:49:34.000Z</time>
      </trkpt>
      <trkpt lat="48.20243" lon="3.2514">
        <ele>93</ele>
        <time>2014-09-07T07:49:36.000Z</time>
      </trkpt>
      <trkpt lat="48.20242" lon="3.25137">
        <ele>93</ele>
        <time>2014-09-07T07:49:37.000Z</time>
      </trkpt>
      <trkpt lat="48.2024" lon="3.25135">
        <ele>93</ele>
        <time>2014-09-07T07:49:38.000Z</time>
      </trkpt>
      <trkpt lat="48.20238" lon="3.25135">
        <ele>93</ele>
        <time>2014-09-07T07:49:39.000Z</time>
      </trkpt>
      <trkpt lat="48.20235" lon="3.25133">
        <ele>93</ele>
        <time>2014-09-07T07:49:40.000Z</time>
      </trkpt>
      <trkpt lat="48.20232" lon="3.25131">
        <ele>93</ele>
        <time>2014-09-07T07:49:41.000Z</time>
      </trkpt>
      <trkpt lat="48.2023" lon="3.25129">
        <ele>93</ele>
        <time>2014-09-07T07:49:42.000Z</time>
      </trkpt>
      <trkpt lat="48.20227" lon="3.25125">
        <ele>94</ele>
        <time>2014-09-07T07:49:43.000Z</time>
      </trkpt>
      <trkpt lat="48.20225" lon="3.25122">
        <ele>94</ele>
        <time>2014-09-07T07:49:44.000Z</time>
      </trkpt>
      <trkpt lat="48.20221" lon="3.2512">
        <ele>94</ele>
        <time>2014-09-07T07:49:45.000Z</time>
      </trkpt>
      <trkpt lat="48.20218" lon="3.25116">
        <ele>94</ele>
        <time>2014-09-07T07:49:46.000Z</time>
      </trkpt>
      <trkpt lat="48.20215" lon="3.25114">
        <ele>94</ele>
        <time>2014-09-07T07:49:47.000Z</time>
      </trkpt>
      <trkpt lat="48.20213" lon="3.25109">
        <ele>94</ele>
        <time>2014-09-07T07:49:48.000Z</time>
      </trkpt>
      <trkpt lat="48.2021" lon="3.25107">
        <ele>94</ele>
        <time>2014-09-07T07:49:49.000Z</time>
      </trkpt>
      <trkpt lat="48.20206" lon="3.25103">
        <ele>94</ele>
        <time>2014-09-07T07:49:50.000Z</time>
      </trkpt>
      <trkpt lat="48.20204" lon="3.25101">
        <ele>94</ele>
        <time>2014-09-07T07:49:51.000Z</time>
      </trkpt>
      <trkpt lat="48.20201" lon="3.25097">
        <ele>94</ele>
        <time>2014-09-07T07:49:52.000Z</time>
      </trkpt>
      <trkpt lat="48.20199" lon="3.25094">
        <ele>94</ele>
        <time>2014-09-07T07:49:53.000Z</time>
      </trkpt>
      <trkpt lat="48.20197" lon="3.2509">
        <ele>94</ele>
        <time>2014-09-07T07:49:54.000Z</time>
      </trkpt>
      <trkpt lat="48.20195" lon="3.25088">
        <ele>94</ele>
        <time>2014-09-07T07:49:55.000Z</time>
      </trkpt>
      <trkpt lat="48.20192" lon="3.25084">
        <ele>94</ele>
        <time>2014-09-07T07:49:56.000Z</time>
      </trkpt>
      <trkpt lat="48.2019" lon="3.25079">
        <ele>95</ele>
        <time>2014-09-07T07:49:57.000Z</time>
      </trkpt>
      <trkpt lat="48.20187" lon="3.25077">
        <ele>95</ele>
        <time>2014-09-07T07:49:58.000Z</time>
      </trkpt>
      <trkpt lat="48.20185" lon="3.25073">
        <ele>95</ele>
        <time>2014-09-07T07:49:59.000Z</time>
      </trkpt>
      <trkpt lat="48.20183" lon="3.25069">
        <ele>95</ele>
        <time>2014-09-07T07:50:00.000Z</time>
      </trkpt>
      <trkpt lat="48.20181" lon="3.25064">
        <ele>95</ele>
        <time>2014-09-07T07:50:01.000Z</time>
      </trkpt>
      <trkpt lat="48.20179" lon="3.25062">
        <ele>95</ele>
        <time>2014-09-07T07:50:02.000Z</time>
      </trkpt>
      <trkpt lat="48.20176" lon="3.25058">
        <ele>96</ele>
        <time>2014-09-07T07:50:03.000Z</time>
      </trkpt>
      <trkpt lat="48.20174" lon="3.25054">
        <ele>96</ele>
        <time>2014-09-07T07:50:04.000Z</time>
      </trkpt>
      <trkpt lat="48.20172" lon="3.25049">
        <ele>96</ele>
        <time>2014-09-07T07:50:05.000Z</time>
      </trkpt>
      <trkpt lat="48.2017" lon="3.25045">
        <ele>96</ele>
        <time>2014-09-07T07:50:06.000Z</time>
      </trkpt>
      <trkpt lat="48.20168" lon="3.25041">
        <ele>96</ele>
        <time>2014-09-07T07:50:07.000Z</time>
      </trkpt>
      <trkpt lat="48.20166" lon="3.25039">
        <ele>99</ele>
        <time>2014-09-07T07:50:08.000Z</time>
      </trkpt>
      <trkpt lat="48.20163" lon="3.25034">
        <ele>99</ele>
        <time>2014-09-07T07:50:09.000Z</time>
      </trkpt>
      <trkpt lat="48.20161" lon="3.2503">
        <ele>99</ele>
        <time>2014-09-07T07:50:10.000Z</time>
      </trkpt>
      <trkpt lat="48.20159" lon="3.25026">
        <ele>99</ele>
        <time>2014-09-07T07:50:11.000Z</time>
      </trkpt>
      <trkpt lat="48.20157" lon="3.25024">
        <ele>99</ele>
        <time>2014-09-07T07:50:12.000Z</time>
      </trkpt>
      <trkpt lat="48.20155" lon="3.25019">
        <ele>99</ele>
        <time>2014-09-07T07:50:13.000Z</time>
      </trkpt>
      <trkpt lat="48.20153" lon="3.25017">
        <ele>99</ele>
        <time>2014-09-07T07:50:14.000Z</time>
      </trkpt>
      <trkpt lat="48.20151" lon="3.25013">
        <ele>99</ele>
        <time>2014-09-07T07:50:15.000Z</time>
      </trkpt>
      <trkpt lat="48.2015" lon="3.25011">
        <ele>99</ele>
        <time>2014-09-07T07:50:16.000Z</time>
      </trkpt>
      <trkpt lat="48.20147" lon="3.25006">
        <ele>99</ele>
        <time>2014-09-07T07:50:17.000Z</time>
      </trkpt>
      <trkpt lat="48.20145" lon="3.25004">
        <ele>99</ele>
        <time>2014-09-07T07:50:18.000Z</time>
      </trkpt>
      <trkpt lat="48.20143" lon="3.25">
        <ele>99</ele>
        <time>2014-09-07T07:50:19.000Z</time>
      </trkpt>
      <trkpt lat="48.20141" lon="3.24998">
        <ele>101</ele>
        <time>2014-09-07T07:50:20.000Z</time>
      </trkpt>
      <trkpt lat="48.20139" lon="3.24994">
        <ele>101</ele>
        <time>2014-09-07T07:50:21.000Z</time>
      </trkpt>
      <trkpt lat="48.20137" lon="3.24991">
        <ele>101</ele>
        <time>2014-09-07T07:50:24.000Z</time>
      </trkpt>
      <trkpt lat="48.20133" lon="3.24985">
        <ele>101</ele>
        <time>2014-09-07T07:50:25.000Z</time>
      </trkpt>
      <trkpt lat="48.20133" lon="3.24985">
        <ele>101</ele>
        <time>2014-09-07T07:50:27.000Z</time>
      </trkpt>
      <trkpt lat="48.20128" lon="3.24983">
        <ele>102</ele>
        <time>2014-09-07T07:50:28.000Z</time>
      </trkpt>
      <trkpt lat="48.20128" lon="3.24983">
        <ele>102</ele>
        <time>2014-09-07T07:50:31.000Z</time>
      </trkpt>
      <trkpt lat="48.2012" lon="3.24985">
        <ele>102</ele>
        <time>2014-09-07T07:50:32.000Z</time>
      </trkpt>
      <trkpt lat="48.2012" lon="3.24985">
        <ele>102</ele>
        <time>2014-09-07T07:50:37.000Z</time>
      </trkpt>
      <trkpt lat="48.2011" lon="3.24989">
        <ele>102</ele>
        <time>2014-09-07T07:50:38.000Z</time>
      </trkpt>
      <trkpt lat="48.2011" lon="3.24989">
        <ele>102</ele>
        <time>2014-09-07T07:50:43.000Z</time>
      </trkpt>
      <trkpt lat="48.20101" lon="3.24994">
        <ele>103</ele>
        <time>2014-09-07T07:50:44.000Z</time>
      </trkpt>
      <trkpt lat="48.20101" lon="3.24994">
        <ele>103</ele>
        <time>2014-09-07T07:50:49.000Z</time>
      </trkpt>
      <trkpt lat="48.20094" lon="3.25004">
        <ele>103</ele>
        <time>2014-09-07T07:50:50.000Z</time>
      </trkpt>
      <trkpt lat="48.20091" lon="3.25009">
        <ele>103</ele>
        <time>2014-09-07T07:51:14.000Z</time>
      </trkpt>
      <trkpt lat="48.20083" lon="3.25017">
        <ele>107</ele>
        <time>2014-09-07T07:51:15.000Z</time>
      </trkpt>
      <trkpt lat="48.20083" lon="3.25017">
        <ele>107</ele>
        <time>2014-09-07T07:51:20.000Z</time>
      </trkpt>
      <trkpt lat="48.20076" lon="3.25022">
        <ele>108</ele>
        <time>2014-09-07T07:51:21.000Z</time>
      </trkpt>
      <trkpt lat="48.20076" lon="3.25022">
        <ele>108</ele>
        <time>2014-09-07T07:51:38.000Z</time>
      </trkpt>
      <trkpt lat="48.20066" lon="3.25022">
        <ele>108</ele>
        <time>2014-09-07T07:51:39.000Z</time>
      </trkpt>
      <trkpt lat="48.20066" lon="3.25022">
        <ele>108</ele>
        <time>2014-09-07T07:51:44.000Z</time>
      </trkpt>
      <trkpt lat="48.20057" lon="3.25019">
        <ele>109</ele>
        <time>2014-09-07T07:51:45.000Z</time>
      </trkpt>
      <trkpt lat="48.20057" lon="3.25019">
        <ele>109</ele>
        <time>2014-09-07T07:51:49.000Z</time>
      </trkpt>
      <trkpt lat="48.20048" lon="3.25019">
        <ele>109</ele>
        <time>2014-09-07T07:51:50.000Z</time>
      </trkpt>
      <trkpt lat="48.20048" lon="3.25019">
        <ele>109</ele>
        <time>2014-09-07T07:51:55.000Z</time>
      </trkpt>
      <trkpt lat="48.20038" lon="3.25022">
        <ele>110</ele>
        <time>2014-09-07T07:51:56.000Z</time>
      </trkpt>
      <trkpt lat="48.20038" lon="3.25022">
        <ele>110</ele>
        <time>2014-09-07T07:51:59.000Z</time>
      </trkpt>
      <trkpt lat="48.20032" lon="3.25024">
        <ele>111</ele>
        <time>2014-09-07T07:52:00.000Z</time>
      </trkpt>
      <trkpt lat="48.20028" lon="3.25026">
        <ele>111</ele>
        <time>2014-09-07T07:52:03.000Z</time>
      </trkpt>
      <trkpt lat="48.20027" lon="3.25026">
        <ele>111</ele>
        <time>2014-09-07T07:52:04.000Z</time>
      </trkpt>
      <trkpt lat="48.20024" lon="3.2503">
        <ele>111</ele>
        <time>2014-09-07T07:52:06.000Z</time>
      </trkpt>
      <trkpt lat="48.20023" lon="3.2503">
        <ele>111</ele>
        <time>2014-09-07T07:52:07.000Z</time>
      </trkpt>
      <trkpt lat="48.20021" lon="3.25034">
        <ele>111</ele>
        <time>2014-09-07T07:52:09.000Z</time>
      </trkpt>
      <trkpt lat="48.2002" lon="3.25037">
        <ele>112</ele>
        <time>2014-09-07T07:52:10.000Z</time>
      </trkpt>
      <trkpt lat="48.20017" lon="3.25039">
        <ele>112</ele>
        <time>2014-09-07T07:52:13.000Z</time>
      </trkpt>
      <trkpt lat="48.20015" lon="3.25041">
        <ele>112</ele>
        <time>2014-09-07T07:52:14.000Z</time>
      </trkpt>
      <trkpt lat="48.20012" lon="3.25045">
        <ele>112</ele>
        <time>2014-09-07T07:52:17.000Z</time>
      </trkpt>
      <trkpt lat="48.20012" lon="3.25047">
        <ele>113</ele>
        <time>2014-09-07T07:52:18.000Z</time>
      </trkpt>
      <trkpt lat="48.20009" lon="3.25052">
        <ele>113</ele>
        <time>2014-09-07T07:52:21.000Z</time>
      </trkpt>
      <trkpt lat="48.20008" lon="3.25052">
        <ele>113</ele>
        <time>2014-09-07T07:52:22.000Z</time>
      </trkpt>
      <trkpt lat="48.20006" lon="3.25056">
        <ele>114</ele>
        <time>2014-09-07T07:52:25.000Z</time>
      </trkpt>
      <trkpt lat="48.20005" lon="3.25058">
        <ele>114</ele>
        <time>2014-09-07T07:52:26.000Z</time>
      </trkpt>
      <trkpt lat="48.20001" lon="3.25062">
        <ele>115</ele>
        <time>2014-09-07T07:52:30.000Z</time>
      </trkpt>
      <trkpt lat="48.2" lon="3.25064">
        <ele>115</ele>
        <time>2014-09-07T07:52:31.000Z</time>
      </trkpt>
      <trkpt lat="48.19998" lon="3.25069">
        <ele>121</ele>
        <time>2014-09-07T07:52:34.000Z</time>
      </trkpt>
      <trkpt lat="48.19998" lon="3.25071">
        <ele>121</ele>
        <time>2014-09-07T07:52:35.000Z</time>
      </trkpt>
      <trkpt lat="48.19997" lon="3.25075">
        <ele>120</ele>
        <time>2014-09-07T07:52:38.000Z</time>
      </trkpt>
      <trkpt lat="48.19996" lon="3.25077">
        <ele>120</ele>
        <time>2014-09-07T07:52:39.000Z</time>
      </trkpt>
      <trkpt lat="48.19995" lon="3.25084">
        <ele>122</ele>
        <time>2014-09-07T07:52:43.000Z</time>
      </trkpt>
      <trkpt lat="48.19995" lon="3.25086">
        <ele>122</ele>
        <time>2014-09-07T07:52:44.000Z</time>
      </trkpt>
      <trkpt lat="48.19993" lon="3.2509">
        <ele>123</ele>
        <time>2014-09-07T07:52:48.000Z</time>
      </trkpt>
      <trkpt lat="48.19993" lon="3.25092">
        <ele>123</ele>
        <time>2014-09-07T07:52:49.000Z</time>
      </trkpt>
      <trkpt lat="48.19993" lon="3.25086">
        <ele>122</ele>
        <time>2014-09-07T07:53:03.000Z</time>
      </trkpt>
      <trkpt lat="48.19994" lon="3.25084">
        <ele>122</ele>
        <time>2014-09-07T07:53:04.000Z</time>
      </trkpt>
      <trkpt lat="48.19993" lon="3.25077">
        <ele>121</ele>
        <time>2014-09-07T07:53:11.000Z</time>
      </trkpt>
      <trkpt lat="48.19992" lon="3.25075">
        <ele>121</ele>
        <time>2014-09-07T07:53:12.000Z</time>
      </trkpt>
      <trkpt lat="48.19991" lon="3.25073">
        <ele>121</ele>
        <time>2014-09-07T07:53:13.000Z</time>
      </trkpt>
      <trkpt lat="48.1999" lon="3.25069">
        <ele>121</ele>
        <time>2014-09-07T07:53:14.000Z</time>
      </trkpt>
      <trkpt lat="48.19989" lon="3.25062">
        <ele>121</ele>
        <time>2014-09-07T07:53:16.000Z</time>
      </trkpt>
      <trkpt lat="48.19988" lon="3.25058">
        <ele>121</ele>
        <time>2014-09-07T07:53:17.000Z</time>
      </trkpt>
      <trkpt lat="48.19986" lon="3.25052">
        <ele>121</ele>
        <time>2014-09-07T07:53:18.000Z</time>
      </trkpt>
      <trkpt lat="48.19984" lon="3.25047">
        <ele>120</ele>
        <time>2014-09-07T07:53:19.000Z</time>
      </trkpt>
      <trkpt lat="48.19983" lon="3.25041">
        <ele>120</ele>
        <time>2014-09-07T07:53:20.000Z</time>
      </trkpt>
      <trkpt lat="48.19982" lon="3.25034">
        <ele>120</ele>
        <time>2014-09-07T07:53:21.000Z</time>
      </trkpt>
      <trkpt lat="48.1998" lon="3.25028">
        <ele>119</ele>
        <time>2014-09-07T07:53:22.000Z</time>
      </trkpt>
      <trkpt lat="48.19979" lon="3.25022">
        <ele>119</ele>
        <time>2014-09-07T07:53:23.000Z</time>
      </trkpt>
      <trkpt lat="48.19978" lon="3.25013">
        <ele>118</ele>
        <time>2014-09-07T07:53:24.000Z</time>
      </trkpt>
      <trkpt lat="48.19977" lon="3.25004">
        <ele>118</ele>
        <time>2014-09-07T07:53:25.000Z</time>
      </trkpt>
      <trkpt lat="48.19977" lon="3.24998">
        <ele>114</ele>
        <time>2014-09-07T07:53:26.000Z</time>
      </trkpt>
      <trkpt lat="48.19976" lon="3.24989">
        <ele>114</ele>
        <time>2014-09-07T07:53:27.000Z</time>
      </trkpt>
      <trkpt lat="48.19975" lon="3.24981">
        <ele>115</ele>
        <time>2014-09-07T07:53:28.000Z</time>
      </trkpt>
      <trkpt lat="48.19974" lon="3.24972">
        <ele>114</ele>
        <time>2014-09-07T07:53:29.000Z</time>
      </trkpt>
      <trkpt lat="48.19974" lon="3.24966">
        <ele>114</ele>
        <time>2014-09-07T07:53:30.000Z</time>
      </trkpt>
      <trkpt lat="48.19973" lon="3.24957">
        <ele>114</ele>
        <time>2014-09-07T07:53:31.000Z</time>
      </trkpt>
      <trkpt lat="48.19973" lon="3.24949">
        <ele>114</ele>
        <time>2014-09-07T07:53:32.000Z</time>
      </trkpt>
      <trkpt lat="48.19973" lon="3.24942">
        <ele>114</ele>
        <time>2014-09-07T07:53:33.000Z</time>
      </trkpt>
      <trkpt lat="48.19973" lon="3.24934">
        <ele>113</ele>
        <time>2014-09-07T07:53:34.000Z</time>
      </trkpt>
      <trkpt lat="48.19971" lon="3.24927">
        <ele>113</ele>
        <time>2014-09-07T07:53:35.000Z</time>
      </trkpt>
      <trkpt lat="48.1997" lon="3.24919">
        <ele>113</ele>
        <time>2014-09-07T07:53:36.000Z</time>
      </trkpt>
      <trkpt lat="48.19969" lon="3.24912">
        <ele>110</ele>
        <time>2014-09-07T07:53:37.000Z</time>
      </trkpt>
      <trkpt lat="48.19968" lon="3.24903">
        <ele>110</ele>
        <time>2014-09-07T07:53:38.000Z</time>
      </trkpt>
      <trkpt lat="48.19967" lon="3.24895">
        <ele>110</ele>
        <time>2014-09-07T07:53:39.000Z</time>
      </trkpt>
      <trkpt lat="48.19966" lon="3.24886">
        <ele>110</ele>
        <time>2014-09-07T07:53:40.000Z</time>
      </trkpt>
      <trkpt lat="48.19965" lon="3.24878">
        <ele>110</ele>
        <time>2014-09-07T07:53:41.000Z</time>
      </trkpt>
      <trkpt lat="48.19963" lon="3.24869">
        <ele>109</ele>
        <time>2014-09-07T07:53:42.000Z</time>
      </trkpt>
      <trkpt lat="48.19962" lon="3.24861">
        <ele>109</ele>
        <time>2014-09-07T07:53:43.000Z</time>
      </trkpt>
      <trkpt lat="48.19962" lon="3.24852">
        <ele>109</ele>
        <time>2014-09-07T07:53:44.000Z</time>
      </trkpt>
      <trkpt lat="48.19961" lon="3.24841">
        <ele>109</ele>
        <time>2014-09-07T07:53:45.000Z</time>
      </trkpt>
      <trkpt lat="48.1996" lon="3.24831">
        <ele>106</ele>
        <time>2014-09-07T07:53:46.000Z</time>
      </trkpt>
      <trkpt lat="48.19959" lon="3.2482">
        <ele>106</ele>
        <time>2014-09-07T07:53:47.000Z</time>
      </trkpt>
      <trkpt lat="48.19959" lon="3.24811">
        <ele>105</ele>
        <time>2014-09-07T07:53:48.000Z</time>
      </trkpt>
      <trkpt lat="48.19957" lon="3.248">
        <ele>105</ele>
        <time>2014-09-07T07:53:49.000Z</time>
      </trkpt>
      <trkpt lat="48.19956" lon="3.24792">
        <ele>105</ele>
        <time>2014-09-07T07:53:50.000Z</time>
      </trkpt>
      <trkpt lat="48.19954" lon="3.24783">
        <ele>105</ele>
        <time>2014-09-07T07:53:51.000Z</time>
      </trkpt>
      <trkpt lat="48.19952" lon="3.24775">
        <ele>104</ele>
        <time>2014-09-07T07:53:52.000Z</time>
      </trkpt>
      <trkpt lat="48.1995" lon="3.24768">
        <ele>104</ele>
        <time>2014-09-07T07:53:53.000Z</time>
      </trkpt>
      <trkpt lat="48.19947" lon="3.2476">
        <ele>104</ele>
        <time>2014-09-07T07:53:54.000Z</time>
      </trkpt>
      <trkpt lat="48.19945" lon="3.24753">
        <ele>104</ele>
        <time>2014-09-07T07:53:55.000Z</time>
      </trkpt>
      <trkpt lat="48.19942" lon="3.24747">
        <ele>103</ele>
        <time>2014-09-07T07:53:56.000Z</time>
      </trkpt>
      <trkpt lat="48.19939" lon="3.2474">
        <ele>103</ele>
        <time>2014-09-07T07:53:57.000Z</time>
      </trkpt>
      <trkpt lat="48.19937" lon="3.24734">
        <ele>103</ele>
        <time>2014-09-07T07:53:58.000Z</time>
      </trkpt>
      <trkpt lat="48.19936" lon="3.2473">
        <ele>103</ele>
        <time>2014-09-07T07:53:59.000Z</time>
      </trkpt>
      <trkpt lat="48.19935" lon="3.24723">
        <ele>102</ele>
        <time>2014-09-07T07:54:00.000Z</time>
      </trkpt>
      <trkpt lat="48.19933" lon="3.24719">
        <ele>102</ele>
        <time>2014-09-07T07:54:01.000Z</time>
      </trkpt>
      <trkpt lat="48.19932" lon="3.24715">
        <ele>102</ele>
        <time>2014-09-07T07:54:02.000Z</time>
      </trkpt>
      <trkpt lat="48.19931" lon="3.24708">
        <ele>102</ele>
        <time>2014-09-07T07:54:03.000Z</time>
      </trkpt>
      <trkpt lat="48.19929" lon="3.24704">
        <ele>102</ele>
        <time>2014-09-07T07:54:04.000Z</time>
      </trkpt>
      <trkpt lat="48.19927" lon="3.24697">
        <ele>102</ele>
        <time>2014-09-07T07:54:05.000Z</time>
      </trkpt>
      <trkpt lat="48.19926" lon="3.24693">
        <ele>102</ele>
        <time>2014-09-07T07:54:06.000Z</time>
      </trkpt>
      <trkpt lat="48.19924" lon="3.24689">
        <ele>102</ele>
        <time>2014-09-07T07:54:07.000Z</time>
      </trkpt>
      <trkpt lat="48.19923" lon="3.24682">
        <ele>102</ele>
        <time>2014-09-07T07:54:08.000Z</time>
      </trkpt>
      <trkpt lat="48.19922" lon="3.24678">
        <ele>102</ele>
        <time>2014-09-07T07:54:09.000Z</time>
      </trkpt>
      <trkpt lat="48.19921" lon="3.24672">
        <ele>103</ele>
        <time>2014-09-07T07:54:10.000Z</time>
      </trkpt>
      <trkpt lat="48.1992" lon="3.24667">
        <ele>103</ele>
        <time>2014-09-07T07:54:11.000Z</time>
      </trkpt>
      <trkpt lat="48.19919" lon="3.24661">
        <ele>103</ele>
        <time>2014-09-07T07:54:12.000Z</time>
      </trkpt>
      <trkpt lat="48.19918" lon="3.24657">
        <ele>103</ele>
        <time>2014-09-07T07:54:13.000Z</time>
      </trkpt>
      <trkpt lat="48.19917" lon="3.2465">
        <ele>104</ele>
        <time>2014-09-07T07:54:14.000Z</time>
      </trkpt>
      <trkpt lat="48.19916" lon="3.24644">
        <ele>107</ele>
        <time>2014-09-07T07:54:15.000Z</time>
      </trkpt>
      <trkpt lat="48.19915" lon="3.24637">
        <ele>107</ele>
        <time>2014-09-07T07:54:16.000Z</time>
      </trkpt>
      <trkpt lat="48.19914" lon="3.24631">
        <ele>108</ele>
        <time>2014-09-07T07:54:17.000Z</time>
      </trkpt>
      <trkpt lat="48.19912" lon="3.24625">
        <ele>108</ele>
        <time>2014-09-07T07:54:18.000Z</time>
      </trkpt>
      <trkpt lat="48.19911" lon="3.24618">
        <ele>108</ele>
        <time>2014-09-07T07:54:19.000Z</time>
      </trkpt>
      <trkpt lat="48.19909" lon="3.24612">
        <ele>108</ele>
        <time>2014-09-07T07:54:20.000Z</time>
      </trkpt>
      <trkpt lat="48.19908" lon="3.24605">
        <ele>108</ele>
        <time>2014-09-07T07:54:21.000Z</time>
      </trkpt>
      <trkpt lat="48.19906" lon="3.24599">
        <ele>108</ele>
        <time>2014-09-07T07:54:22.000Z</time>
      </trkpt>
      <trkpt lat="48.19905" lon="3.24592">
        <ele>108</ele>
        <time>2014-09-07T07:54:23.000Z</time>
      </trkpt>
      <trkpt lat="48.19903" lon="3.24586">
        <ele>108</ele>
        <time>2014-09-07T07:54:24.000Z</time>
      </trkpt>
      <trkpt lat="48.19902" lon="3.24582">
        <ele>107</ele>
        <time>2014-09-07T07:54:25.000Z</time>
      </trkpt>
      <trkpt lat="48.19901" lon="3.24577">
        <ele>107</ele>
        <time>2014-09-07T07:54:26.000Z</time>
      </trkpt>
      <trkpt lat="48.19901" lon="3.24573">
        <ele>107</ele>
        <time>2014-09-07T07:54:27.000Z</time>
      </trkpt>
      <trkpt lat="48.19901" lon="3.24569">
        <ele>107</ele>
        <time>2014-09-07T07:54:28.000Z</time>
      </trkpt>
      <trkpt lat="48.19901" lon="3.24564">
        <ele>108</ele>
        <time>2014-09-07T07:54:29.000Z</time>
      </trkpt>
      <trkpt lat="48.199" lon="3.2456">
        <ele>108</ele>
        <time>2014-09-07T07:54:30.000Z</time>
      </trkpt>
      <trkpt lat="48.199" lon="3.24558">
        <ele>108</ele>
        <time>2014-09-07T07:54:33.000Z</time>
      </trkpt>
      <trkpt lat="48.19895" lon="3.24554">
        <ele>108</ele>
        <time>2014-09-07T07:54:34.000Z</time>
      </trkpt>
      <trkpt lat="48.19895" lon="3.24554">
        <ele>108</ele>
        <time>2014-09-07T07:54:36.000Z</time>
      </trkpt>
      <trkpt lat="48.19891" lon="3.24547">
        <ele>108</ele>
        <time>2014-09-07T07:54:37.000Z</time>
      </trkpt>
      <trkpt lat="48.19891" lon="3.24547">
        <ele>108</ele>
        <time>2014-09-07T07:54:39.000Z</time>
      </trkpt>
      <trkpt lat="48.19887" lon="3.24543">
        <ele>108</ele>
        <time>2014-09-07T07:54:40.000Z</time>
      </trkpt>
      <trkpt lat="48.19883" lon="3.24539">
        <ele>108</ele>
        <time>2014-09-07T07:54:43.000Z</time>
      </trkpt>
      <trkpt lat="48.1988" lon="3.24532">
        <ele>108</ele>
        <time>2014-09-07T07:54:44.000Z</time>
      </trkpt>
      <trkpt lat="48.19877" lon="3.24528">
        <ele>108</ele>
        <time>2014-09-07T07:54:48.000Z</time>
      </trkpt>
      <trkpt lat="48.19873" lon="3.24522">
        <ele>108</ele>
        <time>2014-09-07T07:54:49.000Z</time>
      </trkpt>
      <trkpt lat="48.19871" lon="3.24517">
        <ele>108</ele>
        <time>2014-09-07T07:54:54.000Z</time>
      </trkpt>
      <trkpt lat="48.19867" lon="3.24509">
        <ele>108</ele>
        <time>2014-09-07T07:54:55.000Z</time>
      </trkpt>
      <trkpt lat="48.19867" lon="3.24509">
        <ele>108</ele>
        <time>2014-09-07T07:55:02.000Z</time>
      </trkpt>
      <trkpt lat="48.19867" lon="3.245">
        <ele>108</ele>
        <time>2014-09-07T07:55:03.000Z</time>
      </trkpt>
      <trkpt lat="48.1987" lon="3.245">
        <ele>108</ele>
        <time>2014-09-07T07:55:27.000Z</time>
      </trkpt>
      <trkpt lat="48.19862" lon="3.24509">
        <ele>108</ele>
        <time>2014-09-07T07:55:28.000Z</time>
      </trkpt>
      <trkpt lat="48.19862" lon="3.24509">
        <ele>108</ele>
        <time>2014-09-07T07:55:35.000Z</time>
      </trkpt>
      <trkpt lat="48.1986" lon="3.24524">
        <ele>108</ele>
        <time>2014-09-07T07:55:36.000Z</time>
      </trkpt>
      <trkpt lat="48.1986" lon="3.24524">
        <ele>108</ele>
        <time>2014-09-07T07:55:42.000Z</time>
      </trkpt>
      <trkpt lat="48.19861" lon="3.24537">
        <ele>109</ele>
        <time>2014-09-07T07:55:43.000Z</time>
      </trkpt>
      <trkpt lat="48.19861" lon="3.24537">
        <ele>109</ele>
        <time>2014-09-07T07:55:49.000Z</time>
      </trkpt>
      <trkpt lat="48.19871" lon="3.24543">
        <ele>108</ele>
        <time>2014-09-07T07:55:50.000Z</time>
      </trkpt>
      <trkpt lat="48.19871" lon="3.24543">
        <ele>108</ele>
        <time>2014-09-07T07:55:55.000Z</time>
      </trkpt>
      <trkpt lat="48.19879" lon="3.24547">
        <ele>108</ele>
        <time>2014-09-07T07:55:56.000Z</time>
      </trkpt>
      <trkpt lat="48.19879" lon="3.24547">
        <ele>108</ele>
        <time>2014-09-07T07:56:01.000Z</time>
      </trkpt>
      <trkpt lat="48.19889" lon="3.24552">
        <ele>108</ele>
        <time>2014-09-07T07:56:02.000Z</time>
      </trkpt>
      <trkpt lat="48.19889" lon="3.24552">
        <ele>108</ele>
        <time>2014-09-07T07:56:06.000Z</time>
      </trkpt>
      <trkpt lat="48.19898" lon="3.2456">
        <ele>108</ele>
        <time>2014-09-07T07:56:07.000Z</time>
      </trkpt>
      <trkpt lat="48.19898" lon="3.2456">
        <ele>108</ele>
        <time>2014-09-07T07:56:11.000Z</time>
      </trkpt>
      <trkpt lat="48.19907" lon="3.24567">
        <ele>107</ele>
        <time>2014-09-07T07:56:12.000Z</time>
      </trkpt>
      <trkpt lat="48.19907" lon="3.24567">
        <ele>107</ele>
        <time>2014-09-07T07:56:16.000Z</time>
      </trkpt>
      <trkpt lat="48.19917" lon="3.24571">
        <ele>108</ele>
        <time>2014-09-07T07:56:17.000Z</time>
      </trkpt>
      <trkpt lat="48.19917" lon="3.24571">
        <ele>108</ele>
        <time>2014-09-07T07:56:21.000Z</time>
      </trkpt>
      <trkpt lat="48.19925" lon="3.24571">
        <ele>108</ele>
        <time>2014-09-07T07:56:22.000Z</time>
      </trkpt>
      <trkpt lat="48.19925" lon="3.24571">
        <ele>108</ele>
        <time>2014-09-07T07:56:27.000Z</time>
      </trkpt>
      <trkpt lat="48.19935" lon="3.24569">
        <ele>109</ele>
        <time>2014-09-07T07:56:28.000Z</time>
      </trkpt>
      <trkpt lat="48.19935" lon="3.24569">
        <ele>109</ele>
        <time>2014-09-07T07:56:32.000Z</time>
      </trkpt>
      <trkpt lat="48.19946" lon="3.24567">
        <ele>110</ele>
        <time>2014-09-07T07:56:33.000Z</time>
      </trkpt>
      <trkpt lat="48.19946" lon="3.24567">
        <ele>110</ele>
        <time>2014-09-07T07:56:38.000Z</time>
      </trkpt>
      <trkpt lat="48.19956" lon="3.24567">
        <ele>110</ele>
        <time>2014-09-07T07:56:39.000Z</time>
      </trkpt>
      <trkpt lat="48.19956" lon="3.24567">
        <ele>110</ele>
        <time>2014-09-07T07:56:45.000Z</time>
      </trkpt>
      <trkpt lat="48.19966" lon="3.24562">
        <ele>111</ele>
        <time>2014-09-07T07:56:46.000Z</time>
      </trkpt>
      <trkpt lat="48.19966" lon="3.24562">
        <ele>111</ele>
        <time>2014-09-07T07:56:52.000Z</time>
      </trkpt>
      <trkpt lat="48.19975" lon="3.24556">
        <ele>112</ele>
        <time>2014-09-07T07:56:53.000Z</time>
      </trkpt>
      <trkpt lat="48.19975" lon="3.24556">
        <ele>112</ele>
        <time>2014-09-07T07:56:59.000Z</time>
      </trkpt>
      <trkpt lat="48.19984" lon="3.24554">
        <ele>112</ele>
        <time>2014-09-07T07:57:00.000Z</time>
      </trkpt>
      <trkpt lat="48.19984" lon="3.24554">
        <ele>112</ele>
        <time>2014-09-07T07:57:09.000Z</time>
      </trkpt>
      <trkpt lat="48.19991" lon="3.24543">
        <ele>113</ele>
        <time>2014-09-07T07:57:10.000Z</time>
      </trkpt>
      <trkpt lat="48.19991" lon="3.24543">
        <ele>113</ele>
        <time>2014-09-07T07:57:22.000Z</time>
      </trkpt>
      <trkpt lat="48.19992" lon="3.2453">
        <ele>114</ele>
        <time>2014-09-07T07:57:23.000Z</time>
      </trkpt>
      <trkpt lat="48.19993" lon="3.24524">
        <ele>115</ele>
        <time>2014-09-07T07:57:37.000Z</time>
      </trkpt>
      <trkpt lat="48.19993" lon="3.24522">
        <ele>115</ele>
        <time>2014-09-07T07:57:38.000Z</time>
      </trkpt>
      <trkpt lat="48.19996" lon="3.24519">
        <ele>116</ele>
        <time>2014-09-07T07:57:43.000Z</time>
      </trkpt>
      <trkpt lat="48.19997" lon="3.24517">
        <ele>117</ele>
        <time>2014-09-07T07:57:44.000Z</time>
      </trkpt>
      <trkpt lat="48.2" lon="3.24519">
        <ele>122</ele>
        <time>2014-09-07T07:57:52.000Z</time>
      </trkpt>
      <trkpt lat="48.20001" lon="3.24519">
        <ele>122</ele>
        <time>2014-09-07T07:57:53.000Z</time>
      </trkpt>
      <trkpt lat="48.20005" lon="3.24522">
        <ele>122</ele>
        <time>2014-09-07T07:57:58.000Z</time>
      </trkpt>
      <trkpt lat="48.20006" lon="3.24522">
        <ele>122</ele>
        <time>2014-09-07T07:57:59.000Z</time>
      </trkpt>
      <trkpt lat="48.20009" lon="3.24524">
        <ele>122</ele>
        <time>2014-09-07T07:58:02.000Z</time>
      </trkpt>
      <trkpt lat="48.2001" lon="3.24526">
        <ele>122</ele>
        <time>2014-09-07T07:58:03.000Z</time>
      </trkpt>
      <trkpt lat="48.20014" lon="3.24526">
        <ele>122</ele>
        <time>2014-09-07T07:58:06.000Z</time>
      </trkpt>
      <trkpt lat="48.20017" lon="3.24528">
        <ele>122</ele>
        <time>2014-09-07T07:58:07.000Z</time>
      </trkpt>
      <trkpt lat="48.2002" lon="3.24528">
        <ele>122</ele>
        <time>2014-09-07T07:58:09.000Z</time>
      </trkpt>
      <trkpt lat="48.20022" lon="3.24528">
        <ele>122</ele>
        <time>2014-09-07T07:58:10.000Z</time>
      </trkpt>
      <trkpt lat="48.20025" lon="3.24526">
        <ele>122</ele>
        <time>2014-09-07T07:58:12.000Z</time>
      </trkpt>
      <trkpt lat="48.20026" lon="3.24526">
        <ele>122</ele>
        <time>2014-09-07T07:58:13.000Z</time>
      </trkpt>
      <trkpt lat="48.2003" lon="3.24526">
        <ele>123</ele>
        <time>2014-09-07T07:58:16.000Z</time>
      </trkpt>
      <trkpt lat="48.20032" lon="3.24524">
        <ele>123</ele>
        <time>2014-09-07T07:58:17.000Z</time>
      </trkpt>
      <trkpt lat="48.20035" lon="3.24522">
        <ele>123</ele>
        <time>2014-09-07T07:58:24.000Z</time>
      </trkpt>
      <trkpt lat="48.20036" lon="3.24522">
        <ele>123</ele>
        <time>2014-09-07T07:58:25.000Z</time>
      </trkpt>
      <trkpt lat="48.20039" lon="3.24519">
        <ele>124</ele>
        <time>2014-09-07T07:58:29.000Z</time>
      </trkpt>
      <trkpt lat="48.2004" lon="3.24517">
        <ele>124</ele>
        <time>2014-09-07T07:58:30.000Z</time>
      </trkpt>
      <trkpt lat="48.20043" lon="3.24513">
        <ele>124</ele>
        <time>2014-09-07T07:58:37.000Z</time>
      </trkpt>
      <trkpt lat="48.20044" lon="3.24513">
        <ele>125</ele>
        <time>2014-09-07T07:58:38.000Z</time>
      </trkpt>
      <trkpt lat="48.20045" lon="3.24507">
        <ele>125</ele>
        <time>2014-09-07T07:58:40.000Z</time>
      </trkpt>
      <trkpt lat="48.20047" lon="3.24504">
        <ele>125</ele>
        <time>2014-09-07T07:58:41.000Z</time>
      </trkpt>
      <trkpt lat="48.20048" lon="3.245">
        <ele>126</ele>
        <time>2014-09-07T07:58:43.000Z</time>
      </trkpt>
      <trkpt lat="48.20049" lon="3.24498">
        <ele>132</ele>
        <time>2014-09-07T07:58:44.000Z</time>
      </trkpt>
      <trkpt lat="48.20052" lon="3.24494">
        <ele>133</ele>
        <time>2014-09-07T07:58:47.000Z</time>
      </trkpt>
      <trkpt lat="48.20053" lon="3.24492">
        <ele>133</ele>
        <time>2014-09-07T07:58:48.000Z</time>
      </trkpt>
      <trkpt lat="48.20056" lon="3.24487">
        <ele>133</ele>
        <time>2014-09-07T07:58:52.000Z</time>
      </trkpt>
      <trkpt lat="48.20057" lon="3.24487">
        <ele>133</ele>
        <time>2014-09-07T07:58:53.000Z</time>
      </trkpt>
      <trkpt lat="48.20059" lon="3.24483">
        <ele>134</ele>
        <time>2014-09-07T07:58:56.000Z</time>
      </trkpt>
      <trkpt lat="48.2006" lon="3.24481">
        <ele>134</ele>
        <time>2014-09-07T07:58:57.000Z</time>
      </trkpt>
      <trkpt lat="48.20063" lon="3.24476">
        <ele>134</ele>
        <time>2014-09-07T07:59:02.000Z</time>
      </trkpt>
      <trkpt lat="48.20064" lon="3.24474">
        <ele>134</ele>
        <time>2014-09-07T07:59:03.000Z</time>
      </trkpt>
      <trkpt lat="48.20066" lon="3.2447">
        <ele>134</ele>
        <time>2014-09-07T07:59:08.000Z</time>
      </trkpt>
      <trkpt lat="48.20067" lon="3.24468">
        <ele>134</ele>
        <time>2014-09-07T07:59:09.000Z</time>
      </trkpt>
      <trkpt lat="48.2007" lon="3.24464">
        <ele>135</ele>
        <time>2014-09-07T07:59:16.000Z</time>
      </trkpt>
      <trkpt lat="48.20071" lon="3.24464">
        <ele>135</ele>
        <time>2014-09-07T07:59:17.000Z</time>
      </trkpt>
      <trkpt lat="48.20074" lon="3.24461">
        <ele>135</ele>
        <time>2014-09-07T07:59:22.000Z</time>
      </trkpt>
      <trkpt lat="48.20076" lon="3.24459">
        <ele>135</ele>
        <time>2014-09-07T07:59:23.000Z</time>
      </trkpt>
      <trkpt lat="48.20079" lon="3.24459">
        <ele>135</ele>
        <time>2014-09-07T07:59:26.000Z</time>
      </trkpt>
      <trkpt lat="48.2008" lon="3.24457">
        <ele>136</ele>
        <time>2014-09-07T07:59:27.000Z</time>
      </trkpt>
      <trkpt lat="48.20083" lon="3.24453">
        <ele>136</ele>
        <time>2014-09-07T07:59:32.000Z</time>
      </trkpt>
      <trkpt lat="48.20084" lon="3.24453">
        <ele>144</ele>
        <time>2014-09-07T07:59:33.000Z</time>
      </trkpt>
      <trkpt lat="48.20086" lon="3.24449">
        <ele>144</ele>
        <time>2014-09-07T07:59:37.000Z</time>
      </trkpt>
      <trkpt lat="48.20087" lon="3.24446">
        <ele>144</ele>
        <time>2014-09-07T07:59:38.000Z</time>
      </trkpt>
      <trkpt lat="48.20091" lon="3.24442">
        <ele>144</ele>
        <time>2014-09-07T07:59:43.000Z</time>
      </trkpt>
      <trkpt lat="48.20091" lon="3.2444">
        <ele>144</ele>
        <time>2014-09-07T07:59:44.000Z</time>
      </trkpt>
      <trkpt lat="48.20094" lon="3.24436">
        <ele>145</ele>
        <time>2014-09-07T07:59:48.000Z</time>
      </trkpt>
      <trkpt lat="48.20095" lon="3.24436">
        <ele>145</ele>
        <time>2014-09-07T07:59:49.000Z</time>
      </trkpt>
      <trkpt lat="48.20098" lon="3.24434">
        <ele>145</ele>
        <time>2014-09-07T07:59:52.000Z</time>
      </trkpt>
      <trkpt lat="48.20099" lon="3.24434">
        <ele>145</ele>
        <time>2014-09-07T07:59:53.000Z</time>
      </trkpt>
      <trkpt lat="48.20102" lon="3.24429">
        <ele>145</ele>
        <time>2014-09-07T07:59:57.000Z</time>
      </trkpt>
      <trkpt lat="48.20103" lon="3.24429">
        <ele>145</ele>
        <time>2014-09-07T07:59:58.000Z</time>
      </trkpt>
      <trkpt lat="48.20107" lon="3.24427">
        <ele>145</ele>
        <time>2014-09-07T08:00:01.000Z</time>
      </trkpt>
      <trkpt lat="48.20108" lon="3.24425">
        <ele>145</ele>
        <time>2014-09-07T08:00:02.000Z</time>
      </trkpt>
      <trkpt lat="48.20111" lon="3.24423">
        <ele>145</ele>
        <time>2014-09-07T08:00:05.000Z</time>
      </trkpt>
      <trkpt lat="48.20112" lon="3.24423">
        <ele>145</ele>
        <time>2014-09-07T08:00:06.000Z</time>
      </trkpt>
      <trkpt lat="48.20115" lon="3.24421">
        <ele>146</ele>
        <time>2014-09-07T08:00:09.000Z</time>
      </trkpt>
      <trkpt lat="48.20116" lon="3.24421">
        <ele>146</ele>
        <time>2014-09-07T08:00:10.000Z</time>
      </trkpt>
      <trkpt lat="48.2012" lon="3.24416">
        <ele>150</ele>
        <time>2014-09-07T08:00:14.000Z</time>
      </trkpt>
      <trkpt lat="48.20121" lon="3.24416">
        <ele>150</ele>
        <time>2014-09-07T08:00:15.000Z</time>
      </trkpt>
      <trkpt lat="48.20124" lon="3.24412">
        <ele>150</ele>
        <time>2014-09-07T08:00:18.000Z</time>
      </trkpt>
      <trkpt lat="48.20125" lon="3.24412">
        <ele>150</ele>
        <time>2014-09-07T08:00:19.000Z</time>
      </trkpt>
      <trkpt lat="48.20128" lon="3.24408">
        <ele>151</ele>
        <time>2014-09-07T08:00:22.000Z</time>
      </trkpt>
      <trkpt lat="48.20129" lon="3.24406">
        <ele>151</ele>
        <time>2014-09-07T08:00:23.000Z</time>
      </trkpt>
      <trkpt lat="48.20132" lon="3.24401">
        <ele>151</ele>
        <time>2014-09-07T08:00:25.000Z</time>
      </trkpt>
      <trkpt lat="48.20133" lon="3.24399">
        <ele>151</ele>
        <time>2014-09-07T08:00:26.000Z</time>
      </trkpt>
      <trkpt lat="48.20135" lon="3.24397">
        <ele>151</ele>
        <time>2014-09-07T08:00:27.000Z</time>
      </trkpt>
      <trkpt lat="48.20136" lon="3.24393">
        <ele>151</ele>
        <time>2014-09-07T08:00:28.000Z</time>
      </trkpt>
      <trkpt lat="48.20138" lon="3.24389">
        <ele>152</ele>
        <time>2014-09-07T08:00:30.000Z</time>
      </trkpt>
      <trkpt lat="48.20139" lon="3.24386">
        <ele>152</ele>
        <time>2014-09-07T08:00:31.000Z</time>
      </trkpt>
      <trkpt lat="48.20141" lon="3.24382">
        <ele>152</ele>
        <time>2014-09-07T08:00:33.000Z</time>
      </trkpt>
      <trkpt lat="48.20141" lon="3.2438">
        <ele>152</ele>
        <time>2014-09-07T08:00:34.000Z</time>
      </trkpt>
      <trkpt lat="48.20143" lon="3.24376">
        <ele>152</ele>
        <time>2014-09-07T08:00:38.000Z</time>
      </trkpt>
      <trkpt lat="48.20143" lon="3.24373">
        <ele>152</ele>
        <time>2014-09-07T08:00:39.000Z</time>
      </trkpt>
      <trkpt lat="48.20144" lon="3.24367">
        <ele>153</ele>
        <time>2014-09-07T08:00:45.000Z</time>
      </trkpt>
      <trkpt lat="48.20144" lon="3.24365">
        <ele>153</ele>
        <time>2014-09-07T08:00:46.000Z</time>
      </trkpt>
      <trkpt lat="48.20144" lon="3.24358">
        <ele>153</ele>
        <time>2014-09-07T08:00:50.000Z</time>
      </trkpt>
      <trkpt lat="48.20144" lon="3.24356">
        <ele>153</ele>
        <time>2014-09-07T08:00:51.000Z</time>
      </trkpt>
      <trkpt lat="48.20145" lon="3.2435">
        <ele>154</ele>
        <time>2014-09-07T08:00:54.000Z</time>
      </trkpt>
      <trkpt lat="48.20144" lon="3.24348">
        <ele>154</ele>
        <time>2014-09-07T08:00:55.000Z</time>
      </trkpt>
      <trkpt lat="48.20145" lon="3.24343">
        <ele>154</ele>
        <time>2014-09-07T08:00:59.000Z</time>
      </trkpt>
      <trkpt lat="48.20146" lon="3.24341">
        <ele>154</ele>
        <time>2014-09-07T08:01:00.000Z</time>
      </trkpt>
      <trkpt lat="48.20148" lon="3.24337">
        <ele>155</ele>
        <time>2014-09-07T08:01:06.000Z</time>
      </trkpt>
      <trkpt lat="48.20148" lon="3.24335">
        <ele>155</ele>
        <time>2014-09-07T08:01:07.000Z</time>
      </trkpt>
      <trkpt lat="48.20148" lon="3.24328">
        <ele>156</ele>
        <time>2014-09-07T08:01:16.000Z</time>
      </trkpt>
      <trkpt lat="48.20148" lon="3.24326">
        <ele>156</ele>
        <time>2014-09-07T08:01:17.000Z</time>
      </trkpt>
      <trkpt lat="48.20152" lon="3.24324">
        <ele>156</ele>
        <time>2014-09-07T08:01:23.000Z</time>
      </trkpt>
      <trkpt lat="48.20153" lon="3.24322">
        <ele>156</ele>
        <time>2014-09-07T08:01:24.000Z</time>
      </trkpt>
      <trkpt lat="48.20157" lon="3.24322">
        <ele>157</ele>
        <time>2014-09-07T08:01:30.000Z</time>
      </trkpt>
      <trkpt lat="48.20157" lon="3.2432">
        <ele>156</ele>
        <time>2014-09-07T08:01:31.000Z</time>
      </trkpt>
      <trkpt lat="48.20161" lon="3.2432">
        <ele>157</ele>
        <time>2014-09-07T08:01:37.000Z</time>
      </trkpt>
      <trkpt lat="48.20161" lon="3.24322">
        <ele>157</ele>
        <time>2014-09-07T08:01:38.000Z</time>
      </trkpt>
      <trkpt lat="48.20165" lon="3.24322">
        <ele>157</ele>
        <time>2014-09-07T08:01:42.000Z</time>
      </trkpt>
      <trkpt lat="48.20166" lon="3.24324">
        <ele>157</ele>
        <time>2014-09-07T08:01:43.000Z</time>
      </trkpt>
      <trkpt lat="48.2017" lon="3.24324">
        <ele>160</ele>
        <time>2014-09-07T08:01:48.000Z</time>
      </trkpt>
      <trkpt lat="48.20171" lon="3.24326">
        <ele>160</ele>
        <time>2014-09-07T08:01:49.000Z</time>
      </trkpt>
      <trkpt lat="48.20174" lon="3.24328">
        <ele>160</ele>
        <time>2014-09-07T08:01:53.000Z</time>
      </trkpt>
      <trkpt lat="48.20175" lon="3.24331">
        <ele>160</ele>
        <time>2014-09-07T08:01:54.000Z</time>
      </trkpt>
      <trkpt lat="48.20179" lon="3.24333">
        <ele>160</ele>
        <time>2014-09-07T08:01:58.000Z</time>
      </trkpt>
      <trkpt lat="48.2018" lon="3.24335">
        <ele>159</ele>
        <time>2014-09-07T08:01:59.000Z</time>
      </trkpt>
      <trkpt lat="48.20183" lon="3.24335">
        <ele>159</ele>
        <time>2014-09-07T08:02:01.000Z</time>
      </trkpt>
      <trkpt lat="48.20184" lon="3.24337">
        <ele>159</ele>
        <time>2014-09-07T08:02:02.000Z</time>
      </trkpt>
      <trkpt lat="48.20186" lon="3.24339">
        <ele>159</ele>
        <time>2014-09-07T08:02:04.000Z</time>
      </trkpt>
      <trkpt lat="48.20188" lon="3.24341">
        <ele>159</ele>
        <time>2014-09-07T08:02:05.000Z</time>
      </trkpt>
      <trkpt lat="48.2019" lon="3.24343">
        <ele>159</ele>
        <time>2014-09-07T08:02:06.000Z</time>
      </trkpt>
      <trkpt lat="48.20192" lon="3.24346">
        <ele>159</ele>
        <time>2014-09-07T08:02:07.000Z</time>
      </trkpt>
      <trkpt lat="48.20196" lon="3.24348">
        <ele>159</ele>
        <time>2014-09-07T08:02:09.000Z</time>
      </trkpt>
      <trkpt lat="48.20198" lon="3.2435">
        <ele>159</ele>
        <time>2014-09-07T08:02:10.000Z</time>
      </trkpt>
      <trkpt lat="48.20201" lon="3.24352">
        <ele>160</ele>
        <time>2014-09-07T08:02:12.000Z</time>
      </trkpt>
      <trkpt lat="48.20203" lon="3.24354">
        <ele>160</ele>
        <time>2014-09-07T08:02:13.000Z</time>
      </trkpt>
      <trkpt lat="48.20206" lon="3.24356">
        <ele>160</ele>
        <time>2014-09-07T08:02:15.000Z</time>
      </trkpt>
      <trkpt lat="48.20209" lon="3.24358">
        <ele>160</ele>
        <time>2014-09-07T08:02:16.000Z</time>
      </trkpt>
      <trkpt lat="48.20212" lon="3.24361">
        <ele>160</ele>
        <time>2014-09-07T08:02:18.000Z</time>
      </trkpt>
      <trkpt lat="48.20214" lon="3.24358">
        <ele>160</ele>
        <time>2014-09-07T08:02:19.000Z</time>
      </trkpt>
      <trkpt lat="48.20218" lon="3.24358">
        <ele>160</ele>
        <time>2014-09-07T08:02:23.000Z</time>
      </trkpt>
      <trkpt lat="48.20219" lon="3.24358">
        <ele>160</ele>
        <time>2014-09-07T08:02:24.000Z</time>
      </trkpt>
      <trkpt lat="48.20224" lon="3.24358">
        <ele>160</ele>
        <time>2014-09-07T08:02:27.000Z</time>
      </trkpt>
      <trkpt lat="48.20226" lon="3.24358">
        <ele>160</ele>
        <time>2014-09-07T08:02:28.000Z</time>
      </trkpt>
      <trkpt lat="48.20229" lon="3.24361">
        <ele>160</ele>
        <time>2014-09-07T08:02:31.000Z</time>
      </trkpt>
      <trkpt lat="48.20231" lon="3.24363">
        <ele>160</ele>
        <time>2014-09-07T08:02:32.000Z</time>
      </trkpt>
      <trkpt lat="48.20234" lon="3.24363">
        <ele>161</ele>
        <time>2014-09-07T08:02:34.000Z</time>
      </trkpt>
      <trkpt lat="48.20236" lon="3.24365">
        <ele>161</ele>
        <time>2014-09-07T08:02:35.000Z</time>
      </trkpt>
      <trkpt lat="48.2024" lon="3.24367">
        <ele>161</ele>
        <time>2014-09-07T08:02:37.000Z</time>
      </trkpt>
      <trkpt lat="48.20242" lon="3.24367">
        <ele>161</ele>
        <time>2014-09-07T08:02:38.000Z</time>
      </trkpt>
      <trkpt lat="48.20245" lon="3.24371">
        <ele>161</ele>
        <time>2014-09-07T08:02:40.000Z</time>
      </trkpt>
      <trkpt lat="48.20247" lon="3.24371">
        <ele>161</ele>
        <time>2014-09-07T08:02:41.000Z</time>
      </trkpt>
      <trkpt lat="48.20249" lon="3.24373">
        <ele>161</ele>
        <time>2014-09-07T08:02:42.000Z</time>
      </trkpt>
      <trkpt lat="48.20251" lon="3.24376">
        <ele>164</ele>
        <time>2014-09-07T08:02:43.000Z</time>
      </trkpt>
      <trkpt lat="48.20254" lon="3.24376">
        <ele>164</ele>
        <time>2014-09-07T08:02:44.000Z</time>
      </trkpt>
      <trkpt lat="48.20256" lon="3.24378">
        <ele>164</ele>
        <time>2014-09-07T08:02:45.000Z</time>
      </trkpt>
      <trkpt lat="48.20259" lon="3.2438">
        <ele>164</ele>
        <time>2014-09-07T08:02:46.000Z</time>
      </trkpt>
      <trkpt lat="48.20261" lon="3.2438">
        <ele>164</ele>
        <time>2014-09-07T08:02:47.000Z</time>
      </trkpt>
      <trkpt lat="48.20263" lon="3.24382">
        <ele>164</ele>
        <time>2014-09-07T08:02:48.000Z</time>
      </trkpt>
      <trkpt lat="48.20265" lon="3.24384">
        <ele>164</ele>
        <time>2014-09-07T08:02:49.000Z</time>
      </trkpt>
      <trkpt lat="48.20268" lon="3.24386">
        <ele>164</ele>
        <time>2014-09-07T08:02:50.000Z</time>
      </trkpt>
      <trkpt lat="48.2027" lon="3.24386">
        <ele>164</ele>
        <time>2014-09-07T08:02:51.000Z</time>
      </trkpt>
      <trkpt lat="48.20272" lon="3.24389">
        <ele>164</ele>
        <time>2014-09-07T08:02:52.000Z</time>
      </trkpt>
      <trkpt lat="48.20274" lon="3.24391">
        <ele>164</ele>
        <time>2014-09-07T08:02:53.000Z</time>
      </trkpt>
      <trkpt lat="48.20276" lon="3.24393">
        <ele>164</ele>
        <time>2014-09-07T08:02:54.000Z</time>
      </trkpt>
      <trkpt lat="48.20279" lon="3.24393">
        <ele>164</ele>
        <time>2014-09-07T08:02:55.000Z</time>
      </trkpt>
      <trkpt lat="48.20283" lon="3.24395">
        <ele>164</ele>
        <time>2014-09-07T08:02:57.000Z</time>
      </trkpt>
      <trkpt lat="48.20285" lon="3.24393">
        <ele>164</ele>
        <time>2014-09-07T08:02:58.000Z</time>
      </trkpt>
      <trkpt lat="48.20287" lon="3.24391">
        <ele>165</ele>
        <time>2014-09-07T08:02:59.000Z</time>
      </trkpt>
      <trkpt lat="48.20289" lon="3.24389">
        <ele>165</ele>
        <time>2014-09-07T08:03:00.000Z</time>
      </trkpt>
      <trkpt lat="48.20292" lon="3.24386">
        <ele>165</ele>
        <time>2014-09-07T08:03:02.000Z</time>
      </trkpt>
      <trkpt lat="48.20293" lon="3.24384">
        <ele>165</ele>
        <time>2014-09-07T08:03:03.000Z</time>
      </trkpt>
      <trkpt lat="48.20297" lon="3.2438">
        <ele>165</ele>
        <time>2014-09-07T08:03:06.000Z</time>
      </trkpt>
      <trkpt lat="48.20297" lon="3.24378">
        <ele>165</ele>
        <time>2014-09-07T08:03:07.000Z</time>
      </trkpt>
      <trkpt lat="48.20297" lon="3.24371">
        <ele>165</ele>
        <time>2014-09-07T08:03:13.000Z</time>
      </trkpt>
      <trkpt lat="48.20297" lon="3.24369">
        <ele>165</ele>
        <time>2014-09-07T08:03:14.000Z</time>
      </trkpt>
      <trkpt lat="48.20293" lon="3.24371">
        <ele>165</ele>
        <time>2014-09-07T08:03:20.000Z</time>
      </trkpt>
      <trkpt lat="48.20292" lon="3.24371">
        <ele>165</ele>
        <time>2014-09-07T08:03:21.000Z</time>
      </trkpt>
      <trkpt lat="48.2029" lon="3.24376">
        <ele>165</ele>
        <time>2014-09-07T08:03:29.000Z</time>
      </trkpt>
      <trkpt lat="48.2029" lon="3.24378">
        <ele>165</ele>
        <time>2014-09-07T08:03:30.000Z</time>
      </trkpt>
      <trkpt lat="48.20293" lon="3.2438">
        <ele>165</ele>
        <time>2014-09-07T08:03:39.000Z</time>
      </trkpt>
      <trkpt lat="48.20294" lon="3.2438">
        <ele>165</ele>
        <time>2014-09-07T08:03:40.000Z</time>
      </trkpt>
      <trkpt lat="48.20298" lon="3.24382">
        <ele>165</ele>
        <time>2014-09-07T08:03:51.000Z</time>
      </trkpt>
      <trkpt lat="48.20299" lon="3.24382">
        <ele>165</ele>
        <time>2014-09-07T08:03:52.000Z</time>
      </trkpt>
      <trkpt lat="48.20302" lon="3.2438">
        <ele>165</ele>
        <time>2014-09-07T08:04:06.000Z</time>
      </trkpt>
      <trkpt lat="48.20303" lon="3.2438">
        <ele>165</ele>
        <time>2014-09-07T08:04:07.000Z</time>
      </trkpt>
      <trkpt lat="48.20307" lon="3.2438">
        <ele>165</ele>
        <time>2014-09-07T08:04:13.000Z</time>
      </trkpt>
      <trkpt lat="48.20307" lon="3.24378">
        <ele>165</ele>
        <time>2014-09-07T08:04:14.000Z</time>
      </trkpt>
      <trkpt lat="48.20312" lon="3.24378">
        <ele>166</ele>
        <time>2014-09-07T08:04:27.000Z</time>
      </trkpt>
      <trkpt lat="48.20313" lon="3.24378">
        <ele>166</ele>
        <time>2014-09-07T08:04:28.000Z</time>
      </trkpt>
      <trkpt lat="48.20317" lon="3.24378">
        <ele>166</ele>
        <time>2014-09-07T08:04:50.000Z</time>
      </trkpt>
      <trkpt lat="48.20317" lon="3.24376">
        <ele>166</ele>
        <time>2014-09-07T08:04:51.000Z</time>
      </trkpt>
      <trkpt lat="48.20317" lon="3.24371">
        <ele>166</ele>
        <time>2014-09-07T08:04:55.000Z</time>
      </trkpt>
      <trkpt lat="48.20317" lon="3.24367">
        <ele>166</ele>
        <time>2014-09-07T08:04:56.000Z</time>
      </trkpt>
      <trkpt lat="48.20316" lon="3.24361">
        <ele>166</ele>
        <time>2014-09-07T08:04:58.000Z</time>
      </trkpt>
      <trkpt lat="48.20316" lon="3.24358">
        <ele>166</ele>
        <time>2014-09-07T08:04:59.000Z</time>
      </trkpt>
      <trkpt lat="48.20315" lon="3.24352">
        <ele>166</ele>
        <time>2014-09-07T08:05:01.000Z</time>
      </trkpt>
      <trkpt lat="48.20314" lon="3.24348">
        <ele>166</ele>
        <time>2014-09-07T08:05:02.000Z</time>
      </trkpt>
      <trkpt lat="48.20313" lon="3.24341">
        <ele>167</ele>
        <time>2014-09-07T08:05:04.000Z</time>
      </trkpt>
      <trkpt lat="48.20312" lon="3.24337">
        <ele>167</ele>
        <time>2014-09-07T08:05:05.000Z</time>
      </trkpt>
      <trkpt lat="48.2031" lon="3.24331">
        <ele>167</ele>
        <time>2014-09-07T08:05:07.000Z</time>
      </trkpt>
      <trkpt lat="48.20309" lon="3.24326">
        <ele>167</ele>
        <time>2014-09-07T08:05:08.000Z</time>
      </trkpt>
      <trkpt lat="48.20308" lon="3.24322">
        <ele>167</ele>
        <time>2014-09-07T08:05:09.000Z</time>
      </trkpt>
      <trkpt lat="48.20308" lon="3.24318">
        <ele>167</ele>
        <time>2014-09-07T08:05:10.000Z</time>
      </trkpt>
      <trkpt lat="48.20307" lon="3.24313">
        <ele>167</ele>
        <time>2014-09-07T08:05:11.000Z</time>
      </trkpt>
      <trkpt lat="48.20306" lon="3.24309">
        <ele>167</ele>
        <time>2014-09-07T08:05:12.000Z</time>
      </trkpt>
      <trkpt lat="48.20304" lon="3.24305">
        <ele>166</ele>
        <time>2014-09-07T08:05:13.000Z</time>
      </trkpt>
      <trkpt lat="48.20303" lon="3.24301">
        <ele>166</ele>
        <time>2014-09-07T08:05:14.000Z</time>
      </trkpt>
      <trkpt lat="48.20301" lon="3.24296">
        <ele>166</ele>
        <time>2014-09-07T08:05:15.000Z</time>
      </trkpt>
      <trkpt lat="48.203" lon="3.24292">
        <ele>166</ele>
        <time>2014-09-07T08:05:16.000Z</time>
      </trkpt>
      <trkpt lat="48.20298" lon="3.24288">
        <ele>166</ele>
        <time>2014-09-07T08:05:17.000Z</time>
      </trkpt>
      <trkpt lat="48.20295" lon="3.24283">
        <ele>166</ele>
        <time>2014-09-07T08:05:18.000Z</time>
      </trkpt>
      <trkpt lat="48.20293" lon="3.24277">
        <ele>166</ele>
        <time>2014-09-07T08:05:19.000Z</time>
      </trkpt>
      <trkpt lat="48.20291" lon="3.24273">
        <ele>166</ele>
        <time>2014-09-07T08:05:20.000Z</time>
      </trkpt>
      <trkpt lat="48.20289" lon="3.24268">
        <ele>166</ele>
        <time>2014-09-07T08:05:21.000Z</time>
      </trkpt>
      <trkpt lat="48.20287" lon="3.24262">
        <ele>166</ele>
        <time>2014-09-07T08:05:22.000Z</time>
      </trkpt>
      <trkpt lat="48.20285" lon="3.24258">
        <ele>166</ele>
        <time>2014-09-07T08:05:23.000Z</time>
      </trkpt>
      <trkpt lat="48.20283" lon="3.24253">
        <ele>166</ele>
        <time>2014-09-07T08:05:24.000Z</time>
      </trkpt>
      <trkpt lat="48.20279" lon="3.24249">
        <ele>166</ele>
        <time>2014-09-07T08:05:25.000Z</time>
      </trkpt>
      <trkpt lat="48.20275" lon="3.24243">
        <ele>166</ele>
        <time>2014-09-07T08:05:26.000Z</time>
      </trkpt>
      <trkpt lat="48.20271" lon="3.24238">
        <ele>166</ele>
        <time>2014-09-07T08:05:27.000Z</time>
      </trkpt>
      <trkpt lat="48.20266" lon="3.24234">
        <ele>166</ele>
        <time>2014-09-07T08:05:28.000Z</time>
      </trkpt>
      <trkpt lat="48.20262" lon="3.2423">
        <ele>166</ele>
        <time>2014-09-07T08:05:29.000Z</time>
      </trkpt>
      <trkpt lat="48.20258" lon="3.24225">
        <ele>166</ele>
        <time>2014-09-07T08:05:30.000Z</time>
      </trkpt>
      <trkpt lat="48.20254" lon="3.24221">
        <ele>166</ele>
        <time>2014-09-07T08:05:31.000Z</time>
      </trkpt>
      <trkpt lat="48.20249" lon="3.24215">
        <ele>164</ele>
        <time>2014-09-07T08:05:32.000Z</time>
      </trkpt>
      <trkpt lat="48.20246" lon="3.2421">
        <ele>164</ele>
        <time>2014-09-07T08:05:33.000Z</time>
      </trkpt>
      <trkpt lat="48.20243" lon="3.24206">
        <ele>164</ele>
        <time>2014-09-07T08:05:34.000Z</time>
      </trkpt>
      <trkpt lat="48.2024" lon="3.24202">
        <ele>164</ele>
        <time>2014-09-07T08:05:35.000Z</time>
      </trkpt>
      <trkpt lat="48.20238" lon="3.24198">
        <ele>164</ele>
        <time>2014-09-07T08:05:36.000Z</time>
      </trkpt>
      <trkpt lat="48.20234" lon="3.24193">
        <ele>164</ele>
        <time>2014-09-07T08:05:37.000Z</time>
      </trkpt>
      <trkpt lat="48.20232" lon="3.24189">
        <ele>164</ele>
        <time>2014-09-07T08:05:38.000Z</time>
      </trkpt>
      <trkpt lat="48.2023" lon="3.24185">
        <ele>164</ele>
        <time>2014-09-07T08:05:39.000Z</time>
      </trkpt>
      <trkpt lat="48.20228" lon="3.2418">
        <ele>164</ele>
        <time>2014-09-07T08:05:40.000Z</time>
      </trkpt>
      <trkpt lat="48.20227" lon="3.24176">
        <ele>164</ele>
        <time>2014-09-07T08:05:41.000Z</time>
      </trkpt>
      <trkpt lat="48.20225" lon="3.2417">
        <ele>164</ele>
        <time>2014-09-07T08:05:42.000Z</time>
      </trkpt>
      <trkpt lat="48.20222" lon="3.24165">
        <ele>164</ele>
        <time>2014-09-07T08:05:43.000Z</time>
      </trkpt>
      <trkpt lat="48.20221" lon="3.24161">
        <ele>164</ele>
        <time>2014-09-07T08:05:44.000Z</time>
      </trkpt>
      <trkpt lat="48.20219" lon="3.24157">
        <ele>164</ele>
        <time>2014-09-07T08:05:45.000Z</time>
      </trkpt>
      <trkpt lat="48.20217" lon="3.24152">
        <ele>164</ele>
        <time>2014-09-07T08:05:46.000Z</time>
      </trkpt>
      <trkpt lat="48.20215" lon="3.24148">
        <ele>164</ele>
        <time>2014-09-07T08:05:47.000Z</time>
      </trkpt>
      <trkpt lat="48.20213" lon="3.24142">
        <ele>164</ele>
        <time>2014-09-07T08:05:48.000Z</time>
      </trkpt>
      <trkpt lat="48.20211" lon="3.24137">
        <ele>164</ele>
        <time>2014-09-07T08:05:49.000Z</time>
      </trkpt>
      <trkpt lat="48.20207" lon="3.24133">
        <ele>164</ele>
        <time>2014-09-07T08:05:50.000Z</time>
      </trkpt>
      <trkpt lat="48.20205" lon="3.24129">
        <ele>164</ele>
        <time>2014-09-07T08:05:51.000Z</time>
      </trkpt>
      <trkpt lat="48.20203" lon="3.24122">
        <ele>164</ele>
        <time>2014-09-07T08:05:52.000Z</time>
      </trkpt>
      <trkpt lat="48.20201" lon="3.24118">
        <ele>164</ele>
        <time>2014-09-07T08:05:53.000Z</time>
      </trkpt>
      <trkpt lat="48.20199" lon="3.24114">
        <ele>164</ele>
        <time>2014-09-07T08:05:54.000Z</time>
      </trkpt>
      <trkpt lat="48.20198" lon="3.2411">
        <ele>164</ele>
        <time>2014-09-07T08:05:55.000Z</time>
      </trkpt>
      <trkpt lat="48.20196" lon="3.24105">
        <ele>163</ele>
        <time>2014-09-07T08:05:56.000Z</time>
      </trkpt>
      <trkpt lat="48.20194" lon="3.24101">
        <ele>163</ele>
        <time>2014-09-07T08:05:57.000Z</time>
      </trkpt>
      <trkpt lat="48.20191" lon="3.24097">
        <ele>163</ele>
        <time>2014-09-07T08:05:58.000Z</time>
      </trkpt>
      <trkpt lat="48.2019" lon="3.24092">
        <ele>163</ele>
        <time>2014-09-07T08:05:59.000Z</time>
      </trkpt>
      <trkpt lat="48.20188" lon="3.24086">
        <ele>163</ele>
        <time>2014-09-07T08:06:00.000Z</time>
      </trkpt>
      <trkpt lat="48.20186" lon="3.24082">
        <ele>164</ele>
        <time>2014-09-07T08:06:01.000Z</time>
      </trkpt>
      <trkpt lat="48.20184" lon="3.24077">
        <ele>164</ele>
        <time>2014-09-07T08:06:02.000Z</time>
      </trkpt>
      <trkpt lat="48.20182" lon="3.24073">
        <ele>164</ele>
        <time>2014-09-07T08:06:03.000Z</time>
      </trkpt>
      <trkpt lat="48.20181" lon="3.24069">
        <ele>164</ele>
        <time>2014-09-07T08:06:04.000Z</time>
      </trkpt>
      <trkpt lat="48.20179" lon="3.24062">
        <ele>164</ele>
        <time>2014-09-07T08:06:05.000Z</time>
      </trkpt>
      <trkpt lat="48.20176" lon="3.24056">
        <ele>164</ele>
        <time>2014-09-07T08:06:06.000Z</time>
      </trkpt>
      <trkpt lat="48.20174" lon="3.24049">
        <ele>164</ele>
        <time>2014-09-07T08:06:07.000Z</time>
      </trkpt>
      <trkpt lat="48.20173" lon="3.24045">
        <ele>165</ele>
        <time>2014-09-07T08:06:08.000Z</time>
      </trkpt>
      <trkpt lat="48.20171" lon="3.24039">
        <ele>165</ele>
        <time>2014-09-07T08:06:09.000Z</time>
      </trkpt>
      <trkpt lat="48.20169" lon="3.24034">
        <ele>165</ele>
        <time>2014-09-07T08:06:10.000Z</time>
      </trkpt>
      <trkpt lat="48.20167" lon="3.24028">
        <ele>165</ele>
        <time>2014-09-07T08:06:11.000Z</time>
      </trkpt>
      <trkpt lat="48.20165" lon="3.24022">
        <ele>162</ele>
        <time>2014-09-07T08:06:12.000Z</time>
      </trkpt>
      <trkpt lat="48.20163" lon="3.24017">
        <ele>162</ele>
        <time>2014-09-07T08:06:13.000Z</time>
      </trkpt>
      <trkpt lat="48.20161" lon="3.24011">
        <ele>163</ele>
        <time>2014-09-07T08:06:14.000Z</time>
      </trkpt>
      <trkpt lat="48.20159" lon="3.24007">
        <ele>163</ele>
        <time>2014-09-07T08:06:15.000Z</time>
      </trkpt>
      <trkpt lat="48.20158" lon="3.24">
        <ele>163</ele>
        <time>2014-09-07T08:06:16.000Z</time>
      </trkpt>
      <trkpt lat="48.20156" lon="3.23994">
        <ele>164</ele>
        <time>2014-09-07T08:06:17.000Z</time>
      </trkpt>
      <trkpt lat="48.20155" lon="3.23989">
        <ele>164</ele>
        <time>2014-09-07T08:06:18.000Z</time>
      </trkpt>
      <trkpt lat="48.20153" lon="3.23983">
        <ele>164</ele>
        <time>2014-09-07T08:06:19.000Z</time>
      </trkpt>
      <trkpt lat="48.20151" lon="3.23979">
        <ele>164</ele>
        <time>2014-09-07T08:06:20.000Z</time>
      </trkpt>
      <trkpt lat="48.2015" lon="3.23974">
        <ele>164</ele>
        <time>2014-09-07T08:06:21.000Z</time>
      </trkpt>
      <trkpt lat="48.20147" lon="3.23968">
        <ele>164</ele>
        <time>2014-09-07T08:06:22.000Z</time>
      </trkpt>
      <trkpt lat="48.20146" lon="3.23964">
        <ele>164</ele>
        <time>2014-09-07T08:06:23.000Z</time>
      </trkpt>
      <trkpt lat="48.20144" lon="3.23959">
        <ele>164</ele>
        <time>2014-09-07T08:06:24.000Z</time>
      </trkpt>
      <trkpt lat="48.20143" lon="3.23955">
        <ele>165</ele>
        <time>2014-09-07T08:06:25.000Z</time>
      </trkpt>
      <trkpt lat="48.20142" lon="3.23949">
        <ele>165</ele>
        <time>2014-09-07T08:06:26.000Z</time>
      </trkpt>
      <trkpt lat="48.20141" lon="3.23944">
        <ele>165</ele>
        <time>2014-09-07T08:06:27.000Z</time>
      </trkpt>
      <trkpt lat="48.2014" lon="3.23938">
        <ele>165</ele>
        <time>2014-09-07T08:06:28.000Z</time>
      </trkpt>
      <trkpt lat="48.20139" lon="3.23934">
        <ele>165</ele>
        <time>2014-09-07T08:06:29.000Z</time>
      </trkpt>
      <trkpt lat="48.20138" lon="3.23927">
        <ele>165</ele>
        <time>2014-09-07T08:06:30.000Z</time>
      </trkpt>
      <trkpt lat="48.20138" lon="3.23923">
        <ele>165</ele>
        <time>2014-09-07T08:06:31.000Z</time>
      </trkpt>
      <trkpt lat="48.20137" lon="3.23916">
        <ele>167</ele>
        <time>2014-09-07T08:06:32.000Z</time>
      </trkpt>
      <trkpt lat="48.20136" lon="3.23912">
        <ele>167</ele>
        <time>2014-09-07T08:06:33.000Z</time>
      </trkpt>
      <trkpt lat="48.20135" lon="3.23906">
        <ele>167</ele>
        <time>2014-09-07T08:06:34.000Z</time>
      </trkpt>
      <trkpt lat="48.20133" lon="3.23901">
        <ele>167</ele>
        <time>2014-09-07T08:06:35.000Z</time>
      </trkpt>
      <trkpt lat="48.20133" lon="3.23895">
        <ele>167</ele>
        <time>2014-09-07T08:06:36.000Z</time>
      </trkpt>
      <trkpt lat="48.20132" lon="3.23891">
        <ele>167</ele>
        <time>2014-09-07T08:06:37.000Z</time>
      </trkpt>
      <trkpt lat="48.20131" lon="3.23884">
        <ele>167</ele>
        <time>2014-09-07T08:06:38.000Z</time>
      </trkpt>
      <trkpt lat="48.2013" lon="3.23878">
        <ele>168</ele>
        <time>2014-09-07T08:06:39.000Z</time>
      </trkpt>
      <trkpt lat="48.20129" lon="3.23874">
        <ele>168</ele>
        <time>2014-09-07T08:06:40.000Z</time>
      </trkpt>
      <trkpt lat="48.20128" lon="3.23867">
        <ele>168</ele>
        <time>2014-09-07T08:06:41.000Z</time>
      </trkpt>
      <trkpt lat="48.20126" lon="3.23863">
        <ele>168</ele>
        <time>2014-09-07T08:06:42.000Z</time>
      </trkpt>
      <trkpt lat="48.20125" lon="3.23858">
        <ele>168</ele>
        <time>2014-09-07T08:06:43.000Z</time>
      </trkpt>
      <trkpt lat="48.20124" lon="3.23854">
        <ele>168</ele>
        <time>2014-09-07T08:06:44.000Z</time>
      </trkpt>
      <trkpt lat="48.20123" lon="3.2385">
        <ele>168</ele>
        <time>2014-09-07T08:06:45.000Z</time>
      </trkpt>
      <trkpt lat="48.20122" lon="3.23848">
        <ele>168</ele>
        <time>2014-09-07T08:06:46.000Z</time>
      </trkpt>
      <trkpt lat="48.20121" lon="3.23843">
        <ele>168</ele>
        <time>2014-09-07T08:06:48.000Z</time>
      </trkpt>
      <trkpt lat="48.2012" lon="3.23841">
        <ele>168</ele>
        <time>2014-09-07T08:06:49.000Z</time>
      </trkpt>
      <trkpt lat="48.20116" lon="3.23837">
        <ele>168</ele>
        <time>2014-09-07T08:06:50.000Z</time>
      </trkpt>
      <trkpt lat="48.20113" lon="3.23835">
        <ele>168</ele>
        <time>2014-09-07T08:06:51.000Z</time>
      </trkpt>
      <trkpt lat="48.20111" lon="3.23833">
        <ele>167</ele>
        <time>2014-09-07T08:06:52.000Z</time>
      </trkpt>
      <trkpt lat="48.20108" lon="3.23831">
        <ele>167</ele>
        <time>2014-09-07T08:06:53.000Z</time>
      </trkpt>
      <trkpt lat="48.20104" lon="3.23828">
        <ele>167</ele>
        <time>2014-09-07T08:06:55.000Z</time>
      </trkpt>
      <trkpt lat="48.20103" lon="3.23826">
        <ele>167</ele>
        <time>2014-09-07T08:06:56.000Z</time>
      </trkpt>
      <trkpt lat="48.20101" lon="3.23824">
        <ele>167</ele>
        <time>2014-09-07T08:06:57.000Z</time>
      </trkpt>
      <trkpt lat="48.20099" lon="3.23822">
        <ele>167</ele>
        <time>2014-09-07T08:06:58.000Z</time>
      </trkpt>
      <trkpt lat="48.20096" lon="3.2382">
        <ele>167</ele>
        <time>2014-09-07T08:07:00.000Z</time>
      </trkpt>
      <trkpt lat="48.20095" lon="3.23818">
        <ele>167</ele>
        <time>2014-09-07T08:07:01.000Z</time>
      </trkpt>
      <trkpt lat="48.20091" lon="3.23816">
        <ele>167</ele>
        <time>2014-09-07T08:07:05.000Z</time>
      </trkpt>
      <trkpt lat="48.20088" lon="3.23816">
        <ele>167</ele>
        <time>2014-09-07T08:07:06.000Z</time>
      </trkpt>
      <trkpt lat="48.20084" lon="3.23816">
        <ele>167</ele>
        <time>2014-09-07T08:07:08.000Z</time>
      </trkpt>
      <trkpt lat="48.20082" lon="3.23818">
        <ele>166</ele>
        <time>2014-09-07T08:07:09.000Z</time>
      </trkpt>
      <trkpt lat="48.20079" lon="3.23818">
        <ele>166</ele>
        <time>2014-09-07T08:07:10.000Z</time>
      </trkpt>
      <trkpt lat="48.20077" lon="3.2382">
        <ele>166</ele>
        <time>2014-09-07T08:07:11.000Z</time>
      </trkpt>
      <trkpt lat="48.20072" lon="3.23822">
        <ele>166</ele>
        <time>2014-09-07T08:07:13.000Z</time>
      </trkpt>
      <trkpt lat="48.20069" lon="3.23824">
        <ele>166</ele>
        <time>2014-09-07T08:07:14.000Z</time>
      </trkpt>
      <trkpt lat="48.20067" lon="3.23826">
        <ele>166</ele>
        <time>2014-09-07T08:07:15.000Z</time>
      </trkpt>
      <trkpt lat="48.20065" lon="3.23828">
        <ele>166</ele>
        <time>2014-09-07T08:07:16.000Z</time>
      </trkpt>
      <trkpt lat="48.20064" lon="3.23833">
        <ele>166</ele>
        <time>2014-09-07T08:07:17.000Z</time>
      </trkpt>
      <trkpt lat="48.20062" lon="3.23835">
        <ele>166</ele>
        <time>2014-09-07T08:07:18.000Z</time>
      </trkpt>
      <trkpt lat="48.20059" lon="3.23837">
        <ele>166</ele>
        <time>2014-09-07T08:07:19.000Z</time>
      </trkpt>
      <trkpt lat="48.20057" lon="3.23839">
        <ele>166</ele>
        <time>2014-09-07T08:07:20.000Z</time>
      </trkpt>
      <trkpt lat="48.20056" lon="3.23841">
        <ele>166</ele>
        <time>2014-09-07T08:07:21.000Z</time>
      </trkpt>
      <trkpt lat="48.20055" lon="3.23846">
        <ele>165</ele>
        <time>2014-09-07T08:07:22.000Z</time>
      </trkpt>
      <trkpt lat="48.20053" lon="3.23848">
        <ele>165</ele>
        <time>2014-09-07T08:07:23.000Z</time>
      </trkpt>
      <trkpt lat="48.20052" lon="3.23852">
        <ele>165</ele>
        <time>2014-09-07T08:07:24.000Z</time>
      </trkpt>
      <trkpt lat="48.2005" lon="3.23854">
        <ele>165</ele>
        <time>2014-09-07T08:07:25.000Z</time>
      </trkpt>
      <trkpt lat="48.20049" lon="3.23858">
        <ele>165</ele>
        <time>2014-09-07T08:07:26.000Z</time>
      </trkpt>
      <trkpt lat="48.20048" lon="3.23861">
        <ele>165</ele>
        <time>2014-09-07T08:07:27.000Z</time>
      </trkpt>
      <trkpt lat="48.20045" lon="3.23865">
        <ele>165</ele>
        <time>2014-09-07T08:07:28.000Z</time>
      </trkpt>
      <trkpt lat="48.20042" lon="3.23869">
        <ele>165</ele>
        <time>2014-09-07T08:07:30.000Z</time>
      </trkpt>
      <trkpt lat="48.20041" lon="3.23871">
        <ele>165</ele>
        <time>2014-09-07T08:07:31.000Z</time>
      </trkpt>
      <trkpt lat="48.20037" lon="3.23874">
        <ele>164</ele>
        <time>2014-09-07T08:07:33.000Z</time>
      </trkpt>
      <trkpt lat="48.20036" lon="3.23874">
        <ele>164</ele>
        <time>2014-09-07T08:07:34.000Z</time>
      </trkpt>
      <trkpt lat="48.20033" lon="3.23874">
        <ele>164</ele>
        <time>2014-09-07T08:07:36.000Z</time>
      </trkpt>
      <trkpt lat="48.2003" lon="3.23874">
        <ele>164</ele>
        <time>2014-09-07T08:07:37.000Z</time>
      </trkpt>
      <trkpt lat="48.20026" lon="3.23874">
        <ele>164</ele>
        <time>2014-09-07T08:07:40.000Z</time>
      </trkpt>
      <trkpt lat="48.20025" lon="3.23871">
        <ele>164</ele>
        <time>2014-09-07T08:07:41.000Z</time>
      </trkpt>
      <trkpt lat="48.20021" lon="3.23869">
        <ele>164</ele>
        <time>2014-09-07T08:07:43.000Z</time>
      </trkpt>
      <trkpt lat="48.20019" lon="3.23869">
        <ele>164</ele>
        <time>2014-09-07T08:07:44.000Z</time>
      </trkpt>
      <trkpt lat="48.20015" lon="3.23867">
        <ele>164</ele>
        <time>2014-09-07T08:07:45.000Z</time>
      </trkpt>
      <trkpt lat="48.20013" lon="3.23867">
        <ele>164</ele>
        <time>2014-09-07T08:07:46.000Z</time>
      </trkpt>
      <trkpt lat="48.2001" lon="3.23867">
        <ele>164</ele>
        <time>2014-09-07T08:07:47.000Z</time>
      </trkpt>
      <trkpt lat="48.20007" lon="3.23867">
        <ele>164</ele>
        <time>2014-09-07T08:07:48.000Z</time>
      </trkpt>
      <trkpt lat="48.20003" lon="3.23865">
        <ele>164</ele>
        <time>2014-09-07T08:07:50.000Z</time>
      </trkpt>
      <trkpt lat="48.19999" lon="3.23865">
        <ele>159</ele>
        <time>2014-09-07T08:07:51.000Z</time>
      </trkpt>
      <trkpt lat="48.19997" lon="3.23865">
        <ele>159</ele>
        <time>2014-09-07T08:07:52.000Z</time>
      </trkpt>
      <trkpt lat="48.19994" lon="3.23863">
        <ele>159</ele>
        <time>2014-09-07T08:07:53.000Z</time>
      </trkpt>
      <trkpt lat="48.19991" lon="3.23863">
        <ele>158</ele>
        <time>2014-09-07T08:07:54.000Z</time>
      </trkpt>
      <trkpt lat="48.19988" lon="3.23861">
        <ele>158</ele>
        <time>2014-09-07T08:07:55.000Z</time>
      </trkpt>
      <trkpt lat="48.19985" lon="3.23861">
        <ele>158</ele>
        <time>2014-09-07T08:07:56.000Z</time>
      </trkpt>
      <trkpt lat="48.19982" lon="3.23861">
        <ele>158</ele>
        <time>2014-09-07T08:07:57.000Z</time>
      </trkpt>
      <trkpt lat="48.19979" lon="3.23861">
        <ele>158</ele>
        <time>2014-09-07T08:07:58.000Z</time>
      </trkpt>
      <trkpt lat="48.19976" lon="3.23861">
        <ele>158</ele>
        <time>2014-09-07T08:07:59.000Z</time>
      </trkpt>
      <trkpt lat="48.19973" lon="3.23861">
        <ele>157</ele>
        <time>2014-09-07T08:08:00.000Z</time>
      </trkpt>
      <trkpt lat="48.1997" lon="3.23858">
        <ele>157</ele>
        <time>2014-09-07T08:08:01.000Z</time>
      </trkpt>
      <trkpt lat="48.19967" lon="3.23858">
        <ele>157</ele>
        <time>2014-09-07T08:08:02.000Z</time>
      </trkpt>
      <trkpt lat="48.19965" lon="3.23858">
        <ele>157</ele>
        <time>2014-09-07T08:08:03.000Z</time>
      </trkpt>
      <trkpt lat="48.19962" lon="3.23856">
        <ele>156</ele>
        <time>2014-09-07T08:08:04.000Z</time>
      </trkpt>
      <trkpt lat="48.1996" lon="3.23854">
        <ele>156</ele>
        <time>2014-09-07T08:08:05.000Z</time>
      </trkpt>
      <trkpt lat="48.19957" lon="3.2385">
        <ele>156</ele>
        <time>2014-09-07T08:08:06.000Z</time>
      </trkpt>
      <trkpt lat="48.19955" lon="3.23846">
        <ele>156</ele>
        <time>2014-09-07T08:08:07.000Z</time>
      </trkpt>
      <trkpt lat="48.19953" lon="3.23843">
        <ele>156</ele>
        <time>2014-09-07T08:08:08.000Z</time>
      </trkpt>
      <trkpt lat="48.19951" lon="3.23837">
        <ele>155</ele>
        <time>2014-09-07T08:08:09.000Z</time>
      </trkpt>
      <trkpt lat="48.19949" lon="3.23833">
        <ele>155</ele>
        <time>2014-09-07T08:08:10.000Z</time>
      </trkpt>
      <trkpt lat="48.19947" lon="3.23828">
        <ele>155</ele>
        <time>2014-09-07T08:08:11.000Z</time>
      </trkpt>
      <trkpt lat="48.19947" lon="3.23822">
        <ele>155</ele>
        <time>2014-09-07T08:08:12.000Z</time>
      </trkpt>
      <trkpt lat="48.19945" lon="3.23818">
        <ele>155</ele>
        <time>2014-09-07T08:08:13.000Z</time>
      </trkpt>
      <trkpt lat="48.19944" lon="3.23813">
        <ele>155</ele>
        <time>2014-09-07T08:08:14.000Z</time>
      </trkpt>
      <trkpt lat="48.19944" lon="3.23809">
        <ele>155</ele>
        <time>2014-09-07T08:08:15.000Z</time>
      </trkpt>
      <trkpt lat="48.19942" lon="3.23803">
        <ele>155</ele>
        <time>2014-09-07T08:08:17.000Z</time>
      </trkpt>
      <trkpt lat="48.19942" lon="3.23801">
        <ele>155</ele>
        <time>2014-09-07T08:08:18.000Z</time>
      </trkpt>
      <trkpt lat="48.19941" lon="3.23794">
        <ele>155</ele>
        <time>2014-09-07T08:08:20.000Z</time>
      </trkpt>
      <trkpt lat="48.1994" lon="3.23792">
        <ele>155</ele>
        <time>2014-09-07T08:08:21.000Z</time>
      </trkpt>
      <trkpt lat="48.1994" lon="3.23788">
        <ele>155</ele>
        <time>2014-09-07T08:08:27.000Z</time>
      </trkpt>
      <trkpt lat="48.1995" lon="3.23781">
        <ele>155</ele>
        <time>2014-09-07T08:08:28.000Z</time>
      </trkpt>
      <trkpt lat="48.1995" lon="3.23781">
        <ele>155</ele>
        <time>2014-09-07T08:08:33.000Z</time>
      </trkpt>
      <trkpt lat="48.19957" lon="3.23771">
        <ele>156</ele>
        <time>2014-09-07T08:08:34.000Z</time>
      </trkpt>
      <trkpt lat="48.19957" lon="3.23771">
        <ele>156</ele>
        <time>2014-09-07T08:08:38.000Z</time>
      </trkpt>
      <trkpt lat="48.19964" lon="3.23758">
        <ele>156</ele>
        <time>2014-09-07T08:08:39.000Z</time>
      </trkpt>
      <trkpt lat="48.19964" lon="3.23758">
        <ele>156</ele>
        <time>2014-09-07T08:08:42.000Z</time>
      </trkpt>
      <trkpt lat="48.19969" lon="3.23745">
        <ele>157</ele>
        <time>2014-09-07T08:08:43.000Z</time>
      </trkpt>
      <trkpt lat="48.19969" lon="3.23745">
        <ele>157</ele>
        <time>2014-09-07T08:08:46.000Z</time>
      </trkpt>
      <trkpt lat="48.19973" lon="3.23732">
        <ele>158</ele>
        <time>2014-09-07T08:08:47.000Z</time>
      </trkpt>
      <trkpt lat="48.19973" lon="3.23732">
        <ele>158</ele>
        <time>2014-09-07T08:08:50.000Z</time>
      </trkpt>
      <trkpt lat="48.19977" lon="3.23719">
        <ele>158</ele>
        <time>2014-09-07T08:08:51.000Z</time>
      </trkpt>
      <trkpt lat="48.19977" lon="3.23719">
        <ele>158</ele>
        <time>2014-09-07T08:08:55.000Z</time>
      </trkpt>
      <trkpt lat="48.19982" lon="3.23704">
        <ele>158</ele>
        <time>2014-09-07T08:08:56.000Z</time>
      </trkpt>
      <trkpt lat="48.19982" lon="3.23704">
        <ele>158</ele>
        <time>2014-09-07T08:09:00.000Z</time>
      </trkpt>
      <trkpt lat="48.19984" lon="3.23691">
        <ele>159</ele>
        <time>2014-09-07T08:09:01.000Z</time>
      </trkpt>
      <trkpt lat="48.19984" lon="3.23691">
        <ele>159</ele>
        <time>2014-09-07T08:09:05.000Z</time>
      </trkpt>
      <trkpt lat="48.19984" lon="3.23678">
        <ele>160</ele>
        <time>2014-09-07T08:09:06.000Z</time>
      </trkpt>
      <trkpt lat="48.19984" lon="3.23678">
        <ele>160</ele>
        <time>2014-09-07T08:09:10.000Z</time>
      </trkpt>
      <trkpt lat="48.19988" lon="3.23661">
        <ele>162</ele>
        <time>2014-09-07T08:09:11.000Z</time>
      </trkpt>
      <trkpt lat="48.19988" lon="3.23661">
        <ele>162</ele>
        <time>2014-09-07T08:09:15.000Z</time>
      </trkpt>
      <trkpt lat="48.1999" lon="3.23646">
        <ele>161</ele>
        <time>2014-09-07T08:09:16.000Z</time>
      </trkpt>
      <trkpt lat="48.1999" lon="3.23646">
        <ele>161</ele>
        <time>2014-09-07T08:09:19.000Z</time>
      </trkpt>
      <trkpt lat="48.19992" lon="3.23633">
        <ele>161</ele>
        <time>2014-09-07T08:09:20.000Z</time>
      </trkpt>
      <trkpt lat="48.19992" lon="3.23633">
        <ele>161</ele>
        <time>2014-09-07T08:09:23.000Z</time>
      </trkpt>
      <trkpt lat="48.19994" lon="3.23618">
        <ele>162</ele>
        <time>2014-09-07T08:09:24.000Z</time>
      </trkpt>
      <trkpt lat="48.19994" lon="3.23618">
        <ele>162</ele>
        <time>2014-09-07T08:09:27.000Z</time>
      </trkpt>
      <trkpt lat="48.19993" lon="3.23601">
        <ele>163</ele>
        <time>2014-09-07T08:09:28.000Z</time>
      </trkpt>
      <trkpt lat="48.19993" lon="3.23601">
        <ele>163</ele>
        <time>2014-09-07T08:09:31.000Z</time>
      </trkpt>
      <trkpt lat="48.19991" lon="3.23586">
        <ele>164</ele>
        <time>2014-09-07T08:09:32.000Z</time>
      </trkpt>
      <trkpt lat="48.19991" lon="3.23586">
        <ele>164</ele>
        <time>2014-09-07T08:09:33.000Z</time>
      </trkpt>
      <trkpt lat="48.19989" lon="3.23575">
        <ele>164</ele>
        <time>2014-09-07T08:09:34.000Z</time>
      </trkpt>
      <trkpt lat="48.19988" lon="3.23569">
        <ele>164</ele>
        <time>2014-09-07T08:09:35.000Z</time>
      </trkpt>
      <trkpt lat="48.19985" lon="3.23562">
        <ele>163</ele>
        <time>2014-09-07T08:09:36.000Z</time>
      </trkpt>
      <trkpt lat="48.19984" lon="3.23558">
        <ele>163</ele>
        <time>2014-09-07T08:09:37.000Z</time>
      </trkpt>
      <trkpt lat="48.19983" lon="3.23554">
        <ele>163</ele>
        <time>2014-09-07T08:09:38.000Z</time>
      </trkpt>
      <trkpt lat="48.19982" lon="3.2355">
        <ele>163</ele>
        <time>2014-09-07T08:09:39.000Z</time>
      </trkpt>
      <trkpt lat="48.19981" lon="3.23545">
        <ele>163</ele>
        <time>2014-09-07T08:09:40.000Z</time>
      </trkpt>
      <trkpt lat="48.19981" lon="3.23545">
        <ele>163</ele>
        <time>2014-09-07T08:09:43.000Z</time>
      </trkpt>
      <trkpt lat="48.19975" lon="3.23532">
        <ele>163</ele>
        <time>2014-09-07T08:09:44.000Z</time>
      </trkpt>
      <trkpt lat="48.19975" lon="3.23532">
        <ele>163</ele>
        <time>2014-09-07T08:09:47.000Z</time>
      </trkpt>
      <trkpt lat="48.19973" lon="3.23517">
        <ele>163</ele>
        <time>2014-09-07T08:09:48.000Z</time>
      </trkpt>
      <trkpt lat="48.19973" lon="3.23517">
        <ele>163</ele>
        <time>2014-09-07T08:09:51.000Z</time>
      </trkpt>
      <trkpt lat="48.19971" lon="3.235">
        <ele>163</ele>
        <time>2014-09-07T08:09:52.000Z</time>
      </trkpt>
      <trkpt lat="48.19971" lon="3.23496">
        <ele>163</ele>
        <time>2014-09-07T08:09:53.000Z</time>
      </trkpt>
      <trkpt lat="48.19971" lon="3.23492">
        <ele>163</ele>
        <time>2014-09-07T08:09:54.000Z</time>
      </trkpt>
      <trkpt lat="48.1997" lon="3.23487">
        <ele>163</ele>
        <time>2014-09-07T08:09:55.000Z</time>
      </trkpt>
      <trkpt lat="48.1997" lon="3.23481">
        <ele>163</ele>
        <time>2014-09-07T08:09:56.000Z</time>
      </trkpt>
      <trkpt lat="48.19969" lon="3.23474">
        <ele>163</ele>
        <time>2014-09-07T08:09:57.000Z</time>
      </trkpt>
      <trkpt lat="48.19969" lon="3.23468">
        <ele>163</ele>
        <time>2014-09-07T08:09:58.000Z</time>
      </trkpt>
      <trkpt lat="48.19968" lon="3.23462">
        <ele>163</ele>
        <time>2014-09-07T08:09:59.000Z</time>
      </trkpt>
      <trkpt lat="48.19968" lon="3.23457">
        <ele>163</ele>
        <time>2014-09-07T08:10:00.000Z</time>
      </trkpt>
      <trkpt lat="48.19967" lon="3.23451">
        <ele>163</ele>
        <time>2014-09-07T08:10:01.000Z</time>
      </trkpt>
      <trkpt lat="48.19966" lon="3.23447">
        <ele>163</ele>
        <time>2014-09-07T08:10:02.000Z</time>
      </trkpt>
      <trkpt lat="48.19966" lon="3.2344">
        <ele>163</ele>
        <time>2014-09-07T08:10:03.000Z</time>
      </trkpt>
      <trkpt lat="48.19965" lon="3.23434">
        <ele>163</ele>
        <time>2014-09-07T08:10:04.000Z</time>
      </trkpt>
      <trkpt lat="48.19964" lon="3.23429">
        <ele>163</ele>
        <time>2014-09-07T08:10:05.000Z</time>
      </trkpt>
      <trkpt lat="48.19964" lon="3.23425">
        <ele>163</ele>
        <time>2014-09-07T08:10:06.000Z</time>
      </trkpt>
      <trkpt lat="48.19963" lon="3.23419">
        <ele>162</ele>
        <time>2014-09-07T08:10:07.000Z</time>
      </trkpt>
      <trkpt lat="48.19962" lon="3.23412">
        <ele>163</ele>
        <time>2014-09-07T08:10:08.000Z</time>
      </trkpt>
      <trkpt lat="48.1996" lon="3.23406">
        <ele>163</ele>
        <time>2014-09-07T08:10:09.000Z</time>
      </trkpt>
      <trkpt lat="48.19959" lon="3.23399">
        <ele>163</ele>
        <time>2014-09-07T08:10:10.000Z</time>
      </trkpt>
      <trkpt lat="48.19956" lon="3.23393">
        <ele>163</ele>
        <time>2014-09-07T08:10:11.000Z</time>
      </trkpt>
      <trkpt lat="48.19955" lon="3.23386">
        <ele>163</ele>
        <time>2014-09-07T08:10:12.000Z</time>
      </trkpt>
      <trkpt lat="48.19953" lon="3.23378">
        <ele>163</ele>
        <time>2014-09-07T08:10:13.000Z</time>
      </trkpt>
      <trkpt lat="48.1995" lon="3.23374">
        <ele>163</ele>
        <time>2014-09-07T08:10:14.000Z</time>
      </trkpt>
      <trkpt lat="48.19946" lon="3.23367">
        <ele>163</ele>
        <time>2014-09-07T08:10:15.000Z</time>
      </trkpt>
      <trkpt lat="48.19941" lon="3.23361">
        <ele>163</ele>
        <time>2014-09-07T08:10:16.000Z</time>
      </trkpt>
      <trkpt lat="48.19938" lon="3.23356">
        <ele>163</ele>
        <time>2014-09-07T08:10:17.000Z</time>
      </trkpt>
      <trkpt lat="48.19935" lon="3.2335">
        <ele>163</ele>
        <time>2014-09-07T08:10:18.000Z</time>
      </trkpt>
      <trkpt lat="48.19932" lon="3.23348">
        <ele>163</ele>
        <time>2014-09-07T08:10:21.000Z</time>
      </trkpt>
      <trkpt lat="48.19919" lon="3.23341">
        <ele>164</ele>
        <time>2014-09-07T08:10:22.000Z</time>
      </trkpt>
      <trkpt lat="48.19919" lon="3.23341">
        <ele>164</ele>
        <time>2014-09-07T08:10:25.000Z</time>
      </trkpt>
      <trkpt lat="48.19912" lon="3.23331">
        <ele>163</ele>
        <time>2014-09-07T08:10:26.000Z</time>
      </trkpt>
      <trkpt lat="48.19912" lon="3.23331">
        <ele>163</ele>
        <time>2014-09-07T08:10:29.000Z</time>
      </trkpt>
      <trkpt lat="48.19905" lon="3.2332">
        <ele>162</ele>
        <time>2014-09-07T08:10:30.000Z</time>
      </trkpt>
      <trkpt lat="48.19905" lon="3.2332">
        <ele>162</ele>
        <time>2014-09-07T08:10:32.000Z</time>
      </trkpt>
      <trkpt lat="48.19898" lon="3.23309">
        <ele>161</ele>
        <time>2014-09-07T08:10:33.000Z</time>
      </trkpt>
      <trkpt lat="48.19898" lon="3.23309">
        <ele>161</ele>
        <time>2014-09-07T08:10:37.000Z</time>
      </trkpt>
      <trkpt lat="48.19894" lon="3.23298">
        <ele>161</ele>
        <time>2014-09-07T08:10:38.000Z</time>
      </trkpt>
      <trkpt lat="48.19894" lon="3.23298">
        <ele>161</ele>
        <time>2014-09-07T08:10:41.000Z</time>
      </trkpt>
      <trkpt lat="48.19891" lon="3.23283">
        <ele>161</ele>
        <time>2014-09-07T08:10:42.000Z</time>
      </trkpt>
      <trkpt lat="48.19891" lon="3.23283">
        <ele>161</ele>
        <time>2014-09-07T08:10:44.000Z</time>
      </trkpt>
      <trkpt lat="48.19889" lon="3.23271">
        <ele>162</ele>
        <time>2014-09-07T08:10:45.000Z</time>
      </trkpt>
      <trkpt lat="48.19889" lon="3.23271">
        <ele>162</ele>
        <time>2014-09-07T08:10:46.000Z</time>
      </trkpt>
      <trkpt lat="48.19886" lon="3.2326">
        <ele>162</ele>
        <time>2014-09-07T08:10:47.000Z</time>
      </trkpt>
      <trkpt lat="48.19882" lon="3.23253">
        <ele>162</ele>
        <time>2014-09-07T08:10:48.000Z</time>
      </trkpt>
      <trkpt lat="48.19882" lon="3.23247">
        <ele>164</ele>
        <time>2014-09-07T08:10:49.000Z</time>
      </trkpt>
      <trkpt lat="48.19882" lon="3.23241">
        <ele>164</ele>
        <time>2014-09-07T08:10:50.000Z</time>
      </trkpt>
      <trkpt lat="48.1988" lon="3.23236">
        <ele>163</ele>
        <time>2014-09-07T08:10:51.000Z</time>
      </trkpt>
      <trkpt lat="48.19878" lon="3.2323">
        <ele>163</ele>
        <time>2014-09-07T08:10:52.000Z</time>
      </trkpt>
      <trkpt lat="48.19878" lon="3.23223">
        <ele>163</ele>
        <time>2014-09-07T08:10:53.000Z</time>
      </trkpt>
      <trkpt lat="48.19878" lon="3.23219">
        <ele>163</ele>
        <time>2014-09-07T08:10:54.000Z</time>
      </trkpt>
      <trkpt lat="48.19877" lon="3.23215">
        <ele>163</ele>
        <time>2014-09-07T08:10:55.000Z</time>
      </trkpt>
      <trkpt lat="48.19877" lon="3.2321">
        <ele>163</ele>
        <time>2014-09-07T08:10:56.000Z</time>
      </trkpt>
      <trkpt lat="48.19877" lon="3.23206">
        <ele>163</ele>
        <time>2014-09-07T08:10:57.000Z</time>
      </trkpt>
      <trkpt lat="48.19877" lon="3.23202">
        <ele>163</ele>
        <time>2014-09-07T08:10:58.000Z</time>
      </trkpt>
      <trkpt lat="48.19877" lon="3.23202">
        <ele>163</ele>
        <time>2014-09-07T08:11:01.000Z</time>
      </trkpt>
      <trkpt lat="48.19871" lon="3.23187">
        <ele>163</ele>
        <time>2014-09-07T08:11:02.000Z</time>
      </trkpt>
      <trkpt lat="48.19871" lon="3.23187">
        <ele>163</ele>
        <time>2014-09-07T08:11:07.000Z</time>
      </trkpt>
      <trkpt lat="48.19871" lon="3.23172">
        <ele>163</ele>
        <time>2014-09-07T08:11:08.000Z</time>
      </trkpt>
      <trkpt lat="48.19871" lon="3.23172">
        <ele>163</ele>
        <time>2014-09-07T08:11:11.000Z</time>
      </trkpt>
      <trkpt lat="48.19871" lon="3.23161">
        <ele>163</ele>
        <time>2014-09-07T08:11:12.000Z</time>
      </trkpt>
      <trkpt lat="48.1987" lon="3.23157">
        <ele>163</ele>
        <time>2014-09-07T08:11:13.000Z</time>
      </trkpt>
      <trkpt lat="48.19868" lon="3.23153">
        <ele>163</ele>
        <time>2014-09-07T08:11:14.000Z</time>
      </trkpt>
      <trkpt lat="48.19867" lon="3.23148">
        <ele>163</ele>
        <time>2014-09-07T08:11:15.000Z</time>
      </trkpt>
      <trkpt lat="48.19866" lon="3.23146">
        <ele>163</ele>
        <time>2014-09-07T08:11:16.000Z</time>
      </trkpt>
      <trkpt lat="48.19864" lon="3.23142">
        <ele>163</ele>
        <time>2014-09-07T08:11:17.000Z</time>
      </trkpt>
      <trkpt lat="48.19862" lon="3.2314">
        <ele>163</ele>
        <time>2014-09-07T08:11:18.000Z</time>
      </trkpt>
      <trkpt lat="48.1986" lon="3.23135">
        <ele>163</ele>
        <time>2014-09-07T08:11:20.000Z</time>
      </trkpt>
      <trkpt lat="48.19859" lon="3.23133">
        <ele>163</ele>
        <time>2014-09-07T08:11:21.000Z</time>
      </trkpt>
      <trkpt lat="48.19854" lon="3.23133">
        <ele>163</ele>
        <time>2014-09-07T08:11:23.000Z</time>
      </trkpt>
      <trkpt lat="48.1985" lon="3.23131">
        <ele>163</ele>
        <time>2014-09-07T08:11:24.000Z</time>
      </trkpt>
      <trkpt lat="48.19847" lon="3.23131">
        <ele>163</ele>
        <time>2014-09-07T08:11:25.000Z</time>
      </trkpt>
      <trkpt lat="48.19845" lon="3.23131">
        <ele>163</ele>
        <time>2014-09-07T08:11:26.000Z</time>
      </trkpt>
      <trkpt lat="48.19842" lon="3.23131">
        <ele>163</ele>
        <time>2014-09-07T08:11:27.000Z</time>
      </trkpt>
      <trkpt lat="48.19839" lon="3.23131">
        <ele>163</ele>
        <time>2014-09-07T08:11:28.000Z</time>
      </trkpt>
      <trkpt lat="48.19837" lon="3.23129">
        <ele>163</ele>
        <time>2014-09-07T08:11:29.000Z</time>
      </trkpt>
      <trkpt lat="48.19834" lon="3.23129">
        <ele>163</ele>
        <time>2014-09-07T08:11:30.000Z</time>
      </trkpt>
      <trkpt lat="48.1983" lon="3.23129">
        <ele>157</ele>
        <time>2014-09-07T08:11:32.000Z</time>
      </trkpt>
      <trkpt lat="48.19828" lon="3.23129">
        <ele>156</ele>
        <time>2014-09-07T08:11:33.000Z</time>
      </trkpt>
      <trkpt lat="48.19823" lon="3.23127">
        <ele>156</ele>
        <time>2014-09-07T08:11:36.000Z</time>
      </trkpt>
      <trkpt lat="48.19822" lon="3.23127">
        <ele>156</ele>
        <time>2014-09-07T08:11:37.000Z</time>
      </trkpt>
      <trkpt lat="48.19819" lon="3.23123">
        <ele>156</ele>
        <time>2014-09-07T08:11:42.000Z</time>
      </trkpt>
      <trkpt lat="48.19819" lon="3.2312">
        <ele>156</ele>
        <time>2014-09-07T08:11:43.000Z</time>
      </trkpt>
      <trkpt lat="48.19819" lon="3.23114">
        <ele>156</ele>
        <time>2014-09-07T08:11:48.000Z</time>
      </trkpt>
      <trkpt lat="48.1982" lon="3.23112">
        <ele>157</ele>
        <time>2014-09-07T08:11:49.000Z</time>
      </trkpt>
      <trkpt lat="48.1982" lon="3.23105">
        <ele>157</ele>
        <time>2014-09-07T08:11:53.000Z</time>
      </trkpt>
      <trkpt lat="48.19821" lon="3.23103">
        <ele>157</ele>
        <time>2014-09-07T08:11:54.000Z</time>
      </trkpt>
      <trkpt lat="48.19822" lon="3.23099">
        <ele>158</ele>
        <time>2014-09-07T08:11:57.000Z</time>
      </trkpt>
      <trkpt lat="48.19823" lon="3.23097">
        <ele>158</ele>
        <time>2014-09-07T08:11:58.000Z</time>
      </trkpt>
      <trkpt lat="48.19827" lon="3.23092">
        <ele>160</ele>
        <time>2014-09-07T08:12:01.000Z</time>
      </trkpt>
      <trkpt lat="48.19828" lon="3.23092">
        <ele>160</ele>
        <time>2014-09-07T08:12:02.000Z</time>
      </trkpt>
      <trkpt lat="48.19831" lon="3.23088">
        <ele>161</ele>
        <time>2014-09-07T08:12:04.000Z</time>
      </trkpt>
      <trkpt lat="48.19832" lon="3.23088">
        <ele>161</ele>
        <time>2014-09-07T08:12:05.000Z</time>
      </trkpt>
      <trkpt lat="48.19835" lon="3.23084">
        <ele>163</ele>
        <time>2014-09-07T08:12:08.000Z</time>
      </trkpt>
      <trkpt lat="48.19836" lon="3.23084">
        <ele>163</ele>
        <time>2014-09-07T08:12:09.000Z</time>
      </trkpt>
      <trkpt lat="48.19839" lon="3.2308">
        <ele>163</ele>
        <time>2014-09-07T08:12:11.000Z</time>
      </trkpt>
      <trkpt lat="48.19841" lon="3.23077">
        <ele>163</ele>
        <time>2014-09-07T08:12:12.000Z</time>
      </trkpt>
      <trkpt lat="48.19844" lon="3.23073">
        <ele>164</ele>
        <time>2014-09-07T08:12:15.000Z</time>
      </trkpt>
      <trkpt lat="48.19846" lon="3.23073">
        <ele>164</ele>
        <time>2014-09-07T08:12:16.000Z</time>
      </trkpt>
      <trkpt lat="48.19849" lon="3.23069">
        <ele>164</ele>
        <time>2014-09-07T08:12:18.000Z</time>
      </trkpt>
      <trkpt lat="48.1985" lon="3.23069">
        <ele>164</ele>
        <time>2014-09-07T08:12:19.000Z</time>
      </trkpt>
      <trkpt lat="48.19853" lon="3.23065">
        <ele>164</ele>
        <time>2014-09-07T08:12:21.000Z</time>
      </trkpt>
      <trkpt lat="48.19854" lon="3.23062">
        <ele>164</ele>
        <time>2014-09-07T08:12:22.000Z</time>
      </trkpt>
      <trkpt lat="48.19858" lon="3.23058">
        <ele>164</ele>
        <time>2014-09-07T08:12:25.000Z</time>
      </trkpt>
      <trkpt lat="48.19858" lon="3.23056">
        <ele>164</ele>
        <time>2014-09-07T08:12:26.000Z</time>
      </trkpt>
      <trkpt lat="48.1986" lon="3.23052">
        <ele>164</ele>
        <time>2014-09-07T08:12:29.000Z</time>
      </trkpt>
      <trkpt lat="48.19861" lon="3.2305">
        <ele>164</ele>
        <time>2014-09-07T08:12:30.000Z</time>
      </trkpt>
      <trkpt lat="48.19862" lon="3.23045">
        <ele>164</ele>
        <time>2014-09-07T08:12:31.000Z</time>
      </trkpt>
      <trkpt lat="48.19863" lon="3.23043">
        <ele>164</ele>
        <time>2014-09-07T08:12:32.000Z</time>
      </trkpt>
      <trkpt lat="48.19864" lon="3.23039">
        <ele>164</ele>
        <time>2014-09-07T08:12:34.000Z</time>
      </trkpt>
      <trkpt lat="48.19865" lon="3.23037">
        <ele>164</ele>
        <time>2014-09-07T08:12:35.000Z</time>
      </trkpt>
      <trkpt lat="48.19866" lon="3.2303">
        <ele>164</ele>
        <time>2014-09-07T08:12:37.000Z</time>
      </trkpt>
      <trkpt lat="48.19867" lon="3.23028">
        <ele>164</ele>
        <time>2014-09-07T08:12:38.000Z</time>
      </trkpt>
      <trkpt lat="48.19868" lon="3.23022">
        <ele>164</ele>
        <time>2014-09-07T08:12:40.000Z</time>
      </trkpt>
      <trkpt lat="48.1987" lon="3.23017">
        <ele>164</ele>
        <time>2014-09-07T08:12:41.000Z</time>
      </trkpt>
      <trkpt lat="48.19872" lon="3.23013">
        <ele>164</ele>
        <time>2014-09-07T08:12:42.000Z</time>
      </trkpt>
      <trkpt lat="48.19873" lon="3.23011">
        <ele>164</ele>
        <time>2014-09-07T08:12:43.000Z</time>
      </trkpt>
      <trkpt lat="48.19875" lon="3.23007">
        <ele>165</ele>
        <time>2014-09-07T08:12:46.000Z</time>
      </trkpt>
      <trkpt lat="48.19875" lon="3.23004">
        <ele>165</ele>
        <time>2014-09-07T08:12:47.000Z</time>
      </trkpt>
      <trkpt lat="48.19872" lon="3.23">
        <ele>164</ele>
        <time>2014-09-07T08:13:11.000Z</time>
      </trkpt>
      <trkpt lat="48.19871" lon="3.23">
        <ele>164</ele>
        <time>2014-09-07T08:13:12.000Z</time>
      </trkpt>
      <trkpt lat="48.19866" lon="3.23002">
        <ele>164</ele>
        <time>2014-09-07T08:13:30.000Z</time>
      </trkpt>
      <trkpt lat="48.19865" lon="3.23002">
        <ele>164</ele>
        <time>2014-09-07T08:13:31.000Z</time>
      </trkpt>
      <trkpt lat="48.19868" lon="3.22998">
        <ele>165</ele>
        <time>2014-09-07T08:14:25.000Z</time>
      </trkpt>
      <trkpt lat="48.1987" lon="3.22998">
        <ele>165</ele>
        <time>2014-09-07T08:14:26.000Z</time>
      </trkpt>
      <trkpt lat="48.19874" lon="3.22998">
        <ele>165</ele>
        <time>2014-09-07T08:14:41.000Z</time>
      </trkpt>
      <trkpt lat="48.19875" lon="3.22998">
        <ele>165</ele>
        <time>2014-09-07T08:14:42.000Z</time>
      </trkpt>
      <trkpt lat="48.19879" lon="3.22998">
        <ele>166</ele>
        <time>2014-09-07T08:14:51.000Z</time>
      </trkpt>
      <trkpt lat="48.1988" lon="3.22998">
        <ele>166</ele>
        <time>2014-09-07T08:14:52.000Z</time>
      </trkpt>
      <trkpt lat="48.19881" lon="3.22992">
        <ele>166</ele>
        <time>2014-09-07T08:14:58.000Z</time>
      </trkpt>
      <trkpt lat="48.19881" lon="3.22989">
        <ele>166</ele>
        <time>2014-09-07T08:14:59.000Z</time>
      </trkpt>
      <trkpt lat="48.19881" lon="3.22983">
        <ele>166</ele>
        <time>2014-09-07T08:15:01.000Z</time>
      </trkpt>
      <trkpt lat="48.19881" lon="3.22981">
        <ele>166</ele>
        <time>2014-09-07T08:15:02.000Z</time>
      </trkpt>
      <trkpt lat="48.1988" lon="3.22974">
        <ele>166</ele>
        <time>2014-09-07T08:15:04.000Z</time>
      </trkpt>
      <trkpt lat="48.1988" lon="3.2297">
        <ele>166</ele>
        <time>2014-09-07T08:15:05.000Z</time>
      </trkpt>
      <trkpt lat="48.1988" lon="3.22966">
        <ele>166</ele>
        <time>2014-09-07T08:15:07.000Z</time>
      </trkpt>
      <trkpt lat="48.19879" lon="3.22962">
        <ele>166</ele>
        <time>2014-09-07T08:15:08.000Z</time>
      </trkpt>
      <trkpt lat="48.19879" lon="3.22955">
        <ele>166</ele>
        <time>2014-09-07T08:15:10.000Z</time>
      </trkpt>
      <trkpt lat="48.19879" lon="3.22953">
        <ele>166</ele>
        <time>2014-09-07T08:15:11.000Z</time>
      </trkpt>
      <trkpt lat="48.19879" lon="3.22949">
        <ele>166</ele>
        <time>2014-09-07T08:15:12.000Z</time>
      </trkpt>
      <trkpt lat="48.19879" lon="3.22944">
        <ele>166</ele>
        <time>2014-09-07T08:15:13.000Z</time>
      </trkpt>
      <trkpt lat="48.19879" lon="3.22938">
        <ele>166</ele>
        <time>2014-09-07T08:15:15.000Z</time>
      </trkpt>
      <trkpt lat="48.19879" lon="3.22934">
        <ele>166</ele>
        <time>2014-09-07T08:15:16.000Z</time>
      </trkpt>
      <trkpt lat="48.19879" lon="3.22927">
        <ele>166</ele>
        <time>2014-09-07T08:15:18.000Z</time>
      </trkpt>
      <trkpt lat="48.19879" lon="3.22923">
        <ele>166</ele>
        <time>2014-09-07T08:15:19.000Z</time>
      </trkpt>
      <trkpt lat="48.19879" lon="3.22919">
        <ele>166</ele>
        <time>2014-09-07T08:15:20.000Z</time>
      </trkpt>
      <trkpt lat="48.19879" lon="3.22914">
        <ele>167</ele>
        <time>2014-09-07T08:15:21.000Z</time>
      </trkpt>
      <trkpt lat="48.19878" lon="3.22908">
        <ele>167</ele>
        <time>2014-09-07T08:15:23.000Z</time>
      </trkpt>
      <trkpt lat="48.19877" lon="3.22904">
        <ele>167</ele>
        <time>2014-09-07T08:15:24.000Z</time>
      </trkpt>
      <trkpt lat="48.19877" lon="3.22899">
        <ele>167</ele>
        <time>2014-09-07T08:15:25.000Z</time>
      </trkpt>
      <trkpt lat="48.19876" lon="3.22895">
        <ele>167</ele>
        <time>2014-09-07T08:15:26.000Z</time>
      </trkpt>
      <trkpt lat="48.19875" lon="3.22893">
        <ele>167</ele>
        <time>2014-09-07T08:15:27.000Z</time>
      </trkpt>
      <trkpt lat="48.19874" lon="3.22889">
        <ele>167</ele>
        <time>2014-09-07T08:15:28.000Z</time>
      </trkpt>
      <trkpt lat="48.19873" lon="3.22882">
        <ele>167</ele>
        <time>2014-09-07T08:15:30.000Z</time>
      </trkpt>
      <trkpt lat="48.19873" lon="3.22878">
        <ele>167</ele>
        <time>2014-09-07T08:15:31.000Z</time>
      </trkpt>
      <trkpt lat="48.19873" lon="3.22871">
        <ele>168</ele>
        <time>2014-09-07T08:15:33.000Z</time>
      </trkpt>
      <trkpt lat="48.19873" lon="3.22867">
        <ele>168</ele>
        <time>2014-09-07T08:15:34.000Z</time>
      </trkpt>
      <trkpt lat="48.19873" lon="3.22861">
        <ele>168</ele>
        <time>2014-09-07T08:15:36.000Z</time>
      </trkpt>
      <trkpt lat="48.19873" lon="3.22859">
        <ele>168</ele>
        <time>2014-09-07T08:15:37.000Z</time>
      </trkpt>
      <trkpt lat="48.19873" lon="3.22852">
        <ele>168</ele>
        <time>2014-09-07T08:15:39.000Z</time>
      </trkpt>
      <trkpt lat="48.19874" lon="3.22848">
        <ele>168</ele>
        <time>2014-09-07T08:15:40.000Z</time>
      </trkpt>
      <trkpt lat="48.19874" lon="3.22841">
        <ele>168</ele>
        <time>2014-09-07T08:15:42.000Z</time>
      </trkpt>
      <trkpt lat="48.19874" lon="3.22839">
        <ele>168</ele>
        <time>2014-09-07T08:15:43.000Z</time>
      </trkpt>
      <trkpt lat="48.19875" lon="3.22833">
        <ele>168</ele>
        <time>2014-09-07T08:15:45.000Z</time>
      </trkpt>
      <trkpt lat="48.19875" lon="3.22829">
        <ele>168</ele>
        <time>2014-09-07T08:15:46.000Z</time>
      </trkpt>
      <trkpt lat="48.19876" lon="3.22822">
        <ele>167</ele>
        <time>2014-09-07T08:15:48.000Z</time>
      </trkpt>
      <trkpt lat="48.19877" lon="3.2282">
        <ele>167</ele>
        <time>2014-09-07T08:15:49.000Z</time>
      </trkpt>
      <trkpt lat="48.19877" lon="3.22816">
        <ele>167</ele>
        <time>2014-09-07T08:15:50.000Z</time>
      </trkpt>
      <trkpt lat="48.19878" lon="3.22811">
        <ele>167</ele>
        <time>2014-09-07T08:15:51.000Z</time>
      </trkpt>
      <trkpt lat="48.19879" lon="3.22805">
        <ele>167</ele>
        <time>2014-09-07T08:15:53.000Z</time>
      </trkpt>
      <trkpt lat="48.19879" lon="3.22801">
        <ele>167</ele>
        <time>2014-09-07T08:15:54.000Z</time>
      </trkpt>
      <trkpt lat="48.1988" lon="3.22796">
        <ele>167</ele>
        <time>2014-09-07T08:15:55.000Z</time>
      </trkpt>
      <trkpt lat="48.19881" lon="3.22792">
        <ele>167</ele>
        <time>2014-09-07T08:15:56.000Z</time>
      </trkpt>
      <trkpt lat="48.19881" lon="3.22788">
        <ele>167</ele>
        <time>2014-09-07T08:15:57.000Z</time>
      </trkpt>
      <trkpt lat="48.19882" lon="3.22783">
        <ele>167</ele>
        <time>2014-09-07T08:15:58.000Z</time>
      </trkpt>
      <trkpt lat="48.19882" lon="3.22777">
        <ele>167</ele>
        <time>2014-09-07T08:15:59.000Z</time>
      </trkpt>
      <trkpt lat="48.19883" lon="3.22773">
        <ele>167</ele>
        <time>2014-09-07T08:16:00.000Z</time>
      </trkpt>
      <trkpt lat="48.19883" lon="3.22766">
        <ele>167</ele>
        <time>2014-09-07T08:16:01.000Z</time>
      </trkpt>
      <trkpt lat="48.19886" lon="3.22758">
        <ele>167</ele>
        <time>2014-09-07T08:16:02.000Z</time>
      </trkpt>
      <trkpt lat="48.19887" lon="3.22749">
        <ele>165</ele>
        <time>2014-09-07T08:16:03.000Z</time>
      </trkpt>
      <trkpt lat="48.19889" lon="3.22738">
        <ele>165</ele>
        <time>2014-09-07T08:16:04.000Z</time>
      </trkpt>
      <trkpt lat="48.1989" lon="3.2273">
        <ele>165</ele>
        <time>2014-09-07T08:16:05.000Z</time>
      </trkpt>
      <trkpt lat="48.19891" lon="3.22721">
        <ele>164</ele>
        <time>2014-09-07T08:16:06.000Z</time>
      </trkpt>
      <trkpt lat="48.19891" lon="3.22715">
        <ele>164</ele>
        <time>2014-09-07T08:16:07.000Z</time>
      </trkpt>
      <trkpt lat="48.19892" lon="3.22708">
        <ele>164</ele>
        <time>2014-09-07T08:16:08.000Z</time>
      </trkpt>
      <trkpt lat="48.19892" lon="3.22702">
        <ele>164</ele>
        <time>2014-09-07T08:16:09.000Z</time>
      </trkpt>
      <trkpt lat="48.19891" lon="3.22695">
        <ele>164</ele>
        <time>2014-09-07T08:16:10.000Z</time>
      </trkpt>
      <trkpt lat="48.19891" lon="3.22689">
        <ele>164</ele>
        <time>2014-09-07T08:16:11.000Z</time>
      </trkpt>
      <trkpt lat="48.19891" lon="3.22683">
        <ele>164</ele>
        <time>2014-09-07T08:16:12.000Z</time>
      </trkpt>
      <trkpt lat="48.19891" lon="3.22676">
        <ele>164</ele>
        <time>2014-09-07T08:16:13.000Z</time>
      </trkpt>
      <trkpt lat="48.19891" lon="3.22672">
        <ele>164</ele>
        <time>2014-09-07T08:16:14.000Z</time>
      </trkpt>
      <trkpt lat="48.1989" lon="3.22665">
        <ele>162</ele>
        <time>2014-09-07T08:16:15.000Z</time>
      </trkpt>
      <trkpt lat="48.1989" lon="3.22661">
        <ele>162</ele>
        <time>2014-09-07T08:16:16.000Z</time>
      </trkpt>
      <trkpt lat="48.1989" lon="3.22655">
        <ele>162</ele>
        <time>2014-09-07T08:16:17.000Z</time>
      </trkpt>
      <trkpt lat="48.19889" lon="3.22648">
        <ele>162</ele>
        <time>2014-09-07T08:16:18.000Z</time>
      </trkpt>
      <trkpt lat="48.19889" lon="3.22642">
        <ele>162</ele>
        <time>2014-09-07T08:16:19.000Z</time>
      </trkpt>
      <trkpt lat="48.19889" lon="3.22638">
        <ele>162</ele>
        <time>2014-09-07T08:16:20.000Z</time>
      </trkpt>
      <trkpt lat="48.19888" lon="3.22631">
        <ele>162</ele>
        <time>2014-09-07T08:16:21.000Z</time>
      </trkpt>
      <trkpt lat="48.19888" lon="3.22627">
        <ele>162</ele>
        <time>2014-09-07T08:16:22.000Z</time>
      </trkpt>
      <trkpt lat="48.19888" lon="3.2262">
        <ele>162</ele>
        <time>2014-09-07T08:16:23.000Z</time>
      </trkpt>
      <trkpt lat="48.19889" lon="3.22616">
        <ele>162</ele>
        <time>2014-09-07T08:16:24.000Z</time>
      </trkpt>
      <trkpt lat="48.19889" lon="3.2261">
        <ele>162</ele>
        <time>2014-09-07T08:16:25.000Z</time>
      </trkpt>
      <trkpt lat="48.1989" lon="3.22605">
        <ele>162</ele>
        <time>2014-09-07T08:16:26.000Z</time>
      </trkpt>
      <trkpt lat="48.19891" lon="3.22599">
        <ele>162</ele>
        <time>2014-09-07T08:16:27.000Z</time>
      </trkpt>
      <trkpt lat="48.19893" lon="3.22595">
        <ele>162</ele>
        <time>2014-09-07T08:16:28.000Z</time>
      </trkpt>
      <trkpt lat="48.19894" lon="3.2259">
        <ele>162</ele>
        <time>2014-09-07T08:16:29.000Z</time>
      </trkpt>
      <trkpt lat="48.19896" lon="3.22584">
        <ele>162</ele>
        <time>2014-09-07T08:16:30.000Z</time>
      </trkpt>
      <trkpt lat="48.19897" lon="3.2258">
        <ele>161</ele>
        <time>2014-09-07T08:16:31.000Z</time>
      </trkpt>
      <trkpt lat="48.199" lon="3.22575">
        <ele>161</ele>
        <time>2014-09-07T08:16:32.000Z</time>
      </trkpt>
      <trkpt lat="48.19902" lon="3.22571">
        <ele>161</ele>
        <time>2014-09-07T08:16:33.000Z</time>
      </trkpt>
      <trkpt lat="48.19904" lon="3.22565">
        <ele>160</ele>
        <time>2014-09-07T08:16:34.000Z</time>
      </trkpt>
      <trkpt lat="48.19907" lon="3.2256">
        <ele>160</ele>
        <time>2014-09-07T08:16:35.000Z</time>
      </trkpt>
      <trkpt lat="48.19909" lon="3.22554">
        <ele>160</ele>
        <time>2014-09-07T08:16:36.000Z</time>
      </trkpt>
      <trkpt lat="48.19911" lon="3.2255">
        <ele>160</ele>
        <time>2014-09-07T08:16:37.000Z</time>
      </trkpt>
      <trkpt lat="48.19914" lon="3.22545">
        <ele>160</ele>
        <time>2014-09-07T08:16:38.000Z</time>
      </trkpt>
      <trkpt lat="48.19916" lon="3.22541">
        <ele>160</ele>
        <time>2014-09-07T08:16:39.000Z</time>
      </trkpt>
      <trkpt lat="48.19917" lon="3.22537">
        <ele>160</ele>
        <time>2014-09-07T08:16:40.000Z</time>
      </trkpt>
      <trkpt lat="48.19919" lon="3.22532">
        <ele>160</ele>
        <time>2014-09-07T08:16:41.000Z</time>
      </trkpt>
      <trkpt lat="48.19921" lon="3.22528">
        <ele>160</ele>
        <time>2014-09-07T08:16:42.000Z</time>
      </trkpt>
      <trkpt lat="48.19923" lon="3.22524">
        <ele>160</ele>
        <time>2014-09-07T08:16:43.000Z</time>
      </trkpt>
      <trkpt lat="48.19925" lon="3.2252">
        <ele>160</ele>
        <time>2014-09-07T08:16:44.000Z</time>
      </trkpt>
      <trkpt lat="48.19927" lon="3.22515">
        <ele>160</ele>
        <time>2014-09-07T08:16:45.000Z</time>
      </trkpt>
      <trkpt lat="48.19929" lon="3.22509">
        <ele>160</ele>
        <time>2014-09-07T08:16:46.000Z</time>
      </trkpt>
      <trkpt lat="48.19931" lon="3.22505">
        <ele>160</ele>
        <time>2014-09-07T08:16:47.000Z</time>
      </trkpt>
      <trkpt lat="48.19933" lon="3.225">
        <ele>160</ele>
        <time>2014-09-07T08:16:48.000Z</time>
      </trkpt>
      <trkpt lat="48.19935" lon="3.22496">
        <ele>160</ele>
        <time>2014-09-07T08:16:49.000Z</time>
      </trkpt>
      <trkpt lat="48.19938" lon="3.22492">
        <ele>159</ele>
        <time>2014-09-07T08:16:50.000Z</time>
      </trkpt>
      <trkpt lat="48.1994" lon="3.22485">
        <ele>159</ele>
        <time>2014-09-07T08:16:51.000Z</time>
      </trkpt>
      <trkpt lat="48.19942" lon="3.22479">
        <ele>159</ele>
        <time>2014-09-07T08:16:52.000Z</time>
      </trkpt>
      <trkpt lat="48.19945" lon="3.22474">
        <ele>159</ele>
        <time>2014-09-07T08:16:53.000Z</time>
      </trkpt>
      <trkpt lat="48.19947" lon="3.22468">
        <ele>159</ele>
        <time>2014-09-07T08:16:54.000Z</time>
      </trkpt>
      <trkpt lat="48.1995" lon="3.22464">
        <ele>159</ele>
        <time>2014-09-07T08:16:55.000Z</time>
      </trkpt>
      <trkpt lat="48.19952" lon="3.22457">
        <ele>159</ele>
        <time>2014-09-07T08:16:56.000Z</time>
      </trkpt>
      <trkpt lat="48.19955" lon="3.22451">
        <ele>159</ele>
        <time>2014-09-07T08:16:57.000Z</time>
      </trkpt>
      <trkpt lat="48.19957" lon="3.22447">
        <ele>159</ele>
        <time>2014-09-07T08:16:58.000Z</time>
      </trkpt>
      <trkpt lat="48.1996" lon="3.2244">
        <ele>159</ele>
        <time>2014-09-07T08:16:59.000Z</time>
      </trkpt>
      <trkpt lat="48.19962" lon="3.22434">
        <ele>159</ele>
        <time>2014-09-07T08:17:00.000Z</time>
      </trkpt>
      <trkpt lat="48.19965" lon="3.22429">
        <ele>159</ele>
        <time>2014-09-07T08:17:01.000Z</time>
      </trkpt>
      <trkpt lat="48.19967" lon="3.22423">
        <ele>159</ele>
        <time>2014-09-07T08:17:02.000Z</time>
      </trkpt>
      <trkpt lat="48.19969" lon="3.22417">
        <ele>159</ele>
        <time>2014-09-07T08:17:03.000Z</time>
      </trkpt>
      <trkpt lat="48.19971" lon="3.22412">
        <ele>159</ele>
        <time>2014-09-07T08:17:04.000Z</time>
      </trkpt>
      <trkpt lat="48.19974" lon="3.22406">
        <ele>159</ele>
        <time>2014-09-07T08:17:05.000Z</time>
      </trkpt>
      <trkpt lat="48.19976" lon="3.22402">
        <ele>159</ele>
        <time>2014-09-07T08:17:06.000Z</time>
      </trkpt>
      <trkpt lat="48.19978" lon="3.22395">
        <ele>159</ele>
        <time>2014-09-07T08:17:07.000Z</time>
      </trkpt>
      <trkpt lat="48.1998" lon="3.22389">
        <ele>159</ele>
        <time>2014-09-07T08:17:08.000Z</time>
      </trkpt>
      <trkpt lat="48.19982" lon="3.22384">
        <ele>159</ele>
        <time>2014-09-07T08:17:09.000Z</time>
      </trkpt>
      <trkpt lat="48.19984" lon="3.22378">
        <ele>159</ele>
        <time>2014-09-07T08:17:10.000Z</time>
      </trkpt>
      <trkpt lat="48.19986" lon="3.22371">
        <ele>159</ele>
        <time>2014-09-07T08:17:11.000Z</time>
      </trkpt>
      <trkpt lat="48.1999" lon="3.22367">
        <ele>160</ele>
        <time>2014-09-07T08:17:12.000Z</time>
      </trkpt>
      <trkpt lat="48.19992" lon="3.22361">
        <ele>160</ele>
        <time>2014-09-07T08:17:13.000Z</time>
      </trkpt>
      <trkpt lat="48.19994" lon="3.22354">
        <ele>160</ele>
        <time>2014-09-07T08:17:14.000Z</time>
      </trkpt>
      <trkpt lat="48.19996" lon="3.2235">
        <ele>160</ele>
        <time>2014-09-07T08:17:15.000Z</time>
      </trkpt>
      <trkpt lat="48.19998" lon="3.22344">
        <ele>160</ele>
        <time>2014-09-07T08:17:16.000Z</time>
      </trkpt>
      <trkpt lat="48.20001" lon="3.22337">
        <ele>161</ele>
        <time>2014-09-07T08:17:17.000Z</time>
      </trkpt>
      <trkpt lat="48.20004" lon="3.22333">
        <ele>161</ele>
        <time>2014-09-07T08:17:18.000Z</time>
      </trkpt>
      <trkpt lat="48.20006" lon="3.22329">
        <ele>161</ele>
        <time>2014-09-07T08:17:19.000Z</time>
      </trkpt>
      <trkpt lat="48.20008" lon="3.22322">
        <ele>161</ele>
        <time>2014-09-07T08:17:20.000Z</time>
      </trkpt>
      <trkpt lat="48.2001" lon="3.22318">
        <ele>161</ele>
        <time>2014-09-07T08:17:21.000Z</time>
      </trkpt>
      <trkpt lat="48.20012" lon="3.22311">
        <ele>162</ele>
        <time>2014-09-07T08:17:22.000Z</time>
      </trkpt>
      <trkpt lat="48.20014" lon="3.22307">
        <ele>162</ele>
        <time>2014-09-07T08:17:23.000Z</time>
      </trkpt>
      <trkpt lat="48.20017" lon="3.22301">
        <ele>162</ele>
        <time>2014-09-07T08:17:24.000Z</time>
      </trkpt>
      <trkpt lat="48.20019" lon="3.22294">
        <ele>162</ele>
        <time>2014-09-07T08:17:25.000Z</time>
      </trkpt>
      <trkpt lat="48.20021" lon="3.2229">
        <ele>162</ele>
        <time>2014-09-07T08:17:26.000Z</time>
      </trkpt>
      <trkpt lat="48.20022" lon="3.22284">
        <ele>162</ele>
        <time>2014-09-07T08:17:27.000Z</time>
      </trkpt>
      <trkpt lat="48.20024" lon="3.22279">
        <ele>162</ele>
        <time>2014-09-07T08:17:28.000Z</time>
      </trkpt>
      <trkpt lat="48.20026" lon="3.22273">
        <ele>162</ele>
        <time>2014-09-07T08:17:29.000Z</time>
      </trkpt>
      <trkpt lat="48.20028" lon="3.22268">
        <ele>162</ele>
        <time>2014-09-07T08:17:30.000Z</time>
      </trkpt>
      <trkpt lat="48.2003" lon="3.22262">
        <ele>162</ele>
        <time>2014-09-07T08:17:31.000Z</time>
      </trkpt>
      <trkpt lat="48.20033" lon="3.22258">
        <ele>162</ele>
        <time>2014-09-07T08:17:32.000Z</time>
      </trkpt>
      <trkpt lat="48.20034" lon="3.22251">
        <ele>162</ele>
        <time>2014-09-07T08:17:33.000Z</time>
      </trkpt>
      <trkpt lat="48.20036" lon="3.22247">
        <ele>164</ele>
        <time>2014-09-07T08:17:34.000Z</time>
      </trkpt>
      <trkpt lat="48.20037" lon="3.22241">
        <ele>164</ele>
        <time>2014-09-07T08:17:35.000Z</time>
      </trkpt>
      <trkpt lat="48.20039" lon="3.22234">
        <ele>164</ele>
        <time>2014-09-07T08:17:36.000Z</time>
      </trkpt>
      <trkpt lat="48.20041" lon="3.2223">
        <ele>164</ele>
        <time>2014-09-07T08:17:37.000Z</time>
      </trkpt>
      <trkpt lat="48.20042" lon="3.22223">
        <ele>164</ele>
        <time>2014-09-07T08:17:38.000Z</time>
      </trkpt>
      <trkpt lat="48.20044" lon="3.22217">
        <ele>164</ele>
        <time>2014-09-07T08:17:39.000Z</time>
      </trkpt>
      <trkpt lat="48.20047" lon="3.22213">
        <ele>165</ele>
        <time>2014-09-07T08:17:40.000Z</time>
      </trkpt>
      <trkpt lat="48.20048" lon="3.22206">
        <ele>165</ele>
        <time>2014-09-07T08:17:41.000Z</time>
      </trkpt>
      <trkpt lat="48.20049" lon="3.222">
        <ele>165</ele>
        <time>2014-09-07T08:17:42.000Z</time>
      </trkpt>
      <trkpt lat="48.20051" lon="3.22196">
        <ele>165</ele>
        <time>2014-09-07T08:17:43.000Z</time>
      </trkpt>
      <trkpt lat="48.20052" lon="3.22189">
        <ele>165</ele>
        <time>2014-09-07T08:17:44.000Z</time>
      </trkpt>
      <trkpt lat="48.20053" lon="3.22183">
        <ele>165</ele>
        <time>2014-09-07T08:17:45.000Z</time>
      </trkpt>
      <trkpt lat="48.20055" lon="3.22178">
        <ele>165</ele>
        <time>2014-09-07T08:17:46.000Z</time>
      </trkpt>
      <trkpt lat="48.20056" lon="3.22172">
        <ele>166</ele>
        <time>2014-09-07T08:17:47.000Z</time>
      </trkpt>
      <trkpt lat="48.20057" lon="3.22168">
        <ele>166</ele>
        <time>2014-09-07T08:17:48.000Z</time>
      </trkpt>
      <trkpt lat="48.20058" lon="3.22161">
        <ele>167</ele>
        <time>2014-09-07T08:17:49.000Z</time>
      </trkpt>
      <trkpt lat="48.20059" lon="3.22155">
        <ele>167</ele>
        <time>2014-09-07T08:17:50.000Z</time>
      </trkpt>
      <trkpt lat="48.2006" lon="3.2215">
        <ele>167</ele>
        <time>2014-09-07T08:17:51.000Z</time>
      </trkpt>
      <trkpt lat="48.20062" lon="3.22144">
        <ele>167</ele>
        <time>2014-09-07T08:17:52.000Z</time>
      </trkpt>
      <trkpt lat="48.20063" lon="3.2214">
        <ele>167</ele>
        <time>2014-09-07T08:17:53.000Z</time>
      </trkpt>
      <trkpt lat="48.20065" lon="3.22133">
        <ele>167</ele>
        <time>2014-09-07T08:17:54.000Z</time>
      </trkpt>
      <trkpt lat="48.20066" lon="3.22129">
        <ele>167</ele>
        <time>2014-09-07T08:17:55.000Z</time>
      </trkpt>
      <trkpt lat="48.20067" lon="3.22123">
        <ele>167</ele>
        <time>2014-09-07T08:17:56.000Z</time>
      </trkpt>
      <trkpt lat="48.20068" lon="3.22116">
        <ele>167</ele>
        <time>2014-09-07T08:17:57.000Z</time>
      </trkpt>
      <trkpt lat="48.20069" lon="3.22112">
        <ele>168</ele>
        <time>2014-09-07T08:17:58.000Z</time>
      </trkpt>
      <trkpt lat="48.2007" lon="3.22105">
        <ele>168</ele>
        <time>2014-09-07T08:17:59.000Z</time>
      </trkpt>
      <trkpt lat="48.20071" lon="3.22101">
        <ele>168</ele>
        <time>2014-09-07T08:18:00.000Z</time>
      </trkpt>
      <trkpt lat="48.20073" lon="3.22095">
        <ele>168</ele>
        <time>2014-09-07T08:18:01.000Z</time>
      </trkpt>
      <trkpt lat="48.20074" lon="3.22088">
        <ele>169</ele>
        <time>2014-09-07T08:18:02.000Z</time>
      </trkpt>
      <trkpt lat="48.20076" lon="3.22084">
        <ele>169</ele>
        <time>2014-09-07T08:18:03.000Z</time>
      </trkpt>
      <trkpt lat="48.20077" lon="3.22078">
        <ele>169</ele>
        <time>2014-09-07T08:18:04.000Z</time>
      </trkpt>
      <trkpt lat="48.20078" lon="3.22071">
        <ele>169</ele>
        <time>2014-09-07T08:18:05.000Z</time>
      </trkpt>
      <trkpt lat="48.20079" lon="3.22067">
        <ele>169</ele>
        <time>2014-09-07T08:18:06.000Z</time>
      </trkpt>
      <trkpt lat="48.20081" lon="3.22062">
        <ele>169</ele>
        <time>2014-09-07T08:18:07.000Z</time>
      </trkpt>
      <trkpt lat="48.20082" lon="3.22056">
        <ele>168</ele>
        <time>2014-09-07T08:18:08.000Z</time>
      </trkpt>
      <trkpt lat="48.20083" lon="3.22052">
        <ele>168</ele>
        <time>2014-09-07T08:18:09.000Z</time>
      </trkpt>
      <trkpt lat="48.20084" lon="3.22045">
        <ele>169</ele>
        <time>2014-09-07T08:18:10.000Z</time>
      </trkpt>
      <trkpt lat="48.20085" lon="3.22041">
        <ele>169</ele>
        <time>2014-09-07T08:18:11.000Z</time>
      </trkpt>
      <trkpt lat="48.20087" lon="3.22035">
        <ele>169</ele>
        <time>2014-09-07T08:18:12.000Z</time>
      </trkpt>
      <trkpt lat="48.20088" lon="3.2203">
        <ele>169</ele>
        <time>2014-09-07T08:18:13.000Z</time>
      </trkpt>
      <trkpt lat="48.20089" lon="3.22024">
        <ele>169</ele>
        <time>2014-09-07T08:18:14.000Z</time>
      </trkpt>
      <trkpt lat="48.20091" lon="3.2202">
        <ele>169</ele>
        <time>2014-09-07T08:18:15.000Z</time>
      </trkpt>
      <trkpt lat="48.20092" lon="3.22013">
        <ele>169</ele>
        <time>2014-09-07T08:18:16.000Z</time>
      </trkpt>
      <trkpt lat="48.20094" lon="3.22009">
        <ele>169</ele>
        <time>2014-09-07T08:18:17.000Z</time>
      </trkpt>
      <trkpt lat="48.20095" lon="3.22002">
        <ele>169</ele>
        <time>2014-09-07T08:18:18.000Z</time>
      </trkpt>
      <trkpt lat="48.20096" lon="3.21998">
        <ele>169</ele>
        <time>2014-09-07T08:18:19.000Z</time>
      </trkpt>
      <trkpt lat="48.20097" lon="3.21994">
        <ele>169</ele>
        <time>2014-09-07T08:18:20.000Z</time>
      </trkpt>
      <trkpt lat="48.20099" lon="3.21987">
        <ele>169</ele>
        <time>2014-09-07T08:18:21.000Z</time>
      </trkpt>
      <trkpt lat="48.201" lon="3.21983">
        <ele>169</ele>
        <time>2014-09-07T08:18:22.000Z</time>
      </trkpt>
      <trkpt lat="48.20101" lon="3.21979">
        <ele>169</ele>
        <time>2014-09-07T08:18:23.000Z</time>
      </trkpt>
      <trkpt lat="48.20102" lon="3.21975">
        <ele>169</ele>
        <time>2014-09-07T08:18:24.000Z</time>
      </trkpt>
      <trkpt lat="48.20104" lon="3.2197">
        <ele>169</ele>
        <time>2014-09-07T08:18:25.000Z</time>
      </trkpt>
      <trkpt lat="48.20106" lon="3.21966">
        <ele>169</ele>
        <time>2014-09-07T08:18:26.000Z</time>
      </trkpt>
      <trkpt lat="48.20108" lon="3.21959">
        <ele>169</ele>
        <time>2014-09-07T08:18:27.000Z</time>
      </trkpt>
      <trkpt lat="48.20109" lon="3.21955">
        <ele>169</ele>
        <time>2014-09-07T08:18:28.000Z</time>
      </trkpt>
      <trkpt lat="48.20111" lon="3.21951">
        <ele>170</ele>
        <time>2014-09-07T08:18:29.000Z</time>
      </trkpt>
      <trkpt lat="48.20112" lon="3.21947">
        <ele>170</ele>
        <time>2014-09-07T08:18:30.000Z</time>
      </trkpt>
      <trkpt lat="48.20114" lon="3.21942">
        <ele>170</ele>
        <time>2014-09-07T08:18:31.000Z</time>
      </trkpt>
      <trkpt lat="48.20115" lon="3.21936">
        <ele>170</ele>
        <time>2014-09-07T08:18:32.000Z</time>
      </trkpt>
      <trkpt lat="48.20116" lon="3.21932">
        <ele>170</ele>
        <time>2014-09-07T08:18:33.000Z</time>
      </trkpt>
      <trkpt lat="48.20118" lon="3.21927">
        <ele>170</ele>
        <time>2014-09-07T08:18:34.000Z</time>
      </trkpt>
      <trkpt lat="48.2012" lon="3.21923">
        <ele>170</ele>
        <time>2014-09-07T08:18:35.000Z</time>
      </trkpt>
      <trkpt lat="48.20121" lon="3.21917">
        <ele>173</ele>
        <time>2014-09-07T08:18:36.000Z</time>
      </trkpt>
      <trkpt lat="48.20122" lon="3.21912">
        <ele>173</ele>
        <time>2014-09-07T08:18:37.000Z</time>
      </trkpt>
      <trkpt lat="48.20123" lon="3.21908">
        <ele>173</ele>
        <time>2014-09-07T08:18:38.000Z</time>
      </trkpt>
      <trkpt lat="48.20123" lon="3.21904">
        <ele>173</ele>
        <time>2014-09-07T08:18:39.000Z</time>
      </trkpt>
      <trkpt lat="48.20124" lon="3.21899">
        <ele>173</ele>
        <time>2014-09-07T08:18:40.000Z</time>
      </trkpt>
      <trkpt lat="48.20125" lon="3.21895">
        <ele>173</ele>
        <time>2014-09-07T08:18:41.000Z</time>
      </trkpt>
      <trkpt lat="48.20126" lon="3.21891">
        <ele>173</ele>
        <time>2014-09-07T08:18:42.000Z</time>
      </trkpt>
      <trkpt lat="48.20126" lon="3.21887">
        <ele>174</ele>
        <time>2014-09-07T08:18:43.000Z</time>
      </trkpt>
      <trkpt lat="48.20127" lon="3.21882">
        <ele>174</ele>
        <time>2014-09-07T08:18:44.000Z</time>
      </trkpt>
      <trkpt lat="48.20128" lon="3.21878">
        <ele>174</ele>
        <time>2014-09-07T08:18:45.000Z</time>
      </trkpt>
      <trkpt lat="48.20128" lon="3.21874">
        <ele>174</ele>
        <time>2014-09-07T08:18:46.000Z</time>
      </trkpt>
      <trkpt lat="48.20129" lon="3.21869">
        <ele>174</ele>
        <time>2014-09-07T08:18:47.000Z</time>
      </trkpt>
      <trkpt lat="48.2013" lon="3.21865">
        <ele>174</ele>
        <time>2014-09-07T08:18:48.000Z</time>
      </trkpt>
      <trkpt lat="48.20131" lon="3.21861">
        <ele>175</ele>
        <time>2014-09-07T08:18:49.000Z</time>
      </trkpt>
      <trkpt lat="48.20132" lon="3.21854">
        <ele>175</ele>
        <time>2014-09-07T08:18:51.000Z</time>
      </trkpt>
      <trkpt lat="48.20133" lon="3.2185">
        <ele>175</ele>
        <time>2014-09-07T08:18:52.000Z</time>
      </trkpt>
      <trkpt lat="48.20133" lon="3.21846">
        <ele>175</ele>
        <time>2014-09-07T08:18:53.000Z</time>
      </trkpt>
      <trkpt lat="48.20135" lon="3.21841">
        <ele>176</ele>
        <time>2014-09-07T08:18:54.000Z</time>
      </trkpt>
      <trkpt lat="48.20136" lon="3.21837">
        <ele>176</ele>
        <time>2014-09-07T08:18:55.000Z</time>
      </trkpt>
      <trkpt lat="48.20137" lon="3.21833">
        <ele>178</ele>
        <time>2014-09-07T08:18:56.000Z</time>
      </trkpt>
      <trkpt lat="48.20138" lon="3.21831">
        <ele>178</ele>
        <time>2014-09-07T08:18:57.000Z</time>
      </trkpt>
      <trkpt lat="48.20139" lon="3.21826">
        <ele>178</ele>
        <time>2014-09-07T08:18:58.000Z</time>
      </trkpt>
      <trkpt lat="48.20139" lon="3.21822">
        <ele>178</ele>
        <time>2014-09-07T08:18:59.000Z</time>
      </trkpt>
      <trkpt lat="48.2014" lon="3.21818">
        <ele>178</ele>
        <time>2014-09-07T08:19:00.000Z</time>
      </trkpt>
      <trkpt lat="48.20141" lon="3.21814">
        <ele>178</ele>
        <time>2014-09-07T08:19:01.000Z</time>
      </trkpt>
      <trkpt lat="48.20141" lon="3.21809">
        <ele>178</ele>
        <time>2014-09-07T08:19:02.000Z</time>
      </trkpt>
      <trkpt lat="48.20142" lon="3.21807">
        <ele>178</ele>
        <time>2014-09-07T08:19:03.000Z</time>
      </trkpt>
      <trkpt lat="48.20143" lon="3.21803">
        <ele>178</ele>
        <time>2014-09-07T08:19:04.000Z</time>
      </trkpt>
      <trkpt lat="48.20143" lon="3.21799">
        <ele>178</ele>
        <time>2014-09-07T08:19:05.000Z</time>
      </trkpt>
      <trkpt lat="48.20144" lon="3.21794">
        <ele>178</ele>
        <time>2014-09-07T08:19:06.000Z</time>
      </trkpt>
      <trkpt lat="48.20145" lon="3.2179">
        <ele>178</ele>
        <time>2014-09-07T08:19:07.000Z</time>
      </trkpt>
      <trkpt lat="48.20146" lon="3.21788">
        <ele>178</ele>
        <time>2014-09-07T08:19:08.000Z</time>
      </trkpt>
      <trkpt lat="48.20147" lon="3.21781">
        <ele>178</ele>
        <time>2014-09-07T08:19:09.000Z</time>
      </trkpt>
      <trkpt lat="48.20148" lon="3.21777">
        <ele>178</ele>
        <time>2014-09-07T08:19:10.000Z</time>
      </trkpt>
      <trkpt lat="48.2015" lon="3.21773">
        <ele>178</ele>
        <time>2014-09-07T08:19:11.000Z</time>
      </trkpt>
      <trkpt lat="48.20151" lon="3.21769">
        <ele>178</ele>
        <time>2014-09-07T08:19:12.000Z</time>
      </trkpt>
      <trkpt lat="48.20152" lon="3.21764">
        <ele>178</ele>
        <time>2014-09-07T08:19:13.000Z</time>
      </trkpt>
      <trkpt lat="48.20154" lon="3.2176">
        <ele>178</ele>
        <time>2014-09-07T08:19:14.000Z</time>
      </trkpt>
      <trkpt lat="48.20155" lon="3.21754">
        <ele>179</ele>
        <time>2014-09-07T08:19:15.000Z</time>
      </trkpt>
      <trkpt lat="48.20156" lon="3.21749">
        <ele>179</ele>
        <time>2014-09-07T08:19:16.000Z</time>
      </trkpt>
      <trkpt lat="48.20158" lon="3.21745">
        <ele>179</ele>
        <time>2014-09-07T08:19:17.000Z</time>
      </trkpt>
      <trkpt lat="48.20159" lon="3.21741">
        <ele>179</ele>
        <time>2014-09-07T08:19:18.000Z</time>
      </trkpt>
      <trkpt lat="48.2016" lon="3.21736">
        <ele>179</ele>
        <time>2014-09-07T08:19:19.000Z</time>
      </trkpt>
      <trkpt lat="48.20161" lon="3.21732">
        <ele>180</ele>
        <time>2014-09-07T08:19:20.000Z</time>
      </trkpt>
      <trkpt lat="48.20163" lon="3.21728">
        <ele>180</ele>
        <time>2014-09-07T08:19:21.000Z</time>
      </trkpt>
      <trkpt lat="48.20165" lon="3.21723">
        <ele>180</ele>
        <time>2014-09-07T08:19:22.000Z</time>
      </trkpt>
      <trkpt lat="48.20166" lon="3.21717">
        <ele>180</ele>
        <time>2014-09-07T08:19:23.000Z</time>
      </trkpt>
      <trkpt lat="48.20168" lon="3.21713">
        <ele>179</ele>
        <time>2014-09-07T08:19:24.000Z</time>
      </trkpt>
      <trkpt lat="48.20169" lon="3.21708">
        <ele>179</ele>
        <time>2014-09-07T08:19:25.000Z</time>
      </trkpt>
      <trkpt lat="48.2017" lon="3.21702">
        <ele>179</ele>
        <time>2014-09-07T08:19:26.000Z</time>
      </trkpt>
      <trkpt lat="48.20171" lon="3.21698">
        <ele>179</ele>
        <time>2014-09-07T08:19:27.000Z</time>
      </trkpt>
      <trkpt lat="48.20172" lon="3.21693">
        <ele>179</ele>
        <time>2014-09-07T08:19:28.000Z</time>
      </trkpt>
      <trkpt lat="48.20173" lon="3.21687">
        <ele>179</ele>
        <time>2014-09-07T08:19:29.000Z</time>
      </trkpt>
      <trkpt lat="48.20174" lon="3.21683">
        <ele>179</ele>
        <time>2014-09-07T08:19:30.000Z</time>
      </trkpt>
      <trkpt lat="48.20175" lon="3.21676">
        <ele>180</ele>
        <time>2014-09-07T08:19:31.000Z</time>
      </trkpt>
      <trkpt lat="48.20176" lon="3.2167">
        <ele>180</ele>
        <time>2014-09-07T08:19:32.000Z</time>
      </trkpt>
      <trkpt lat="48.20177" lon="3.21663">
        <ele>180</ele>
        <time>2014-09-07T08:19:33.000Z</time>
      </trkpt>
      <trkpt lat="48.20179" lon="3.21657">
        <ele>179</ele>
        <time>2014-09-07T08:19:34.000Z</time>
      </trkpt>
      <trkpt lat="48.2018" lon="3.21651">
        <ele>179</ele>
        <time>2014-09-07T08:19:35.000Z</time>
      </trkpt>
      <trkpt lat="48.20181" lon="3.21644">
        <ele>179</ele>
        <time>2014-09-07T08:19:36.000Z</time>
      </trkpt>
      <trkpt lat="48.20182" lon="3.21635">
        <ele>178</ele>
        <time>2014-09-07T08:19:37.000Z</time>
      </trkpt>
      <trkpt lat="48.20183" lon="3.21627">
        <ele>178</ele>
        <time>2014-09-07T08:19:38.000Z</time>
      </trkpt>
      <trkpt lat="48.20184" lon="3.2162">
        <ele>178</ele>
        <time>2014-09-07T08:19:39.000Z</time>
      </trkpt>
      <trkpt lat="48.20185" lon="3.21612">
        <ele>178</ele>
        <time>2014-09-07T08:19:40.000Z</time>
      </trkpt>
      <trkpt lat="48.20186" lon="3.21605">
        <ele>178</ele>
        <time>2014-09-07T08:19:41.000Z</time>
      </trkpt>
      <trkpt lat="48.20187" lon="3.21597">
        <ele>178</ele>
        <time>2014-09-07T08:19:42.000Z</time>
      </trkpt>
      <trkpt lat="48.20188" lon="3.2159">
        <ele>178</ele>
        <time>2014-09-07T08:19:43.000Z</time>
      </trkpt>
      <trkpt lat="48.20189" lon="3.21584">
        <ele>178</ele>
        <time>2014-09-07T08:19:44.000Z</time>
      </trkpt>
      <trkpt lat="48.2019" lon="3.21575">
        <ele>177</ele>
        <time>2014-09-07T08:19:45.000Z</time>
      </trkpt>
      <trkpt lat="48.20191" lon="3.21569">
        <ele>177</ele>
        <time>2014-09-07T08:19:46.000Z</time>
      </trkpt>
      <trkpt lat="48.20192" lon="3.21563">
        <ele>177</ele>
        <time>2014-09-07T08:19:47.000Z</time>
      </trkpt>
      <trkpt lat="48.20195" lon="3.21556">
        <ele>176</ele>
        <time>2014-09-07T08:19:48.000Z</time>
      </trkpt>
      <trkpt lat="48.20196" lon="3.21552">
        <ele>176</ele>
        <time>2014-09-07T08:19:49.000Z</time>
      </trkpt>
      <trkpt lat="48.20198" lon="3.21545">
        <ele>176</ele>
        <time>2014-09-07T08:19:50.000Z</time>
      </trkpt>
      <trkpt lat="48.20198" lon="3.21545">
        <ele>176</ele>
        <time>2014-09-07T08:19:52.000Z</time>
      </trkpt>
      <trkpt lat="48.20202" lon="3.2153">
        <ele>176</ele>
        <time>2014-09-07T08:19:53.000Z</time>
      </trkpt>
      <trkpt lat="48.20203" lon="3.21526">
        <ele>176</ele>
        <time>2014-09-07T08:19:54.000Z</time>
      </trkpt>
      <trkpt lat="48.20204" lon="3.2152">
        <ele>176</ele>
        <time>2014-09-07T08:19:55.000Z</time>
      </trkpt>
      <trkpt lat="48.20206" lon="3.21515">
        <ele>176</ele>
        <time>2014-09-07T08:19:56.000Z</time>
      </trkpt>
      <trkpt lat="48.20207" lon="3.21511">
        <ele>176</ele>
        <time>2014-09-07T08:19:57.000Z</time>
      </trkpt>
      <trkpt lat="48.20207" lon="3.21511">
        <ele>176</ele>
        <time>2014-09-07T08:20:00.000Z</time>
      </trkpt>
      <trkpt lat="48.2021" lon="3.21498">
        <ele>175</ele>
        <time>2014-09-07T08:20:01.000Z</time>
      </trkpt>
      <trkpt lat="48.2021" lon="3.21498">
        <ele>175</ele>
        <time>2014-09-07T08:20:05.000Z</time>
      </trkpt>
      <trkpt lat="48.20209" lon="3.21483">
        <ele>175</ele>
        <time>2014-09-07T08:20:06.000Z</time>
      </trkpt>
      <trkpt lat="48.20209" lon="3.21483">
        <ele>175</ele>
        <time>2014-09-07T08:20:09.000Z</time>
      </trkpt>
      <trkpt lat="48.20201" lon="3.2147">
        <ele>175</ele>
        <time>2014-09-07T08:20:10.000Z</time>
      </trkpt>
      <trkpt lat="48.20201" lon="3.2147">
        <ele>175</ele>
        <time>2014-09-07T08:20:12.000Z</time>
      </trkpt>
      <trkpt lat="48.20192" lon="3.2146">
        <ele>175</ele>
        <time>2014-09-07T08:20:13.000Z</time>
      </trkpt>
      <trkpt lat="48.20192" lon="3.2146">
        <ele>175</ele>
        <time>2014-09-07T08:20:14.000Z</time>
      </trkpt>
      <trkpt lat="48.20185" lon="3.21451">
        <ele>175</ele>
        <time>2014-09-07T08:20:15.000Z</time>
      </trkpt>
      <trkpt lat="48.20185" lon="3.21451">
        <ele>175</ele>
        <time>2014-09-07T08:20:16.000Z</time>
      </trkpt>
      <trkpt lat="48.20177" lon="3.2144">
        <ele>174</ele>
        <time>2014-09-07T08:20:17.000Z</time>
      </trkpt>
      <trkpt lat="48.20177" lon="3.2144">
        <ele>174</ele>
        <time>2014-09-07T08:20:18.000Z</time>
      </trkpt>
      <trkpt lat="48.20169" lon="3.21427">
        <ele>174</ele>
        <time>2014-09-07T08:20:19.000Z</time>
      </trkpt>
      <trkpt lat="48.20165" lon="3.21421">
        <ele>174</ele>
        <time>2014-09-07T08:20:20.000Z</time>
      </trkpt>
      <trkpt lat="48.20161" lon="3.21414">
        <ele>173</ele>
        <time>2014-09-07T08:20:21.000Z</time>
      </trkpt>
      <trkpt lat="48.20158" lon="3.21408">
        <ele>173</ele>
        <time>2014-09-07T08:20:22.000Z</time>
      </trkpt>
      <trkpt lat="48.20155" lon="3.21402">
        <ele>173</ele>
        <time>2014-09-07T08:20:23.000Z</time>
      </trkpt>
      <trkpt lat="48.20151" lon="3.21397">
        <ele>173</ele>
        <time>2014-09-07T08:20:24.000Z</time>
      </trkpt>
      <trkpt lat="48.20147" lon="3.21391">
        <ele>173</ele>
        <time>2014-09-07T08:20:25.000Z</time>
      </trkpt>
      <trkpt lat="48.20144" lon="3.21387">
        <ele>173</ele>
        <time>2014-09-07T08:20:26.000Z</time>
      </trkpt>
      <trkpt lat="48.20141" lon="3.2138">
        <ele>173</ele>
        <time>2014-09-07T08:20:27.000Z</time>
      </trkpt>
      <trkpt lat="48.20137" lon="3.21376">
        <ele>173</ele>
        <time>2014-09-07T08:20:28.000Z</time>
      </trkpt>
      <trkpt lat="48.20132" lon="3.21369">
        <ele>173</ele>
        <time>2014-09-07T08:20:29.000Z</time>
      </trkpt>
      <trkpt lat="48.20128" lon="3.21365">
        <ele>173</ele>
        <time>2014-09-07T08:20:30.000Z</time>
      </trkpt>
      <trkpt lat="48.20123" lon="3.21359">
        <ele>173</ele>
        <time>2014-09-07T08:20:31.000Z</time>
      </trkpt>
      <trkpt lat="48.20117" lon="3.21352">
        <ele>173</ele>
        <time>2014-09-07T08:20:32.000Z</time>
      </trkpt>
      <trkpt lat="48.20112" lon="3.21348">
        <ele>173</ele>
        <time>2014-09-07T08:20:33.000Z</time>
      </trkpt>
      <trkpt lat="48.20107" lon="3.21344">
        <ele>173</ele>
        <time>2014-09-07T08:20:34.000Z</time>
      </trkpt>
      <trkpt lat="48.20101" lon="3.21342">
        <ele>173</ele>
        <time>2014-09-07T08:20:35.000Z</time>
      </trkpt>
      <trkpt lat="48.20096" lon="3.21339">
        <ele>173</ele>
        <time>2014-09-07T08:20:36.000Z</time>
      </trkpt>
      <trkpt lat="48.20091" lon="3.21335">
        <ele>172</ele>
        <time>2014-09-07T08:20:37.000Z</time>
      </trkpt>
      <trkpt lat="48.20086" lon="3.21331">
        <ele>172</ele>
        <time>2014-09-07T08:20:38.000Z</time>
      </trkpt>
      <trkpt lat="48.20083" lon="3.21326">
        <ele>172</ele>
        <time>2014-09-07T08:20:39.000Z</time>
      </trkpt>
      <trkpt lat="48.20079" lon="3.21322">
        <ele>172</ele>
        <time>2014-09-07T08:20:40.000Z</time>
      </trkpt>
      <trkpt lat="48.20076" lon="3.21318">
        <ele>172</ele>
        <time>2014-09-07T08:20:41.000Z</time>
      </trkpt>
      <trkpt lat="48.2007" lon="3.21316">
        <ele>172</ele>
        <time>2014-09-07T08:20:42.000Z</time>
      </trkpt>
      <trkpt lat="48.20066" lon="3.21314">
        <ele>172</ele>
        <time>2014-09-07T08:20:43.000Z</time>
      </trkpt>
      <trkpt lat="48.20063" lon="3.21309">
        <ele>172</ele>
        <time>2014-09-07T08:20:44.000Z</time>
      </trkpt>
      <trkpt lat="48.20058" lon="3.21307">
        <ele>172</ele>
        <time>2014-09-07T08:20:45.000Z</time>
      </trkpt>
      <trkpt lat="48.20054" lon="3.21305">
        <ele>172</ele>
        <time>2014-09-07T08:20:46.000Z</time>
      </trkpt>
      <trkpt lat="48.20051" lon="3.21303">
        <ele>172</ele>
        <time>2014-09-07T08:20:47.000Z</time>
      </trkpt>
      <trkpt lat="48.20048" lon="3.21299">
        <ele>172</ele>
        <time>2014-09-07T08:20:48.000Z</time>
      </trkpt>
      <trkpt lat="48.20044" lon="3.21296">
        <ele>172</ele>
        <time>2014-09-07T08:20:49.000Z</time>
      </trkpt>
      <trkpt lat="48.20041" lon="3.21294">
        <ele>172</ele>
        <time>2014-09-07T08:20:50.000Z</time>
      </trkpt>
      <trkpt lat="48.20038" lon="3.2129">
        <ele>172</ele>
        <time>2014-09-07T08:20:51.000Z</time>
      </trkpt>
      <trkpt lat="48.20035" lon="3.21288">
        <ele>172</ele>
        <time>2014-09-07T08:20:52.000Z</time>
      </trkpt>
      <trkpt lat="48.20032" lon="3.21286">
        <ele>172</ele>
        <time>2014-09-07T08:20:53.000Z</time>
      </trkpt>
      <trkpt lat="48.20028" lon="3.21284">
        <ele>172</ele>
        <time>2014-09-07T08:20:54.000Z</time>
      </trkpt>
      <trkpt lat="48.20025" lon="3.21281">
        <ele>172</ele>
        <time>2014-09-07T08:20:55.000Z</time>
      </trkpt>
      <trkpt lat="48.20022" lon="3.21277">
        <ele>172</ele>
        <time>2014-09-07T08:20:56.000Z</time>
      </trkpt>
      <trkpt lat="48.20019" lon="3.21275">
        <ele>172</ele>
        <time>2014-09-07T08:20:57.000Z</time>
      </trkpt>
      <trkpt lat="48.20015" lon="3.21273">
        <ele>172</ele>
        <time>2014-09-07T08:20:58.000Z</time>
      </trkpt>
      <trkpt lat="48.20012" lon="3.21271">
        <ele>172</ele>
        <time>2014-09-07T08:20:59.000Z</time>
      </trkpt>
      <trkpt lat="48.20009" lon="3.21269">
        <ele>172</ele>
        <time>2014-09-07T08:21:00.000Z</time>
      </trkpt>
      <trkpt lat="48.20007" lon="3.21266">
        <ele>172</ele>
        <time>2014-09-07T08:21:01.000Z</time>
      </trkpt>
      <trkpt lat="48.20005" lon="3.21264">
        <ele>172</ele>
        <time>2014-09-07T08:21:02.000Z</time>
      </trkpt>
      <trkpt lat="48.20003" lon="3.2126">
        <ele>172</ele>
        <time>2014-09-07T08:21:03.000Z</time>
      </trkpt>
      <trkpt lat="48.19999" lon="3.21258">
        <ele>173</ele>
        <time>2014-09-07T08:21:04.000Z</time>
      </trkpt>
      <trkpt lat="48.19997" lon="3.21256">
        <ele>173</ele>
        <time>2014-09-07T08:21:05.000Z</time>
      </trkpt>
      <trkpt lat="48.19995" lon="3.21254">
        <ele>173</ele>
        <time>2014-09-07T08:21:06.000Z</time>
      </trkpt>
      <trkpt lat="48.19993" lon="3.21251">
        <ele>173</ele>
        <time>2014-09-07T08:21:11.000Z</time>
      </trkpt>
      <trkpt lat="48.19989" lon="3.21249">
        <ele>173</ele>
        <time>2014-09-07T08:21:12.000Z</time>
      </trkpt>
      <trkpt lat="48.19989" lon="3.21249">
        <ele>173</ele>
        <time>2014-09-07T08:21:14.000Z</time>
      </trkpt>
      <trkpt lat="48.19982" lon="3.21245">
        <ele>173</ele>
        <time>2014-09-07T08:21:15.000Z</time>
      </trkpt>
      <trkpt lat="48.19978" lon="3.21243">
        <ele>174</ele>
        <time>2014-09-07T08:21:17.000Z</time>
      </trkpt>
      <trkpt lat="48.19976" lon="3.21241">
        <ele>174</ele>
        <time>2014-09-07T08:21:18.000Z</time>
      </trkpt>
      <trkpt lat="48.19973" lon="3.21239">
        <ele>174</ele>
        <time>2014-09-07T08:21:19.000Z</time>
      </trkpt>
      <trkpt lat="48.19969" lon="3.21234">
        <ele>174</ele>
        <time>2014-09-07T08:21:20.000Z</time>
      </trkpt>
      <trkpt lat="48.19967" lon="3.21232">
        <ele>174</ele>
        <time>2014-09-07T08:21:21.000Z</time>
      </trkpt>
      <trkpt lat="48.19963" lon="3.21228">
        <ele>174</ele>
        <time>2014-09-07T08:21:22.000Z</time>
      </trkpt>
      <trkpt lat="48.19959" lon="3.21226">
        <ele>174</ele>
        <time>2014-09-07T08:21:23.000Z</time>
      </trkpt>
      <trkpt lat="48.19955" lon="3.21221">
        <ele>174</ele>
        <time>2014-09-07T08:21:24.000Z</time>
      </trkpt>
      <trkpt lat="48.19951" lon="3.21217">
        <ele>175</ele>
        <time>2014-09-07T08:21:25.000Z</time>
      </trkpt>
      <trkpt lat="48.19947" lon="3.21215">
        <ele>175</ele>
        <time>2014-09-07T08:21:26.000Z</time>
      </trkpt>
      <trkpt lat="48.19944" lon="3.21211">
        <ele>175</ele>
        <time>2014-09-07T08:21:27.000Z</time>
      </trkpt>
      <trkpt lat="48.19939" lon="3.21208">
        <ele>175</ele>
        <time>2014-09-07T08:21:28.000Z</time>
      </trkpt>
      <trkpt lat="48.19935" lon="3.21204">
        <ele>175</ele>
        <time>2014-09-07T08:21:29.000Z</time>
      </trkpt>
      <trkpt lat="48.19931" lon="3.21202">
        <ele>175</ele>
        <time>2014-09-07T08:21:30.000Z</time>
      </trkpt>
      <trkpt lat="48.19926" lon="3.212">
        <ele>175</ele>
        <time>2014-09-07T08:21:31.000Z</time>
      </trkpt>
      <trkpt lat="48.19922" lon="3.21198">
        <ele>175</ele>
        <time>2014-09-07T08:21:32.000Z</time>
      </trkpt>
      <trkpt lat="48.19918" lon="3.21196">
        <ele>175</ele>
        <time>2014-09-07T08:21:33.000Z</time>
      </trkpt>
      <trkpt lat="48.19915" lon="3.21193">
        <ele>179</ele>
        <time>2014-09-07T08:21:34.000Z</time>
      </trkpt>
      <trkpt lat="48.1991" lon="3.21191">
        <ele>179</ele>
        <time>2014-09-07T08:21:35.000Z</time>
      </trkpt>
      <trkpt lat="48.19907" lon="3.21189">
        <ele>179</ele>
        <time>2014-09-07T08:21:36.000Z</time>
      </trkpt>
      <trkpt lat="48.19904" lon="3.21187">
        <ele>179</ele>
        <time>2014-09-07T08:21:37.000Z</time>
      </trkpt>
      <trkpt lat="48.19903" lon="3.21183">
        <ele>179</ele>
        <time>2014-09-07T08:21:42.000Z</time>
      </trkpt>
      <trkpt lat="48.19903" lon="3.21176">
        <ele>178</ele>
        <time>2014-09-07T08:21:43.000Z</time>
      </trkpt>
      <trkpt lat="48.19904" lon="3.21174">
        <ele>178</ele>
        <time>2014-09-07T08:21:44.000Z</time>
      </trkpt>
      <trkpt lat="48.19905" lon="3.2117">
        <ele>178</ele>
        <time>2014-09-07T08:21:45.000Z</time>
      </trkpt>
      <trkpt lat="48.19906" lon="3.21163">
        <ele>178</ele>
        <time>2014-09-07T08:21:47.000Z</time>
      </trkpt>
      <trkpt lat="48.19907" lon="3.21161">
        <ele>178</ele>
        <time>2014-09-07T08:21:48.000Z</time>
      </trkpt>
      <trkpt lat="48.19908" lon="3.21159">
        <ele>178</ele>
        <time>2014-09-07T08:21:49.000Z</time>
      </trkpt>
      <trkpt lat="48.19909" lon="3.21155">
        <ele>178</ele>
        <time>2014-09-07T08:21:50.000Z</time>
      </trkpt>
      <trkpt lat="48.1991" lon="3.21153">
        <ele>178</ele>
        <time>2014-09-07T08:21:51.000Z</time>
      </trkpt>
      <trkpt lat="48.19911" lon="3.21148">
        <ele>178</ele>
        <time>2014-09-07T08:21:52.000Z</time>
      </trkpt>
      <trkpt lat="48.19912" lon="3.21146">
        <ele>178</ele>
        <time>2014-09-07T08:21:53.000Z</time>
      </trkpt>
      <trkpt lat="48.19914" lon="3.21142">
        <ele>178</ele>
        <time>2014-09-07T08:21:54.000Z</time>
      </trkpt>
      <trkpt lat="48.19915" lon="3.21138">
        <ele>179</ele>
        <time>2014-09-07T08:21:55.000Z</time>
      </trkpt>
      <trkpt lat="48.19916" lon="3.21136">
        <ele>179</ele>
        <time>2014-09-07T08:21:56.000Z</time>
      </trkpt>
      <trkpt lat="48.19917" lon="3.21131">
        <ele>174</ele>
        <time>2014-09-07T08:22:01.000Z</time>
      </trkpt>
      <trkpt lat="48.19921" lon="3.21116">
        <ele>174</ele>
        <time>2014-09-07T08:22:02.000Z</time>
      </trkpt>
      <trkpt lat="48.19921" lon="3.21116">
        <ele>174</ele>
        <time>2014-09-07T08:22:04.000Z</time>
      </trkpt>
      <trkpt lat="48.19924" lon="3.21105">
        <ele>174</ele>
        <time>2014-09-07T08:22:05.000Z</time>
      </trkpt>
      <trkpt lat="48.19926" lon="3.21101">
        <ele>174</ele>
        <time>2014-09-07T08:22:06.000Z</time>
      </trkpt>
      <trkpt lat="48.19927" lon="3.21095">
        <ele>174</ele>
        <time>2014-09-07T08:22:07.000Z</time>
      </trkpt>
      <trkpt lat="48.19929" lon="3.2109">
        <ele>175</ele>
        <time>2014-09-07T08:22:08.000Z</time>
      </trkpt>
      <trkpt lat="48.19929" lon="3.21084">
        <ele>175</ele>
        <time>2014-09-07T08:22:09.000Z</time>
      </trkpt>
      <trkpt lat="48.1993" lon="3.2108">
        <ele>175</ele>
        <time>2014-09-07T08:22:10.000Z</time>
      </trkpt>
      <trkpt lat="48.19931" lon="3.21075">
        <ele>175</ele>
        <time>2014-09-07T08:22:11.000Z</time>
      </trkpt>
      <trkpt lat="48.19931" lon="3.21069">
        <ele>175</ele>
        <time>2014-09-07T08:22:12.000Z</time>
      </trkpt>
      <trkpt lat="48.19932" lon="3.21065">
        <ele>175</ele>
        <time>2014-09-07T08:22:13.000Z</time>
      </trkpt>
      <trkpt lat="48.19933" lon="3.21058">
        <ele>175</ele>
        <time>2014-09-07T08:22:14.000Z</time>
      </trkpt>
      <trkpt lat="48.19933" lon="3.21054">
        <ele>175</ele>
        <time>2014-09-07T08:22:15.000Z</time>
      </trkpt>
      <trkpt lat="48.19934" lon="3.21048">
        <ele>175</ele>
        <time>2014-09-07T08:22:16.000Z</time>
      </trkpt>
      <trkpt lat="48.19935" lon="3.21043">
        <ele>175</ele>
        <time>2014-09-07T08:22:17.000Z</time>
      </trkpt>
      <trkpt lat="48.19935" lon="3.21037">
        <ele>175</ele>
        <time>2014-09-07T08:22:18.000Z</time>
      </trkpt>
      <trkpt lat="48.19936" lon="3.21033">
        <ele>175</ele>
        <time>2014-09-07T08:22:19.000Z</time>
      </trkpt>
      <trkpt lat="48.19937" lon="3.21026">
        <ele>175</ele>
        <time>2014-09-07T08:22:20.000Z</time>
      </trkpt>
      <trkpt lat="48.19937" lon="3.2102">
        <ele>175</ele>
        <time>2014-09-07T08:22:21.000Z</time>
      </trkpt>
      <trkpt lat="48.19938" lon="3.21013">
        <ele>175</ele>
        <time>2014-09-07T08:22:22.000Z</time>
      </trkpt>
      <trkpt lat="48.19939" lon="3.21009">
        <ele>175</ele>
        <time>2014-09-07T08:22:23.000Z</time>
      </trkpt>
      <trkpt lat="48.19939" lon="3.21002">
        <ele>175</ele>
        <time>2014-09-07T08:22:24.000Z</time>
      </trkpt>
      <trkpt lat="48.1994" lon="3.20996">
        <ele>176</ele>
        <time>2014-09-07T08:22:25.000Z</time>
      </trkpt>
      <trkpt lat="48.19941" lon="3.20992">
        <ele>176</ele>
        <time>2014-09-07T08:22:26.000Z</time>
      </trkpt>
      <trkpt lat="48.19941" lon="3.20985">
        <ele>176</ele>
        <time>2014-09-07T08:22:27.000Z</time>
      </trkpt>
      <trkpt lat="48.19942" lon="3.20979">
        <ele>176</ele>
        <time>2014-09-07T08:22:28.000Z</time>
      </trkpt>
      <trkpt lat="48.19942" lon="3.20975">
        <ele>176</ele>
        <time>2014-09-07T08:22:29.000Z</time>
      </trkpt>
      <trkpt lat="48.19944" lon="3.20968">
        <ele>176</ele>
        <time>2014-09-07T08:22:30.000Z</time>
      </trkpt>
      <trkpt lat="48.19944" lon="3.20962">
        <ele>176</ele>
        <time>2014-09-07T08:22:31.000Z</time>
      </trkpt>
      <trkpt lat="48.19945" lon="3.20957">
        <ele>176</ele>
        <time>2014-09-07T08:22:32.000Z</time>
      </trkpt>
      <trkpt lat="48.19945" lon="3.20951">
        <ele>176</ele>
        <time>2014-09-07T08:22:33.000Z</time>
      </trkpt>
      <trkpt lat="48.19945" lon="3.20947">
        <ele>176</ele>
        <time>2014-09-07T08:22:34.000Z</time>
      </trkpt>
      <trkpt lat="48.19944" lon="3.2094">
        <ele>176</ele>
        <time>2014-09-07T08:22:35.000Z</time>
      </trkpt>
      <trkpt lat="48.19945" lon="3.20936">
        <ele>176</ele>
        <time>2014-09-07T08:22:36.000Z</time>
      </trkpt>
      <trkpt lat="48.19945" lon="3.2093">
        <ele>176</ele>
        <time>2014-09-07T08:22:37.000Z</time>
      </trkpt>
      <trkpt lat="48.19945" lon="3.20925">
        <ele>176</ele>
        <time>2014-09-07T08:22:38.000Z</time>
      </trkpt>
      <trkpt lat="48.19945" lon="3.20919">
        <ele>176</ele>
        <time>2014-09-07T08:22:39.000Z</time>
      </trkpt>
      <trkpt lat="48.19946" lon="3.20915">
        <ele>177</ele>
        <time>2014-09-07T08:22:40.000Z</time>
      </trkpt>
      <trkpt lat="48.19946" lon="3.20908">
        <ele>177</ele>
        <time>2014-09-07T08:22:41.000Z</time>
      </trkpt>
      <trkpt lat="48.19946" lon="3.20904">
        <ele>177</ele>
        <time>2014-09-07T08:22:42.000Z</time>
      </trkpt>
      <trkpt lat="48.19947" lon="3.20899">
        <ele>177</ele>
        <time>2014-09-07T08:22:43.000Z</time>
      </trkpt>
      <trkpt lat="48.19947" lon="3.20893">
        <ele>177</ele>
        <time>2014-09-07T08:22:44.000Z</time>
      </trkpt>
      <trkpt lat="48.19948" lon="3.20887">
        <ele>177</ele>
        <time>2014-09-07T08:22:45.000Z</time>
      </trkpt>
      <trkpt lat="48.19948" lon="3.2088">
        <ele>177</ele>
        <time>2014-09-07T08:22:46.000Z</time>
      </trkpt>
      <trkpt lat="48.19948" lon="3.20876">
        <ele>177</ele>
        <time>2014-09-07T08:22:47.000Z</time>
      </trkpt>
      <trkpt lat="48.19948" lon="3.20869">
        <ele>177</ele>
        <time>2014-09-07T08:22:48.000Z</time>
      </trkpt>
      <trkpt lat="48.19948" lon="3.20863">
        <ele>177</ele>
        <time>2014-09-07T08:22:49.000Z</time>
      </trkpt>
      <trkpt lat="48.19949" lon="3.20857">
        <ele>177</ele>
        <time>2014-09-07T08:22:50.000Z</time>
      </trkpt>
      <trkpt lat="48.19949" lon="3.2085">
        <ele>177</ele>
        <time>2014-09-07T08:22:51.000Z</time>
      </trkpt>
      <trkpt lat="48.1995" lon="3.20844">
        <ele>178</ele>
        <time>2014-09-07T08:22:52.000Z</time>
      </trkpt>
      <trkpt lat="48.1995" lon="3.20835">
        <ele>178</ele>
        <time>2014-09-07T08:22:53.000Z</time>
      </trkpt>
      <trkpt lat="48.1995" lon="3.20829">
        <ele>178</ele>
        <time>2014-09-07T08:22:54.000Z</time>
      </trkpt>
      <trkpt lat="48.19951" lon="3.20822">
        <ele>178</ele>
        <time>2014-09-07T08:22:55.000Z</time>
      </trkpt>
      <trkpt lat="48.19951" lon="3.20814">
        <ele>178</ele>
        <time>2014-09-07T08:22:56.000Z</time>
      </trkpt>
      <trkpt lat="48.19951" lon="3.20807">
        <ele>178</ele>
        <time>2014-09-07T08:22:57.000Z</time>
      </trkpt>
      <trkpt lat="48.19951" lon="3.20801">
        <ele>178</ele>
        <time>2014-09-07T08:22:58.000Z</time>
      </trkpt>
      <trkpt lat="48.19952" lon="3.20792">
        <ele>178</ele>
        <time>2014-09-07T08:22:59.000Z</time>
      </trkpt>
      <trkpt lat="48.19952" lon="3.20786">
        <ele>178</ele>
        <time>2014-09-07T08:23:00.000Z</time>
      </trkpt>
      <trkpt lat="48.19953" lon="3.20779">
        <ele>179</ele>
        <time>2014-09-07T08:23:01.000Z</time>
      </trkpt>
      <trkpt lat="48.19953" lon="3.20773">
        <ele>179</ele>
        <time>2014-09-07T08:23:02.000Z</time>
      </trkpt>
      <trkpt lat="48.19953" lon="3.20766">
        <ele>179</ele>
        <time>2014-09-07T08:23:03.000Z</time>
      </trkpt>
      <trkpt lat="48.19954" lon="3.2076">
        <ele>179</ele>
        <time>2014-09-07T08:23:04.000Z</time>
      </trkpt>
      <trkpt lat="48.19954" lon="3.20754">
        <ele>179</ele>
        <time>2014-09-07T08:23:05.000Z</time>
      </trkpt>
      <trkpt lat="48.19954" lon="3.20747">
        <ele>179</ele>
        <time>2014-09-07T08:23:06.000Z</time>
      </trkpt>
      <trkpt lat="48.19954" lon="3.20741">
        <ele>179</ele>
        <time>2014-09-07T08:23:07.000Z</time>
      </trkpt>
      <trkpt lat="48.19954" lon="3.20732">
        <ele>179</ele>
        <time>2014-09-07T08:23:08.000Z</time>
      </trkpt>
      <trkpt lat="48.19953" lon="3.20724">
        <ele>179</ele>
        <time>2014-09-07T08:23:09.000Z</time>
      </trkpt>
      <trkpt lat="48.19953" lon="3.20715">
        <ele>179</ele>
        <time>2014-09-07T08:23:10.000Z</time>
      </trkpt>
      <trkpt lat="48.19952" lon="3.20709">
        <ele>179</ele>
        <time>2014-09-07T08:23:11.000Z</time>
      </trkpt>
      <trkpt lat="48.19951" lon="3.207">
        <ele>179</ele>
        <time>2014-09-07T08:23:12.000Z</time>
      </trkpt>
      <trkpt lat="48.1995" lon="3.20691">
        <ele>179</ele>
        <time>2014-09-07T08:23:13.000Z</time>
      </trkpt>
      <trkpt lat="48.19949" lon="3.20681">
        <ele>179</ele>
        <time>2014-09-07T08:23:14.000Z</time>
      </trkpt>
      <trkpt lat="48.19948" lon="3.20672">
        <ele>179</ele>
        <time>2014-09-07T08:23:15.000Z</time>
      </trkpt>
      <trkpt lat="48.19947" lon="3.20661">
        <ele>179</ele>
        <time>2014-09-07T08:23:16.000Z</time>
      </trkpt>
      <trkpt lat="48.19947" lon="3.20651">
        <ele>179</ele>
        <time>2014-09-07T08:23:17.000Z</time>
      </trkpt>
      <trkpt lat="48.19947" lon="3.2064">
        <ele>179</ele>
        <time>2014-09-07T08:23:18.000Z</time>
      </trkpt>
      <trkpt lat="48.19946" lon="3.20631">
        <ele>179</ele>
        <time>2014-09-07T08:23:19.000Z</time>
      </trkpt>
      <trkpt lat="48.19946" lon="3.20621">
        <ele>179</ele>
        <time>2014-09-07T08:23:20.000Z</time>
      </trkpt>
      <trkpt lat="48.19946" lon="3.2061">
        <ele>179</ele>
        <time>2014-09-07T08:23:21.000Z</time>
      </trkpt>
      <trkpt lat="48.19945" lon="3.20601">
        <ele>179</ele>
        <time>2014-09-07T08:23:22.000Z</time>
      </trkpt>
      <trkpt lat="48.19945" lon="3.2059">
        <ele>179</ele>
        <time>2014-09-07T08:23:23.000Z</time>
      </trkpt>
      <trkpt lat="48.19945" lon="3.20582">
        <ele>178</ele>
        <time>2014-09-07T08:23:24.000Z</time>
      </trkpt>
      <trkpt lat="48.19945" lon="3.20573">
        <ele>178</ele>
        <time>2014-09-07T08:23:25.000Z</time>
      </trkpt>
      <trkpt lat="48.19944" lon="3.20563">
        <ele>178</ele>
        <time>2014-09-07T08:23:26.000Z</time>
      </trkpt>
      <trkpt lat="48.19944" lon="3.20554">
        <ele>178</ele>
        <time>2014-09-07T08:23:27.000Z</time>
      </trkpt>
      <trkpt lat="48.19944" lon="3.20545">
        <ele>178</ele>
        <time>2014-09-07T08:23:28.000Z</time>
      </trkpt>
      <trkpt lat="48.19942" lon="3.20537">
        <ele>178</ele>
        <time>2014-09-07T08:23:29.000Z</time>
      </trkpt>
      <trkpt lat="48.19942" lon="3.20526">
        <ele>178</ele>
        <time>2014-09-07T08:23:30.000Z</time>
      </trkpt>
      <trkpt lat="48.19941" lon="3.20518">
        <ele>178</ele>
        <time>2014-09-07T08:23:31.000Z</time>
      </trkpt>
      <trkpt lat="48.19941" lon="3.20509">
        <ele>178</ele>
        <time>2014-09-07T08:23:32.000Z</time>
      </trkpt>
      <trkpt lat="48.1994" lon="3.20498">
        <ele>177</ele>
        <time>2014-09-07T08:23:33.000Z</time>
      </trkpt>
      <trkpt lat="48.1994" lon="3.2049">
        <ele>177</ele>
        <time>2014-09-07T08:23:34.000Z</time>
      </trkpt>
      <trkpt lat="48.1994" lon="3.20479">
        <ele>177</ele>
        <time>2014-09-07T08:23:35.000Z</time>
      </trkpt>
      <trkpt lat="48.19939" lon="3.2047">
        <ele>177</ele>
        <time>2014-09-07T08:23:36.000Z</time>
      </trkpt>
      <trkpt lat="48.19939" lon="3.20462">
        <ele>177</ele>
        <time>2014-09-07T08:23:37.000Z</time>
      </trkpt>
      <trkpt lat="48.19938" lon="3.20453">
        <ele>177</ele>
        <time>2014-09-07T08:23:38.000Z</time>
      </trkpt>
      <trkpt lat="48.19938" lon="3.20442">
        <ele>177</ele>
        <time>2014-09-07T08:23:39.000Z</time>
      </trkpt>
      <trkpt lat="48.19938" lon="3.20434">
        <ele>177</ele>
        <time>2014-09-07T08:23:40.000Z</time>
      </trkpt>
      <trkpt lat="48.19937" lon="3.20423">
        <ele>177</ele>
        <time>2014-09-07T08:23:41.000Z</time>
      </trkpt>
      <trkpt lat="48.19937" lon="3.20415">
        <ele>176</ele>
        <time>2014-09-07T08:23:42.000Z</time>
      </trkpt>
      <trkpt lat="48.19936" lon="3.20406">
        <ele>176</ele>
        <time>2014-09-07T08:23:43.000Z</time>
      </trkpt>
      <trkpt lat="48.19935" lon="3.20395">
        <ele>176</ele>
        <time>2014-09-07T08:23:44.000Z</time>
      </trkpt>
      <trkpt lat="48.19935" lon="3.20387">
        <ele>176</ele>
        <time>2014-09-07T08:23:45.000Z</time>
      </trkpt>
      <trkpt lat="48.19934" lon="3.20376">
        <ele>176</ele>
        <time>2014-09-07T08:23:46.000Z</time>
      </trkpt>
      <trkpt lat="48.19934" lon="3.20365">
        <ele>176</ele>
        <time>2014-09-07T08:23:47.000Z</time>
      </trkpt>
      <trkpt lat="48.19933" lon="3.20357">
        <ele>176</ele>
        <time>2014-09-07T08:23:48.000Z</time>
      </trkpt>
      <trkpt lat="48.19933" lon="3.20346">
        <ele>176</ele>
        <time>2014-09-07T08:23:49.000Z</time>
      </trkpt>
      <trkpt lat="48.19933" lon="3.20335">
        <ele>176</ele>
        <time>2014-09-07T08:23:50.000Z</time>
      </trkpt>
      <trkpt lat="48.19933" lon="3.20324">
        <ele>176</ele>
        <time>2014-09-07T08:23:51.000Z</time>
      </trkpt>
      <trkpt lat="48.19935" lon="3.20316">
        <ele>176</ele>
        <time>2014-09-07T08:23:52.000Z</time>
      </trkpt>
      <trkpt lat="48.19938" lon="3.20305">
        <ele>175</ele>
        <time>2014-09-07T08:23:53.000Z</time>
      </trkpt>
      <trkpt lat="48.19941" lon="3.20297">
        <ele>175</ele>
        <time>2014-09-07T08:23:54.000Z</time>
      </trkpt>
      <trkpt lat="48.19947" lon="3.2029">
        <ele>175</ele>
        <time>2014-09-07T08:23:55.000Z</time>
      </trkpt>
      <trkpt lat="48.19952" lon="3.20282">
        <ele>175</ele>
        <time>2014-09-07T08:23:56.000Z</time>
      </trkpt>
      <trkpt lat="48.19957" lon="3.20275">
        <ele>175</ele>
        <time>2014-09-07T08:23:57.000Z</time>
      </trkpt>
      <trkpt lat="48.19963" lon="3.20269">
        <ele>175</ele>
        <time>2014-09-07T08:23:58.000Z</time>
      </trkpt>
      <trkpt lat="48.19968" lon="3.20264">
        <ele>175</ele>
        <time>2014-09-07T08:23:59.000Z</time>
      </trkpt>
      <trkpt lat="48.19974" lon="3.20258">
        <ele>175</ele>
        <time>2014-09-07T08:24:00.000Z</time>
      </trkpt>
      <trkpt lat="48.19978" lon="3.20254">
        <ele>175</ele>
        <time>2014-09-07T08:24:01.000Z</time>
      </trkpt>
      <trkpt lat="48.19982" lon="3.20249">
        <ele>174</ele>
        <time>2014-09-07T08:24:02.000Z</time>
      </trkpt>
      <trkpt lat="48.19986" lon="3.20245">
        <ele>174</ele>
        <time>2014-09-07T08:24:03.000Z</time>
      </trkpt>
      <trkpt lat="48.19991" lon="3.20239">
        <ele>174</ele>
        <time>2014-09-07T08:24:04.000Z</time>
      </trkpt>
      <trkpt lat="48.19995" lon="3.20234">
        <ele>174</ele>
        <time>2014-09-07T08:24:05.000Z</time>
      </trkpt>
      <trkpt lat="48.19999" lon="3.2023">
        <ele>174</ele>
        <time>2014-09-07T08:24:06.000Z</time>
      </trkpt>
      <trkpt lat="48.20003" lon="3.20224">
        <ele>174</ele>
        <time>2014-09-07T08:24:07.000Z</time>
      </trkpt>
      <trkpt lat="48.20006" lon="3.20217">
        <ele>174</ele>
        <time>2014-09-07T08:24:08.000Z</time>
      </trkpt>
      <trkpt lat="48.20007" lon="3.20209">
        <ele>174</ele>
        <time>2014-09-07T08:24:09.000Z</time>
      </trkpt>
      <trkpt lat="48.20007" lon="3.202">
        <ele>174</ele>
        <time>2014-09-07T08:24:10.000Z</time>
      </trkpt>
      <trkpt lat="48.20006" lon="3.20191">
        <ele>174</ele>
        <time>2014-09-07T08:24:11.000Z</time>
      </trkpt>
      <trkpt lat="48.20004" lon="3.20183">
        <ele>174</ele>
        <time>2014-09-07T08:24:12.000Z</time>
      </trkpt>
      <trkpt lat="48.20001" lon="3.20174">
        <ele>174</ele>
        <time>2014-09-07T08:24:13.000Z</time>
      </trkpt>
      <trkpt lat="48.19998" lon="3.20166">
        <ele>174</ele>
        <time>2014-09-07T08:24:14.000Z</time>
      </trkpt>
      <trkpt lat="48.19995" lon="3.20159">
        <ele>174</ele>
        <time>2014-09-07T08:24:15.000Z</time>
      </trkpt>
      <trkpt lat="48.19992" lon="3.20151">
        <ele>174</ele>
        <time>2014-09-07T08:24:16.000Z</time>
      </trkpt>
      <trkpt lat="48.19989" lon="3.20142">
        <ele>174</ele>
        <time>2014-09-07T08:24:17.000Z</time>
      </trkpt>
      <trkpt lat="48.19984" lon="3.20133">
        <ele>174</ele>
        <time>2014-09-07T08:24:18.000Z</time>
      </trkpt>
      <trkpt lat="48.1998" lon="3.20125">
        <ele>174</ele>
        <time>2014-09-07T08:24:19.000Z</time>
      </trkpt>
      <trkpt lat="48.19977" lon="3.20118">
        <ele>174</ele>
        <time>2014-09-07T08:24:20.000Z</time>
      </trkpt>
      <trkpt lat="48.19973" lon="3.2011">
        <ele>174</ele>
        <time>2014-09-07T08:24:21.000Z</time>
      </trkpt>
      <trkpt lat="48.19968" lon="3.20101">
        <ele>174</ele>
        <time>2014-09-07T08:24:22.000Z</time>
      </trkpt>
      <trkpt lat="48.19964" lon="3.20093">
        <ele>174</ele>
        <time>2014-09-07T08:24:23.000Z</time>
      </trkpt>
      <trkpt lat="48.19961" lon="3.20084">
        <ele>174</ele>
        <time>2014-09-07T08:24:24.000Z</time>
      </trkpt>
      <trkpt lat="48.19956" lon="3.20078">
        <ele>174</ele>
        <time>2014-09-07T08:24:25.000Z</time>
      </trkpt>
      <trkpt lat="48.19952" lon="3.20069">
        <ele>174</ele>
        <time>2014-09-07T08:24:26.000Z</time>
      </trkpt>
      <trkpt lat="48.19948" lon="3.2006">
        <ele>174</ele>
        <time>2014-09-07T08:24:27.000Z</time>
      </trkpt>
      <trkpt lat="48.19944" lon="3.20052">
        <ele>174</ele>
        <time>2014-09-07T08:24:28.000Z</time>
      </trkpt>
      <trkpt lat="48.19939" lon="3.20045">
        <ele>174</ele>
        <time>2014-09-07T08:24:29.000Z</time>
      </trkpt>
      <trkpt lat="48.19935" lon="3.20039">
        <ele>174</ele>
        <time>2014-09-07T08:24:30.000Z</time>
      </trkpt>
      <trkpt lat="48.19932" lon="3.20033">
        <ele>174</ele>
        <time>2014-09-07T08:24:31.000Z</time>
      </trkpt>
      <trkpt lat="48.19929" lon="3.20026">
        <ele>174</ele>
        <time>2014-09-07T08:24:32.000Z</time>
      </trkpt>
      <trkpt lat="48.19925" lon="3.2002">
        <ele>174</ele>
        <time>2014-09-07T08:24:33.000Z</time>
      </trkpt>
      <trkpt lat="48.19923" lon="3.20013">
        <ele>173</ele>
        <time>2014-09-07T08:24:34.000Z</time>
      </trkpt>
      <trkpt lat="48.19922" lon="3.20009">
        <ele>173</ele>
        <time>2014-09-07T08:24:35.000Z</time>
      </trkpt>
      <trkpt lat="48.19922" lon="3.20003">
        <ele>173</ele>
        <time>2014-09-07T08:24:36.000Z</time>
      </trkpt>
      <trkpt lat="48.19922" lon="3.19998">
        <ele>173</ele>
        <time>2014-09-07T08:24:37.000Z</time>
      </trkpt>
      <trkpt lat="48.19924" lon="3.19996">
        <ele>173</ele>
        <time>2014-09-07T08:24:38.000Z</time>
      </trkpt>
      <trkpt lat="48.19927" lon="3.19994">
        <ele>174</ele>
        <time>2014-09-07T08:24:39.000Z</time>
      </trkpt>
      <trkpt lat="48.19931" lon="3.19998">
        <ele>174</ele>
        <time>2014-09-07T08:24:40.000Z</time>
      </trkpt>
      <trkpt lat="48.19934" lon="3.20003">
        <ele>173</ele>
        <time>2014-09-07T08:24:41.000Z</time>
      </trkpt>
      <trkpt lat="48.19936" lon="3.20007">
        <ele>173</ele>
        <time>2014-09-07T08:24:42.000Z</time>
      </trkpt>
      <trkpt lat="48.19939" lon="3.20011">
        <ele>174</ele>
        <time>2014-09-07T08:24:43.000Z</time>
      </trkpt>
      <trkpt lat="48.19942" lon="3.20015">
        <ele>174</ele>
        <time>2014-09-07T08:24:44.000Z</time>
      </trkpt>
      <trkpt lat="48.19946" lon="3.2002">
        <ele>174</ele>
        <time>2014-09-07T08:24:45.000Z</time>
      </trkpt>
      <trkpt lat="48.19948" lon="3.20026">
        <ele>174</ele>
        <time>2014-09-07T08:24:46.000Z</time>
      </trkpt>
      <trkpt lat="48.19951" lon="3.2003">
        <ele>174</ele>
        <time>2014-09-07T08:24:47.000Z</time>
      </trkpt>
      <trkpt lat="48.19953" lon="3.20035">
        <ele>174</ele>
        <time>2014-09-07T08:24:48.000Z</time>
      </trkpt>
      <trkpt lat="48.19956" lon="3.20041">
        <ele>174</ele>
        <time>2014-09-07T08:24:49.000Z</time>
      </trkpt>
      <trkpt lat="48.19959" lon="3.20045">
        <ele>174</ele>
        <time>2014-09-07T08:24:50.000Z</time>
      </trkpt>
      <trkpt lat="48.19962" lon="3.2005">
        <ele>174</ele>
        <time>2014-09-07T08:24:51.000Z</time>
      </trkpt>
      <trkpt lat="48.19964" lon="3.20056">
        <ele>174</ele>
        <time>2014-09-07T08:24:52.000Z</time>
      </trkpt>
      <trkpt lat="48.19967" lon="3.2006">
        <ele>174</ele>
        <time>2014-09-07T08:24:53.000Z</time>
      </trkpt>
      <trkpt lat="48.1997" lon="3.20065">
        <ele>174</ele>
        <time>2014-09-07T08:24:54.000Z</time>
      </trkpt>
      <trkpt lat="48.19973" lon="3.20069">
        <ele>174</ele>
        <time>2014-09-07T08:24:55.000Z</time>
      </trkpt>
      <trkpt lat="48.19976" lon="3.20076">
        <ele>174</ele>
        <time>2014-09-07T08:24:56.000Z</time>
      </trkpt>
      <trkpt lat="48.19979" lon="3.2008">
        <ele>174</ele>
        <time>2014-09-07T08:24:57.000Z</time>
      </trkpt>
      <trkpt lat="48.19982" lon="3.20086">
        <ele>174</ele>
        <time>2014-09-07T08:24:58.000Z</time>
      </trkpt>
      <trkpt lat="48.19984" lon="3.20091">
        <ele>174</ele>
        <time>2014-09-07T08:24:59.000Z</time>
      </trkpt>
      <trkpt lat="48.19988" lon="3.20095">
        <ele>174</ele>
        <time>2014-09-07T08:25:00.000Z</time>
      </trkpt>
      <trkpt lat="48.19991" lon="3.20099">
        <ele>174</ele>
        <time>2014-09-07T08:25:01.000Z</time>
      </trkpt>
      <trkpt lat="48.19992" lon="3.20103">
        <ele>174</ele>
        <time>2014-09-07T08:25:02.000Z</time>
      </trkpt>
      <trkpt lat="48.19992" lon="3.20103">
        <ele>174</ele>
        <time>2014-09-07T08:25:43.000Z</time>
      </trkpt>
      <trkpt lat="48.19995" lon="3.2011">
        <ele>174</ele>
        <time>2014-09-07T08:25:44.000Z</time>
      </trkpt>
      <trkpt lat="48.19995" lon="3.2011">
        <ele>174</ele>
        <time>2014-09-07T08:25:45.000Z</time>
      </trkpt>
      <trkpt lat="48.19998" lon="3.20116">
        <ele>174</ele>
        <time>2014-09-07T08:25:46.000Z</time>
      </trkpt>
      <trkpt lat="48.19999" lon="3.20121">
        <ele>174</ele>
        <time>2014-09-07T08:25:47.000Z</time>
      </trkpt>
      <trkpt lat="48.20001" lon="3.20125">
        <ele>174</ele>
        <time>2014-09-07T08:25:48.000Z</time>
      </trkpt>
      <trkpt lat="48.20004" lon="3.20131">
        <ele>174</ele>
        <time>2014-09-07T08:25:49.000Z</time>
      </trkpt>
      <trkpt lat="48.20006" lon="3.20136">
        <ele>174</ele>
        <time>2014-09-07T08:25:50.000Z</time>
      </trkpt>
      <trkpt lat="48.20008" lon="3.20142">
        <ele>174</ele>
        <time>2014-09-07T08:25:51.000Z</time>
      </trkpt>
      <trkpt lat="48.2001" lon="3.20146">
        <ele>174</ele>
        <time>2014-09-07T08:25:52.000Z</time>
      </trkpt>
      <trkpt lat="48.20012" lon="3.20153">
        <ele>174</ele>
        <time>2014-09-07T08:25:53.000Z</time>
      </trkpt>
      <trkpt lat="48.20014" lon="3.20159">
        <ele>174</ele>
        <time>2014-09-07T08:25:54.000Z</time>
      </trkpt>
      <trkpt lat="48.20017" lon="3.20163">
        <ele>174</ele>
        <time>2014-09-07T08:25:55.000Z</time>
      </trkpt>
      <trkpt lat="48.20019" lon="3.2017">
        <ele>174</ele>
        <time>2014-09-07T08:25:56.000Z</time>
      </trkpt>
      <trkpt lat="48.2002" lon="3.20176">
        <ele>174</ele>
        <time>2014-09-07T08:25:57.000Z</time>
      </trkpt>
      <trkpt lat="48.20021" lon="3.20181">
        <ele>174</ele>
        <time>2014-09-07T08:25:58.000Z</time>
      </trkpt>
      <trkpt lat="48.20022" lon="3.20187">
        <ele>174</ele>
        <time>2014-09-07T08:25:59.000Z</time>
      </trkpt>
      <trkpt lat="48.20022" lon="3.20194">
        <ele>174</ele>
        <time>2014-09-07T08:26:00.000Z</time>
      </trkpt>
      <trkpt lat="48.20023" lon="3.20198">
        <ele>174</ele>
        <time>2014-09-07T08:26:01.000Z</time>
      </trkpt>
      <trkpt lat="48.20024" lon="3.20204">
        <ele>174</ele>
        <time>2014-09-07T08:26:02.000Z</time>
      </trkpt>
      <trkpt lat="48.20025" lon="3.20209">
        <ele>174</ele>
        <time>2014-09-07T08:26:03.000Z</time>
      </trkpt>
      <trkpt lat="48.20025" lon="3.20215">
        <ele>174</ele>
        <time>2014-09-07T08:26:04.000Z</time>
      </trkpt>
      <trkpt lat="48.20025" lon="3.20219">
        <ele>174</ele>
        <time>2014-09-07T08:26:05.000Z</time>
      </trkpt>
      <trkpt lat="48.20024" lon="3.20226">
        <ele>174</ele>
        <time>2014-09-07T08:26:06.000Z</time>
      </trkpt>
      <trkpt lat="48.20024" lon="3.20232">
        <ele>174</ele>
        <time>2014-09-07T08:26:07.000Z</time>
      </trkpt>
      <trkpt lat="48.20024" lon="3.20236">
        <ele>174</ele>
        <time>2014-09-07T08:26:08.000Z</time>
      </trkpt>
      <trkpt lat="48.20026" lon="3.20243">
        <ele>174</ele>
        <time>2014-09-07T08:26:09.000Z</time>
      </trkpt>
      <trkpt lat="48.20027" lon="3.20247">
        <ele>174</ele>
        <time>2014-09-07T08:26:10.000Z</time>
      </trkpt>
      <trkpt lat="48.20028" lon="3.20251">
        <ele>174</ele>
        <time>2014-09-07T08:26:11.000Z</time>
      </trkpt>
      <trkpt lat="48.2003" lon="3.20256">
        <ele>174</ele>
        <time>2014-09-07T08:26:12.000Z</time>
      </trkpt>
      <trkpt lat="48.2003" lon="3.2026">
        <ele>174</ele>
        <time>2014-09-07T08:26:13.000Z</time>
      </trkpt>
      <trkpt lat="48.20032" lon="3.20264">
        <ele>174</ele>
        <time>2014-09-07T08:26:14.000Z</time>
      </trkpt>
      <trkpt lat="48.20033" lon="3.20266">
        <ele>173</ele>
        <time>2014-09-07T08:26:15.000Z</time>
      </trkpt>
      <trkpt lat="48.20033" lon="3.20271">
        <ele>174</ele>
        <time>2014-09-07T08:26:20.000Z</time>
      </trkpt>
      <trkpt lat="48.20036" lon="3.20284">
        <ele>174</ele>
        <time>2014-09-07T08:26:21.000Z</time>
      </trkpt>
      <trkpt lat="48.20036" lon="3.2029">
        <ele>174</ele>
        <time>2014-09-07T08:26:23.000Z</time>
      </trkpt>
      <trkpt lat="48.20036" lon="3.20294">
        <ele>174</ele>
        <time>2014-09-07T08:26:24.000Z</time>
      </trkpt>
      <trkpt lat="48.20037" lon="3.20301">
        <ele>174</ele>
        <time>2014-09-07T08:26:26.000Z</time>
      </trkpt>
      <trkpt lat="48.20038" lon="3.20305">
        <ele>174</ele>
        <time>2014-09-07T08:26:27.000Z</time>
      </trkpt>
      <trkpt lat="48.20039" lon="3.20309">
        <ele>174</ele>
        <time>2014-09-07T08:26:28.000Z</time>
      </trkpt>
      <trkpt lat="48.20041" lon="3.20312">
        <ele>174</ele>
        <time>2014-09-07T08:26:29.000Z</time>
      </trkpt>
      <trkpt lat="48.20042" lon="3.20316">
        <ele>174</ele>
        <time>2014-09-07T08:26:30.000Z</time>
      </trkpt>
      <trkpt lat="48.20043" lon="3.2032">
        <ele>174</ele>
        <time>2014-09-07T08:26:31.000Z</time>
      </trkpt>
      <trkpt lat="48.20044" lon="3.20327">
        <ele>174</ele>
        <time>2014-09-07T08:26:36.000Z</time>
      </trkpt>
      <trkpt lat="48.20045" lon="3.20344">
        <ele>174</ele>
        <time>2014-09-07T08:26:37.000Z</time>
      </trkpt>
      <trkpt lat="48.20045" lon="3.20348">
        <ele>174</ele>
        <time>2014-09-07T08:26:38.000Z</time>
      </trkpt>
      <trkpt lat="48.20045" lon="3.20352">
        <ele>174</ele>
        <time>2014-09-07T08:26:39.000Z</time>
      </trkpt>
      <trkpt lat="48.20045" lon="3.20359">
        <ele>174</ele>
        <time>2014-09-07T08:26:40.000Z</time>
      </trkpt>
      <trkpt lat="48.20047" lon="3.20363">
        <ele>174</ele>
        <time>2014-09-07T08:26:41.000Z</time>
      </trkpt>
      <trkpt lat="48.20047" lon="3.20367">
        <ele>174</ele>
        <time>2014-09-07T08:26:42.000Z</time>
      </trkpt>
      <trkpt lat="48.20047" lon="3.20372">
        <ele>174</ele>
        <time>2014-09-07T08:26:43.000Z</time>
      </trkpt>
      <trkpt lat="48.20048" lon="3.20376">
        <ele>174</ele>
        <time>2014-09-07T08:26:48.000Z</time>
      </trkpt>
      <trkpt lat="48.20049" lon="3.20391">
        <ele>174</ele>
        <time>2014-09-07T08:26:49.000Z</time>
      </trkpt>
      <trkpt lat="48.20049" lon="3.20391">
        <ele>174</ele>
        <time>2014-09-07T08:26:53.000Z</time>
      </trkpt>
      <trkpt lat="48.20051" lon="3.20406">
        <ele>174</ele>
        <time>2014-09-07T08:26:54.000Z</time>
      </trkpt>
      <trkpt lat="48.20051" lon="3.20406">
        <ele>174</ele>
        <time>2014-09-07T08:26:58.000Z</time>
      </trkpt>
      <trkpt lat="48.20053" lon="3.20419">
        <ele>175</ele>
        <time>2014-09-07T08:26:59.000Z</time>
      </trkpt>
      <trkpt lat="48.20053" lon="3.20419">
        <ele>175</ele>
        <time>2014-09-07T08:27:02.000Z</time>
      </trkpt>
      <trkpt lat="48.20054" lon="3.20436">
        <ele>176</ele>
        <time>2014-09-07T08:27:03.000Z</time>
      </trkpt>
      <trkpt lat="48.20054" lon="3.20436">
        <ele>176</ele>
        <time>2014-09-07T08:27:05.000Z</time>
      </trkpt>
      <trkpt lat="48.20056" lon="3.20449">
        <ele>176</ele>
        <time>2014-09-07T08:27:06.000Z</time>
      </trkpt>
      <trkpt lat="48.20056" lon="3.20449">
        <ele>176</ele>
        <time>2014-09-07T08:27:09.000Z</time>
      </trkpt>
      <trkpt lat="48.20062" lon="3.20462">
        <ele>176</ele>
        <time>2014-09-07T08:27:10.000Z</time>
      </trkpt>
      <trkpt lat="48.20062" lon="3.20462">
        <ele>176</ele>
        <time>2014-09-07T08:27:14.000Z</time>
      </trkpt>
      <trkpt lat="48.20067" lon="3.20477">
        <ele>176</ele>
        <time>2014-09-07T08:27:15.000Z</time>
      </trkpt>
      <trkpt lat="48.20067" lon="3.20477">
        <ele>176</ele>
        <time>2014-09-07T08:27:20.000Z</time>
      </trkpt>
      <trkpt lat="48.20073" lon="3.2049">
        <ele>177</ele>
        <time>2014-09-07T08:27:21.000Z</time>
      </trkpt>
      <trkpt lat="48.20073" lon="3.2049">
        <ele>177</ele>
        <time>2014-09-07T08:27:25.000Z</time>
      </trkpt>
      <trkpt lat="48.20077" lon="3.205">
        <ele>177</ele>
        <time>2014-09-07T08:27:26.000Z</time>
      </trkpt>
      <trkpt lat="48.20077" lon="3.205">
        <ele>177</ele>
        <time>2014-09-07T08:27:29.000Z</time>
      </trkpt>
      <trkpt lat="48.20081" lon="3.20513">
        <ele>178</ele>
        <time>2014-09-07T08:27:30.000Z</time>
      </trkpt>
      <trkpt lat="48.20081" lon="3.20513">
        <ele>178</ele>
        <time>2014-09-07T08:27:33.000Z</time>
      </trkpt>
      <trkpt lat="48.20084" lon="3.20526">
        <ele>177</ele>
        <time>2014-09-07T08:27:34.000Z</time>
      </trkpt>
      <trkpt lat="48.20084" lon="3.20526">
        <ele>177</ele>
        <time>2014-09-07T08:27:38.000Z</time>
      </trkpt>
      <trkpt lat="48.20092" lon="3.20537">
        <ele>178</ele>
        <time>2014-09-07T08:27:39.000Z</time>
      </trkpt>
      <trkpt lat="48.20092" lon="3.20537">
        <ele>178</ele>
        <time>2014-09-07T08:27:41.000Z</time>
      </trkpt>
      <trkpt lat="48.20102" lon="3.20548">
        <ele>178</ele>
        <time>2014-09-07T08:27:42.000Z</time>
      </trkpt>
      <trkpt lat="48.20106" lon="3.2055">
        <ele>178</ele>
        <time>2014-09-07T08:27:43.000Z</time>
      </trkpt>
      <trkpt lat="48.2011" lon="3.20554">
        <ele>178</ele>
        <time>2014-09-07T08:27:44.000Z</time>
      </trkpt>
      <trkpt lat="48.2011" lon="3.20554">
        <ele>178</ele>
        <time>2014-09-07T08:27:46.000Z</time>
      </trkpt>
      <trkpt lat="48.2012" lon="3.20563">
        <ele>178</ele>
        <time>2014-09-07T08:27:47.000Z</time>
      </trkpt>
      <trkpt lat="48.2012" lon="3.20563">
        <ele>178</ele>
        <time>2014-09-07T08:27:50.000Z</time>
      </trkpt>
      <trkpt lat="48.20126" lon="3.20571">
        <ele>178</ele>
        <time>2014-09-07T08:27:51.000Z</time>
      </trkpt>
      <trkpt lat="48.20126" lon="3.20571">
        <ele>178</ele>
        <time>2014-09-07T08:27:52.000Z</time>
      </trkpt>
      <trkpt lat="48.2013" lon="3.20578">
        <ele>178</ele>
        <time>2014-09-07T08:27:53.000Z</time>
      </trkpt>
      <trkpt lat="48.20132" lon="3.20582">
        <ele>178</ele>
        <time>2014-09-07T08:27:54.000Z</time>
      </trkpt>
      <trkpt lat="48.20135" lon="3.20584">
        <ele>179</ele>
        <time>2014-09-07T08:27:55.000Z</time>
      </trkpt>
      <trkpt lat="48.20136" lon="3.20586">
        <ele>179</ele>
        <time>2014-09-07T08:27:56.000Z</time>
      </trkpt>
      <trkpt lat="48.20138" lon="3.2059">
        <ele>178</ele>
        <time>2014-09-07T08:27:57.000Z</time>
      </trkpt>
      <trkpt lat="48.20138" lon="3.2059">
        <ele>178</ele>
        <time>2014-09-07T08:28:00.000Z</time>
      </trkpt>
      <trkpt lat="48.20145" lon="3.20601">
        <ele>178</ele>
        <time>2014-09-07T08:28:01.000Z</time>
      </trkpt>
      <trkpt lat="48.20145" lon="3.20601">
        <ele>178</ele>
        <time>2014-09-07T08:28:04.000Z</time>
      </trkpt>
      <trkpt lat="48.2015" lon="3.20612">
        <ele>178</ele>
        <time>2014-09-07T08:28:05.000Z</time>
      </trkpt>
      <trkpt lat="48.2015" lon="3.20612">
        <ele>178</ele>
        <time>2014-09-07T08:28:08.000Z</time>
      </trkpt>
      <trkpt lat="48.20157" lon="3.20625">
        <ele>179</ele>
        <time>2014-09-07T08:28:09.000Z</time>
      </trkpt>
      <trkpt lat="48.20157" lon="3.20625">
        <ele>179</ele>
        <time>2014-09-07T08:28:11.000Z</time>
      </trkpt>
      <trkpt lat="48.20165" lon="3.20633">
        <ele>178</ele>
        <time>2014-09-07T08:28:12.000Z</time>
      </trkpt>
      <trkpt lat="48.20165" lon="3.20633">
        <ele>178</ele>
        <time>2014-09-07T08:28:15.000Z</time>
      </trkpt>
      <trkpt lat="48.20173" lon="3.20646">
        <ele>177</ele>
        <time>2014-09-07T08:28:16.000Z</time>
      </trkpt>
      <trkpt lat="48.20173" lon="3.20646">
        <ele>177</ele>
        <time>2014-09-07T08:28:19.000Z</time>
      </trkpt>
      <trkpt lat="48.20179" lon="3.20659">
        <ele>177</ele>
        <time>2014-09-07T08:28:20.000Z</time>
      </trkpt>
      <trkpt lat="48.20179" lon="3.20659">
        <ele>177</ele>
        <time>2014-09-07T08:28:22.000Z</time>
      </trkpt>
      <trkpt lat="48.20182" lon="3.2067">
        <ele>177</ele>
        <time>2014-09-07T08:28:23.000Z</time>
      </trkpt>
      <trkpt lat="48.20182" lon="3.2067">
        <ele>177</ele>
        <time>2014-09-07T08:28:25.000Z</time>
      </trkpt>
      <trkpt lat="48.20186" lon="3.20683">
        <ele>177</ele>
        <time>2014-09-07T08:28:26.000Z</time>
      </trkpt>
      <trkpt lat="48.20186" lon="3.20683">
        <ele>177</ele>
        <time>2014-09-07T08:28:29.000Z</time>
      </trkpt>
      <trkpt lat="48.2019" lon="3.20696">
        <ele>177</ele>
        <time>2014-09-07T08:28:30.000Z</time>
      </trkpt>
      <trkpt lat="48.2019" lon="3.20696">
        <ele>177</ele>
        <time>2014-09-07T08:28:34.000Z</time>
      </trkpt>
      <trkpt lat="48.20195" lon="3.20713">
        <ele>177</ele>
        <time>2014-09-07T08:28:35.000Z</time>
      </trkpt>
      <trkpt lat="48.20195" lon="3.20713">
        <ele>177</ele>
        <time>2014-09-07T08:28:38.000Z</time>
      </trkpt>
      <trkpt lat="48.20197" lon="3.20726">
        <ele>178</ele>
        <time>2014-09-07T08:28:39.000Z</time>
      </trkpt>
      <trkpt lat="48.20197" lon="3.20726">
        <ele>178</ele>
        <time>2014-09-07T08:28:42.000Z</time>
      </trkpt>
      <trkpt lat="48.20202" lon="3.20739">
        <ele>178</ele>
        <time>2014-09-07T08:28:43.000Z</time>
      </trkpt>
      <trkpt lat="48.20202" lon="3.20739">
        <ele>178</ele>
        <time>2014-09-07T08:28:46.000Z</time>
      </trkpt>
      <trkpt lat="48.20207" lon="3.20751">
        <ele>179</ele>
        <time>2014-09-07T08:28:47.000Z</time>
      </trkpt>
      <trkpt lat="48.20207" lon="3.20751">
        <ele>179</ele>
        <time>2014-09-07T08:28:49.000Z</time>
      </trkpt>
      <trkpt lat="48.20215" lon="3.20762">
        <ele>178</ele>
        <time>2014-09-07T08:28:50.000Z</time>
      </trkpt>
      <trkpt lat="48.20215" lon="3.20762">
        <ele>178</ele>
        <time>2014-09-07T08:28:52.000Z</time>
      </trkpt>
      <trkpt lat="48.20227" lon="3.20762">
        <ele>178</ele>
        <time>2014-09-07T08:28:53.000Z</time>
      </trkpt>
      <trkpt lat="48.20227" lon="3.20762">
        <ele>178</ele>
        <time>2014-09-07T08:28:55.000Z</time>
      </trkpt>
      <trkpt lat="48.20239" lon="3.20769">
        <ele>178</ele>
        <time>2014-09-07T08:28:56.000Z</time>
      </trkpt>
      <trkpt lat="48.20239" lon="3.20769">
        <ele>178</ele>
        <time>2014-09-07T08:28:58.000Z</time>
      </trkpt>
      <trkpt lat="48.2025" lon="3.20773">
        <ele>177</ele>
        <time>2014-09-07T08:28:59.000Z</time>
      </trkpt>
      <trkpt lat="48.2025" lon="3.20773">
        <ele>177</ele>
        <time>2014-09-07T08:29:00.000Z</time>
      </trkpt>
      <trkpt lat="48.20258" lon="3.20773">
        <ele>177</ele>
        <time>2014-09-07T08:29:01.000Z</time>
      </trkpt>
      <trkpt lat="48.20261" lon="3.20771">
        <ele>177</ele>
        <time>2014-09-07T08:29:02.000Z</time>
      </trkpt>
      <trkpt lat="48.20264" lon="3.20769">
        <ele>177</ele>
        <time>2014-09-07T08:29:03.000Z</time>
      </trkpt>
      <trkpt lat="48.20268" lon="3.20766">
        <ele>177</ele>
        <time>2014-09-07T08:29:04.000Z</time>
      </trkpt>
      <trkpt lat="48.20271" lon="3.20762">
        <ele>177</ele>
        <time>2014-09-07T08:29:05.000Z</time>
      </trkpt>
      <trkpt lat="48.20274" lon="3.2076">
        <ele>177</ele>
        <time>2014-09-07T08:29:06.000Z</time>
      </trkpt>
      <trkpt lat="48.20276" lon="3.20756">
        <ele>177</ele>
        <time>2014-09-07T08:29:07.000Z</time>
      </trkpt>
      <trkpt lat="48.20279" lon="3.20751">
        <ele>177</ele>
        <time>2014-09-07T08:29:08.000Z</time>
      </trkpt>
      <trkpt lat="48.20282" lon="3.20747">
        <ele>176</ele>
        <time>2014-09-07T08:29:09.000Z</time>
      </trkpt>
      <trkpt lat="48.20284" lon="3.20745">
        <ele>176</ele>
        <time>2014-09-07T08:29:10.000Z</time>
      </trkpt>
      <trkpt lat="48.20286" lon="3.20741">
        <ele>176</ele>
        <time>2014-09-07T08:29:11.000Z</time>
      </trkpt>
      <trkpt lat="48.20288" lon="3.20736">
        <ele>176</ele>
        <time>2014-09-07T08:29:12.000Z</time>
      </trkpt>
      <trkpt lat="48.2029" lon="3.20732">
        <ele>176</ele>
        <time>2014-09-07T08:29:13.000Z</time>
      </trkpt>
      <trkpt lat="48.20293" lon="3.2073">
        <ele>175</ele>
        <time>2014-09-07T08:29:14.000Z</time>
      </trkpt>
      <trkpt lat="48.20294" lon="3.20728">
        <ele>175</ele>
        <time>2014-09-07T08:29:15.000Z</time>
      </trkpt>
      <trkpt lat="48.20298" lon="3.20726">
        <ele>175</ele>
        <time>2014-09-07T08:29:17.000Z</time>
      </trkpt>
      <trkpt lat="48.20299" lon="3.20726">
        <ele>175</ele>
        <time>2014-09-07T08:29:18.000Z</time>
      </trkpt>
      <trkpt lat="48.20301" lon="3.20726">
        <ele>175</ele>
        <time>2014-09-07T08:29:19.000Z</time>
      </trkpt>
      <trkpt lat="48.20303" lon="3.20728">
        <ele>176</ele>
        <time>2014-09-07T08:29:20.000Z</time>
      </trkpt>
      <trkpt lat="48.20305" lon="3.20728">
        <ele>176</ele>
        <time>2014-09-07T08:29:21.000Z</time>
      </trkpt>
      <trkpt lat="48.20307" lon="3.2073">
        <ele>176</ele>
        <time>2014-09-07T08:29:22.000Z</time>
      </trkpt>
      <trkpt lat="48.20309" lon="3.2073">
        <ele>176</ele>
        <time>2014-09-07T08:29:23.000Z</time>
      </trkpt>
      <trkpt lat="48.20312" lon="3.20732">
        <ele>176</ele>
        <time>2014-09-07T08:29:24.000Z</time>
      </trkpt>
      <trkpt lat="48.20316" lon="3.20732">
        <ele>176</ele>
        <time>2014-09-07T08:29:27.000Z</time>
      </trkpt>
      <trkpt lat="48.20317" lon="3.20732">
        <ele>176</ele>
        <time>2014-09-07T08:29:28.000Z</time>
      </trkpt>
      <trkpt lat="48.2032" lon="3.20732">
        <ele>176</ele>
        <time>2014-09-07T08:29:30.000Z</time>
      </trkpt>
      <trkpt lat="48.20322" lon="3.2073">
        <ele>176</ele>
        <time>2014-09-07T08:29:31.000Z</time>
      </trkpt>
      <trkpt lat="48.20325" lon="3.20726">
        <ele>176</ele>
        <time>2014-09-07T08:29:33.000Z</time>
      </trkpt>
      <trkpt lat="48.20327" lon="3.20724">
        <ele>176</ele>
        <time>2014-09-07T08:29:34.000Z</time>
      </trkpt>
      <trkpt lat="48.20329" lon="3.20721">
        <ele>176</ele>
        <time>2014-09-07T08:29:35.000Z</time>
      </trkpt>
      <trkpt lat="48.2033" lon="3.20717">
        <ele>175</ele>
        <time>2014-09-07T08:29:36.000Z</time>
      </trkpt>
      <trkpt lat="48.20333" lon="3.20713">
        <ele>175</ele>
        <time>2014-09-07T08:29:38.000Z</time>
      </trkpt>
      <trkpt lat="48.20334" lon="3.20711">
        <ele>174</ele>
        <time>2014-09-07T08:29:39.000Z</time>
      </trkpt>
      <trkpt lat="48.20336" lon="3.20706">
        <ele>174</ele>
        <time>2014-09-07T08:29:41.000Z</time>
      </trkpt>
      <trkpt lat="48.20337" lon="3.20704">
        <ele>174</ele>
        <time>2014-09-07T08:29:42.000Z</time>
      </trkpt>
      <trkpt lat="48.20341" lon="3.20702">
        <ele>174</ele>
        <time>2014-09-07T08:29:45.000Z</time>
      </trkpt>
      <trkpt lat="48.20342" lon="3.20702">
        <ele>174</ele>
        <time>2014-09-07T08:29:46.000Z</time>
      </trkpt>
      <trkpt lat="48.20346" lon="3.20702">
        <ele>174</ele>
        <time>2014-09-07T08:29:49.000Z</time>
      </trkpt>
      <trkpt lat="48.20348" lon="3.207">
        <ele>173</ele>
        <time>2014-09-07T08:29:50.000Z</time>
      </trkpt>
      <trkpt lat="48.2035" lon="3.207">
        <ele>173</ele>
        <time>2014-09-07T08:29:51.000Z</time>
      </trkpt>
      <trkpt lat="48.20352" lon="3.20698">
        <ele>173</ele>
        <time>2014-09-07T08:29:52.000Z</time>
      </trkpt>
      <trkpt lat="48.20354" lon="3.20696">
        <ele>173</ele>
        <time>2014-09-07T08:29:53.000Z</time>
      </trkpt>
      <trkpt lat="48.20357" lon="3.20696">
        <ele>173</ele>
        <time>2014-09-07T08:29:54.000Z</time>
      </trkpt>
      <trkpt lat="48.2036" lon="3.20693">
        <ele>173</ele>
        <time>2014-09-07T08:29:56.000Z</time>
      </trkpt>
      <trkpt lat="48.20361" lon="3.20693">
        <ele>173</ele>
        <time>2014-09-07T08:29:57.000Z</time>
      </trkpt>
      <trkpt lat="48.20365" lon="3.20693">
        <ele>173</ele>
        <time>2014-09-07T08:30:01.000Z</time>
      </trkpt>
      <trkpt lat="48.20366" lon="3.20693">
        <ele>173</ele>
        <time>2014-09-07T08:30:02.000Z</time>
      </trkpt>
      <trkpt lat="48.20369" lon="3.20698">
        <ele>173</ele>
        <time>2014-09-07T08:30:05.000Z</time>
      </trkpt>
      <trkpt lat="48.20371" lon="3.20698">
        <ele>173</ele>
        <time>2014-09-07T08:30:06.000Z</time>
      </trkpt>
      <trkpt lat="48.20374" lon="3.20702">
        <ele>173</ele>
        <time>2014-09-07T08:30:09.000Z</time>
      </trkpt>
      <trkpt lat="48.20375" lon="3.20704">
        <ele>173</ele>
        <time>2014-09-07T08:30:10.000Z</time>
      </trkpt>
      <trkpt lat="48.20378" lon="3.20706">
        <ele>173</ele>
        <time>2014-09-07T08:30:12.000Z</time>
      </trkpt>
      <trkpt lat="48.20379" lon="3.20709">
        <ele>173</ele>
        <time>2014-09-07T08:30:13.000Z</time>
      </trkpt>
      <trkpt lat="48.20381" lon="3.20713">
        <ele>173</ele>
        <time>2014-09-07T08:30:16.000Z</time>
      </trkpt>
      <trkpt lat="48.20382" lon="3.20715">
        <ele>173</ele>
        <time>2014-09-07T08:30:17.000Z</time>
      </trkpt>
      <trkpt lat="48.20383" lon="3.20719">
        <ele>173</ele>
        <time>2014-09-07T08:30:20.000Z</time>
      </trkpt>
      <trkpt lat="48.20385" lon="3.20721">
        <ele>173</ele>
        <time>2014-09-07T08:30:21.000Z</time>
      </trkpt>
      <trkpt lat="48.20386" lon="3.20726">
        <ele>173</ele>
        <time>2014-09-07T08:30:23.000Z</time>
      </trkpt>
      <trkpt lat="48.20387" lon="3.20728">
        <ele>173</ele>
        <time>2014-09-07T08:30:24.000Z</time>
      </trkpt>
      <trkpt lat="48.20389" lon="3.20732">
        <ele>173</ele>
        <time>2014-09-07T08:30:27.000Z</time>
      </trkpt>
      <trkpt lat="48.2039" lon="3.20734">
        <ele>173</ele>
        <time>2014-09-07T08:30:28.000Z</time>
      </trkpt>
      <trkpt lat="48.20391" lon="3.20739">
        <ele>173</ele>
        <time>2014-09-07T08:30:30.000Z</time>
      </trkpt>
      <trkpt lat="48.20392" lon="3.20741">
        <ele>173</ele>
        <time>2014-09-07T08:30:31.000Z</time>
      </trkpt>
      <trkpt lat="48.20394" lon="3.20745">
        <ele>173</ele>
        <time>2014-09-07T08:30:33.000Z</time>
      </trkpt>
      <trkpt lat="48.20395" lon="3.20747">
        <ele>173</ele>
        <time>2014-09-07T08:30:34.000Z</time>
      </trkpt>
      <trkpt lat="48.20397" lon="3.20751">
        <ele>175</ele>
        <time>2014-09-07T08:30:36.000Z</time>
      </trkpt>
      <trkpt lat="48.20398" lon="3.20754">
        <ele>175</ele>
        <time>2014-09-07T08:30:37.000Z</time>
      </trkpt>
      <trkpt lat="48.20401" lon="3.20758">
        <ele>175</ele>
        <time>2014-09-07T08:30:39.000Z</time>
      </trkpt>
      <trkpt lat="48.20402" lon="3.2076">
        <ele>175</ele>
        <time>2014-09-07T08:30:40.000Z</time>
      </trkpt>
      <trkpt lat="48.20404" lon="3.20764">
        <ele>175</ele>
        <time>2014-09-07T08:30:42.000Z</time>
      </trkpt>
      <trkpt lat="48.20406" lon="3.20766">
        <ele>175</ele>
        <time>2014-09-07T08:30:43.000Z</time>
      </trkpt>
      <trkpt lat="48.20408" lon="3.20771">
        <ele>176</ele>
        <time>2014-09-07T08:30:45.000Z</time>
      </trkpt>
      <trkpt lat="48.20409" lon="3.20773">
        <ele>176</ele>
        <time>2014-09-07T08:30:46.000Z</time>
      </trkpt>
      <trkpt lat="48.2041" lon="3.20777">
        <ele>176</ele>
        <time>2014-09-07T08:30:48.000Z</time>
      </trkpt>
      <trkpt lat="48.20411" lon="3.20779">
        <ele>176</ele>
        <time>2014-09-07T08:30:49.000Z</time>
      </trkpt>
      <trkpt lat="48.20415" lon="3.20784">
        <ele>176</ele>
        <time>2014-09-07T08:30:51.000Z</time>
      </trkpt>
      <trkpt lat="48.20417" lon="3.20786">
        <ele>176</ele>
        <time>2014-09-07T08:30:52.000Z</time>
      </trkpt>
      <trkpt lat="48.20419" lon="3.20788">
        <ele>173</ele>
        <time>2014-09-07T08:30:53.000Z</time>
      </trkpt>
      <trkpt lat="48.20421" lon="3.2079">
        <ele>173</ele>
        <time>2014-09-07T08:30:54.000Z</time>
      </trkpt>
      <trkpt lat="48.20424" lon="3.20792">
        <ele>173</ele>
        <time>2014-09-07T08:30:56.000Z</time>
      </trkpt>
      <trkpt lat="48.20426" lon="3.20794">
        <ele>173</ele>
        <time>2014-09-07T08:30:57.000Z</time>
      </trkpt>
      <trkpt lat="48.2043" lon="3.20799">
        <ele>173</ele>
        <time>2014-09-07T08:30:59.000Z</time>
      </trkpt>
      <trkpt lat="48.20432" lon="3.20799">
        <ele>173</ele>
        <time>2014-09-07T08:31:00.000Z</time>
      </trkpt>
      <trkpt lat="48.20434" lon="3.20801">
        <ele>173</ele>
        <time>2014-09-07T08:31:01.000Z</time>
      </trkpt>
      <trkpt lat="48.20436" lon="3.20803">
        <ele>173</ele>
        <time>2014-09-07T08:31:02.000Z</time>
      </trkpt>
      <trkpt lat="48.20439" lon="3.20803">
        <ele>173</ele>
        <time>2014-09-07T08:31:03.000Z</time>
      </trkpt>
      <trkpt lat="48.20442" lon="3.20805">
        <ele>173</ele>
        <time>2014-09-07T08:31:04.000Z</time>
      </trkpt>
      <trkpt lat="48.20446" lon="3.20807">
        <ele>173</ele>
        <time>2014-09-07T08:31:05.000Z</time>
      </trkpt>
      <trkpt lat="48.2045" lon="3.20807">
        <ele>173</ele>
        <time>2014-09-07T08:31:06.000Z</time>
      </trkpt>
      <trkpt lat="48.20454" lon="3.20807">
        <ele>172</ele>
        <time>2014-09-07T08:31:07.000Z</time>
      </trkpt>
      <trkpt lat="48.20459" lon="3.20809">
        <ele>172</ele>
        <time>2014-09-07T08:31:08.000Z</time>
      </trkpt>
      <trkpt lat="48.20463" lon="3.20809">
        <ele>172</ele>
        <time>2014-09-07T08:31:09.000Z</time>
      </trkpt>
      <trkpt lat="48.20465" lon="3.20809">
        <ele>172</ele>
        <time>2014-09-07T08:31:10.000Z</time>
      </trkpt>
      <trkpt lat="48.20468" lon="3.20812">
        <ele>172</ele>
        <time>2014-09-07T08:31:11.000Z</time>
      </trkpt>
      <trkpt lat="48.2047" lon="3.20812">
        <ele>171</ele>
        <time>2014-09-07T08:31:12.000Z</time>
      </trkpt>
      <trkpt lat="48.20474" lon="3.20814">
        <ele>171</ele>
        <time>2014-09-07T08:31:15.000Z</time>
      </trkpt>
      <trkpt lat="48.20475" lon="3.20816">
        <ele>171</ele>
        <time>2014-09-07T08:31:16.000Z</time>
      </trkpt>
      <trkpt lat="48.20477" lon="3.2082">
        <ele>171</ele>
        <time>2014-09-07T08:31:21.000Z</time>
      </trkpt>
      <trkpt lat="48.20477" lon="3.20822">
        <ele>171</ele>
        <time>2014-09-07T08:31:22.000Z</time>
      </trkpt>
      <trkpt lat="48.20478" lon="3.20829">
        <ele>171</ele>
        <time>2014-09-07T08:31:26.000Z</time>
      </trkpt>
      <trkpt lat="48.20479" lon="3.20831">
        <ele>171</ele>
        <time>2014-09-07T08:31:27.000Z</time>
      </trkpt>
      <trkpt lat="48.20481" lon="3.20835">
        <ele>173</ele>
        <time>2014-09-07T08:31:29.000Z</time>
      </trkpt>
      <trkpt lat="48.20482" lon="3.20837">
        <ele>173</ele>
        <time>2014-09-07T08:31:30.000Z</time>
      </trkpt>
      <trkpt lat="48.20484" lon="3.20839">
        <ele>173</ele>
        <time>2014-09-07T08:31:31.000Z</time>
      </trkpt>
      <trkpt lat="48.20486" lon="3.20839">
        <ele>172</ele>
        <time>2014-09-07T08:31:32.000Z</time>
      </trkpt>
      <trkpt lat="48.2049" lon="3.20842">
        <ele>172</ele>
        <time>2014-09-07T08:31:33.000Z</time>
      </trkpt>
      <trkpt lat="48.20493" lon="3.20844">
        <ele>172</ele>
        <time>2014-09-07T08:31:34.000Z</time>
      </trkpt>
      <trkpt lat="48.20495" lon="3.20846">
        <ele>172</ele>
        <time>2014-09-07T08:31:35.000Z</time>
      </trkpt>
      <trkpt lat="48.20499" lon="3.20848">
        <ele>172</ele>
        <time>2014-09-07T08:31:36.000Z</time>
      </trkpt>
      <trkpt lat="48.20503" lon="3.2085">
        <ele>169</ele>
        <time>2014-09-07T08:31:37.000Z</time>
      </trkpt>
      <trkpt lat="48.20505" lon="3.20852">
        <ele>169</ele>
        <time>2014-09-07T08:31:38.000Z</time>
      </trkpt>
      <trkpt lat="48.20508" lon="3.20854">
        <ele>169</ele>
        <time>2014-09-07T08:31:39.000Z</time>
      </trkpt>
      <trkpt lat="48.20511" lon="3.20859">
        <ele>170</ele>
        <time>2014-09-07T08:31:40.000Z</time>
      </trkpt>
      <trkpt lat="48.20513" lon="3.20861">
        <ele>170</ele>
        <time>2014-09-07T08:31:41.000Z</time>
      </trkpt>
      <trkpt lat="48.20515" lon="3.20865">
        <ele>170</ele>
        <time>2014-09-07T08:31:42.000Z</time>
      </trkpt>
      <trkpt lat="48.20518" lon="3.20867">
        <ele>170</ele>
        <time>2014-09-07T08:31:43.000Z</time>
      </trkpt>
      <trkpt lat="48.20521" lon="3.20869">
        <ele>170</ele>
        <time>2014-09-07T08:31:44.000Z</time>
      </trkpt>
      <trkpt lat="48.20523" lon="3.20874">
        <ele>170</ele>
        <time>2014-09-07T08:31:45.000Z</time>
      </trkpt>
      <trkpt lat="48.20525" lon="3.20876">
        <ele>170</ele>
        <time>2014-09-07T08:31:46.000Z</time>
      </trkpt>
      <trkpt lat="48.20528" lon="3.20878">
        <ele>170</ele>
        <time>2014-09-07T08:31:47.000Z</time>
      </trkpt>
      <trkpt lat="48.2053" lon="3.2088">
        <ele>170</ele>
        <time>2014-09-07T08:31:48.000Z</time>
      </trkpt>
      <trkpt lat="48.20534" lon="3.20882">
        <ele>170</ele>
        <time>2014-09-07T08:31:49.000Z</time>
      </trkpt>
      <trkpt lat="48.20536" lon="3.20884">
        <ele>170</ele>
        <time>2014-09-07T08:31:50.000Z</time>
      </trkpt>
      <trkpt lat="48.20539" lon="3.20887">
        <ele>170</ele>
        <time>2014-09-07T08:31:51.000Z</time>
      </trkpt>
      <trkpt lat="48.20541" lon="3.20889">
        <ele>170</ele>
        <time>2014-09-07T08:31:52.000Z</time>
      </trkpt>
      <trkpt lat="48.20543" lon="3.20891">
        <ele>170</ele>
        <time>2014-09-07T08:31:53.000Z</time>
      </trkpt>
      <trkpt lat="48.20547" lon="3.20893">
        <ele>169</ele>
        <time>2014-09-07T08:31:54.000Z</time>
      </trkpt>
      <trkpt lat="48.20549" lon="3.20895">
        <ele>169</ele>
        <time>2014-09-07T08:31:55.000Z</time>
      </trkpt>
      <trkpt lat="48.20552" lon="3.20899">
        <ele>169</ele>
        <time>2014-09-07T08:31:56.000Z</time>
      </trkpt>
      <trkpt lat="48.20554" lon="3.20902">
        <ele>169</ele>
        <time>2014-09-07T08:31:57.000Z</time>
      </trkpt>
      <trkpt lat="48.20556" lon="3.20904">
        <ele>169</ele>
        <time>2014-09-07T08:31:58.000Z</time>
      </trkpt>
      <trkpt lat="48.20558" lon="3.20906">
        <ele>169</ele>
        <time>2014-09-07T08:31:59.000Z</time>
      </trkpt>
      <trkpt lat="48.20559" lon="3.2091">
        <ele>169</ele>
        <time>2014-09-07T08:32:00.000Z</time>
      </trkpt>
      <trkpt lat="48.20562" lon="3.20912">
        <ele>169</ele>
        <time>2014-09-07T08:32:01.000Z</time>
      </trkpt>
      <trkpt lat="48.20564" lon="3.20915">
        <ele>169</ele>
        <time>2014-09-07T08:32:02.000Z</time>
      </trkpt>
      <trkpt lat="48.20565" lon="3.20919">
        <ele>170</ele>
        <time>2014-09-07T08:32:03.000Z</time>
      </trkpt>
      <trkpt lat="48.20567" lon="3.20921">
        <ele>170</ele>
        <time>2014-09-07T08:32:04.000Z</time>
      </trkpt>
      <trkpt lat="48.20569" lon="3.20925">
        <ele>170</ele>
        <time>2014-09-07T08:32:05.000Z</time>
      </trkpt>
      <trkpt lat="48.2057" lon="3.20927">
        <ele>170</ele>
        <time>2014-09-07T08:32:06.000Z</time>
      </trkpt>
      <trkpt lat="48.20572" lon="3.2093">
        <ele>170</ele>
        <time>2014-09-07T08:32:07.000Z</time>
      </trkpt>
      <trkpt lat="48.20574" lon="3.20932">
        <ele>170</ele>
        <time>2014-09-07T08:32:08.000Z</time>
      </trkpt>
      <trkpt lat="48.20577" lon="3.20934">
        <ele>170</ele>
        <time>2014-09-07T08:32:09.000Z</time>
      </trkpt>
      <trkpt lat="48.20579" lon="3.20936">
        <ele>170</ele>
        <time>2014-09-07T08:32:10.000Z</time>
      </trkpt>
      <trkpt lat="48.20582" lon="3.2094">
        <ele>170</ele>
        <time>2014-09-07T08:32:12.000Z</time>
      </trkpt>
      <trkpt lat="48.20584" lon="3.20942">
        <ele>166</ele>
        <time>2014-09-07T08:32:13.000Z</time>
      </trkpt>
      <trkpt lat="48.20587" lon="3.20947">
        <ele>166</ele>
        <time>2014-09-07T08:32:16.000Z</time>
      </trkpt>
      <trkpt lat="48.20587" lon="3.20949">
        <ele>166</ele>
        <time>2014-09-07T08:32:17.000Z</time>
      </trkpt>
      <trkpt lat="48.20585" lon="3.20951">
        <ele>166</ele>
        <time>2014-09-07T08:32:20.000Z</time>
      </trkpt>
      <trkpt lat="48.20583" lon="3.20953">
        <ele>171</ele>
        <time>2014-09-07T08:32:21.000Z</time>
      </trkpt>
      <trkpt lat="48.2058" lon="3.20951">
        <ele>171</ele>
        <time>2014-09-07T08:32:23.000Z</time>
      </trkpt>
      <trkpt lat="48.20578" lon="3.20951">
        <ele>171</ele>
        <time>2014-09-07T08:32:24.000Z</time>
      </trkpt>
      <trkpt lat="48.20573" lon="3.20949">
        <ele>171</ele>
        <time>2014-09-07T08:32:26.000Z</time>
      </trkpt>
      <trkpt lat="48.20572" lon="3.20949">
        <ele>171</ele>
        <time>2014-09-07T08:32:27.000Z</time>
      </trkpt>
      <trkpt lat="48.20569" lon="3.20945">
        <ele>171</ele>
        <time>2014-09-07T08:32:29.000Z</time>
      </trkpt>
      <trkpt lat="48.20567" lon="3.20945">
        <ele>171</ele>
        <time>2014-09-07T08:32:30.000Z</time>
      </trkpt>
      <trkpt lat="48.20564" lon="3.20942">
        <ele>171</ele>
        <time>2014-09-07T08:32:32.000Z</time>
      </trkpt>
      <trkpt lat="48.20563" lon="3.2094">
        <ele>171</ele>
        <time>2014-09-07T08:32:33.000Z</time>
      </trkpt>
      <trkpt lat="48.20559" lon="3.20938">
        <ele>171</ele>
        <time>2014-09-07T08:32:35.000Z</time>
      </trkpt>
      <trkpt lat="48.20557" lon="3.20938">
        <ele>171</ele>
        <time>2014-09-07T08:32:36.000Z</time>
      </trkpt>
      <trkpt lat="48.20553" lon="3.20936">
        <ele>171</ele>
        <time>2014-09-07T08:32:39.000Z</time>
      </trkpt>
      <trkpt lat="48.20552" lon="3.20934">
        <ele>171</ele>
        <time>2014-09-07T08:32:40.000Z</time>
      </trkpt>
      <trkpt lat="48.20548" lon="3.20932">
        <ele>172</ele>
        <time>2014-09-07T08:32:43.000Z</time>
      </trkpt>
      <trkpt lat="48.20547" lon="3.20932">
        <ele>172</ele>
        <time>2014-09-07T08:32:44.000Z</time>
      </trkpt>
      <trkpt lat="48.20543" lon="3.2093">
        <ele>172</ele>
        <time>2014-09-07T08:32:46.000Z</time>
      </trkpt>
      <trkpt lat="48.20542" lon="3.2093">
        <ele>172</ele>
        <time>2014-09-07T08:32:47.000Z</time>
      </trkpt>
      <trkpt lat="48.20539" lon="3.2093">
        <ele>172</ele>
        <time>2014-09-07T08:32:49.000Z</time>
      </trkpt>
      <trkpt lat="48.20538" lon="3.20927">
        <ele>172</ele>
        <time>2014-09-07T08:32:50.000Z</time>
      </trkpt>
      <trkpt lat="48.20534" lon="3.20927">
        <ele>172</ele>
        <time>2014-09-07T08:32:53.000Z</time>
      </trkpt>
      <trkpt lat="48.20531" lon="3.20927">
        <ele>173</ele>
        <time>2014-09-07T08:32:54.000Z</time>
      </trkpt>
      <trkpt lat="48.20527" lon="3.20925">
        <ele>173</ele>
        <time>2014-09-07T08:32:57.000Z</time>
      </trkpt>
      <trkpt lat="48.20526" lon="3.20923">
        <ele>173</ele>
        <time>2014-09-07T08:32:58.000Z</time>
      </trkpt>
      <trkpt lat="48.20523" lon="3.20923">
        <ele>173</ele>
        <time>2014-09-07T08:33:00.000Z</time>
      </trkpt>
      <trkpt lat="48.20521" lon="3.20921">
        <ele>173</ele>
        <time>2014-09-07T08:33:01.000Z</time>
      </trkpt>
      <trkpt lat="48.20518" lon="3.20921">
        <ele>173</ele>
        <time>2014-09-07T08:33:03.000Z</time>
      </trkpt>
      <trkpt lat="48.20515" lon="3.20919">
        <ele>174</ele>
        <time>2014-09-07T08:33:04.000Z</time>
      </trkpt>
      <trkpt lat="48.20512" lon="3.20919">
        <ele>174</ele>
        <time>2014-09-07T08:33:06.000Z</time>
      </trkpt>
      <trkpt lat="48.2051" lon="3.20917">
        <ele>173</ele>
        <time>2014-09-07T08:33:07.000Z</time>
      </trkpt>
      <trkpt lat="48.20507" lon="3.20917">
        <ele>174</ele>
        <time>2014-09-07T08:33:09.000Z</time>
      </trkpt>
      <trkpt lat="48.20505" lon="3.20917">
        <ele>174</ele>
        <time>2014-09-07T08:33:10.000Z</time>
      </trkpt>
      <trkpt lat="48.205" lon="3.20917">
        <ele>175</ele>
        <time>2014-09-07T08:33:12.000Z</time>
      </trkpt>
      <trkpt lat="48.20498" lon="3.20915">
        <ele>175</ele>
        <time>2014-09-07T08:33:13.000Z</time>
      </trkpt>
      <trkpt lat="48.20496" lon="3.20915">
        <ele>175</ele>
        <time>2014-09-07T08:33:14.000Z</time>
      </trkpt>
      <trkpt lat="48.20493" lon="3.20915">
        <ele>175</ele>
        <time>2014-09-07T08:33:15.000Z</time>
      </trkpt>
      <trkpt lat="48.20489" lon="3.20915">
        <ele>176</ele>
        <time>2014-09-07T08:33:17.000Z</time>
      </trkpt>
      <trkpt lat="48.20486" lon="3.20912">
        <ele>176</ele>
        <time>2014-09-07T08:33:18.000Z</time>
      </trkpt>
      <trkpt lat="48.20482" lon="3.20912">
        <ele>176</ele>
        <time>2014-09-07T08:33:20.000Z</time>
      </trkpt>
      <trkpt lat="48.20479" lon="3.20912">
        <ele>176</ele>
        <time>2014-09-07T08:33:21.000Z</time>
      </trkpt>
      <trkpt lat="48.20477" lon="3.20912">
        <ele>176</ele>
        <time>2014-09-07T08:33:22.000Z</time>
      </trkpt>
      <trkpt lat="48.20474" lon="3.20912">
        <ele>176</ele>
        <time>2014-09-07T08:33:23.000Z</time>
      </trkpt>
      <trkpt lat="48.2047" lon="3.2091">
        <ele>177</ele>
        <time>2014-09-07T08:33:24.000Z</time>
      </trkpt>
      <trkpt lat="48.20468" lon="3.2091">
        <ele>177</ele>
        <time>2014-09-07T08:33:25.000Z</time>
      </trkpt>
      <trkpt lat="48.20465" lon="3.2091">
        <ele>177</ele>
        <time>2014-09-07T08:33:26.000Z</time>
      </trkpt>
      <trkpt lat="48.20462" lon="3.20908">
        <ele>177</ele>
        <time>2014-09-07T08:33:27.000Z</time>
      </trkpt>
      <trkpt lat="48.20459" lon="3.20908">
        <ele>177</ele>
        <time>2014-09-07T08:33:28.000Z</time>
      </trkpt>
      <trkpt lat="48.20456" lon="3.20906">
        <ele>177</ele>
        <time>2014-09-07T08:33:29.000Z</time>
      </trkpt>
      <trkpt lat="48.20453" lon="3.20906">
        <ele>178</ele>
        <time>2014-09-07T08:33:30.000Z</time>
      </trkpt>
      <trkpt lat="48.2045" lon="3.20906">
        <ele>178</ele>
        <time>2014-09-07T08:33:31.000Z</time>
      </trkpt>
      <trkpt lat="48.20447" lon="3.20904">
        <ele>178</ele>
        <time>2014-09-07T08:33:32.000Z</time>
      </trkpt>
      <trkpt lat="48.20444" lon="3.20904">
        <ele>178</ele>
        <time>2014-09-07T08:33:33.000Z</time>
      </trkpt>
      <trkpt lat="48.2044" lon="3.20902">
        <ele>179</ele>
        <time>2014-09-07T08:33:34.000Z</time>
      </trkpt>
      <trkpt lat="48.20437" lon="3.20902">
        <ele>179</ele>
        <time>2014-09-07T08:33:35.000Z</time>
      </trkpt>
      <trkpt lat="48.20435" lon="3.20899">
        <ele>179</ele>
        <time>2014-09-07T08:33:36.000Z</time>
      </trkpt>
      <trkpt lat="48.20432" lon="3.20899">
        <ele>179</ele>
        <time>2014-09-07T08:33:37.000Z</time>
      </trkpt>
      <trkpt lat="48.20428" lon="3.20899">
        <ele>179</ele>
        <time>2014-09-07T08:33:38.000Z</time>
      </trkpt>
      <trkpt lat="48.20425" lon="3.20897">
        <ele>179</ele>
        <time>2014-09-07T08:33:39.000Z</time>
      </trkpt>
      <trkpt lat="48.20422" lon="3.20897">
        <ele>180</ele>
        <time>2014-09-07T08:33:40.000Z</time>
      </trkpt>
      <trkpt lat="48.20419" lon="3.20897">
        <ele>180</ele>
        <time>2014-09-07T08:33:41.000Z</time>
      </trkpt>
      <trkpt lat="48.20416" lon="3.20895">
        <ele>181</ele>
        <time>2014-09-07T08:33:42.000Z</time>
      </trkpt>
      <trkpt lat="48.20413" lon="3.20895">
        <ele>181</ele>
        <time>2014-09-07T08:33:43.000Z</time>
      </trkpt>
      <trkpt lat="48.2041" lon="3.20893">
        <ele>181</ele>
        <time>2014-09-07T08:33:44.000Z</time>
      </trkpt>
      <trkpt lat="48.20407" lon="3.20893">
        <ele>181</ele>
        <time>2014-09-07T08:33:45.000Z</time>
      </trkpt>
      <trkpt lat="48.20405" lon="3.20893">
        <ele>181</ele>
        <time>2014-09-07T08:33:46.000Z</time>
      </trkpt>
      <trkpt lat="48.20402" lon="3.20891">
        <ele>181</ele>
        <time>2014-09-07T08:33:47.000Z</time>
      </trkpt>
      <trkpt lat="48.20398" lon="3.20891">
        <ele>181</ele>
        <time>2014-09-07T08:33:48.000Z</time>
      </trkpt>
      <trkpt lat="48.20395" lon="3.20891">
        <ele>181</ele>
        <time>2014-09-07T08:33:49.000Z</time>
      </trkpt>
      <trkpt lat="48.20393" lon="3.20889">
        <ele>181</ele>
        <time>2014-09-07T08:33:50.000Z</time>
      </trkpt>
      <trkpt lat="48.2039" lon="3.20889">
        <ele>181</ele>
        <time>2014-09-07T08:33:51.000Z</time>
      </trkpt>
      <trkpt lat="48.20387" lon="3.20889">
        <ele>181</ele>
        <time>2014-09-07T08:33:52.000Z</time>
      </trkpt>
      <trkpt lat="48.20385" lon="3.20889">
        <ele>181</ele>
        <time>2014-09-07T08:33:53.000Z</time>
      </trkpt>
      <trkpt lat="48.20381" lon="3.20889">
        <ele>181</ele>
        <time>2014-09-07T08:33:54.000Z</time>
      </trkpt>
      <trkpt lat="48.20379" lon="3.20891">
        <ele>181</ele>
        <time>2014-09-07T08:33:55.000Z</time>
      </trkpt>
      <trkpt lat="48.20375" lon="3.20891">
        <ele>181</ele>
        <time>2014-09-07T08:33:57.000Z</time>
      </trkpt>
      <trkpt lat="48.20374" lon="3.20891">
        <ele>181</ele>
        <time>2014-09-07T08:33:58.000Z</time>
      </trkpt>
      <trkpt lat="48.20369" lon="3.20891">
        <ele>181</ele>
        <time>2014-09-07T08:34:01.000Z</time>
      </trkpt>
      <trkpt lat="48.20368" lon="3.20891">
        <ele>181</ele>
        <time>2014-09-07T08:34:02.000Z</time>
      </trkpt>
      <trkpt lat="48.20366" lon="3.20895">
        <ele>181</ele>
        <time>2014-09-07T08:34:04.000Z</time>
      </trkpt>
      <trkpt lat="48.20366" lon="3.20899">
        <ele>181</ele>
        <time>2014-09-07T08:34:05.000Z</time>
      </trkpt>
      <trkpt lat="48.20364" lon="3.20904">
        <ele>181</ele>
        <time>2014-09-07T08:34:07.000Z</time>
      </trkpt>
      <trkpt lat="48.20364" lon="3.20906">
        <ele>181</ele>
        <time>2014-09-07T08:34:08.000Z</time>
      </trkpt>
      <trkpt lat="48.20361" lon="3.2091">
        <ele>181</ele>
        <time>2014-09-07T08:34:12.000Z</time>
      </trkpt>
      <trkpt lat="48.2036" lon="3.2091">
        <ele>181</ele>
        <time>2014-09-07T08:34:13.000Z</time>
      </trkpt>
      <trkpt lat="48.20357" lon="3.20912">
        <ele>181</ele>
        <time>2014-09-07T08:34:16.000Z</time>
      </trkpt>
      <trkpt lat="48.20356" lon="3.20912">
        <ele>181</ele>
        <time>2014-09-07T08:34:17.000Z</time>
      </trkpt>
      <trkpt lat="48.20352" lon="3.20915">
        <ele>181</ele>
        <time>2014-09-07T08:34:21.000Z</time>
      </trkpt>
      <trkpt lat="48.20351" lon="3.20915">
        <ele>181</ele>
        <time>2014-09-07T08:34:22.000Z</time>
      </trkpt>
      <trkpt lat="48.20347" lon="3.20917">
        <ele>181</ele>
        <time>2014-09-07T08:34:32.000Z</time>
      </trkpt>
      <trkpt lat="48.20346" lon="3.20917">
        <ele>181</ele>
        <time>2014-09-07T08:34:33.000Z</time>
      </trkpt>
      <trkpt lat="48.20342" lon="3.20917">
        <ele>181</ele>
        <time>2014-09-07T08:34:49.000Z</time>
      </trkpt>
      <trkpt lat="48.20341" lon="3.20917">
        <ele>181</ele>
        <time>2014-09-07T08:34:50.000Z</time>
      </trkpt>
      <trkpt lat="48.20337" lon="3.20915">
        <ele>181</ele>
        <time>2014-09-07T08:35:15.000Z</time>
      </trkpt>
      <trkpt lat="48.20336" lon="3.20915">
        <ele>181</ele>
        <time>2014-09-07T08:35:16.000Z</time>
      </trkpt>
      <trkpt lat="48.20339" lon="3.20912">
        <ele>181</ele>
        <time>2014-09-07T08:36:09.000Z</time>
      </trkpt>
      <trkpt lat="48.20341" lon="3.20912">
        <ele>181</ele>
        <time>2014-09-07T08:36:10.000Z</time>
      </trkpt>
      <trkpt lat="48.20344" lon="3.20915">
        <ele>181</ele>
        <time>2014-09-07T08:36:25.000Z</time>
      </trkpt>
      <trkpt lat="48.20345" lon="3.20915">
        <ele>181</ele>
        <time>2014-09-07T08:36:26.000Z</time>
      </trkpt>
      <trkpt lat="48.20348" lon="3.20912">
        <ele>181</ele>
        <time>2014-09-07T08:37:06.000Z</time>
      </trkpt>
      <trkpt lat="48.20349" lon="3.20912">
        <ele>181</ele>
        <time>2014-09-07T08:37:07.000Z</time>
      </trkpt>
      <trkpt lat="48.20353" lon="3.20912">
        <ele>181</ele>
        <time>2014-09-07T08:37:25.000Z</time>
      </trkpt>
      <trkpt lat="48.20354" lon="3.20915">
        <ele>181</ele>
        <time>2014-09-07T08:37:26.000Z</time>
      </trkpt>
      <trkpt lat="48.20356" lon="3.20917">
        <ele>181</ele>
        <time>2014-09-07T08:37:27.000Z</time>
      </trkpt>
      <trkpt lat="48.20358" lon="3.20921">
        <ele>182</ele>
        <time>2014-09-07T08:37:28.000Z</time>
      </trkpt>
      <trkpt lat="48.2036" lon="3.20925">
        <ele>182</ele>
        <time>2014-09-07T08:37:29.000Z</time>
      </trkpt>
      <trkpt lat="48.20362" lon="3.2093">
        <ele>182</ele>
        <time>2014-09-07T08:37:30.000Z</time>
      </trkpt>
      <trkpt lat="48.20364" lon="3.20934">
        <ele>182</ele>
        <time>2014-09-07T08:37:31.000Z</time>
      </trkpt>
      <trkpt lat="48.20366" lon="3.2094">
        <ele>182</ele>
        <time>2014-09-07T08:37:32.000Z</time>
      </trkpt>
      <trkpt lat="48.20367" lon="3.20945">
        <ele>182</ele>
        <time>2014-09-07T08:37:33.000Z</time>
      </trkpt>
      <trkpt lat="48.20369" lon="3.20951">
        <ele>182</ele>
        <time>2014-09-07T08:37:34.000Z</time>
      </trkpt>
      <trkpt lat="48.20372" lon="3.20957">
        <ele>182</ele>
        <time>2014-09-07T08:37:35.000Z</time>
      </trkpt>
      <trkpt lat="48.20373" lon="3.20962">
        <ele>182</ele>
        <time>2014-09-07T08:37:36.000Z</time>
      </trkpt>
      <trkpt lat="48.20375" lon="3.20968">
        <ele>182</ele>
        <time>2014-09-07T08:37:37.000Z</time>
      </trkpt>
      <trkpt lat="48.20377" lon="3.20977">
        <ele>182</ele>
        <time>2014-09-07T08:37:38.000Z</time>
      </trkpt>
      <trkpt lat="48.20379" lon="3.20985">
        <ele>182</ele>
        <time>2014-09-07T08:37:39.000Z</time>
      </trkpt>
      <trkpt lat="48.20382" lon="3.20994">
        <ele>182</ele>
        <time>2014-09-07T08:37:40.000Z</time>
      </trkpt>
      <trkpt lat="48.20385" lon="3.21002">
        <ele>181</ele>
        <time>2014-09-07T08:37:41.000Z</time>
      </trkpt>
      <trkpt lat="48.20387" lon="3.21009">
        <ele>181</ele>
        <time>2014-09-07T08:37:42.000Z</time>
      </trkpt>
      <trkpt lat="48.20389" lon="3.21015">
        <ele>181</ele>
        <time>2014-09-07T08:37:43.000Z</time>
      </trkpt>
      <trkpt lat="48.20391" lon="3.21022">
        <ele>181</ele>
        <time>2014-09-07T08:37:44.000Z</time>
      </trkpt>
      <trkpt lat="48.20393" lon="3.21028">
        <ele>181</ele>
        <time>2014-09-07T08:37:45.000Z</time>
      </trkpt>
      <trkpt lat="48.20395" lon="3.21033">
        <ele>181</ele>
        <time>2014-09-07T08:37:46.000Z</time>
      </trkpt>
      <trkpt lat="48.20397" lon="3.21039">
        <ele>181</ele>
        <time>2014-09-07T08:37:47.000Z</time>
      </trkpt>
      <trkpt lat="48.204" lon="3.21045">
        <ele>181</ele>
        <time>2014-09-07T08:37:48.000Z</time>
      </trkpt>
      <trkpt lat="48.20402" lon="3.2105">
        <ele>180</ele>
        <time>2014-09-07T08:37:49.000Z</time>
      </trkpt>
      <trkpt lat="48.20404" lon="3.21056">
        <ele>180</ele>
        <time>2014-09-07T08:37:50.000Z</time>
      </trkpt>
      <trkpt lat="48.20406" lon="3.21063">
        <ele>180</ele>
        <time>2014-09-07T08:37:51.000Z</time>
      </trkpt>
      <trkpt lat="48.20408" lon="3.21067">
        <ele>180</ele>
        <time>2014-09-07T08:37:52.000Z</time>
      </trkpt>
      <trkpt lat="48.2041" lon="3.21071">
        <ele>180</ele>
        <time>2014-09-07T08:37:53.000Z</time>
      </trkpt>
      <trkpt lat="48.20412" lon="3.21078">
        <ele>180</ele>
        <time>2014-09-07T08:37:54.000Z</time>
      </trkpt>
      <trkpt lat="48.20415" lon="3.21084">
        <ele>180</ele>
        <time>2014-09-07T08:37:55.000Z</time>
      </trkpt>
      <trkpt lat="48.20419" lon="3.2109">
        <ele>179</ele>
        <time>2014-09-07T08:37:56.000Z</time>
      </trkpt>
      <trkpt lat="48.20422" lon="3.21097">
        <ele>179</ele>
        <time>2014-09-07T08:37:57.000Z</time>
      </trkpt>
      <trkpt lat="48.20425" lon="3.21103">
        <ele>178</ele>
        <time>2014-09-07T08:37:58.000Z</time>
      </trkpt>
      <trkpt lat="48.2043" lon="3.21112">
        <ele>178</ele>
        <time>2014-09-07T08:37:59.000Z</time>
      </trkpt>
      <trkpt lat="48.20435" lon="3.21123">
        <ele>177</ele>
        <time>2014-09-07T08:38:00.000Z</time>
      </trkpt>
      <trkpt lat="48.2044" lon="3.21131">
        <ele>177</ele>
        <time>2014-09-07T08:38:01.000Z</time>
      </trkpt>
      <trkpt lat="48.20446" lon="3.21138">
        <ele>177</ele>
        <time>2014-09-07T08:38:02.000Z</time>
      </trkpt>
      <trkpt lat="48.20452" lon="3.21146">
        <ele>177</ele>
        <time>2014-09-07T08:38:03.000Z</time>
      </trkpt>
      <trkpt lat="48.20459" lon="3.21155">
        <ele>176</ele>
        <time>2014-09-07T08:38:04.000Z</time>
      </trkpt>
      <trkpt lat="48.20466" lon="3.21163">
        <ele>176</ele>
        <time>2014-09-07T08:38:05.000Z</time>
      </trkpt>
      <trkpt lat="48.20474" lon="3.2117">
        <ele>174</ele>
        <time>2014-09-07T08:38:06.000Z</time>
      </trkpt>
      <trkpt lat="48.20481" lon="3.21178">
        <ele>174</ele>
        <time>2014-09-07T08:38:07.000Z</time>
      </trkpt>
      <trkpt lat="48.20487" lon="3.21185">
        <ele>173</ele>
        <time>2014-09-07T08:38:08.000Z</time>
      </trkpt>
      <trkpt lat="48.20494" lon="3.21191">
        <ele>173</ele>
        <time>2014-09-07T08:38:09.000Z</time>
      </trkpt>
      <trkpt lat="48.20499" lon="3.21198">
        <ele>173</ele>
        <time>2014-09-07T08:38:10.000Z</time>
      </trkpt>
      <trkpt lat="48.20505" lon="3.21202">
        <ele>173</ele>
        <time>2014-09-07T08:38:11.000Z</time>
      </trkpt>
      <trkpt lat="48.2051" lon="3.21208">
        <ele>173</ele>
        <time>2014-09-07T08:38:12.000Z</time>
      </trkpt>
      <trkpt lat="48.20515" lon="3.21213">
        <ele>173</ele>
        <time>2014-09-07T08:38:13.000Z</time>
      </trkpt>
      <trkpt lat="48.20521" lon="3.21219">
        <ele>173</ele>
        <time>2014-09-07T08:38:14.000Z</time>
      </trkpt>
      <trkpt lat="48.20525" lon="3.21223">
        <ele>173</ele>
        <time>2014-09-07T08:38:15.000Z</time>
      </trkpt>
      <trkpt lat="48.20529" lon="3.21228">
        <ele>173</ele>
        <time>2014-09-07T08:38:16.000Z</time>
      </trkpt>
      <trkpt lat="48.20534" lon="3.2123">
        <ele>173</ele>
        <time>2014-09-07T08:38:17.000Z</time>
      </trkpt>
      <trkpt lat="48.20538" lon="3.21234">
        <ele>173</ele>
        <time>2014-09-07T08:38:18.000Z</time>
      </trkpt>
      <trkpt lat="48.20541" lon="3.21239">
        <ele>173</ele>
        <time>2014-09-07T08:38:19.000Z</time>
      </trkpt>
      <trkpt lat="48.20544" lon="3.21243">
        <ele>173</ele>
        <time>2014-09-07T08:38:20.000Z</time>
      </trkpt>
      <trkpt lat="48.20548" lon="3.21247">
        <ele>174</ele>
        <time>2014-09-07T08:38:24.000Z</time>
      </trkpt>
      <trkpt lat="48.20554" lon="3.21258">
        <ele>174</ele>
        <time>2014-09-07T08:38:25.000Z</time>
      </trkpt>
      <trkpt lat="48.20554" lon="3.21258">
        <ele>174</ele>
        <time>2014-09-07T08:38:28.000Z</time>
      </trkpt>
      <trkpt lat="48.20558" lon="3.21271">
        <ele>174</ele>
        <time>2014-09-07T08:38:29.000Z</time>
      </trkpt>
      <trkpt lat="48.20559" lon="3.21275">
        <ele>174</ele>
        <time>2014-09-07T08:38:30.000Z</time>
      </trkpt>
      <trkpt lat="48.2056" lon="3.21277">
        <ele>174</ele>
        <time>2014-09-07T08:38:31.000Z</time>
      </trkpt>
      <trkpt lat="48.20562" lon="3.21281">
        <ele>174</ele>
        <time>2014-09-07T08:38:36.000Z</time>
      </trkpt>
      <trkpt lat="48.20563" lon="3.21296">
        <ele>174</ele>
        <time>2014-09-07T08:38:37.000Z</time>
      </trkpt>
      <trkpt lat="48.20564" lon="3.21303">
        <ele>174</ele>
        <time>2014-09-07T08:38:39.000Z</time>
      </trkpt>
      <trkpt lat="48.20564" lon="3.21305">
        <ele>174</ele>
        <time>2014-09-07T08:38:40.000Z</time>
      </trkpt>
      <trkpt lat="48.20565" lon="3.21311">
        <ele>174</ele>
        <time>2014-09-07T08:38:42.000Z</time>
      </trkpt>
      <trkpt lat="48.20564" lon="3.21316">
        <ele>174</ele>
        <time>2014-09-07T08:38:43.000Z</time>
      </trkpt>
      <trkpt lat="48.20564" lon="3.21322">
        <ele>174</ele>
        <time>2014-09-07T08:38:45.000Z</time>
      </trkpt>
      <trkpt lat="48.20563" lon="3.21324">
        <ele>174</ele>
        <time>2014-09-07T08:38:46.000Z</time>
      </trkpt>
      <trkpt lat="48.20562" lon="3.21331">
        <ele>174</ele>
        <time>2014-09-07T08:38:48.000Z</time>
      </trkpt>
      <trkpt lat="48.20562" lon="3.21335">
        <ele>174</ele>
        <time>2014-09-07T08:38:49.000Z</time>
      </trkpt>
      <trkpt lat="48.20562" lon="3.21339">
        <ele>174</ele>
        <time>2014-09-07T08:38:50.000Z</time>
      </trkpt>
      <trkpt lat="48.20562" lon="3.21346">
        <ele>174</ele>
        <time>2014-09-07T08:38:51.000Z</time>
      </trkpt>
      <trkpt lat="48.20562" lon="3.2135">
        <ele>174</ele>
        <time>2014-09-07T08:38:52.000Z</time>
      </trkpt>
      <trkpt lat="48.2056" lon="3.21357">
        <ele>174</ele>
        <time>2014-09-07T08:38:53.000Z</time>
      </trkpt>
      <trkpt lat="48.2056" lon="3.21363">
        <ele>174</ele>
        <time>2014-09-07T08:38:54.000Z</time>
      </trkpt>
      <trkpt lat="48.2056" lon="3.21369">
        <ele>174</ele>
        <time>2014-09-07T08:38:55.000Z</time>
      </trkpt>
      <trkpt lat="48.20559" lon="3.21376">
        <ele>174</ele>
        <time>2014-09-07T08:38:56.000Z</time>
      </trkpt>
      <trkpt lat="48.20559" lon="3.21384">
        <ele>174</ele>
        <time>2014-09-07T08:38:57.000Z</time>
      </trkpt>
      <trkpt lat="48.20558" lon="3.21393">
        <ele>174</ele>
        <time>2014-09-07T08:38:58.000Z</time>
      </trkpt>
      <trkpt lat="48.20558" lon="3.21399">
        <ele>174</ele>
        <time>2014-09-07T08:38:59.000Z</time>
      </trkpt>
      <trkpt lat="48.20557" lon="3.21408">
        <ele>174</ele>
        <time>2014-09-07T08:39:00.000Z</time>
      </trkpt>
      <trkpt lat="48.20557" lon="3.21408">
        <ele>174</ele>
        <time>2014-09-07T08:39:03.000Z</time>
      </trkpt>
      <trkpt lat="48.20562" lon="3.21423">
        <ele>175</ele>
        <time>2014-09-07T08:39:04.000Z</time>
      </trkpt>
      <trkpt lat="48.20562" lon="3.21423">
        <ele>175</ele>
        <time>2014-09-07T08:39:07.000Z</time>
      </trkpt>
      <trkpt lat="48.20568" lon="3.21436">
        <ele>175</ele>
        <time>2014-09-07T08:39:08.000Z</time>
      </trkpt>
      <trkpt lat="48.2057" lon="3.2144">
        <ele>175</ele>
        <time>2014-09-07T08:39:09.000Z</time>
      </trkpt>
      <trkpt lat="48.20572" lon="3.21445">
        <ele>175</ele>
        <time>2014-09-07T08:39:10.000Z</time>
      </trkpt>
      <trkpt lat="48.20574" lon="3.21449">
        <ele>175</ele>
        <time>2014-09-07T08:39:11.000Z</time>
      </trkpt>
      <trkpt lat="48.20575" lon="3.21453">
        <ele>175</ele>
        <time>2014-09-07T08:39:12.000Z</time>
      </trkpt>
      <trkpt lat="48.20578" lon="3.21455">
        <ele>175</ele>
        <time>2014-09-07T08:39:13.000Z</time>
      </trkpt>
      <trkpt lat="48.2058" lon="3.2146">
        <ele>175</ele>
        <time>2014-09-07T08:39:14.000Z</time>
      </trkpt>
      <trkpt lat="48.20581" lon="3.21464">
        <ele>175</ele>
        <time>2014-09-07T08:39:15.000Z</time>
      </trkpt>
      <trkpt lat="48.20582" lon="3.21468">
        <ele>175</ele>
        <time>2014-09-07T08:39:16.000Z</time>
      </trkpt>
      <trkpt lat="48.20583" lon="3.21472">
        <ele>175</ele>
        <time>2014-09-07T08:39:17.000Z</time>
      </trkpt>
      <trkpt lat="48.20584" lon="3.21477">
        <ele>179</ele>
        <time>2014-09-07T08:39:18.000Z</time>
      </trkpt>
      <trkpt lat="48.20584" lon="3.21481">
        <ele>179</ele>
        <time>2014-09-07T08:39:19.000Z</time>
      </trkpt>
      <trkpt lat="48.20585" lon="3.21487">
        <ele>178</ele>
        <time>2014-09-07T08:39:20.000Z</time>
      </trkpt>
      <trkpt lat="48.20586" lon="3.21492">
        <ele>178</ele>
        <time>2014-09-07T08:39:21.000Z</time>
      </trkpt>
      <trkpt lat="48.20587" lon="3.21496">
        <ele>178</ele>
        <time>2014-09-07T08:39:22.000Z</time>
      </trkpt>
      <trkpt lat="48.20589" lon="3.21498">
        <ele>178</ele>
        <time>2014-09-07T08:39:23.000Z</time>
      </trkpt>
      <trkpt lat="48.20593" lon="3.21502">
        <ele>178</ele>
        <time>2014-09-07T08:39:24.000Z</time>
      </trkpt>
      <trkpt lat="48.20596" lon="3.21505">
        <ele>179</ele>
        <time>2014-09-07T08:39:25.000Z</time>
      </trkpt>
      <trkpt lat="48.206" lon="3.21507">
        <ele>179</ele>
        <time>2014-09-07T08:39:26.000Z</time>
      </trkpt>
      <trkpt lat="48.20604" lon="3.21509">
        <ele>180</ele>
        <time>2014-09-07T08:39:27.000Z</time>
      </trkpt>
      <trkpt lat="48.20608" lon="3.21511">
        <ele>180</ele>
        <time>2014-09-07T08:39:28.000Z</time>
      </trkpt>
      <trkpt lat="48.20612" lon="3.21511">
        <ele>180</ele>
        <time>2014-09-07T08:39:29.000Z</time>
      </trkpt>
      <trkpt lat="48.20616" lon="3.21511">
        <ele>181</ele>
        <time>2014-09-07T08:39:30.000Z</time>
      </trkpt>
      <trkpt lat="48.20619" lon="3.21511">
        <ele>181</ele>
        <time>2014-09-07T08:39:31.000Z</time>
      </trkpt>
      <trkpt lat="48.20623" lon="3.21511">
        <ele>181</ele>
        <time>2014-09-07T08:39:32.000Z</time>
      </trkpt>
      <trkpt lat="48.20626" lon="3.21511">
        <ele>181</ele>
        <time>2014-09-07T08:39:33.000Z</time>
      </trkpt>
      <trkpt lat="48.20629" lon="3.21511">
        <ele>182</ele>
        <time>2014-09-07T08:39:34.000Z</time>
      </trkpt>
      <trkpt lat="48.20632" lon="3.21511">
        <ele>182</ele>
        <time>2014-09-07T08:39:35.000Z</time>
      </trkpt>
      <trkpt lat="48.20636" lon="3.21511">
        <ele>182</ele>
        <time>2014-09-07T08:39:36.000Z</time>
      </trkpt>
      <trkpt lat="48.2064" lon="3.21511">
        <ele>182</ele>
        <time>2014-09-07T08:39:37.000Z</time>
      </trkpt>
      <trkpt lat="48.20643" lon="3.21511">
        <ele>183</ele>
        <time>2014-09-07T08:39:38.000Z</time>
      </trkpt>
      <trkpt lat="48.20647" lon="3.21513">
        <ele>183</ele>
        <time>2014-09-07T08:39:39.000Z</time>
      </trkpt>
      <trkpt lat="48.20652" lon="3.21513">
        <ele>183</ele>
        <time>2014-09-07T08:39:40.000Z</time>
      </trkpt>
      <trkpt lat="48.20655" lon="3.21515">
        <ele>183</ele>
        <time>2014-09-07T08:39:41.000Z</time>
      </trkpt>
      <trkpt lat="48.20659" lon="3.21515">
        <ele>184</ele>
        <time>2014-09-07T08:39:42.000Z</time>
      </trkpt>
      <trkpt lat="48.20663" lon="3.21517">
        <ele>184</ele>
        <time>2014-09-07T08:39:43.000Z</time>
      </trkpt>
      <trkpt lat="48.20668" lon="3.21517">
        <ele>186</ele>
        <time>2014-09-07T08:39:44.000Z</time>
      </trkpt>
      <trkpt lat="48.20672" lon="3.2152">
        <ele>186</ele>
        <time>2014-09-07T08:39:45.000Z</time>
      </trkpt>
      <trkpt lat="48.20676" lon="3.2152">
        <ele>186</ele>
        <time>2014-09-07T08:39:46.000Z</time>
      </trkpt>
      <trkpt lat="48.20681" lon="3.21522">
        <ele>186</ele>
        <time>2014-09-07T08:39:47.000Z</time>
      </trkpt>
      <trkpt lat="48.20685" lon="3.21522">
        <ele>186</ele>
        <time>2014-09-07T08:39:48.000Z</time>
      </trkpt>
      <trkpt lat="48.20689" lon="3.21522">
        <ele>186</ele>
        <time>2014-09-07T08:39:49.000Z</time>
      </trkpt>
      <trkpt lat="48.20693" lon="3.21524">
        <ele>186</ele>
        <time>2014-09-07T08:39:50.000Z</time>
      </trkpt>
      <trkpt lat="48.20698" lon="3.21526">
        <ele>185</ele>
        <time>2014-09-07T08:39:51.000Z</time>
      </trkpt>
      <trkpt lat="48.20702" lon="3.21528">
        <ele>185</ele>
        <time>2014-09-07T08:39:52.000Z</time>
      </trkpt>
      <trkpt lat="48.20706" lon="3.2153">
        <ele>185</ele>
        <time>2014-09-07T08:39:53.000Z</time>
      </trkpt>
      <trkpt lat="48.20712" lon="3.21532">
        <ele>185</ele>
        <time>2014-09-07T08:39:54.000Z</time>
      </trkpt>
      <trkpt lat="48.20715" lon="3.21535">
        <ele>185</ele>
        <time>2014-09-07T08:39:55.000Z</time>
      </trkpt>
      <trkpt lat="48.20719" lon="3.21539">
        <ele>185</ele>
        <time>2014-09-07T08:39:56.000Z</time>
      </trkpt>
      <trkpt lat="48.20722" lon="3.21543">
        <ele>186</ele>
        <time>2014-09-07T08:39:57.000Z</time>
      </trkpt>
      <trkpt lat="48.20726" lon="3.21548">
        <ele>186</ele>
        <time>2014-09-07T08:39:58.000Z</time>
      </trkpt>
      <trkpt lat="48.20729" lon="3.21548">
        <ele>186</ele>
        <time>2014-09-07T08:39:59.000Z</time>
      </trkpt>
      <trkpt lat="48.20732" lon="3.2155">
        <ele>186</ele>
        <time>2014-09-07T08:40:00.000Z</time>
      </trkpt>
      <trkpt lat="48.20734" lon="3.2155">
        <ele>186</ele>
        <time>2014-09-07T08:40:01.000Z</time>
      </trkpt>
      <trkpt lat="48.20736" lon="3.21548">
        <ele>186</ele>
        <time>2014-09-07T08:40:02.000Z</time>
      </trkpt>
      <trkpt lat="48.20737" lon="3.21541">
        <ele>185</ele>
        <time>2014-09-07T08:40:09.000Z</time>
      </trkpt>
      <trkpt lat="48.20742" lon="3.21528">
        <ele>185</ele>
        <time>2014-09-07T08:40:10.000Z</time>
      </trkpt>
      <trkpt lat="48.20742" lon="3.21528">
        <ele>185</ele>
        <time>2014-09-07T08:40:18.000Z</time>
      </trkpt>
      <trkpt lat="48.20751" lon="3.21528">
        <ele>184</ele>
        <time>2014-09-07T08:40:19.000Z</time>
      </trkpt>
      <trkpt lat="48.20751" lon="3.21528">
        <ele>184</ele>
        <time>2014-09-07T08:40:25.000Z</time>
      </trkpt>
      <trkpt lat="48.20759" lon="3.21535">
        <ele>184</ele>
        <time>2014-09-07T08:40:26.000Z</time>
      </trkpt>
      <trkpt lat="48.20759" lon="3.21535">
        <ele>184</ele>
        <time>2014-09-07T08:40:34.000Z</time>
      </trkpt>
      <trkpt lat="48.20769" lon="3.21535">
        <ele>184</ele>
        <time>2014-09-07T08:40:35.000Z</time>
      </trkpt>
      <trkpt lat="48.20769" lon="3.21535">
        <ele>184</ele>
        <time>2014-09-07T08:40:38.000Z</time>
      </trkpt>
      <trkpt lat="48.20777" lon="3.21526">
        <ele>184</ele>
        <time>2014-09-07T08:40:39.000Z</time>
      </trkpt>
      <trkpt lat="48.20777" lon="3.21526">
        <ele>184</ele>
        <time>2014-09-07T08:40:40.000Z</time>
      </trkpt>
      <trkpt lat="48.20781" lon="3.21522">
        <ele>184</ele>
        <time>2014-09-07T08:40:41.000Z</time>
      </trkpt>
      <trkpt lat="48.20781" lon="3.21522">
        <ele>184</ele>
        <time>2014-09-07T08:41:03.000Z</time>
      </trkpt>
      <trkpt lat="48.20783" lon="3.21513">
        <ele>183</ele>
        <time>2014-09-07T08:41:04.000Z</time>
      </trkpt>
      <trkpt lat="48.20783" lon="3.21513">
        <ele>183</ele>
        <time>2014-09-07T08:41:09.000Z</time>
      </trkpt>
      <trkpt lat="48.20792" lon="3.21513">
        <ele>183</ele>
        <time>2014-09-07T08:41:10.000Z</time>
      </trkpt>
      <trkpt lat="48.20795" lon="3.21511">
        <ele>183</ele>
        <time>2014-09-07T08:41:12.000Z</time>
      </trkpt>
      <trkpt lat="48.20796" lon="3.21509">
        <ele>183</ele>
        <time>2014-09-07T08:41:13.000Z</time>
      </trkpt>
      <trkpt lat="48.20799" lon="3.21509">
        <ele>183</ele>
        <time>2014-09-07T08:41:14.000Z</time>
      </trkpt>
      <trkpt lat="48.20801" lon="3.21507">
        <ele>183</ele>
        <time>2014-09-07T08:41:15.000Z</time>
      </trkpt>
      <trkpt lat="48.20802" lon="3.21505">
        <ele>183</ele>
        <time>2014-09-07T08:41:16.000Z</time>
      </trkpt>
      <trkpt lat="48.20805" lon="3.21505">
        <ele>183</ele>
        <time>2014-09-07T08:41:17.000Z</time>
      </trkpt>
      <trkpt lat="48.20807" lon="3.215">
        <ele>182</ele>
        <time>2014-09-07T08:41:18.000Z</time>
      </trkpt>
      <trkpt lat="48.2081" lon="3.215">
        <ele>182</ele>
        <time>2014-09-07T08:41:19.000Z</time>
      </trkpt>
      <trkpt lat="48.20814" lon="3.21498">
        <ele>180</ele>
        <time>2014-09-07T08:41:20.000Z</time>
      </trkpt>
      <trkpt lat="48.20817" lon="3.21498">
        <ele>180</ele>
        <time>2014-09-07T08:41:21.000Z</time>
      </trkpt>
      <trkpt lat="48.2082" lon="3.21496">
        <ele>180</ele>
        <time>2014-09-07T08:41:22.000Z</time>
      </trkpt>
      <trkpt lat="48.20823" lon="3.21496">
        <ele>180</ele>
        <time>2014-09-07T08:41:23.000Z</time>
      </trkpt>
      <trkpt lat="48.20827" lon="3.21498">
        <ele>180</ele>
        <time>2014-09-07T08:41:25.000Z</time>
      </trkpt>
      <trkpt lat="48.20828" lon="3.21498">
        <ele>180</ele>
        <time>2014-09-07T08:41:26.000Z</time>
      </trkpt>
      <trkpt lat="48.20831" lon="3.215">
        <ele>180</ele>
        <time>2014-09-07T08:41:31.000Z</time>
      </trkpt>
      <trkpt lat="48.20832" lon="3.215">
        <ele>180</ele>
        <time>2014-09-07T08:41:32.000Z</time>
      </trkpt>
      <trkpt lat="48.20836" lon="3.215">
        <ele>180</ele>
        <time>2014-09-07T08:41:36.000Z</time>
      </trkpt>
      <trkpt lat="48.20837" lon="3.21502">
        <ele>180</ele>
        <time>2014-09-07T08:41:37.000Z</time>
      </trkpt>
      <trkpt lat="48.2084" lon="3.21505">
        <ele>180</ele>
        <time>2014-09-07T08:41:40.000Z</time>
      </trkpt>
      <trkpt lat="48.20842" lon="3.21507">
        <ele>180</ele>
        <time>2014-09-07T08:41:41.000Z</time>
      </trkpt>
      <trkpt lat="48.20843" lon="3.21513">
        <ele>180</ele>
        <time>2014-09-07T08:41:43.000Z</time>
      </trkpt>
      <trkpt lat="48.20844" lon="3.21515">
        <ele>180</ele>
        <time>2014-09-07T08:41:44.000Z</time>
      </trkpt>
      <trkpt lat="48.20844" lon="3.21522">
        <ele>180</ele>
        <time>2014-09-07T08:41:46.000Z</time>
      </trkpt>
      <trkpt lat="48.20845" lon="3.21524">
        <ele>180</ele>
        <time>2014-09-07T08:41:47.000Z</time>
      </trkpt>
      <trkpt lat="48.20845" lon="3.21528">
        <ele>180</ele>
        <time>2014-09-07T08:41:48.000Z</time>
      </trkpt>
      <trkpt lat="48.20845" lon="3.21532">
        <ele>180</ele>
        <time>2014-09-07T08:41:49.000Z</time>
      </trkpt>
      <trkpt lat="48.20846" lon="3.21537">
        <ele>181</ele>
        <time>2014-09-07T08:41:50.000Z</time>
      </trkpt>
      <trkpt lat="48.20846" lon="3.21539">
        <ele>181</ele>
        <time>2014-09-07T08:41:51.000Z</time>
      </trkpt>
      <trkpt lat="48.20847" lon="3.21543">
        <ele>181</ele>
        <time>2014-09-07T08:41:52.000Z</time>
      </trkpt>
      <trkpt lat="48.20847" lon="3.21548">
        <ele>181</ele>
        <time>2014-09-07T08:41:53.000Z</time>
      </trkpt>
      <trkpt lat="48.20847" lon="3.21552">
        <ele>181</ele>
        <time>2014-09-07T08:41:54.000Z</time>
      </trkpt>
      <trkpt lat="48.20847" lon="3.21558">
        <ele>181</ele>
        <time>2014-09-07T08:41:55.000Z</time>
      </trkpt>
      <trkpt lat="48.20846" lon="3.21563">
        <ele>182</ele>
        <time>2014-09-07T08:41:56.000Z</time>
      </trkpt>
      <trkpt lat="48.20846" lon="3.21567">
        <ele>182</ele>
        <time>2014-09-07T08:41:57.000Z</time>
      </trkpt>
      <trkpt lat="48.20845" lon="3.21571">
        <ele>182</ele>
        <time>2014-09-07T08:41:58.000Z</time>
      </trkpt>
      <trkpt lat="48.20845" lon="3.21575">
        <ele>182</ele>
        <time>2014-09-07T08:41:59.000Z</time>
      </trkpt>
      <trkpt lat="48.20844" lon="3.2158">
        <ele>183</ele>
        <time>2014-09-07T08:42:00.000Z</time>
      </trkpt>
      <trkpt lat="48.20843" lon="3.21584">
        <ele>184</ele>
        <time>2014-09-07T08:42:01.000Z</time>
      </trkpt>
      <trkpt lat="48.20843" lon="3.21588">
        <ele>184</ele>
        <time>2014-09-07T08:42:02.000Z</time>
      </trkpt>
      <trkpt lat="48.20842" lon="3.21593">
        <ele>184</ele>
        <time>2014-09-07T08:42:03.000Z</time>
      </trkpt>
      <trkpt lat="48.20842" lon="3.21597">
        <ele>184</ele>
        <time>2014-09-07T08:42:04.000Z</time>
      </trkpt>
      <trkpt lat="48.2084" lon="3.21601">
        <ele>184</ele>
        <time>2014-09-07T08:42:05.000Z</time>
      </trkpt>
      <trkpt lat="48.20839" lon="3.21608">
        <ele>184</ele>
        <time>2014-09-07T08:42:07.000Z</time>
      </trkpt>
      <trkpt lat="48.20839" lon="3.21612">
        <ele>184</ele>
        <time>2014-09-07T08:42:08.000Z</time>
      </trkpt>
      <trkpt lat="48.20838" lon="3.21618">
        <ele>184</ele>
        <time>2014-09-07T08:42:10.000Z</time>
      </trkpt>
      <trkpt lat="48.20838" lon="3.2162">
        <ele>184</ele>
        <time>2014-09-07T08:42:11.000Z</time>
      </trkpt>
      <trkpt lat="48.20837" lon="3.21627">
        <ele>184</ele>
        <time>2014-09-07T08:42:13.000Z</time>
      </trkpt>
      <trkpt lat="48.20837" lon="3.21631">
        <ele>184</ele>
        <time>2014-09-07T08:42:14.000Z</time>
      </trkpt>
      <trkpt lat="48.20836" lon="3.21638">
        <ele>184</ele>
        <time>2014-09-07T08:42:16.000Z</time>
      </trkpt>
      <trkpt lat="48.20836" lon="3.21642">
        <ele>184</ele>
        <time>2014-09-07T08:42:17.000Z</time>
      </trkpt>
      <trkpt lat="48.20835" lon="3.21648">
        <ele>184</ele>
        <time>2014-09-07T08:42:19.000Z</time>
      </trkpt>
      <trkpt lat="48.20834" lon="3.21651">
        <ele>184</ele>
        <time>2014-09-07T08:42:20.000Z</time>
      </trkpt>
      <trkpt lat="48.20834" lon="3.21657">
        <ele>184</ele>
        <time>2014-09-07T08:42:22.000Z</time>
      </trkpt>
      <trkpt lat="48.20834" lon="3.21661">
        <ele>185</ele>
        <time>2014-09-07T08:42:23.000Z</time>
      </trkpt>
      <trkpt lat="48.20834" lon="3.21668">
        <ele>185</ele>
        <time>2014-09-07T08:42:25.000Z</time>
      </trkpt>
      <trkpt lat="48.20834" lon="3.21672">
        <ele>184</ele>
        <time>2014-09-07T08:42:26.000Z</time>
      </trkpt>
      <trkpt lat="48.20834" lon="3.21678">
        <ele>184</ele>
        <time>2014-09-07T08:42:28.000Z</time>
      </trkpt>
      <trkpt lat="48.20835" lon="3.21683">
        <ele>184</ele>
        <time>2014-09-07T08:42:29.000Z</time>
      </trkpt>
      <trkpt lat="48.20836" lon="3.21687">
        <ele>183</ele>
        <time>2014-09-07T08:42:30.000Z</time>
      </trkpt>
      <trkpt lat="48.20837" lon="3.21693">
        <ele>183</ele>
        <time>2014-09-07T08:42:31.000Z</time>
      </trkpt>
      <trkpt lat="48.20838" lon="3.21698">
        <ele>183</ele>
        <time>2014-09-07T08:42:32.000Z</time>
      </trkpt>
      <trkpt lat="48.20839" lon="3.21702">
        <ele>183</ele>
        <time>2014-09-07T08:42:33.000Z</time>
      </trkpt>
      <trkpt lat="48.2084" lon="3.21706">
        <ele>183</ele>
        <time>2014-09-07T08:42:34.000Z</time>
      </trkpt>
      <trkpt lat="48.20843" lon="3.21713">
        <ele>183</ele>
        <time>2014-09-07T08:42:35.000Z</time>
      </trkpt>
      <trkpt lat="48.20846" lon="3.21717">
        <ele>182</ele>
        <time>2014-09-07T08:42:36.000Z</time>
      </trkpt>
      <trkpt lat="48.20849" lon="3.21723">
        <ele>182</ele>
        <time>2014-09-07T08:42:37.000Z</time>
      </trkpt>
      <trkpt lat="48.20851" lon="3.21728">
        <ele>182</ele>
        <time>2014-09-07T08:42:38.000Z</time>
      </trkpt>
      <trkpt lat="48.20854" lon="3.21732">
        <ele>182</ele>
        <time>2014-09-07T08:42:39.000Z</time>
      </trkpt>
      <trkpt lat="48.20859" lon="3.21738">
        <ele>182</ele>
        <time>2014-09-07T08:42:40.000Z</time>
      </trkpt>
      <trkpt lat="48.20861" lon="3.21741">
        <ele>182</ele>
        <time>2014-09-07T08:42:41.000Z</time>
      </trkpt>
      <trkpt lat="48.20863" lon="3.21743">
        <ele>182</ele>
        <time>2014-09-07T08:42:42.000Z</time>
      </trkpt>
      <trkpt lat="48.20866" lon="3.21747">
        <ele>182</ele>
        <time>2014-09-07T08:42:45.000Z</time>
      </trkpt>
      <trkpt lat="48.20867" lon="3.21747">
        <ele>182</ele>
        <time>2014-09-07T08:42:46.000Z</time>
      </trkpt>
      <trkpt lat="48.20872" lon="3.21747">
        <ele>182</ele>
        <time>2014-09-07T08:42:52.000Z</time>
      </trkpt>
      <trkpt lat="48.20873" lon="3.21747">
        <ele>182</ele>
        <time>2014-09-07T08:42:53.000Z</time>
      </trkpt>
      <trkpt lat="48.20876" lon="3.21743">
        <ele>182</ele>
        <time>2014-09-07T08:42:58.000Z</time>
      </trkpt>
      <trkpt lat="48.20877" lon="3.21743">
        <ele>182</ele>
        <time>2014-09-07T08:42:59.000Z</time>
      </trkpt>
      <trkpt lat="48.20879" lon="3.21743">
        <ele>182</ele>
        <time>2014-09-07T08:43:00.000Z</time>
      </trkpt>
      <trkpt lat="48.20881" lon="3.21741">
        <ele>182</ele>
        <time>2014-09-07T08:43:01.000Z</time>
      </trkpt>
      <trkpt lat="48.20884" lon="3.21741">
        <ele>182</ele>
        <time>2014-09-07T08:43:02.000Z</time>
      </trkpt>
      <trkpt lat="48.20888" lon="3.21741">
        <ele>182</ele>
        <time>2014-09-07T08:43:03.000Z</time>
      </trkpt>
      <trkpt lat="48.20891" lon="3.21738">
        <ele>182</ele>
        <time>2014-09-07T08:43:04.000Z</time>
      </trkpt>
      <trkpt lat="48.20895" lon="3.21738">
        <ele>181</ele>
        <time>2014-09-07T08:43:05.000Z</time>
      </trkpt>
      <trkpt lat="48.20898" lon="3.21741">
        <ele>181</ele>
        <time>2014-09-07T08:43:06.000Z</time>
      </trkpt>
      <trkpt lat="48.20902" lon="3.21741">
        <ele>181</ele>
        <time>2014-09-07T08:43:07.000Z</time>
      </trkpt>
      <trkpt lat="48.20905" lon="3.21743">
        <ele>181</ele>
        <time>2014-09-07T08:43:08.000Z</time>
      </trkpt>
      <trkpt lat="48.20907" lon="3.21743">
        <ele>181</ele>
        <time>2014-09-07T08:43:09.000Z</time>
      </trkpt>
      <trkpt lat="48.2091" lon="3.21745">
        <ele>181</ele>
        <time>2014-09-07T08:43:10.000Z</time>
      </trkpt>
      <trkpt lat="48.20912" lon="3.21747">
        <ele>180</ele>
        <time>2014-09-07T08:43:11.000Z</time>
      </trkpt>
      <trkpt lat="48.20915" lon="3.21749">
        <ele>180</ele>
        <time>2014-09-07T08:43:12.000Z</time>
      </trkpt>
      <trkpt lat="48.20917" lon="3.21751">
        <ele>180</ele>
        <time>2014-09-07T08:43:13.000Z</time>
      </trkpt>
      <trkpt lat="48.20919" lon="3.21754">
        <ele>179</ele>
        <time>2014-09-07T08:43:14.000Z</time>
      </trkpt>
      <trkpt lat="48.20921" lon="3.21756">
        <ele>179</ele>
        <time>2014-09-07T08:43:15.000Z</time>
      </trkpt>
      <trkpt lat="48.20924" lon="3.2176">
        <ele>178</ele>
        <time>2014-09-07T08:43:17.000Z</time>
      </trkpt>
      <trkpt lat="48.20925" lon="3.21762">
        <ele>178</ele>
        <time>2014-09-07T08:43:18.000Z</time>
      </trkpt>
      <trkpt lat="48.20928" lon="3.21764">
        <ele>178</ele>
        <time>2014-09-07T08:43:20.000Z</time>
      </trkpt>
      <trkpt lat="48.20931" lon="3.21766">
        <ele>177</ele>
        <time>2014-09-07T08:43:21.000Z</time>
      </trkpt>
      <trkpt lat="48.20934" lon="3.21766">
        <ele>177</ele>
        <time>2014-09-07T08:43:23.000Z</time>
      </trkpt>
      <trkpt lat="48.20937" lon="3.21766">
        <ele>177</ele>
        <time>2014-09-07T08:43:24.000Z</time>
      </trkpt>
      <trkpt lat="48.20941" lon="3.21766">
        <ele>177</ele>
        <time>2014-09-07T08:43:26.000Z</time>
      </trkpt>
      <trkpt lat="48.20943" lon="3.21769">
        <ele>177</ele>
        <time>2014-09-07T08:43:27.000Z</time>
      </trkpt>
      <trkpt lat="48.20947" lon="3.21769">
        <ele>176</ele>
        <time>2014-09-07T08:43:28.000Z</time>
      </trkpt>
      <trkpt lat="48.20949" lon="3.21771">
        <ele>176</ele>
        <time>2014-09-07T08:43:29.000Z</time>
      </trkpt>
      <trkpt lat="48.20952" lon="3.21773">
        <ele>176</ele>
        <time>2014-09-07T08:43:31.000Z</time>
      </trkpt>
      <trkpt lat="48.20954" lon="3.21773">
        <ele>176</ele>
        <time>2014-09-07T08:43:32.000Z</time>
      </trkpt>
      <trkpt lat="48.20957" lon="3.21775">
        <ele>176</ele>
        <time>2014-09-07T08:43:34.000Z</time>
      </trkpt>
      <trkpt lat="48.2096" lon="3.21775">
        <ele>176</ele>
        <time>2014-09-07T08:43:35.000Z</time>
      </trkpt>
      <trkpt lat="48.20963" lon="3.21773">
        <ele>176</ele>
        <time>2014-09-07T08:43:37.000Z</time>
      </trkpt>
      <trkpt lat="48.20965" lon="3.21773">
        <ele>176</ele>
        <time>2014-09-07T08:43:38.000Z</time>
      </trkpt>
      <trkpt lat="48.20968" lon="3.21773">
        <ele>176</ele>
        <time>2014-09-07T08:43:40.000Z</time>
      </trkpt>
      <trkpt lat="48.2097" lon="3.21773">
        <ele>176</ele>
        <time>2014-09-07T08:43:41.000Z</time>
      </trkpt>
      <trkpt lat="48.20972" lon="3.21773">
        <ele>176</ele>
        <time>2014-09-07T08:43:42.000Z</time>
      </trkpt>
      <trkpt lat="48.20976" lon="3.21775">
        <ele>175</ele>
        <time>2014-09-07T08:43:43.000Z</time>
      </trkpt>
      <trkpt lat="48.20978" lon="3.21775">
        <ele>175</ele>
        <time>2014-09-07T08:43:44.000Z</time>
      </trkpt>
      <trkpt lat="48.2098" lon="3.21777">
        <ele>175</ele>
        <time>2014-09-07T08:43:45.000Z</time>
      </trkpt>
      <trkpt lat="48.20982" lon="3.21777">
        <ele>175</ele>
        <time>2014-09-07T08:43:46.000Z</time>
      </trkpt>
      <trkpt lat="48.20985" lon="3.21777">
        <ele>175</ele>
        <time>2014-09-07T08:43:47.000Z</time>
      </trkpt>
      <trkpt lat="48.20987" lon="3.21777">
        <ele>175</ele>
        <time>2014-09-07T08:43:48.000Z</time>
      </trkpt>
      <trkpt lat="48.20991" lon="3.21777">
        <ele>175</ele>
        <time>2014-09-07T08:43:49.000Z</time>
      </trkpt>
      <trkpt lat="48.20994" lon="3.21775">
        <ele>175</ele>
        <time>2014-09-07T08:43:50.000Z</time>
      </trkpt>
      <trkpt lat="48.20998" lon="3.21775">
        <ele>175</ele>
        <time>2014-09-07T08:43:51.000Z</time>
      </trkpt>
      <trkpt lat="48.21001" lon="3.21773">
        <ele>173</ele>
        <time>2014-09-07T08:43:52.000Z</time>
      </trkpt>
      <trkpt lat="48.21005" lon="3.21771">
        <ele>173</ele>
        <time>2014-09-07T08:43:53.000Z</time>
      </trkpt>
      <trkpt lat="48.21007" lon="3.21769">
        <ele>173</ele>
        <time>2014-09-07T08:43:54.000Z</time>
      </trkpt>
      <trkpt lat="48.2101" lon="3.21769">
        <ele>173</ele>
        <time>2014-09-07T08:43:55.000Z</time>
      </trkpt>
      <trkpt lat="48.21013" lon="3.21766">
        <ele>173</ele>
        <time>2014-09-07T08:43:56.000Z</time>
      </trkpt>
      <trkpt lat="48.21015" lon="3.21764">
        <ele>173</ele>
        <time>2014-09-07T08:43:57.000Z</time>
      </trkpt>
      <trkpt lat="48.21019" lon="3.21762">
        <ele>173</ele>
        <time>2014-09-07T08:43:58.000Z</time>
      </trkpt>
      <trkpt lat="48.21021" lon="3.2176">
        <ele>173</ele>
        <time>2014-09-07T08:43:59.000Z</time>
      </trkpt>
      <trkpt lat="48.21024" lon="3.21756">
        <ele>173</ele>
        <time>2014-09-07T08:44:02.000Z</time>
      </trkpt>
      <trkpt lat="48.21025" lon="3.21756">
        <ele>173</ele>
        <time>2014-09-07T08:44:03.000Z</time>
      </trkpt>
      <trkpt lat="48.21026" lon="3.21751">
        <ele>173</ele>
        <time>2014-09-07T08:44:05.000Z</time>
      </trkpt>
      <trkpt lat="48.21027" lon="3.21749">
        <ele>173</ele>
        <time>2014-09-07T08:44:06.000Z</time>
      </trkpt>
      <trkpt lat="48.21028" lon="3.21743">
        <ele>173</ele>
        <time>2014-09-07T08:44:09.000Z</time>
      </trkpt>
      <trkpt lat="48.21029" lon="3.21741">
        <ele>173</ele>
        <time>2014-09-07T08:44:10.000Z</time>
      </trkpt>
      <trkpt lat="48.2103" lon="3.21736">
        <ele>173</ele>
        <time>2014-09-07T08:44:12.000Z</time>
      </trkpt>
      <trkpt lat="48.21031" lon="3.21734">
        <ele>173</ele>
        <time>2014-09-07T08:44:13.000Z</time>
      </trkpt>
      <trkpt lat="48.21034" lon="3.21732">
        <ele>173</ele>
        <time>2014-09-07T08:44:15.000Z</time>
      </trkpt>
      <trkpt lat="48.21035" lon="3.21728">
        <ele>173</ele>
        <time>2014-09-07T08:44:16.000Z</time>
      </trkpt>
      <trkpt lat="48.21036" lon="3.21721">
        <ele>173</ele>
        <time>2014-09-07T08:44:18.000Z</time>
      </trkpt>
      <trkpt lat="48.21036" lon="3.21719">
        <ele>173</ele>
        <time>2014-09-07T08:44:19.000Z</time>
      </trkpt>
      <trkpt lat="48.21037" lon="3.21713">
        <ele>172</ele>
        <time>2014-09-07T08:44:20.000Z</time>
      </trkpt>
      <trkpt lat="48.21038" lon="3.21708">
        <ele>172</ele>
        <time>2014-09-07T08:44:21.000Z</time>
      </trkpt>
      <trkpt lat="48.21039" lon="3.21704">
        <ele>172</ele>
        <time>2014-09-07T08:44:22.000Z</time>
      </trkpt>
      <trkpt lat="48.21039" lon="3.217">
        <ele>172</ele>
        <time>2014-09-07T08:44:23.000Z</time>
      </trkpt>
      <trkpt lat="48.2104" lon="3.21696">
        <ele>172</ele>
        <time>2014-09-07T08:44:24.000Z</time>
      </trkpt>
      <trkpt lat="48.21041" lon="3.21691">
        <ele>172</ele>
        <time>2014-09-07T08:44:25.000Z</time>
      </trkpt>
      <trkpt lat="48.21041" lon="3.21687">
        <ele>172</ele>
        <time>2014-09-07T08:44:26.000Z</time>
      </trkpt>
      <trkpt lat="48.21042" lon="3.21683">
        <ele>172</ele>
        <time>2014-09-07T08:44:27.000Z</time>
      </trkpt>
      <trkpt lat="48.21043" lon="3.21676">
        <ele>172</ele>
        <time>2014-09-07T08:44:28.000Z</time>
      </trkpt>
      <trkpt lat="48.21044" lon="3.21672">
        <ele>172</ele>
        <time>2014-09-07T08:44:29.000Z</time>
      </trkpt>
      <trkpt lat="48.21045" lon="3.21666">
        <ele>170</ele>
        <time>2014-09-07T08:44:30.000Z</time>
      </trkpt>
      <trkpt lat="48.21046" lon="3.21661">
        <ele>170</ele>
        <time>2014-09-07T08:44:31.000Z</time>
      </trkpt>
      <trkpt lat="48.21046" lon="3.21655">
        <ele>169</ele>
        <time>2014-09-07T08:44:32.000Z</time>
      </trkpt>
      <trkpt lat="48.21048" lon="3.21651">
        <ele>169</ele>
        <time>2014-09-07T08:44:33.000Z</time>
      </trkpt>
      <trkpt lat="48.21049" lon="3.21646">
        <ele>169</ele>
        <time>2014-09-07T08:44:34.000Z</time>
      </trkpt>
      <trkpt lat="48.2105" lon="3.21642">
        <ele>169</ele>
        <time>2014-09-07T08:44:35.000Z</time>
      </trkpt>
      <trkpt lat="48.21051" lon="3.2164">
        <ele>169</ele>
        <time>2014-09-07T08:44:36.000Z</time>
      </trkpt>
      <trkpt lat="48.21053" lon="3.21635">
        <ele>169</ele>
        <time>2014-09-07T08:44:37.000Z</time>
      </trkpt>
      <trkpt lat="48.21055" lon="3.21633">
        <ele>169</ele>
        <time>2014-09-07T08:44:38.000Z</time>
      </trkpt>
      <trkpt lat="48.21056" lon="3.21629">
        <ele>168</ele>
        <time>2014-09-07T08:44:39.000Z</time>
      </trkpt>
      <trkpt lat="48.21058" lon="3.21625">
        <ele>168</ele>
        <time>2014-09-07T08:44:40.000Z</time>
      </trkpt>
      <trkpt lat="48.2106" lon="3.21623">
        <ele>168</ele>
        <time>2014-09-07T08:44:41.000Z</time>
      </trkpt>
      <trkpt lat="48.21063" lon="3.21618">
        <ele>168</ele>
        <time>2014-09-07T08:44:42.000Z</time>
      </trkpt>
      <trkpt lat="48.21065" lon="3.21614">
        <ele>167</ele>
        <time>2014-09-07T08:44:43.000Z</time>
      </trkpt>
      <trkpt lat="48.21067" lon="3.2161">
        <ele>167</ele>
        <time>2014-09-07T08:44:44.000Z</time>
      </trkpt>
      <trkpt lat="48.21068" lon="3.21605">
        <ele>167</ele>
        <time>2014-09-07T08:44:45.000Z</time>
      </trkpt>
      <trkpt lat="48.2107" lon="3.21603">
        <ele>166</ele>
        <time>2014-09-07T08:44:46.000Z</time>
      </trkpt>
      <trkpt lat="48.21072" lon="3.21599">
        <ele>165</ele>
        <time>2014-09-07T08:44:47.000Z</time>
      </trkpt>
      <trkpt lat="48.21074" lon="3.21595">
        <ele>165</ele>
        <time>2014-09-07T08:44:48.000Z</time>
      </trkpt>
      <trkpt lat="48.21075" lon="3.21593">
        <ele>164</ele>
        <time>2014-09-07T08:44:49.000Z</time>
      </trkpt>
      <trkpt lat="48.21078" lon="3.21588">
        <ele>163</ele>
        <time>2014-09-07T08:44:50.000Z</time>
      </trkpt>
      <trkpt lat="48.2108" lon="3.21586">
        <ele>162</ele>
        <time>2014-09-07T08:44:51.000Z</time>
      </trkpt>
      <trkpt lat="48.21082" lon="3.21582">
        <ele>161</ele>
        <time>2014-09-07T08:44:52.000Z</time>
      </trkpt>
      <trkpt lat="48.21084" lon="3.2158">
        <ele>160</ele>
        <time>2014-09-07T08:44:53.000Z</time>
      </trkpt>
      <trkpt lat="48.21086" lon="3.21575">
        <ele>159</ele>
        <time>2014-09-07T08:44:54.000Z</time>
      </trkpt>
      <trkpt lat="48.21088" lon="3.21573">
        <ele>158</ele>
        <time>2014-09-07T08:44:55.000Z</time>
      </trkpt>
      <trkpt lat="48.2109" lon="3.21569">
        <ele>157</ele>
        <time>2014-09-07T08:44:56.000Z</time>
      </trkpt>
      <trkpt lat="48.21094" lon="3.21567">
        <ele>157</ele>
        <time>2014-09-07T08:44:57.000Z</time>
      </trkpt>
      <trkpt lat="48.21096" lon="3.21563">
        <ele>156</ele>
        <time>2014-09-07T08:44:58.000Z</time>
      </trkpt>
      <trkpt lat="48.21098" lon="3.21558">
        <ele>156</ele>
        <time>2014-09-07T08:44:59.000Z</time>
      </trkpt>
      <trkpt lat="48.21099" lon="3.21554">
        <ele>155</ele>
        <time>2014-09-07T08:45:00.000Z</time>
      </trkpt>
      <trkpt lat="48.21101" lon="3.2155">
        <ele>155</ele>
        <time>2014-09-07T08:45:01.000Z</time>
      </trkpt>
      <trkpt lat="48.21102" lon="3.21543">
        <ele>155</ele>
        <time>2014-09-07T08:45:02.000Z</time>
      </trkpt>
      <trkpt lat="48.21103" lon="3.21539">
        <ele>155</ele>
        <time>2014-09-07T08:45:03.000Z</time>
      </trkpt>
      <trkpt lat="48.21104" lon="3.21535">
        <ele>154</ele>
        <time>2014-09-07T08:45:04.000Z</time>
      </trkpt>
      <trkpt lat="48.21104" lon="3.2153">
        <ele>154</ele>
        <time>2014-09-07T08:45:05.000Z</time>
      </trkpt>
      <trkpt lat="48.21105" lon="3.21524">
        <ele>154</ele>
        <time>2014-09-07T08:45:06.000Z</time>
      </trkpt>
      <trkpt lat="48.21105" lon="3.2152">
        <ele>154</ele>
        <time>2014-09-07T08:45:07.000Z</time>
      </trkpt>
      <trkpt lat="48.21104" lon="3.21513">
        <ele>155</ele>
        <time>2014-09-07T08:45:08.000Z</time>
      </trkpt>
      <trkpt lat="48.21103" lon="3.21509">
        <ele>155</ele>
        <time>2014-09-07T08:45:09.000Z</time>
      </trkpt>
      <trkpt lat="48.21102" lon="3.21502">
        <ele>155</ele>
        <time>2014-09-07T08:45:10.000Z</time>
      </trkpt>
      <trkpt lat="48.21102" lon="3.21496">
        <ele>153</ele>
        <time>2014-09-07T08:45:11.000Z</time>
      </trkpt>
      <trkpt lat="48.21101" lon="3.21487">
        <ele>153</ele>
        <time>2014-09-07T08:45:12.000Z</time>
      </trkpt>
      <trkpt lat="48.21101" lon="3.21479">
        <ele>152</ele>
        <time>2014-09-07T08:45:13.000Z</time>
      </trkpt>
      <trkpt lat="48.21101" lon="3.2147">
        <ele>151</ele>
        <time>2014-09-07T08:45:14.000Z</time>
      </trkpt>
      <trkpt lat="48.21101" lon="3.21462">
        <ele>151</ele>
        <time>2014-09-07T08:45:15.000Z</time>
      </trkpt>
      <trkpt lat="48.211" lon="3.21455">
        <ele>151</ele>
        <time>2014-09-07T08:45:16.000Z</time>
      </trkpt>
      <trkpt lat="48.211" lon="3.21449">
        <ele>151</ele>
        <time>2014-09-07T08:45:17.000Z</time>
      </trkpt>
      <trkpt lat="48.21099" lon="3.21445">
        <ele>151</ele>
        <time>2014-09-07T08:45:18.000Z</time>
      </trkpt>
      <trkpt lat="48.21099" lon="3.21438">
        <ele>151</ele>
        <time>2014-09-07T08:45:19.000Z</time>
      </trkpt>
      <trkpt lat="48.21099" lon="3.21432">
        <ele>151</ele>
        <time>2014-09-07T08:45:20.000Z</time>
      </trkpt>
      <trkpt lat="48.21099" lon="3.21427">
        <ele>151</ele>
        <time>2014-09-07T08:45:21.000Z</time>
      </trkpt>
      <trkpt lat="48.21099" lon="3.21421">
        <ele>151</ele>
        <time>2014-09-07T08:45:22.000Z</time>
      </trkpt>
      <trkpt lat="48.21099" lon="3.21417">
        <ele>150</ele>
        <time>2014-09-07T08:45:23.000Z</time>
      </trkpt>
      <trkpt lat="48.21099" lon="3.21412">
        <ele>149</ele>
        <time>2014-09-07T08:45:24.000Z</time>
      </trkpt>
      <trkpt lat="48.21099" lon="3.21406">
        <ele>149</ele>
        <time>2014-09-07T08:45:25.000Z</time>
      </trkpt>
      <trkpt lat="48.21099" lon="3.21402">
        <ele>149</ele>
        <time>2014-09-07T08:45:26.000Z</time>
      </trkpt>
      <trkpt lat="48.21099" lon="3.21397">
        <ele>148</ele>
        <time>2014-09-07T08:45:27.000Z</time>
      </trkpt>
      <trkpt lat="48.21099" lon="3.21393">
        <ele>148</ele>
        <time>2014-09-07T08:45:28.000Z</time>
      </trkpt>
      <trkpt lat="48.21099" lon="3.21389">
        <ele>147</ele>
        <time>2014-09-07T08:45:29.000Z</time>
      </trkpt>
      <trkpt lat="48.21099" lon="3.21382">
        <ele>147</ele>
        <time>2014-09-07T08:45:31.000Z</time>
      </trkpt>
      <trkpt lat="48.21099" lon="3.21378">
        <ele>147</ele>
        <time>2014-09-07T08:45:32.000Z</time>
      </trkpt>
      <trkpt lat="48.21098" lon="3.21372">
        <ele>147</ele>
        <time>2014-09-07T08:45:34.000Z</time>
      </trkpt>
      <trkpt lat="48.21098" lon="3.21367">
        <ele>147</ele>
        <time>2014-09-07T08:45:35.000Z</time>
      </trkpt>
      <trkpt lat="48.21098" lon="3.21361">
        <ele>147</ele>
        <time>2014-09-07T08:45:38.000Z</time>
      </trkpt>
      <trkpt lat="48.21098" lon="3.21359">
        <ele>147</ele>
        <time>2014-09-07T08:45:39.000Z</time>
      </trkpt>
      <trkpt lat="48.21097" lon="3.21354">
        <ele>147</ele>
        <time>2014-09-07T08:45:40.000Z</time>
      </trkpt>
      <trkpt lat="48.21096" lon="3.21352">
        <ele>147</ele>
        <time>2014-09-07T08:45:41.000Z</time>
      </trkpt>
      <trkpt lat="48.21095" lon="3.2135">
        <ele>147</ele>
        <time>2014-09-07T08:45:42.000Z</time>
      </trkpt>
      <trkpt lat="48.21094" lon="3.21346">
        <ele>147</ele>
        <time>2014-09-07T08:45:43.000Z</time>
      </trkpt>
      <trkpt lat="48.21092" lon="3.21342">
        <ele>148</ele>
        <time>2014-09-07T08:45:45.000Z</time>
      </trkpt>
      <trkpt lat="48.2109" lon="3.21337">
        <ele>148</ele>
        <time>2014-09-07T08:45:46.000Z</time>
      </trkpt>
      <trkpt lat="48.21089" lon="3.21331">
        <ele>148</ele>
        <time>2014-09-07T08:45:48.000Z</time>
      </trkpt>
      <trkpt lat="48.21088" lon="3.21329">
        <ele>148</ele>
        <time>2014-09-07T08:45:49.000Z</time>
      </trkpt>
      <trkpt lat="48.21088" lon="3.21324">
        <ele>147</ele>
        <time>2014-09-07T08:45:50.000Z</time>
      </trkpt>
      <trkpt lat="48.21087" lon="3.2132">
        <ele>146</ele>
        <time>2014-09-07T08:45:51.000Z</time>
      </trkpt>
      <trkpt lat="48.21086" lon="3.21316">
        <ele>146</ele>
        <time>2014-09-07T08:45:53.000Z</time>
      </trkpt>
      <trkpt lat="48.21085" lon="3.21311">
        <ele>145</ele>
        <time>2014-09-07T08:45:54.000Z</time>
      </trkpt>
      <trkpt lat="48.21084" lon="3.21305">
        <ele>145</ele>
        <time>2014-09-07T08:45:56.000Z</time>
      </trkpt>
      <trkpt lat="48.21083" lon="3.21303">
        <ele>151</ele>
        <time>2014-09-07T08:45:57.000Z</time>
      </trkpt>
      <trkpt lat="48.21081" lon="3.21299">
        <ele>151</ele>
        <time>2014-09-07T08:45:59.000Z</time>
      </trkpt>
      <trkpt lat="48.21081" lon="3.21296">
        <ele>151</ele>
        <time>2014-09-07T08:46:00.000Z</time>
      </trkpt>
      <trkpt lat="48.21079" lon="3.21292">
        <ele>151</ele>
        <time>2014-09-07T08:46:02.000Z</time>
      </trkpt>
      <trkpt lat="48.21078" lon="3.2129">
        <ele>151</ele>
        <time>2014-09-07T08:46:03.000Z</time>
      </trkpt>
      <trkpt lat="48.21074" lon="3.21286">
        <ele>151</ele>
        <time>2014-09-07T08:46:06.000Z</time>
      </trkpt>
      <trkpt lat="48.21073" lon="3.21284">
        <ele>151</ele>
        <time>2014-09-07T08:46:07.000Z</time>
      </trkpt>
      <trkpt lat="48.2107" lon="3.21279">
        <ele>151</ele>
        <time>2014-09-07T08:46:10.000Z</time>
      </trkpt>
      <trkpt lat="48.21069" lon="3.21277">
        <ele>151</ele>
        <time>2014-09-07T08:46:11.000Z</time>
      </trkpt>
      <trkpt lat="48.21068" lon="3.21273">
        <ele>150</ele>
        <time>2014-09-07T08:46:13.000Z</time>
      </trkpt>
      <trkpt lat="48.21068" lon="3.21269">
        <ele>150</ele>
        <time>2014-09-07T08:46:14.000Z</time>
      </trkpt>
      <trkpt lat="48.21067" lon="3.21262">
        <ele>150</ele>
        <time>2014-09-07T08:46:17.000Z</time>
      </trkpt>
      <trkpt lat="48.21067" lon="3.2126">
        <ele>150</ele>
        <time>2014-09-07T08:46:18.000Z</time>
      </trkpt>
      <trkpt lat="48.21068" lon="3.21254">
        <ele>149</ele>
        <time>2014-09-07T08:46:21.000Z</time>
      </trkpt>
      <trkpt lat="48.21067" lon="3.21251">
        <ele>149</ele>
        <time>2014-09-07T08:46:22.000Z</time>
      </trkpt>
      <trkpt lat="48.21066" lon="3.21245">
        <ele>147</ele>
        <time>2014-09-07T08:46:25.000Z</time>
      </trkpt>
      <trkpt lat="48.21066" lon="3.21243">
        <ele>147</ele>
        <time>2014-09-07T08:46:26.000Z</time>
      </trkpt>
      <trkpt lat="48.21064" lon="3.21241">
        <ele>147</ele>
        <time>2014-09-07T08:46:28.000Z</time>
      </trkpt>
      <trkpt lat="48.21061" lon="3.21239">
        <ele>147</ele>
        <time>2014-09-07T08:46:29.000Z</time>
      </trkpt>
      <trkpt lat="48.21059" lon="3.21236">
        <ele>147</ele>
        <time>2014-09-07T08:46:31.000Z</time>
      </trkpt>
      <trkpt lat="48.21057" lon="3.21234">
        <ele>147</ele>
        <time>2014-09-07T08:46:32.000Z</time>
      </trkpt>
      <trkpt lat="48.21055" lon="3.21232">
        <ele>147</ele>
        <time>2014-09-07T08:46:34.000Z</time>
      </trkpt>
      <trkpt lat="48.21053" lon="3.2123">
        <ele>148</ele>
        <time>2014-09-07T08:46:35.000Z</time>
      </trkpt>
      <trkpt lat="48.2105" lon="3.21226">
        <ele>148</ele>
        <time>2014-09-07T08:46:38.000Z</time>
      </trkpt>
      <trkpt lat="48.21049" lon="3.21223">
        <ele>148</ele>
        <time>2014-09-07T08:46:39.000Z</time>
      </trkpt>
      <trkpt lat="48.21046" lon="3.21219">
        <ele>148</ele>
        <time>2014-09-07T08:46:41.000Z</time>
      </trkpt>
      <trkpt lat="48.21045" lon="3.21217">
        <ele>148</ele>
        <time>2014-09-07T08:46:42.000Z</time>
      </trkpt>
      <trkpt lat="48.21043" lon="3.21215">
        <ele>148</ele>
        <time>2014-09-07T08:46:43.000Z</time>
      </trkpt>
      <trkpt lat="48.21042" lon="3.21211">
        <ele>148</ele>
        <time>2014-09-07T08:46:44.000Z</time>
      </trkpt>
      <trkpt lat="48.21041" lon="3.21206">
        <ele>147</ele>
        <time>2014-09-07T08:46:45.000Z</time>
      </trkpt>
      <trkpt lat="48.21039" lon="3.21202">
        <ele>147</ele>
        <time>2014-09-07T08:46:46.000Z</time>
      </trkpt>
      <trkpt lat="48.21038" lon="3.21198">
        <ele>147</ele>
        <time>2014-09-07T08:46:47.000Z</time>
      </trkpt>
      <trkpt lat="48.21036" lon="3.21191">
        <ele>147</ele>
        <time>2014-09-07T08:46:48.000Z</time>
      </trkpt>
      <trkpt lat="48.21035" lon="3.21187">
        <ele>147</ele>
        <time>2014-09-07T08:46:49.000Z</time>
      </trkpt>
      <trkpt lat="48.21033" lon="3.21181">
        <ele>147</ele>
        <time>2014-09-07T08:46:50.000Z</time>
      </trkpt>
      <trkpt lat="48.21031" lon="3.21174">
        <ele>147</ele>
        <time>2014-09-07T08:46:51.000Z</time>
      </trkpt>
      <trkpt lat="48.21029" lon="3.2117">
        <ele>147</ele>
        <time>2014-09-07T08:46:52.000Z</time>
      </trkpt>
      <trkpt lat="48.21027" lon="3.21166">
        <ele>146</ele>
        <time>2014-09-07T08:46:53.000Z</time>
      </trkpt>
      <trkpt lat="48.21026" lon="3.21161">
        <ele>146</ele>
        <time>2014-09-07T08:46:54.000Z</time>
      </trkpt>
      <trkpt lat="48.21024" lon="3.21157">
        <ele>146</ele>
        <time>2014-09-07T08:46:57.000Z</time>
      </trkpt>
      <trkpt lat="48.21023" lon="3.21155">
        <ele>146</ele>
        <time>2014-09-07T08:46:58.000Z</time>
      </trkpt>
      <trkpt lat="48.2102" lon="3.21151">
        <ele>146</ele>
        <time>2014-09-07T08:47:03.000Z</time>
      </trkpt>
      <trkpt lat="48.21019" lon="3.21151">
        <ele>146</ele>
        <time>2014-09-07T08:47:04.000Z</time>
      </trkpt>
      <trkpt lat="48.21015" lon="3.21155">
        <ele>146</ele>
        <time>2014-09-07T08:47:12.000Z</time>
      </trkpt>
      <trkpt lat="48.21014" lon="3.21155">
        <ele>146</ele>
        <time>2014-09-07T08:47:13.000Z</time>
      </trkpt>
      <trkpt lat="48.21012" lon="3.21159">
        <ele>146</ele>
        <time>2014-09-07T08:47:20.000Z</time>
      </trkpt>
      <trkpt lat="48.21012" lon="3.21161">
        <ele>147</ele>
        <time>2014-09-07T08:47:21.000Z</time>
      </trkpt>
      <trkpt lat="48.21009" lon="3.21166">
        <ele>147</ele>
        <time>2014-09-07T08:47:38.000Z</time>
      </trkpt>
      <trkpt lat="48.21008" lon="3.21166">
        <ele>147</ele>
        <time>2014-09-07T08:47:39.000Z</time>
      </trkpt>
      <trkpt lat="48.21009" lon="3.21159">
        <ele>147</ele>
        <time>2014-09-07T08:48:06.000Z</time>
      </trkpt>
      <trkpt lat="48.21009" lon="3.21157">
        <ele>147</ele>
        <time>2014-09-07T08:48:07.000Z</time>
      </trkpt>
      <trkpt lat="48.21009" lon="3.21151">
        <ele>146</ele>
        <time>2014-09-07T08:48:09.000Z</time>
      </trkpt>
      <trkpt lat="48.21009" lon="3.21148">
        <ele>146</ele>
        <time>2014-09-07T08:48:10.000Z</time>
      </trkpt>
      <trkpt lat="48.21009" lon="3.21142">
        <ele>146</ele>
        <time>2014-09-07T08:48:13.000Z</time>
      </trkpt>
      <trkpt lat="48.21009" lon="3.2114">
        <ele>146</ele>
        <time>2014-09-07T08:48:14.000Z</time>
      </trkpt>
      <trkpt lat="48.21008" lon="3.21133">
        <ele>146</ele>
        <time>2014-09-07T08:48:17.000Z</time>
      </trkpt>
      <trkpt lat="48.21007" lon="3.21131">
        <ele>145</ele>
        <time>2014-09-07T08:48:18.000Z</time>
      </trkpt>
      <trkpt lat="48.21007" lon="3.21125">
        <ele>145</ele>
        <time>2014-09-07T08:48:22.000Z</time>
      </trkpt>
      <trkpt lat="48.21007" lon="3.21123">
        <ele>145</ele>
        <time>2014-09-07T08:48:23.000Z</time>
      </trkpt>
      <trkpt lat="48.21007" lon="3.21116">
        <ele>145</ele>
        <time>2014-09-07T08:48:31.000Z</time>
      </trkpt>
      <trkpt lat="48.21007" lon="3.21114">
        <ele>145</ele>
        <time>2014-09-07T08:48:32.000Z</time>
      </trkpt>
      <trkpt lat="48.21008" lon="3.2111">
        <ele>145</ele>
        <time>2014-09-07T08:48:37.000Z</time>
      </trkpt>
      <trkpt lat="48.21009" lon="3.21108">
        <ele>145</ele>
        <time>2014-09-07T08:48:38.000Z</time>
      </trkpt>
      <trkpt lat="48.21012" lon="3.21105">
        <ele>145</ele>
        <time>2014-09-07T08:48:42.000Z</time>
      </trkpt>
      <trkpt lat="48.21013" lon="3.21105">
        <ele>145</ele>
        <time>2014-09-07T08:48:43.000Z</time>
      </trkpt>
      <trkpt lat="48.21016" lon="3.21103">
        <ele>145</ele>
        <time>2014-09-07T08:48:46.000Z</time>
      </trkpt>
      <trkpt lat="48.21018" lon="3.21103">
        <ele>145</ele>
        <time>2014-09-07T08:48:47.000Z</time>
      </trkpt>
      <trkpt lat="48.21021" lon="3.21099">
        <ele>145</ele>
        <time>2014-09-07T08:48:50.000Z</time>
      </trkpt>
      <trkpt lat="48.21022" lon="3.21099">
        <ele>145</ele>
        <time>2014-09-07T08:48:51.000Z</time>
      </trkpt>
      <trkpt lat="48.21025" lon="3.21095">
        <ele>145</ele>
        <time>2014-09-07T08:48:54.000Z</time>
      </trkpt>
      <trkpt lat="48.21025" lon="3.21093">
        <ele>145</ele>
        <time>2014-09-07T08:48:55.000Z</time>
      </trkpt>
      <trkpt lat="48.21026" lon="3.21088">
        <ele>145</ele>
        <time>2014-09-07T08:48:58.000Z</time>
      </trkpt>
      <trkpt lat="48.21027" lon="3.21086">
        <ele>145</ele>
        <time>2014-09-07T08:48:59.000Z</time>
      </trkpt>
      <trkpt lat="48.21028" lon="3.2108">
        <ele>146</ele>
        <time>2014-09-07T08:49:03.000Z</time>
      </trkpt>
      <trkpt lat="48.21028" lon="3.21078">
        <ele>146</ele>
        <time>2014-09-07T08:49:04.000Z</time>
      </trkpt>
      <trkpt lat="48.21027" lon="3.21071">
        <ele>146</ele>
        <time>2014-09-07T08:49:09.000Z</time>
      </trkpt>
      <trkpt lat="48.21027" lon="3.21069">
        <ele>146</ele>
        <time>2014-09-07T08:49:10.000Z</time>
      </trkpt>
      <trkpt lat="48.21024" lon="3.21065">
        <ele>146</ele>
        <time>2014-09-07T08:49:14.000Z</time>
      </trkpt>
      <trkpt lat="48.21023" lon="3.21063">
        <ele>146</ele>
        <time>2014-09-07T08:49:15.000Z</time>
      </trkpt>
      <trkpt lat="48.21021" lon="3.21058">
        <ele>146</ele>
        <time>2014-09-07T08:49:18.000Z</time>
      </trkpt>
      <trkpt lat="48.2102" lon="3.21056">
        <ele>147</ele>
        <time>2014-09-07T08:49:19.000Z</time>
      </trkpt>
      <trkpt lat="48.21016" lon="3.21052">
        <ele>147</ele>
        <time>2014-09-07T08:49:22.000Z</time>
      </trkpt>
      <trkpt lat="48.21015" lon="3.2105">
        <ele>147</ele>
        <time>2014-09-07T08:49:23.000Z</time>
      </trkpt>
      <trkpt lat="48.21013" lon="3.21048">
        <ele>147</ele>
        <time>2014-09-07T08:49:25.000Z</time>
      </trkpt>
      <trkpt lat="48.21011" lon="3.21045">
        <ele>147</ele>
        <time>2014-09-07T08:49:26.000Z</time>
      </trkpt>
      <trkpt lat="48.21009" lon="3.21043">
        <ele>147</ele>
        <time>2014-09-07T08:49:28.000Z</time>
      </trkpt>
      <trkpt lat="48.21007" lon="3.21041">
        <ele>147</ele>
        <time>2014-09-07T08:49:29.000Z</time>
      </trkpt>
      <trkpt lat="48.21005" lon="3.21037">
        <ele>147</ele>
        <time>2014-09-07T08:49:31.000Z</time>
      </trkpt>
      <trkpt lat="48.21002" lon="3.21035">
        <ele>148</ele>
        <time>2014-09-07T08:49:32.000Z</time>
      </trkpt>
      <trkpt lat="48.20999" lon="3.2103">
        <ele>150</ele>
        <time>2014-09-07T08:49:34.000Z</time>
      </trkpt>
      <trkpt lat="48.20997" lon="3.21028">
        <ele>150</ele>
        <time>2014-09-07T08:49:35.000Z</time>
      </trkpt>
      <trkpt lat="48.20995" lon="3.21026">
        <ele>150</ele>
        <time>2014-09-07T08:49:36.000Z</time>
      </trkpt>
      <trkpt lat="48.20993" lon="3.21026">
        <ele>150</ele>
        <time>2014-09-07T08:49:37.000Z</time>
      </trkpt>
      <trkpt lat="48.20991" lon="3.21024">
        <ele>150</ele>
        <time>2014-09-07T08:49:38.000Z</time>
      </trkpt>
      <trkpt lat="48.20987" lon="3.2102">
        <ele>150</ele>
        <time>2014-09-07T08:49:39.000Z</time>
      </trkpt>
      <trkpt lat="48.20984" lon="3.21018">
        <ele>150</ele>
        <time>2014-09-07T08:49:40.000Z</time>
      </trkpt>
      <trkpt lat="48.20981" lon="3.21015">
        <ele>150</ele>
        <time>2014-09-07T08:49:41.000Z</time>
      </trkpt>
      <trkpt lat="48.20978" lon="3.21011">
        <ele>150</ele>
        <time>2014-09-07T08:49:42.000Z</time>
      </trkpt>
      <trkpt lat="48.20975" lon="3.21009">
        <ele>150</ele>
        <time>2014-09-07T08:49:43.000Z</time>
      </trkpt>
      <trkpt lat="48.20971" lon="3.21007">
        <ele>150</ele>
        <time>2014-09-07T08:49:44.000Z</time>
      </trkpt>
      <trkpt lat="48.20968" lon="3.21005">
        <ele>150</ele>
        <time>2014-09-07T08:49:45.000Z</time>
      </trkpt>
      <trkpt lat="48.20965" lon="3.21002">
        <ele>150</ele>
        <time>2014-09-07T08:49:46.000Z</time>
      </trkpt>
      <trkpt lat="48.20962" lon="3.21">
        <ele>150</ele>
        <time>2014-09-07T08:49:47.000Z</time>
      </trkpt>
      <trkpt lat="48.2096" lon="3.20998">
        <ele>154</ele>
        <time>2014-09-07T08:49:48.000Z</time>
      </trkpt>
      <trkpt lat="48.20956" lon="3.20996">
        <ele>154</ele>
        <time>2014-09-07T08:49:49.000Z</time>
      </trkpt>
      <trkpt lat="48.20953" lon="3.20994">
        <ele>154</ele>
        <time>2014-09-07T08:49:50.000Z</time>
      </trkpt>
      <trkpt lat="48.2095" lon="3.20994">
        <ele>154</ele>
        <time>2014-09-07T08:49:51.000Z</time>
      </trkpt>
      <trkpt lat="48.20948" lon="3.20992">
        <ele>154</ele>
        <time>2014-09-07T08:49:52.000Z</time>
      </trkpt>
      <trkpt lat="48.20945" lon="3.2099">
        <ele>154</ele>
        <time>2014-09-07T08:49:53.000Z</time>
      </trkpt>
      <trkpt lat="48.20942" lon="3.20987">
        <ele>154</ele>
        <time>2014-09-07T08:49:54.000Z</time>
      </trkpt>
      <trkpt lat="48.20939" lon="3.20985">
        <ele>154</ele>
        <time>2014-09-07T08:49:55.000Z</time>
      </trkpt>
      <trkpt lat="48.20936" lon="3.20983">
        <ele>154</ele>
        <time>2014-09-07T08:49:56.000Z</time>
      </trkpt>
      <trkpt lat="48.20934" lon="3.20983">
        <ele>154</ele>
        <time>2014-09-07T08:49:57.000Z</time>
      </trkpt>
      <trkpt lat="48.20932" lon="3.20983">
        <ele>154</ele>
        <time>2014-09-07T08:49:58.000Z</time>
      </trkpt>
      <trkpt lat="48.20928" lon="3.20983">
        <ele>154</ele>
        <time>2014-09-07T08:49:59.000Z</time>
      </trkpt>
      <trkpt lat="48.20925" lon="3.20983">
        <ele>154</ele>
        <time>2014-09-07T08:50:00.000Z</time>
      </trkpt>
      <trkpt lat="48.20921" lon="3.20983">
        <ele>154</ele>
        <time>2014-09-07T08:50:01.000Z</time>
      </trkpt>
      <trkpt lat="48.20918" lon="3.20981">
        <ele>154</ele>
        <time>2014-09-07T08:50:02.000Z</time>
      </trkpt>
      <trkpt lat="48.20916" lon="3.20981">
        <ele>155</ele>
        <time>2014-09-07T08:50:03.000Z</time>
      </trkpt>
      <trkpt lat="48.20911" lon="3.20981">
        <ele>156</ele>
        <time>2014-09-07T08:50:05.000Z</time>
      </trkpt>
      <trkpt lat="48.2091" lon="3.20979">
        <ele>156</ele>
        <time>2014-09-07T08:50:06.000Z</time>
      </trkpt>
      <trkpt lat="48.20906" lon="3.20977">
        <ele>156</ele>
        <time>2014-09-07T08:50:11.000Z</time>
      </trkpt>
      <trkpt lat="48.20905" lon="3.20977">
        <ele>156</ele>
        <time>2014-09-07T08:50:12.000Z</time>
      </trkpt>
      <trkpt lat="48.20901" lon="3.20977">
        <ele>156</ele>
        <time>2014-09-07T08:50:21.000Z</time>
      </trkpt>
      <trkpt lat="48.20899" lon="3.20977">
        <ele>156</ele>
        <time>2014-09-07T08:50:22.000Z</time>
      </trkpt>
      <trkpt lat="48.20898" lon="3.2097">
        <ele>157</ele>
        <time>2014-09-07T08:50:35.000Z</time>
      </trkpt>
      <trkpt lat="48.20898" lon="3.20968">
        <ele>157</ele>
        <time>2014-09-07T08:50:36.000Z</time>
      </trkpt>
      <trkpt lat="48.20899" lon="3.20962">
        <ele>158</ele>
        <time>2014-09-07T08:50:41.000Z</time>
      </trkpt>
      <trkpt lat="48.20901" lon="3.20962">
        <ele>158</ele>
        <time>2014-09-07T08:50:42.000Z</time>
      </trkpt>
      <trkpt lat="48.20902" lon="3.20957">
        <ele>158</ele>
        <time>2014-09-07T08:50:50.000Z</time>
      </trkpt>
      <trkpt lat="48.20903" lon="3.20955">
        <ele>158</ele>
        <time>2014-09-07T08:50:51.000Z</time>
      </trkpt>
      <trkpt lat="48.20904" lon="3.20949">
        <ele>158</ele>
        <time>2014-09-07T08:51:04.000Z</time>
      </trkpt>
      <trkpt lat="48.20904" lon="3.20947">
        <ele>159</ele>
        <time>2014-09-07T08:51:05.000Z</time>
      </trkpt>
      <trkpt lat="48.20906" lon="3.20942">
        <ele>159</ele>
        <time>2014-09-07T08:51:09.000Z</time>
      </trkpt>
      <trkpt lat="48.20906" lon="3.2094">
        <ele>159</ele>
        <time>2014-09-07T08:51:10.000Z</time>
      </trkpt>
      <trkpt lat="48.20908" lon="3.20936">
        <ele>159</ele>
        <time>2014-09-07T08:51:14.000Z</time>
      </trkpt>
      <trkpt lat="48.20909" lon="3.20934">
        <ele>159</ele>
        <time>2014-09-07T08:51:15.000Z</time>
      </trkpt>
      <trkpt lat="48.2091" lon="3.20927">
        <ele>160</ele>
        <time>2014-09-07T08:51:19.000Z</time>
      </trkpt>
      <trkpt lat="48.20911" lon="3.20925">
        <ele>160</ele>
        <time>2014-09-07T08:51:20.000Z</time>
      </trkpt>
      <trkpt lat="48.20911" lon="3.20919">
        <ele>160</ele>
        <time>2014-09-07T08:51:22.000Z</time>
      </trkpt>
      <trkpt lat="48.20912" lon="3.20917">
        <ele>162</ele>
        <time>2014-09-07T08:51:23.000Z</time>
      </trkpt>
      <trkpt lat="48.20912" lon="3.20912">
        <ele>162</ele>
        <time>2014-09-07T08:51:25.000Z</time>
      </trkpt>
      <trkpt lat="48.20912" lon="3.20908">
        <ele>162</ele>
        <time>2014-09-07T08:51:26.000Z</time>
      </trkpt>
      <trkpt lat="48.20913" lon="3.20904">
        <ele>162</ele>
        <time>2014-09-07T08:51:29.000Z</time>
      </trkpt>
      <trkpt lat="48.20915" lon="3.20902">
        <ele>163</ele>
        <time>2014-09-07T08:51:30.000Z</time>
      </trkpt>
      <trkpt lat="48.20916" lon="3.20897">
        <ele>163</ele>
        <time>2014-09-07T08:51:33.000Z</time>
      </trkpt>
      <trkpt lat="48.20917" lon="3.20895">
        <ele>163</ele>
        <time>2014-09-07T08:51:34.000Z</time>
      </trkpt>
      <trkpt lat="48.20918" lon="3.20889">
        <ele>161</ele>
        <time>2014-09-07T08:51:38.000Z</time>
      </trkpt>
      <trkpt lat="48.20918" lon="3.20887">
        <ele>161</ele>
        <time>2014-09-07T08:51:39.000Z</time>
      </trkpt>
      <trkpt lat="48.20919" lon="3.2088">
        <ele>161</ele>
        <time>2014-09-07T08:51:42.000Z</time>
      </trkpt>
      <trkpt lat="48.20919" lon="3.20878">
        <ele>161</ele>
        <time>2014-09-07T08:51:43.000Z</time>
      </trkpt>
      <trkpt lat="48.2092" lon="3.20872">
        <ele>162</ele>
        <time>2014-09-07T08:51:47.000Z</time>
      </trkpt>
      <trkpt lat="48.2092" lon="3.20869">
        <ele>162</ele>
        <time>2014-09-07T08:51:48.000Z</time>
      </trkpt>
      <trkpt lat="48.2092" lon="3.20863">
        <ele>162</ele>
        <time>2014-09-07T08:51:51.000Z</time>
      </trkpt>
      <trkpt lat="48.2092" lon="3.20861">
        <ele>162</ele>
        <time>2014-09-07T08:51:52.000Z</time>
      </trkpt>
      <trkpt lat="48.20921" lon="3.20854">
        <ele>163</ele>
        <time>2014-09-07T08:51:56.000Z</time>
      </trkpt>
      <trkpt lat="48.20921" lon="3.20852">
        <ele>163</ele>
        <time>2014-09-07T08:51:57.000Z</time>
      </trkpt>
      <trkpt lat="48.20922" lon="3.20846">
        <ele>163</ele>
        <time>2014-09-07T08:52:00.000Z</time>
      </trkpt>
      <trkpt lat="48.20923" lon="3.20844">
        <ele>163</ele>
        <time>2014-09-07T08:52:01.000Z</time>
      </trkpt>
      <trkpt lat="48.20923" lon="3.20837">
        <ele>164</ele>
        <time>2014-09-07T08:52:05.000Z</time>
      </trkpt>
      <trkpt lat="48.20924" lon="3.20835">
        <ele>164</ele>
        <time>2014-09-07T08:52:06.000Z</time>
      </trkpt>
      <trkpt lat="48.20925" lon="3.20829">
        <ele>165</ele>
        <time>2014-09-07T08:52:09.000Z</time>
      </trkpt>
      <trkpt lat="48.20926" lon="3.20827">
        <ele>165</ele>
        <time>2014-09-07T08:52:10.000Z</time>
      </trkpt>
      <trkpt lat="48.20927" lon="3.2082">
        <ele>165</ele>
        <time>2014-09-07T08:52:13.000Z</time>
      </trkpt>
      <trkpt lat="48.20928" lon="3.2082">
        <ele>165</ele>
        <time>2014-09-07T08:52:14.000Z</time>
      </trkpt>
      <trkpt lat="48.2093" lon="3.20814">
        <ele>165</ele>
        <time>2014-09-07T08:52:17.000Z</time>
      </trkpt>
      <trkpt lat="48.20931" lon="3.20812">
        <ele>165</ele>
        <time>2014-09-07T08:52:18.000Z</time>
      </trkpt>
      <trkpt lat="48.20932" lon="3.20805">
        <ele>165</ele>
        <time>2014-09-07T08:52:20.000Z</time>
      </trkpt>
      <trkpt lat="48.20932" lon="3.20803">
        <ele>165</ele>
        <time>2014-09-07T08:52:21.000Z</time>
      </trkpt>
      <trkpt lat="48.20933" lon="3.20796">
        <ele>165</ele>
        <time>2014-09-07T08:52:23.000Z</time>
      </trkpt>
      <trkpt lat="48.20934" lon="3.20794">
        <ele>165</ele>
        <time>2014-09-07T08:52:24.000Z</time>
      </trkpt>
      <trkpt lat="48.20935" lon="3.20788">
        <ele>165</ele>
        <time>2014-09-07T08:52:27.000Z</time>
      </trkpt>
      <trkpt lat="48.20936" lon="3.20786">
        <ele>165</ele>
        <time>2014-09-07T08:52:28.000Z</time>
      </trkpt>
      <trkpt lat="48.20937" lon="3.20779">
        <ele>166</ele>
        <time>2014-09-07T08:52:31.000Z</time>
      </trkpt>
      <trkpt lat="48.20937" lon="3.20777">
        <ele>166</ele>
        <time>2014-09-07T08:52:32.000Z</time>
      </trkpt>
      <trkpt lat="48.20938" lon="3.20771">
        <ele>166</ele>
        <time>2014-09-07T08:52:34.000Z</time>
      </trkpt>
      <trkpt lat="48.20939" lon="3.20769">
        <ele>166</ele>
        <time>2014-09-07T08:52:35.000Z</time>
      </trkpt>
      <trkpt lat="48.2094" lon="3.20762">
        <ele>166</ele>
        <time>2014-09-07T08:52:38.000Z</time>
      </trkpt>
      <trkpt lat="48.20941" lon="3.2076">
        <ele>166</ele>
        <time>2014-09-07T08:52:39.000Z</time>
      </trkpt>
      <trkpt lat="48.20941" lon="3.20754">
        <ele>166</ele>
        <time>2014-09-07T08:52:41.000Z</time>
      </trkpt>
      <trkpt lat="48.20942" lon="3.20751">
        <ele>166</ele>
        <time>2014-09-07T08:52:42.000Z</time>
      </trkpt>
      <trkpt lat="48.20943" lon="3.20745">
        <ele>168</ele>
        <time>2014-09-07T08:52:45.000Z</time>
      </trkpt>
      <trkpt lat="48.20943" lon="3.20741">
        <ele>168</ele>
        <time>2014-09-07T08:52:46.000Z</time>
      </trkpt>
      <trkpt lat="48.20945" lon="3.20734">
        <ele>168</ele>
        <time>2014-09-07T08:52:49.000Z</time>
      </trkpt>
      <trkpt lat="48.20946" lon="3.20732">
        <ele>168</ele>
        <time>2014-09-07T08:52:50.000Z</time>
      </trkpt>
      <trkpt lat="48.20947" lon="3.20726">
        <ele>168</ele>
        <time>2014-09-07T08:52:53.000Z</time>
      </trkpt>
      <trkpt lat="48.20947" lon="3.20724">
        <ele>168</ele>
        <time>2014-09-07T08:52:54.000Z</time>
      </trkpt>
      <trkpt lat="48.20948" lon="3.20719">
        <ele>168</ele>
        <time>2014-09-07T08:52:56.000Z</time>
      </trkpt>
      <trkpt lat="48.20948" lon="3.20715">
        <ele>168</ele>
        <time>2014-09-07T08:52:57.000Z</time>
      </trkpt>
      <trkpt lat="48.20949" lon="3.20709">
        <ele>169</ele>
        <time>2014-09-07T08:53:00.000Z</time>
      </trkpt>
      <trkpt lat="48.20949" lon="3.20706">
        <ele>169</ele>
        <time>2014-09-07T08:53:01.000Z</time>
      </trkpt>
      <trkpt lat="48.2095" lon="3.207">
        <ele>169</ele>
        <time>2014-09-07T08:53:04.000Z</time>
      </trkpt>
      <trkpt lat="48.2095" lon="3.20698">
        <ele>169</ele>
        <time>2014-09-07T08:53:05.000Z</time>
      </trkpt>
      <trkpt lat="48.20951" lon="3.20691">
        <ele>169</ele>
        <time>2014-09-07T08:53:07.000Z</time>
      </trkpt>
      <trkpt lat="48.20951" lon="3.20689">
        <ele>169</ele>
        <time>2014-09-07T08:53:08.000Z</time>
      </trkpt>
      <trkpt lat="48.20951" lon="3.20683">
        <ele>169</ele>
        <time>2014-09-07T08:53:11.000Z</time>
      </trkpt>
      <trkpt lat="48.20951" lon="3.20681">
        <ele>169</ele>
        <time>2014-09-07T08:53:12.000Z</time>
      </trkpt>
      <trkpt lat="48.20952" lon="3.20674">
        <ele>169</ele>
        <time>2014-09-07T08:53:14.000Z</time>
      </trkpt>
      <trkpt lat="48.20953" lon="3.2067">
        <ele>169</ele>
        <time>2014-09-07T08:53:15.000Z</time>
      </trkpt>
      <trkpt lat="48.20953" lon="3.20663">
        <ele>171</ele>
        <time>2014-09-07T08:53:17.000Z</time>
      </trkpt>
      <trkpt lat="48.20954" lon="3.20661">
        <ele>171</ele>
        <time>2014-09-07T08:53:18.000Z</time>
      </trkpt>
      <trkpt lat="48.20955" lon="3.20655">
        <ele>171</ele>
        <time>2014-09-07T08:53:20.000Z</time>
      </trkpt>
      <trkpt lat="48.20956" lon="3.20651">
        <ele>171</ele>
        <time>2014-09-07T08:53:21.000Z</time>
      </trkpt>
      <trkpt lat="48.20957" lon="3.20646">
        <ele>171</ele>
        <time>2014-09-07T08:53:22.000Z</time>
      </trkpt>
      <trkpt lat="48.20958" lon="3.20642">
        <ele>171</ele>
        <time>2014-09-07T08:53:23.000Z</time>
      </trkpt>
      <trkpt lat="48.2096" lon="3.20638">
        <ele>171</ele>
        <time>2014-09-07T08:53:24.000Z</time>
      </trkpt>
      <trkpt lat="48.20961" lon="3.20633">
        <ele>171</ele>
        <time>2014-09-07T08:53:25.000Z</time>
      </trkpt>
      <trkpt lat="48.20962" lon="3.20629">
        <ele>172</ele>
        <time>2014-09-07T08:53:26.000Z</time>
      </trkpt>
      <trkpt lat="48.20963" lon="3.20625">
        <ele>172</ele>
        <time>2014-09-07T08:53:27.000Z</time>
      </trkpt>
      <trkpt lat="48.20964" lon="3.20621">
        <ele>172</ele>
        <time>2014-09-07T08:53:28.000Z</time>
      </trkpt>
      <trkpt lat="48.20965" lon="3.20616">
        <ele>172</ele>
        <time>2014-09-07T08:53:29.000Z</time>
      </trkpt>
      <trkpt lat="48.20966" lon="3.20612">
        <ele>172</ele>
        <time>2014-09-07T08:53:30.000Z</time>
      </trkpt>
      <trkpt lat="48.20968" lon="3.20608">
        <ele>172</ele>
        <time>2014-09-07T08:53:31.000Z</time>
      </trkpt>
      <trkpt lat="48.20969" lon="3.20603">
        <ele>172</ele>
        <time>2014-09-07T08:53:32.000Z</time>
      </trkpt>
      <trkpt lat="48.2097" lon="3.20599">
        <ele>171</ele>
        <time>2014-09-07T08:53:33.000Z</time>
      </trkpt>
      <trkpt lat="48.20971" lon="3.20593">
        <ele>171</ele>
        <time>2014-09-07T08:53:34.000Z</time>
      </trkpt>
      <trkpt lat="48.20974" lon="3.20588">
        <ele>171</ele>
        <time>2014-09-07T08:53:35.000Z</time>
      </trkpt>
      <trkpt lat="48.20975" lon="3.20584">
        <ele>171</ele>
        <time>2014-09-07T08:53:36.000Z</time>
      </trkpt>
      <trkpt lat="48.20976" lon="3.2058">
        <ele>173</ele>
        <time>2014-09-07T08:53:37.000Z</time>
      </trkpt>
      <trkpt lat="48.20976" lon="3.20575">
        <ele>173</ele>
        <time>2014-09-07T08:53:38.000Z</time>
      </trkpt>
      <trkpt lat="48.20977" lon="3.20571">
        <ele>173</ele>
        <time>2014-09-07T08:53:39.000Z</time>
      </trkpt>
      <trkpt lat="48.20978" lon="3.20565">
        <ele>173</ele>
        <time>2014-09-07T08:53:40.000Z</time>
      </trkpt>
      <trkpt lat="48.2098" lon="3.20558">
        <ele>173</ele>
        <time>2014-09-07T08:53:41.000Z</time>
      </trkpt>
      <trkpt lat="48.20981" lon="3.2055">
        <ele>173</ele>
        <time>2014-09-07T08:53:42.000Z</time>
      </trkpt>
      <trkpt lat="48.20982" lon="3.20543">
        <ele>173</ele>
        <time>2014-09-07T08:53:43.000Z</time>
      </trkpt>
      <trkpt lat="48.20984" lon="3.20537">
        <ele>173</ele>
        <time>2014-09-07T08:53:44.000Z</time>
      </trkpt>
      <trkpt lat="48.20985" lon="3.2053">
        <ele>173</ele>
        <time>2014-09-07T08:53:45.000Z</time>
      </trkpt>
      <trkpt lat="48.20986" lon="3.20524">
        <ele>173</ele>
        <time>2014-09-07T08:53:46.000Z</time>
      </trkpt>
      <trkpt lat="48.20987" lon="3.20518">
        <ele>173</ele>
        <time>2014-09-07T08:53:47.000Z</time>
      </trkpt>
      <trkpt lat="48.20989" lon="3.20513">
        <ele>173</ele>
        <time>2014-09-07T08:53:48.000Z</time>
      </trkpt>
      <trkpt lat="48.2099" lon="3.20509">
        <ele>172</ele>
        <time>2014-09-07T08:53:49.000Z</time>
      </trkpt>
      <trkpt lat="48.20991" lon="3.20505">
        <ele>172</ele>
        <time>2014-09-07T08:53:50.000Z</time>
      </trkpt>
      <trkpt lat="48.20992" lon="3.205">
        <ele>172</ele>
        <time>2014-09-07T08:53:51.000Z</time>
      </trkpt>
      <trkpt lat="48.20993" lon="3.20496">
        <ele>173</ele>
        <time>2014-09-07T08:53:52.000Z</time>
      </trkpt>
      <trkpt lat="48.20994" lon="3.20494">
        <ele>173</ele>
        <time>2014-09-07T08:53:53.000Z</time>
      </trkpt>
      <trkpt lat="48.20995" lon="3.2049">
        <ele>173</ele>
        <time>2014-09-07T08:53:54.000Z</time>
      </trkpt>
      <trkpt lat="48.20996" lon="3.20485">
        <ele>174</ele>
        <time>2014-09-07T08:53:55.000Z</time>
      </trkpt>
      <trkpt lat="48.20996" lon="3.20481">
        <ele>174</ele>
        <time>2014-09-07T08:53:56.000Z</time>
      </trkpt>
      <trkpt lat="48.20997" lon="3.20475">
        <ele>174</ele>
        <time>2014-09-07T08:53:58.000Z</time>
      </trkpt>
      <trkpt lat="48.20998" lon="3.2047">
        <ele>175</ele>
        <time>2014-09-07T08:53:59.000Z</time>
      </trkpt>
      <trkpt lat="48.20999" lon="3.20464">
        <ele>175</ele>
        <time>2014-09-07T08:54:00.000Z</time>
      </trkpt>
      <trkpt lat="48.21" lon="3.2046">
        <ele>172</ele>
        <time>2014-09-07T08:54:01.000Z</time>
      </trkpt>
      <trkpt lat="48.21001" lon="3.20455">
        <ele>172</ele>
        <time>2014-09-07T08:54:02.000Z</time>
      </trkpt>
      <trkpt lat="48.21002" lon="3.20451">
        <ele>173</ele>
        <time>2014-09-07T08:54:03.000Z</time>
      </trkpt>
      <trkpt lat="48.21004" lon="3.20447">
        <ele>173</ele>
        <time>2014-09-07T08:54:04.000Z</time>
      </trkpt>
      <trkpt lat="48.21005" lon="3.20442">
        <ele>173</ele>
        <time>2014-09-07T08:54:05.000Z</time>
      </trkpt>
      <trkpt lat="48.21006" lon="3.20436">
        <ele>173</ele>
        <time>2014-09-07T08:54:06.000Z</time>
      </trkpt>
      <trkpt lat="48.21006" lon="3.20432">
        <ele>174</ele>
        <time>2014-09-07T08:54:07.000Z</time>
      </trkpt>
      <trkpt lat="48.21007" lon="3.20425">
        <ele>174</ele>
        <time>2014-09-07T08:54:08.000Z</time>
      </trkpt>
      <trkpt lat="48.21008" lon="3.20419">
        <ele>174</ele>
        <time>2014-09-07T08:54:09.000Z</time>
      </trkpt>
      <trkpt lat="48.21008" lon="3.20415">
        <ele>174</ele>
        <time>2014-09-07T08:54:10.000Z</time>
      </trkpt>
      <trkpt lat="48.21009" lon="3.20408">
        <ele>174</ele>
        <time>2014-09-07T08:54:11.000Z</time>
      </trkpt>
      <trkpt lat="48.21009" lon="3.20404">
        <ele>174</ele>
        <time>2014-09-07T08:54:12.000Z</time>
      </trkpt>
      <trkpt lat="48.2101" lon="3.204">
        <ele>174</ele>
        <time>2014-09-07T08:54:13.000Z</time>
      </trkpt>
      <trkpt lat="48.21011" lon="3.20395">
        <ele>174</ele>
        <time>2014-09-07T08:54:14.000Z</time>
      </trkpt>
      <trkpt lat="48.21011" lon="3.20391">
        <ele>174</ele>
        <time>2014-09-07T08:54:15.000Z</time>
      </trkpt>
      <trkpt lat="48.21012" lon="3.20387">
        <ele>173</ele>
        <time>2014-09-07T08:54:16.000Z</time>
      </trkpt>
      <trkpt lat="48.21013" lon="3.20385">
        <ele>173</ele>
        <time>2014-09-07T08:54:17.000Z</time>
      </trkpt>
      <trkpt lat="48.21014" lon="3.20378">
        <ele>173</ele>
        <time>2014-09-07T08:54:22.000Z</time>
      </trkpt>
      <trkpt lat="48.21015" lon="3.20378">
        <ele>173</ele>
        <time>2014-09-07T08:54:23.000Z</time>
      </trkpt>
      <trkpt lat="48.21015" lon="3.20372">
        <ele>173</ele>
        <time>2014-09-07T08:54:28.000Z</time>
      </trkpt>
      <trkpt lat="48.21015" lon="3.20369">
        <ele>173</ele>
        <time>2014-09-07T08:54:29.000Z</time>
      </trkpt>
      <trkpt lat="48.21015" lon="3.20363">
        <ele>173</ele>
        <time>2014-09-07T08:54:37.000Z</time>
      </trkpt>
      <trkpt lat="48.21015" lon="3.20361">
        <ele>173</ele>
        <time>2014-09-07T08:54:38.000Z</time>
      </trkpt>
      <trkpt lat="48.21016" lon="3.20354">
        <ele>173</ele>
        <time>2014-09-07T08:54:49.000Z</time>
      </trkpt>
      <trkpt lat="48.21018" lon="3.20354">
        <ele>173</ele>
        <time>2014-09-07T08:54:50.000Z</time>
      </trkpt>
      <trkpt lat="48.21018" lon="3.20348">
        <ele>173</ele>
        <time>2014-09-07T08:55:07.000Z</time>
      </trkpt>
      <trkpt lat="48.21018" lon="3.20346">
        <ele>173</ele>
        <time>2014-09-07T08:55:08.000Z</time>
      </trkpt>
      <trkpt lat="48.21018" lon="3.20339">
        <ele>174</ele>
        <time>2014-09-07T08:55:24.000Z</time>
      </trkpt>
      <trkpt lat="48.21018" lon="3.20337">
        <ele>174</ele>
        <time>2014-09-07T08:55:25.000Z</time>
      </trkpt>
      <trkpt lat="48.21014" lon="3.20333">
        <ele>172</ele>
        <time>2014-09-07T08:55:54.000Z</time>
      </trkpt>
      <trkpt lat="48.21013" lon="3.20333">
        <ele>172</ele>
        <time>2014-09-07T08:55:55.000Z</time>
      </trkpt>
      <trkpt lat="48.21013" lon="3.20327">
        <ele>172</ele>
        <time>2014-09-07T08:56:15.000Z</time>
      </trkpt>
      <trkpt lat="48.21013" lon="3.20324">
        <ele>172</ele>
        <time>2014-09-07T08:56:16.000Z</time>
      </trkpt>
      <trkpt lat="48.21013" lon="3.20318">
        <ele>171</ele>
        <time>2014-09-07T08:56:18.000Z</time>
      </trkpt>
      <trkpt lat="48.21013" lon="3.20314">
        <ele>171</ele>
        <time>2014-09-07T08:56:19.000Z</time>
      </trkpt>
      <trkpt lat="48.21014" lon="3.20307">
        <ele>170</ele>
        <time>2014-09-07T08:56:21.000Z</time>
      </trkpt>
      <trkpt lat="48.21015" lon="3.20303">
        <ele>170</ele>
        <time>2014-09-07T08:56:22.000Z</time>
      </trkpt>
      <trkpt lat="48.21016" lon="3.20299">
        <ele>170</ele>
        <time>2014-09-07T08:56:23.000Z</time>
      </trkpt>
      <trkpt lat="48.21018" lon="3.20294">
        <ele>170</ele>
        <time>2014-09-07T08:56:24.000Z</time>
      </trkpt>
      <trkpt lat="48.21019" lon="3.2029">
        <ele>169</ele>
        <time>2014-09-07T08:56:25.000Z</time>
      </trkpt>
      <trkpt lat="48.21021" lon="3.20288">
        <ele>169</ele>
        <time>2014-09-07T08:56:26.000Z</time>
      </trkpt>
      <trkpt lat="48.21024" lon="3.20286">
        <ele>169</ele>
        <time>2014-09-07T08:56:28.000Z</time>
      </trkpt>
      <trkpt lat="48.21026" lon="3.20284">
        <ele>169</ele>
        <time>2014-09-07T08:56:29.000Z</time>
      </trkpt>
      <trkpt lat="48.21028" lon="3.20284">
        <ele>169</ele>
        <time>2014-09-07T08:56:30.000Z</time>
      </trkpt>
      <trkpt lat="48.2103" lon="3.20282">
        <ele>169</ele>
        <time>2014-09-07T08:56:31.000Z</time>
      </trkpt>
      <trkpt lat="48.21034" lon="3.20282">
        <ele>168</ele>
        <time>2014-09-07T08:56:32.000Z</time>
      </trkpt>
      <trkpt lat="48.21036" lon="3.20279">
        <ele>168</ele>
        <time>2014-09-07T08:56:33.000Z</time>
      </trkpt>
      <trkpt lat="48.21038" lon="3.20279">
        <ele>168</ele>
        <time>2014-09-07T08:56:34.000Z</time>
      </trkpt>
      <trkpt lat="48.21041" lon="3.20277">
        <ele>168</ele>
        <time>2014-09-07T08:56:35.000Z</time>
      </trkpt>
      <trkpt lat="48.21043" lon="3.20277">
        <ele>168</ele>
        <time>2014-09-07T08:56:36.000Z</time>
      </trkpt>
      <trkpt lat="48.21046" lon="3.20275">
        <ele>168</ele>
        <time>2014-09-07T08:56:37.000Z</time>
      </trkpt>
      <trkpt lat="48.21049" lon="3.20273">
        <ele>167</ele>
        <time>2014-09-07T08:56:38.000Z</time>
      </trkpt>
      <trkpt lat="48.21051" lon="3.20271">
        <ele>167</ele>
        <time>2014-09-07T08:56:39.000Z</time>
      </trkpt>
      <trkpt lat="48.21054" lon="3.20266">
        <ele>167</ele>
        <time>2014-09-07T08:56:41.000Z</time>
      </trkpt>
      <trkpt lat="48.21056" lon="3.20264">
        <ele>167</ele>
        <time>2014-09-07T08:56:42.000Z</time>
      </trkpt>
      <trkpt lat="48.21059" lon="3.2026">
        <ele>166</ele>
        <time>2014-09-07T08:56:44.000Z</time>
      </trkpt>
      <trkpt lat="48.2106" lon="3.20258">
        <ele>166</ele>
        <time>2014-09-07T08:56:45.000Z</time>
      </trkpt>
      <trkpt lat="48.21061" lon="3.20256">
        <ele>166</ele>
        <time>2014-09-07T08:56:46.000Z</time>
      </trkpt>
      <trkpt lat="48.21063" lon="3.20251">
        <ele>166</ele>
        <time>2014-09-07T08:56:47.000Z</time>
      </trkpt>
      <trkpt lat="48.21066" lon="3.20247">
        <ele>162</ele>
        <time>2014-09-07T08:56:49.000Z</time>
      </trkpt>
      <trkpt lat="48.21067" lon="3.20247">
        <ele>162</ele>
        <time>2014-09-07T08:56:50.000Z</time>
      </trkpt>
      <trkpt lat="48.21069" lon="3.20243">
        <ele>162</ele>
        <time>2014-09-07T08:56:53.000Z</time>
      </trkpt>
      <trkpt lat="48.21069" lon="3.20241">
        <ele>162</ele>
        <time>2014-09-07T08:56:54.000Z</time>
      </trkpt>
      <trkpt lat="48.2107" lon="3.20236">
        <ele>162</ele>
        <time>2014-09-07T08:56:58.000Z</time>
      </trkpt>
      <trkpt lat="48.21071" lon="3.20234">
        <ele>162</ele>
        <time>2014-09-07T08:56:59.000Z</time>
      </trkpt>
      <trkpt lat="48.21072" lon="3.2023">
        <ele>161</ele>
        <time>2014-09-07T08:57:01.000Z</time>
      </trkpt>
      <trkpt lat="48.21073" lon="3.20228">
        <ele>161</ele>
        <time>2014-09-07T08:57:02.000Z</time>
      </trkpt>
      <trkpt lat="48.21075" lon="3.20224">
        <ele>161</ele>
        <time>2014-09-07T08:57:04.000Z</time>
      </trkpt>
      <trkpt lat="48.21077" lon="3.20221">
        <ele>161</ele>
        <time>2014-09-07T08:57:05.000Z</time>
      </trkpt>
      <trkpt lat="48.21078" lon="3.20215">
        <ele>161</ele>
        <time>2014-09-07T08:57:07.000Z</time>
      </trkpt>
      <trkpt lat="48.21079" lon="3.20213">
        <ele>160</ele>
        <time>2014-09-07T08:57:08.000Z</time>
      </trkpt>
      <trkpt lat="48.2108" lon="3.20209">
        <ele>160</ele>
        <time>2014-09-07T08:57:10.000Z</time>
      </trkpt>
      <trkpt lat="48.21081" lon="3.20206">
        <ele>160</ele>
        <time>2014-09-07T08:57:11.000Z</time>
      </trkpt>
      <trkpt lat="48.21082" lon="3.20202">
        <ele>160</ele>
        <time>2014-09-07T08:57:12.000Z</time>
      </trkpt>
      <trkpt lat="48.21083" lon="3.202">
        <ele>159</ele>
        <time>2014-09-07T08:57:13.000Z</time>
      </trkpt>
      <trkpt lat="48.21085" lon="3.20196">
        <ele>155</ele>
        <time>2014-09-07T08:57:15.000Z</time>
      </trkpt>
      <trkpt lat="48.21086" lon="3.20191">
        <ele>154</ele>
        <time>2014-09-07T08:57:16.000Z</time>
      </trkpt>
      <trkpt lat="48.21087" lon="3.20189">
        <ele>154</ele>
        <time>2014-09-07T08:57:17.000Z</time>
      </trkpt>
      <trkpt lat="48.21088" lon="3.20185">
        <ele>154</ele>
        <time>2014-09-07T08:57:18.000Z</time>
      </trkpt>
      <trkpt lat="48.2109" lon="3.20181">
        <ele>154</ele>
        <time>2014-09-07T08:57:19.000Z</time>
      </trkpt>
      <trkpt lat="48.21092" lon="3.20176">
        <ele>154</ele>
        <time>2014-09-07T08:57:20.000Z</time>
      </trkpt>
      <trkpt lat="48.21094" lon="3.20172">
        <ele>154</ele>
        <time>2014-09-07T08:57:21.000Z</time>
      </trkpt>
      <trkpt lat="48.21095" lon="3.20168">
        <ele>154</ele>
        <time>2014-09-07T08:57:22.000Z</time>
      </trkpt>
      <trkpt lat="48.21096" lon="3.20163">
        <ele>152</ele>
        <time>2014-09-07T08:57:23.000Z</time>
      </trkpt>
      <trkpt lat="48.21096" lon="3.20159">
        <ele>152</ele>
        <time>2014-09-07T08:57:24.000Z</time>
      </trkpt>
      <trkpt lat="48.21096" lon="3.20155">
        <ele>152</ele>
        <time>2014-09-07T08:57:25.000Z</time>
      </trkpt>
      <trkpt lat="48.21096" lon="3.20151">
        <ele>151</ele>
        <time>2014-09-07T08:57:26.000Z</time>
      </trkpt>
      <trkpt lat="48.21095" lon="3.20144">
        <ele>151</ele>
        <time>2014-09-07T08:57:28.000Z</time>
      </trkpt>
      <trkpt lat="48.21094" lon="3.20142">
        <ele>151</ele>
        <time>2014-09-07T08:57:29.000Z</time>
      </trkpt>
      <trkpt lat="48.21094" lon="3.20138">
        <ele>151</ele>
        <time>2014-09-07T08:57:30.000Z</time>
      </trkpt>
      <trkpt lat="48.21092" lon="3.20136">
        <ele>151</ele>
        <time>2014-09-07T08:57:31.000Z</time>
      </trkpt>
      <trkpt lat="48.21088" lon="3.20131">
        <ele>150</ele>
        <time>2014-09-07T08:57:33.000Z</time>
      </trkpt>
      <trkpt lat="48.21086" lon="3.20127">
        <ele>150</ele>
        <time>2014-09-07T08:57:34.000Z</time>
      </trkpt>
      <trkpt lat="48.21083" lon="3.20123">
        <ele>154</ele>
        <time>2014-09-07T08:57:36.000Z</time>
      </trkpt>
      <trkpt lat="48.21081" lon="3.20123">
        <ele>154</ele>
        <time>2014-09-07T08:57:37.000Z</time>
      </trkpt>
      <trkpt lat="48.21079" lon="3.20121">
        <ele>154</ele>
        <time>2014-09-07T08:57:38.000Z</time>
      </trkpt>
      <trkpt lat="48.21078" lon="3.20116">
        <ele>154</ele>
        <time>2014-09-07T08:57:39.000Z</time>
      </trkpt>
      <trkpt lat="48.21075" lon="3.20114">
        <ele>154</ele>
        <time>2014-09-07T08:57:40.000Z</time>
      </trkpt>
      <trkpt lat="48.21073" lon="3.20112">
        <ele>154</ele>
        <time>2014-09-07T08:57:41.000Z</time>
      </trkpt>
      <trkpt lat="48.2107" lon="3.20108">
        <ele>154</ele>
        <time>2014-09-07T08:57:43.000Z</time>
      </trkpt>
      <trkpt lat="48.21068" lon="3.20106">
        <ele>153</ele>
        <time>2014-09-07T08:57:44.000Z</time>
      </trkpt>
      <trkpt lat="48.21065" lon="3.20101">
        <ele>153</ele>
        <time>2014-09-07T08:57:46.000Z</time>
      </trkpt>
      <trkpt lat="48.21063" lon="3.20099">
        <ele>153</ele>
        <time>2014-09-07T08:57:47.000Z</time>
      </trkpt>
      <trkpt lat="48.21059" lon="3.20095">
        <ele>154</ele>
        <time>2014-09-07T08:57:49.000Z</time>
      </trkpt>
      <trkpt lat="48.21057" lon="3.20093">
        <ele>154</ele>
        <time>2014-09-07T08:57:50.000Z</time>
      </trkpt>
      <trkpt lat="48.21055" lon="3.20093">
        <ele>154</ele>
        <time>2014-09-07T08:57:51.000Z</time>
      </trkpt>
      <trkpt lat="48.21053" lon="3.20091">
        <ele>154</ele>
        <time>2014-09-07T08:57:52.000Z</time>
      </trkpt>
      <trkpt lat="48.2105" lon="3.20086">
        <ele>154</ele>
        <time>2014-09-07T08:57:54.000Z</time>
      </trkpt>
      <trkpt lat="48.21048" lon="3.20084">
        <ele>154</ele>
        <time>2014-09-07T08:57:55.000Z</time>
      </trkpt>
      <trkpt lat="48.21043" lon="3.20082">
        <ele>155</ele>
        <time>2014-09-07T08:57:57.000Z</time>
      </trkpt>
      <trkpt lat="48.21041" lon="3.2008">
        <ele>155</ele>
        <time>2014-09-07T08:57:58.000Z</time>
      </trkpt>
      <trkpt lat="48.21039" lon="3.20078">
        <ele>156</ele>
        <time>2014-09-07T08:57:59.000Z</time>
      </trkpt>
      <trkpt lat="48.21037" lon="3.20076">
        <ele>156</ele>
        <time>2014-09-07T08:58:00.000Z</time>
      </trkpt>
      <trkpt lat="48.21035" lon="3.20073">
        <ele>156</ele>
        <time>2014-09-07T08:58:01.000Z</time>
      </trkpt>
      <trkpt lat="48.21033" lon="3.20071">
        <ele>156</ele>
        <time>2014-09-07T08:58:02.000Z</time>
      </trkpt>
      <trkpt lat="48.2103" lon="3.20069">
        <ele>156</ele>
        <time>2014-09-07T08:58:03.000Z</time>
      </trkpt>
      <trkpt lat="48.21028" lon="3.20067">
        <ele>156</ele>
        <time>2014-09-07T08:58:04.000Z</time>
      </trkpt>
      <trkpt lat="48.21024" lon="3.20065">
        <ele>156</ele>
        <time>2014-09-07T08:58:06.000Z</time>
      </trkpt>
      <trkpt lat="48.21022" lon="3.20063">
        <ele>157</ele>
        <time>2014-09-07T08:58:07.000Z</time>
      </trkpt>
      <trkpt lat="48.2102" lon="3.2006">
        <ele>157</ele>
        <time>2014-09-07T08:58:08.000Z</time>
      </trkpt>
      <trkpt lat="48.21018" lon="3.20058">
        <ele>157</ele>
        <time>2014-09-07T08:58:09.000Z</time>
      </trkpt>
      <trkpt lat="48.21015" lon="3.20056">
        <ele>157</ele>
        <time>2014-09-07T08:58:10.000Z</time>
      </trkpt>
      <trkpt lat="48.21013" lon="3.20054">
        <ele>157</ele>
        <time>2014-09-07T08:58:11.000Z</time>
      </trkpt>
      <trkpt lat="48.21011" lon="3.20052">
        <ele>157</ele>
        <time>2014-09-07T08:58:12.000Z</time>
      </trkpt>
      <trkpt lat="48.21009" lon="3.2005">
        <ele>157</ele>
        <time>2014-09-07T08:58:13.000Z</time>
      </trkpt>
      <trkpt lat="48.21007" lon="3.20048">
        <ele>157</ele>
        <time>2014-09-07T08:58:14.000Z</time>
      </trkpt>
      <trkpt lat="48.21005" lon="3.20045">
        <ele>157</ele>
        <time>2014-09-07T08:58:15.000Z</time>
      </trkpt>
      <trkpt lat="48.21002" lon="3.20043">
        <ele>158</ele>
        <time>2014-09-07T08:58:16.000Z</time>
      </trkpt>
      <trkpt lat="48.21" lon="3.20041">
        <ele>158</ele>
        <time>2014-09-07T08:58:17.000Z</time>
      </trkpt>
      <trkpt lat="48.20998" lon="3.20039">
        <ele>160</ele>
        <time>2014-09-07T08:58:18.000Z</time>
      </trkpt>
      <trkpt lat="48.20996" lon="3.20037">
        <ele>160</ele>
        <time>2014-09-07T08:58:19.000Z</time>
      </trkpt>
      <trkpt lat="48.20992" lon="3.20035">
        <ele>161</ele>
        <time>2014-09-07T08:58:21.000Z</time>
      </trkpt>
      <trkpt lat="48.20989" lon="3.20033">
        <ele>161</ele>
        <time>2014-09-07T08:58:22.000Z</time>
      </trkpt>
      <trkpt lat="48.20986" lon="3.2003">
        <ele>161</ele>
        <time>2014-09-07T08:58:23.000Z</time>
      </trkpt>
      <trkpt lat="48.20984" lon="3.20028">
        <ele>161</ele>
        <time>2014-09-07T08:58:24.000Z</time>
      </trkpt>
      <trkpt lat="48.20982" lon="3.20026">
        <ele>161</ele>
        <time>2014-09-07T08:58:25.000Z</time>
      </trkpt>
      <trkpt lat="48.2098" lon="3.20024">
        <ele>161</ele>
        <time>2014-09-07T08:58:26.000Z</time>
      </trkpt>
      <trkpt lat="48.20978" lon="3.20022">
        <ele>161</ele>
        <time>2014-09-07T08:58:27.000Z</time>
      </trkpt>
      <trkpt lat="48.20976" lon="3.2002">
        <ele>161</ele>
        <time>2014-09-07T08:58:28.000Z</time>
      </trkpt>
      <trkpt lat="48.20974" lon="3.20018">
        <ele>161</ele>
        <time>2014-09-07T08:58:29.000Z</time>
      </trkpt>
      <trkpt lat="48.2097" lon="3.20015">
        <ele>161</ele>
        <time>2014-09-07T08:58:30.000Z</time>
      </trkpt>
      <trkpt lat="48.20968" lon="3.20013">
        <ele>161</ele>
        <time>2014-09-07T08:58:31.000Z</time>
      </trkpt>
      <trkpt lat="48.20966" lon="3.20011">
        <ele>161</ele>
        <time>2014-09-07T08:58:32.000Z</time>
      </trkpt>
      <trkpt lat="48.20963" lon="3.20009">
        <ele>161</ele>
        <time>2014-09-07T08:58:33.000Z</time>
      </trkpt>
      <trkpt lat="48.2096" lon="3.20007">
        <ele>161</ele>
        <time>2014-09-07T08:58:34.000Z</time>
      </trkpt>
      <trkpt lat="48.20956" lon="3.20003">
        <ele>161</ele>
        <time>2014-09-07T08:58:35.000Z</time>
      </trkpt>
      <trkpt lat="48.20954" lon="3.2">
        <ele>161</ele>
        <time>2014-09-07T08:58:36.000Z</time>
      </trkpt>
      <trkpt lat="48.20951" lon="3.19996">
        <ele>163</ele>
        <time>2014-09-07T08:58:37.000Z</time>
      </trkpt>
      <trkpt lat="48.20947" lon="3.19992">
        <ele>163</ele>
        <time>2014-09-07T08:58:38.000Z</time>
      </trkpt>
      <trkpt lat="48.20943" lon="3.19988">
        <ele>163</ele>
        <time>2014-09-07T08:58:39.000Z</time>
      </trkpt>
      <trkpt lat="48.2094" lon="3.19985">
        <ele>163</ele>
        <time>2014-09-07T08:58:40.000Z</time>
      </trkpt>
      <trkpt lat="48.20936" lon="3.19981">
        <ele>163</ele>
        <time>2014-09-07T08:58:41.000Z</time>
      </trkpt>
      <trkpt lat="48.20933" lon="3.19979">
        <ele>163</ele>
        <time>2014-09-07T08:58:42.000Z</time>
      </trkpt>
      <trkpt lat="48.20928" lon="3.19977">
        <ele>163</ele>
        <time>2014-09-07T08:58:43.000Z</time>
      </trkpt>
      <trkpt lat="48.20925" lon="3.19975">
        <ele>163</ele>
        <time>2014-09-07T08:58:44.000Z</time>
      </trkpt>
      <trkpt lat="48.20921" lon="3.19973">
        <ele>163</ele>
        <time>2014-09-07T08:58:45.000Z</time>
      </trkpt>
      <trkpt lat="48.20917" lon="3.19968">
        <ele>164</ele>
        <time>2014-09-07T08:58:46.000Z</time>
      </trkpt>
      <trkpt lat="48.20913" lon="3.19966">
        <ele>164</ele>
        <time>2014-09-07T08:58:47.000Z</time>
      </trkpt>
      <trkpt lat="48.2091" lon="3.19964">
        <ele>164</ele>
        <time>2014-09-07T08:58:48.000Z</time>
      </trkpt>
      <trkpt lat="48.20906" lon="3.19962">
        <ele>164</ele>
        <time>2014-09-07T08:58:49.000Z</time>
      </trkpt>
      <trkpt lat="48.20902" lon="3.1996">
        <ele>164</ele>
        <time>2014-09-07T08:58:50.000Z</time>
      </trkpt>
      <trkpt lat="48.20898" lon="3.1996">
        <ele>164</ele>
        <time>2014-09-07T08:58:51.000Z</time>
      </trkpt>
      <trkpt lat="48.20894" lon="3.19957">
        <ele>164</ele>
        <time>2014-09-07T08:58:52.000Z</time>
      </trkpt>
      <trkpt lat="48.2089" lon="3.19955">
        <ele>164</ele>
        <time>2014-09-07T08:58:53.000Z</time>
      </trkpt>
      <trkpt lat="48.20886" lon="3.19955">
        <ele>164</ele>
        <time>2014-09-07T08:58:54.000Z</time>
      </trkpt>
      <trkpt lat="48.20882" lon="3.19953">
        <ele>164</ele>
        <time>2014-09-07T08:58:55.000Z</time>
      </trkpt>
      <trkpt lat="48.20878" lon="3.19951">
        <ele>164</ele>
        <time>2014-09-07T08:58:56.000Z</time>
      </trkpt>
      <trkpt lat="48.20874" lon="3.19951">
        <ele>164</ele>
        <time>2014-09-07T08:58:57.000Z</time>
      </trkpt>
      <trkpt lat="48.20869" lon="3.19949">
        <ele>164</ele>
        <time>2014-09-07T08:58:58.000Z</time>
      </trkpt>
      <trkpt lat="48.20865" lon="3.19949">
        <ele>164</ele>
        <time>2014-09-07T08:58:59.000Z</time>
      </trkpt>
      <trkpt lat="48.20861" lon="3.19949">
        <ele>164</ele>
        <time>2014-09-07T08:59:00.000Z</time>
      </trkpt>
      <trkpt lat="48.20857" lon="3.19947">
        <ele>164</ele>
        <time>2014-09-07T08:59:01.000Z</time>
      </trkpt>
      <trkpt lat="48.20852" lon="3.19947">
        <ele>164</ele>
        <time>2014-09-07T08:59:02.000Z</time>
      </trkpt>
      <trkpt lat="48.20848" lon="3.19947">
        <ele>164</ele>
        <time>2014-09-07T08:59:03.000Z</time>
      </trkpt>
      <trkpt lat="48.20844" lon="3.19947">
        <ele>164</ele>
        <time>2014-09-07T08:59:04.000Z</time>
      </trkpt>
      <trkpt lat="48.20838" lon="3.19945">
        <ele>164</ele>
        <time>2014-09-07T08:59:05.000Z</time>
      </trkpt>
      <trkpt lat="48.20834" lon="3.19945">
        <ele>164</ele>
        <time>2014-09-07T08:59:06.000Z</time>
      </trkpt>
      <trkpt lat="48.2083" lon="3.19945">
        <ele>165</ele>
        <time>2014-09-07T08:59:07.000Z</time>
      </trkpt>
      <trkpt lat="48.20825" lon="3.19942">
        <ele>165</ele>
        <time>2014-09-07T08:59:08.000Z</time>
      </trkpt>
      <trkpt lat="48.20821" lon="3.19942">
        <ele>165</ele>
        <time>2014-09-07T08:59:09.000Z</time>
      </trkpt>
      <trkpt lat="48.20817" lon="3.19942">
        <ele>165</ele>
        <time>2014-09-07T08:59:10.000Z</time>
      </trkpt>
      <trkpt lat="48.20813" lon="3.1994">
        <ele>165</ele>
        <time>2014-09-07T08:59:11.000Z</time>
      </trkpt>
      <trkpt lat="48.20808" lon="3.1994">
        <ele>165</ele>
        <time>2014-09-07T08:59:12.000Z</time>
      </trkpt>
      <trkpt lat="48.20804" lon="3.1994">
        <ele>165</ele>
        <time>2014-09-07T08:59:13.000Z</time>
      </trkpt>
      <trkpt lat="48.20799" lon="3.1994">
        <ele>165</ele>
        <time>2014-09-07T08:59:14.000Z</time>
      </trkpt>
      <trkpt lat="48.20794" lon="3.1994">
        <ele>165</ele>
        <time>2014-09-07T08:59:15.000Z</time>
      </trkpt>
      <trkpt lat="48.2079" lon="3.1994">
        <ele>165</ele>
        <time>2014-09-07T08:59:16.000Z</time>
      </trkpt>
      <trkpt lat="48.20786" lon="3.1994">
        <ele>165</ele>
        <time>2014-09-07T08:59:17.000Z</time>
      </trkpt>
      <trkpt lat="48.20783" lon="3.1994">
        <ele>166</ele>
        <time>2014-09-07T08:59:18.000Z</time>
      </trkpt>
      <trkpt lat="48.20778" lon="3.19938">
        <ele>166</ele>
        <time>2014-09-07T08:59:19.000Z</time>
      </trkpt>
      <trkpt lat="48.20774" lon="3.19938">
        <ele>166</ele>
        <time>2014-09-07T08:59:20.000Z</time>
      </trkpt>
      <trkpt lat="48.2077" lon="3.19938">
        <ele>166</ele>
        <time>2014-09-07T08:59:21.000Z</time>
      </trkpt>
      <trkpt lat="48.20765" lon="3.19938">
        <ele>166</ele>
        <time>2014-09-07T08:59:22.000Z</time>
      </trkpt>
      <trkpt lat="48.20761" lon="3.19938">
        <ele>166</ele>
        <time>2014-09-07T08:59:23.000Z</time>
      </trkpt>
      <trkpt lat="48.20757" lon="3.19938">
        <ele>166</ele>
        <time>2014-09-07T08:59:24.000Z</time>
      </trkpt>
      <trkpt lat="48.20753" lon="3.19936">
        <ele>166</ele>
        <time>2014-09-07T08:59:25.000Z</time>
      </trkpt>
      <trkpt lat="48.20748" lon="3.19936">
        <ele>168</ele>
        <time>2014-09-07T08:59:26.000Z</time>
      </trkpt>
      <trkpt lat="48.20744" lon="3.19936">
        <ele>168</ele>
        <time>2014-09-07T08:59:27.000Z</time>
      </trkpt>
      <trkpt lat="48.20741" lon="3.19936">
        <ele>168</ele>
        <time>2014-09-07T08:59:28.000Z</time>
      </trkpt>
      <trkpt lat="48.20736" lon="3.19936">
        <ele>168</ele>
        <time>2014-09-07T08:59:29.000Z</time>
      </trkpt>
      <trkpt lat="48.20732" lon="3.19934">
        <ele>168</ele>
        <time>2014-09-07T08:59:30.000Z</time>
      </trkpt>
      <trkpt lat="48.20728" lon="3.19932">
        <ele>168</ele>
        <time>2014-09-07T08:59:31.000Z</time>
      </trkpt>
      <trkpt lat="48.20725" lon="3.1993">
        <ele>168</ele>
        <time>2014-09-07T08:59:32.000Z</time>
      </trkpt>
      <trkpt lat="48.20721" lon="3.19927">
        <ele>168</ele>
        <time>2014-09-07T08:59:33.000Z</time>
      </trkpt>
      <trkpt lat="48.20718" lon="3.19927">
        <ele>168</ele>
        <time>2014-09-07T08:59:34.000Z</time>
      </trkpt>
      <trkpt lat="48.20714" lon="3.19925">
        <ele>168</ele>
        <time>2014-09-07T08:59:35.000Z</time>
      </trkpt>
      <trkpt lat="48.20709" lon="3.19925">
        <ele>168</ele>
        <time>2014-09-07T08:59:36.000Z</time>
      </trkpt>
      <trkpt lat="48.20704" lon="3.19923">
        <ele>168</ele>
        <time>2014-09-07T08:59:37.000Z</time>
      </trkpt>
      <trkpt lat="48.20699" lon="3.19923">
        <ele>168</ele>
        <time>2014-09-07T08:59:38.000Z</time>
      </trkpt>
      <trkpt lat="48.20693" lon="3.19921">
        <ele>168</ele>
        <time>2014-09-07T08:59:39.000Z</time>
      </trkpt>
      <trkpt lat="48.20688" lon="3.19917">
        <ele>168</ele>
        <time>2014-09-07T08:59:40.000Z</time>
      </trkpt>
      <trkpt lat="48.20684" lon="3.19915">
        <ele>168</ele>
        <time>2014-09-07T08:59:41.000Z</time>
      </trkpt>
      <trkpt lat="48.20678" lon="3.19912">
        <ele>168</ele>
        <time>2014-09-07T08:59:42.000Z</time>
      </trkpt>
      <trkpt lat="48.20674" lon="3.1991">
        <ele>168</ele>
        <time>2014-09-07T08:59:43.000Z</time>
      </trkpt>
      <trkpt lat="48.20671" lon="3.19906">
        <ele>168</ele>
        <time>2014-09-07T08:59:44.000Z</time>
      </trkpt>
      <trkpt lat="48.20667" lon="3.19902">
        <ele>169</ele>
        <time>2014-09-07T08:59:45.000Z</time>
      </trkpt>
      <trkpt lat="48.20663" lon="3.199">
        <ele>170</ele>
        <time>2014-09-07T08:59:46.000Z</time>
      </trkpt>
      <trkpt lat="48.2066" lon="3.19895">
        <ele>170</ele>
        <time>2014-09-07T08:59:47.000Z</time>
      </trkpt>
      <trkpt lat="48.20657" lon="3.19891">
        <ele>170</ele>
        <time>2014-09-07T08:59:48.000Z</time>
      </trkpt>
      <trkpt lat="48.20655" lon="3.19889">
        <ele>170</ele>
        <time>2014-09-07T08:59:49.000Z</time>
      </trkpt>
      <trkpt lat="48.20653" lon="3.19885">
        <ele>170</ele>
        <time>2014-09-07T08:59:50.000Z</time>
      </trkpt>
      <trkpt lat="48.2065" lon="3.19882">
        <ele>170</ele>
        <time>2014-09-07T08:59:51.000Z</time>
      </trkpt>
      <trkpt lat="48.20647" lon="3.19878">
        <ele>171</ele>
        <time>2014-09-07T08:59:52.000Z</time>
      </trkpt>
      <trkpt lat="48.20645" lon="3.19876">
        <ele>171</ele>
        <time>2014-09-07T08:59:53.000Z</time>
      </trkpt>
      <trkpt lat="48.20643" lon="3.19872">
        <ele>171</ele>
        <time>2014-09-07T08:59:54.000Z</time>
      </trkpt>
      <trkpt lat="48.20642" lon="3.1987">
        <ele>171</ele>
        <time>2014-09-07T08:59:55.000Z</time>
      </trkpt>
      <trkpt lat="48.2064" lon="3.19865">
        <ele>171</ele>
        <time>2014-09-07T08:59:56.000Z</time>
      </trkpt>
      <trkpt lat="48.20639" lon="3.19863">
        <ele>171</ele>
        <time>2014-09-07T08:59:57.000Z</time>
      </trkpt>
      <trkpt lat="48.20637" lon="3.19859">
        <ele>171</ele>
        <time>2014-09-07T08:59:58.000Z</time>
      </trkpt>
      <trkpt lat="48.20636" lon="3.19854">
        <ele>171</ele>
        <time>2014-09-07T08:59:59.000Z</time>
      </trkpt>
      <trkpt lat="48.20634" lon="3.19852">
        <ele>171</ele>
        <time>2014-09-07T09:00:00.000Z</time>
      </trkpt>
      <trkpt lat="48.20632" lon="3.19848">
        <ele>171</ele>
        <time>2014-09-07T09:00:01.000Z</time>
      </trkpt>
      <trkpt lat="48.20629" lon="3.19844">
        <ele>171</ele>
        <time>2014-09-07T09:00:03.000Z</time>
      </trkpt>
      <trkpt lat="48.20626" lon="3.19839">
        <ele>171</ele>
        <time>2014-09-07T09:00:04.000Z</time>
      </trkpt>
      <trkpt lat="48.20623" lon="3.19837">
        <ele>171</ele>
        <time>2014-09-07T09:00:05.000Z</time>
      </trkpt>
      <trkpt lat="48.20619" lon="3.19835">
        <ele>171</ele>
        <time>2014-09-07T09:00:06.000Z</time>
      </trkpt>
      <trkpt lat="48.20615" lon="3.19833">
        <ele>171</ele>
        <time>2014-09-07T09:00:07.000Z</time>
      </trkpt>
      <trkpt lat="48.20612" lon="3.19831">
        <ele>171</ele>
        <time>2014-09-07T09:00:08.000Z</time>
      </trkpt>
      <trkpt lat="48.20609" lon="3.19829">
        <ele>171</ele>
        <time>2014-09-07T09:00:09.000Z</time>
      </trkpt>
      <trkpt lat="48.20604" lon="3.19824">
        <ele>171</ele>
        <time>2014-09-07T09:00:10.000Z</time>
      </trkpt>
      <trkpt lat="48.20602" lon="3.19822">
        <ele>171</ele>
        <time>2014-09-07T09:00:11.000Z</time>
      </trkpt>
      <trkpt lat="48.20599" lon="3.1982">
        <ele>171</ele>
        <time>2014-09-07T09:00:12.000Z</time>
      </trkpt>
      <trkpt lat="48.20597" lon="3.19816">
        <ele>171</ele>
        <time>2014-09-07T09:00:13.000Z</time>
      </trkpt>
      <trkpt lat="48.20594" lon="3.19814">
        <ele>171</ele>
        <time>2014-09-07T09:00:14.000Z</time>
      </trkpt>
      <trkpt lat="48.20592" lon="3.19812">
        <ele>171</ele>
        <time>2014-09-07T09:00:15.000Z</time>
      </trkpt>
      <trkpt lat="48.20589" lon="3.19807">
        <ele>171</ele>
        <time>2014-09-07T09:00:16.000Z</time>
      </trkpt>
      <trkpt lat="48.20587" lon="3.19805">
        <ele>171</ele>
        <time>2014-09-07T09:00:17.000Z</time>
      </trkpt>
      <trkpt lat="48.20585" lon="3.19803">
        <ele>171</ele>
        <time>2014-09-07T09:00:18.000Z</time>
      </trkpt>
      <trkpt lat="48.20584" lon="3.19799">
        <ele>171</ele>
        <time>2014-09-07T09:00:19.000Z</time>
      </trkpt>
      <trkpt lat="48.20582" lon="3.19797">
        <ele>171</ele>
        <time>2014-09-07T09:00:20.000Z</time>
      </trkpt>
      <trkpt lat="48.20581" lon="3.19794">
        <ele>171</ele>
        <time>2014-09-07T09:00:21.000Z</time>
      </trkpt>
      <trkpt lat="48.20579" lon="3.1979">
        <ele>171</ele>
        <time>2014-09-07T09:00:22.000Z</time>
      </trkpt>
      <trkpt lat="48.20575" lon="3.19786">
        <ele>171</ele>
        <time>2014-09-07T09:00:24.000Z</time>
      </trkpt>
      <trkpt lat="48.20574" lon="3.19782">
        <ele>171</ele>
        <time>2014-09-07T09:00:25.000Z</time>
      </trkpt>
      <trkpt lat="48.20573" lon="3.19779">
        <ele>171</ele>
        <time>2014-09-07T09:00:26.000Z</time>
      </trkpt>
      <trkpt lat="48.20572" lon="3.19775">
        <ele>171</ele>
        <time>2014-09-07T09:00:27.000Z</time>
      </trkpt>
      <trkpt lat="48.20571" lon="3.19773">
        <ele>171</ele>
        <time>2014-09-07T09:00:28.000Z</time>
      </trkpt>
      <trkpt lat="48.2057" lon="3.19769">
        <ele>171</ele>
        <time>2014-09-07T09:00:29.000Z</time>
      </trkpt>
      <trkpt lat="48.20568" lon="3.19767">
        <ele>171</ele>
        <time>2014-09-07T09:00:30.000Z</time>
      </trkpt>
      <trkpt lat="48.20567" lon="3.19762">
        <ele>171</ele>
        <time>2014-09-07T09:00:31.000Z</time>
      </trkpt>
      <trkpt lat="48.20566" lon="3.1976">
        <ele>171</ele>
        <time>2014-09-07T09:00:32.000Z</time>
      </trkpt>
      <trkpt lat="48.20565" lon="3.19756">
        <ele>171</ele>
        <time>2014-09-07T09:00:33.000Z</time>
      </trkpt>
      <trkpt lat="48.20563" lon="3.19752">
        <ele>171</ele>
        <time>2014-09-07T09:00:35.000Z</time>
      </trkpt>
      <trkpt lat="48.20562" lon="3.19747">
        <ele>171</ele>
        <time>2014-09-07T09:00:36.000Z</time>
      </trkpt>
      <trkpt lat="48.2056" lon="3.19745">
        <ele>171</ele>
        <time>2014-09-07T09:00:37.000Z</time>
      </trkpt>
      <trkpt lat="48.20559" lon="3.19741">
        <ele>171</ele>
        <time>2014-09-07T09:00:38.000Z</time>
      </trkpt>
      <trkpt lat="48.20558" lon="3.19739">
        <ele>171</ele>
        <time>2014-09-07T09:00:39.000Z</time>
      </trkpt>
      <trkpt lat="48.20557" lon="3.19734">
        <ele>171</ele>
        <time>2014-09-07T09:00:40.000Z</time>
      </trkpt>
      <trkpt lat="48.20556" lon="3.19732">
        <ele>171</ele>
        <time>2014-09-07T09:00:41.000Z</time>
      </trkpt>
      <trkpt lat="48.20555" lon="3.19728">
        <ele>171</ele>
        <time>2014-09-07T09:00:42.000Z</time>
      </trkpt>
      <trkpt lat="48.20554" lon="3.19726">
        <ele>171</ele>
        <time>2014-09-07T09:00:43.000Z</time>
      </trkpt>
      <trkpt lat="48.20553" lon="3.19721">
        <ele>171</ele>
        <time>2014-09-07T09:00:44.000Z</time>
      </trkpt>
      <trkpt lat="48.20552" lon="3.19719">
        <ele>171</ele>
        <time>2014-09-07T09:00:45.000Z</time>
      </trkpt>
      <trkpt lat="48.2055" lon="3.19715">
        <ele>171</ele>
        <time>2014-09-07T09:00:46.000Z</time>
      </trkpt>
      <trkpt lat="48.20549" lon="3.19713">
        <ele>171</ele>
        <time>2014-09-07T09:00:47.000Z</time>
      </trkpt>
      <trkpt lat="48.20548" lon="3.19709">
        <ele>171</ele>
        <time>2014-09-07T09:00:48.000Z</time>
      </trkpt>
      <trkpt lat="48.20547" lon="3.19706">
        <ele>171</ele>
        <time>2014-09-07T09:00:49.000Z</time>
      </trkpt>
      <trkpt lat="48.20544" lon="3.19702">
        <ele>171</ele>
        <time>2014-09-07T09:00:50.000Z</time>
      </trkpt>
      <trkpt lat="48.20543" lon="3.197">
        <ele>171</ele>
        <time>2014-09-07T09:00:51.000Z</time>
      </trkpt>
      <trkpt lat="48.20542" lon="3.19696">
        <ele>171</ele>
        <time>2014-09-07T09:00:52.000Z</time>
      </trkpt>
      <trkpt lat="48.2054" lon="3.19694">
        <ele>171</ele>
        <time>2014-09-07T09:00:53.000Z</time>
      </trkpt>
      <trkpt lat="48.20539" lon="3.19689">
        <ele>171</ele>
        <time>2014-09-07T09:00:54.000Z</time>
      </trkpt>
      <trkpt lat="48.20538" lon="3.19687">
        <ele>171</ele>
        <time>2014-09-07T09:00:55.000Z</time>
      </trkpt>
      <trkpt lat="48.20537" lon="3.19683">
        <ele>171</ele>
        <time>2014-09-07T09:00:56.000Z</time>
      </trkpt>
      <trkpt lat="48.20535" lon="3.19679">
        <ele>171</ele>
        <time>2014-09-07T09:00:57.000Z</time>
      </trkpt>
      <trkpt lat="48.20534" lon="3.19674">
        <ele>171</ele>
        <time>2014-09-07T09:00:58.000Z</time>
      </trkpt>
      <trkpt lat="48.20531" lon="3.1967">
        <ele>171</ele>
        <time>2014-09-07T09:00:59.000Z</time>
      </trkpt>
      <trkpt lat="48.20529" lon="3.19666">
        <ele>172</ele>
        <time>2014-09-07T09:01:00.000Z</time>
      </trkpt>
      <trkpt lat="48.20528" lon="3.19661">
        <ele>172</ele>
        <time>2014-09-07T09:01:01.000Z</time>
      </trkpt>
      <trkpt lat="48.20526" lon="3.19657">
        <ele>172</ele>
        <time>2014-09-07T09:01:02.000Z</time>
      </trkpt>
      <trkpt lat="48.20525" lon="3.19653">
        <ele>172</ele>
        <time>2014-09-07T09:01:03.000Z</time>
      </trkpt>
      <trkpt lat="48.20523" lon="3.19649">
        <ele>172</ele>
        <time>2014-09-07T09:01:04.000Z</time>
      </trkpt>
      <trkpt lat="48.20522" lon="3.19642">
        <ele>172</ele>
        <time>2014-09-07T09:01:05.000Z</time>
      </trkpt>
      <trkpt lat="48.2052" lon="3.19638">
        <ele>172</ele>
        <time>2014-09-07T09:01:06.000Z</time>
      </trkpt>
      <trkpt lat="48.20519" lon="3.19631">
        <ele>172</ele>
        <time>2014-09-07T09:01:07.000Z</time>
      </trkpt>
      <trkpt lat="48.20518" lon="3.19627">
        <ele>172</ele>
        <time>2014-09-07T09:01:08.000Z</time>
      </trkpt>
      <trkpt lat="48.20516" lon="3.19623">
        <ele>172</ele>
        <time>2014-09-07T09:01:09.000Z</time>
      </trkpt>
      <trkpt lat="48.20515" lon="3.19616">
        <ele>173</ele>
        <time>2014-09-07T09:01:10.000Z</time>
      </trkpt>
      <trkpt lat="48.20514" lon="3.19612">
        <ele>173</ele>
        <time>2014-09-07T09:01:11.000Z</time>
      </trkpt>
      <trkpt lat="48.20514" lon="3.19606">
        <ele>173</ele>
        <time>2014-09-07T09:01:12.000Z</time>
      </trkpt>
      <trkpt lat="48.20513" lon="3.19601">
        <ele>173</ele>
        <time>2014-09-07T09:01:13.000Z</time>
      </trkpt>
      <trkpt lat="48.20513" lon="3.19595">
        <ele>173</ele>
        <time>2014-09-07T09:01:14.000Z</time>
      </trkpt>
      <trkpt lat="48.20512" lon="3.19591">
        <ele>174</ele>
        <time>2014-09-07T09:01:15.000Z</time>
      </trkpt>
      <trkpt lat="48.20512" lon="3.19586">
        <ele>174</ele>
        <time>2014-09-07T09:01:16.000Z</time>
      </trkpt>
      <trkpt lat="48.20511" lon="3.1958">
        <ele>174</ele>
        <time>2014-09-07T09:01:17.000Z</time>
      </trkpt>
      <trkpt lat="48.20511" lon="3.19576">
        <ele>174</ele>
        <time>2014-09-07T09:01:18.000Z</time>
      </trkpt>
      <trkpt lat="48.2051" lon="3.19569">
        <ele>174</ele>
        <time>2014-09-07T09:01:19.000Z</time>
      </trkpt>
      <trkpt lat="48.2051" lon="3.19565">
        <ele>174</ele>
        <time>2014-09-07T09:01:20.000Z</time>
      </trkpt>
      <trkpt lat="48.20509" lon="3.19558">
        <ele>174</ele>
        <time>2014-09-07T09:01:21.000Z</time>
      </trkpt>
      <trkpt lat="48.20509" lon="3.19554">
        <ele>174</ele>
        <time>2014-09-07T09:01:22.000Z</time>
      </trkpt>
      <trkpt lat="48.20509" lon="3.19548">
        <ele>174</ele>
        <time>2014-09-07T09:01:23.000Z</time>
      </trkpt>
      <trkpt lat="48.20508" lon="3.19543">
        <ele>174</ele>
        <time>2014-09-07T09:01:24.000Z</time>
      </trkpt>
      <trkpt lat="48.20507" lon="3.19537">
        <ele>174</ele>
        <time>2014-09-07T09:01:25.000Z</time>
      </trkpt>
      <trkpt lat="48.20507" lon="3.19533">
        <ele>174</ele>
        <time>2014-09-07T09:01:26.000Z</time>
      </trkpt>
      <trkpt lat="48.20506" lon="3.19526">
        <ele>174</ele>
        <time>2014-09-07T09:01:27.000Z</time>
      </trkpt>
      <trkpt lat="48.20505" lon="3.19522">
        <ele>175</ele>
        <time>2014-09-07T09:01:28.000Z</time>
      </trkpt>
      <trkpt lat="48.20504" lon="3.19515">
        <ele>175</ele>
        <time>2014-09-07T09:01:29.000Z</time>
      </trkpt>
      <trkpt lat="48.20503" lon="3.19511">
        <ele>175</ele>
        <time>2014-09-07T09:01:30.000Z</time>
      </trkpt>
      <trkpt lat="48.20501" lon="3.19505">
        <ele>176</ele>
        <time>2014-09-07T09:01:31.000Z</time>
      </trkpt>
      <trkpt lat="48.205" lon="3.195">
        <ele>176</ele>
        <time>2014-09-07T09:01:32.000Z</time>
      </trkpt>
      <trkpt lat="48.20499" lon="3.19494">
        <ele>176</ele>
        <time>2014-09-07T09:01:33.000Z</time>
      </trkpt>
      <trkpt lat="48.20498" lon="3.1949">
        <ele>177</ele>
        <time>2014-09-07T09:01:34.000Z</time>
      </trkpt>
      <trkpt lat="48.20497" lon="3.19485">
        <ele>177</ele>
        <time>2014-09-07T09:01:35.000Z</time>
      </trkpt>
      <trkpt lat="48.20496" lon="3.19479">
        <ele>177</ele>
        <time>2014-09-07T09:01:36.000Z</time>
      </trkpt>
      <trkpt lat="48.20495" lon="3.19475">
        <ele>177</ele>
        <time>2014-09-07T09:01:37.000Z</time>
      </trkpt>
      <trkpt lat="48.20493" lon="3.19468">
        <ele>177</ele>
        <time>2014-09-07T09:01:38.000Z</time>
      </trkpt>
      <trkpt lat="48.20492" lon="3.19464">
        <ele>177</ele>
        <time>2014-09-07T09:01:39.000Z</time>
      </trkpt>
      <trkpt lat="48.20492" lon="3.1946">
        <ele>177</ele>
        <time>2014-09-07T09:01:40.000Z</time>
      </trkpt>
      <trkpt lat="48.20491" lon="3.19453">
        <ele>177</ele>
        <time>2014-09-07T09:01:41.000Z</time>
      </trkpt>
      <trkpt lat="48.2049" lon="3.19449">
        <ele>177</ele>
        <time>2014-09-07T09:01:42.000Z</time>
      </trkpt>
      <trkpt lat="48.20489" lon="3.19443">
        <ele>177</ele>
        <time>2014-09-07T09:01:43.000Z</time>
      </trkpt>
      <trkpt lat="48.20487" lon="3.19438">
        <ele>177</ele>
        <time>2014-09-07T09:01:44.000Z</time>
      </trkpt>
      <trkpt lat="48.20486" lon="3.19432">
        <ele>177</ele>
        <time>2014-09-07T09:01:45.000Z</time>
      </trkpt>
      <trkpt lat="48.20485" lon="3.19427">
        <ele>177</ele>
        <time>2014-09-07T09:01:46.000Z</time>
      </trkpt>
      <trkpt lat="48.20483" lon="3.19423">
        <ele>177</ele>
        <time>2014-09-07T09:01:47.000Z</time>
      </trkpt>
      <trkpt lat="48.20482" lon="3.19417">
        <ele>177</ele>
        <time>2014-09-07T09:01:48.000Z</time>
      </trkpt>
      <trkpt lat="48.2048" lon="3.19412">
        <ele>177</ele>
        <time>2014-09-07T09:01:49.000Z</time>
      </trkpt>
      <trkpt lat="48.20478" lon="3.19408">
        <ele>177</ele>
        <time>2014-09-07T09:01:50.000Z</time>
      </trkpt>
      <trkpt lat="48.20476" lon="3.19404">
        <ele>178</ele>
        <time>2014-09-07T09:01:51.000Z</time>
      </trkpt>
      <trkpt lat="48.20475" lon="3.194">
        <ele>178</ele>
        <time>2014-09-07T09:01:52.000Z</time>
      </trkpt>
      <trkpt lat="48.20472" lon="3.19395">
        <ele>178</ele>
        <time>2014-09-07T09:01:53.000Z</time>
      </trkpt>
      <trkpt lat="48.2047" lon="3.19391">
        <ele>178</ele>
        <time>2014-09-07T09:01:54.000Z</time>
      </trkpt>
      <trkpt lat="48.20468" lon="3.19385">
        <ele>178</ele>
        <time>2014-09-07T09:01:55.000Z</time>
      </trkpt>
      <trkpt lat="48.20466" lon="3.1938">
        <ele>178</ele>
        <time>2014-09-07T09:01:56.000Z</time>
      </trkpt>
      <trkpt lat="48.20464" lon="3.19376">
        <ele>178</ele>
        <time>2014-09-07T09:01:57.000Z</time>
      </trkpt>
      <trkpt lat="48.20462" lon="3.19372">
        <ele>178</ele>
        <time>2014-09-07T09:01:58.000Z</time>
      </trkpt>
      <trkpt lat="48.2046" lon="3.19367">
        <ele>178</ele>
        <time>2014-09-07T09:01:59.000Z</time>
      </trkpt>
      <trkpt lat="48.20459" lon="3.19363">
        <ele>178</ele>
        <time>2014-09-07T09:02:00.000Z</time>
      </trkpt>
      <trkpt lat="48.20456" lon="3.19357">
        <ele>178</ele>
        <time>2014-09-07T09:02:01.000Z</time>
      </trkpt>
      <trkpt lat="48.20454" lon="3.19352">
        <ele>178</ele>
        <time>2014-09-07T09:02:02.000Z</time>
      </trkpt>
      <trkpt lat="48.20452" lon="3.19348">
        <ele>178</ele>
        <time>2014-09-07T09:02:03.000Z</time>
      </trkpt>
      <trkpt lat="48.20451" lon="3.19344">
        <ele>179</ele>
        <time>2014-09-07T09:02:04.000Z</time>
      </trkpt>
      <trkpt lat="48.20449" lon="3.1934">
        <ele>179</ele>
        <time>2014-09-07T09:02:05.000Z</time>
      </trkpt>
      <trkpt lat="48.20448" lon="3.19333">
        <ele>178</ele>
        <time>2014-09-07T09:02:06.000Z</time>
      </trkpt>
      <trkpt lat="48.20446" lon="3.19329">
        <ele>178</ele>
        <time>2014-09-07T09:02:07.000Z</time>
      </trkpt>
      <trkpt lat="48.20444" lon="3.19324">
        <ele>178</ele>
        <time>2014-09-07T09:02:08.000Z</time>
      </trkpt>
      <trkpt lat="48.20441" lon="3.1932">
        <ele>178</ele>
        <time>2014-09-07T09:02:09.000Z</time>
      </trkpt>
      <trkpt lat="48.20439" lon="3.19316">
        <ele>179</ele>
        <time>2014-09-07T09:02:10.000Z</time>
      </trkpt>
      <trkpt lat="48.20437" lon="3.19309">
        <ele>178</ele>
        <time>2014-09-07T09:02:11.000Z</time>
      </trkpt>
      <trkpt lat="48.20435" lon="3.19305">
        <ele>178</ele>
        <time>2014-09-07T09:02:12.000Z</time>
      </trkpt>
      <trkpt lat="48.20433" lon="3.19301">
        <ele>178</ele>
        <time>2014-09-07T09:02:13.000Z</time>
      </trkpt>
      <trkpt lat="48.2043" lon="3.19299">
        <ele>178</ele>
        <time>2014-09-07T09:02:14.000Z</time>
      </trkpt>
      <trkpt lat="48.20427" lon="3.19294">
        <ele>178</ele>
        <time>2014-09-07T09:02:15.000Z</time>
      </trkpt>
      <trkpt lat="48.20424" lon="3.1929">
        <ele>178</ele>
        <time>2014-09-07T09:02:16.000Z</time>
      </trkpt>
      <trkpt lat="48.20422" lon="3.19286">
        <ele>178</ele>
        <time>2014-09-07T09:02:17.000Z</time>
      </trkpt>
      <trkpt lat="48.20419" lon="3.19282">
        <ele>178</ele>
        <time>2014-09-07T09:02:18.000Z</time>
      </trkpt>
      <trkpt lat="48.20417" lon="3.19277">
        <ele>180</ele>
        <time>2014-09-07T09:02:19.000Z</time>
      </trkpt>
      <trkpt lat="48.20415" lon="3.19275">
        <ele>180</ele>
        <time>2014-09-07T09:02:20.000Z</time>
      </trkpt>
      <trkpt lat="48.20412" lon="3.19271">
        <ele>180</ele>
        <time>2014-09-07T09:02:21.000Z</time>
      </trkpt>
      <trkpt lat="48.2041" lon="3.19267">
        <ele>180</ele>
        <time>2014-09-07T09:02:22.000Z</time>
      </trkpt>
      <trkpt lat="48.20408" lon="3.19262">
        <ele>180</ele>
        <time>2014-09-07T09:02:23.000Z</time>
      </trkpt>
      <trkpt lat="48.20405" lon="3.19258">
        <ele>180</ele>
        <time>2014-09-07T09:02:24.000Z</time>
      </trkpt>
      <trkpt lat="48.20402" lon="3.19256">
        <ele>180</ele>
        <time>2014-09-07T09:02:25.000Z</time>
      </trkpt>
      <trkpt lat="48.20398" lon="3.19252">
        <ele>180</ele>
        <time>2014-09-07T09:02:26.000Z</time>
      </trkpt>
      <trkpt lat="48.20395" lon="3.19249">
        <ele>180</ele>
        <time>2014-09-07T09:02:27.000Z</time>
      </trkpt>
      <trkpt lat="48.20392" lon="3.19247">
        <ele>180</ele>
        <time>2014-09-07T09:02:28.000Z</time>
      </trkpt>
      <trkpt lat="48.20389" lon="3.19243">
        <ele>180</ele>
        <time>2014-09-07T09:02:29.000Z</time>
      </trkpt>
      <trkpt lat="48.20385" lon="3.19241">
        <ele>180</ele>
        <time>2014-09-07T09:02:30.000Z</time>
      </trkpt>
      <trkpt lat="48.20381" lon="3.19239">
        <ele>181</ele>
        <time>2014-09-07T09:02:31.000Z</time>
      </trkpt>
      <trkpt lat="48.20378" lon="3.19237">
        <ele>181</ele>
        <time>2014-09-07T09:02:32.000Z</time>
      </trkpt>
      <trkpt lat="48.20375" lon="3.19234">
        <ele>181</ele>
        <time>2014-09-07T09:02:33.000Z</time>
      </trkpt>
      <trkpt lat="48.20371" lon="3.19232">
        <ele>181</ele>
        <time>2014-09-07T09:02:34.000Z</time>
      </trkpt>
      <trkpt lat="48.20367" lon="3.19228">
        <ele>181</ele>
        <time>2014-09-07T09:02:35.000Z</time>
      </trkpt>
      <trkpt lat="48.20364" lon="3.19226">
        <ele>181</ele>
        <time>2014-09-07T09:02:36.000Z</time>
      </trkpt>
      <trkpt lat="48.20361" lon="3.19221">
        <ele>181</ele>
        <time>2014-09-07T09:02:37.000Z</time>
      </trkpt>
      <trkpt lat="48.20358" lon="3.19219">
        <ele>181</ele>
        <time>2014-09-07T09:02:38.000Z</time>
      </trkpt>
      <trkpt lat="48.20354" lon="3.19215">
        <ele>181</ele>
        <time>2014-09-07T09:02:39.000Z</time>
      </trkpt>
      <trkpt lat="48.20351" lon="3.19211">
        <ele>181</ele>
        <time>2014-09-07T09:02:40.000Z</time>
      </trkpt>
      <trkpt lat="48.20349" lon="3.19206">
        <ele>181</ele>
        <time>2014-09-07T09:02:41.000Z</time>
      </trkpt>
      <trkpt lat="48.20346" lon="3.19202">
        <ele>181</ele>
        <time>2014-09-07T09:02:42.000Z</time>
      </trkpt>
      <trkpt lat="48.20344" lon="3.19198">
        <ele>181</ele>
        <time>2014-09-07T09:02:43.000Z</time>
      </trkpt>
      <trkpt lat="48.20341" lon="3.19194">
        <ele>182</ele>
        <time>2014-09-07T09:02:44.000Z</time>
      </trkpt>
      <trkpt lat="48.20337" lon="3.19189">
        <ele>182</ele>
        <time>2014-09-07T09:02:45.000Z</time>
      </trkpt>
      <trkpt lat="48.20334" lon="3.19183">
        <ele>182</ele>
        <time>2014-09-07T09:02:46.000Z</time>
      </trkpt>
      <trkpt lat="48.20331" lon="3.19179">
        <ele>183</ele>
        <time>2014-09-07T09:02:47.000Z</time>
      </trkpt>
      <trkpt lat="48.20327" lon="3.19174">
        <ele>183</ele>
        <time>2014-09-07T09:02:48.000Z</time>
      </trkpt>
      <trkpt lat="48.20322" lon="3.1917">
        <ele>183</ele>
        <time>2014-09-07T09:02:49.000Z</time>
      </trkpt>
      <trkpt lat="48.20318" lon="3.19166">
        <ele>183</ele>
        <time>2014-09-07T09:02:50.000Z</time>
      </trkpt>
      <trkpt lat="48.20315" lon="3.19161">
        <ele>183</ele>
        <time>2014-09-07T09:02:51.000Z</time>
      </trkpt>
      <trkpt lat="48.20313" lon="3.19155">
        <ele>183</ele>
        <time>2014-09-07T09:02:52.000Z</time>
      </trkpt>
      <trkpt lat="48.20309" lon="3.19151">
        <ele>183</ele>
        <time>2014-09-07T09:02:53.000Z</time>
      </trkpt>
      <trkpt lat="48.20307" lon="3.19146">
        <ele>183</ele>
        <time>2014-09-07T09:02:54.000Z</time>
      </trkpt>
      <trkpt lat="48.20305" lon="3.19142">
        <ele>183</ele>
        <time>2014-09-07T09:02:55.000Z</time>
      </trkpt>
      <trkpt lat="48.20302" lon="3.19138">
        <ele>183</ele>
        <time>2014-09-07T09:02:56.000Z</time>
      </trkpt>
      <trkpt lat="48.203" lon="3.19134">
        <ele>183</ele>
        <time>2014-09-07T09:02:57.000Z</time>
      </trkpt>
      <trkpt lat="48.20298" lon="3.19127">
        <ele>183</ele>
        <time>2014-09-07T09:02:58.000Z</time>
      </trkpt>
      <trkpt lat="48.20293" lon="3.19125">
        <ele>183</ele>
        <time>2014-09-07T09:02:59.000Z</time>
      </trkpt>
      <trkpt lat="48.2029" lon="3.19121">
        <ele>183</ele>
        <time>2014-09-07T09:03:00.000Z</time>
      </trkpt>
      <trkpt lat="48.20287" lon="3.19116">
        <ele>183</ele>
        <time>2014-09-07T09:03:01.000Z</time>
      </trkpt>
      <trkpt lat="48.20283" lon="3.19114">
        <ele>183</ele>
        <time>2014-09-07T09:03:02.000Z</time>
      </trkpt>
      <trkpt lat="48.20278" lon="3.1911">
        <ele>183</ele>
        <time>2014-09-07T09:03:03.000Z</time>
      </trkpt>
      <trkpt lat="48.20274" lon="3.19106">
        <ele>183</ele>
        <time>2014-09-07T09:03:04.000Z</time>
      </trkpt>
      <trkpt lat="48.2027" lon="3.19103">
        <ele>183</ele>
        <time>2014-09-07T09:03:05.000Z</time>
      </trkpt>
      <trkpt lat="48.20265" lon="3.19099">
        <ele>183</ele>
        <time>2014-09-07T09:03:06.000Z</time>
      </trkpt>
      <trkpt lat="48.20261" lon="3.19095">
        <ele>183</ele>
        <time>2014-09-07T09:03:07.000Z</time>
      </trkpt>
      <trkpt lat="48.20257" lon="3.19093">
        <ele>183</ele>
        <time>2014-09-07T09:03:08.000Z</time>
      </trkpt>
      <trkpt lat="48.20254" lon="3.19088">
        <ele>183</ele>
        <time>2014-09-07T09:03:09.000Z</time>
      </trkpt>
      <trkpt lat="48.20249" lon="3.19084">
        <ele>183</ele>
        <time>2014-09-07T09:03:10.000Z</time>
      </trkpt>
      <trkpt lat="48.20245" lon="3.19082">
        <ele>183</ele>
        <time>2014-09-07T09:03:11.000Z</time>
      </trkpt>
      <trkpt lat="48.20241" lon="3.19078">
        <ele>183</ele>
        <time>2014-09-07T09:03:12.000Z</time>
      </trkpt>
      <trkpt lat="48.20236" lon="3.19073">
        <ele>183</ele>
        <time>2014-09-07T09:03:13.000Z</time>
      </trkpt>
      <trkpt lat="48.20232" lon="3.19071">
        <ele>183</ele>
        <time>2014-09-07T09:03:14.000Z</time>
      </trkpt>
      <trkpt lat="48.20228" lon="3.19067">
        <ele>183</ele>
        <time>2014-09-07T09:03:15.000Z</time>
      </trkpt>
      <trkpt lat="48.20224" lon="3.19063">
        <ele>183</ele>
        <time>2014-09-07T09:03:16.000Z</time>
      </trkpt>
      <trkpt lat="48.2022" lon="3.19058">
        <ele>183</ele>
        <time>2014-09-07T09:03:17.000Z</time>
      </trkpt>
      <trkpt lat="48.20217" lon="3.19054">
        <ele>183</ele>
        <time>2014-09-07T09:03:18.000Z</time>
      </trkpt>
      <trkpt lat="48.20214" lon="3.1905">
        <ele>183</ele>
        <time>2014-09-07T09:03:19.000Z</time>
      </trkpt>
      <trkpt lat="48.20212" lon="3.19043">
        <ele>183</ele>
        <time>2014-09-07T09:03:20.000Z</time>
      </trkpt>
      <trkpt lat="48.2021" lon="3.19039">
        <ele>183</ele>
        <time>2014-09-07T09:03:21.000Z</time>
      </trkpt>
      <trkpt lat="48.20206" lon="3.19035">
        <ele>183</ele>
        <time>2014-09-07T09:03:22.000Z</time>
      </trkpt>
      <trkpt lat="48.20204" lon="3.19028">
        <ele>183</ele>
        <time>2014-09-07T09:03:23.000Z</time>
      </trkpt>
      <trkpt lat="48.20202" lon="3.19024">
        <ele>183</ele>
        <time>2014-09-07T09:03:24.000Z</time>
      </trkpt>
      <trkpt lat="48.20199" lon="3.19022">
        <ele>183</ele>
        <time>2014-09-07T09:03:25.000Z</time>
      </trkpt>
      <trkpt lat="48.20196" lon="3.19018">
        <ele>183</ele>
        <time>2014-09-07T09:03:26.000Z</time>
      </trkpt>
      <trkpt lat="48.20192" lon="3.19016">
        <ele>183</ele>
        <time>2014-09-07T09:03:27.000Z</time>
      </trkpt>
      <trkpt lat="48.20189" lon="3.19013">
        <ele>183</ele>
        <time>2014-09-07T09:03:28.000Z</time>
      </trkpt>
      <trkpt lat="48.20186" lon="3.19009">
        <ele>184</ele>
        <time>2014-09-07T09:03:29.000Z</time>
      </trkpt>
      <trkpt lat="48.20183" lon="3.19007">
        <ele>184</ele>
        <time>2014-09-07T09:03:30.000Z</time>
      </trkpt>
      <trkpt lat="48.2018" lon="3.19005">
        <ele>184</ele>
        <time>2014-09-07T09:03:31.000Z</time>
      </trkpt>
      <trkpt lat="48.20177" lon="3.19003">
        <ele>184</ele>
        <time>2014-09-07T09:03:32.000Z</time>
      </trkpt>
      <trkpt lat="48.20174" lon="3.19">
        <ele>184</ele>
        <time>2014-09-07T09:03:33.000Z</time>
      </trkpt>
      <trkpt lat="48.20171" lon="3.18998">
        <ele>184</ele>
        <time>2014-09-07T09:03:34.000Z</time>
      </trkpt>
      <trkpt lat="48.20169" lon="3.18996">
        <ele>184</ele>
        <time>2014-09-07T09:03:35.000Z</time>
      </trkpt>
      <trkpt lat="48.20166" lon="3.18994">
        <ele>184</ele>
        <time>2014-09-07T09:03:36.000Z</time>
      </trkpt>
      <trkpt lat="48.20162" lon="3.18992">
        <ele>184</ele>
        <time>2014-09-07T09:03:37.000Z</time>
      </trkpt>
      <trkpt lat="48.20159" lon="3.1899">
        <ele>184</ele>
        <time>2014-09-07T09:03:38.000Z</time>
      </trkpt>
      <trkpt lat="48.20156" lon="3.18988">
        <ele>184</ele>
        <time>2014-09-07T09:03:39.000Z</time>
      </trkpt>
      <trkpt lat="48.20152" lon="3.18985">
        <ele>184</ele>
        <time>2014-09-07T09:03:40.000Z</time>
      </trkpt>
      <trkpt lat="48.20148" lon="3.18983">
        <ele>184</ele>
        <time>2014-09-07T09:03:41.000Z</time>
      </trkpt>
      <trkpt lat="48.20145" lon="3.18979">
        <ele>184</ele>
        <time>2014-09-07T09:03:42.000Z</time>
      </trkpt>
      <trkpt lat="48.20142" lon="3.18977">
        <ele>184</ele>
        <time>2014-09-07T09:03:43.000Z</time>
      </trkpt>
      <trkpt lat="48.20139" lon="3.18975">
        <ele>184</ele>
        <time>2014-09-07T09:03:44.000Z</time>
      </trkpt>
      <trkpt lat="48.20136" lon="3.18973">
        <ele>184</ele>
        <time>2014-09-07T09:03:45.000Z</time>
      </trkpt>
      <trkpt lat="48.20132" lon="3.1897">
        <ele>184</ele>
        <time>2014-09-07T09:03:46.000Z</time>
      </trkpt>
      <trkpt lat="48.20129" lon="3.18968">
        <ele>184</ele>
        <time>2014-09-07T09:03:47.000Z</time>
      </trkpt>
      <trkpt lat="48.20127" lon="3.18968">
        <ele>184</ele>
        <time>2014-09-07T09:03:50.000Z</time>
      </trkpt>
      <trkpt lat="48.20123" lon="3.18966">
        <ele>184</ele>
        <time>2014-09-07T09:03:51.000Z</time>
      </trkpt>
      <trkpt lat="48.20123" lon="3.18966">
        <ele>184</ele>
        <time>2014-09-07T09:03:54.000Z</time>
      </trkpt>
      <trkpt lat="48.20117" lon="3.18962">
        <ele>184</ele>
        <time>2014-09-07T09:03:55.000Z</time>
      </trkpt>
      <trkpt lat="48.20117" lon="3.18962">
        <ele>184</ele>
        <time>2014-09-07T09:03:57.000Z</time>
      </trkpt>
      <trkpt lat="48.20112" lon="3.1896">
        <ele>184</ele>
        <time>2014-09-07T09:03:58.000Z</time>
      </trkpt>
      <trkpt lat="48.20108" lon="3.18958">
        <ele>184</ele>
        <time>2014-09-07T09:04:04.000Z</time>
      </trkpt>
      <trkpt lat="48.20102" lon="3.18953">
        <ele>184</ele>
        <time>2014-09-07T09:04:05.000Z</time>
      </trkpt>
      <trkpt lat="48.20098" lon="3.18951">
        <ele>184</ele>
        <time>2014-09-07T09:04:13.000Z</time>
      </trkpt>
      <trkpt lat="48.20094" lon="3.18947">
        <ele>184</ele>
        <time>2014-09-07T09:04:14.000Z</time>
      </trkpt>
      <trkpt lat="48.20094" lon="3.18947">
        <ele>184</ele>
        <time>2014-09-07T09:04:17.000Z</time>
      </trkpt>
      <trkpt lat="48.20088" lon="3.18945">
        <ele>184</ele>
        <time>2014-09-07T09:04:18.000Z</time>
      </trkpt>
      <trkpt lat="48.20088" lon="3.18945">
        <ele>184</ele>
        <time>2014-09-07T09:04:22.000Z</time>
      </trkpt>
      <trkpt lat="48.20083" lon="3.1894">
        <ele>184</ele>
        <time>2014-09-07T09:04:23.000Z</time>
      </trkpt>
      <trkpt lat="48.20083" lon="3.1894">
        <ele>184</ele>
        <time>2014-09-07T09:04:30.000Z</time>
      </trkpt>
      <trkpt lat="48.20073" lon="3.18934">
        <ele>184</ele>
        <time>2014-09-07T09:04:31.000Z</time>
      </trkpt>
      <trkpt lat="48.20073" lon="3.18934">
        <ele>184</ele>
        <time>2014-09-07T09:04:35.000Z</time>
      </trkpt>
      <trkpt lat="48.20068" lon="3.18932">
        <ele>184</ele>
        <time>2014-09-07T09:04:36.000Z</time>
      </trkpt>
      <trkpt lat="48.20068" lon="3.18932">
        <ele>184</ele>
        <time>2014-09-07T09:04:41.000Z</time>
      </trkpt>
      <trkpt lat="48.20063" lon="3.18928">
        <ele>184</ele>
        <time>2014-09-07T09:04:42.000Z</time>
      </trkpt>
      <trkpt lat="48.20063" lon="3.18928">
        <ele>184</ele>
        <time>2014-09-07T09:04:46.000Z</time>
      </trkpt>
      <trkpt lat="48.20057" lon="3.18925">
        <ele>184</ele>
        <time>2014-09-07T09:04:47.000Z</time>
      </trkpt>
      <trkpt lat="48.20057" lon="3.18925">
        <ele>184</ele>
        <time>2014-09-07T09:06:09.000Z</time>
      </trkpt>
      <trkpt lat="48.20047" lon="3.18934">
        <ele>183</ele>
        <time>2014-09-07T09:06:10.000Z</time>
      </trkpt>
      <trkpt lat="48.20043" lon="3.18936">
        <ele>183</ele>
        <time>2014-09-07T09:06:12.000Z</time>
      </trkpt>
      <trkpt lat="48.20035" lon="3.18945">
        <ele>183</ele>
        <time>2014-09-07T09:06:13.000Z</time>
      </trkpt>
      <trkpt lat="48.20029" lon="3.18947">
        <ele>183</ele>
        <time>2014-09-07T09:06:14.000Z</time>
      </trkpt>
      <trkpt lat="48.20025" lon="3.18951">
        <ele>183</ele>
        <time>2014-09-07T09:06:15.000Z</time>
      </trkpt>
      <trkpt lat="48.2002" lon="3.18953">
        <ele>183</ele>
        <time>2014-09-07T09:06:16.000Z</time>
      </trkpt>
      <trkpt lat="48.20017" lon="3.18958">
        <ele>183</ele>
        <time>2014-09-07T09:06:17.000Z</time>
      </trkpt>
      <trkpt lat="48.20012" lon="3.18962">
        <ele>183</ele>
        <time>2014-09-07T09:06:18.000Z</time>
      </trkpt>
      <trkpt lat="48.20008" lon="3.18964">
        <ele>183</ele>
        <time>2014-09-07T09:06:19.000Z</time>
      </trkpt>
      <trkpt lat="48.20005" lon="3.18966">
        <ele>183</ele>
        <time>2014-09-07T09:06:20.000Z</time>
      </trkpt>
      <trkpt lat="48.2" lon="3.1897">
        <ele>183</ele>
        <time>2014-09-07T09:06:21.000Z</time>
      </trkpt>
      <trkpt lat="48.19996" lon="3.18973">
        <ele>181</ele>
        <time>2014-09-07T09:06:22.000Z</time>
      </trkpt>
      <trkpt lat="48.19992" lon="3.18975">
        <ele>181</ele>
        <time>2014-09-07T09:06:23.000Z</time>
      </trkpt>
      <trkpt lat="48.19989" lon="3.18977">
        <ele>181</ele>
        <time>2014-09-07T09:06:24.000Z</time>
      </trkpt>
      <trkpt lat="48.19985" lon="3.18979">
        <ele>181</ele>
        <time>2014-09-07T09:06:25.000Z</time>
      </trkpt>
      <trkpt lat="48.19981" lon="3.18983">
        <ele>181</ele>
        <time>2014-09-07T09:06:26.000Z</time>
      </trkpt>
      <trkpt lat="48.19977" lon="3.18985">
        <ele>181</ele>
        <time>2014-09-07T09:06:27.000Z</time>
      </trkpt>
      <trkpt lat="48.19973" lon="3.18988">
        <ele>181</ele>
        <time>2014-09-07T09:06:28.000Z</time>
      </trkpt>
      <trkpt lat="48.19967" lon="3.18988">
        <ele>181</ele>
        <time>2014-09-07T09:06:29.000Z</time>
      </trkpt>
      <trkpt lat="48.19961" lon="3.1899">
        <ele>181</ele>
        <time>2014-09-07T09:06:30.000Z</time>
      </trkpt>
      <trkpt lat="48.19955" lon="3.18992">
        <ele>180</ele>
        <time>2014-09-07T09:06:31.000Z</time>
      </trkpt>
      <trkpt lat="48.1995" lon="3.18994">
        <ele>180</ele>
        <time>2014-09-07T09:06:32.000Z</time>
      </trkpt>
      <trkpt lat="48.19945" lon="3.18996">
        <ele>180</ele>
        <time>2014-09-07T09:06:33.000Z</time>
      </trkpt>
      <trkpt lat="48.19939" lon="3.18998">
        <ele>180</ele>
        <time>2014-09-07T09:06:34.000Z</time>
      </trkpt>
      <trkpt lat="48.19933" lon="3.19003">
        <ele>179</ele>
        <time>2014-09-07T09:06:35.000Z</time>
      </trkpt>
      <trkpt lat="48.19925" lon="3.19007">
        <ele>179</ele>
        <time>2014-09-07T09:06:36.000Z</time>
      </trkpt>
      <trkpt lat="48.19918" lon="3.19011">
        <ele>179</ele>
        <time>2014-09-07T09:06:37.000Z</time>
      </trkpt>
      <trkpt lat="48.19908" lon="3.19016">
        <ele>178</ele>
        <time>2014-09-07T09:06:38.000Z</time>
      </trkpt>
      <trkpt lat="48.19898" lon="3.1902">
        <ele>177</ele>
        <time>2014-09-07T09:06:39.000Z</time>
      </trkpt>
      <trkpt lat="48.19889" lon="3.19024">
        <ele>177</ele>
        <time>2014-09-07T09:06:40.000Z</time>
      </trkpt>
      <trkpt lat="48.19878" lon="3.19028">
        <ele>177</ele>
        <time>2014-09-07T09:06:41.000Z</time>
      </trkpt>
      <trkpt lat="48.19868" lon="3.19031">
        <ele>176</ele>
        <time>2014-09-07T09:06:42.000Z</time>
      </trkpt>
      <trkpt lat="48.19859" lon="3.19033">
        <ele>176</ele>
        <time>2014-09-07T09:06:43.000Z</time>
      </trkpt>
      <trkpt lat="48.19849" lon="3.19037">
        <ele>176</ele>
        <time>2014-09-07T09:06:44.000Z</time>
      </trkpt>
      <trkpt lat="48.19839" lon="3.19039">
        <ele>176</ele>
        <time>2014-09-07T09:06:45.000Z</time>
      </trkpt>
      <trkpt lat="48.1983" lon="3.19041">
        <ele>175</ele>
        <time>2014-09-07T09:06:46.000Z</time>
      </trkpt>
      <trkpt lat="48.19821" lon="3.19043">
        <ele>175</ele>
        <time>2014-09-07T09:06:47.000Z</time>
      </trkpt>
      <trkpt lat="48.19812" lon="3.19046">
        <ele>175</ele>
        <time>2014-09-07T09:06:48.000Z</time>
      </trkpt>
      <trkpt lat="48.19803" lon="3.19048">
        <ele>175</ele>
        <time>2014-09-07T09:06:49.000Z</time>
      </trkpt>
      <trkpt lat="48.19794" lon="3.1905">
        <ele>175</ele>
        <time>2014-09-07T09:06:50.000Z</time>
      </trkpt>
      <trkpt lat="48.19787" lon="3.19052">
        <ele>176</ele>
        <time>2014-09-07T09:06:51.000Z</time>
      </trkpt>
      <trkpt lat="48.19778" lon="3.19054">
        <ele>176</ele>
        <time>2014-09-07T09:06:52.000Z</time>
      </trkpt>
      <trkpt lat="48.1977" lon="3.19056">
        <ele>176</ele>
        <time>2014-09-07T09:06:53.000Z</time>
      </trkpt>
      <trkpt lat="48.19761" lon="3.19061">
        <ele>176</ele>
        <time>2014-09-07T09:06:54.000Z</time>
      </trkpt>
      <trkpt lat="48.19754" lon="3.19063">
        <ele>176</ele>
        <time>2014-09-07T09:06:55.000Z</time>
      </trkpt>
      <trkpt lat="48.19745" lon="3.19067">
        <ele>178</ele>
        <time>2014-09-07T09:06:56.000Z</time>
      </trkpt>
      <trkpt lat="48.19738" lon="3.19071">
        <ele>178</ele>
        <time>2014-09-07T09:06:57.000Z</time>
      </trkpt>
      <trkpt lat="48.1973" lon="3.19076">
        <ele>178</ele>
        <time>2014-09-07T09:06:58.000Z</time>
      </trkpt>
      <trkpt lat="48.19723" lon="3.1908">
        <ele>179</ele>
        <time>2014-09-07T09:06:59.000Z</time>
      </trkpt>
      <trkpt lat="48.19715" lon="3.19084">
        <ele>178</ele>
        <time>2014-09-07T09:07:00.000Z</time>
      </trkpt>
      <trkpt lat="48.19709" lon="3.19091">
        <ele>179</ele>
        <time>2014-09-07T09:07:01.000Z</time>
      </trkpt>
      <trkpt lat="48.19701" lon="3.19095">
        <ele>179</ele>
        <time>2014-09-07T09:07:02.000Z</time>
      </trkpt>
      <trkpt lat="48.19695" lon="3.19101">
        <ele>179</ele>
        <time>2014-09-07T09:07:03.000Z</time>
      </trkpt>
      <trkpt lat="48.19688" lon="3.19106">
        <ele>180</ele>
        <time>2014-09-07T09:07:04.000Z</time>
      </trkpt>
      <trkpt lat="48.19682" lon="3.19112">
        <ele>180</ele>
        <time>2014-09-07T09:07:05.000Z</time>
      </trkpt>
      <trkpt lat="48.19675" lon="3.19116">
        <ele>180</ele>
        <time>2014-09-07T09:07:06.000Z</time>
      </trkpt>
      <trkpt lat="48.19669" lon="3.19121">
        <ele>179</ele>
        <time>2014-09-07T09:07:07.000Z</time>
      </trkpt>
      <trkpt lat="48.19662" lon="3.19125">
        <ele>181</ele>
        <time>2014-09-07T09:07:08.000Z</time>
      </trkpt>
      <trkpt lat="48.19656" lon="3.19129">
        <ele>181</ele>
        <time>2014-09-07T09:07:09.000Z</time>
      </trkpt>
      <trkpt lat="48.1965" lon="3.19131">
        <ele>181</ele>
        <time>2014-09-07T09:07:10.000Z</time>
      </trkpt>
      <trkpt lat="48.19643" lon="3.19136">
        <ele>181</ele>
        <time>2014-09-07T09:07:11.000Z</time>
      </trkpt>
      <trkpt lat="48.19637" lon="3.19138">
        <ele>181</ele>
        <time>2014-09-07T09:07:12.000Z</time>
      </trkpt>
      <trkpt lat="48.1963" lon="3.1914">
        <ele>181</ele>
        <time>2014-09-07T09:07:13.000Z</time>
      </trkpt>
      <trkpt lat="48.19624" lon="3.19142">
        <ele>181</ele>
        <time>2014-09-07T09:07:14.000Z</time>
      </trkpt>
      <trkpt lat="48.19617" lon="3.19144">
        <ele>181</ele>
        <time>2014-09-07T09:07:15.000Z</time>
      </trkpt>
      <trkpt lat="48.19611" lon="3.19149">
        <ele>182</ele>
        <time>2014-09-07T09:07:16.000Z</time>
      </trkpt>
      <trkpt lat="48.19606" lon="3.19151">
        <ele>182</ele>
        <time>2014-09-07T09:07:17.000Z</time>
      </trkpt>
      <trkpt lat="48.196" lon="3.19153">
        <ele>182</ele>
        <time>2014-09-07T09:07:18.000Z</time>
      </trkpt>
      <trkpt lat="48.19594" lon="3.19157">
        <ele>182</ele>
        <time>2014-09-07T09:07:19.000Z</time>
      </trkpt>
      <trkpt lat="48.19588" lon="3.19159">
        <ele>182</ele>
        <time>2014-09-07T09:07:20.000Z</time>
      </trkpt>
      <trkpt lat="48.19583" lon="3.19161">
        <ele>182</ele>
        <time>2014-09-07T09:07:21.000Z</time>
      </trkpt>
      <trkpt lat="48.19578" lon="3.19166">
        <ele>182</ele>
        <time>2014-09-07T09:07:22.000Z</time>
      </trkpt>
      <trkpt lat="48.19572" lon="3.19168">
        <ele>182</ele>
        <time>2014-09-07T09:07:23.000Z</time>
      </trkpt>
      <trkpt lat="48.19566" lon="3.1917">
        <ele>182</ele>
        <time>2014-09-07T09:07:24.000Z</time>
      </trkpt>
      <trkpt lat="48.19561" lon="3.1917">
        <ele>182</ele>
        <time>2014-09-07T09:07:25.000Z</time>
      </trkpt>
      <trkpt lat="48.19555" lon="3.19172">
        <ele>182</ele>
        <time>2014-09-07T09:07:26.000Z</time>
      </trkpt>
      <trkpt lat="48.1955" lon="3.19174">
        <ele>182</ele>
        <time>2014-09-07T09:07:27.000Z</time>
      </trkpt>
      <trkpt lat="48.19544" lon="3.19174">
        <ele>182</ele>
        <time>2014-09-07T09:07:28.000Z</time>
      </trkpt>
      <trkpt lat="48.19539" lon="3.19176">
        <ele>182</ele>
        <time>2014-09-07T09:07:29.000Z</time>
      </trkpt>
      <trkpt lat="48.19534" lon="3.19179">
        <ele>182</ele>
        <time>2014-09-07T09:07:30.000Z</time>
      </trkpt>
      <trkpt lat="48.19527" lon="3.19179">
        <ele>183</ele>
        <time>2014-09-07T09:07:31.000Z</time>
      </trkpt>
      <trkpt lat="48.19522" lon="3.19181">
        <ele>183</ele>
        <time>2014-09-07T09:07:32.000Z</time>
      </trkpt>
      <trkpt lat="48.19517" lon="3.19181">
        <ele>183</ele>
        <time>2014-09-07T09:07:33.000Z</time>
      </trkpt>
      <trkpt lat="48.19511" lon="3.19183">
        <ele>183</ele>
        <time>2014-09-07T09:07:34.000Z</time>
      </trkpt>
      <trkpt lat="48.19506" lon="3.19183">
        <ele>183</ele>
        <time>2014-09-07T09:07:35.000Z</time>
      </trkpt>
      <trkpt lat="48.195" lon="3.19185">
        <ele>183</ele>
        <time>2014-09-07T09:07:36.000Z</time>
      </trkpt>
      <trkpt lat="48.19495" lon="3.19185">
        <ele>184</ele>
        <time>2014-09-07T09:07:37.000Z</time>
      </trkpt>
      <trkpt lat="48.1949" lon="3.19185">
        <ele>184</ele>
        <time>2014-09-07T09:07:38.000Z</time>
      </trkpt>
      <trkpt lat="48.19485" lon="3.19187">
        <ele>183</ele>
        <time>2014-09-07T09:07:39.000Z</time>
      </trkpt>
      <trkpt lat="48.1948" lon="3.19187">
        <ele>183</ele>
        <time>2014-09-07T09:07:40.000Z</time>
      </trkpt>
      <trkpt lat="48.19476" lon="3.19187">
        <ele>183</ele>
        <time>2014-09-07T09:07:41.000Z</time>
      </trkpt>
      <trkpt lat="48.1947" lon="3.19189">
        <ele>183</ele>
        <time>2014-09-07T09:07:42.000Z</time>
      </trkpt>
      <trkpt lat="48.19466" lon="3.19189">
        <ele>183</ele>
        <time>2014-09-07T09:07:43.000Z</time>
      </trkpt>
      <trkpt lat="48.19461" lon="3.19189">
        <ele>183</ele>
        <time>2014-09-07T09:07:44.000Z</time>
      </trkpt>
      <trkpt lat="48.19456" lon="3.19189">
        <ele>183</ele>
        <time>2014-09-07T09:07:45.000Z</time>
      </trkpt>
      <trkpt lat="48.19451" lon="3.19189">
        <ele>183</ele>
        <time>2014-09-07T09:07:46.000Z</time>
      </trkpt>
      <trkpt lat="48.19446" lon="3.19189">
        <ele>183</ele>
        <time>2014-09-07T09:07:47.000Z</time>
      </trkpt>
      <trkpt lat="48.1944" lon="3.19191">
        <ele>183</ele>
        <time>2014-09-07T09:07:48.000Z</time>
      </trkpt>
      <trkpt lat="48.19435" lon="3.19189">
        <ele>183</ele>
        <time>2014-09-07T09:07:49.000Z</time>
      </trkpt>
      <trkpt lat="48.19431" lon="3.19189">
        <ele>184</ele>
        <time>2014-09-07T09:07:50.000Z</time>
      </trkpt>
      <trkpt lat="48.19425" lon="3.19189">
        <ele>184</ele>
        <time>2014-09-07T09:07:51.000Z</time>
      </trkpt>
      <trkpt lat="48.1942" lon="3.19185">
        <ele>184</ele>
        <time>2014-09-07T09:07:52.000Z</time>
      </trkpt>
      <trkpt lat="48.19416" lon="3.19183">
        <ele>184</ele>
        <time>2014-09-07T09:07:53.000Z</time>
      </trkpt>
      <trkpt lat="48.19412" lon="3.19179">
        <ele>184</ele>
        <time>2014-09-07T09:07:54.000Z</time>
      </trkpt>
      <trkpt lat="48.19408" lon="3.19176">
        <ele>184</ele>
        <time>2014-09-07T09:07:55.000Z</time>
      </trkpt>
      <trkpt lat="48.19404" lon="3.19172">
        <ele>184</ele>
        <time>2014-09-07T09:07:56.000Z</time>
      </trkpt>
      <trkpt lat="48.19401" lon="3.19168">
        <ele>184</ele>
        <time>2014-09-07T09:07:57.000Z</time>
      </trkpt>
      <trkpt lat="48.19396" lon="3.19164">
        <ele>186</ele>
        <time>2014-09-07T09:07:58.000Z</time>
      </trkpt>
      <trkpt lat="48.19392" lon="3.19159">
        <ele>186</ele>
        <time>2014-09-07T09:07:59.000Z</time>
      </trkpt>
      <trkpt lat="48.19389" lon="3.19155">
        <ele>186</ele>
        <time>2014-09-07T09:08:00.000Z</time>
      </trkpt>
      <trkpt lat="48.19385" lon="3.19151">
        <ele>186</ele>
        <time>2014-09-07T09:08:01.000Z</time>
      </trkpt>
      <trkpt lat="48.1938" lon="3.19146">
        <ele>185</ele>
        <time>2014-09-07T09:08:02.000Z</time>
      </trkpt>
      <trkpt lat="48.19376" lon="3.19142">
        <ele>185</ele>
        <time>2014-09-07T09:08:03.000Z</time>
      </trkpt>
      <trkpt lat="48.19372" lon="3.1914">
        <ele>185</ele>
        <time>2014-09-07T09:08:04.000Z</time>
      </trkpt>
      <trkpt lat="48.19368" lon="3.19136">
        <ele>185</ele>
        <time>2014-09-07T09:08:05.000Z</time>
      </trkpt>
      <trkpt lat="48.19364" lon="3.19131">
        <ele>185</ele>
        <time>2014-09-07T09:08:06.000Z</time>
      </trkpt>
      <trkpt lat="48.1936" lon="3.19127">
        <ele>185</ele>
        <time>2014-09-07T09:08:07.000Z</time>
      </trkpt>
      <trkpt lat="48.19357" lon="3.19125">
        <ele>185</ele>
        <time>2014-09-07T09:08:08.000Z</time>
      </trkpt>
      <trkpt lat="48.19352" lon="3.19121">
        <ele>185</ele>
        <time>2014-09-07T09:08:09.000Z</time>
      </trkpt>
      <trkpt lat="48.19349" lon="3.19116">
        <ele>185</ele>
        <time>2014-09-07T09:08:10.000Z</time>
      </trkpt>
      <trkpt lat="48.19345" lon="3.19112">
        <ele>186</ele>
        <time>2014-09-07T09:08:11.000Z</time>
      </trkpt>
      <trkpt lat="48.19342" lon="3.1911">
        <ele>186</ele>
        <time>2014-09-07T09:08:12.000Z</time>
      </trkpt>
      <trkpt lat="48.19338" lon="3.19106">
        <ele>186</ele>
        <time>2014-09-07T09:08:13.000Z</time>
      </trkpt>
      <trkpt lat="48.19335" lon="3.19101">
        <ele>186</ele>
        <time>2014-09-07T09:08:14.000Z</time>
      </trkpt>
      <trkpt lat="48.19332" lon="3.19097">
        <ele>185</ele>
        <time>2014-09-07T09:08:15.000Z</time>
      </trkpt>
      <trkpt lat="48.19329" lon="3.19093">
        <ele>185</ele>
        <time>2014-09-07T09:08:16.000Z</time>
      </trkpt>
      <trkpt lat="48.19326" lon="3.19088">
        <ele>185</ele>
        <time>2014-09-07T09:08:17.000Z</time>
      </trkpt>
      <trkpt lat="48.19321" lon="3.19084">
        <ele>185</ele>
        <time>2014-09-07T09:08:18.000Z</time>
      </trkpt>
      <trkpt lat="48.19318" lon="3.19078">
        <ele>185</ele>
        <time>2014-09-07T09:08:19.000Z</time>
      </trkpt>
      <trkpt lat="48.19315" lon="3.19073">
        <ele>185</ele>
        <time>2014-09-07T09:08:20.000Z</time>
      </trkpt>
      <trkpt lat="48.19311" lon="3.19067">
        <ele>185</ele>
        <time>2014-09-07T09:08:21.000Z</time>
      </trkpt>
      <trkpt lat="48.19307" lon="3.19063">
        <ele>185</ele>
        <time>2014-09-07T09:08:24.000Z</time>
      </trkpt>
      <trkpt lat="48.19305" lon="3.19056">
        <ele>185</ele>
        <time>2014-09-07T09:08:25.000Z</time>
      </trkpt>
      <trkpt lat="48.19306" lon="3.1905">
        <ele>185</ele>
        <time>2014-09-07T09:08:27.000Z</time>
      </trkpt>
      <trkpt lat="48.19308" lon="3.19046">
        <ele>185</ele>
        <time>2014-09-07T09:08:28.000Z</time>
      </trkpt>
      <trkpt lat="48.19311" lon="3.19043">
        <ele>185</ele>
        <time>2014-09-07T09:08:29.000Z</time>
      </trkpt>
      <trkpt lat="48.19313" lon="3.19039">
        <ele>185</ele>
        <time>2014-09-07T09:08:30.000Z</time>
      </trkpt>
      <trkpt lat="48.19314" lon="3.19033">
        <ele>185</ele>
        <time>2014-09-07T09:08:31.000Z</time>
      </trkpt>
      <trkpt lat="48.19317" lon="3.19028">
        <ele>185</ele>
        <time>2014-09-07T09:08:32.000Z</time>
      </trkpt>
      <trkpt lat="48.19319" lon="3.19024">
        <ele>185</ele>
        <time>2014-09-07T09:08:33.000Z</time>
      </trkpt>
      <trkpt lat="48.19321" lon="3.19018">
        <ele>185</ele>
        <time>2014-09-07T09:08:34.000Z</time>
      </trkpt>
      <trkpt lat="48.19322" lon="3.19013">
        <ele>185</ele>
        <time>2014-09-07T09:08:35.000Z</time>
      </trkpt>
      <trkpt lat="48.19324" lon="3.19007">
        <ele>185</ele>
        <time>2014-09-07T09:08:36.000Z</time>
      </trkpt>
      <trkpt lat="48.19326" lon="3.19003">
        <ele>186</ele>
        <time>2014-09-07T09:08:37.000Z</time>
      </trkpt>
      <trkpt lat="48.19328" lon="3.18996">
        <ele>186</ele>
        <time>2014-09-07T09:08:38.000Z</time>
      </trkpt>
      <trkpt lat="48.19329" lon="3.18992">
        <ele>186</ele>
        <time>2014-09-07T09:08:39.000Z</time>
      </trkpt>
      <trkpt lat="48.1933" lon="3.18988">
        <ele>186</ele>
        <time>2014-09-07T09:08:40.000Z</time>
      </trkpt>
      <trkpt lat="48.19332" lon="3.18981">
        <ele>186</ele>
        <time>2014-09-07T09:08:41.000Z</time>
      </trkpt>
      <trkpt lat="48.19333" lon="3.18977">
        <ele>186</ele>
        <time>2014-09-07T09:08:42.000Z</time>
      </trkpt>
      <trkpt lat="48.19334" lon="3.1897">
        <ele>186</ele>
        <time>2014-09-07T09:08:43.000Z</time>
      </trkpt>
      <trkpt lat="48.19335" lon="3.18964">
        <ele>186</ele>
        <time>2014-09-07T09:08:44.000Z</time>
      </trkpt>
      <trkpt lat="48.19336" lon="3.1896">
        <ele>186</ele>
        <time>2014-09-07T09:08:45.000Z</time>
      </trkpt>
      <trkpt lat="48.19337" lon="3.18953">
        <ele>186</ele>
        <time>2014-09-07T09:08:46.000Z</time>
      </trkpt>
      <trkpt lat="48.19338" lon="3.18947">
        <ele>186</ele>
        <time>2014-09-07T09:08:47.000Z</time>
      </trkpt>
      <trkpt lat="48.19338" lon="3.18943">
        <ele>186</ele>
        <time>2014-09-07T09:08:48.000Z</time>
      </trkpt>
      <trkpt lat="48.1934" lon="3.18936">
        <ele>186</ele>
        <time>2014-09-07T09:08:49.000Z</time>
      </trkpt>
      <trkpt lat="48.19342" lon="3.18932">
        <ele>186</ele>
        <time>2014-09-07T09:08:50.000Z</time>
      </trkpt>
      <trkpt lat="48.19343" lon="3.18928">
        <ele>186</ele>
        <time>2014-09-07T09:08:51.000Z</time>
      </trkpt>
      <trkpt lat="48.19345" lon="3.18923">
        <ele>186</ele>
        <time>2014-09-07T09:08:52.000Z</time>
      </trkpt>
      <trkpt lat="48.19347" lon="3.18919">
        <ele>186</ele>
        <time>2014-09-07T09:08:53.000Z</time>
      </trkpt>
      <trkpt lat="48.19348" lon="3.18915">
        <ele>186</ele>
        <time>2014-09-07T09:08:54.000Z</time>
      </trkpt>
      <trkpt lat="48.19349" lon="3.1891">
        <ele>186</ele>
        <time>2014-09-07T09:08:55.000Z</time>
      </trkpt>
      <trkpt lat="48.1935" lon="3.18906">
        <ele>186</ele>
        <time>2014-09-07T09:08:56.000Z</time>
      </trkpt>
      <trkpt lat="48.19351" lon="3.189">
        <ele>186</ele>
        <time>2014-09-07T09:08:57.000Z</time>
      </trkpt>
      <trkpt lat="48.19351" lon="3.18895">
        <ele>186</ele>
        <time>2014-09-07T09:08:58.000Z</time>
      </trkpt>
      <trkpt lat="48.19351" lon="3.18891">
        <ele>186</ele>
        <time>2014-09-07T09:08:59.000Z</time>
      </trkpt>
      <trkpt lat="48.19351" lon="3.18887">
        <ele>186</ele>
        <time>2014-09-07T09:09:00.000Z</time>
      </trkpt>
      <trkpt lat="48.19352" lon="3.18882">
        <ele>186</ele>
        <time>2014-09-07T09:09:01.000Z</time>
      </trkpt>
      <trkpt lat="48.19353" lon="3.18876">
        <ele>186</ele>
        <time>2014-09-07T09:09:03.000Z</time>
      </trkpt>
      <trkpt lat="48.19353" lon="3.18872">
        <ele>186</ele>
        <time>2014-09-07T09:09:04.000Z</time>
      </trkpt>
      <trkpt lat="48.19355" lon="3.18867">
        <ele>186</ele>
        <time>2014-09-07T09:09:05.000Z</time>
      </trkpt>
      <trkpt lat="48.19355" lon="3.18863">
        <ele>186</ele>
        <time>2014-09-07T09:09:06.000Z</time>
      </trkpt>
      <trkpt lat="48.19356" lon="3.18859">
        <ele>186</ele>
        <time>2014-09-07T09:09:07.000Z</time>
      </trkpt>
      <trkpt lat="48.19357" lon="3.18855">
        <ele>186</ele>
        <time>2014-09-07T09:09:08.000Z</time>
      </trkpt>
      <trkpt lat="48.19358" lon="3.18848">
        <ele>186</ele>
        <time>2014-09-07T09:09:09.000Z</time>
      </trkpt>
      <trkpt lat="48.19358" lon="3.18844">
        <ele>187</ele>
        <time>2014-09-07T09:09:10.000Z</time>
      </trkpt>
      <trkpt lat="48.19359" lon="3.1884">
        <ele>187</ele>
        <time>2014-09-07T09:09:11.000Z</time>
      </trkpt>
      <trkpt lat="48.1936" lon="3.18835">
        <ele>187</ele>
        <time>2014-09-07T09:09:12.000Z</time>
      </trkpt>
      <trkpt lat="48.19361" lon="3.18831">
        <ele>187</ele>
        <time>2014-09-07T09:09:13.000Z</time>
      </trkpt>
      <trkpt lat="48.19361" lon="3.18827">
        <ele>187</ele>
        <time>2014-09-07T09:09:14.000Z</time>
      </trkpt>
      <trkpt lat="48.19362" lon="3.1882">
        <ele>187</ele>
        <time>2014-09-07T09:09:15.000Z</time>
      </trkpt>
      <trkpt lat="48.19362" lon="3.18816">
        <ele>188</ele>
        <time>2014-09-07T09:09:16.000Z</time>
      </trkpt>
      <trkpt lat="48.19362" lon="3.1881">
        <ele>188</ele>
        <time>2014-09-07T09:09:17.000Z</time>
      </trkpt>
      <trkpt lat="48.19362" lon="3.18805">
        <ele>188</ele>
        <time>2014-09-07T09:09:18.000Z</time>
      </trkpt>
      <trkpt lat="48.19364" lon="3.18801">
        <ele>188</ele>
        <time>2014-09-07T09:09:19.000Z</time>
      </trkpt>
      <trkpt lat="48.19365" lon="3.18794">
        <ele>188</ele>
        <time>2014-09-07T09:09:20.000Z</time>
      </trkpt>
      <trkpt lat="48.19367" lon="3.1879">
        <ele>188</ele>
        <time>2014-09-07T09:09:21.000Z</time>
      </trkpt>
      <trkpt lat="48.1937" lon="3.18786">
        <ele>188</ele>
        <time>2014-09-07T09:09:22.000Z</time>
      </trkpt>
      <trkpt lat="48.19371" lon="3.18779">
        <ele>188</ele>
        <time>2014-09-07T09:09:23.000Z</time>
      </trkpt>
      <trkpt lat="48.19373" lon="3.18773">
        <ele>188</ele>
        <time>2014-09-07T09:09:24.000Z</time>
      </trkpt>
      <trkpt lat="48.19374" lon="3.18767">
        <ele>188</ele>
        <time>2014-09-07T09:09:25.000Z</time>
      </trkpt>
      <trkpt lat="48.19375" lon="3.18758">
        <ele>188</ele>
        <time>2014-09-07T09:09:26.000Z</time>
      </trkpt>
      <trkpt lat="48.19376" lon="3.18752">
        <ele>188</ele>
        <time>2014-09-07T09:09:27.000Z</time>
      </trkpt>
      <trkpt lat="48.19376" lon="3.18743">
        <ele>188</ele>
        <time>2014-09-07T09:09:28.000Z</time>
      </trkpt>
      <trkpt lat="48.19377" lon="3.18734">
        <ele>188</ele>
        <time>2014-09-07T09:09:29.000Z</time>
      </trkpt>
      <trkpt lat="48.19378" lon="3.18726">
        <ele>188</ele>
        <time>2014-09-07T09:09:30.000Z</time>
      </trkpt>
      <trkpt lat="48.19379" lon="3.18717">
        <ele>188</ele>
        <time>2014-09-07T09:09:31.000Z</time>
      </trkpt>
      <trkpt lat="48.19379" lon="3.18711">
        <ele>188</ele>
        <time>2014-09-07T09:09:32.000Z</time>
      </trkpt>
      <trkpt lat="48.1938" lon="3.18702">
        <ele>188</ele>
        <time>2014-09-07T09:09:33.000Z</time>
      </trkpt>
      <trkpt lat="48.19381" lon="3.18694">
        <ele>188</ele>
        <time>2014-09-07T09:09:34.000Z</time>
      </trkpt>
      <trkpt lat="48.19382" lon="3.18687">
        <ele>188</ele>
        <time>2014-09-07T09:09:35.000Z</time>
      </trkpt>
      <trkpt lat="48.19384" lon="3.18681">
        <ele>188</ele>
        <time>2014-09-07T09:09:36.000Z</time>
      </trkpt>
      <trkpt lat="48.19385" lon="3.18674">
        <ele>188</ele>
        <time>2014-09-07T09:09:37.000Z</time>
      </trkpt>
      <trkpt lat="48.19386" lon="3.18668">
        <ele>188</ele>
        <time>2014-09-07T09:09:38.000Z</time>
      </trkpt>
      <trkpt lat="48.19387" lon="3.18661">
        <ele>187</ele>
        <time>2014-09-07T09:09:39.000Z</time>
      </trkpt>
      <trkpt lat="48.19388" lon="3.18655">
        <ele>187</ele>
        <time>2014-09-07T09:09:40.000Z</time>
      </trkpt>
      <trkpt lat="48.19389" lon="3.18649">
        <ele>187</ele>
        <time>2014-09-07T09:09:41.000Z</time>
      </trkpt>
      <trkpt lat="48.1939" lon="3.18642">
        <ele>187</ele>
        <time>2014-09-07T09:09:42.000Z</time>
      </trkpt>
      <trkpt lat="48.19391" lon="3.18638">
        <ele>187</ele>
        <time>2014-09-07T09:09:43.000Z</time>
      </trkpt>
      <trkpt lat="48.19392" lon="3.18631">
        <ele>187</ele>
        <time>2014-09-07T09:09:44.000Z</time>
      </trkpt>
      <trkpt lat="48.19393" lon="3.18625">
        <ele>186</ele>
        <time>2014-09-07T09:09:45.000Z</time>
      </trkpt>
      <trkpt lat="48.19394" lon="3.18621">
        <ele>186</ele>
        <time>2014-09-07T09:09:46.000Z</time>
      </trkpt>
      <trkpt lat="48.19395" lon="3.18614">
        <ele>186</ele>
        <time>2014-09-07T09:09:47.000Z</time>
      </trkpt>
      <trkpt lat="48.19396" lon="3.1861">
        <ele>186</ele>
        <time>2014-09-07T09:09:48.000Z</time>
      </trkpt>
      <trkpt lat="48.19397" lon="3.18606">
        <ele>186</ele>
        <time>2014-09-07T09:09:49.000Z</time>
      </trkpt>
      <trkpt lat="48.19399" lon="3.18599">
        <ele>186</ele>
        <time>2014-09-07T09:09:50.000Z</time>
      </trkpt>
      <trkpt lat="48.19399" lon="3.18599">
        <ele>186</ele>
        <time>2014-09-07T09:09:53.000Z</time>
      </trkpt>
      <trkpt lat="48.19399" lon="3.18584">
        <ele>185</ele>
        <time>2014-09-07T09:09:54.000Z</time>
      </trkpt>
      <trkpt lat="48.19399" lon="3.18584">
        <ele>185</ele>
        <time>2014-09-07T09:09:57.000Z</time>
      </trkpt>
      <trkpt lat="48.19397" lon="3.18569">
        <ele>185</ele>
        <time>2014-09-07T09:09:58.000Z</time>
      </trkpt>
      <trkpt lat="48.19397" lon="3.18569">
        <ele>185</ele>
        <time>2014-09-07T09:10:01.000Z</time>
      </trkpt>
      <trkpt lat="48.19391" lon="3.18561">
        <ele>185</ele>
        <time>2014-09-07T09:10:02.000Z</time>
      </trkpt>
      <trkpt lat="48.19391" lon="3.18561">
        <ele>185</ele>
        <time>2014-09-07T09:10:05.000Z</time>
      </trkpt>
      <trkpt lat="48.19382" lon="3.1855">
        <ele>185</ele>
        <time>2014-09-07T09:10:06.000Z</time>
      </trkpt>
      <trkpt lat="48.19382" lon="3.1855">
        <ele>185</ele>
        <time>2014-09-07T09:10:09.000Z</time>
      </trkpt>
      <trkpt lat="48.19374" lon="3.18541">
        <ele>185</ele>
        <time>2014-09-07T09:10:10.000Z</time>
      </trkpt>
      <trkpt lat="48.19374" lon="3.18541">
        <ele>185</ele>
        <time>2014-09-07T09:10:13.000Z</time>
      </trkpt>
      <trkpt lat="48.19364" lon="3.18533">
        <ele>185</ele>
        <time>2014-09-07T09:10:14.000Z</time>
      </trkpt>
      <trkpt lat="48.19364" lon="3.18533">
        <ele>185</ele>
        <time>2014-09-07T09:10:16.000Z</time>
      </trkpt>
      <trkpt lat="48.19357" lon="3.18526">
        <ele>186</ele>
        <time>2014-09-07T09:10:17.000Z</time>
      </trkpt>
      <trkpt lat="48.19357" lon="3.18526">
        <ele>186</ele>
        <time>2014-09-07T09:10:19.000Z</time>
      </trkpt>
      <trkpt lat="48.19349" lon="3.18518">
        <ele>186</ele>
        <time>2014-09-07T09:10:20.000Z</time>
      </trkpt>
      <trkpt lat="48.19349" lon="3.18518">
        <ele>186</ele>
        <time>2014-09-07T09:10:23.000Z</time>
      </trkpt>
      <trkpt lat="48.19341" lon="3.18507">
        <ele>186</ele>
        <time>2014-09-07T09:10:24.000Z</time>
      </trkpt>
      <trkpt lat="48.19341" lon="3.18507">
        <ele>186</ele>
        <time>2014-09-07T09:10:28.000Z</time>
      </trkpt>
      <trkpt lat="48.19333" lon="3.18496">
        <ele>187</ele>
        <time>2014-09-07T09:10:29.000Z</time>
      </trkpt>
      <trkpt lat="48.19333" lon="3.18496">
        <ele>187</ele>
        <time>2014-09-07T09:10:32.000Z</time>
      </trkpt>
      <trkpt lat="48.19334" lon="3.18481">
        <ele>187</ele>
        <time>2014-09-07T09:10:33.000Z</time>
      </trkpt>
      <trkpt lat="48.19334" lon="3.18475">
        <ele>186</ele>
        <time>2014-09-07T09:10:35.000Z</time>
      </trkpt>
      <trkpt lat="48.19335" lon="3.18466">
        <ele>186</ele>
        <time>2014-09-07T09:10:36.000Z</time>
      </trkpt>
      <trkpt lat="48.19336" lon="3.1846">
        <ele>187</ele>
        <time>2014-09-07T09:10:37.000Z</time>
      </trkpt>
      <trkpt lat="48.19337" lon="3.18455">
        <ele>187</ele>
        <time>2014-09-07T09:10:38.000Z</time>
      </trkpt>
      <trkpt lat="48.19338" lon="3.18449">
        <ele>187</ele>
        <time>2014-09-07T09:10:39.000Z</time>
      </trkpt>
      <trkpt lat="48.1934" lon="3.18443">
        <ele>187</ele>
        <time>2014-09-07T09:10:40.000Z</time>
      </trkpt>
      <trkpt lat="48.19341" lon="3.18436">
        <ele>187</ele>
        <time>2014-09-07T09:10:41.000Z</time>
      </trkpt>
      <trkpt lat="48.19342" lon="3.18428">
        <ele>188</ele>
        <time>2014-09-07T09:10:42.000Z</time>
      </trkpt>
      <trkpt lat="48.19343" lon="3.18421">
        <ele>188</ele>
        <time>2014-09-07T09:10:43.000Z</time>
      </trkpt>
      <trkpt lat="48.19344" lon="3.18415">
        <ele>188</ele>
        <time>2014-09-07T09:10:44.000Z</time>
      </trkpt>
      <trkpt lat="48.19345" lon="3.18408">
        <ele>188</ele>
        <time>2014-09-07T09:10:45.000Z</time>
      </trkpt>
      <trkpt lat="48.19347" lon="3.184">
        <ele>188</ele>
        <time>2014-09-07T09:10:46.000Z</time>
      </trkpt>
      <trkpt lat="48.19348" lon="3.18391">
        <ele>188</ele>
        <time>2014-09-07T09:10:47.000Z</time>
      </trkpt>
      <trkpt lat="48.19349" lon="3.18383">
        <ele>188</ele>
        <time>2014-09-07T09:10:48.000Z</time>
      </trkpt>
      <trkpt lat="48.1935" lon="3.18374">
        <ele>188</ele>
        <time>2014-09-07T09:10:49.000Z</time>
      </trkpt>
      <trkpt lat="48.19352" lon="3.18363">
        <ele>188</ele>
        <time>2014-09-07T09:10:50.000Z</time>
      </trkpt>
      <trkpt lat="48.19353" lon="3.18352">
        <ele>188</ele>
        <time>2014-09-07T09:10:51.000Z</time>
      </trkpt>
      <trkpt lat="48.19356" lon="3.18342">
        <ele>188</ele>
        <time>2014-09-07T09:10:52.000Z</time>
      </trkpt>
      <trkpt lat="48.19358" lon="3.18331">
        <ele>187</ele>
        <time>2014-09-07T09:10:53.000Z</time>
      </trkpt>
      <trkpt lat="48.19359" lon="3.1832">
        <ele>187</ele>
        <time>2014-09-07T09:10:54.000Z</time>
      </trkpt>
      <trkpt lat="48.19362" lon="3.18307">
        <ele>187</ele>
        <time>2014-09-07T09:10:55.000Z</time>
      </trkpt>
      <trkpt lat="48.19365" lon="3.18295">
        <ele>186</ele>
        <time>2014-09-07T09:10:56.000Z</time>
      </trkpt>
      <trkpt lat="48.19368" lon="3.18282">
        <ele>186</ele>
        <time>2014-09-07T09:10:57.000Z</time>
      </trkpt>
      <trkpt lat="48.19371" lon="3.18269">
        <ele>186</ele>
        <time>2014-09-07T09:10:58.000Z</time>
      </trkpt>
      <trkpt lat="48.19374" lon="3.18256">
        <ele>186</ele>
        <time>2014-09-07T09:10:59.000Z</time>
      </trkpt>
      <trkpt lat="48.19377" lon="3.18241">
        <ele>183</ele>
        <time>2014-09-07T09:11:00.000Z</time>
      </trkpt>
      <trkpt lat="48.1938" lon="3.18226">
        <ele>182</ele>
        <time>2014-09-07T09:11:01.000Z</time>
      </trkpt>
      <trkpt lat="48.19384" lon="3.18209">
        <ele>181</ele>
        <time>2014-09-07T09:11:02.000Z</time>
      </trkpt>
      <trkpt lat="48.19387" lon="3.18194">
        <ele>181</ele>
        <time>2014-09-07T09:11:03.000Z</time>
      </trkpt>
      <trkpt lat="48.19389" lon="3.18179">
        <ele>180</ele>
        <time>2014-09-07T09:11:04.000Z</time>
      </trkpt>
      <trkpt lat="48.19392" lon="3.18164">
        <ele>178</ele>
        <time>2014-09-07T09:11:05.000Z</time>
      </trkpt>
      <trkpt lat="48.19394" lon="3.18151">
        <ele>178</ele>
        <time>2014-09-07T09:11:06.000Z</time>
      </trkpt>
      <trkpt lat="48.19396" lon="3.18138">
        <ele>178</ele>
        <time>2014-09-07T09:11:07.000Z</time>
      </trkpt>
      <trkpt lat="48.19399" lon="3.18129">
        <ele>178</ele>
        <time>2014-09-07T09:11:08.000Z</time>
      </trkpt>
      <trkpt lat="48.194" lon="3.18119">
        <ele>178</ele>
        <time>2014-09-07T09:11:09.000Z</time>
      </trkpt>
      <trkpt lat="48.19401" lon="3.1811">
        <ele>178</ele>
        <time>2014-09-07T09:11:10.000Z</time>
      </trkpt>
      <trkpt lat="48.19402" lon="3.18101">
        <ele>178</ele>
        <time>2014-09-07T09:11:11.000Z</time>
      </trkpt>
      <trkpt lat="48.19403" lon="3.18095">
        <ele>178</ele>
        <time>2014-09-07T09:11:12.000Z</time>
      </trkpt>
      <trkpt lat="48.19404" lon="3.18089">
        <ele>177</ele>
        <time>2014-09-07T09:11:13.000Z</time>
      </trkpt>
      <trkpt lat="48.19405" lon="3.18078">
        <ele>179</ele>
        <time>2014-09-07T09:11:14.000Z</time>
      </trkpt>
      <trkpt lat="48.19406" lon="3.18069">
        <ele>179</ele>
        <time>2014-09-07T09:11:15.000Z</time>
      </trkpt>
      <trkpt lat="48.19407" lon="3.18061">
        <ele>180</ele>
        <time>2014-09-07T09:11:16.000Z</time>
      </trkpt>
      <trkpt lat="48.19409" lon="3.1805">
        <ele>180</ele>
        <time>2014-09-07T09:11:17.000Z</time>
      </trkpt>
      <trkpt lat="48.1941" lon="3.18041">
        <ele>181</ele>
        <time>2014-09-07T09:11:18.000Z</time>
      </trkpt>
      <trkpt lat="48.19412" lon="3.18031">
        <ele>181</ele>
        <time>2014-09-07T09:11:19.000Z</time>
      </trkpt>
      <trkpt lat="48.19416" lon="3.18022">
        <ele>181</ele>
        <time>2014-09-07T09:11:20.000Z</time>
      </trkpt>
      <trkpt lat="48.19418" lon="3.18011">
        <ele>179</ele>
        <time>2014-09-07T09:11:21.000Z</time>
      </trkpt>
      <trkpt lat="48.1942" lon="3.18001">
        <ele>180</ele>
        <time>2014-09-07T09:11:22.000Z</time>
      </trkpt>
      <trkpt lat="48.19422" lon="3.17992">
        <ele>181</ele>
        <time>2014-09-07T09:11:23.000Z</time>
      </trkpt>
      <trkpt lat="48.19423" lon="3.17983">
        <ele>181</ele>
        <time>2014-09-07T09:11:24.000Z</time>
      </trkpt>
      <trkpt lat="48.19424" lon="3.17975">
        <ele>181</ele>
        <time>2014-09-07T09:11:25.000Z</time>
      </trkpt>
      <trkpt lat="48.19426" lon="3.17966">
        <ele>182</ele>
        <time>2014-09-07T09:11:26.000Z</time>
      </trkpt>
      <trkpt lat="48.19427" lon="3.1796">
        <ele>182</ele>
        <time>2014-09-07T09:11:27.000Z</time>
      </trkpt>
      <trkpt lat="48.19429" lon="3.17951">
        <ele>182</ele>
        <time>2014-09-07T09:11:28.000Z</time>
      </trkpt>
      <trkpt lat="48.1943" lon="3.17943">
        <ele>183</ele>
        <time>2014-09-07T09:11:29.000Z</time>
      </trkpt>
      <trkpt lat="48.19431" lon="3.17936">
        <ele>183</ele>
        <time>2014-09-07T09:11:30.000Z</time>
      </trkpt>
      <trkpt lat="48.19432" lon="3.1793">
        <ele>184</ele>
        <time>2014-09-07T09:11:31.000Z</time>
      </trkpt>
      <trkpt lat="48.19432" lon="3.17921">
        <ele>184</ele>
        <time>2014-09-07T09:11:32.000Z</time>
      </trkpt>
      <trkpt lat="48.19433" lon="3.17917">
        <ele>184</ele>
        <time>2014-09-07T09:11:33.000Z</time>
      </trkpt>
      <trkpt lat="48.19434" lon="3.1791">
        <ele>186</ele>
        <time>2014-09-07T09:11:34.000Z</time>
      </trkpt>
      <trkpt lat="48.19434" lon="3.17904">
        <ele>186</ele>
        <time>2014-09-07T09:11:36.000Z</time>
      </trkpt>
      <trkpt lat="48.19434" lon="3.179">
        <ele>186</ele>
        <time>2014-09-07T09:11:37.000Z</time>
      </trkpt>
      <trkpt lat="48.19434" lon="3.179">
        <ele>186</ele>
        <time>2014-09-07T09:11:40.000Z</time>
      </trkpt>
      <trkpt lat="48.19432" lon="3.17885">
        <ele>187</ele>
        <time>2014-09-07T09:11:41.000Z</time>
      </trkpt>
      <trkpt lat="48.19432" lon="3.17885">
        <ele>187</ele>
        <time>2014-09-07T09:11:44.000Z</time>
      </trkpt>
      <trkpt lat="48.1943" lon="3.17868">
        <ele>187</ele>
        <time>2014-09-07T09:11:45.000Z</time>
      </trkpt>
      <trkpt lat="48.19429" lon="3.17863">
        <ele>187</ele>
        <time>2014-09-07T09:11:46.000Z</time>
      </trkpt>
      <trkpt lat="48.19427" lon="3.17857">
        <ele>187</ele>
        <time>2014-09-07T09:11:47.000Z</time>
      </trkpt>
      <trkpt lat="48.19426" lon="3.17852">
        <ele>188</ele>
        <time>2014-09-07T09:11:48.000Z</time>
      </trkpt>
      <trkpt lat="48.19425" lon="3.17846">
        <ele>188</ele>
        <time>2014-09-07T09:11:49.000Z</time>
      </trkpt>
      <trkpt lat="48.19424" lon="3.17842">
        <ele>188</ele>
        <time>2014-09-07T09:11:50.000Z</time>
      </trkpt>
      <trkpt lat="48.19423" lon="3.17835">
        <ele>188</ele>
        <time>2014-09-07T09:11:51.000Z</time>
      </trkpt>
      <trkpt lat="48.19423" lon="3.17835">
        <ele>188</ele>
        <time>2014-09-07T09:11:53.000Z</time>
      </trkpt>
      <trkpt lat="48.1942" lon="3.17818">
        <ele>189</ele>
        <time>2014-09-07T09:11:54.000Z</time>
      </trkpt>
      <trkpt lat="48.1942" lon="3.17818">
        <ele>189</ele>
        <time>2014-09-07T09:11:56.000Z</time>
      </trkpt>
      <trkpt lat="48.19416" lon="3.17807">
        <ele>190</ele>
        <time>2014-09-07T09:11:57.000Z</time>
      </trkpt>
      <trkpt lat="48.19416" lon="3.17807">
        <ele>190</ele>
        <time>2014-09-07T09:12:00.000Z</time>
      </trkpt>
      <trkpt lat="48.1941" lon="3.17795">
        <ele>191</ele>
        <time>2014-09-07T09:12:01.000Z</time>
      </trkpt>
      <trkpt lat="48.1941" lon="3.17795">
        <ele>191</ele>
        <time>2014-09-07T09:12:05.000Z</time>
      </trkpt>
      <trkpt lat="48.19402" lon="3.17786">
        <ele>191</ele>
        <time>2014-09-07T09:12:06.000Z</time>
      </trkpt>
      <trkpt lat="48.19402" lon="3.17786">
        <ele>191</ele>
        <time>2014-09-07T09:12:10.000Z</time>
      </trkpt>
      <trkpt lat="48.19393" lon="3.17777">
        <ele>191</ele>
        <time>2014-09-07T09:12:11.000Z</time>
      </trkpt>
      <trkpt lat="48.19393" lon="3.17777">
        <ele>191</ele>
        <time>2014-09-07T09:12:26.000Z</time>
      </trkpt>
      <trkpt lat="48.19384" lon="3.17771">
        <ele>191</ele>
        <time>2014-09-07T09:12:27.000Z</time>
      </trkpt>
      <trkpt lat="48.19384" lon="3.17771">
        <ele>191</ele>
        <time>2014-09-07T09:12:31.000Z</time>
      </trkpt>
      <trkpt lat="48.19375" lon="3.17767">
        <ele>191</ele>
        <time>2014-09-07T09:12:32.000Z</time>
      </trkpt>
      <trkpt lat="48.19375" lon="3.17767">
        <ele>191</ele>
        <time>2014-09-07T09:12:35.000Z</time>
      </trkpt>
      <trkpt lat="48.19363" lon="3.17758">
        <ele>191</ele>
        <time>2014-09-07T09:12:36.000Z</time>
      </trkpt>
      <trkpt lat="48.19363" lon="3.17758">
        <ele>191</ele>
        <time>2014-09-07T09:12:38.000Z</time>
      </trkpt>
      <trkpt lat="48.19353" lon="3.17752">
        <ele>191</ele>
        <time>2014-09-07T09:12:39.000Z</time>
      </trkpt>
      <trkpt lat="48.19353" lon="3.17752">
        <ele>191</ele>
        <time>2014-09-07T09:12:41.000Z</time>
      </trkpt>
      <trkpt lat="48.19341" lon="3.17743">
        <ele>192</ele>
        <time>2014-09-07T09:12:42.000Z</time>
      </trkpt>
      <trkpt lat="48.19341" lon="3.17743">
        <ele>192</ele>
        <time>2014-09-07T09:12:43.000Z</time>
      </trkpt>
      <trkpt lat="48.1933" lon="3.17739">
        <ele>190</ele>
        <time>2014-09-07T09:12:44.000Z</time>
      </trkpt>
      <trkpt lat="48.1933" lon="3.17739">
        <ele>190</ele>
        <time>2014-09-07T09:12:45.000Z</time>
      </trkpt>
      <trkpt lat="48.1932" lon="3.17734">
        <ele>189</ele>
        <time>2014-09-07T09:12:46.000Z</time>
      </trkpt>
      <trkpt lat="48.1932" lon="3.17734">
        <ele>189</ele>
        <time>2014-09-07T09:12:47.000Z</time>
      </trkpt>
      <trkpt lat="48.19312" lon="3.1773">
        <ele>188</ele>
        <time>2014-09-07T09:12:48.000Z</time>
      </trkpt>
      <trkpt lat="48.19312" lon="3.1773">
        <ele>188</ele>
        <time>2014-09-07T09:12:50.000Z</time>
      </trkpt>
      <trkpt lat="48.19301" lon="3.17724">
        <ele>187</ele>
        <time>2014-09-07T09:12:51.000Z</time>
      </trkpt>
      <trkpt lat="48.19301" lon="3.17724">
        <ele>187</ele>
        <time>2014-09-07T09:12:53.000Z</time>
      </trkpt>
      <trkpt lat="48.19292" lon="3.17717">
        <ele>187</ele>
        <time>2014-09-07T09:12:54.000Z</time>
      </trkpt>
      <trkpt lat="48.19292" lon="3.17717">
        <ele>187</ele>
        <time>2014-09-07T09:12:57.000Z</time>
      </trkpt>
      <trkpt lat="48.19283" lon="3.17711">
        <ele>186</ele>
        <time>2014-09-07T09:12:58.000Z</time>
      </trkpt>
      <trkpt lat="48.19283" lon="3.17711">
        <ele>186</ele>
        <time>2014-09-07T09:13:01.000Z</time>
      </trkpt>
      <trkpt lat="48.19275" lon="3.17702">
        <ele>186</ele>
        <time>2014-09-07T09:13:02.000Z</time>
      </trkpt>
      <trkpt lat="48.19275" lon="3.17702">
        <ele>186</ele>
        <time>2014-09-07T09:13:06.000Z</time>
      </trkpt>
      <trkpt lat="48.1927" lon="3.17689">
        <ele>185</ele>
        <time>2014-09-07T09:13:07.000Z</time>
      </trkpt>
      <trkpt lat="48.1927" lon="3.17689">
        <ele>185</ele>
        <time>2014-09-07T09:13:11.000Z</time>
      </trkpt>
      <trkpt lat="48.19268" lon="3.17677">
        <ele>184</ele>
        <time>2014-09-07T09:13:12.000Z</time>
      </trkpt>
      <trkpt lat="48.19268" lon="3.17677">
        <ele>184</ele>
        <time>2014-09-07T09:13:16.000Z</time>
      </trkpt>
      <trkpt lat="48.19269" lon="3.17664">
        <ele>183</ele>
        <time>2014-09-07T09:13:17.000Z</time>
      </trkpt>
      <trkpt lat="48.19269" lon="3.17664">
        <ele>183</ele>
        <time>2014-09-07T09:13:21.000Z</time>
      </trkpt>
      <trkpt lat="48.19271" lon="3.17649">
        <ele>184</ele>
        <time>2014-09-07T09:13:22.000Z</time>
      </trkpt>
      <trkpt lat="48.19271" lon="3.17649">
        <ele>184</ele>
        <time>2014-09-07T09:13:25.000Z</time>
      </trkpt>
      <trkpt lat="48.19273" lon="3.17631">
        <ele>184</ele>
        <time>2014-09-07T09:13:26.000Z</time>
      </trkpt>
      <trkpt lat="48.19273" lon="3.17631">
        <ele>184</ele>
        <time>2014-09-07T09:13:27.000Z</time>
      </trkpt>
      <trkpt lat="48.19275" lon="3.17619">
        <ele>184</ele>
        <time>2014-09-07T09:13:28.000Z</time>
      </trkpt>
      <trkpt lat="48.19277" lon="3.1761">
        <ele>184</ele>
        <time>2014-09-07T09:13:29.000Z</time>
      </trkpt>
      <trkpt lat="48.19278" lon="3.17601">
        <ele>184</ele>
        <time>2014-09-07T09:13:30.000Z</time>
      </trkpt>
      <trkpt lat="48.19279" lon="3.17593">
        <ele>184</ele>
        <time>2014-09-07T09:13:31.000Z</time>
      </trkpt>
      <trkpt lat="48.19281" lon="3.17584">
        <ele>184</ele>
        <time>2014-09-07T09:13:32.000Z</time>
      </trkpt>
      <trkpt lat="48.19282" lon="3.17576">
        <ele>183</ele>
        <time>2014-09-07T09:13:33.000Z</time>
      </trkpt>
      <trkpt lat="48.19284" lon="3.17567">
        <ele>183</ele>
        <time>2014-09-07T09:13:34.000Z</time>
      </trkpt>
      <trkpt lat="48.19285" lon="3.17559">
        <ele>184</ele>
        <time>2014-09-07T09:13:35.000Z</time>
      </trkpt>
      <trkpt lat="48.19287" lon="3.1755">
        <ele>184</ele>
        <time>2014-09-07T09:13:36.000Z</time>
      </trkpt>
      <trkpt lat="48.19289" lon="3.17541">
        <ele>184</ele>
        <time>2014-09-07T09:13:37.000Z</time>
      </trkpt>
      <trkpt lat="48.1929" lon="3.17535">
        <ele>184</ele>
        <time>2014-09-07T09:13:38.000Z</time>
      </trkpt>
      <trkpt lat="48.19293" lon="3.17526">
        <ele>184</ele>
        <time>2014-09-07T09:13:39.000Z</time>
      </trkpt>
      <trkpt lat="48.19296" lon="3.17518">
        <ele>184</ele>
        <time>2014-09-07T09:13:40.000Z</time>
      </trkpt>
      <trkpt lat="48.193" lon="3.17509">
        <ele>185</ele>
        <time>2014-09-07T09:13:41.000Z</time>
      </trkpt>
      <trkpt lat="48.19304" lon="3.17501">
        <ele>185</ele>
        <time>2014-09-07T09:13:42.000Z</time>
      </trkpt>
      <trkpt lat="48.19308" lon="3.17492">
        <ele>186</ele>
        <time>2014-09-07T09:13:43.000Z</time>
      </trkpt>
      <trkpt lat="48.19313" lon="3.17486">
        <ele>186</ele>
        <time>2014-09-07T09:13:44.000Z</time>
      </trkpt>
      <trkpt lat="48.19316" lon="3.17477">
        <ele>186</ele>
        <time>2014-09-07T09:13:45.000Z</time>
      </trkpt>
      <trkpt lat="48.19318" lon="3.17471">
        <ele>186</ele>
        <time>2014-09-07T09:13:46.000Z</time>
      </trkpt>
      <trkpt lat="48.19321" lon="3.17464">
        <ele>186</ele>
        <time>2014-09-07T09:13:47.000Z</time>
      </trkpt>
      <trkpt lat="48.19323" lon="3.17458">
        <ele>186</ele>
        <time>2014-09-07T09:13:48.000Z</time>
      </trkpt>
      <trkpt lat="48.19324" lon="3.17451">
        <ele>186</ele>
        <time>2014-09-07T09:13:49.000Z</time>
      </trkpt>
      <trkpt lat="48.19326" lon="3.17445">
        <ele>187</ele>
        <time>2014-09-07T09:13:50.000Z</time>
      </trkpt>
      <trkpt lat="48.19327" lon="3.17441">
        <ele>187</ele>
        <time>2014-09-07T09:13:51.000Z</time>
      </trkpt>
      <trkpt lat="48.19328" lon="3.17434">
        <ele>187</ele>
        <time>2014-09-07T09:13:52.000Z</time>
      </trkpt>
      <trkpt lat="48.19329" lon="3.17428">
        <ele>188</ele>
        <time>2014-09-07T09:13:53.000Z</time>
      </trkpt>
      <trkpt lat="48.19329" lon="3.17423">
        <ele>189</ele>
        <time>2014-09-07T09:13:54.000Z</time>
      </trkpt>
      <trkpt lat="48.1933" lon="3.17417">
        <ele>189</ele>
        <time>2014-09-07T09:13:55.000Z</time>
      </trkpt>
      <trkpt lat="48.19331" lon="3.17413">
        <ele>189</ele>
        <time>2014-09-07T09:13:56.000Z</time>
      </trkpt>
      <trkpt lat="48.19332" lon="3.17406">
        <ele>188</ele>
        <time>2014-09-07T09:13:57.000Z</time>
      </trkpt>
      <trkpt lat="48.19333" lon="3.174">
        <ele>188</ele>
        <time>2014-09-07T09:13:58.000Z</time>
      </trkpt>
      <trkpt lat="48.19334" lon="3.17395">
        <ele>190</ele>
        <time>2014-09-07T09:13:59.000Z</time>
      </trkpt>
      <trkpt lat="48.19335" lon="3.17389">
        <ele>190</ele>
        <time>2014-09-07T09:14:00.000Z</time>
      </trkpt>
      <trkpt lat="48.19336" lon="3.17383">
        <ele>190</ele>
        <time>2014-09-07T09:14:01.000Z</time>
      </trkpt>
      <trkpt lat="48.19337" lon="3.17378">
        <ele>190</ele>
        <time>2014-09-07T09:14:02.000Z</time>
      </trkpt>
      <trkpt lat="48.19337" lon="3.17372">
        <ele>190</ele>
        <time>2014-09-07T09:14:03.000Z</time>
      </trkpt>
      <trkpt lat="48.19338" lon="3.17365">
        <ele>190</ele>
        <time>2014-09-07T09:14:04.000Z</time>
      </trkpt>
      <trkpt lat="48.1934" lon="3.17359">
        <ele>190</ele>
        <time>2014-09-07T09:14:05.000Z</time>
      </trkpt>
      <trkpt lat="48.19341" lon="3.17353">
        <ele>190</ele>
        <time>2014-09-07T09:14:06.000Z</time>
      </trkpt>
      <trkpt lat="48.19342" lon="3.17346">
        <ele>189</ele>
        <time>2014-09-07T09:14:07.000Z</time>
      </trkpt>
      <trkpt lat="48.19342" lon="3.1734">
        <ele>189</ele>
        <time>2014-09-07T09:14:08.000Z</time>
      </trkpt>
      <trkpt lat="48.19343" lon="3.17333">
        <ele>188</ele>
        <time>2014-09-07T09:14:09.000Z</time>
      </trkpt>
      <trkpt lat="48.19343" lon="3.17327">
        <ele>189</ele>
        <time>2014-09-07T09:14:10.000Z</time>
      </trkpt>
      <trkpt lat="48.19343" lon="3.1732">
        <ele>189</ele>
        <time>2014-09-07T09:14:11.000Z</time>
      </trkpt>
      <trkpt lat="48.19344" lon="3.17316">
        <ele>189</ele>
        <time>2014-09-07T09:14:12.000Z</time>
      </trkpt>
      <trkpt lat="48.19344" lon="3.1731">
        <ele>189</ele>
        <time>2014-09-07T09:14:13.000Z</time>
      </trkpt>
      <trkpt lat="48.19345" lon="3.17303">
        <ele>189</ele>
        <time>2014-09-07T09:14:14.000Z</time>
      </trkpt>
      <trkpt lat="48.19346" lon="3.17297">
        <ele>189</ele>
        <time>2014-09-07T09:14:15.000Z</time>
      </trkpt>
      <trkpt lat="48.19346" lon="3.17292">
        <ele>189</ele>
        <time>2014-09-07T09:14:16.000Z</time>
      </trkpt>
      <trkpt lat="48.19346" lon="3.17286">
        <ele>189</ele>
        <time>2014-09-07T09:14:17.000Z</time>
      </trkpt>
      <trkpt lat="48.19346" lon="3.1728">
        <ele>189</ele>
        <time>2014-09-07T09:14:18.000Z</time>
      </trkpt>
      <trkpt lat="48.19345" lon="3.17273">
        <ele>189</ele>
        <time>2014-09-07T09:14:19.000Z</time>
      </trkpt>
      <trkpt lat="48.19345" lon="3.17267">
        <ele>188</ele>
        <time>2014-09-07T09:14:20.000Z</time>
      </trkpt>
      <trkpt lat="48.19345" lon="3.1726">
        <ele>188</ele>
        <time>2014-09-07T09:14:21.000Z</time>
      </trkpt>
      <trkpt lat="48.19345" lon="3.17252">
        <ele>188</ele>
        <time>2014-09-07T09:14:22.000Z</time>
      </trkpt>
      <trkpt lat="48.19344" lon="3.17245">
        <ele>188</ele>
        <time>2014-09-07T09:14:23.000Z</time>
      </trkpt>
      <trkpt lat="48.19344" lon="3.17237">
        <ele>188</ele>
        <time>2014-09-07T09:14:24.000Z</time>
      </trkpt>
      <trkpt lat="48.19344" lon="3.17228">
        <ele>188</ele>
        <time>2014-09-07T09:14:25.000Z</time>
      </trkpt>
      <trkpt lat="48.19344" lon="3.17219">
        <ele>188</ele>
        <time>2014-09-07T09:14:26.000Z</time>
      </trkpt>
      <trkpt lat="48.19344" lon="3.17211">
        <ele>188</ele>
        <time>2014-09-07T09:14:27.000Z</time>
      </trkpt>
      <trkpt lat="48.19345" lon="3.172">
        <ele>188</ele>
        <time>2014-09-07T09:14:28.000Z</time>
      </trkpt>
      <trkpt lat="48.19345" lon="3.17189">
        <ele>188</ele>
        <time>2014-09-07T09:14:29.000Z</time>
      </trkpt>
      <trkpt lat="48.19345" lon="3.17179">
        <ele>187</ele>
        <time>2014-09-07T09:14:30.000Z</time>
      </trkpt>
      <trkpt lat="48.19344" lon="3.17168">
        <ele>187</ele>
        <time>2014-09-07T09:14:31.000Z</time>
      </trkpt>
      <trkpt lat="48.19344" lon="3.17159">
        <ele>187</ele>
        <time>2014-09-07T09:14:32.000Z</time>
      </trkpt>
      <trkpt lat="48.19343" lon="3.17149">
        <ele>187</ele>
        <time>2014-09-07T09:14:33.000Z</time>
      </trkpt>
      <trkpt lat="48.19343" lon="3.17138">
        <ele>187</ele>
        <time>2014-09-07T09:14:34.000Z</time>
      </trkpt>
      <trkpt lat="48.19342" lon="3.17129">
        <ele>187</ele>
        <time>2014-09-07T09:14:35.000Z</time>
      </trkpt>
      <trkpt lat="48.19342" lon="3.17121">
        <ele>187</ele>
        <time>2014-09-07T09:14:36.000Z</time>
      </trkpt>
      <trkpt lat="48.19341" lon="3.17114">
        <ele>187</ele>
        <time>2014-09-07T09:14:37.000Z</time>
      </trkpt>
      <trkpt lat="48.19341" lon="3.1711">
        <ele>187</ele>
        <time>2014-09-07T09:14:38.000Z</time>
      </trkpt>
      <trkpt lat="48.19341" lon="3.17104">
        <ele>186</ele>
        <time>2014-09-07T09:14:39.000Z</time>
      </trkpt>
      <trkpt lat="48.19341" lon="3.17099">
        <ele>186</ele>
        <time>2014-09-07T09:14:40.000Z</time>
      </trkpt>
      <trkpt lat="48.19341" lon="3.17093">
        <ele>186</ele>
        <time>2014-09-07T09:14:41.000Z</time>
      </trkpt>
      <trkpt lat="48.19342" lon="3.17089">
        <ele>185</ele>
        <time>2014-09-07T09:14:42.000Z</time>
      </trkpt>
      <trkpt lat="48.19344" lon="3.17084">
        <ele>185</ele>
        <time>2014-09-07T09:14:43.000Z</time>
      </trkpt>
      <trkpt lat="48.19346" lon="3.17082">
        <ele>185</ele>
        <time>2014-09-07T09:14:44.000Z</time>
      </trkpt>
      <trkpt lat="48.19349" lon="3.1708">
        <ele>186</ele>
        <time>2014-09-07T09:14:45.000Z</time>
      </trkpt>
      <trkpt lat="48.19351" lon="3.17078">
        <ele>186</ele>
        <time>2014-09-07T09:14:46.000Z</time>
      </trkpt>
      <trkpt lat="48.19353" lon="3.17076">
        <ele>186</ele>
        <time>2014-09-07T09:14:52.000Z</time>
      </trkpt>
      <trkpt lat="48.19361" lon="3.17067">
        <ele>187</ele>
        <time>2014-09-07T09:14:53.000Z</time>
      </trkpt>
      <trkpt lat="48.19361" lon="3.17067">
        <ele>187</ele>
        <time>2014-09-07T09:15:03.000Z</time>
      </trkpt>
      <trkpt lat="48.19363" lon="3.17054">
        <ele>187</ele>
        <time>2014-09-07T09:15:04.000Z</time>
      </trkpt>
      <trkpt lat="48.19363" lon="3.17054">
        <ele>187</ele>
        <time>2014-09-07T09:15:23.000Z</time>
      </trkpt>
      <trkpt lat="48.19373" lon="3.1705">
        <ele>187</ele>
        <time>2014-09-07T09:15:24.000Z</time>
      </trkpt>
      <trkpt lat="48.19373" lon="3.1705">
        <ele>187</ele>
        <time>2014-09-07T09:15:34.000Z</time>
      </trkpt>
      <trkpt lat="48.19382" lon="3.17048">
        <ele>188</ele>
        <time>2014-09-07T09:15:35.000Z</time>
      </trkpt>
      <trkpt lat="48.19382" lon="3.17048">
        <ele>188</ele>
        <time>2014-09-07T09:15:40.000Z</time>
      </trkpt>
      <trkpt lat="48.19391" lon="3.17041">
        <ele>188</ele>
        <time>2014-09-07T09:15:41.000Z</time>
      </trkpt>
      <trkpt lat="48.19391" lon="3.17041">
        <ele>188</ele>
        <time>2014-09-07T09:15:45.000Z</time>
      </trkpt>
      <trkpt lat="48.19402" lon="3.17035">
        <ele>188</ele>
        <time>2014-09-07T09:15:46.000Z</time>
      </trkpt>
      <trkpt lat="48.19402" lon="3.17035">
        <ele>188</ele>
        <time>2014-09-07T09:15:48.000Z</time>
      </trkpt>
      <trkpt lat="48.19411" lon="3.17029">
        <ele>189</ele>
        <time>2014-09-07T09:15:49.000Z</time>
      </trkpt>
      <trkpt lat="48.19411" lon="3.17029">
        <ele>189</ele>
        <time>2014-09-07T09:15:51.000Z</time>
      </trkpt>
      <trkpt lat="48.19421" lon="3.17022">
        <ele>190</ele>
        <time>2014-09-07T09:15:52.000Z</time>
      </trkpt>
      <trkpt lat="48.19421" lon="3.17022">
        <ele>190</ele>
        <time>2014-09-07T09:15:54.000Z</time>
      </trkpt>
      <trkpt lat="48.19431" lon="3.17016">
        <ele>190</ele>
        <time>2014-09-07T09:15:55.000Z</time>
      </trkpt>
      <trkpt lat="48.19434" lon="3.17014">
        <ele>190</ele>
        <time>2014-09-07T09:15:56.000Z</time>
      </trkpt>
      <trkpt lat="48.19437" lon="3.17014">
        <ele>190</ele>
        <time>2014-09-07T09:15:57.000Z</time>
      </trkpt>
      <trkpt lat="48.1944" lon="3.17011">
        <ele>190</ele>
        <time>2014-09-07T09:15:58.000Z</time>
      </trkpt>
      <trkpt lat="48.19444" lon="3.17011">
        <ele>190</ele>
        <time>2014-09-07T09:15:59.000Z</time>
      </trkpt>
      <trkpt lat="48.19447" lon="3.17009">
        <ele>190</ele>
        <time>2014-09-07T09:16:00.000Z</time>
      </trkpt>
      <trkpt lat="48.19451" lon="3.17007">
        <ele>190</ele>
        <time>2014-09-07T09:16:01.000Z</time>
      </trkpt>
      <trkpt lat="48.19454" lon="3.17007">
        <ele>190</ele>
        <time>2014-09-07T09:16:02.000Z</time>
      </trkpt>
      <trkpt lat="48.19458" lon="3.17005">
        <ele>190</ele>
        <time>2014-09-07T09:16:03.000Z</time>
      </trkpt>
      <trkpt lat="48.19461" lon="3.17005">
        <ele>190</ele>
        <time>2014-09-07T09:16:04.000Z</time>
      </trkpt>
      <trkpt lat="48.19464" lon="3.17003">
        <ele>190</ele>
        <time>2014-09-07T09:16:05.000Z</time>
      </trkpt>
      <trkpt lat="48.19468" lon="3.17001">
        <ele>190</ele>
        <time>2014-09-07T09:16:06.000Z</time>
      </trkpt>
      <trkpt lat="48.19471" lon="3.17001">
        <ele>190</ele>
        <time>2014-09-07T09:16:07.000Z</time>
      </trkpt>
      <trkpt lat="48.19475" lon="3.16998">
        <ele>190</ele>
        <time>2014-09-07T09:16:08.000Z</time>
      </trkpt>
      <trkpt lat="48.19478" lon="3.16998">
        <ele>190</ele>
        <time>2014-09-07T09:16:09.000Z</time>
      </trkpt>
      <trkpt lat="48.19481" lon="3.16996">
        <ele>190</ele>
        <time>2014-09-07T09:16:10.000Z</time>
      </trkpt>
      <trkpt lat="48.19484" lon="3.16994">
        <ele>190</ele>
        <time>2014-09-07T09:16:11.000Z</time>
      </trkpt>
      <trkpt lat="48.19488" lon="3.16994">
        <ele>190</ele>
        <time>2014-09-07T09:16:12.000Z</time>
      </trkpt>
      <trkpt lat="48.19491" lon="3.16992">
        <ele>190</ele>
        <time>2014-09-07T09:16:13.000Z</time>
      </trkpt>
      <trkpt lat="48.19494" lon="3.1699">
        <ele>190</ele>
        <time>2014-09-07T09:16:14.000Z</time>
      </trkpt>
      <trkpt lat="48.19496" lon="3.1699">
        <ele>190</ele>
        <time>2014-09-07T09:16:15.000Z</time>
      </trkpt>
      <trkpt lat="48.19499" lon="3.16988">
        <ele>190</ele>
        <time>2014-09-07T09:16:16.000Z</time>
      </trkpt>
      <trkpt lat="48.19499" lon="3.16988">
        <ele>190</ele>
        <time>2014-09-07T09:16:20.000Z</time>
      </trkpt>
      <trkpt lat="48.19509" lon="3.16986">
        <ele>188</ele>
        <time>2014-09-07T09:16:21.000Z</time>
      </trkpt>
      <trkpt lat="48.19509" lon="3.16986">
        <ele>188</ele>
        <time>2014-09-07T09:16:26.000Z</time>
      </trkpt>
      <trkpt lat="48.19519" lon="3.1699">
        <ele>188</ele>
        <time>2014-09-07T09:16:27.000Z</time>
      </trkpt>
      <trkpt lat="48.19519" lon="3.1699">
        <ele>188</ele>
        <time>2014-09-07T09:16:32.000Z</time>
      </trkpt>
      <trkpt lat="48.19527" lon="3.16998">
        <ele>188</ele>
        <time>2014-09-07T09:16:33.000Z</time>
      </trkpt>
      <trkpt lat="48.19527" lon="3.16998">
        <ele>188</ele>
        <time>2014-09-07T09:16:38.000Z</time>
      </trkpt>
      <trkpt lat="48.19537" lon="3.17001">
        <ele>189</ele>
        <time>2014-09-07T09:16:39.000Z</time>
      </trkpt>
      <trkpt lat="48.19537" lon="3.17001">
        <ele>189</ele>
        <time>2014-09-07T09:16:45.000Z</time>
      </trkpt>
      <trkpt lat="48.19547" lon="3.17003">
        <ele>189</ele>
        <time>2014-09-07T09:16:46.000Z</time>
      </trkpt>
      <trkpt lat="48.19547" lon="3.17003">
        <ele>189</ele>
        <time>2014-09-07T09:16:50.000Z</time>
      </trkpt>
      <trkpt lat="48.19556" lon="3.17005">
        <ele>188</ele>
        <time>2014-09-07T09:16:51.000Z</time>
      </trkpt>
      <trkpt lat="48.19556" lon="3.17005">
        <ele>188</ele>
        <time>2014-09-07T09:16:54.000Z</time>
      </trkpt>
      <trkpt lat="48.19567" lon="3.17005">
        <ele>188</ele>
        <time>2014-09-07T09:16:55.000Z</time>
      </trkpt>
      <trkpt lat="48.19567" lon="3.17005">
        <ele>188</ele>
        <time>2014-09-07T09:16:57.000Z</time>
      </trkpt>
      <trkpt lat="48.19579" lon="3.17005">
        <ele>187</ele>
        <time>2014-09-07T09:16:58.000Z</time>
      </trkpt>
      <trkpt lat="48.19583" lon="3.17005">
        <ele>187</ele>
        <time>2014-09-07T09:16:59.000Z</time>
      </trkpt>
      <trkpt lat="48.19587" lon="3.17003">
        <ele>186</ele>
        <time>2014-09-07T09:17:00.000Z</time>
      </trkpt>
      <trkpt lat="48.19594" lon="3.17003">
        <ele>187</ele>
        <time>2014-09-07T09:17:01.000Z</time>
      </trkpt>
      <trkpt lat="48.196" lon="3.17001">
        <ele>187</ele>
        <time>2014-09-07T09:17:02.000Z</time>
      </trkpt>
      <trkpt lat="48.19608" lon="3.16998">
        <ele>184</ele>
        <time>2014-09-07T09:17:03.000Z</time>
      </trkpt>
      <trkpt lat="48.19614" lon="3.16996">
        <ele>184</ele>
        <time>2014-09-07T09:17:04.000Z</time>
      </trkpt>
      <trkpt lat="48.19622" lon="3.16994">
        <ele>184</ele>
        <time>2014-09-07T09:17:05.000Z</time>
      </trkpt>
      <trkpt lat="48.19628" lon="3.16992">
        <ele>184</ele>
        <time>2014-09-07T09:17:06.000Z</time>
      </trkpt>
      <trkpt lat="48.19633" lon="3.1699">
        <ele>184</ele>
        <time>2014-09-07T09:17:07.000Z</time>
      </trkpt>
      <trkpt lat="48.1964" lon="3.16988">
        <ele>184</ele>
        <time>2014-09-07T09:17:08.000Z</time>
      </trkpt>
      <trkpt lat="48.19644" lon="3.16986">
        <ele>184</ele>
        <time>2014-09-07T09:17:09.000Z</time>
      </trkpt>
      <trkpt lat="48.1965" lon="3.16983">
        <ele>184</ele>
        <time>2014-09-07T09:17:10.000Z</time>
      </trkpt>
      <trkpt lat="48.19654" lon="3.16983">
        <ele>184</ele>
        <time>2014-09-07T09:17:11.000Z</time>
      </trkpt>
      <trkpt lat="48.19659" lon="3.16981">
        <ele>184</ele>
        <time>2014-09-07T09:17:12.000Z</time>
      </trkpt>
      <trkpt lat="48.19664" lon="3.16979">
        <ele>184</ele>
        <time>2014-09-07T09:17:13.000Z</time>
      </trkpt>
      <trkpt lat="48.19668" lon="3.16979">
        <ele>184</ele>
        <time>2014-09-07T09:17:14.000Z</time>
      </trkpt>
      <trkpt lat="48.19672" lon="3.16977">
        <ele>184</ele>
        <time>2014-09-07T09:17:15.000Z</time>
      </trkpt>
      <trkpt lat="48.19676" lon="3.16973">
        <ele>184</ele>
        <time>2014-09-07T09:17:16.000Z</time>
      </trkpt>
      <trkpt lat="48.19682" lon="3.16971">
        <ele>184</ele>
        <time>2014-09-07T09:17:17.000Z</time>
      </trkpt>
      <trkpt lat="48.19686" lon="3.16968">
        <ele>183</ele>
        <time>2014-09-07T09:17:18.000Z</time>
      </trkpt>
      <trkpt lat="48.1969" lon="3.16966">
        <ele>183</ele>
        <time>2014-09-07T09:17:19.000Z</time>
      </trkpt>
      <trkpt lat="48.19695" lon="3.16962">
        <ele>183</ele>
        <time>2014-09-07T09:17:20.000Z</time>
      </trkpt>
      <trkpt lat="48.19699" lon="3.1696">
        <ele>183</ele>
        <time>2014-09-07T09:17:21.000Z</time>
      </trkpt>
      <trkpt lat="48.19704" lon="3.16958">
        <ele>183</ele>
        <time>2014-09-07T09:17:22.000Z</time>
      </trkpt>
      <trkpt lat="48.19708" lon="3.16956">
        <ele>183</ele>
        <time>2014-09-07T09:17:23.000Z</time>
      </trkpt>
      <trkpt lat="48.19712" lon="3.16953">
        <ele>183</ele>
        <time>2014-09-07T09:17:24.000Z</time>
      </trkpt>
      <trkpt lat="48.19716" lon="3.16953">
        <ele>183</ele>
        <time>2014-09-07T09:17:25.000Z</time>
      </trkpt>
      <trkpt lat="48.19719" lon="3.16949">
        <ele>183</ele>
        <time>2014-09-07T09:17:26.000Z</time>
      </trkpt>
      <trkpt lat="48.19723" lon="3.16949">
        <ele>183</ele>
        <time>2014-09-07T09:17:27.000Z</time>
      </trkpt>
      <trkpt lat="48.19727" lon="3.16947">
        <ele>183</ele>
        <time>2014-09-07T09:17:28.000Z</time>
      </trkpt>
      <trkpt lat="48.1973" lon="3.16945">
        <ele>182</ele>
        <time>2014-09-07T09:17:29.000Z</time>
      </trkpt>
      <trkpt lat="48.19733" lon="3.16945">
        <ele>182</ele>
        <time>2014-09-07T09:17:30.000Z</time>
      </trkpt>
      <trkpt lat="48.19736" lon="3.16941">
        <ele>182</ele>
        <time>2014-09-07T09:17:31.000Z</time>
      </trkpt>
      <trkpt lat="48.1974" lon="3.16938">
        <ele>182</ele>
        <time>2014-09-07T09:17:32.000Z</time>
      </trkpt>
      <trkpt lat="48.19742" lon="3.16938">
        <ele>182</ele>
        <time>2014-09-07T09:17:33.000Z</time>
      </trkpt>
      <trkpt lat="48.19745" lon="3.16938">
        <ele>182</ele>
        <time>2014-09-07T09:17:34.000Z</time>
      </trkpt>
      <trkpt lat="48.19747" lon="3.16936">
        <ele>182</ele>
        <time>2014-09-07T09:17:35.000Z</time>
      </trkpt>
      <trkpt lat="48.19749" lon="3.16936">
        <ele>182</ele>
        <time>2014-09-07T09:17:36.000Z</time>
      </trkpt>
      <trkpt lat="48.19753" lon="3.16936">
        <ele>181</ele>
        <time>2014-09-07T09:17:37.000Z</time>
      </trkpt>
      <trkpt lat="48.19755" lon="3.16936">
        <ele>181</ele>
        <time>2014-09-07T09:17:38.000Z</time>
      </trkpt>
      <trkpt lat="48.19757" lon="3.16934">
        <ele>181</ele>
        <time>2014-09-07T09:17:39.000Z</time>
      </trkpt>
      <trkpt lat="48.19759" lon="3.16934">
        <ele>181</ele>
        <time>2014-09-07T09:17:40.000Z</time>
      </trkpt>
      <trkpt lat="48.19762" lon="3.16934">
        <ele>181</ele>
        <time>2014-09-07T09:17:41.000Z</time>
      </trkpt>
      <trkpt lat="48.19764" lon="3.16932">
        <ele>181</ele>
        <time>2014-09-07T09:17:42.000Z</time>
      </trkpt>
      <trkpt lat="48.19767" lon="3.16932">
        <ele>181</ele>
        <time>2014-09-07T09:17:43.000Z</time>
      </trkpt>
      <trkpt lat="48.1977" lon="3.1693">
        <ele>181</ele>
        <time>2014-09-07T09:17:44.000Z</time>
      </trkpt>
      <trkpt lat="48.19774" lon="3.1693">
        <ele>181</ele>
        <time>2014-09-07T09:17:46.000Z</time>
      </trkpt>
      <trkpt lat="48.19777" lon="3.1693">
        <ele>181</ele>
        <time>2014-09-07T09:17:47.000Z</time>
      </trkpt>
      <trkpt lat="48.19782" lon="3.1693">
        <ele>182</ele>
        <time>2014-09-07T09:17:49.000Z</time>
      </trkpt>
      <trkpt lat="48.19785" lon="3.16932">
        <ele>182</ele>
        <time>2014-09-07T09:17:50.000Z</time>
      </trkpt>
      <trkpt lat="48.19789" lon="3.16932">
        <ele>182</ele>
        <time>2014-09-07T09:17:52.000Z</time>
      </trkpt>
      <trkpt lat="48.19792" lon="3.16932">
        <ele>181</ele>
        <time>2014-09-07T09:17:53.000Z</time>
      </trkpt>
      <trkpt lat="48.19794" lon="3.16932">
        <ele>181</ele>
        <time>2014-09-07T09:17:54.000Z</time>
      </trkpt>
      <trkpt lat="48.19798" lon="3.16932">
        <ele>181</ele>
        <time>2014-09-07T09:17:55.000Z</time>
      </trkpt>
      <trkpt lat="48.198" lon="3.16934">
        <ele>181</ele>
        <time>2014-09-07T09:17:56.000Z</time>
      </trkpt>
      <trkpt lat="48.19803" lon="3.16936">
        <ele>181</ele>
        <time>2014-09-07T09:17:57.000Z</time>
      </trkpt>
      <trkpt lat="48.19805" lon="3.16936">
        <ele>181</ele>
        <time>2014-09-07T09:17:58.000Z</time>
      </trkpt>
      <trkpt lat="48.19807" lon="3.16938">
        <ele>181</ele>
        <time>2014-09-07T09:17:59.000Z</time>
      </trkpt>
      <trkpt lat="48.19811" lon="3.16938">
        <ele>181</ele>
        <time>2014-09-07T09:18:00.000Z</time>
      </trkpt>
      <trkpt lat="48.19813" lon="3.16941">
        <ele>181</ele>
        <time>2014-09-07T09:18:01.000Z</time>
      </trkpt>
      <trkpt lat="48.19817" lon="3.16941">
        <ele>181</ele>
        <time>2014-09-07T09:18:03.000Z</time>
      </trkpt>
      <trkpt lat="48.19819" lon="3.16941">
        <ele>181</ele>
        <time>2014-09-07T09:18:04.000Z</time>
      </trkpt>
      <trkpt lat="48.19822" lon="3.16943">
        <ele>181</ele>
        <time>2014-09-07T09:18:05.000Z</time>
      </trkpt>
      <trkpt lat="48.19824" lon="3.16943">
        <ele>181</ele>
        <time>2014-09-07T09:18:06.000Z</time>
      </trkpt>
      <trkpt lat="48.19827" lon="3.16943">
        <ele>181</ele>
        <time>2014-09-07T09:18:07.000Z</time>
      </trkpt>
      <trkpt lat="48.19829" lon="3.16945">
        <ele>181</ele>
        <time>2014-09-07T09:18:08.000Z</time>
      </trkpt>
      <trkpt lat="48.19833" lon="3.16945">
        <ele>181</ele>
        <time>2014-09-07T09:18:10.000Z</time>
      </trkpt>
      <trkpt lat="48.19835" lon="3.16947">
        <ele>181</ele>
        <time>2014-09-07T09:18:11.000Z</time>
      </trkpt>
      <trkpt lat="48.19837" lon="3.16947">
        <ele>181</ele>
        <time>2014-09-07T09:18:12.000Z</time>
      </trkpt>
      <trkpt lat="48.19839" lon="3.16949">
        <ele>182</ele>
        <time>2014-09-07T09:18:13.000Z</time>
      </trkpt>
      <trkpt lat="48.19842" lon="3.16949">
        <ele>182</ele>
        <time>2014-09-07T09:18:14.000Z</time>
      </trkpt>
      <trkpt lat="48.19844" lon="3.16951">
        <ele>182</ele>
        <time>2014-09-07T09:18:15.000Z</time>
      </trkpt>
      <trkpt lat="48.19847" lon="3.16951">
        <ele>182</ele>
        <time>2014-09-07T09:18:16.000Z</time>
      </trkpt>
      <trkpt lat="48.19849" lon="3.16953">
        <ele>182</ele>
        <time>2014-09-07T09:18:17.000Z</time>
      </trkpt>
      <trkpt lat="48.19853" lon="3.16953">
        <ele>182</ele>
        <time>2014-09-07T09:18:19.000Z</time>
      </trkpt>
      <trkpt lat="48.19856" lon="3.16953">
        <ele>182</ele>
        <time>2014-09-07T09:18:20.000Z</time>
      </trkpt>
      <trkpt lat="48.19858" lon="3.16953">
        <ele>182</ele>
        <time>2014-09-07T09:18:21.000Z</time>
      </trkpt>
      <trkpt lat="48.19861" lon="3.16953">
        <ele>182</ele>
        <time>2014-09-07T09:18:22.000Z</time>
      </trkpt>
      <trkpt lat="48.19865" lon="3.16953">
        <ele>182</ele>
        <time>2014-09-07T09:18:24.000Z</time>
      </trkpt>
      <trkpt lat="48.19868" lon="3.16953">
        <ele>182</ele>
        <time>2014-09-07T09:18:25.000Z</time>
      </trkpt>
      <trkpt lat="48.19873" lon="3.16953">
        <ele>182</ele>
        <time>2014-09-07T09:18:27.000Z</time>
      </trkpt>
      <trkpt lat="48.19876" lon="3.16953">
        <ele>182</ele>
        <time>2014-09-07T09:18:28.000Z</time>
      </trkpt>
      <trkpt lat="48.19878" lon="3.16953">
        <ele>182</ele>
        <time>2014-09-07T09:18:29.000Z</time>
      </trkpt>
      <trkpt lat="48.19881" lon="3.16953">
        <ele>182</ele>
        <time>2014-09-07T09:18:30.000Z</time>
      </trkpt>
      <trkpt lat="48.19883" lon="3.16953">
        <ele>182</ele>
        <time>2014-09-07T09:18:31.000Z</time>
      </trkpt>
      <trkpt lat="48.19887" lon="3.16956">
        <ele>182</ele>
        <time>2014-09-07T09:18:32.000Z</time>
      </trkpt>
      <trkpt lat="48.19889" lon="3.16956">
        <ele>182</ele>
        <time>2014-09-07T09:18:33.000Z</time>
      </trkpt>
      <trkpt lat="48.19892" lon="3.16956">
        <ele>182</ele>
        <time>2014-09-07T09:18:34.000Z</time>
      </trkpt>
      <trkpt lat="48.19895" lon="3.16956">
        <ele>182</ele>
        <time>2014-09-07T09:18:35.000Z</time>
      </trkpt>
      <trkpt lat="48.19897" lon="3.16958">
        <ele>183</ele>
        <time>2014-09-07T09:18:36.000Z</time>
      </trkpt>
      <trkpt lat="48.19901" lon="3.16958">
        <ele>183</ele>
        <time>2014-09-07T09:18:37.000Z</time>
      </trkpt>
      <trkpt lat="48.19904" lon="3.16958">
        <ele>183</ele>
        <time>2014-09-07T09:18:38.000Z</time>
      </trkpt>
      <trkpt lat="48.19907" lon="3.1696">
        <ele>183</ele>
        <time>2014-09-07T09:18:39.000Z</time>
      </trkpt>
      <trkpt lat="48.19909" lon="3.1696">
        <ele>183</ele>
        <time>2014-09-07T09:18:40.000Z</time>
      </trkpt>
      <trkpt lat="48.19912" lon="3.1696">
        <ele>183</ele>
        <time>2014-09-07T09:18:41.000Z</time>
      </trkpt>
      <trkpt lat="48.19916" lon="3.1696">
        <ele>183</ele>
        <time>2014-09-07T09:18:42.000Z</time>
      </trkpt>
      <trkpt lat="48.19919" lon="3.1696">
        <ele>183</ele>
        <time>2014-09-07T09:18:43.000Z</time>
      </trkpt>
      <trkpt lat="48.19922" lon="3.1696">
        <ele>183</ele>
        <time>2014-09-07T09:18:44.000Z</time>
      </trkpt>
      <trkpt lat="48.19924" lon="3.16962">
        <ele>183</ele>
        <time>2014-09-07T09:18:45.000Z</time>
      </trkpt>
      <trkpt lat="48.19927" lon="3.16962">
        <ele>183</ele>
        <time>2014-09-07T09:18:46.000Z</time>
      </trkpt>
      <trkpt lat="48.19932" lon="3.16962">
        <ele>183</ele>
        <time>2014-09-07T09:18:47.000Z</time>
      </trkpt>
      <trkpt lat="48.19935" lon="3.1696">
        <ele>183</ele>
        <time>2014-09-07T09:18:48.000Z</time>
      </trkpt>
      <trkpt lat="48.19939" lon="3.1696">
        <ele>182</ele>
        <time>2014-09-07T09:18:49.000Z</time>
      </trkpt>
      <trkpt lat="48.19944" lon="3.16958">
        <ele>182</ele>
        <time>2014-09-07T09:18:50.000Z</time>
      </trkpt>
      <trkpt lat="48.19948" lon="3.16958">
        <ele>182</ele>
        <time>2014-09-07T09:18:51.000Z</time>
      </trkpt>
      <trkpt lat="48.19953" lon="3.16956">
        <ele>182</ele>
        <time>2014-09-07T09:18:52.000Z</time>
      </trkpt>
      <trkpt lat="48.19957" lon="3.16956">
        <ele>182</ele>
        <time>2014-09-07T09:18:53.000Z</time>
      </trkpt>
      <trkpt lat="48.19962" lon="3.16956">
        <ele>182</ele>
        <time>2014-09-07T09:18:54.000Z</time>
      </trkpt>
      <trkpt lat="48.19967" lon="3.16953">
        <ele>182</ele>
        <time>2014-09-07T09:18:55.000Z</time>
      </trkpt>
      <trkpt lat="48.19971" lon="3.16953">
        <ele>182</ele>
        <time>2014-09-07T09:18:56.000Z</time>
      </trkpt>
      <trkpt lat="48.19977" lon="3.16953">
        <ele>182</ele>
        <time>2014-09-07T09:18:57.000Z</time>
      </trkpt>
      <trkpt lat="48.19981" lon="3.16953">
        <ele>182</ele>
        <time>2014-09-07T09:18:58.000Z</time>
      </trkpt>
      <trkpt lat="48.19985" lon="3.16953">
        <ele>182</ele>
        <time>2014-09-07T09:18:59.000Z</time>
      </trkpt>
      <trkpt lat="48.19991" lon="3.16951">
        <ele>182</ele>
        <time>2014-09-07T09:19:00.000Z</time>
      </trkpt>
      <trkpt lat="48.19995" lon="3.16951">
        <ele>182</ele>
        <time>2014-09-07T09:19:01.000Z</time>
      </trkpt>
      <trkpt lat="48.2" lon="3.16951">
        <ele>180</ele>
        <time>2014-09-07T09:19:02.000Z</time>
      </trkpt>
      <trkpt lat="48.20006" lon="3.16949">
        <ele>180</ele>
        <time>2014-09-07T09:19:03.000Z</time>
      </trkpt>
      <trkpt lat="48.20011" lon="3.16949">
        <ele>180</ele>
        <time>2014-09-07T09:19:04.000Z</time>
      </trkpt>
      <trkpt lat="48.20015" lon="3.16949">
        <ele>180</ele>
        <time>2014-09-07T09:19:05.000Z</time>
      </trkpt>
      <trkpt lat="48.20021" lon="3.16949">
        <ele>179</ele>
        <time>2014-09-07T09:19:06.000Z</time>
      </trkpt>
      <trkpt lat="48.20026" lon="3.16947">
        <ele>179</ele>
        <time>2014-09-07T09:19:07.000Z</time>
      </trkpt>
      <trkpt lat="48.2003" lon="3.16947">
        <ele>179</ele>
        <time>2014-09-07T09:19:08.000Z</time>
      </trkpt>
      <trkpt lat="48.20036" lon="3.16947">
        <ele>179</ele>
        <time>2014-09-07T09:19:09.000Z</time>
      </trkpt>
      <trkpt lat="48.2004" lon="3.16947">
        <ele>179</ele>
        <time>2014-09-07T09:19:10.000Z</time>
      </trkpt>
      <trkpt lat="48.20044" lon="3.16949">
        <ele>179</ele>
        <time>2014-09-07T09:19:11.000Z</time>
      </trkpt>
      <trkpt lat="48.2005" lon="3.16949">
        <ele>179</ele>
        <time>2014-09-07T09:19:12.000Z</time>
      </trkpt>
      <trkpt lat="48.20054" lon="3.16949">
        <ele>179</ele>
        <time>2014-09-07T09:19:13.000Z</time>
      </trkpt>
      <trkpt lat="48.20058" lon="3.16949">
        <ele>179</ele>
        <time>2014-09-07T09:19:14.000Z</time>
      </trkpt>
      <trkpt lat="48.20064" lon="3.16949">
        <ele>178</ele>
        <time>2014-09-07T09:19:15.000Z</time>
      </trkpt>
      <trkpt lat="48.20068" lon="3.16949">
        <ele>178</ele>
        <time>2014-09-07T09:19:16.000Z</time>
      </trkpt>
      <trkpt lat="48.20072" lon="3.16951">
        <ele>178</ele>
        <time>2014-09-07T09:19:17.000Z</time>
      </trkpt>
      <trkpt lat="48.20077" lon="3.16951">
        <ele>178</ele>
        <time>2014-09-07T09:19:18.000Z</time>
      </trkpt>
      <trkpt lat="48.20082" lon="3.16951">
        <ele>178</ele>
        <time>2014-09-07T09:19:19.000Z</time>
      </trkpt>
      <trkpt lat="48.20086" lon="3.16951">
        <ele>175</ele>
        <time>2014-09-07T09:19:20.000Z</time>
      </trkpt>
      <trkpt lat="48.20092" lon="3.16951">
        <ele>175</ele>
        <time>2014-09-07T09:19:21.000Z</time>
      </trkpt>
      <trkpt lat="48.20096" lon="3.16951">
        <ele>175</ele>
        <time>2014-09-07T09:19:22.000Z</time>
      </trkpt>
      <trkpt lat="48.20101" lon="3.16951">
        <ele>175</ele>
        <time>2014-09-07T09:19:23.000Z</time>
      </trkpt>
      <trkpt lat="48.20106" lon="3.16951">
        <ele>175</ele>
        <time>2014-09-07T09:19:24.000Z</time>
      </trkpt>
      <trkpt lat="48.20111" lon="3.16951">
        <ele>175</ele>
        <time>2014-09-07T09:19:25.000Z</time>
      </trkpt>
      <trkpt lat="48.20115" lon="3.16951">
        <ele>175</ele>
        <time>2014-09-07T09:19:26.000Z</time>
      </trkpt>
      <trkpt lat="48.20121" lon="3.16951">
        <ele>175</ele>
        <time>2014-09-07T09:19:27.000Z</time>
      </trkpt>
      <trkpt lat="48.20125" lon="3.16951">
        <ele>175</ele>
        <time>2014-09-07T09:19:28.000Z</time>
      </trkpt>
      <trkpt lat="48.2013" lon="3.16951">
        <ele>174</ele>
        <time>2014-09-07T09:19:29.000Z</time>
      </trkpt>
      <trkpt lat="48.20136" lon="3.16951">
        <ele>174</ele>
        <time>2014-09-07T09:19:30.000Z</time>
      </trkpt>
      <trkpt lat="48.20141" lon="3.16951">
        <ele>174</ele>
        <time>2014-09-07T09:19:31.000Z</time>
      </trkpt>
      <trkpt lat="48.20146" lon="3.16951">
        <ele>174</ele>
        <time>2014-09-07T09:19:32.000Z</time>
      </trkpt>
      <trkpt lat="48.20153" lon="3.16951">
        <ele>174</ele>
        <time>2014-09-07T09:19:33.000Z</time>
      </trkpt>
      <trkpt lat="48.20158" lon="3.16951">
        <ele>174</ele>
        <time>2014-09-07T09:19:34.000Z</time>
      </trkpt>
      <trkpt lat="48.20163" lon="3.16951">
        <ele>174</ele>
        <time>2014-09-07T09:19:35.000Z</time>
      </trkpt>
      <trkpt lat="48.20169" lon="3.16951">
        <ele>173</ele>
        <time>2014-09-07T09:19:36.000Z</time>
      </trkpt>
      <trkpt lat="48.20174" lon="3.16951">
        <ele>173</ele>
        <time>2014-09-07T09:19:37.000Z</time>
      </trkpt>
      <trkpt lat="48.2018" lon="3.16951">
        <ele>173</ele>
        <time>2014-09-07T09:19:38.000Z</time>
      </trkpt>
      <trkpt lat="48.20185" lon="3.16953">
        <ele>173</ele>
        <time>2014-09-07T09:19:39.000Z</time>
      </trkpt>
      <trkpt lat="48.2019" lon="3.16953">
        <ele>173</ele>
        <time>2014-09-07T09:19:40.000Z</time>
      </trkpt>
      <trkpt lat="48.20195" lon="3.16953">
        <ele>173</ele>
        <time>2014-09-07T09:19:41.000Z</time>
      </trkpt>
      <trkpt lat="48.20201" lon="3.16956">
        <ele>173</ele>
        <time>2014-09-07T09:19:42.000Z</time>
      </trkpt>
      <trkpt lat="48.20206" lon="3.16956">
        <ele>173</ele>
        <time>2014-09-07T09:19:43.000Z</time>
      </trkpt>
      <trkpt lat="48.20213" lon="3.16956">
        <ele>173</ele>
        <time>2014-09-07T09:19:44.000Z</time>
      </trkpt>
      <trkpt lat="48.20218" lon="3.16956">
        <ele>173</ele>
        <time>2014-09-07T09:19:45.000Z</time>
      </trkpt>
      <trkpt lat="48.20225" lon="3.16958">
        <ele>173</ele>
        <time>2014-09-07T09:19:46.000Z</time>
      </trkpt>
      <trkpt lat="48.2023" lon="3.16958">
        <ele>173</ele>
        <time>2014-09-07T09:19:47.000Z</time>
      </trkpt>
      <trkpt lat="48.20235" lon="3.16958">
        <ele>173</ele>
        <time>2014-09-07T09:19:48.000Z</time>
      </trkpt>
      <trkpt lat="48.20241" lon="3.16958">
        <ele>173</ele>
        <time>2014-09-07T09:19:49.000Z</time>
      </trkpt>
      <trkpt lat="48.20245" lon="3.1696">
        <ele>173</ele>
        <time>2014-09-07T09:19:50.000Z</time>
      </trkpt>
      <trkpt lat="48.2025" lon="3.1696">
        <ele>173</ele>
        <time>2014-09-07T09:19:51.000Z</time>
      </trkpt>
      <trkpt lat="48.20256" lon="3.1696">
        <ele>173</ele>
        <time>2014-09-07T09:19:52.000Z</time>
      </trkpt>
      <trkpt lat="48.2026" lon="3.16962">
        <ele>173</ele>
        <time>2014-09-07T09:19:53.000Z</time>
      </trkpt>
      <trkpt lat="48.20265" lon="3.16962">
        <ele>173</ele>
        <time>2014-09-07T09:19:54.000Z</time>
      </trkpt>
      <trkpt lat="48.20271" lon="3.16964">
        <ele>173</ele>
        <time>2014-09-07T09:19:55.000Z</time>
      </trkpt>
      <trkpt lat="48.20276" lon="3.16966">
        <ele>173</ele>
        <time>2014-09-07T09:19:56.000Z</time>
      </trkpt>
      <trkpt lat="48.20282" lon="3.16966">
        <ele>173</ele>
        <time>2014-09-07T09:19:57.000Z</time>
      </trkpt>
      <trkpt lat="48.20287" lon="3.16968">
        <ele>173</ele>
        <time>2014-09-07T09:19:58.000Z</time>
      </trkpt>
      <trkpt lat="48.20292" lon="3.16971">
        <ele>173</ele>
        <time>2014-09-07T09:19:59.000Z</time>
      </trkpt>
      <trkpt lat="48.20298" lon="3.16973">
        <ele>173</ele>
        <time>2014-09-07T09:20:00.000Z</time>
      </trkpt>
      <trkpt lat="48.20303" lon="3.16973">
        <ele>173</ele>
        <time>2014-09-07T09:20:01.000Z</time>
      </trkpt>
      <trkpt lat="48.20308" lon="3.16975">
        <ele>174</ele>
        <time>2014-09-07T09:20:02.000Z</time>
      </trkpt>
      <trkpt lat="48.20314" lon="3.16977">
        <ele>174</ele>
        <time>2014-09-07T09:20:03.000Z</time>
      </trkpt>
      <trkpt lat="48.20319" lon="3.16979">
        <ele>174</ele>
        <time>2014-09-07T09:20:04.000Z</time>
      </trkpt>
      <trkpt lat="48.20324" lon="3.16981">
        <ele>174</ele>
        <time>2014-09-07T09:20:05.000Z</time>
      </trkpt>
      <trkpt lat="48.20329" lon="3.16983">
        <ele>175</ele>
        <time>2014-09-07T09:20:06.000Z</time>
      </trkpt>
      <trkpt lat="48.20334" lon="3.16986">
        <ele>174</ele>
        <time>2014-09-07T09:20:07.000Z</time>
      </trkpt>
      <trkpt lat="48.20341" lon="3.16988">
        <ele>174</ele>
        <time>2014-09-07T09:20:08.000Z</time>
      </trkpt>
      <trkpt lat="48.20346" lon="3.16992">
        <ele>174</ele>
        <time>2014-09-07T09:20:09.000Z</time>
      </trkpt>
      <trkpt lat="48.20351" lon="3.16994">
        <ele>173</ele>
        <time>2014-09-07T09:20:10.000Z</time>
      </trkpt>
      <trkpt lat="48.20358" lon="3.16996">
        <ele>172</ele>
        <time>2014-09-07T09:20:11.000Z</time>
      </trkpt>
      <trkpt lat="48.20363" lon="3.16998">
        <ele>172</ele>
        <time>2014-09-07T09:20:12.000Z</time>
      </trkpt>
      <trkpt lat="48.20369" lon="3.17003">
        <ele>176</ele>
        <time>2014-09-07T09:20:13.000Z</time>
      </trkpt>
      <trkpt lat="48.20375" lon="3.17005">
        <ele>176</ele>
        <time>2014-09-07T09:20:14.000Z</time>
      </trkpt>
      <trkpt lat="48.20381" lon="3.17007">
        <ele>176</ele>
        <time>2014-09-07T09:20:15.000Z</time>
      </trkpt>
      <trkpt lat="48.20387" lon="3.17009">
        <ele>175</ele>
        <time>2014-09-07T09:20:16.000Z</time>
      </trkpt>
      <trkpt lat="48.20392" lon="3.17011">
        <ele>175</ele>
        <time>2014-09-07T09:20:17.000Z</time>
      </trkpt>
      <trkpt lat="48.20398" lon="3.17014">
        <ele>174</ele>
        <time>2014-09-07T09:20:18.000Z</time>
      </trkpt>
      <trkpt lat="48.20404" lon="3.17018">
        <ele>174</ele>
        <time>2014-09-07T09:20:19.000Z</time>
      </trkpt>
      <trkpt lat="48.20409" lon="3.1702">
        <ele>174</ele>
        <time>2014-09-07T09:20:20.000Z</time>
      </trkpt>
      <trkpt lat="48.20415" lon="3.17022">
        <ele>174</ele>
        <time>2014-09-07T09:20:21.000Z</time>
      </trkpt>
      <trkpt lat="48.20419" lon="3.17026">
        <ele>171</ele>
        <time>2014-09-07T09:20:22.000Z</time>
      </trkpt>
      <trkpt lat="48.20424" lon="3.17031">
        <ele>171</ele>
        <time>2014-09-07T09:20:23.000Z</time>
      </trkpt>
      <trkpt lat="48.20428" lon="3.17035">
        <ele>171</ele>
        <time>2014-09-07T09:20:24.000Z</time>
      </trkpt>
      <trkpt lat="48.20434" lon="3.17037">
        <ele>171</ele>
        <time>2014-09-07T09:20:25.000Z</time>
      </trkpt>
      <trkpt lat="48.20438" lon="3.17041">
        <ele>171</ele>
        <time>2014-09-07T09:20:26.000Z</time>
      </trkpt>
      <trkpt lat="48.20442" lon="3.17046">
        <ele>171</ele>
        <time>2014-09-07T09:20:27.000Z</time>
      </trkpt>
      <trkpt lat="48.20447" lon="3.1705">
        <ele>171</ele>
        <time>2014-09-07T09:20:28.000Z</time>
      </trkpt>
      <trkpt lat="48.20451" lon="3.17052">
        <ele>171</ele>
        <time>2014-09-07T09:20:29.000Z</time>
      </trkpt>
      <trkpt lat="48.20455" lon="3.17056">
        <ele>171</ele>
        <time>2014-09-07T09:20:30.000Z</time>
      </trkpt>
      <trkpt lat="48.2046" lon="3.17061">
        <ele>171</ele>
        <time>2014-09-07T09:20:31.000Z</time>
      </trkpt>
      <trkpt lat="48.20464" lon="3.17063">
        <ele>171</ele>
        <time>2014-09-07T09:20:32.000Z</time>
      </trkpt>
      <trkpt lat="48.20468" lon="3.17067">
        <ele>171</ele>
        <time>2014-09-07T09:20:33.000Z</time>
      </trkpt>
      <trkpt lat="48.20472" lon="3.17071">
        <ele>170</ele>
        <time>2014-09-07T09:20:34.000Z</time>
      </trkpt>
      <trkpt lat="48.20477" lon="3.17076">
        <ele>170</ele>
        <time>2014-09-07T09:20:35.000Z</time>
      </trkpt>
      <trkpt lat="48.20481" lon="3.1708">
        <ele>170</ele>
        <time>2014-09-07T09:20:36.000Z</time>
      </trkpt>
      <trkpt lat="48.20485" lon="3.17084">
        <ele>172</ele>
        <time>2014-09-07T09:20:37.000Z</time>
      </trkpt>
      <trkpt lat="48.2049" lon="3.17089">
        <ele>171</ele>
        <time>2014-09-07T09:20:38.000Z</time>
      </trkpt>
      <trkpt lat="48.20494" lon="3.17093">
        <ele>171</ele>
        <time>2014-09-07T09:20:39.000Z</time>
      </trkpt>
      <trkpt lat="48.20498" lon="3.17099">
        <ele>172</ele>
        <time>2014-09-07T09:20:40.000Z</time>
      </trkpt>
      <trkpt lat="48.20503" lon="3.17104">
        <ele>169</ele>
        <time>2014-09-07T09:20:41.000Z</time>
      </trkpt>
      <trkpt lat="48.20507" lon="3.17108">
        <ele>169</ele>
        <time>2014-09-07T09:20:42.000Z</time>
      </trkpt>
      <trkpt lat="48.20511" lon="3.17112">
        <ele>170</ele>
        <time>2014-09-07T09:20:43.000Z</time>
      </trkpt>
      <trkpt lat="48.20515" lon="3.17116">
        <ele>170</ele>
        <time>2014-09-07T09:20:44.000Z</time>
      </trkpt>
      <trkpt lat="48.2052" lon="3.17121">
        <ele>170</ele>
        <time>2014-09-07T09:20:45.000Z</time>
      </trkpt>
      <trkpt lat="48.20524" lon="3.17125">
        <ele>170</ele>
        <time>2014-09-07T09:20:46.000Z</time>
      </trkpt>
      <trkpt lat="48.20528" lon="3.17129">
        <ele>170</ele>
        <time>2014-09-07T09:20:47.000Z</time>
      </trkpt>
      <trkpt lat="48.20533" lon="3.17134">
        <ele>170</ele>
        <time>2014-09-07T09:20:48.000Z</time>
      </trkpt>
      <trkpt lat="48.20537" lon="3.17138">
        <ele>170</ele>
        <time>2014-09-07T09:20:49.000Z</time>
      </trkpt>
      <trkpt lat="48.20541" lon="3.17142">
        <ele>170</ele>
        <time>2014-09-07T09:20:50.000Z</time>
      </trkpt>
      <trkpt lat="48.20545" lon="3.17147">
        <ele>170</ele>
        <time>2014-09-07T09:20:51.000Z</time>
      </trkpt>
      <trkpt lat="48.2055" lon="3.17151">
        <ele>169</ele>
        <time>2014-09-07T09:20:52.000Z</time>
      </trkpt>
      <trkpt lat="48.20554" lon="3.17155">
        <ele>169</ele>
        <time>2014-09-07T09:20:53.000Z</time>
      </trkpt>
      <trkpt lat="48.20558" lon="3.17159">
        <ele>169</ele>
        <time>2014-09-07T09:20:54.000Z</time>
      </trkpt>
      <trkpt lat="48.20563" lon="3.17164">
        <ele>169</ele>
        <time>2014-09-07T09:20:55.000Z</time>
      </trkpt>
      <trkpt lat="48.20567" lon="3.17168">
        <ele>170</ele>
        <time>2014-09-07T09:20:56.000Z</time>
      </trkpt>
      <trkpt lat="48.20571" lon="3.17172">
        <ele>170</ele>
        <time>2014-09-07T09:20:57.000Z</time>
      </trkpt>
      <trkpt lat="48.20577" lon="3.17177">
        <ele>170</ele>
        <time>2014-09-07T09:20:58.000Z</time>
      </trkpt>
      <trkpt lat="48.20581" lon="3.17179">
        <ele>170</ele>
        <time>2014-09-07T09:20:59.000Z</time>
      </trkpt>
      <trkpt lat="48.20585" lon="3.17183">
        <ele>169</ele>
        <time>2014-09-07T09:21:00.000Z</time>
      </trkpt>
      <trkpt lat="48.20589" lon="3.17187">
        <ele>169</ele>
        <time>2014-09-07T09:21:01.000Z</time>
      </trkpt>
      <trkpt lat="48.20594" lon="3.17189">
        <ele>169</ele>
        <time>2014-09-07T09:21:02.000Z</time>
      </trkpt>
      <trkpt lat="48.20598" lon="3.17194">
        <ele>169</ele>
        <time>2014-09-07T09:21:03.000Z</time>
      </trkpt>
      <trkpt lat="48.20602" lon="3.17198">
        <ele>169</ele>
        <time>2014-09-07T09:21:04.000Z</time>
      </trkpt>
      <trkpt lat="48.20607" lon="3.172">
        <ele>169</ele>
        <time>2014-09-07T09:21:05.000Z</time>
      </trkpt>
      <trkpt lat="48.20612" lon="3.17204">
        <ele>169</ele>
        <time>2014-09-07T09:21:06.000Z</time>
      </trkpt>
      <trkpt lat="48.20616" lon="3.17207">
        <ele>169</ele>
        <time>2014-09-07T09:21:07.000Z</time>
      </trkpt>
      <trkpt lat="48.20621" lon="3.17211">
        <ele>170</ele>
        <time>2014-09-07T09:21:08.000Z</time>
      </trkpt>
      <trkpt lat="48.20624" lon="3.17213">
        <ele>170</ele>
        <time>2014-09-07T09:21:09.000Z</time>
      </trkpt>
      <trkpt lat="48.20628" lon="3.17217">
        <ele>170</ele>
        <time>2014-09-07T09:21:10.000Z</time>
      </trkpt>
      <trkpt lat="48.20632" lon="3.17219">
        <ele>170</ele>
        <time>2014-09-07T09:21:11.000Z</time>
      </trkpt>
      <trkpt lat="48.20637" lon="3.17222">
        <ele>170</ele>
        <time>2014-09-07T09:21:12.000Z</time>
      </trkpt>
      <trkpt lat="48.20641" lon="3.17224">
        <ele>169</ele>
        <time>2014-09-07T09:21:13.000Z</time>
      </trkpt>
      <trkpt lat="48.20644" lon="3.17228">
        <ele>169</ele>
        <time>2014-09-07T09:21:14.000Z</time>
      </trkpt>
      <trkpt lat="48.20648" lon="3.1723">
        <ele>169</ele>
        <time>2014-09-07T09:21:15.000Z</time>
      </trkpt>
      <trkpt lat="48.20651" lon="3.17232">
        <ele>169</ele>
        <time>2014-09-07T09:21:16.000Z</time>
      </trkpt>
      <trkpt lat="48.20654" lon="3.17235">
        <ele>169</ele>
        <time>2014-09-07T09:21:17.000Z</time>
      </trkpt>
      <trkpt lat="48.20657" lon="3.17237">
        <ele>169</ele>
        <time>2014-09-07T09:21:18.000Z</time>
      </trkpt>
      <trkpt lat="48.20659" lon="3.17239">
        <ele>169</ele>
        <time>2014-09-07T09:21:19.000Z</time>
      </trkpt>
      <trkpt lat="48.20661" lon="3.17243">
        <ele>169</ele>
        <time>2014-09-07T09:21:20.000Z</time>
      </trkpt>
      <trkpt lat="48.20662" lon="3.17245">
        <ele>169</ele>
        <time>2014-09-07T09:21:21.000Z</time>
      </trkpt>
      <trkpt lat="48.20666" lon="3.1725">
        <ele>169</ele>
        <time>2014-09-07T09:21:23.000Z</time>
      </trkpt>
      <trkpt lat="48.20667" lon="3.17254">
        <ele>169</ele>
        <time>2014-09-07T09:21:24.000Z</time>
      </trkpt>
      <trkpt lat="48.20669" lon="3.17258">
        <ele>170</ele>
        <time>2014-09-07T09:21:26.000Z</time>
      </trkpt>
      <trkpt lat="48.20669" lon="3.17262">
        <ele>170</ele>
        <time>2014-09-07T09:21:27.000Z</time>
      </trkpt>
      <trkpt lat="48.20672" lon="3.17267">
        <ele>170</ele>
        <time>2014-09-07T09:21:29.000Z</time>
      </trkpt>
      <trkpt lat="48.20673" lon="3.17269">
        <ele>170</ele>
        <time>2014-09-07T09:21:30.000Z</time>
      </trkpt>
      <trkpt lat="48.20675" lon="3.17273">
        <ele>171</ele>
        <time>2014-09-07T09:21:32.000Z</time>
      </trkpt>
      <trkpt lat="48.20676" lon="3.17275">
        <ele>171</ele>
        <time>2014-09-07T09:21:33.000Z</time>
      </trkpt>
      <trkpt lat="48.20677" lon="3.1728">
        <ele>171</ele>
        <time>2014-09-07T09:21:35.000Z</time>
      </trkpt>
      <trkpt lat="48.20678" lon="3.17282">
        <ele>171</ele>
        <time>2014-09-07T09:21:36.000Z</time>
      </trkpt>
      <trkpt lat="48.2068" lon="3.17286">
        <ele>171</ele>
        <time>2014-09-07T09:21:37.000Z</time>
      </trkpt>
      <trkpt lat="48.20681" lon="3.17288">
        <ele>171</ele>
        <time>2014-09-07T09:21:38.000Z</time>
      </trkpt>
      <trkpt lat="48.20682" lon="3.17292">
        <ele>171</ele>
        <time>2014-09-07T09:21:39.000Z</time>
      </trkpt>
      <trkpt lat="48.20683" lon="3.17295">
        <ele>171</ele>
        <time>2014-09-07T09:21:40.000Z</time>
      </trkpt>
      <trkpt lat="48.20686" lon="3.17299">
        <ele>171</ele>
        <time>2014-09-07T09:21:42.000Z</time>
      </trkpt>
      <trkpt lat="48.20688" lon="3.17303">
        <ele>171</ele>
        <time>2014-09-07T09:21:43.000Z</time>
      </trkpt>
      <trkpt lat="48.20689" lon="3.17305">
        <ele>171</ele>
        <time>2014-09-07T09:21:44.000Z</time>
      </trkpt>
      <trkpt lat="48.20691" lon="3.1731">
        <ele>171</ele>
        <time>2014-09-07T09:21:45.000Z</time>
      </trkpt>
      <trkpt lat="48.20692" lon="3.17314">
        <ele>171</ele>
        <time>2014-09-07T09:21:46.000Z</time>
      </trkpt>
      <trkpt lat="48.20693" lon="3.1732">
        <ele>171</ele>
        <time>2014-09-07T09:21:47.000Z</time>
      </trkpt>
      <trkpt lat="48.20696" lon="3.17325">
        <ele>171</ele>
        <time>2014-09-07T09:21:48.000Z</time>
      </trkpt>
      <trkpt lat="48.20698" lon="3.17329">
        <ele>171</ele>
        <time>2014-09-07T09:21:49.000Z</time>
      </trkpt>
      <trkpt lat="48.207" lon="3.17333">
        <ele>171</ele>
        <time>2014-09-07T09:21:50.000Z</time>
      </trkpt>
      <trkpt lat="48.20702" lon="3.17338">
        <ele>170</ele>
        <time>2014-09-07T09:21:51.000Z</time>
      </trkpt>
      <trkpt lat="48.20704" lon="3.17342">
        <ele>170</ele>
        <time>2014-09-07T09:21:52.000Z</time>
      </trkpt>
      <trkpt lat="48.20706" lon="3.17344">
        <ele>170</ele>
        <time>2014-09-07T09:21:53.000Z</time>
      </trkpt>
      <trkpt lat="48.20709" lon="3.17348">
        <ele>170</ele>
        <time>2014-09-07T09:21:54.000Z</time>
      </trkpt>
      <trkpt lat="48.2071" lon="3.1735">
        <ele>170</ele>
        <time>2014-09-07T09:21:55.000Z</time>
      </trkpt>
      <trkpt lat="48.20713" lon="3.17355">
        <ele>170</ele>
        <time>2014-09-07T09:22:29.000Z</time>
      </trkpt>
      <trkpt lat="48.20711" lon="3.17368">
        <ele>169</ele>
        <time>2014-09-07T09:22:30.000Z</time>
      </trkpt>
      <trkpt lat="48.20711" lon="3.17368">
        <ele>169</ele>
        <time>2014-09-07T09:22:33.000Z</time>
      </trkpt>
      <trkpt lat="48.20707" lon="3.17385">
        <ele>169</ele>
        <time>2014-09-07T09:22:34.000Z</time>
      </trkpt>
      <trkpt lat="48.20707" lon="3.17385">
        <ele>169</ele>
        <time>2014-09-07T09:22:36.000Z</time>
      </trkpt>
      <trkpt lat="48.20703" lon="3.174">
        <ele>169</ele>
        <time>2014-09-07T09:22:37.000Z</time>
      </trkpt>
      <trkpt lat="48.20703" lon="3.174">
        <ele>169</ele>
        <time>2014-09-07T09:22:38.000Z</time>
      </trkpt>
      <trkpt lat="48.20699" lon="3.17413">
        <ele>169</ele>
        <time>2014-09-07T09:22:39.000Z</time>
      </trkpt>
      <trkpt lat="48.20699" lon="3.17413">
        <ele>169</ele>
        <time>2014-09-07T09:22:40.000Z</time>
      </trkpt>
      <trkpt lat="48.20693" lon="3.17423">
        <ele>168</ele>
        <time>2014-09-07T09:22:41.000Z</time>
      </trkpt>
      <trkpt lat="48.20693" lon="3.17423">
        <ele>168</ele>
        <time>2014-09-07T09:22:42.000Z</time>
      </trkpt>
      <trkpt lat="48.20689" lon="3.17434">
        <ele>168</ele>
        <time>2014-09-07T09:22:43.000Z</time>
      </trkpt>
      <trkpt lat="48.20689" lon="3.17434">
        <ele>168</ele>
        <time>2014-09-07T09:22:45.000Z</time>
      </trkpt>
      <trkpt lat="48.20683" lon="3.17451">
        <ele>168</ele>
        <time>2014-09-07T09:22:46.000Z</time>
      </trkpt>
      <trkpt lat="48.20683" lon="3.17451">
        <ele>168</ele>
        <time>2014-09-07T09:22:48.000Z</time>
      </trkpt>
      <trkpt lat="48.20678" lon="3.17466">
        <ele>169</ele>
        <time>2014-09-07T09:22:49.000Z</time>
      </trkpt>
      <trkpt lat="48.20678" lon="3.17466">
        <ele>169</ele>
        <time>2014-09-07T09:22:52.000Z</time>
      </trkpt>
      <trkpt lat="48.20674" lon="3.17479">
        <ele>169</ele>
        <time>2014-09-07T09:22:53.000Z</time>
      </trkpt>
      <trkpt lat="48.20674" lon="3.17479">
        <ele>169</ele>
        <time>2014-09-07T09:23:01.000Z</time>
      </trkpt>
      <trkpt lat="48.2067" lon="3.17492">
        <ele>170</ele>
        <time>2014-09-07T09:23:02.000Z</time>
      </trkpt>
      <trkpt lat="48.2067" lon="3.17492">
        <ele>170</ele>
        <time>2014-09-07T09:23:11.000Z</time>
      </trkpt>
      <trkpt lat="48.20666" lon="3.17507">
        <ele>171</ele>
        <time>2014-09-07T09:23:12.000Z</time>
      </trkpt>
      <trkpt lat="48.20666" lon="3.17507">
        <ele>171</ele>
        <time>2014-09-07T09:23:15.000Z</time>
      </trkpt>
      <trkpt lat="48.20674" lon="3.17513">
        <ele>170</ele>
        <time>2014-09-07T09:23:16.000Z</time>
      </trkpt>
      <trkpt lat="48.20674" lon="3.17513">
        <ele>170</ele>
        <time>2014-09-07T09:23:17.000Z</time>
      </trkpt>
      <trkpt lat="48.20683" lon="3.17516">
        <ele>169</ele>
        <time>2014-09-07T09:23:18.000Z</time>
      </trkpt>
      <trkpt lat="48.20683" lon="3.17516">
        <ele>169</ele>
        <time>2014-09-07T09:23:19.000Z</time>
      </trkpt>
      <trkpt lat="48.20692" lon="3.1752">
        <ele>169</ele>
        <time>2014-09-07T09:23:20.000Z</time>
      </trkpt>
      <trkpt lat="48.20692" lon="3.1752">
        <ele>169</ele>
        <time>2014-09-07T09:23:21.000Z</time>
      </trkpt>
      <trkpt lat="48.20703" lon="3.17524">
        <ele>168</ele>
        <time>2014-09-07T09:23:22.000Z</time>
      </trkpt>
      <trkpt lat="48.20703" lon="3.17524">
        <ele>168</ele>
        <time>2014-09-07T09:23:23.000Z</time>
      </trkpt>
      <trkpt lat="48.20712" lon="3.17533">
        <ele>168</ele>
        <time>2014-09-07T09:23:24.000Z</time>
      </trkpt>
      <trkpt lat="48.20715" lon="3.17539">
        <ele>168</ele>
        <time>2014-09-07T09:23:25.000Z</time>
      </trkpt>
      <trkpt lat="48.20719" lon="3.17544">
        <ele>168</ele>
        <time>2014-09-07T09:23:26.000Z</time>
      </trkpt>
      <trkpt lat="48.20722" lon="3.17552">
        <ele>167</ele>
        <time>2014-09-07T09:23:27.000Z</time>
      </trkpt>
      <trkpt lat="48.20726" lon="3.17559">
        <ele>167</ele>
        <time>2014-09-07T09:23:28.000Z</time>
      </trkpt>
      <trkpt lat="48.20729" lon="3.17567">
        <ele>166</ele>
        <time>2014-09-07T09:23:29.000Z</time>
      </trkpt>
      <trkpt lat="48.20731" lon="3.17574">
        <ele>166</ele>
        <time>2014-09-07T09:23:30.000Z</time>
      </trkpt>
      <trkpt lat="48.20733" lon="3.17582">
        <ele>166</ele>
        <time>2014-09-07T09:23:31.000Z</time>
      </trkpt>
      <trkpt lat="48.20735" lon="3.17589">
        <ele>165</ele>
        <time>2014-09-07T09:23:32.000Z</time>
      </trkpt>
      <trkpt lat="48.20737" lon="3.17595">
        <ele>165</ele>
        <time>2014-09-07T09:23:33.000Z</time>
      </trkpt>
      <trkpt lat="48.2074" lon="3.17601">
        <ele>166</ele>
        <time>2014-09-07T09:23:34.000Z</time>
      </trkpt>
      <trkpt lat="48.20742" lon="3.17608">
        <ele>166</ele>
        <time>2014-09-07T09:23:35.000Z</time>
      </trkpt>
      <trkpt lat="48.20744" lon="3.17614">
        <ele>166</ele>
        <time>2014-09-07T09:23:36.000Z</time>
      </trkpt>
      <trkpt lat="48.20745" lon="3.17621">
        <ele>166</ele>
        <time>2014-09-07T09:23:37.000Z</time>
      </trkpt>
      <trkpt lat="48.20747" lon="3.17625">
        <ele>166</ele>
        <time>2014-09-07T09:23:38.000Z</time>
      </trkpt>
      <trkpt lat="48.20748" lon="3.17631">
        <ele>166</ele>
        <time>2014-09-07T09:23:39.000Z</time>
      </trkpt>
      <trkpt lat="48.2075" lon="3.17638">
        <ele>162</ele>
        <time>2014-09-07T09:23:40.000Z</time>
      </trkpt>
      <trkpt lat="48.20751" lon="3.17644">
        <ele>163</ele>
        <time>2014-09-07T09:23:41.000Z</time>
      </trkpt>
      <trkpt lat="48.20754" lon="3.17651">
        <ele>163</ele>
        <time>2014-09-07T09:23:42.000Z</time>
      </trkpt>
      <trkpt lat="48.20755" lon="3.17657">
        <ele>163</ele>
        <time>2014-09-07T09:23:43.000Z</time>
      </trkpt>
      <trkpt lat="48.20757" lon="3.17664">
        <ele>163</ele>
        <time>2014-09-07T09:23:44.000Z</time>
      </trkpt>
      <trkpt lat="48.20758" lon="3.1767">
        <ele>163</ele>
        <time>2014-09-07T09:23:45.000Z</time>
      </trkpt>
      <trkpt lat="48.2076" lon="3.17677">
        <ele>162</ele>
        <time>2014-09-07T09:23:46.000Z</time>
      </trkpt>
      <trkpt lat="48.20761" lon="3.17683">
        <ele>162</ele>
        <time>2014-09-07T09:23:47.000Z</time>
      </trkpt>
      <trkpt lat="48.20763" lon="3.17689">
        <ele>161</ele>
        <time>2014-09-07T09:23:48.000Z</time>
      </trkpt>
      <trkpt lat="48.20765" lon="3.17696">
        <ele>161</ele>
        <time>2014-09-07T09:23:49.000Z</time>
      </trkpt>
      <trkpt lat="48.20766" lon="3.17702">
        <ele>161</ele>
        <time>2014-09-07T09:23:50.000Z</time>
      </trkpt>
      <trkpt lat="48.20769" lon="3.17709">
        <ele>161</ele>
        <time>2014-09-07T09:23:51.000Z</time>
      </trkpt>
      <trkpt lat="48.20771" lon="3.17717">
        <ele>161</ele>
        <time>2014-09-07T09:23:52.000Z</time>
      </trkpt>
      <trkpt lat="48.20772" lon="3.17724">
        <ele>161</ele>
        <time>2014-09-07T09:23:53.000Z</time>
      </trkpt>
      <trkpt lat="48.20774" lon="3.1773">
        <ele>161</ele>
        <time>2014-09-07T09:23:54.000Z</time>
      </trkpt>
      <trkpt lat="48.20777" lon="3.17737">
        <ele>161</ele>
        <time>2014-09-07T09:23:55.000Z</time>
      </trkpt>
      <trkpt lat="48.20779" lon="3.17745">
        <ele>161</ele>
        <time>2014-09-07T09:23:56.000Z</time>
      </trkpt>
      <trkpt lat="48.20781" lon="3.17754">
        <ele>161</ele>
        <time>2014-09-07T09:23:57.000Z</time>
      </trkpt>
      <trkpt lat="48.20785" lon="3.17765">
        <ele>161</ele>
        <time>2014-09-07T09:23:58.000Z</time>
      </trkpt>
      <trkpt lat="48.20787" lon="3.17773">
        <ele>161</ele>
        <time>2014-09-07T09:23:59.000Z</time>
      </trkpt>
      <trkpt lat="48.2079" lon="3.17782">
        <ele>161</ele>
        <time>2014-09-07T09:24:00.000Z</time>
      </trkpt>
      <trkpt lat="48.20792" lon="3.1779">
        <ele>161</ele>
        <time>2014-09-07T09:24:01.000Z</time>
      </trkpt>
      <trkpt lat="48.20795" lon="3.17799">
        <ele>161</ele>
        <time>2014-09-07T09:24:02.000Z</time>
      </trkpt>
      <trkpt lat="48.20799" lon="3.17807">
        <ele>161</ele>
        <time>2014-09-07T09:24:03.000Z</time>
      </trkpt>
      <trkpt lat="48.20801" lon="3.17816">
        <ele>160</ele>
        <time>2014-09-07T09:24:04.000Z</time>
      </trkpt>
      <trkpt lat="48.20804" lon="3.17825">
        <ele>160</ele>
        <time>2014-09-07T09:24:05.000Z</time>
      </trkpt>
      <trkpt lat="48.20806" lon="3.17833">
        <ele>160</ele>
        <time>2014-09-07T09:24:06.000Z</time>
      </trkpt>
      <trkpt lat="48.20809" lon="3.17842">
        <ele>160</ele>
        <time>2014-09-07T09:24:07.000Z</time>
      </trkpt>
      <trkpt lat="48.20813" lon="3.1785">
        <ele>160</ele>
        <time>2014-09-07T09:24:08.000Z</time>
      </trkpt>
      <trkpt lat="48.20815" lon="3.17859">
        <ele>160</ele>
        <time>2014-09-07T09:24:09.000Z</time>
      </trkpt>
      <trkpt lat="48.20818" lon="3.17868">
        <ele>160</ele>
        <time>2014-09-07T09:24:10.000Z</time>
      </trkpt>
      <trkpt lat="48.2082" lon="3.17876">
        <ele>160</ele>
        <time>2014-09-07T09:24:11.000Z</time>
      </trkpt>
      <trkpt lat="48.20822" lon="3.17883">
        <ele>160</ele>
        <time>2014-09-07T09:24:12.000Z</time>
      </trkpt>
      <trkpt lat="48.20824" lon="3.17891">
        <ele>159</ele>
        <time>2014-09-07T09:24:13.000Z</time>
      </trkpt>
      <trkpt lat="48.20827" lon="3.17898">
        <ele>159</ele>
        <time>2014-09-07T09:24:14.000Z</time>
      </trkpt>
      <trkpt lat="48.20829" lon="3.17906">
        <ele>158</ele>
        <time>2014-09-07T09:24:15.000Z</time>
      </trkpt>
      <trkpt lat="48.20831" lon="3.17913">
        <ele>157</ele>
        <time>2014-09-07T09:24:16.000Z</time>
      </trkpt>
      <trkpt lat="48.20832" lon="3.17919">
        <ele>156</ele>
        <time>2014-09-07T09:24:17.000Z</time>
      </trkpt>
      <trkpt lat="48.20833" lon="3.17923">
        <ele>157</ele>
        <time>2014-09-07T09:24:18.000Z</time>
      </trkpt>
      <trkpt lat="48.20834" lon="3.1793">
        <ele>155</ele>
        <time>2014-09-07T09:24:19.000Z</time>
      </trkpt>
      <trkpt lat="48.20835" lon="3.17934">
        <ele>155</ele>
        <time>2014-09-07T09:24:20.000Z</time>
      </trkpt>
      <trkpt lat="48.20836" lon="3.17938">
        <ele>155</ele>
        <time>2014-09-07T09:24:21.000Z</time>
      </trkpt>
      <trkpt lat="48.20837" lon="3.17943">
        <ele>155</ele>
        <time>2014-09-07T09:24:22.000Z</time>
      </trkpt>
      <trkpt lat="48.20838" lon="3.17947">
        <ele>155</ele>
        <time>2014-09-07T09:24:23.000Z</time>
      </trkpt>
      <trkpt lat="48.20838" lon="3.17951">
        <ele>155</ele>
        <time>2014-09-07T09:24:24.000Z</time>
      </trkpt>
      <trkpt lat="48.20839" lon="3.17958">
        <ele>155</ele>
        <time>2014-09-07T09:24:25.000Z</time>
      </trkpt>
      <trkpt lat="48.2084" lon="3.17962">
        <ele>155</ele>
        <time>2014-09-07T09:24:26.000Z</time>
      </trkpt>
      <trkpt lat="48.20842" lon="3.17966">
        <ele>155</ele>
        <time>2014-09-07T09:24:27.000Z</time>
      </trkpt>
      <trkpt lat="48.20842" lon="3.17973">
        <ele>155</ele>
        <time>2014-09-07T09:24:28.000Z</time>
      </trkpt>
      <trkpt lat="48.20843" lon="3.17979">
        <ele>155</ele>
        <time>2014-09-07T09:24:29.000Z</time>
      </trkpt>
      <trkpt lat="48.20843" lon="3.17983">
        <ele>155</ele>
        <time>2014-09-07T09:24:30.000Z</time>
      </trkpt>
      <trkpt lat="48.20844" lon="3.1799">
        <ele>156</ele>
        <time>2014-09-07T09:24:31.000Z</time>
      </trkpt>
      <trkpt lat="48.20844" lon="3.17996">
        <ele>156</ele>
        <time>2014-09-07T09:24:32.000Z</time>
      </trkpt>
      <trkpt lat="48.20844" lon="3.18003">
        <ele>156</ele>
        <time>2014-09-07T09:24:33.000Z</time>
      </trkpt>
      <trkpt lat="48.20845" lon="3.18009">
        <ele>155</ele>
        <time>2014-09-07T09:24:34.000Z</time>
      </trkpt>
      <trkpt lat="48.20845" lon="3.18016">
        <ele>155</ele>
        <time>2014-09-07T09:24:35.000Z</time>
      </trkpt>
      <trkpt lat="48.20843" lon="3.18022">
        <ele>155</ele>
        <time>2014-09-07T09:24:36.000Z</time>
      </trkpt>
      <trkpt lat="48.20842" lon="3.18028">
        <ele>155</ele>
        <time>2014-09-07T09:24:37.000Z</time>
      </trkpt>
      <trkpt lat="48.2084" lon="3.18033">
        <ele>155</ele>
        <time>2014-09-07T09:24:38.000Z</time>
      </trkpt>
      <trkpt lat="48.20839" lon="3.18039">
        <ele>154</ele>
        <time>2014-09-07T09:24:39.000Z</time>
      </trkpt>
      <trkpt lat="48.20838" lon="3.18046">
        <ele>154</ele>
        <time>2014-09-07T09:24:40.000Z</time>
      </trkpt>
      <trkpt lat="48.20836" lon="3.18054">
        <ele>154</ele>
        <time>2014-09-07T09:24:41.000Z</time>
      </trkpt>
      <trkpt lat="48.20835" lon="3.18063">
        <ele>154</ele>
        <time>2014-09-07T09:24:42.000Z</time>
      </trkpt>
      <trkpt lat="48.20833" lon="3.18074">
        <ele>156</ele>
        <time>2014-09-07T09:24:43.000Z</time>
      </trkpt>
      <trkpt lat="48.20831" lon="3.18086">
        <ele>155</ele>
        <time>2014-09-07T09:24:44.000Z</time>
      </trkpt>
      <trkpt lat="48.20829" lon="3.18097">
        <ele>155</ele>
        <time>2014-09-07T09:24:45.000Z</time>
      </trkpt>
      <trkpt lat="48.20827" lon="3.18108">
        <ele>155</ele>
        <time>2014-09-07T09:24:46.000Z</time>
      </trkpt>
      <trkpt lat="48.20824" lon="3.18119">
        <ele>155</ele>
        <time>2014-09-07T09:24:47.000Z</time>
      </trkpt>
      <trkpt lat="48.20821" lon="3.18127">
        <ele>155</ele>
        <time>2014-09-07T09:24:48.000Z</time>
      </trkpt>
      <trkpt lat="48.20819" lon="3.18138">
        <ele>155</ele>
        <time>2014-09-07T09:24:49.000Z</time>
      </trkpt>
      <trkpt lat="48.20816" lon="3.18146">
        <ele>155</ele>
        <time>2014-09-07T09:24:50.000Z</time>
      </trkpt>
      <trkpt lat="48.20813" lon="3.18155">
        <ele>155</ele>
        <time>2014-09-07T09:24:51.000Z</time>
      </trkpt>
      <trkpt lat="48.20809" lon="3.18164">
        <ele>155</ele>
        <time>2014-09-07T09:24:52.000Z</time>
      </trkpt>
      <trkpt lat="48.20806" lon="3.18172">
        <ele>153</ele>
        <time>2014-09-07T09:24:53.000Z</time>
      </trkpt>
      <trkpt lat="48.20803" lon="3.18179">
        <ele>153</ele>
        <time>2014-09-07T09:24:54.000Z</time>
      </trkpt>
      <trkpt lat="48.208" lon="3.18185">
        <ele>153</ele>
        <time>2014-09-07T09:24:55.000Z</time>
      </trkpt>
      <trkpt lat="48.20798" lon="3.18192">
        <ele>153</ele>
        <time>2014-09-07T09:24:56.000Z</time>
      </trkpt>
      <trkpt lat="48.20795" lon="3.18196">
        <ele>153</ele>
        <time>2014-09-07T09:24:57.000Z</time>
      </trkpt>
      <trkpt lat="48.20793" lon="3.18198">
        <ele>152</ele>
        <time>2014-09-07T09:24:58.000Z</time>
      </trkpt>
      <trkpt lat="48.20791" lon="3.18202">
        <ele>152</ele>
        <time>2014-09-07T09:24:59.000Z</time>
      </trkpt>
      <trkpt lat="48.20789" lon="3.18207">
        <ele>152</ele>
        <time>2014-09-07T09:25:00.000Z</time>
      </trkpt>
      <trkpt lat="48.20787" lon="3.18211">
        <ele>152</ele>
        <time>2014-09-07T09:25:01.000Z</time>
      </trkpt>
      <trkpt lat="48.20785" lon="3.18215">
        <ele>152</ele>
        <time>2014-09-07T09:25:02.000Z</time>
      </trkpt>
      <trkpt lat="48.20785" lon="3.18215">
        <ele>152</ele>
        <time>2014-09-07T09:25:05.000Z</time>
      </trkpt>
      <trkpt lat="48.20776" lon="3.18222">
        <ele>152</ele>
        <time>2014-09-07T09:25:06.000Z</time>
      </trkpt>
      <trkpt lat="48.20776" lon="3.18222">
        <ele>152</ele>
        <time>2014-09-07T09:25:19.000Z</time>
      </trkpt>
      <trkpt lat="48.20784" lon="3.18232">
        <ele>152</ele>
        <time>2014-09-07T09:25:20.000Z</time>
      </trkpt>
      <trkpt lat="48.20784" lon="3.18232">
        <ele>152</ele>
        <time>2014-09-07T09:25:24.000Z</time>
      </trkpt>
      <trkpt lat="48.20794" lon="3.18237">
        <ele>152</ele>
        <time>2014-09-07T09:25:25.000Z</time>
      </trkpt>
      <trkpt lat="48.20794" lon="3.18237">
        <ele>152</ele>
        <time>2014-09-07T09:25:28.000Z</time>
      </trkpt>
      <trkpt lat="48.20803" lon="3.18241">
        <ele>152</ele>
        <time>2014-09-07T09:25:29.000Z</time>
      </trkpt>
      <trkpt lat="48.20803" lon="3.18241">
        <ele>152</ele>
        <time>2014-09-07T09:25:31.000Z</time>
      </trkpt>
      <trkpt lat="48.20813" lon="3.18245">
        <ele>151</ele>
        <time>2014-09-07T09:25:32.000Z</time>
      </trkpt>
      <trkpt lat="48.20817" lon="3.18247">
        <ele>151</ele>
        <time>2014-09-07T09:25:33.000Z</time>
      </trkpt>
      <trkpt lat="48.20821" lon="3.18249">
        <ele>151</ele>
        <time>2014-09-07T09:25:34.000Z</time>
      </trkpt>
      <trkpt lat="48.20827" lon="3.18252">
        <ele>151</ele>
        <time>2014-09-07T09:25:35.000Z</time>
      </trkpt>
      <trkpt lat="48.20831" lon="3.18254">
        <ele>151</ele>
        <time>2014-09-07T09:25:36.000Z</time>
      </trkpt>
      <trkpt lat="48.20835" lon="3.18256">
        <ele>151</ele>
        <time>2014-09-07T09:25:37.000Z</time>
      </trkpt>
      <trkpt lat="48.20839" lon="3.18258">
        <ele>151</ele>
        <time>2014-09-07T09:25:38.000Z</time>
      </trkpt>
      <trkpt lat="48.20844" lon="3.1826">
        <ele>152</ele>
        <time>2014-09-07T09:25:39.000Z</time>
      </trkpt>
      <trkpt lat="48.20848" lon="3.18262">
        <ele>152</ele>
        <time>2014-09-07T09:25:40.000Z</time>
      </trkpt>
      <trkpt lat="48.20852" lon="3.18264">
        <ele>153</ele>
        <time>2014-09-07T09:25:41.000Z</time>
      </trkpt>
      <trkpt lat="48.20855" lon="3.18267">
        <ele>153</ele>
        <time>2014-09-07T09:25:42.000Z</time>
      </trkpt>
      <trkpt lat="48.2086" lon="3.18269">
        <ele>153</ele>
        <time>2014-09-07T09:25:43.000Z</time>
      </trkpt>
      <trkpt lat="48.20863" lon="3.18271">
        <ele>153</ele>
        <time>2014-09-07T09:25:44.000Z</time>
      </trkpt>
      <trkpt lat="48.20866" lon="3.18273">
        <ele>153</ele>
        <time>2014-09-07T09:25:45.000Z</time>
      </trkpt>
      <trkpt lat="48.20869" lon="3.18275">
        <ele>153</ele>
        <time>2014-09-07T09:25:46.000Z</time>
      </trkpt>
      <trkpt lat="48.20873" lon="3.18277">
        <ele>154</ele>
        <time>2014-09-07T09:25:47.000Z</time>
      </trkpt>
      <trkpt lat="48.20876" lon="3.1828">
        <ele>154</ele>
        <time>2014-09-07T09:25:48.000Z</time>
      </trkpt>
      <trkpt lat="48.20879" lon="3.18282">
        <ele>154</ele>
        <time>2014-09-07T09:25:49.000Z</time>
      </trkpt>
      <trkpt lat="48.20881" lon="3.18282">
        <ele>154</ele>
        <time>2014-09-07T09:25:50.000Z</time>
      </trkpt>
      <trkpt lat="48.20884" lon="3.18284">
        <ele>154</ele>
        <time>2014-09-07T09:25:51.000Z</time>
      </trkpt>
      <trkpt lat="48.20888" lon="3.18286">
        <ele>154</ele>
        <time>2014-09-07T09:25:52.000Z</time>
      </trkpt>
      <trkpt lat="48.20891" lon="3.18286">
        <ele>154</ele>
        <time>2014-09-07T09:25:53.000Z</time>
      </trkpt>
      <trkpt lat="48.20893" lon="3.18288">
        <ele>154</ele>
        <time>2014-09-07T09:25:54.000Z</time>
      </trkpt>
      <trkpt lat="48.20896" lon="3.18288">
        <ele>154</ele>
        <time>2014-09-07T09:25:55.000Z</time>
      </trkpt>
      <trkpt lat="48.20898" lon="3.1829">
        <ele>154</ele>
        <time>2014-09-07T09:25:56.000Z</time>
      </trkpt>
      <trkpt lat="48.20902" lon="3.1829">
        <ele>154</ele>
        <time>2014-09-07T09:25:57.000Z</time>
      </trkpt>
      <trkpt lat="48.20904" lon="3.18292">
        <ele>155</ele>
        <time>2014-09-07T09:25:58.000Z</time>
      </trkpt>
      <trkpt lat="48.20907" lon="3.18292">
        <ele>155</ele>
        <time>2014-09-07T09:25:59.000Z</time>
      </trkpt>
      <trkpt lat="48.20909" lon="3.18292">
        <ele>155</ele>
        <time>2014-09-07T09:26:00.000Z</time>
      </trkpt>
      <trkpt lat="48.20912" lon="3.18295">
        <ele>155</ele>
        <time>2014-09-07T09:26:01.000Z</time>
      </trkpt>
      <trkpt lat="48.20915" lon="3.18295">
        <ele>155</ele>
        <time>2014-09-07T09:26:02.000Z</time>
      </trkpt>
      <trkpt lat="48.20918" lon="3.18295">
        <ele>154</ele>
        <time>2014-09-07T09:26:03.000Z</time>
      </trkpt>
      <trkpt lat="48.20921" lon="3.18297">
        <ele>154</ele>
        <time>2014-09-07T09:26:04.000Z</time>
      </trkpt>
      <trkpt lat="48.20923" lon="3.18299">
        <ele>154</ele>
        <time>2014-09-07T09:26:05.000Z</time>
      </trkpt>
      <trkpt lat="48.20926" lon="3.18299">
        <ele>154</ele>
        <time>2014-09-07T09:26:06.000Z</time>
      </trkpt>
      <trkpt lat="48.20928" lon="3.18301">
        <ele>154</ele>
        <time>2014-09-07T09:26:07.000Z</time>
      </trkpt>
      <trkpt lat="48.20932" lon="3.18301">
        <ele>154</ele>
        <time>2014-09-07T09:26:08.000Z</time>
      </trkpt>
      <trkpt lat="48.20935" lon="3.18301">
        <ele>154</ele>
        <time>2014-09-07T09:26:09.000Z</time>
      </trkpt>
      <trkpt lat="48.20937" lon="3.18303">
        <ele>154</ele>
        <time>2014-09-07T09:26:10.000Z</time>
      </trkpt>
      <trkpt lat="48.2094" lon="3.18303">
        <ele>154</ele>
        <time>2014-09-07T09:26:11.000Z</time>
      </trkpt>
      <trkpt lat="48.20943" lon="3.18305">
        <ele>154</ele>
        <time>2014-09-07T09:26:12.000Z</time>
      </trkpt>
      <trkpt lat="48.20947" lon="3.18305">
        <ele>154</ele>
        <time>2014-09-07T09:26:13.000Z</time>
      </trkpt>
      <trkpt lat="48.2095" lon="3.18307">
        <ele>154</ele>
        <time>2014-09-07T09:26:14.000Z</time>
      </trkpt>
      <trkpt lat="48.20953" lon="3.18307">
        <ele>154</ele>
        <time>2014-09-07T09:26:15.000Z</time>
      </trkpt>
      <trkpt lat="48.20956" lon="3.18307">
        <ele>154</ele>
        <time>2014-09-07T09:26:16.000Z</time>
      </trkpt>
      <trkpt lat="48.20961" lon="3.1831">
        <ele>154</ele>
        <time>2014-09-07T09:26:17.000Z</time>
      </trkpt>
      <trkpt lat="48.20964" lon="3.1831">
        <ele>154</ele>
        <time>2014-09-07T09:26:18.000Z</time>
      </trkpt>
      <trkpt lat="48.20968" lon="3.1831">
        <ele>154</ele>
        <time>2014-09-07T09:26:19.000Z</time>
      </trkpt>
      <trkpt lat="48.20971" lon="3.1831">
        <ele>154</ele>
        <time>2014-09-07T09:26:20.000Z</time>
      </trkpt>
      <trkpt lat="48.20976" lon="3.1831">
        <ele>154</ele>
        <time>2014-09-07T09:26:21.000Z</time>
      </trkpt>
      <trkpt lat="48.2098" lon="3.1831">
        <ele>154</ele>
        <time>2014-09-07T09:26:22.000Z</time>
      </trkpt>
      <trkpt lat="48.20985" lon="3.1831">
        <ele>154</ele>
        <time>2014-09-07T09:26:23.000Z</time>
      </trkpt>
      <trkpt lat="48.20992" lon="3.1831">
        <ele>154</ele>
        <time>2014-09-07T09:26:24.000Z</time>
      </trkpt>
      <trkpt lat="48.20998" lon="3.1831">
        <ele>154</ele>
        <time>2014-09-07T09:26:25.000Z</time>
      </trkpt>
      <trkpt lat="48.21006" lon="3.1831">
        <ele>152</ele>
        <time>2014-09-07T09:26:26.000Z</time>
      </trkpt>
      <trkpt lat="48.21013" lon="3.1831">
        <ele>151</ele>
        <time>2014-09-07T09:26:27.000Z</time>
      </trkpt>
      <trkpt lat="48.21022" lon="3.18307">
        <ele>151</ele>
        <time>2014-09-07T09:26:28.000Z</time>
      </trkpt>
      <trkpt lat="48.21029" lon="3.18307">
        <ele>150</ele>
        <time>2014-09-07T09:26:29.000Z</time>
      </trkpt>
      <trkpt lat="48.21037" lon="3.18305">
        <ele>150</ele>
        <time>2014-09-07T09:26:30.000Z</time>
      </trkpt>
      <trkpt lat="48.21043" lon="3.18305">
        <ele>150</ele>
        <time>2014-09-07T09:26:31.000Z</time>
      </trkpt>
      <trkpt lat="48.2105" lon="3.18303">
        <ele>149</ele>
        <time>2014-09-07T09:26:32.000Z</time>
      </trkpt>
      <trkpt lat="48.21055" lon="3.18301">
        <ele>149</ele>
        <time>2014-09-07T09:26:33.000Z</time>
      </trkpt>
      <trkpt lat="48.2106" lon="3.18299">
        <ele>149</ele>
        <time>2014-09-07T09:26:34.000Z</time>
      </trkpt>
      <trkpt lat="48.21066" lon="3.18297">
        <ele>149</ele>
        <time>2014-09-07T09:26:35.000Z</time>
      </trkpt>
      <trkpt lat="48.21071" lon="3.18295">
        <ele>148</ele>
        <time>2014-09-07T09:26:36.000Z</time>
      </trkpt>
      <trkpt lat="48.21075" lon="3.18295">
        <ele>148</ele>
        <time>2014-09-07T09:26:37.000Z</time>
      </trkpt>
      <trkpt lat="48.2108" lon="3.18292">
        <ele>148</ele>
        <time>2014-09-07T09:26:38.000Z</time>
      </trkpt>
      <trkpt lat="48.21084" lon="3.18292">
        <ele>145</ele>
        <time>2014-09-07T09:26:39.000Z</time>
      </trkpt>
      <trkpt lat="48.2109" lon="3.18292">
        <ele>145</ele>
        <time>2014-09-07T09:26:40.000Z</time>
      </trkpt>
      <trkpt lat="48.21099" lon="3.18292">
        <ele>145</ele>
        <time>2014-09-07T09:26:41.000Z</time>
      </trkpt>
      <trkpt lat="48.21107" lon="3.1829">
        <ele>145</ele>
        <time>2014-09-07T09:26:42.000Z</time>
      </trkpt>
      <trkpt lat="48.21114" lon="3.1829">
        <ele>145</ele>
        <time>2014-09-07T09:26:43.000Z</time>
      </trkpt>
      <trkpt lat="48.21121" lon="3.18288">
        <ele>144</ele>
        <time>2014-09-07T09:26:44.000Z</time>
      </trkpt>
      <trkpt lat="48.21128" lon="3.18286">
        <ele>144</ele>
        <time>2014-09-07T09:26:45.000Z</time>
      </trkpt>
      <trkpt lat="48.21134" lon="3.18284">
        <ele>144</ele>
        <time>2014-09-07T09:26:46.000Z</time>
      </trkpt>
      <trkpt lat="48.21141" lon="3.18282">
        <ele>143</ele>
        <time>2014-09-07T09:26:47.000Z</time>
      </trkpt>
      <trkpt lat="48.21147" lon="3.1828">
        <ele>143</ele>
        <time>2014-09-07T09:26:48.000Z</time>
      </trkpt>
      <trkpt lat="48.21154" lon="3.1828">
        <ele>143</ele>
        <time>2014-09-07T09:26:49.000Z</time>
      </trkpt>
      <trkpt lat="48.2116" lon="3.1828">
        <ele>143</ele>
        <time>2014-09-07T09:26:50.000Z</time>
      </trkpt>
      <trkpt lat="48.21167" lon="3.1828">
        <ele>143</ele>
        <time>2014-09-07T09:26:51.000Z</time>
      </trkpt>
      <trkpt lat="48.21173" lon="3.18277">
        <ele>140</ele>
        <time>2014-09-07T09:26:52.000Z</time>
      </trkpt>
      <trkpt lat="48.2118" lon="3.18277">
        <ele>140</ele>
        <time>2014-09-07T09:26:53.000Z</time>
      </trkpt>
      <trkpt lat="48.21185" lon="3.18277">
        <ele>139</ele>
        <time>2014-09-07T09:26:54.000Z</time>
      </trkpt>
      <trkpt lat="48.2119" lon="3.18277">
        <ele>139</ele>
        <time>2014-09-07T09:26:55.000Z</time>
      </trkpt>
      <trkpt lat="48.21197" lon="3.18275">
        <ele>139</ele>
        <time>2014-09-07T09:26:56.000Z</time>
      </trkpt>
      <trkpt lat="48.21202" lon="3.18273">
        <ele>139</ele>
        <time>2014-09-07T09:26:57.000Z</time>
      </trkpt>
      <trkpt lat="48.21208" lon="3.18273">
        <ele>139</ele>
        <time>2014-09-07T09:26:58.000Z</time>
      </trkpt>
      <trkpt lat="48.21214" lon="3.18271">
        <ele>138</ele>
        <time>2014-09-07T09:26:59.000Z</time>
      </trkpt>
      <trkpt lat="48.2122" lon="3.18269">
        <ele>138</ele>
        <time>2014-09-07T09:27:00.000Z</time>
      </trkpt>
      <trkpt lat="48.21226" lon="3.18269">
        <ele>138</ele>
        <time>2014-09-07T09:27:01.000Z</time>
      </trkpt>
      <trkpt lat="48.2123" lon="3.18267">
        <ele>138</ele>
        <time>2014-09-07T09:27:02.000Z</time>
      </trkpt>
      <trkpt lat="48.21235" lon="3.18267">
        <ele>137</ele>
        <time>2014-09-07T09:27:03.000Z</time>
      </trkpt>
      <trkpt lat="48.21241" lon="3.18267">
        <ele>137</ele>
        <time>2014-09-07T09:27:04.000Z</time>
      </trkpt>
      <trkpt lat="48.21245" lon="3.18267">
        <ele>137</ele>
        <time>2014-09-07T09:27:05.000Z</time>
      </trkpt>
      <trkpt lat="48.2125" lon="3.18267">
        <ele>135</ele>
        <time>2014-09-07T09:27:06.000Z</time>
      </trkpt>
      <trkpt lat="48.21255" lon="3.18267">
        <ele>135</ele>
        <time>2014-09-07T09:27:07.000Z</time>
      </trkpt>
      <trkpt lat="48.2126" lon="3.18267">
        <ele>135</ele>
        <time>2014-09-07T09:27:08.000Z</time>
      </trkpt>
      <trkpt lat="48.21264" lon="3.18269">
        <ele>135</ele>
        <time>2014-09-07T09:27:09.000Z</time>
      </trkpt>
      <trkpt lat="48.2127" lon="3.18269">
        <ele>135</ele>
        <time>2014-09-07T09:27:10.000Z</time>
      </trkpt>
      <trkpt lat="48.21274" lon="3.18269">
        <ele>135</ele>
        <time>2014-09-07T09:27:11.000Z</time>
      </trkpt>
      <trkpt lat="48.21279" lon="3.18271">
        <ele>135</ele>
        <time>2014-09-07T09:27:12.000Z</time>
      </trkpt>
      <trkpt lat="48.21284" lon="3.18271">
        <ele>135</ele>
        <time>2014-09-07T09:27:13.000Z</time>
      </trkpt>
      <trkpt lat="48.21289" lon="3.18271">
        <ele>134</ele>
        <time>2014-09-07T09:27:14.000Z</time>
      </trkpt>
      <trkpt lat="48.21293" lon="3.18271">
        <ele>134</ele>
        <time>2014-09-07T09:27:15.000Z</time>
      </trkpt>
      <trkpt lat="48.21299" lon="3.18271">
        <ele>134</ele>
        <time>2014-09-07T09:27:16.000Z</time>
      </trkpt>
      <trkpt lat="48.21304" lon="3.18271">
        <ele>134</ele>
        <time>2014-09-07T09:27:17.000Z</time>
      </trkpt>
      <trkpt lat="48.21309" lon="3.18273">
        <ele>134</ele>
        <time>2014-09-07T09:27:18.000Z</time>
      </trkpt>
      <trkpt lat="48.21314" lon="3.18273">
        <ele>134</ele>
        <time>2014-09-07T09:27:19.000Z</time>
      </trkpt>
      <trkpt lat="48.21319" lon="3.18273">
        <ele>134</ele>
        <time>2014-09-07T09:27:20.000Z</time>
      </trkpt>
      <trkpt lat="48.21324" lon="3.18275">
        <ele>133</ele>
        <time>2014-09-07T09:27:21.000Z</time>
      </trkpt>
      <trkpt lat="48.2133" lon="3.18277">
        <ele>133</ele>
        <time>2014-09-07T09:27:22.000Z</time>
      </trkpt>
      <trkpt lat="48.21334" lon="3.18277">
        <ele>132</ele>
        <time>2014-09-07T09:27:23.000Z</time>
      </trkpt>
      <trkpt lat="48.21339" lon="3.1828">
        <ele>132</ele>
        <time>2014-09-07T09:27:24.000Z</time>
      </trkpt>
      <trkpt lat="48.21345" lon="3.18282">
        <ele>132</ele>
        <time>2014-09-07T09:27:25.000Z</time>
      </trkpt>
      <trkpt lat="48.21349" lon="3.18282">
        <ele>132</ele>
        <time>2014-09-07T09:27:26.000Z</time>
      </trkpt>
      <trkpt lat="48.21354" lon="3.18284">
        <ele>132</ele>
        <time>2014-09-07T09:27:27.000Z</time>
      </trkpt>
      <trkpt lat="48.21359" lon="3.18286">
        <ele>132</ele>
        <time>2014-09-07T09:27:28.000Z</time>
      </trkpt>
      <trkpt lat="48.21363" lon="3.18288">
        <ele>132</ele>
        <time>2014-09-07T09:27:29.000Z</time>
      </trkpt>
      <trkpt lat="48.21368" lon="3.1829">
        <ele>132</ele>
        <time>2014-09-07T09:27:30.000Z</time>
      </trkpt>
      <trkpt lat="48.21373" lon="3.18292">
        <ele>133</ele>
        <time>2014-09-07T09:27:31.000Z</time>
      </trkpt>
      <trkpt lat="48.21377" lon="3.18295">
        <ele>133</ele>
        <time>2014-09-07T09:27:32.000Z</time>
      </trkpt>
      <trkpt lat="48.21382" lon="3.18297">
        <ele>133</ele>
        <time>2014-09-07T09:27:33.000Z</time>
      </trkpt>
      <trkpt lat="48.21387" lon="3.18299">
        <ele>133</ele>
        <time>2014-09-07T09:27:34.000Z</time>
      </trkpt>
      <trkpt lat="48.21392" lon="3.18301">
        <ele>133</ele>
        <time>2014-09-07T09:27:35.000Z</time>
      </trkpt>
      <trkpt lat="48.21396" lon="3.18301">
        <ele>133</ele>
        <time>2014-09-07T09:27:36.000Z</time>
      </trkpt>
      <trkpt lat="48.21402" lon="3.18301">
        <ele>133</ele>
        <time>2014-09-07T09:27:37.000Z</time>
      </trkpt>
      <trkpt lat="48.21406" lon="3.18303">
        <ele>133</ele>
        <time>2014-09-07T09:27:38.000Z</time>
      </trkpt>
      <trkpt lat="48.21411" lon="3.18305">
        <ele>133</ele>
        <time>2014-09-07T09:27:39.000Z</time>
      </trkpt>
      <trkpt lat="48.21416" lon="3.18307">
        <ele>133</ele>
        <time>2014-09-07T09:27:40.000Z</time>
      </trkpt>
      <trkpt lat="48.2142" lon="3.18312">
        <ele>132</ele>
        <time>2014-09-07T09:27:41.000Z</time>
      </trkpt>
      <trkpt lat="48.21424" lon="3.18316">
        <ele>132</ele>
        <time>2014-09-07T09:27:42.000Z</time>
      </trkpt>
      <trkpt lat="48.21429" lon="3.1832">
        <ele>132</ele>
        <time>2014-09-07T09:27:43.000Z</time>
      </trkpt>
      <trkpt lat="48.21434" lon="3.18325">
        <ele>132</ele>
        <time>2014-09-07T09:27:44.000Z</time>
      </trkpt>
      <trkpt lat="48.21438" lon="3.18331">
        <ele>132</ele>
        <time>2014-09-07T09:27:45.000Z</time>
      </trkpt>
      <trkpt lat="48.21443" lon="3.18335">
        <ele>134</ele>
        <time>2014-09-07T09:27:46.000Z</time>
      </trkpt>
      <trkpt lat="48.21448" lon="3.1834">
        <ele>134</ele>
        <time>2014-09-07T09:27:47.000Z</time>
      </trkpt>
      <trkpt lat="48.21453" lon="3.18344">
        <ele>133</ele>
        <time>2014-09-07T09:27:48.000Z</time>
      </trkpt>
      <trkpt lat="48.21457" lon="3.18346">
        <ele>133</ele>
        <time>2014-09-07T09:27:49.000Z</time>
      </trkpt>
      <trkpt lat="48.21463" lon="3.1835">
        <ele>133</ele>
        <time>2014-09-07T09:27:50.000Z</time>
      </trkpt>
      <trkpt lat="48.21467" lon="3.18355">
        <ele>133</ele>
        <time>2014-09-07T09:27:51.000Z</time>
      </trkpt>
      <trkpt lat="48.21472" lon="3.18359">
        <ele>132</ele>
        <time>2014-09-07T09:27:52.000Z</time>
      </trkpt>
      <trkpt lat="48.21477" lon="3.18363">
        <ele>132</ele>
        <time>2014-09-07T09:27:53.000Z</time>
      </trkpt>
      <trkpt lat="48.21481" lon="3.18365">
        <ele>132</ele>
        <time>2014-09-07T09:27:54.000Z</time>
      </trkpt>
      <trkpt lat="48.21485" lon="3.1837">
        <ele>132</ele>
        <time>2014-09-07T09:27:55.000Z</time>
      </trkpt>
      <trkpt lat="48.21491" lon="3.18374">
        <ele>132</ele>
        <time>2014-09-07T09:27:56.000Z</time>
      </trkpt>
      <trkpt lat="48.21495" lon="3.18378">
        <ele>132</ele>
        <time>2014-09-07T09:27:57.000Z</time>
      </trkpt>
      <trkpt lat="48.215" lon="3.18385">
        <ele>128</ele>
        <time>2014-09-07T09:27:58.000Z</time>
      </trkpt>
      <trkpt lat="48.21505" lon="3.18389">
        <ele>128</ele>
        <time>2014-09-07T09:27:59.000Z</time>
      </trkpt>
      <trkpt lat="48.2151" lon="3.18393">
        <ele>128</ele>
        <time>2014-09-07T09:28:00.000Z</time>
      </trkpt>
      <trkpt lat="48.21515" lon="3.184">
        <ele>128</ele>
        <time>2014-09-07T09:28:01.000Z</time>
      </trkpt>
      <trkpt lat="48.21521" lon="3.18408">
        <ele>128</ele>
        <time>2014-09-07T09:28:02.000Z</time>
      </trkpt>
      <trkpt lat="48.21526" lon="3.18417">
        <ele>130</ele>
        <time>2014-09-07T09:28:03.000Z</time>
      </trkpt>
      <trkpt lat="48.21531" lon="3.18425">
        <ele>130</ele>
        <time>2014-09-07T09:28:04.000Z</time>
      </trkpt>
      <trkpt lat="48.21537" lon="3.18434">
        <ele>130</ele>
        <time>2014-09-07T09:28:05.000Z</time>
      </trkpt>
      <trkpt lat="48.21542" lon="3.18443">
        <ele>130</ele>
        <time>2014-09-07T09:28:06.000Z</time>
      </trkpt>
      <trkpt lat="48.21549" lon="3.18451">
        <ele>130</ele>
        <time>2014-09-07T09:28:07.000Z</time>
      </trkpt>
      <trkpt lat="48.21555" lon="3.1846">
        <ele>130</ele>
        <time>2014-09-07T09:28:08.000Z</time>
      </trkpt>
      <trkpt lat="48.21561" lon="3.18468">
        <ele>130</ele>
        <time>2014-09-07T09:28:09.000Z</time>
      </trkpt>
      <trkpt lat="48.21568" lon="3.18477">
        <ele>130</ele>
        <time>2014-09-07T09:28:10.000Z</time>
      </trkpt>
      <trkpt lat="48.21575" lon="3.18483">
        <ele>129</ele>
        <time>2014-09-07T09:28:11.000Z</time>
      </trkpt>
      <trkpt lat="48.21582" lon="3.1849">
        <ele>129</ele>
        <time>2014-09-07T09:28:12.000Z</time>
      </trkpt>
      <trkpt lat="48.21588" lon="3.18496">
        <ele>128</ele>
        <time>2014-09-07T09:28:13.000Z</time>
      </trkpt>
      <trkpt lat="48.21595" lon="3.18503">
        <ele>129</ele>
        <time>2014-09-07T09:28:14.000Z</time>
      </trkpt>
      <trkpt lat="48.21601" lon="3.18511">
        <ele>128</ele>
        <time>2014-09-07T09:28:15.000Z</time>
      </trkpt>
      <trkpt lat="48.21607" lon="3.18518">
        <ele>128</ele>
        <time>2014-09-07T09:28:16.000Z</time>
      </trkpt>
      <trkpt lat="48.21612" lon="3.18524">
        <ele>128</ele>
        <time>2014-09-07T09:28:17.000Z</time>
      </trkpt>
      <trkpt lat="48.21617" lon="3.18531">
        <ele>128</ele>
        <time>2014-09-07T09:28:18.000Z</time>
      </trkpt>
      <trkpt lat="48.21623" lon="3.18537">
        <ele>128</ele>
        <time>2014-09-07T09:28:19.000Z</time>
      </trkpt>
      <trkpt lat="48.21627" lon="3.18543">
        <ele>128</ele>
        <time>2014-09-07T09:28:20.000Z</time>
      </trkpt>
      <trkpt lat="48.21631" lon="3.1855">
        <ele>128</ele>
        <time>2014-09-07T09:28:21.000Z</time>
      </trkpt>
      <trkpt lat="48.21634" lon="3.18556">
        <ele>128</ele>
        <time>2014-09-07T09:28:22.000Z</time>
      </trkpt>
      <trkpt lat="48.21639" lon="3.18563">
        <ele>128</ele>
        <time>2014-09-07T09:28:23.000Z</time>
      </trkpt>
      <trkpt lat="48.21643" lon="3.18571">
        <ele>127</ele>
        <time>2014-09-07T09:28:24.000Z</time>
      </trkpt>
      <trkpt lat="48.21646" lon="3.18578">
        <ele>127</ele>
        <time>2014-09-07T09:28:25.000Z</time>
      </trkpt>
      <trkpt lat="48.21649" lon="3.18584">
        <ele>128</ele>
        <time>2014-09-07T09:28:26.000Z</time>
      </trkpt>
      <trkpt lat="48.21653" lon="3.18593">
        <ele>128</ele>
        <time>2014-09-07T09:28:27.000Z</time>
      </trkpt>
      <trkpt lat="48.21655" lon="3.18599">
        <ele>128</ele>
        <time>2014-09-07T09:28:28.000Z</time>
      </trkpt>
      <trkpt lat="48.21658" lon="3.18608">
        <ele>129</ele>
        <time>2014-09-07T09:28:29.000Z</time>
      </trkpt>
      <trkpt lat="48.2166" lon="3.18614">
        <ele>129</ele>
        <time>2014-09-07T09:28:30.000Z</time>
      </trkpt>
      <trkpt lat="48.21663" lon="3.18623">
        <ele>129</ele>
        <time>2014-09-07T09:28:31.000Z</time>
      </trkpt>
      <trkpt lat="48.21666" lon="3.18629">
        <ele>129</ele>
        <time>2014-09-07T09:28:32.000Z</time>
      </trkpt>
      <trkpt lat="48.21669" lon="3.18638">
        <ele>127</ele>
        <time>2014-09-07T09:28:33.000Z</time>
      </trkpt>
      <trkpt lat="48.21671" lon="3.18644">
        <ele>127</ele>
        <time>2014-09-07T09:28:34.000Z</time>
      </trkpt>
      <trkpt lat="48.21674" lon="3.18651">
        <ele>127</ele>
        <time>2014-09-07T09:28:35.000Z</time>
      </trkpt>
      <trkpt lat="48.21676" lon="3.18659">
        <ele>128</ele>
        <time>2014-09-07T09:28:36.000Z</time>
      </trkpt>
      <trkpt lat="48.21679" lon="3.18666">
        <ele>128</ele>
        <time>2014-09-07T09:28:37.000Z</time>
      </trkpt>
      <trkpt lat="48.21683" lon="3.18672">
        <ele>127</ele>
        <time>2014-09-07T09:28:38.000Z</time>
      </trkpt>
      <trkpt lat="48.21685" lon="3.18681">
        <ele>127</ele>
        <time>2014-09-07T09:28:39.000Z</time>
      </trkpt>
      <trkpt lat="48.21688" lon="3.18687">
        <ele>126</ele>
        <time>2014-09-07T09:28:40.000Z</time>
      </trkpt>
      <trkpt lat="48.2169" lon="3.18694">
        <ele>126</ele>
        <time>2014-09-07T09:28:41.000Z</time>
      </trkpt>
      <trkpt lat="48.21692" lon="3.18702">
        <ele>126</ele>
        <time>2014-09-07T09:28:42.000Z</time>
      </trkpt>
      <trkpt lat="48.21696" lon="3.18709">
        <ele>126</ele>
        <time>2014-09-07T09:28:43.000Z</time>
      </trkpt>
      <trkpt lat="48.21698" lon="3.18715">
        <ele>126</ele>
        <time>2014-09-07T09:28:44.000Z</time>
      </trkpt>
      <trkpt lat="48.217" lon="3.18722">
        <ele>126</ele>
        <time>2014-09-07T09:28:45.000Z</time>
      </trkpt>
      <trkpt lat="48.21702" lon="3.1873">
        <ele>125</ele>
        <time>2014-09-07T09:28:46.000Z</time>
      </trkpt>
      <trkpt lat="48.21704" lon="3.18737">
        <ele>125</ele>
        <time>2014-09-07T09:28:47.000Z</time>
      </trkpt>
      <trkpt lat="48.21706" lon="3.18743">
        <ele>125</ele>
        <time>2014-09-07T09:28:48.000Z</time>
      </trkpt>
      <trkpt lat="48.21708" lon="3.18749">
        <ele>125</ele>
        <time>2014-09-07T09:28:49.000Z</time>
      </trkpt>
      <trkpt lat="48.21711" lon="3.18756">
        <ele>125</ele>
        <time>2014-09-07T09:28:50.000Z</time>
      </trkpt>
      <trkpt lat="48.21713" lon="3.18762">
        <ele>125</ele>
        <time>2014-09-07T09:28:51.000Z</time>
      </trkpt>
      <trkpt lat="48.21715" lon="3.18771">
        <ele>125</ele>
        <time>2014-09-07T09:28:52.000Z</time>
      </trkpt>
      <trkpt lat="48.21717" lon="3.18777">
        <ele>125</ele>
        <time>2014-09-07T09:28:53.000Z</time>
      </trkpt>
      <trkpt lat="48.21719" lon="3.18784">
        <ele>125</ele>
        <time>2014-09-07T09:28:54.000Z</time>
      </trkpt>
      <trkpt lat="48.21722" lon="3.1879">
        <ele>125</ele>
        <time>2014-09-07T09:28:55.000Z</time>
      </trkpt>
      <trkpt lat="48.21725" lon="3.18799">
        <ele>125</ele>
        <time>2014-09-07T09:28:56.000Z</time>
      </trkpt>
      <trkpt lat="48.21727" lon="3.18805">
        <ele>125</ele>
        <time>2014-09-07T09:28:57.000Z</time>
      </trkpt>
      <trkpt lat="48.21729" lon="3.18812">
        <ele>125</ele>
        <time>2014-09-07T09:28:58.000Z</time>
      </trkpt>
      <trkpt lat="48.21731" lon="3.18818">
        <ele>125</ele>
        <time>2014-09-07T09:28:59.000Z</time>
      </trkpt>
      <trkpt lat="48.21734" lon="3.18827">
        <ele>125</ele>
        <time>2014-09-07T09:29:00.000Z</time>
      </trkpt>
      <trkpt lat="48.21736" lon="3.18833">
        <ele>125</ele>
        <time>2014-09-07T09:29:01.000Z</time>
      </trkpt>
      <trkpt lat="48.21738" lon="3.1884">
        <ele>126</ele>
        <time>2014-09-07T09:29:02.000Z</time>
      </trkpt>
      <trkpt lat="48.21742" lon="3.18846">
        <ele>126</ele>
        <time>2014-09-07T09:29:03.000Z</time>
      </trkpt>
      <trkpt lat="48.21744" lon="3.18852">
        <ele>127</ele>
        <time>2014-09-07T09:29:04.000Z</time>
      </trkpt>
      <trkpt lat="48.21746" lon="3.18859">
        <ele>127</ele>
        <time>2014-09-07T09:29:05.000Z</time>
      </trkpt>
      <trkpt lat="48.21748" lon="3.18865">
        <ele>127</ele>
        <time>2014-09-07T09:29:06.000Z</time>
      </trkpt>
      <trkpt lat="48.2175" lon="3.18872">
        <ele>124</ele>
        <time>2014-09-07T09:29:07.000Z</time>
      </trkpt>
      <trkpt lat="48.21751" lon="3.18878">
        <ele>124</ele>
        <time>2014-09-07T09:29:08.000Z</time>
      </trkpt>
      <trkpt lat="48.21754" lon="3.18882">
        <ele>124</ele>
        <time>2014-09-07T09:29:09.000Z</time>
      </trkpt>
      <trkpt lat="48.21756" lon="3.18889">
        <ele>124</ele>
        <time>2014-09-07T09:29:10.000Z</time>
      </trkpt>
      <trkpt lat="48.21757" lon="3.18895">
        <ele>125</ele>
        <time>2014-09-07T09:29:11.000Z</time>
      </trkpt>
      <trkpt lat="48.21758" lon="3.18902">
        <ele>125</ele>
        <time>2014-09-07T09:29:12.000Z</time>
      </trkpt>
      <trkpt lat="48.2176" lon="3.18906">
        <ele>125</ele>
        <time>2014-09-07T09:29:13.000Z</time>
      </trkpt>
      <trkpt lat="48.21761" lon="3.18913">
        <ele>125</ele>
        <time>2014-09-07T09:29:14.000Z</time>
      </trkpt>
      <trkpt lat="48.21762" lon="3.18919">
        <ele>126</ele>
        <time>2014-09-07T09:29:15.000Z</time>
      </trkpt>
      <trkpt lat="48.21763" lon="3.18925">
        <ele>126</ele>
        <time>2014-09-07T09:29:16.000Z</time>
      </trkpt>
      <trkpt lat="48.21765" lon="3.1893">
        <ele>126</ele>
        <time>2014-09-07T09:29:17.000Z</time>
      </trkpt>
      <trkpt lat="48.21767" lon="3.18936">
        <ele>126</ele>
        <time>2014-09-07T09:29:18.000Z</time>
      </trkpt>
      <trkpt lat="48.21769" lon="3.1894">
        <ele>126</ele>
        <time>2014-09-07T09:29:19.000Z</time>
      </trkpt>
      <trkpt lat="48.21771" lon="3.18947">
        <ele>126</ele>
        <time>2014-09-07T09:29:20.000Z</time>
      </trkpt>
      <trkpt lat="48.21773" lon="3.18951">
        <ele>126</ele>
        <time>2014-09-07T09:29:21.000Z</time>
      </trkpt>
      <trkpt lat="48.21775" lon="3.18958">
        <ele>126</ele>
        <time>2014-09-07T09:29:22.000Z</time>
      </trkpt>
      <trkpt lat="48.21777" lon="3.18962">
        <ele>126</ele>
        <time>2014-09-07T09:29:23.000Z</time>
      </trkpt>
      <trkpt lat="48.21779" lon="3.18966">
        <ele>126</ele>
        <time>2014-09-07T09:29:24.000Z</time>
      </trkpt>
      <trkpt lat="48.2178" lon="3.18973">
        <ele>126</ele>
        <time>2014-09-07T09:29:25.000Z</time>
      </trkpt>
      <trkpt lat="48.21782" lon="3.18977">
        <ele>126</ele>
        <time>2014-09-07T09:29:26.000Z</time>
      </trkpt>
      <trkpt lat="48.21785" lon="3.18983">
        <ele>126</ele>
        <time>2014-09-07T09:29:27.000Z</time>
      </trkpt>
      <trkpt lat="48.21787" lon="3.18988">
        <ele>126</ele>
        <time>2014-09-07T09:29:28.000Z</time>
      </trkpt>
      <trkpt lat="48.21788" lon="3.18992">
        <ele>126</ele>
        <time>2014-09-07T09:29:29.000Z</time>
      </trkpt>
      <trkpt lat="48.2179" lon="3.18998">
        <ele>126</ele>
        <time>2014-09-07T09:29:30.000Z</time>
      </trkpt>
      <trkpt lat="48.21792" lon="3.19003">
        <ele>128</ele>
        <time>2014-09-07T09:29:31.000Z</time>
      </trkpt>
      <trkpt lat="48.21793" lon="3.19007">
        <ele>128</ele>
        <time>2014-09-07T09:29:32.000Z</time>
      </trkpt>
      <trkpt lat="48.21795" lon="3.19013">
        <ele>128</ele>
        <time>2014-09-07T09:29:33.000Z</time>
      </trkpt>
      <trkpt lat="48.21797" lon="3.19018">
        <ele>127</ele>
        <time>2014-09-07T09:29:34.000Z</time>
      </trkpt>
      <trkpt lat="48.21799" lon="3.19022">
        <ele>127</ele>
        <time>2014-09-07T09:29:35.000Z</time>
      </trkpt>
      <trkpt lat="48.21801" lon="3.19028">
        <ele>128</ele>
        <time>2014-09-07T09:29:36.000Z</time>
      </trkpt>
      <trkpt lat="48.21803" lon="3.19033">
        <ele>128</ele>
        <time>2014-09-07T09:29:37.000Z</time>
      </trkpt>
      <trkpt lat="48.21804" lon="3.19039">
        <ele>128</ele>
        <time>2014-09-07T09:29:38.000Z</time>
      </trkpt>
      <trkpt lat="48.21806" lon="3.19046">
        <ele>128</ele>
        <time>2014-09-07T09:29:39.000Z</time>
      </trkpt>
      <trkpt lat="48.21808" lon="3.1905">
        <ele>128</ele>
        <time>2014-09-07T09:29:40.000Z</time>
      </trkpt>
      <trkpt lat="48.2181" lon="3.19056">
        <ele>128</ele>
        <time>2014-09-07T09:29:41.000Z</time>
      </trkpt>
      <trkpt lat="48.21811" lon="3.19061">
        <ele>128</ele>
        <time>2014-09-07T09:29:42.000Z</time>
      </trkpt>
      <trkpt lat="48.21814" lon="3.19067">
        <ele>128</ele>
        <time>2014-09-07T09:29:43.000Z</time>
      </trkpt>
      <trkpt lat="48.21816" lon="3.19071">
        <ele>127</ele>
        <time>2014-09-07T09:29:44.000Z</time>
      </trkpt>
      <trkpt lat="48.21818" lon="3.19078">
        <ele>127</ele>
        <time>2014-09-07T09:29:45.000Z</time>
      </trkpt>
      <trkpt lat="48.2182" lon="3.19084">
        <ele>128</ele>
        <time>2014-09-07T09:29:46.000Z</time>
      </trkpt>
      <trkpt lat="48.21822" lon="3.19091">
        <ele>128</ele>
        <time>2014-09-07T09:29:47.000Z</time>
      </trkpt>
      <trkpt lat="48.21824" lon="3.19095">
        <ele>129</ele>
        <time>2014-09-07T09:29:48.000Z</time>
      </trkpt>
      <trkpt lat="48.21826" lon="3.19101">
        <ele>129</ele>
        <time>2014-09-07T09:29:49.000Z</time>
      </trkpt>
      <trkpt lat="48.2183" lon="3.19108">
        <ele>129</ele>
        <time>2014-09-07T09:29:50.000Z</time>
      </trkpt>
      <trkpt lat="48.21832" lon="3.19114">
        <ele>130</ele>
        <time>2014-09-07T09:29:51.000Z</time>
      </trkpt>
      <trkpt lat="48.21835" lon="3.19121">
        <ele>125</ele>
        <time>2014-09-07T09:29:52.000Z</time>
      </trkpt>
      <trkpt lat="48.21837" lon="3.19127">
        <ele>125</ele>
        <time>2014-09-07T09:29:53.000Z</time>
      </trkpt>
      <trkpt lat="48.2184" lon="3.19134">
        <ele>125</ele>
        <time>2014-09-07T09:29:54.000Z</time>
      </trkpt>
      <trkpt lat="48.21843" lon="3.19138">
        <ele>126</ele>
        <time>2014-09-07T09:29:55.000Z</time>
      </trkpt>
      <trkpt lat="48.21845" lon="3.19144">
        <ele>126</ele>
        <time>2014-09-07T09:29:56.000Z</time>
      </trkpt>
      <trkpt lat="48.21848" lon="3.19149">
        <ele>126</ele>
        <time>2014-09-07T09:29:57.000Z</time>
      </trkpt>
      <trkpt lat="48.2185" lon="3.19155">
        <ele>126</ele>
        <time>2014-09-07T09:29:58.000Z</time>
      </trkpt>
      <trkpt lat="48.21852" lon="3.19159">
        <ele>126</ele>
        <time>2014-09-07T09:29:59.000Z</time>
      </trkpt>
      <trkpt lat="48.21855" lon="3.19164">
        <ele>126</ele>
        <time>2014-09-07T09:30:00.000Z</time>
      </trkpt>
      <trkpt lat="48.21858" lon="3.1917">
        <ele>128</ele>
        <time>2014-09-07T09:30:01.000Z</time>
      </trkpt>
      <trkpt lat="48.2186" lon="3.19174">
        <ele>128</ele>
        <time>2014-09-07T09:30:02.000Z</time>
      </trkpt>
      <trkpt lat="48.21862" lon="3.19181">
        <ele>127</ele>
        <time>2014-09-07T09:30:03.000Z</time>
      </trkpt>
      <trkpt lat="48.21864" lon="3.19185">
        <ele>127</ele>
        <time>2014-09-07T09:30:04.000Z</time>
      </trkpt>
      <trkpt lat="48.21866" lon="3.19189">
        <ele>127</ele>
        <time>2014-09-07T09:30:05.000Z</time>
      </trkpt>
      <trkpt lat="48.21868" lon="3.19196">
        <ele>127</ele>
        <time>2014-09-07T09:30:06.000Z</time>
      </trkpt>
      <trkpt lat="48.2187" lon="3.192">
        <ele>127</ele>
        <time>2014-09-07T09:30:07.000Z</time>
      </trkpt>
      <trkpt lat="48.21872" lon="3.19204">
        <ele>127</ele>
        <time>2014-09-07T09:30:08.000Z</time>
      </trkpt>
      <trkpt lat="48.21874" lon="3.19211">
        <ele>127</ele>
        <time>2014-09-07T09:30:09.000Z</time>
      </trkpt>
      <trkpt lat="48.21876" lon="3.19215">
        <ele>127</ele>
        <time>2014-09-07T09:30:10.000Z</time>
      </trkpt>
      <trkpt lat="48.21878" lon="3.19221">
        <ele>127</ele>
        <time>2014-09-07T09:30:11.000Z</time>
      </trkpt>
      <trkpt lat="48.2188" lon="3.19226">
        <ele>127</ele>
        <time>2014-09-07T09:30:12.000Z</time>
      </trkpt>
      <trkpt lat="48.21881" lon="3.1923">
        <ele>127</ele>
        <time>2014-09-07T09:30:13.000Z</time>
      </trkpt>
      <trkpt lat="48.21883" lon="3.19234">
        <ele>127</ele>
        <time>2014-09-07T09:30:14.000Z</time>
      </trkpt>
      <trkpt lat="48.21884" lon="3.19241">
        <ele>127</ele>
        <time>2014-09-07T09:30:15.000Z</time>
      </trkpt>
      <trkpt lat="48.21887" lon="3.19245">
        <ele>127</ele>
        <time>2014-09-07T09:30:16.000Z</time>
      </trkpt>
      <trkpt lat="48.21888" lon="3.19252">
        <ele>128</ele>
        <time>2014-09-07T09:30:17.000Z</time>
      </trkpt>
      <trkpt lat="48.21889" lon="3.19256">
        <ele>128</ele>
        <time>2014-09-07T09:30:18.000Z</time>
      </trkpt>
      <trkpt lat="48.21889" lon="3.19262">
        <ele>128</ele>
        <time>2014-09-07T09:30:19.000Z</time>
      </trkpt>
      <trkpt lat="48.2189" lon="3.19269">
        <ele>128</ele>
        <time>2014-09-07T09:30:20.000Z</time>
      </trkpt>
      <trkpt lat="48.2189" lon="3.19275">
        <ele>128</ele>
        <time>2014-09-07T09:30:21.000Z</time>
      </trkpt>
      <trkpt lat="48.2189" lon="3.19282">
        <ele>128</ele>
        <time>2014-09-07T09:30:22.000Z</time>
      </trkpt>
      <trkpt lat="48.21891" lon="3.19286">
        <ele>128</ele>
        <time>2014-09-07T09:30:23.000Z</time>
      </trkpt>
      <trkpt lat="48.21891" lon="3.19292">
        <ele>128</ele>
        <time>2014-09-07T09:30:24.000Z</time>
      </trkpt>
      <trkpt lat="48.21891" lon="3.19297">
        <ele>128</ele>
        <time>2014-09-07T09:30:25.000Z</time>
      </trkpt>
      <trkpt lat="48.21892" lon="3.19303">
        <ele>128</ele>
        <time>2014-09-07T09:30:26.000Z</time>
      </trkpt>
      <trkpt lat="48.21892" lon="3.19307">
        <ele>128</ele>
        <time>2014-09-07T09:30:27.000Z</time>
      </trkpt>
      <trkpt lat="48.21893" lon="3.19312">
        <ele>128</ele>
        <time>2014-09-07T09:30:28.000Z</time>
      </trkpt>
      <trkpt lat="48.21894" lon="3.19318">
        <ele>128</ele>
        <time>2014-09-07T09:30:29.000Z</time>
      </trkpt>
      <trkpt lat="48.21894" lon="3.19322">
        <ele>128</ele>
        <time>2014-09-07T09:30:30.000Z</time>
      </trkpt>
      <trkpt lat="48.21895" lon="3.19329">
        <ele>127</ele>
        <time>2014-09-07T09:30:31.000Z</time>
      </trkpt>
      <trkpt lat="48.21896" lon="3.19333">
        <ele>127</ele>
        <time>2014-09-07T09:30:32.000Z</time>
      </trkpt>
      <trkpt lat="48.21896" lon="3.1934">
        <ele>127</ele>
        <time>2014-09-07T09:30:33.000Z</time>
      </trkpt>
      <trkpt lat="48.21896" lon="3.19346">
        <ele>127</ele>
        <time>2014-09-07T09:30:34.000Z</time>
      </trkpt>
      <trkpt lat="48.21896" lon="3.19352">
        <ele>127</ele>
        <time>2014-09-07T09:30:35.000Z</time>
      </trkpt>
      <trkpt lat="48.21896" lon="3.19357">
        <ele>128</ele>
        <time>2014-09-07T09:30:36.000Z</time>
      </trkpt>
      <trkpt lat="48.21896" lon="3.19363">
        <ele>128</ele>
        <time>2014-09-07T09:30:37.000Z</time>
      </trkpt>
      <trkpt lat="48.21896" lon="3.1937">
        <ele>128</ele>
        <time>2014-09-07T09:30:38.000Z</time>
      </trkpt>
      <trkpt lat="48.21895" lon="3.19374">
        <ele>128</ele>
        <time>2014-09-07T09:30:39.000Z</time>
      </trkpt>
      <trkpt lat="48.21894" lon="3.1938">
        <ele>128</ele>
        <time>2014-09-07T09:30:40.000Z</time>
      </trkpt>
      <trkpt lat="48.21893" lon="3.19387">
        <ele>128</ele>
        <time>2014-09-07T09:30:41.000Z</time>
      </trkpt>
      <trkpt lat="48.21892" lon="3.19391">
        <ele>128</ele>
        <time>2014-09-07T09:30:42.000Z</time>
      </trkpt>
      <trkpt lat="48.21891" lon="3.19397">
        <ele>128</ele>
        <time>2014-09-07T09:30:43.000Z</time>
      </trkpt>
      <trkpt lat="48.21889" lon="3.19404">
        <ele>128</ele>
        <time>2014-09-07T09:30:44.000Z</time>
      </trkpt>
      <trkpt lat="48.21888" lon="3.1941">
        <ele>128</ele>
        <time>2014-09-07T09:30:45.000Z</time>
      </trkpt>
      <trkpt lat="48.21885" lon="3.19419">
        <ele>126</ele>
        <time>2014-09-07T09:30:46.000Z</time>
      </trkpt>
      <trkpt lat="48.21883" lon="3.19427">
        <ele>127</ele>
        <time>2014-09-07T09:30:47.000Z</time>
      </trkpt>
      <trkpt lat="48.21881" lon="3.19434">
        <ele>127</ele>
        <time>2014-09-07T09:30:48.000Z</time>
      </trkpt>
      <trkpt lat="48.21879" lon="3.19443">
        <ele>127</ele>
        <time>2014-09-07T09:30:49.000Z</time>
      </trkpt>
      <trkpt lat="48.21878" lon="3.19451">
        <ele>127</ele>
        <time>2014-09-07T09:30:50.000Z</time>
      </trkpt>
      <trkpt lat="48.21876" lon="3.19462">
        <ele>127</ele>
        <time>2014-09-07T09:30:51.000Z</time>
      </trkpt>
      <trkpt lat="48.21875" lon="3.1947">
        <ele>127</ele>
        <time>2014-09-07T09:30:52.000Z</time>
      </trkpt>
      <trkpt lat="48.21874" lon="3.19481">
        <ele>126</ele>
        <time>2014-09-07T09:30:53.000Z</time>
      </trkpt>
      <trkpt lat="48.21873" lon="3.1949">
        <ele>126</ele>
        <time>2014-09-07T09:30:54.000Z</time>
      </trkpt>
      <trkpt lat="48.21872" lon="3.19498">
        <ele>126</ele>
        <time>2014-09-07T09:30:55.000Z</time>
      </trkpt>
      <trkpt lat="48.21872" lon="3.19509">
        <ele>125</ele>
        <time>2014-09-07T09:30:56.000Z</time>
      </trkpt>
      <trkpt lat="48.2187" lon="3.19518">
        <ele>125</ele>
        <time>2014-09-07T09:30:57.000Z</time>
      </trkpt>
      <trkpt lat="48.21869" lon="3.19526">
        <ele>125</ele>
        <time>2014-09-07T09:30:58.000Z</time>
      </trkpt>
      <trkpt lat="48.21867" lon="3.19535">
        <ele>125</ele>
        <time>2014-09-07T09:30:59.000Z</time>
      </trkpt>
      <trkpt lat="48.21866" lon="3.19543">
        <ele>125</ele>
        <time>2014-09-07T09:31:00.000Z</time>
      </trkpt>
      <trkpt lat="48.21864" lon="3.1955">
        <ele>125</ele>
        <time>2014-09-07T09:31:01.000Z</time>
      </trkpt>
      <trkpt lat="48.21863" lon="3.19558">
        <ele>125</ele>
        <time>2014-09-07T09:31:02.000Z</time>
      </trkpt>
      <trkpt lat="48.21861" lon="3.19567">
        <ele>125</ele>
        <time>2014-09-07T09:31:03.000Z</time>
      </trkpt>
      <trkpt lat="48.21859" lon="3.19576">
        <ele>125</ele>
        <time>2014-09-07T09:31:04.000Z</time>
      </trkpt>
      <trkpt lat="48.21856" lon="3.19582">
        <ele>125</ele>
        <time>2014-09-07T09:31:05.000Z</time>
      </trkpt>
      <trkpt lat="48.21854" lon="3.19591">
        <ele>124</ele>
        <time>2014-09-07T09:31:06.000Z</time>
      </trkpt>
      <trkpt lat="48.21853" lon="3.19599">
        <ele>124</ele>
        <time>2014-09-07T09:31:07.000Z</time>
      </trkpt>
      <trkpt lat="48.21851" lon="3.19606">
        <ele>124</ele>
        <time>2014-09-07T09:31:08.000Z</time>
      </trkpt>
      <trkpt lat="48.2185" lon="3.19614">
        <ele>123</ele>
        <time>2014-09-07T09:31:09.000Z</time>
      </trkpt>
      <trkpt lat="48.21849" lon="3.19623">
        <ele>123</ele>
        <time>2014-09-07T09:31:10.000Z</time>
      </trkpt>
      <trkpt lat="48.21848" lon="3.19631">
        <ele>123</ele>
        <time>2014-09-07T09:31:11.000Z</time>
      </trkpt>
      <trkpt lat="48.21847" lon="3.19638">
        <ele>123</ele>
        <time>2014-09-07T09:31:12.000Z</time>
      </trkpt>
      <trkpt lat="48.21847" lon="3.19646">
        <ele>123</ele>
        <time>2014-09-07T09:31:13.000Z</time>
      </trkpt>
      <trkpt lat="48.21847" lon="3.19657">
        <ele>123</ele>
        <time>2014-09-07T09:31:14.000Z</time>
      </trkpt>
      <trkpt lat="48.21847" lon="3.19666">
        <ele>123</ele>
        <time>2014-09-07T09:31:15.000Z</time>
      </trkpt>
      <trkpt lat="48.21848" lon="3.19674">
        <ele>122</ele>
        <time>2014-09-07T09:31:16.000Z</time>
      </trkpt>
      <trkpt lat="48.21848" lon="3.19685">
        <ele>121</ele>
        <time>2014-09-07T09:31:17.000Z</time>
      </trkpt>
      <trkpt lat="48.21848" lon="3.19694">
        <ele>121</ele>
        <time>2014-09-07T09:31:18.000Z</time>
      </trkpt>
      <trkpt lat="48.21848" lon="3.19702">
        <ele>120</ele>
        <time>2014-09-07T09:31:19.000Z</time>
      </trkpt>
      <trkpt lat="48.21848" lon="3.19711">
        <ele>120</ele>
        <time>2014-09-07T09:31:20.000Z</time>
      </trkpt>
      <trkpt lat="48.21848" lon="3.19719">
        <ele>120</ele>
        <time>2014-09-07T09:31:21.000Z</time>
      </trkpt>
      <trkpt lat="48.21848" lon="3.19728">
        <ele>120</ele>
        <time>2014-09-07T09:31:22.000Z</time>
      </trkpt>
      <trkpt lat="48.21848" lon="3.19736">
        <ele>120</ele>
        <time>2014-09-07T09:31:23.000Z</time>
      </trkpt>
      <trkpt lat="48.21847" lon="3.19745">
        <ele>121</ele>
        <time>2014-09-07T09:31:24.000Z</time>
      </trkpt>
      <trkpt lat="48.21847" lon="3.19754">
        <ele>120</ele>
        <time>2014-09-07T09:31:25.000Z</time>
      </trkpt>
      <trkpt lat="48.21846" lon="3.19764">
        <ele>119</ele>
        <time>2014-09-07T09:31:26.000Z</time>
      </trkpt>
      <trkpt lat="48.21845" lon="3.19773">
        <ele>119</ele>
        <time>2014-09-07T09:31:27.000Z</time>
      </trkpt>
      <trkpt lat="48.21845" lon="3.19782">
        <ele>119</ele>
        <time>2014-09-07T09:31:28.000Z</time>
      </trkpt>
      <trkpt lat="48.21844" lon="3.1979">
        <ele>119</ele>
        <time>2014-09-07T09:31:29.000Z</time>
      </trkpt>
      <trkpt lat="48.21844" lon="3.19801">
        <ele>119</ele>
        <time>2014-09-07T09:31:30.000Z</time>
      </trkpt>
      <trkpt lat="48.21844" lon="3.19809">
        <ele>119</ele>
        <time>2014-09-07T09:31:31.000Z</time>
      </trkpt>
      <trkpt lat="48.21844" lon="3.1982">
        <ele>119</ele>
        <time>2014-09-07T09:31:32.000Z</time>
      </trkpt>
      <trkpt lat="48.21845" lon="3.19833">
        <ele>120</ele>
        <time>2014-09-07T09:31:33.000Z</time>
      </trkpt>
      <trkpt lat="48.21846" lon="3.19844">
        <ele>119</ele>
        <time>2014-09-07T09:31:34.000Z</time>
      </trkpt>
      <trkpt lat="48.21847" lon="3.19854">
        <ele>118</ele>
        <time>2014-09-07T09:31:35.000Z</time>
      </trkpt>
      <trkpt lat="48.21848" lon="3.19865">
        <ele>118</ele>
        <time>2014-09-07T09:31:36.000Z</time>
      </trkpt>
      <trkpt lat="48.21848" lon="3.19876">
        <ele>118</ele>
        <time>2014-09-07T09:31:37.000Z</time>
      </trkpt>
      <trkpt lat="48.21848" lon="3.19887">
        <ele>118</ele>
        <time>2014-09-07T09:31:38.000Z</time>
      </trkpt>
      <trkpt lat="48.21849" lon="3.19897">
        <ele>118</ele>
        <time>2014-09-07T09:31:39.000Z</time>
      </trkpt>
      <trkpt lat="48.21849" lon="3.19906">
        <ele>119</ele>
        <time>2014-09-07T09:31:40.000Z</time>
      </trkpt>
      <trkpt lat="48.2185" lon="3.19917">
        <ele>119</ele>
        <time>2014-09-07T09:31:41.000Z</time>
      </trkpt>
      <trkpt lat="48.2185" lon="3.19925">
        <ele>119</ele>
        <time>2014-09-07T09:31:42.000Z</time>
      </trkpt>
      <trkpt lat="48.2185" lon="3.19936">
        <ele>118</ele>
        <time>2014-09-07T09:31:43.000Z</time>
      </trkpt>
      <trkpt lat="48.21851" lon="3.19947">
        <ele>118</ele>
        <time>2014-09-07T09:31:44.000Z</time>
      </trkpt>
      <trkpt lat="48.21851" lon="3.19955">
        <ele>118</ele>
        <time>2014-09-07T09:31:45.000Z</time>
      </trkpt>
      <trkpt lat="48.21851" lon="3.19966">
        <ele>118</ele>
        <time>2014-09-07T09:31:46.000Z</time>
      </trkpt>
      <trkpt lat="48.21852" lon="3.19975">
        <ele>118</ele>
        <time>2014-09-07T09:31:47.000Z</time>
      </trkpt>
      <trkpt lat="48.21852" lon="3.19985">
        <ele>119</ele>
        <time>2014-09-07T09:31:48.000Z</time>
      </trkpt>
      <trkpt lat="48.21852" lon="3.19994">
        <ele>119</ele>
        <time>2014-09-07T09:31:49.000Z</time>
      </trkpt>
      <trkpt lat="48.21852" lon="3.20005">
        <ele>119</ele>
        <time>2014-09-07T09:31:50.000Z</time>
      </trkpt>
      <trkpt lat="48.21852" lon="3.20015">
        <ele>118</ele>
        <time>2014-09-07T09:31:51.000Z</time>
      </trkpt>
      <trkpt lat="48.21852" lon="3.20024">
        <ele>118</ele>
        <time>2014-09-07T09:31:52.000Z</time>
      </trkpt>
      <trkpt lat="48.21852" lon="3.20035">
        <ele>118</ele>
        <time>2014-09-07T09:31:53.000Z</time>
      </trkpt>
      <trkpt lat="48.21853" lon="3.20043">
        <ele>117</ele>
        <time>2014-09-07T09:31:54.000Z</time>
      </trkpt>
      <trkpt lat="48.21853" lon="3.20054">
        <ele>117</ele>
        <time>2014-09-07T09:31:55.000Z</time>
      </trkpt>
      <trkpt lat="48.21853" lon="3.20063">
        <ele>117</ele>
        <time>2014-09-07T09:31:56.000Z</time>
      </trkpt>
      <trkpt lat="48.21853" lon="3.20073">
        <ele>117</ele>
        <time>2014-09-07T09:31:57.000Z</time>
      </trkpt>
      <trkpt lat="48.21853" lon="3.20082">
        <ele>117</ele>
        <time>2014-09-07T09:31:58.000Z</time>
      </trkpt>
      <trkpt lat="48.21853" lon="3.20093">
        <ele>116</ele>
        <time>2014-09-07T09:31:59.000Z</time>
      </trkpt>
      <trkpt lat="48.21854" lon="3.20103">
        <ele>116</ele>
        <time>2014-09-07T09:32:00.000Z</time>
      </trkpt>
      <trkpt lat="48.21854" lon="3.20112">
        <ele>116</ele>
        <time>2014-09-07T09:32:01.000Z</time>
      </trkpt>
      <trkpt lat="48.21854" lon="3.20123">
        <ele>116</ele>
        <time>2014-09-07T09:32:02.000Z</time>
      </trkpt>
      <trkpt lat="48.21854" lon="3.20131">
        <ele>115</ele>
        <time>2014-09-07T09:32:03.000Z</time>
      </trkpt>
      <trkpt lat="48.21854" lon="3.2014">
        <ele>115</ele>
        <time>2014-09-07T09:32:04.000Z</time>
      </trkpt>
      <trkpt lat="48.21854" lon="3.20151">
        <ele>115</ele>
        <time>2014-09-07T09:32:05.000Z</time>
      </trkpt>
      <trkpt lat="48.21855" lon="3.20159">
        <ele>115</ele>
        <time>2014-09-07T09:32:06.000Z</time>
      </trkpt>
      <trkpt lat="48.21855" lon="3.20168">
        <ele>115</ele>
        <time>2014-09-07T09:32:07.000Z</time>
      </trkpt>
      <trkpt lat="48.21855" lon="3.20176">
        <ele>115</ele>
        <time>2014-09-07T09:32:08.000Z</time>
      </trkpt>
      <trkpt lat="48.21855" lon="3.20187">
        <ele>115</ele>
        <time>2014-09-07T09:32:09.000Z</time>
      </trkpt>
      <trkpt lat="48.21856" lon="3.20196">
        <ele>114</ele>
        <time>2014-09-07T09:32:10.000Z</time>
      </trkpt>
      <trkpt lat="48.21858" lon="3.20204">
        <ele>114</ele>
        <time>2014-09-07T09:32:11.000Z</time>
      </trkpt>
      <trkpt lat="48.21859" lon="3.20213">
        <ele>114</ele>
        <time>2014-09-07T09:32:12.000Z</time>
      </trkpt>
      <trkpt lat="48.2186" lon="3.20224">
        <ele>114</ele>
        <time>2014-09-07T09:32:13.000Z</time>
      </trkpt>
      <trkpt lat="48.21861" lon="3.20234">
        <ele>114</ele>
        <time>2014-09-07T09:32:14.000Z</time>
      </trkpt>
      <trkpt lat="48.21862" lon="3.20245">
        <ele>114</ele>
        <time>2014-09-07T09:32:15.000Z</time>
      </trkpt>
      <trkpt lat="48.21864" lon="3.20256">
        <ele>114</ele>
        <time>2014-09-07T09:32:16.000Z</time>
      </trkpt>
      <trkpt lat="48.21865" lon="3.20266">
        <ele>113</ele>
        <time>2014-09-07T09:32:17.000Z</time>
      </trkpt>
      <trkpt lat="48.21866" lon="3.20275">
        <ele>113</ele>
        <time>2014-09-07T09:32:18.000Z</time>
      </trkpt>
      <trkpt lat="48.21868" lon="3.20286">
        <ele>113</ele>
        <time>2014-09-07T09:32:19.000Z</time>
      </trkpt>
      <trkpt lat="48.21869" lon="3.20297">
        <ele>113</ele>
        <time>2014-09-07T09:32:20.000Z</time>
      </trkpt>
      <trkpt lat="48.21872" lon="3.20307">
        <ele>113</ele>
        <time>2014-09-07T09:32:21.000Z</time>
      </trkpt>
      <trkpt lat="48.21873" lon="3.20318">
        <ele>113</ele>
        <time>2014-09-07T09:32:22.000Z</time>
      </trkpt>
      <trkpt lat="48.21874" lon="3.20327">
        <ele>113</ele>
        <time>2014-09-07T09:32:23.000Z</time>
      </trkpt>
      <trkpt lat="48.21876" lon="3.20337">
        <ele>112</ele>
        <time>2014-09-07T09:32:24.000Z</time>
      </trkpt>
      <trkpt lat="48.21877" lon="3.20348">
        <ele>112</ele>
        <time>2014-09-07T09:32:25.000Z</time>
      </trkpt>
      <trkpt lat="48.21879" lon="3.20359">
        <ele>112</ele>
        <time>2014-09-07T09:32:26.000Z</time>
      </trkpt>
      <trkpt lat="48.21881" lon="3.20367">
        <ele>112</ele>
        <time>2014-09-07T09:32:27.000Z</time>
      </trkpt>
      <trkpt lat="48.21883" lon="3.20378">
        <ele>112</ele>
        <time>2014-09-07T09:32:28.000Z</time>
      </trkpt>
      <trkpt lat="48.21884" lon="3.20389">
        <ele>112</ele>
        <time>2014-09-07T09:32:29.000Z</time>
      </trkpt>
      <trkpt lat="48.21885" lon="3.204">
        <ele>112</ele>
        <time>2014-09-07T09:32:30.000Z</time>
      </trkpt>
      <trkpt lat="48.21887" lon="3.2041">
        <ele>112</ele>
        <time>2014-09-07T09:32:31.000Z</time>
      </trkpt>
      <trkpt lat="48.21888" lon="3.20421">
        <ele>111</ele>
        <time>2014-09-07T09:32:32.000Z</time>
      </trkpt>
      <trkpt lat="48.21888" lon="3.20432">
        <ele>111</ele>
        <time>2014-09-07T09:32:33.000Z</time>
      </trkpt>
      <trkpt lat="48.21889" lon="3.20442">
        <ele>111</ele>
        <time>2014-09-07T09:32:34.000Z</time>
      </trkpt>
      <trkpt lat="48.21888" lon="3.20453">
        <ele>111</ele>
        <time>2014-09-07T09:32:35.000Z</time>
      </trkpt>
      <trkpt lat="48.21887" lon="3.20464">
        <ele>111</ele>
        <time>2014-09-07T09:32:36.000Z</time>
      </trkpt>
      <trkpt lat="48.21884" lon="3.20475">
        <ele>111</ele>
        <time>2014-09-07T09:32:37.000Z</time>
      </trkpt>
      <trkpt lat="48.21882" lon="3.20485">
        <ele>111</ele>
        <time>2014-09-07T09:32:38.000Z</time>
      </trkpt>
      <trkpt lat="48.2188" lon="3.20494">
        <ele>111</ele>
        <time>2014-09-07T09:32:39.000Z</time>
      </trkpt>
      <trkpt lat="48.21877" lon="3.20505">
        <ele>111</ele>
        <time>2014-09-07T09:32:40.000Z</time>
      </trkpt>
      <trkpt lat="48.21872" lon="3.20515">
        <ele>111</ele>
        <time>2014-09-07T09:32:41.000Z</time>
      </trkpt>
      <trkpt lat="48.21866" lon="3.2052">
        <ele>111</ele>
        <time>2014-09-07T09:32:42.000Z</time>
      </trkpt>
      <trkpt lat="48.2186" lon="3.20526">
        <ele>111</ele>
        <time>2014-09-07T09:32:43.000Z</time>
      </trkpt>
      <trkpt lat="48.21854" lon="3.20533">
        <ele>111</ele>
        <time>2014-09-07T09:32:44.000Z</time>
      </trkpt>
      <trkpt lat="48.21849" lon="3.20539">
        <ele>111</ele>
        <time>2014-09-07T09:32:45.000Z</time>
      </trkpt>
      <trkpt lat="48.21845" lon="3.20545">
        <ele>111</ele>
        <time>2014-09-07T09:32:46.000Z</time>
      </trkpt>
      <trkpt lat="48.21839" lon="3.20552">
        <ele>111</ele>
        <time>2014-09-07T09:32:47.000Z</time>
      </trkpt>
      <trkpt lat="48.21835" lon="3.20558">
        <ele>112</ele>
        <time>2014-09-07T09:32:48.000Z</time>
      </trkpt>
      <trkpt lat="48.21832" lon="3.20565">
        <ele>114</ele>
        <time>2014-09-07T09:32:49.000Z</time>
      </trkpt>
      <trkpt lat="48.21829" lon="3.20569">
        <ele>114</ele>
        <time>2014-09-07T09:32:50.000Z</time>
      </trkpt>
      <trkpt lat="48.21826" lon="3.20573">
        <ele>114</ele>
        <time>2014-09-07T09:32:51.000Z</time>
      </trkpt>
      <trkpt lat="48.21824" lon="3.20578">
        <ele>114</ele>
        <time>2014-09-07T09:32:52.000Z</time>
      </trkpt>
      <trkpt lat="48.21822" lon="3.20584">
        <ele>116</ele>
        <time>2014-09-07T09:32:53.000Z</time>
      </trkpt>
      <trkpt lat="48.21821" lon="3.20588">
        <ele>116</ele>
        <time>2014-09-07T09:32:54.000Z</time>
      </trkpt>
      <trkpt lat="48.21821" lon="3.20595">
        <ele>117</ele>
        <time>2014-09-07T09:32:55.000Z</time>
      </trkpt>
      <trkpt lat="48.21822" lon="3.20601">
        <ele>118</ele>
        <time>2014-09-07T09:32:56.000Z</time>
      </trkpt>
      <trkpt lat="48.21823" lon="3.20606">
        <ele>118</ele>
        <time>2014-09-07T09:32:57.000Z</time>
      </trkpt>
      <trkpt lat="48.21823" lon="3.20612">
        <ele>119</ele>
        <time>2014-09-07T09:32:58.000Z</time>
      </trkpt>
      <trkpt lat="48.21824" lon="3.20616">
        <ele>119</ele>
        <time>2014-09-07T09:32:59.000Z</time>
      </trkpt>
      <trkpt lat="48.21824" lon="3.20621">
        <ele>119</ele>
        <time>2014-09-07T09:33:00.000Z</time>
      </trkpt>
      <trkpt lat="48.21824" lon="3.20625">
        <ele>119</ele>
        <time>2014-09-07T09:33:01.000Z</time>
      </trkpt>
      <trkpt lat="48.21825" lon="3.20629">
        <ele>120</ele>
        <time>2014-09-07T09:33:02.000Z</time>
      </trkpt>
      <trkpt lat="48.21825" lon="3.20636">
        <ele>120</ele>
        <time>2014-09-07T09:33:04.000Z</time>
      </trkpt>
      <trkpt lat="48.21825" lon="3.2064">
        <ele>120</ele>
        <time>2014-09-07T09:33:05.000Z</time>
      </trkpt>
      <trkpt lat="48.21826" lon="3.20644">
        <ele>120</ele>
        <time>2014-09-07T09:33:06.000Z</time>
      </trkpt>
      <trkpt lat="48.21826" lon="3.20648">
        <ele>120</ele>
        <time>2014-09-07T09:33:07.000Z</time>
      </trkpt>
      <trkpt lat="48.21826" lon="3.20655">
        <ele>119</ele>
        <time>2014-09-07T09:33:09.000Z</time>
      </trkpt>
      <trkpt lat="48.21826" lon="3.20659">
        <ele>119</ele>
        <time>2014-09-07T09:33:10.000Z</time>
      </trkpt>
      <trkpt lat="48.21826" lon="3.20663">
        <ele>119</ele>
        <time>2014-09-07T09:33:11.000Z</time>
      </trkpt>
      <trkpt lat="48.21826" lon="3.20668">
        <ele>120</ele>
        <time>2014-09-07T09:33:12.000Z</time>
      </trkpt>
      <trkpt lat="48.21828" lon="3.20674">
        <ele>121</ele>
        <time>2014-09-07T09:33:14.000Z</time>
      </trkpt>
      <trkpt lat="48.21828" lon="3.20678">
        <ele>122</ele>
        <time>2014-09-07T09:33:15.000Z</time>
      </trkpt>
      <trkpt lat="48.21828" lon="3.20683">
        <ele>122</ele>
        <time>2014-09-07T09:33:16.000Z</time>
      </trkpt>
      <trkpt lat="48.21828" lon="3.20687">
        <ele>123</ele>
        <time>2014-09-07T09:33:17.000Z</time>
      </trkpt>
      <trkpt lat="48.21829" lon="3.20691">
        <ele>124</ele>
        <time>2014-09-07T09:33:18.000Z</time>
      </trkpt>
      <trkpt lat="48.21829" lon="3.20696">
        <ele>124</ele>
        <time>2014-09-07T09:33:19.000Z</time>
      </trkpt>
      <trkpt lat="48.2183" lon="3.207">
        <ele>124</ele>
        <time>2014-09-07T09:33:20.000Z</time>
      </trkpt>
      <trkpt lat="48.21831" lon="3.20704">
        <ele>125</ele>
        <time>2014-09-07T09:33:21.000Z</time>
      </trkpt>
      <trkpt lat="48.21831" lon="3.20709">
        <ele>125</ele>
        <time>2014-09-07T09:33:22.000Z</time>
      </trkpt>
      <trkpt lat="48.21832" lon="3.20713">
        <ele>125</ele>
        <time>2014-09-07T09:33:23.000Z</time>
      </trkpt>
      <trkpt lat="48.21832" lon="3.20719">
        <ele>125</ele>
        <time>2014-09-07T09:33:24.000Z</time>
      </trkpt>
      <trkpt lat="48.21833" lon="3.20724">
        <ele>125</ele>
        <time>2014-09-07T09:33:25.000Z</time>
      </trkpt>
      <trkpt lat="48.21834" lon="3.2073">
        <ele>118</ele>
        <time>2014-09-07T09:33:26.000Z</time>
      </trkpt>
      <trkpt lat="48.21835" lon="3.20736">
        <ele>119</ele>
        <time>2014-09-07T09:33:27.000Z</time>
      </trkpt>
      <trkpt lat="48.21835" lon="3.20743">
        <ele>121</ele>
        <time>2014-09-07T09:33:28.000Z</time>
      </trkpt>
      <trkpt lat="48.21836" lon="3.20749">
        <ele>122</ele>
        <time>2014-09-07T09:33:29.000Z</time>
      </trkpt>
      <trkpt lat="48.21837" lon="3.20756">
        <ele>121</ele>
        <time>2014-09-07T09:33:30.000Z</time>
      </trkpt>
      <trkpt lat="48.21837" lon="3.20762">
        <ele>120</ele>
        <time>2014-09-07T09:33:31.000Z</time>
      </trkpt>
      <trkpt lat="48.21838" lon="3.20769">
        <ele>119</ele>
        <time>2014-09-07T09:33:32.000Z</time>
      </trkpt>
      <trkpt lat="48.21838" lon="3.20777">
        <ele>118</ele>
        <time>2014-09-07T09:33:33.000Z</time>
      </trkpt>
      <trkpt lat="48.21839" lon="3.20784">
        <ele>118</ele>
        <time>2014-09-07T09:33:34.000Z</time>
      </trkpt>
      <trkpt lat="48.21839" lon="3.20792">
        <ele>118</ele>
        <time>2014-09-07T09:33:35.000Z</time>
      </trkpt>
      <trkpt lat="48.2184" lon="3.20799">
        <ele>118</ele>
        <time>2014-09-07T09:33:36.000Z</time>
      </trkpt>
      <trkpt lat="48.21841" lon="3.20807">
        <ele>118</ele>
        <time>2014-09-07T09:33:37.000Z</time>
      </trkpt>
      <trkpt lat="48.21843" lon="3.20816">
        <ele>119</ele>
        <time>2014-09-07T09:33:38.000Z</time>
      </trkpt>
      <trkpt lat="48.21844" lon="3.20822">
        <ele>119</ele>
        <time>2014-09-07T09:33:39.000Z</time>
      </trkpt>
      <trkpt lat="48.21845" lon="3.20831">
        <ele>120</ele>
        <time>2014-09-07T09:33:40.000Z</time>
      </trkpt>
      <trkpt lat="48.21846" lon="3.20837">
        <ele>120</ele>
        <time>2014-09-07T09:33:41.000Z</time>
      </trkpt>
      <trkpt lat="48.21847" lon="3.20846">
        <ele>119</ele>
        <time>2014-09-07T09:33:42.000Z</time>
      </trkpt>
      <trkpt lat="48.21848" lon="3.20852">
        <ele>118</ele>
        <time>2014-09-07T09:33:43.000Z</time>
      </trkpt>
      <trkpt lat="48.21849" lon="3.20861">
        <ele>118</ele>
        <time>2014-09-07T09:33:44.000Z</time>
      </trkpt>
      <trkpt lat="48.2185" lon="3.20867">
        <ele>117</ele>
        <time>2014-09-07T09:33:45.000Z</time>
      </trkpt>
      <trkpt lat="48.2185" lon="3.20874">
        <ele>117</ele>
        <time>2014-09-07T09:33:46.000Z</time>
      </trkpt>
      <trkpt lat="48.21851" lon="3.20882">
        <ele>117</ele>
        <time>2014-09-07T09:33:47.000Z</time>
      </trkpt>
      <trkpt lat="48.21851" lon="3.20889">
        <ele>117</ele>
        <time>2014-09-07T09:33:48.000Z</time>
      </trkpt>
      <trkpt lat="48.21851" lon="3.20895">
        <ele>117</ele>
        <time>2014-09-07T09:33:49.000Z</time>
      </trkpt>
      <trkpt lat="48.21852" lon="3.20902">
        <ele>117</ele>
        <time>2014-09-07T09:33:50.000Z</time>
      </trkpt>
      <trkpt lat="48.21853" lon="3.2091">
        <ele>118</ele>
        <time>2014-09-07T09:33:51.000Z</time>
      </trkpt>
      <trkpt lat="48.21855" lon="3.20917">
        <ele>117</ele>
        <time>2014-09-07T09:33:52.000Z</time>
      </trkpt>
      <trkpt lat="48.21856" lon="3.20925">
        <ele>117</ele>
        <time>2014-09-07T09:33:53.000Z</time>
      </trkpt>
      <trkpt lat="48.21859" lon="3.20934">
        <ele>117</ele>
        <time>2014-09-07T09:33:54.000Z</time>
      </trkpt>
      <trkpt lat="48.2186" lon="3.2094">
        <ele>117</ele>
        <time>2014-09-07T09:33:55.000Z</time>
      </trkpt>
      <trkpt lat="48.21861" lon="3.20949">
        <ele>117</ele>
        <time>2014-09-07T09:33:56.000Z</time>
      </trkpt>
      <trkpt lat="48.21862" lon="3.20957">
        <ele>117</ele>
        <time>2014-09-07T09:33:57.000Z</time>
      </trkpt>
      <trkpt lat="48.21862" lon="3.20964">
        <ele>117</ele>
        <time>2014-09-07T09:33:58.000Z</time>
      </trkpt>
      <trkpt lat="48.21863" lon="3.20972">
        <ele>117</ele>
        <time>2014-09-07T09:33:59.000Z</time>
      </trkpt>
      <trkpt lat="48.21863" lon="3.20979">
        <ele>117</ele>
        <time>2014-09-07T09:34:00.000Z</time>
      </trkpt>
      <trkpt lat="48.21864" lon="3.20987">
        <ele>117</ele>
        <time>2014-09-07T09:34:01.000Z</time>
      </trkpt>
      <trkpt lat="48.21864" lon="3.20994">
        <ele>117</ele>
        <time>2014-09-07T09:34:02.000Z</time>
      </trkpt>
      <trkpt lat="48.21865" lon="3.21002">
        <ele>117</ele>
        <time>2014-09-07T09:34:03.000Z</time>
      </trkpt>
      <trkpt lat="48.21865" lon="3.21009">
        <ele>117</ele>
        <time>2014-09-07T09:34:04.000Z</time>
      </trkpt>
      <trkpt lat="48.21865" lon="3.21018">
        <ele>116</ele>
        <time>2014-09-07T09:34:05.000Z</time>
      </trkpt>
      <trkpt lat="48.21866" lon="3.21026">
        <ele>116</ele>
        <time>2014-09-07T09:34:06.000Z</time>
      </trkpt>
      <trkpt lat="48.21866" lon="3.21035">
        <ele>116</ele>
        <time>2014-09-07T09:34:07.000Z</time>
      </trkpt>
      <trkpt lat="48.21867" lon="3.21043">
        <ele>116</ele>
        <time>2014-09-07T09:34:08.000Z</time>
      </trkpt>
      <trkpt lat="48.21867" lon="3.2105">
        <ele>116</ele>
        <time>2014-09-07T09:34:09.000Z</time>
      </trkpt>
      <trkpt lat="48.21868" lon="3.21058">
        <ele>116</ele>
        <time>2014-09-07T09:34:10.000Z</time>
      </trkpt>
      <trkpt lat="48.21869" lon="3.21067">
        <ele>116</ele>
        <time>2014-09-07T09:34:11.000Z</time>
      </trkpt>
      <trkpt lat="48.21869" lon="3.21075">
        <ele>116</ele>
        <time>2014-09-07T09:34:12.000Z</time>
      </trkpt>
      <trkpt lat="48.2187" lon="3.21086">
        <ele>116</ele>
        <time>2014-09-07T09:34:13.000Z</time>
      </trkpt>
      <trkpt lat="48.21872" lon="3.21095">
        <ele>115</ele>
        <time>2014-09-07T09:34:14.000Z</time>
      </trkpt>
      <trkpt lat="48.21873" lon="3.21103">
        <ele>115</ele>
        <time>2014-09-07T09:34:15.000Z</time>
      </trkpt>
      <trkpt lat="48.21874" lon="3.21112">
        <ele>115</ele>
        <time>2014-09-07T09:34:16.000Z</time>
      </trkpt>
      <trkpt lat="48.21875" lon="3.21121">
        <ele>115</ele>
        <time>2014-09-07T09:34:17.000Z</time>
      </trkpt>
      <trkpt lat="48.21876" lon="3.21129">
        <ele>115</ele>
        <time>2014-09-07T09:34:18.000Z</time>
      </trkpt>
      <trkpt lat="48.21877" lon="3.21138">
        <ele>115</ele>
        <time>2014-09-07T09:34:19.000Z</time>
      </trkpt>
      <trkpt lat="48.21878" lon="3.21146">
        <ele>115</ele>
        <time>2014-09-07T09:34:20.000Z</time>
      </trkpt>
      <trkpt lat="48.21878" lon="3.21155">
        <ele>115</ele>
        <time>2014-09-07T09:34:21.000Z</time>
      </trkpt>
      <trkpt lat="48.21879" lon="3.21163">
        <ele>115</ele>
        <time>2014-09-07T09:34:22.000Z</time>
      </trkpt>
      <trkpt lat="48.2188" lon="3.21172">
        <ele>115</ele>
        <time>2014-09-07T09:34:23.000Z</time>
      </trkpt>
      <trkpt lat="48.21882" lon="3.21178">
        <ele>115</ele>
        <time>2014-09-07T09:34:24.000Z</time>
      </trkpt>
      <trkpt lat="48.21883" lon="3.21187">
        <ele>115</ele>
        <time>2014-09-07T09:34:25.000Z</time>
      </trkpt>
      <trkpt lat="48.21884" lon="3.21196">
        <ele>114</ele>
        <time>2014-09-07T09:34:26.000Z</time>
      </trkpt>
      <trkpt lat="48.21887" lon="3.21202">
        <ele>114</ele>
        <time>2014-09-07T09:34:27.000Z</time>
      </trkpt>
      <trkpt lat="48.21888" lon="3.21211">
        <ele>114</ele>
        <time>2014-09-07T09:34:28.000Z</time>
      </trkpt>
      <trkpt lat="48.2189" lon="3.21219">
        <ele>114</ele>
        <time>2014-09-07T09:34:29.000Z</time>
      </trkpt>
      <trkpt lat="48.21891" lon="3.21228">
        <ele>114</ele>
        <time>2014-09-07T09:34:30.000Z</time>
      </trkpt>
      <trkpt lat="48.21893" lon="3.21236">
        <ele>113</ele>
        <time>2014-09-07T09:34:31.000Z</time>
      </trkpt>
      <trkpt lat="48.21894" lon="3.21245">
        <ele>113</ele>
        <time>2014-09-07T09:34:32.000Z</time>
      </trkpt>
      <trkpt lat="48.21895" lon="3.21254">
        <ele>112</ele>
        <time>2014-09-07T09:34:33.000Z</time>
      </trkpt>
      <trkpt lat="48.21895" lon="3.21262">
        <ele>112</ele>
        <time>2014-09-07T09:34:34.000Z</time>
      </trkpt>
      <trkpt lat="48.21895" lon="3.21271">
        <ele>113</ele>
        <time>2014-09-07T09:34:35.000Z</time>
      </trkpt>
      <trkpt lat="48.21895" lon="3.21279">
        <ele>113</ele>
        <time>2014-09-07T09:34:36.000Z</time>
      </trkpt>
      <trkpt lat="48.21895" lon="3.21286">
        <ele>113</ele>
        <time>2014-09-07T09:34:37.000Z</time>
      </trkpt>
      <trkpt lat="48.21896" lon="3.21294">
        <ele>113</ele>
        <time>2014-09-07T09:34:38.000Z</time>
      </trkpt>
      <trkpt lat="48.21896" lon="3.21303">
        <ele>113</ele>
        <time>2014-09-07T09:34:39.000Z</time>
      </trkpt>
      <trkpt lat="48.21896" lon="3.21309">
        <ele>113</ele>
        <time>2014-09-07T09:34:40.000Z</time>
      </trkpt>
      <trkpt lat="48.21896" lon="3.21316">
        <ele>112</ele>
        <time>2014-09-07T09:34:41.000Z</time>
      </trkpt>
      <trkpt lat="48.21896" lon="3.21324">
        <ele>112</ele>
        <time>2014-09-07T09:34:42.000Z</time>
      </trkpt>
      <trkpt lat="48.21895" lon="3.21331">
        <ele>112</ele>
        <time>2014-09-07T09:34:43.000Z</time>
      </trkpt>
      <trkpt lat="48.21895" lon="3.21337">
        <ele>112</ele>
        <time>2014-09-07T09:34:44.000Z</time>
      </trkpt>
      <trkpt lat="48.21895" lon="3.21346">
        <ele>112</ele>
        <time>2014-09-07T09:34:45.000Z</time>
      </trkpt>
      <trkpt lat="48.21894" lon="3.21352">
        <ele>112</ele>
        <time>2014-09-07T09:34:46.000Z</time>
      </trkpt>
      <trkpt lat="48.21894" lon="3.21359">
        <ele>113</ele>
        <time>2014-09-07T09:34:47.000Z</time>
      </trkpt>
      <trkpt lat="48.21893" lon="3.21367">
        <ele>113</ele>
        <time>2014-09-07T09:34:48.000Z</time>
      </trkpt>
      <trkpt lat="48.21893" lon="3.21374">
        <ele>113</ele>
        <time>2014-09-07T09:34:49.000Z</time>
      </trkpt>
      <trkpt lat="48.21892" lon="3.2138">
        <ele>113</ele>
        <time>2014-09-07T09:34:50.000Z</time>
      </trkpt>
      <trkpt lat="48.21892" lon="3.21387">
        <ele>113</ele>
        <time>2014-09-07T09:34:51.000Z</time>
      </trkpt>
      <trkpt lat="48.21891" lon="3.21395">
        <ele>113</ele>
        <time>2014-09-07T09:34:52.000Z</time>
      </trkpt>
      <trkpt lat="48.2189" lon="3.21402">
        <ele>113</ele>
        <time>2014-09-07T09:34:53.000Z</time>
      </trkpt>
      <trkpt lat="48.2189" lon="3.2141">
        <ele>112</ele>
        <time>2014-09-07T09:34:54.000Z</time>
      </trkpt>
      <trkpt lat="48.21889" lon="3.21417">
        <ele>113</ele>
        <time>2014-09-07T09:34:55.000Z</time>
      </trkpt>
      <trkpt lat="48.21887" lon="3.21423">
        <ele>111</ele>
        <time>2014-09-07T09:34:56.000Z</time>
      </trkpt>
      <trkpt lat="48.21885" lon="3.21429">
        <ele>111</ele>
        <time>2014-09-07T09:34:57.000Z</time>
      </trkpt>
      <trkpt lat="48.21884" lon="3.21436">
        <ele>111</ele>
        <time>2014-09-07T09:34:58.000Z</time>
      </trkpt>
      <trkpt lat="48.21883" lon="3.21442">
        <ele>111</ele>
        <time>2014-09-07T09:34:59.000Z</time>
      </trkpt>
      <trkpt lat="48.21882" lon="3.21449">
        <ele>111</ele>
        <time>2014-09-07T09:35:00.000Z</time>
      </trkpt>
      <trkpt lat="48.21881" lon="3.21455">
        <ele>111</ele>
        <time>2014-09-07T09:35:01.000Z</time>
      </trkpt>
      <trkpt lat="48.2188" lon="3.21462">
        <ele>111</ele>
        <time>2014-09-07T09:35:02.000Z</time>
      </trkpt>
      <trkpt lat="48.21879" lon="3.21468">
        <ele>111</ele>
        <time>2014-09-07T09:35:03.000Z</time>
      </trkpt>
      <trkpt lat="48.21879" lon="3.21477">
        <ele>111</ele>
        <time>2014-09-07T09:35:04.000Z</time>
      </trkpt>
      <trkpt lat="48.21879" lon="3.21483">
        <ele>111</ele>
        <time>2014-09-07T09:35:05.000Z</time>
      </trkpt>
      <trkpt lat="48.2188" lon="3.21492">
        <ele>110</ele>
        <time>2014-09-07T09:35:06.000Z</time>
      </trkpt>
      <trkpt lat="48.21881" lon="3.21498">
        <ele>110</ele>
        <time>2014-09-07T09:35:07.000Z</time>
      </trkpt>
      <trkpt lat="48.21882" lon="3.21507">
        <ele>108</ele>
        <time>2014-09-07T09:35:08.000Z</time>
      </trkpt>
      <trkpt lat="48.21883" lon="3.21515">
        <ele>108</ele>
        <time>2014-09-07T09:35:09.000Z</time>
      </trkpt>
      <trkpt lat="48.21883" lon="3.21524">
        <ele>108</ele>
        <time>2014-09-07T09:35:10.000Z</time>
      </trkpt>
      <trkpt lat="48.21884" lon="3.21535">
        <ele>108</ele>
        <time>2014-09-07T09:35:11.000Z</time>
      </trkpt>
      <trkpt lat="48.21884" lon="3.21543">
        <ele>108</ele>
        <time>2014-09-07T09:35:12.000Z</time>
      </trkpt>
      <trkpt lat="48.21885" lon="3.21556">
        <ele>108</ele>
        <time>2014-09-07T09:35:13.000Z</time>
      </trkpt>
      <trkpt lat="48.21887" lon="3.21567">
        <ele>107</ele>
        <time>2014-09-07T09:35:14.000Z</time>
      </trkpt>
      <trkpt lat="48.21888" lon="3.2158">
        <ele>107</ele>
        <time>2014-09-07T09:35:15.000Z</time>
      </trkpt>
      <trkpt lat="48.21889" lon="3.2159">
        <ele>105</ele>
        <time>2014-09-07T09:35:16.000Z</time>
      </trkpt>
      <trkpt lat="48.21889" lon="3.21601">
        <ele>105</ele>
        <time>2014-09-07T09:35:17.000Z</time>
      </trkpt>
      <trkpt lat="48.21888" lon="3.21612">
        <ele>105</ele>
        <time>2014-09-07T09:35:18.000Z</time>
      </trkpt>
      <trkpt lat="48.21887" lon="3.2162">
        <ele>105</ele>
        <time>2014-09-07T09:35:19.000Z</time>
      </trkpt>
      <trkpt lat="48.21885" lon="3.21631">
        <ele>105</ele>
        <time>2014-09-07T09:35:20.000Z</time>
      </trkpt>
      <trkpt lat="48.21887" lon="3.21642">
        <ele>105</ele>
        <time>2014-09-07T09:35:21.000Z</time>
      </trkpt>
      <trkpt lat="48.21889" lon="3.21655">
        <ele>104</ele>
        <time>2014-09-07T09:35:22.000Z</time>
      </trkpt>
      <trkpt lat="48.21893" lon="3.2167">
        <ele>103</ele>
        <time>2014-09-07T09:35:23.000Z</time>
      </trkpt>
      <trkpt lat="48.21898" lon="3.21687">
        <ele>102</ele>
        <time>2014-09-07T09:35:24.000Z</time>
      </trkpt>
      <trkpt lat="48.21903" lon="3.21702">
        <ele>102</ele>
        <time>2014-09-07T09:35:25.000Z</time>
      </trkpt>
      <trkpt lat="48.21906" lon="3.21715">
        <ele>102</ele>
        <time>2014-09-07T09:35:26.000Z</time>
      </trkpt>
      <trkpt lat="48.21907" lon="3.21732">
        <ele>101</ele>
        <time>2014-09-07T09:35:27.000Z</time>
      </trkpt>
      <trkpt lat="48.21908" lon="3.21747">
        <ele>101</ele>
        <time>2014-09-07T09:35:28.000Z</time>
      </trkpt>
      <trkpt lat="48.21909" lon="3.21762">
        <ele>100</ele>
        <time>2014-09-07T09:35:29.000Z</time>
      </trkpt>
      <trkpt lat="48.21911" lon="3.21775">
        <ele>101</ele>
        <time>2014-09-07T09:35:30.000Z</time>
      </trkpt>
      <trkpt lat="48.21914" lon="3.21786">
        <ele>101</ele>
        <time>2014-09-07T09:35:31.000Z</time>
      </trkpt>
      <trkpt lat="48.21919" lon="3.21794">
        <ele>99</ele>
        <time>2014-09-07T09:35:32.000Z</time>
      </trkpt>
      <trkpt lat="48.21924" lon="3.21801">
        <ele>99</ele>
        <time>2014-09-07T09:35:33.000Z</time>
      </trkpt>
      <trkpt lat="48.21931" lon="3.21807">
        <ele>99</ele>
        <time>2014-09-07T09:35:34.000Z</time>
      </trkpt>
      <trkpt lat="48.21936" lon="3.21811">
        <ele>99</ele>
        <time>2014-09-07T09:35:35.000Z</time>
      </trkpt>
      <trkpt lat="48.21941" lon="3.21814">
        <ele>99</ele>
        <time>2014-09-07T09:35:36.000Z</time>
      </trkpt>
      <trkpt lat="48.21947" lon="3.21818">
        <ele>99</ele>
        <time>2014-09-07T09:35:37.000Z</time>
      </trkpt>
      <trkpt lat="48.21951" lon="3.2182">
        <ele>99</ele>
        <time>2014-09-07T09:35:38.000Z</time>
      </trkpt>
      <trkpt lat="48.21956" lon="3.21822">
        <ele>99</ele>
        <time>2014-09-07T09:35:39.000Z</time>
      </trkpt>
      <trkpt lat="48.21961" lon="3.21822">
        <ele>99</ele>
        <time>2014-09-07T09:35:40.000Z</time>
      </trkpt>
      <trkpt lat="48.21964" lon="3.21824">
        <ele>99</ele>
        <time>2014-09-07T09:35:41.000Z</time>
      </trkpt>
      <trkpt lat="48.21967" lon="3.21824">
        <ele>99</ele>
        <time>2014-09-07T09:35:42.000Z</time>
      </trkpt>
      <trkpt lat="48.21971" lon="3.21824">
        <ele>99</ele>
        <time>2014-09-07T09:35:43.000Z</time>
      </trkpt>
      <trkpt lat="48.21973" lon="3.21826">
        <ele>99</ele>
        <time>2014-09-07T09:35:44.000Z</time>
      </trkpt>
      <trkpt lat="48.21977" lon="3.21829">
        <ele>99</ele>
        <time>2014-09-07T09:35:45.000Z</time>
      </trkpt>
      <trkpt lat="48.2198" lon="3.21829">
        <ele>99</ele>
        <time>2014-09-07T09:35:46.000Z</time>
      </trkpt>
      <trkpt lat="48.21982" lon="3.21831">
        <ele>99</ele>
        <time>2014-09-07T09:35:47.000Z</time>
      </trkpt>
      <trkpt lat="48.21985" lon="3.21833">
        <ele>99</ele>
        <time>2014-09-07T09:35:48.000Z</time>
      </trkpt>
      <trkpt lat="48.21987" lon="3.21833">
        <ele>99</ele>
        <time>2014-09-07T09:35:49.000Z</time>
      </trkpt>
      <trkpt lat="48.21991" lon="3.21835">
        <ele>100</ele>
        <time>2014-09-07T09:35:50.000Z</time>
      </trkpt>
      <trkpt lat="48.21993" lon="3.21837">
        <ele>99</ele>
        <time>2014-09-07T09:35:51.000Z</time>
      </trkpt>
      <trkpt lat="48.21996" lon="3.21837">
        <ele>99</ele>
        <time>2014-09-07T09:35:52.000Z</time>
      </trkpt>
      <trkpt lat="48.21998" lon="3.21837">
        <ele>99</ele>
        <time>2014-09-07T09:35:53.000Z</time>
      </trkpt>
      <trkpt lat="48.22001" lon="3.21839">
        <ele>99</ele>
        <time>2014-09-07T09:35:54.000Z</time>
      </trkpt>
      <trkpt lat="48.22003" lon="3.21841">
        <ele>99</ele>
        <time>2014-09-07T09:35:55.000Z</time>
      </trkpt>
      <trkpt lat="48.22007" lon="3.21841">
        <ele>99</ele>
        <time>2014-09-07T09:35:56.000Z</time>
      </trkpt>
      <trkpt lat="48.22009" lon="3.21844">
        <ele>99</ele>
        <time>2014-09-07T09:35:57.000Z</time>
      </trkpt>
      <trkpt lat="48.22012" lon="3.21846">
        <ele>99</ele>
        <time>2014-09-07T09:35:58.000Z</time>
      </trkpt>
      <trkpt lat="48.22014" lon="3.21848">
        <ele>99</ele>
        <time>2014-09-07T09:35:59.000Z</time>
      </trkpt>
      <trkpt lat="48.22017" lon="3.21848">
        <ele>99</ele>
        <time>2014-09-07T09:36:00.000Z</time>
      </trkpt>
      <trkpt lat="48.2202" lon="3.2185">
        <ele>99</ele>
        <time>2014-09-07T09:36:01.000Z</time>
      </trkpt>
      <trkpt lat="48.22023" lon="3.21852">
        <ele>98</ele>
        <time>2014-09-07T09:36:02.000Z</time>
      </trkpt>
      <trkpt lat="48.22026" lon="3.21854">
        <ele>98</ele>
        <time>2014-09-07T09:36:03.000Z</time>
      </trkpt>
      <trkpt lat="48.22029" lon="3.21856">
        <ele>98</ele>
        <time>2014-09-07T09:36:04.000Z</time>
      </trkpt>
      <trkpt lat="48.22031" lon="3.21861">
        <ele>98</ele>
        <time>2014-09-07T09:36:05.000Z</time>
      </trkpt>
      <trkpt lat="48.22034" lon="3.21863">
        <ele>98</ele>
        <time>2014-09-07T09:36:06.000Z</time>
      </trkpt>
      <trkpt lat="48.22036" lon="3.21867">
        <ele>98</ele>
        <time>2014-09-07T09:36:07.000Z</time>
      </trkpt>
      <trkpt lat="48.22038" lon="3.21872">
        <ele>98</ele>
        <time>2014-09-07T09:36:08.000Z</time>
      </trkpt>
      <trkpt lat="48.22039" lon="3.21876">
        <ele>98</ele>
        <time>2014-09-07T09:36:09.000Z</time>
      </trkpt>
      <trkpt lat="48.2204" lon="3.2188">
        <ele>98</ele>
        <time>2014-09-07T09:36:10.000Z</time>
      </trkpt>
      <trkpt lat="48.22042" lon="3.21884">
        <ele>98</ele>
        <time>2014-09-07T09:36:11.000Z</time>
      </trkpt>
      <trkpt lat="48.22043" lon="3.21891">
        <ele>98</ele>
        <time>2014-09-07T09:36:12.000Z</time>
      </trkpt>
      <trkpt lat="48.22043" lon="3.21895">
        <ele>98</ele>
        <time>2014-09-07T09:36:13.000Z</time>
      </trkpt>
      <trkpt lat="48.22045" lon="3.21899">
        <ele>98</ele>
        <time>2014-09-07T09:36:14.000Z</time>
      </trkpt>
      <trkpt lat="48.22046" lon="3.21904">
        <ele>98</ele>
        <time>2014-09-07T09:36:15.000Z</time>
      </trkpt>
      <trkpt lat="48.22046" lon="3.21908">
        <ele>98</ele>
        <time>2014-09-07T09:36:16.000Z</time>
      </trkpt>
      <trkpt lat="48.22045" lon="3.21914">
        <ele>99</ele>
        <time>2014-09-07T09:36:17.000Z</time>
      </trkpt>
      <trkpt lat="48.22044" lon="3.21919">
        <ele>100</ele>
        <time>2014-09-07T09:36:18.000Z</time>
      </trkpt>
      <trkpt lat="48.22042" lon="3.21925">
        <ele>100</ele>
        <time>2014-09-07T09:36:19.000Z</time>
      </trkpt>
      <trkpt lat="48.22041" lon="3.21929">
        <ele>101</ele>
        <time>2014-09-07T09:36:20.000Z</time>
      </trkpt>
      <trkpt lat="48.2204" lon="3.21934">
        <ele>101</ele>
        <time>2014-09-07T09:36:21.000Z</time>
      </trkpt>
      <trkpt lat="48.2204" lon="3.2194">
        <ele>101</ele>
        <time>2014-09-07T09:36:22.000Z</time>
      </trkpt>
      <trkpt lat="48.22039" lon="3.21947">
        <ele>101</ele>
        <time>2014-09-07T09:36:23.000Z</time>
      </trkpt>
      <trkpt lat="48.22038" lon="3.21951">
        <ele>101</ele>
        <time>2014-09-07T09:36:24.000Z</time>
      </trkpt>
      <trkpt lat="48.22038" lon="3.21957">
        <ele>101</ele>
        <time>2014-09-07T09:36:25.000Z</time>
      </trkpt>
      <trkpt lat="48.22037" lon="3.21962">
        <ele>101</ele>
        <time>2014-09-07T09:36:26.000Z</time>
      </trkpt>
      <trkpt lat="48.22035" lon="3.21966">
        <ele>101</ele>
        <time>2014-09-07T09:36:27.000Z</time>
      </trkpt>
      <trkpt lat="48.22034" lon="3.2197">
        <ele>101</ele>
        <time>2014-09-07T09:36:28.000Z</time>
      </trkpt>
      <trkpt lat="48.22032" lon="3.21977">
        <ele>101</ele>
        <time>2014-09-07T09:36:29.000Z</time>
      </trkpt>
      <trkpt lat="48.22031" lon="3.21981">
        <ele>101</ele>
        <time>2014-09-07T09:36:30.000Z</time>
      </trkpt>
      <trkpt lat="48.2203" lon="3.21985">
        <ele>101</ele>
        <time>2014-09-07T09:36:31.000Z</time>
      </trkpt>
      <trkpt lat="48.22028" lon="3.2199">
        <ele>102</ele>
        <time>2014-09-07T09:36:32.000Z</time>
      </trkpt>
      <trkpt lat="48.22027" lon="3.21996">
        <ele>102</ele>
        <time>2014-09-07T09:36:33.000Z</time>
      </trkpt>
      <trkpt lat="48.22026" lon="3.22">
        <ele>102</ele>
        <time>2014-09-07T09:36:34.000Z</time>
      </trkpt>
      <trkpt lat="48.22024" lon="3.22007">
        <ele>102</ele>
        <time>2014-09-07T09:36:35.000Z</time>
      </trkpt>
      <trkpt lat="48.22023" lon="3.22011">
        <ele>102</ele>
        <time>2014-09-07T09:36:36.000Z</time>
      </trkpt>
      <trkpt lat="48.22021" lon="3.22015">
        <ele>102</ele>
        <time>2014-09-07T09:36:37.000Z</time>
      </trkpt>
      <trkpt lat="48.22019" lon="3.2202">
        <ele>102</ele>
        <time>2014-09-07T09:36:38.000Z</time>
      </trkpt>
      <trkpt lat="48.22016" lon="3.22024">
        <ele>102</ele>
        <time>2014-09-07T09:36:39.000Z</time>
      </trkpt>
      <trkpt lat="48.22015" lon="3.22028">
        <ele>102</ele>
        <time>2014-09-07T09:36:40.000Z</time>
      </trkpt>
      <trkpt lat="48.22013" lon="3.22032">
        <ele>102</ele>
        <time>2014-09-07T09:36:41.000Z</time>
      </trkpt>
      <trkpt lat="48.22012" lon="3.22037">
        <ele>102</ele>
        <time>2014-09-07T09:36:42.000Z</time>
      </trkpt>
      <trkpt lat="48.2201" lon="3.22041">
        <ele>102</ele>
        <time>2014-09-07T09:36:43.000Z</time>
      </trkpt>
      <trkpt lat="48.22009" lon="3.22047">
        <ele>102</ele>
        <time>2014-09-07T09:36:44.000Z</time>
      </trkpt>
      <trkpt lat="48.22008" lon="3.22052">
        <ele>102</ele>
        <time>2014-09-07T09:36:45.000Z</time>
      </trkpt>
      <trkpt lat="48.22007" lon="3.22056">
        <ele>102</ele>
        <time>2014-09-07T09:36:46.000Z</time>
      </trkpt>
      <trkpt lat="48.22005" lon="3.2206">
        <ele>102</ele>
        <time>2014-09-07T09:36:47.000Z</time>
      </trkpt>
      <trkpt lat="48.22003" lon="3.22065">
        <ele>102</ele>
        <time>2014-09-07T09:36:48.000Z</time>
      </trkpt>
      <trkpt lat="48.22001" lon="3.22069">
        <ele>102</ele>
        <time>2014-09-07T09:36:49.000Z</time>
      </trkpt>
      <trkpt lat="48.22" lon="3.22073">
        <ele>102</ele>
        <time>2014-09-07T09:36:50.000Z</time>
      </trkpt>
      <trkpt lat="48.21998" lon="3.22078">
        <ele>102</ele>
        <time>2014-09-07T09:36:51.000Z</time>
      </trkpt>
      <trkpt lat="48.21996" lon="3.2208">
        <ele>102</ele>
        <time>2014-09-07T09:36:52.000Z</time>
      </trkpt>
      <trkpt lat="48.21995" lon="3.22086">
        <ele>102</ele>
        <time>2014-09-07T09:36:53.000Z</time>
      </trkpt>
      <trkpt lat="48.21994" lon="3.2209">
        <ele>102</ele>
        <time>2014-09-07T09:36:54.000Z</time>
      </trkpt>
      <trkpt lat="48.21993" lon="3.22095">
        <ele>101</ele>
        <time>2014-09-07T09:36:55.000Z</time>
      </trkpt>
      <trkpt lat="48.21991" lon="3.22099">
        <ele>101</ele>
        <time>2014-09-07T09:36:56.000Z</time>
      </trkpt>
      <trkpt lat="48.2199" lon="3.22103">
        <ele>101</ele>
        <time>2014-09-07T09:36:57.000Z</time>
      </trkpt>
      <trkpt lat="48.21988" lon="3.22108">
        <ele>101</ele>
        <time>2014-09-07T09:36:58.000Z</time>
      </trkpt>
      <trkpt lat="48.21986" lon="3.22112">
        <ele>101</ele>
        <time>2014-09-07T09:36:59.000Z</time>
      </trkpt>
      <trkpt lat="48.21985" lon="3.22118">
        <ele>100</ele>
        <time>2014-09-07T09:37:00.000Z</time>
      </trkpt>
      <trkpt lat="48.21983" lon="3.22123">
        <ele>100</ele>
        <time>2014-09-07T09:37:01.000Z</time>
      </trkpt>
      <trkpt lat="48.21982" lon="3.22127">
        <ele>100</ele>
        <time>2014-09-07T09:37:02.000Z</time>
      </trkpt>
      <trkpt lat="48.21981" lon="3.22131">
        <ele>100</ele>
        <time>2014-09-07T09:37:03.000Z</time>
      </trkpt>
      <trkpt lat="48.2198" lon="3.22138">
        <ele>100</ele>
        <time>2014-09-07T09:37:04.000Z</time>
      </trkpt>
      <trkpt lat="48.21979" lon="3.22146">
        <ele>99</ele>
        <time>2014-09-07T09:37:05.000Z</time>
      </trkpt>
      <trkpt lat="48.21979" lon="3.22155">
        <ele>99</ele>
        <time>2014-09-07T09:37:06.000Z</time>
      </trkpt>
      <trkpt lat="48.21981" lon="3.22163">
        <ele>98</ele>
        <time>2014-09-07T09:37:07.000Z</time>
      </trkpt>
      <trkpt lat="48.21984" lon="3.22174">
        <ele>97</ele>
        <time>2014-09-07T09:37:08.000Z</time>
      </trkpt>
      <trkpt lat="48.21987" lon="3.22187">
        <ele>97</ele>
        <time>2014-09-07T09:37:09.000Z</time>
      </trkpt>
      <trkpt lat="48.21991" lon="3.22198">
        <ele>96</ele>
        <time>2014-09-07T09:37:10.000Z</time>
      </trkpt>
      <trkpt lat="48.21995" lon="3.22208">
        <ele>96</ele>
        <time>2014-09-07T09:37:11.000Z</time>
      </trkpt>
      <trkpt lat="48.21998" lon="3.22217">
        <ele>96</ele>
        <time>2014-09-07T09:37:12.000Z</time>
      </trkpt>
      <trkpt lat="48.22" lon="3.22226">
        <ele>94</ele>
        <time>2014-09-07T09:37:13.000Z</time>
      </trkpt>
      <trkpt lat="48.22003" lon="3.22234">
        <ele>94</ele>
        <time>2014-09-07T09:37:14.000Z</time>
      </trkpt>
      <trkpt lat="48.22006" lon="3.22243">
        <ele>94</ele>
        <time>2014-09-07T09:37:15.000Z</time>
      </trkpt>
      <trkpt lat="48.22008" lon="3.22251">
        <ele>93</ele>
        <time>2014-09-07T09:37:16.000Z</time>
      </trkpt>
      <trkpt lat="48.22009" lon="3.2226">
        <ele>93</ele>
        <time>2014-09-07T09:37:17.000Z</time>
      </trkpt>
      <trkpt lat="48.22011" lon="3.22268">
        <ele>93</ele>
        <time>2014-09-07T09:37:18.000Z</time>
      </trkpt>
      <trkpt lat="48.22013" lon="3.22275">
        <ele>93</ele>
        <time>2014-09-07T09:37:19.000Z</time>
      </trkpt>
      <trkpt lat="48.22014" lon="3.22284">
        <ele>92</ele>
        <time>2014-09-07T09:37:20.000Z</time>
      </trkpt>
      <trkpt lat="48.22016" lon="3.2229">
        <ele>92</ele>
        <time>2014-09-07T09:37:21.000Z</time>
      </trkpt>
      <trkpt lat="48.22017" lon="3.22299">
        <ele>92</ele>
        <time>2014-09-07T09:37:22.000Z</time>
      </trkpt>
      <trkpt lat="48.22019" lon="3.22305">
        <ele>92</ele>
        <time>2014-09-07T09:37:23.000Z</time>
      </trkpt>
      <trkpt lat="48.2202" lon="3.22314">
        <ele>92</ele>
        <time>2014-09-07T09:37:24.000Z</time>
      </trkpt>
      <trkpt lat="48.22021" lon="3.2232">
        <ele>92</ele>
        <time>2014-09-07T09:37:25.000Z</time>
      </trkpt>
      <trkpt lat="48.22022" lon="3.22329">
        <ele>92</ele>
        <time>2014-09-07T09:37:26.000Z</time>
      </trkpt>
      <trkpt lat="48.22023" lon="3.22335">
        <ele>92</ele>
        <time>2014-09-07T09:37:27.000Z</time>
      </trkpt>
      <trkpt lat="48.22024" lon="3.22344">
        <ele>91</ele>
        <time>2014-09-07T09:37:28.000Z</time>
      </trkpt>
      <trkpt lat="48.22025" lon="3.2235">
        <ele>91</ele>
        <time>2014-09-07T09:37:29.000Z</time>
      </trkpt>
      <trkpt lat="48.22025" lon="3.22359">
        <ele>91</ele>
        <time>2014-09-07T09:37:30.000Z</time>
      </trkpt>
      <trkpt lat="48.22024" lon="3.22365">
        <ele>91</ele>
        <time>2014-09-07T09:37:31.000Z</time>
      </trkpt>
      <trkpt lat="48.22024" lon="3.22374">
        <ele>91</ele>
        <time>2014-09-07T09:37:32.000Z</time>
      </trkpt>
      <trkpt lat="48.22023" lon="3.2238">
        <ele>91</ele>
        <time>2014-09-07T09:37:33.000Z</time>
      </trkpt>
      <trkpt lat="48.22022" lon="3.22387">
        <ele>91</ele>
        <time>2014-09-07T09:37:34.000Z</time>
      </trkpt>
      <trkpt lat="48.22021" lon="3.22395">
        <ele>91</ele>
        <time>2014-09-07T09:37:35.000Z</time>
      </trkpt>
      <trkpt lat="48.2202" lon="3.22402">
        <ele>92</ele>
        <time>2014-09-07T09:37:36.000Z</time>
      </trkpt>
      <trkpt lat="48.2202" lon="3.2241">
        <ele>92</ele>
        <time>2014-09-07T09:37:37.000Z</time>
      </trkpt>
      <trkpt lat="48.22019" lon="3.22419">
        <ele>92</ele>
        <time>2014-09-07T09:37:38.000Z</time>
      </trkpt>
      <trkpt lat="48.22019" lon="3.22427">
        <ele>91</ele>
        <time>2014-09-07T09:37:39.000Z</time>
      </trkpt>
      <trkpt lat="48.22019" lon="3.22436">
        <ele>91</ele>
        <time>2014-09-07T09:37:40.000Z</time>
      </trkpt>
      <trkpt lat="48.22017" lon="3.22442">
        <ele>91</ele>
        <time>2014-09-07T09:37:41.000Z</time>
      </trkpt>
      <trkpt lat="48.22017" lon="3.22451">
        <ele>91</ele>
        <time>2014-09-07T09:37:42.000Z</time>
      </trkpt>
      <trkpt lat="48.22017" lon="3.22459">
        <ele>91</ele>
        <time>2014-09-07T09:37:43.000Z</time>
      </trkpt>
      <trkpt lat="48.22017" lon="3.22466">
        <ele>91</ele>
        <time>2014-09-07T09:37:44.000Z</time>
      </trkpt>
      <trkpt lat="48.22016" lon="3.22474">
        <ele>91</ele>
        <time>2014-09-07T09:37:45.000Z</time>
      </trkpt>
      <trkpt lat="48.22016" lon="3.22483">
        <ele>91</ele>
        <time>2014-09-07T09:37:46.000Z</time>
      </trkpt>
      <trkpt lat="48.22016" lon="3.2249">
        <ele>91</ele>
        <time>2014-09-07T09:37:47.000Z</time>
      </trkpt>
      <trkpt lat="48.22016" lon="3.22498">
        <ele>91</ele>
        <time>2014-09-07T09:37:48.000Z</time>
      </trkpt>
      <trkpt lat="48.22016" lon="3.22507">
        <ele>91</ele>
        <time>2014-09-07T09:37:49.000Z</time>
      </trkpt>
      <trkpt lat="48.22016" lon="3.22513">
        <ele>91</ele>
        <time>2014-09-07T09:37:50.000Z</time>
      </trkpt>
      <trkpt lat="48.22015" lon="3.22522">
        <ele>91</ele>
        <time>2014-09-07T09:37:51.000Z</time>
      </trkpt>
      <trkpt lat="48.22015" lon="3.22528">
        <ele>91</ele>
        <time>2014-09-07T09:37:52.000Z</time>
      </trkpt>
      <trkpt lat="48.22014" lon="3.22537">
        <ele>91</ele>
        <time>2014-09-07T09:37:53.000Z</time>
      </trkpt>
      <trkpt lat="48.22014" lon="3.22543">
        <ele>91</ele>
        <time>2014-09-07T09:37:54.000Z</time>
      </trkpt>
      <trkpt lat="48.22014" lon="3.2255">
        <ele>91</ele>
        <time>2014-09-07T09:37:55.000Z</time>
      </trkpt>
      <trkpt lat="48.22013" lon="3.22556">
        <ele>91</ele>
        <time>2014-09-07T09:37:56.000Z</time>
      </trkpt>
      <trkpt lat="48.22013" lon="3.22562">
        <ele>91</ele>
        <time>2014-09-07T09:37:57.000Z</time>
      </trkpt>
      <trkpt lat="48.22013" lon="3.22569">
        <ele>91</ele>
        <time>2014-09-07T09:37:58.000Z</time>
      </trkpt>
      <trkpt lat="48.22012" lon="3.22575">
        <ele>91</ele>
        <time>2014-09-07T09:37:59.000Z</time>
      </trkpt>
      <trkpt lat="48.22012" lon="3.22582">
        <ele>91</ele>
        <time>2014-09-07T09:38:00.000Z</time>
      </trkpt>
      <trkpt lat="48.22012" lon="3.22586">
        <ele>92</ele>
        <time>2014-09-07T09:38:01.000Z</time>
      </trkpt>
      <trkpt lat="48.22011" lon="3.2259">
        <ele>92</ele>
        <time>2014-09-07T09:38:02.000Z</time>
      </trkpt>
      <trkpt lat="48.22011" lon="3.22595">
        <ele>92</ele>
        <time>2014-09-07T09:38:03.000Z</time>
      </trkpt>
      <trkpt lat="48.2201" lon="3.22601">
        <ele>92</ele>
        <time>2014-09-07T09:38:04.000Z</time>
      </trkpt>
      <trkpt lat="48.22009" lon="3.22605">
        <ele>92</ele>
        <time>2014-09-07T09:38:05.000Z</time>
      </trkpt>
      <trkpt lat="48.22007" lon="3.2261">
        <ele>92</ele>
        <time>2014-09-07T09:38:06.000Z</time>
      </trkpt>
      <trkpt lat="48.22006" lon="3.22614">
        <ele>92</ele>
        <time>2014-09-07T09:38:07.000Z</time>
      </trkpt>
      <trkpt lat="48.22005" lon="3.22618">
        <ele>92</ele>
        <time>2014-09-07T09:38:08.000Z</time>
      </trkpt>
      <trkpt lat="48.22005" lon="3.22625">
        <ele>92</ele>
        <time>2014-09-07T09:38:09.000Z</time>
      </trkpt>
      <trkpt lat="48.22006" lon="3.22631">
        <ele>92</ele>
        <time>2014-09-07T09:38:10.000Z</time>
      </trkpt>
      <trkpt lat="48.22008" lon="3.2264">
        <ele>92</ele>
        <time>2014-09-07T09:38:11.000Z</time>
      </trkpt>
      <trkpt lat="48.22011" lon="3.22646">
        <ele>92</ele>
        <time>2014-09-07T09:38:12.000Z</time>
      </trkpt>
      <trkpt lat="48.22016" lon="3.2265">
        <ele>92</ele>
        <time>2014-09-07T09:38:13.000Z</time>
      </trkpt>
      <trkpt lat="48.22021" lon="3.22655">
        <ele>92</ele>
        <time>2014-09-07T09:38:14.000Z</time>
      </trkpt>
      <trkpt lat="48.22026" lon="3.22657">
        <ele>92</ele>
        <time>2014-09-07T09:38:15.000Z</time>
      </trkpt>
      <trkpt lat="48.2203" lon="3.22659">
        <ele>92</ele>
        <time>2014-09-07T09:38:16.000Z</time>
      </trkpt>
      <trkpt lat="48.22035" lon="3.22661">
        <ele>91</ele>
        <time>2014-09-07T09:38:17.000Z</time>
      </trkpt>
      <trkpt lat="48.22039" lon="3.22665">
        <ele>91</ele>
        <time>2014-09-07T09:38:18.000Z</time>
      </trkpt>
      <trkpt lat="48.22043" lon="3.22668">
        <ele>91</ele>
        <time>2014-09-07T09:38:19.000Z</time>
      </trkpt>
      <trkpt lat="48.22046" lon="3.22672">
        <ele>91</ele>
        <time>2014-09-07T09:38:20.000Z</time>
      </trkpt>
      <trkpt lat="48.22051" lon="3.22674">
        <ele>91</ele>
        <time>2014-09-07T09:38:21.000Z</time>
      </trkpt>
      <trkpt lat="48.22056" lon="3.22676">
        <ele>91</ele>
        <time>2014-09-07T09:38:22.000Z</time>
      </trkpt>
      <trkpt lat="48.2206" lon="3.2268">
        <ele>91</ele>
        <time>2014-09-07T09:38:23.000Z</time>
      </trkpt>
      <trkpt lat="48.22064" lon="3.22685">
        <ele>91</ele>
        <time>2014-09-07T09:38:24.000Z</time>
      </trkpt>
      <trkpt lat="48.22067" lon="3.22691">
        <ele>91</ele>
        <time>2014-09-07T09:38:25.000Z</time>
      </trkpt>
      <trkpt lat="48.22069" lon="3.227">
        <ele>91</ele>
        <time>2014-09-07T09:38:26.000Z</time>
      </trkpt>
      <trkpt lat="48.22071" lon="3.22706">
        <ele>91</ele>
        <time>2014-09-07T09:38:27.000Z</time>
      </trkpt>
      <trkpt lat="48.22072" lon="3.22715">
        <ele>90</ele>
        <time>2014-09-07T09:38:28.000Z</time>
      </trkpt>
      <trkpt lat="48.22074" lon="3.22721">
        <ele>90</ele>
        <time>2014-09-07T09:38:29.000Z</time>
      </trkpt>
      <trkpt lat="48.22076" lon="3.2273">
        <ele>90</ele>
        <time>2014-09-07T09:38:30.000Z</time>
      </trkpt>
      <trkpt lat="48.22076" lon="3.22736">
        <ele>90</ele>
        <time>2014-09-07T09:38:31.000Z</time>
      </trkpt>
      <trkpt lat="48.22078" lon="3.22745">
        <ele>89</ele>
        <time>2014-09-07T09:38:32.000Z</time>
      </trkpt>
      <trkpt lat="48.22079" lon="3.22751">
        <ele>89</ele>
        <time>2014-09-07T09:38:33.000Z</time>
      </trkpt>
      <trkpt lat="48.2208" lon="3.2276">
        <ele>89</ele>
        <time>2014-09-07T09:38:34.000Z</time>
      </trkpt>
      <trkpt lat="48.22081" lon="3.22766">
        <ele>90</ele>
        <time>2014-09-07T09:38:35.000Z</time>
      </trkpt>
      <trkpt lat="48.22082" lon="3.22775">
        <ele>90</ele>
        <time>2014-09-07T09:38:36.000Z</time>
      </trkpt>
      <trkpt lat="48.22084" lon="3.22783">
        <ele>88</ele>
        <time>2014-09-07T09:38:37.000Z</time>
      </trkpt>
      <trkpt lat="48.22082" lon="3.2279">
        <ele>90</ele>
        <time>2014-09-07T09:38:38.000Z</time>
      </trkpt>
      <trkpt lat="48.22081" lon="3.22798">
        <ele>90</ele>
        <time>2014-09-07T09:38:39.000Z</time>
      </trkpt>
      <trkpt lat="48.22079" lon="3.22805">
        <ele>90</ele>
        <time>2014-09-07T09:38:40.000Z</time>
      </trkpt>
      <trkpt lat="48.22076" lon="3.22814">
        <ele>90</ele>
        <time>2014-09-07T09:38:41.000Z</time>
      </trkpt>
      <trkpt lat="48.22075" lon="3.2282">
        <ele>89</ele>
        <time>2014-09-07T09:38:42.000Z</time>
      </trkpt>
      <trkpt lat="48.22073" lon="3.22829">
        <ele>89</ele>
        <time>2014-09-07T09:38:43.000Z</time>
      </trkpt>
      <trkpt lat="48.22072" lon="3.22835">
        <ele>89</ele>
        <time>2014-09-07T09:38:44.000Z</time>
      </trkpt>
      <trkpt lat="48.2207" lon="3.22844">
        <ele>89</ele>
        <time>2014-09-07T09:38:45.000Z</time>
      </trkpt>
      <trkpt lat="48.22069" lon="3.2285">
        <ele>90</ele>
        <time>2014-09-07T09:38:46.000Z</time>
      </trkpt>
      <trkpt lat="48.22067" lon="3.22856">
        <ele>90</ele>
        <time>2014-09-07T09:38:47.000Z</time>
      </trkpt>
      <trkpt lat="48.22065" lon="3.22863">
        <ele>90</ele>
        <time>2014-09-07T09:38:48.000Z</time>
      </trkpt>
      <trkpt lat="48.22062" lon="3.22869">
        <ele>90</ele>
        <time>2014-09-07T09:38:49.000Z</time>
      </trkpt>
      <trkpt lat="48.22061" lon="3.22878">
        <ele>90</ele>
        <time>2014-09-07T09:38:50.000Z</time>
      </trkpt>
      <trkpt lat="48.22059" lon="3.22884">
        <ele>90</ele>
        <time>2014-09-07T09:38:51.000Z</time>
      </trkpt>
      <trkpt lat="48.22058" lon="3.22891">
        <ele>90</ele>
        <time>2014-09-07T09:38:52.000Z</time>
      </trkpt>
      <trkpt lat="48.22057" lon="3.22895">
        <ele>90</ele>
        <time>2014-09-07T09:38:53.000Z</time>
      </trkpt>
      <trkpt lat="48.22056" lon="3.22901">
        <ele>90</ele>
        <time>2014-09-07T09:38:54.000Z</time>
      </trkpt>
      <trkpt lat="48.22055" lon="3.22908">
        <ele>90</ele>
        <time>2014-09-07T09:38:55.000Z</time>
      </trkpt>
      <trkpt lat="48.22054" lon="3.22914">
        <ele>90</ele>
        <time>2014-09-07T09:38:56.000Z</time>
      </trkpt>
      <trkpt lat="48.22053" lon="3.22921">
        <ele>89</ele>
        <time>2014-09-07T09:38:57.000Z</time>
      </trkpt>
      <trkpt lat="48.22053" lon="3.22927">
        <ele>89</ele>
        <time>2014-09-07T09:38:58.000Z</time>
      </trkpt>
      <trkpt lat="48.22052" lon="3.22932">
        <ele>89</ele>
        <time>2014-09-07T09:38:59.000Z</time>
      </trkpt>
      <trkpt lat="48.22051" lon="3.22938">
        <ele>89</ele>
        <time>2014-09-07T09:39:00.000Z</time>
      </trkpt>
      <trkpt lat="48.2205" lon="3.22947">
        <ele>89</ele>
        <time>2014-09-07T09:39:01.000Z</time>
      </trkpt>
      <trkpt lat="48.2205" lon="3.22953">
        <ele>89</ele>
        <time>2014-09-07T09:39:02.000Z</time>
      </trkpt>
      <trkpt lat="48.22049" lon="3.22962">
        <ele>89</ele>
        <time>2014-09-07T09:39:03.000Z</time>
      </trkpt>
      <trkpt lat="48.22049" lon="3.22968">
        <ele>89</ele>
        <time>2014-09-07T09:39:04.000Z</time>
      </trkpt>
      <trkpt lat="48.22047" lon="3.22977">
        <ele>89</ele>
        <time>2014-09-07T09:39:05.000Z</time>
      </trkpt>
      <trkpt lat="48.22047" lon="3.22985">
        <ele>89</ele>
        <time>2014-09-07T09:39:06.000Z</time>
      </trkpt>
      <trkpt lat="48.22047" lon="3.22992">
        <ele>89</ele>
        <time>2014-09-07T09:39:07.000Z</time>
      </trkpt>
      <trkpt lat="48.22046" lon="3.23">
        <ele>89</ele>
        <time>2014-09-07T09:39:08.000Z</time>
      </trkpt>
      <trkpt lat="48.22046" lon="3.23009">
        <ele>89</ele>
        <time>2014-09-07T09:39:09.000Z</time>
      </trkpt>
      <trkpt lat="48.22045" lon="3.23017">
        <ele>89</ele>
        <time>2014-09-07T09:39:10.000Z</time>
      </trkpt>
      <trkpt lat="48.22045" lon="3.23024">
        <ele>89</ele>
        <time>2014-09-07T09:39:11.000Z</time>
      </trkpt>
      <trkpt lat="48.22045" lon="3.23032">
        <ele>89</ele>
        <time>2014-09-07T09:39:12.000Z</time>
      </trkpt>
      <trkpt lat="48.22045" lon="3.23041">
        <ele>89</ele>
        <time>2014-09-07T09:39:13.000Z</time>
      </trkpt>
      <trkpt lat="48.22045" lon="3.2305">
        <ele>89</ele>
        <time>2014-09-07T09:39:14.000Z</time>
      </trkpt>
      <trkpt lat="48.22044" lon="3.23058">
        <ele>89</ele>
        <time>2014-09-07T09:39:15.000Z</time>
      </trkpt>
      <trkpt lat="48.22044" lon="3.23065">
        <ele>89</ele>
        <time>2014-09-07T09:39:16.000Z</time>
      </trkpt>
      <trkpt lat="48.22044" lon="3.23073">
        <ele>89</ele>
        <time>2014-09-07T09:39:17.000Z</time>
      </trkpt>
      <trkpt lat="48.22044" lon="3.2308">
        <ele>89</ele>
        <time>2014-09-07T09:39:18.000Z</time>
      </trkpt>
      <trkpt lat="48.22043" lon="3.23088">
        <ele>89</ele>
        <time>2014-09-07T09:39:19.000Z</time>
      </trkpt>
      <trkpt lat="48.22043" lon="3.23097">
        <ele>89</ele>
        <time>2014-09-07T09:39:20.000Z</time>
      </trkpt>
      <trkpt lat="48.22043" lon="3.23103">
        <ele>89</ele>
        <time>2014-09-07T09:39:21.000Z</time>
      </trkpt>
      <trkpt lat="48.22042" lon="3.23112">
        <ele>89</ele>
        <time>2014-09-07T09:39:22.000Z</time>
      </trkpt>
      <trkpt lat="48.22042" lon="3.2312">
        <ele>89</ele>
        <time>2014-09-07T09:39:23.000Z</time>
      </trkpt>
      <trkpt lat="48.22042" lon="3.23127">
        <ele>89</ele>
        <time>2014-09-07T09:39:24.000Z</time>
      </trkpt>
      <trkpt lat="48.22042" lon="3.23135">
        <ele>89</ele>
        <time>2014-09-07T09:39:25.000Z</time>
      </trkpt>
      <trkpt lat="48.22041" lon="3.23142">
        <ele>89</ele>
        <time>2014-09-07T09:39:26.000Z</time>
      </trkpt>
      <trkpt lat="48.22041" lon="3.2315">
        <ele>89</ele>
        <time>2014-09-07T09:39:27.000Z</time>
      </trkpt>
      <trkpt lat="48.2204" lon="3.23157">
        <ele>89</ele>
        <time>2014-09-07T09:39:28.000Z</time>
      </trkpt>
      <trkpt lat="48.2204" lon="3.23165">
        <ele>89</ele>
        <time>2014-09-07T09:39:29.000Z</time>
      </trkpt>
      <trkpt lat="48.22039" lon="3.23172">
        <ele>90</ele>
        <time>2014-09-07T09:39:30.000Z</time>
      </trkpt>
      <trkpt lat="48.22038" lon="3.23178">
        <ele>90</ele>
        <time>2014-09-07T09:39:31.000Z</time>
      </trkpt>
      <trkpt lat="48.22037" lon="3.23187">
        <ele>90</ele>
        <time>2014-09-07T09:39:32.000Z</time>
      </trkpt>
      <trkpt lat="48.22038" lon="3.23195">
        <ele>90</ele>
        <time>2014-09-07T09:39:33.000Z</time>
      </trkpt>
      <trkpt lat="48.2204" lon="3.23202">
        <ele>90</ele>
        <time>2014-09-07T09:39:34.000Z</time>
      </trkpt>
      <trkpt lat="48.22044" lon="3.2321">
        <ele>90</ele>
        <time>2014-09-07T09:39:35.000Z</time>
      </trkpt>
      <trkpt lat="48.2205" lon="3.23217">
        <ele>90</ele>
        <time>2014-09-07T09:39:36.000Z</time>
      </trkpt>
      <trkpt lat="48.22055" lon="3.23223">
        <ele>89</ele>
        <time>2014-09-07T09:39:37.000Z</time>
      </trkpt>
      <trkpt lat="48.22059" lon="3.23228">
        <ele>89</ele>
        <time>2014-09-07T09:39:38.000Z</time>
      </trkpt>
      <trkpt lat="48.22066" lon="3.2323">
        <ele>89</ele>
        <time>2014-09-07T09:39:39.000Z</time>
      </trkpt>
      <trkpt lat="48.22071" lon="3.23232">
        <ele>89</ele>
        <time>2014-09-07T09:39:40.000Z</time>
      </trkpt>
      <trkpt lat="48.22078" lon="3.23232">
        <ele>89</ele>
        <time>2014-09-07T09:39:41.000Z</time>
      </trkpt>
      <trkpt lat="48.22083" lon="3.23234">
        <ele>89</ele>
        <time>2014-09-07T09:39:42.000Z</time>
      </trkpt>
      <trkpt lat="48.22089" lon="3.23234">
        <ele>88</ele>
        <time>2014-09-07T09:39:43.000Z</time>
      </trkpt>
      <trkpt lat="48.22095" lon="3.23236">
        <ele>88</ele>
        <time>2014-09-07T09:39:44.000Z</time>
      </trkpt>
      <trkpt lat="48.22101" lon="3.23236">
        <ele>88</ele>
        <time>2014-09-07T09:39:45.000Z</time>
      </trkpt>
      <trkpt lat="48.22106" lon="3.23236">
        <ele>88</ele>
        <time>2014-09-07T09:39:46.000Z</time>
      </trkpt>
      <trkpt lat="48.22113" lon="3.23238">
        <ele>88</ele>
        <time>2014-09-07T09:39:47.000Z</time>
      </trkpt>
      <trkpt lat="48.22119" lon="3.23241">
        <ele>87</ele>
        <time>2014-09-07T09:39:48.000Z</time>
      </trkpt>
      <trkpt lat="48.22126" lon="3.23241">
        <ele>87</ele>
        <time>2014-09-07T09:39:49.000Z</time>
      </trkpt>
      <trkpt lat="48.22131" lon="3.23243">
        <ele>87</ele>
        <time>2014-09-07T09:39:50.000Z</time>
      </trkpt>
      <trkpt lat="48.22138" lon="3.23243">
        <ele>87</ele>
        <time>2014-09-07T09:39:51.000Z</time>
      </trkpt>
      <trkpt lat="48.22143" lon="3.23245">
        <ele>87</ele>
        <time>2014-09-07T09:39:52.000Z</time>
      </trkpt>
      <trkpt lat="48.22149" lon="3.23245">
        <ele>87</ele>
        <time>2014-09-07T09:39:53.000Z</time>
      </trkpt>
      <trkpt lat="48.22155" lon="3.23247">
        <ele>87</ele>
        <time>2014-09-07T09:39:54.000Z</time>
      </trkpt>
      <trkpt lat="48.2216" lon="3.23249">
        <ele>86</ele>
        <time>2014-09-07T09:39:55.000Z</time>
      </trkpt>
      <trkpt lat="48.22165" lon="3.23249">
        <ele>86</ele>
        <time>2014-09-07T09:39:56.000Z</time>
      </trkpt>
      <trkpt lat="48.22171" lon="3.23251">
        <ele>86</ele>
        <time>2014-09-07T09:39:57.000Z</time>
      </trkpt>
      <trkpt lat="48.22176" lon="3.23251">
        <ele>86</ele>
        <time>2014-09-07T09:39:58.000Z</time>
      </trkpt>
      <trkpt lat="48.22182" lon="3.23251">
        <ele>86</ele>
        <time>2014-09-07T09:39:59.000Z</time>
      </trkpt>
      <trkpt lat="48.22187" lon="3.23253">
        <ele>87</ele>
        <time>2014-09-07T09:40:00.000Z</time>
      </trkpt>
      <trkpt lat="48.22191" lon="3.23253">
        <ele>87</ele>
        <time>2014-09-07T09:40:01.000Z</time>
      </trkpt>
      <trkpt lat="48.22197" lon="3.23256">
        <ele>87</ele>
        <time>2014-09-07T09:40:02.000Z</time>
      </trkpt>
      <trkpt lat="48.22202" lon="3.23258">
        <ele>87</ele>
        <time>2014-09-07T09:40:03.000Z</time>
      </trkpt>
      <trkpt lat="48.22206" lon="3.2326">
        <ele>87</ele>
        <time>2014-09-07T09:40:04.000Z</time>
      </trkpt>
      <trkpt lat="48.22211" lon="3.23264">
        <ele>87</ele>
        <time>2014-09-07T09:40:05.000Z</time>
      </trkpt>
      <trkpt lat="48.22213" lon="3.23271">
        <ele>87</ele>
        <time>2014-09-07T09:40:06.000Z</time>
      </trkpt>
      <trkpt lat="48.22214" lon="3.23277">
        <ele>87</ele>
        <time>2014-09-07T09:40:07.000Z</time>
      </trkpt>
      <trkpt lat="48.22214" lon="3.23286">
        <ele>87</ele>
        <time>2014-09-07T09:40:08.000Z</time>
      </trkpt>
      <trkpt lat="48.22212" lon="3.23292">
        <ele>87</ele>
        <time>2014-09-07T09:40:09.000Z</time>
      </trkpt>
      <trkpt lat="48.22209" lon="3.23301">
        <ele>86</ele>
        <time>2014-09-07T09:40:10.000Z</time>
      </trkpt>
      <trkpt lat="48.22207" lon="3.23307">
        <ele>86</ele>
        <time>2014-09-07T09:40:11.000Z</time>
      </trkpt>
      <trkpt lat="48.22204" lon="3.23316">
        <ele>86</ele>
        <time>2014-09-07T09:40:12.000Z</time>
      </trkpt>
      <trkpt lat="48.22203" lon="3.23324">
        <ele>86</ele>
        <time>2014-09-07T09:40:13.000Z</time>
      </trkpt>
      <trkpt lat="48.22202" lon="3.23333">
        <ele>86</ele>
        <time>2014-09-07T09:40:14.000Z</time>
      </trkpt>
      <trkpt lat="48.22202" lon="3.23341">
        <ele>84</ele>
        <time>2014-09-07T09:40:15.000Z</time>
      </trkpt>
      <trkpt lat="48.22202" lon="3.23352">
        <ele>84</ele>
        <time>2014-09-07T09:40:16.000Z</time>
      </trkpt>
      <trkpt lat="48.22202" lon="3.23361">
        <ele>84</ele>
        <time>2014-09-07T09:40:17.000Z</time>
      </trkpt>
      <trkpt lat="48.22202" lon="3.23369">
        <ele>84</ele>
        <time>2014-09-07T09:40:18.000Z</time>
      </trkpt>
      <trkpt lat="48.22203" lon="3.2338">
        <ele>84</ele>
        <time>2014-09-07T09:40:19.000Z</time>
      </trkpt>
      <trkpt lat="48.22204" lon="3.23389">
        <ele>84</ele>
        <time>2014-09-07T09:40:20.000Z</time>
      </trkpt>
      <trkpt lat="48.22205" lon="3.23399">
        <ele>83</ele>
        <time>2014-09-07T09:40:21.000Z</time>
      </trkpt>
      <trkpt lat="48.22207" lon="3.2341">
        <ele>83</ele>
        <time>2014-09-07T09:40:22.000Z</time>
      </trkpt>
      <trkpt lat="48.22208" lon="3.23421">
        <ele>83</ele>
        <time>2014-09-07T09:40:23.000Z</time>
      </trkpt>
      <trkpt lat="48.22209" lon="3.23431">
        <ele>83</ele>
        <time>2014-09-07T09:40:24.000Z</time>
      </trkpt>
      <trkpt lat="48.22212" lon="3.23442">
        <ele>83</ele>
        <time>2014-09-07T09:40:25.000Z</time>
      </trkpt>
      <trkpt lat="48.22213" lon="3.23455">
        <ele>83</ele>
        <time>2014-09-07T09:40:26.000Z</time>
      </trkpt>
      <trkpt lat="48.22215" lon="3.23468">
        <ele>83</ele>
        <time>2014-09-07T09:40:27.000Z</time>
      </trkpt>
      <trkpt lat="48.22216" lon="3.23481">
        <ele>83</ele>
        <time>2014-09-07T09:40:28.000Z</time>
      </trkpt>
      <trkpt lat="48.22217" lon="3.23494">
        <ele>83</ele>
        <time>2014-09-07T09:40:29.000Z</time>
      </trkpt>
      <trkpt lat="48.22219" lon="3.23507">
        <ele>84</ele>
        <time>2014-09-07T09:40:30.000Z</time>
      </trkpt>
      <trkpt lat="48.22221" lon="3.23522">
        <ele>84</ele>
        <time>2014-09-07T09:40:31.000Z</time>
      </trkpt>
      <trkpt lat="48.22223" lon="3.23532">
        <ele>84</ele>
        <time>2014-09-07T09:40:32.000Z</time>
      </trkpt>
      <trkpt lat="48.22227" lon="3.23545">
        <ele>84</ele>
        <time>2014-09-07T09:40:33.000Z</time>
      </trkpt>
      <trkpt lat="48.2223" lon="3.23558">
        <ele>84</ele>
        <time>2014-09-07T09:40:34.000Z</time>
      </trkpt>
      <trkpt lat="48.22233" lon="3.23571">
        <ele>83</ele>
        <time>2014-09-07T09:40:35.000Z</time>
      </trkpt>
      <trkpt lat="48.22235" lon="3.23582">
        <ele>83</ele>
        <time>2014-09-07T09:40:36.000Z</time>
      </trkpt>
      <trkpt lat="48.22238" lon="3.23592">
        <ele>84</ele>
        <time>2014-09-07T09:40:37.000Z</time>
      </trkpt>
      <trkpt lat="48.22242" lon="3.23603">
        <ele>84</ele>
        <time>2014-09-07T09:40:38.000Z</time>
      </trkpt>
      <trkpt lat="48.22244" lon="3.23614">
        <ele>84</ele>
        <time>2014-09-07T09:40:39.000Z</time>
      </trkpt>
      <trkpt lat="48.22246" lon="3.23625">
        <ele>84</ele>
        <time>2014-09-07T09:40:40.000Z</time>
      </trkpt>
      <trkpt lat="48.22247" lon="3.23633">
        <ele>84</ele>
        <time>2014-09-07T09:40:41.000Z</time>
      </trkpt>
      <trkpt lat="48.22249" lon="3.23642">
        <ele>84</ele>
        <time>2014-09-07T09:40:42.000Z</time>
      </trkpt>
      <trkpt lat="48.2225" lon="3.23648">
        <ele>82</ele>
        <time>2014-09-07T09:40:43.000Z</time>
      </trkpt>
      <trkpt lat="48.22251" lon="3.23657">
        <ele>83</ele>
        <time>2014-09-07T09:40:44.000Z</time>
      </trkpt>
      <trkpt lat="48.22251" lon="3.23665">
        <ele>83</ele>
        <time>2014-09-07T09:40:45.000Z</time>
      </trkpt>
      <trkpt lat="48.22252" lon="3.23672">
        <ele>83</ele>
        <time>2014-09-07T09:40:46.000Z</time>
      </trkpt>
      <trkpt lat="48.22253" lon="3.23678">
        <ele>82</ele>
        <time>2014-09-07T09:40:47.000Z</time>
      </trkpt>
      <trkpt lat="48.22253" lon="3.23685">
        <ele>82</ele>
        <time>2014-09-07T09:40:48.000Z</time>
      </trkpt>
      <trkpt lat="48.22253" lon="3.23693">
        <ele>82</ele>
        <time>2014-09-07T09:40:49.000Z</time>
      </trkpt>
      <trkpt lat="48.22253" lon="3.237">
        <ele>82</ele>
        <time>2014-09-07T09:40:50.000Z</time>
      </trkpt>
      <trkpt lat="48.22253" lon="3.23706">
        <ele>82</ele>
        <time>2014-09-07T09:40:51.000Z</time>
      </trkpt>
      <trkpt lat="48.22253" lon="3.23715">
        <ele>82</ele>
        <time>2014-09-07T09:40:52.000Z</time>
      </trkpt>
      <trkpt lat="48.22253" lon="3.23721">
        <ele>82</ele>
        <time>2014-09-07T09:40:53.000Z</time>
      </trkpt>
      <trkpt lat="48.22253" lon="3.23728">
        <ele>82</ele>
        <time>2014-09-07T09:40:54.000Z</time>
      </trkpt>
      <trkpt lat="48.22252" lon="3.23736">
        <ele>82</ele>
        <time>2014-09-07T09:40:55.000Z</time>
      </trkpt>
      <trkpt lat="48.22252" lon="3.23743">
        <ele>82</ele>
        <time>2014-09-07T09:40:56.000Z</time>
      </trkpt>
      <trkpt lat="48.22251" lon="3.23749">
        <ele>82</ele>
        <time>2014-09-07T09:40:57.000Z</time>
      </trkpt>
      <trkpt lat="48.22251" lon="3.23756">
        <ele>82</ele>
        <time>2014-09-07T09:40:58.000Z</time>
      </trkpt>
      <trkpt lat="48.2225" lon="3.23762">
        <ele>82</ele>
        <time>2014-09-07T09:40:59.000Z</time>
      </trkpt>
      <trkpt lat="48.22249" lon="3.23771">
        <ele>85</ele>
        <time>2014-09-07T09:41:00.000Z</time>
      </trkpt>
      <trkpt lat="48.22249" lon="3.23777">
        <ele>85</ele>
        <time>2014-09-07T09:41:01.000Z</time>
      </trkpt>
      <trkpt lat="48.22248" lon="3.23783">
        <ele>85</ele>
        <time>2014-09-07T09:41:02.000Z</time>
      </trkpt>
      <trkpt lat="48.22247" lon="3.2379">
        <ele>86</ele>
        <time>2014-09-07T09:41:03.000Z</time>
      </trkpt>
      <trkpt lat="48.22246" lon="3.23796">
        <ele>86</ele>
        <time>2014-09-07T09:41:04.000Z</time>
      </trkpt>
      <trkpt lat="48.22244" lon="3.23803">
        <ele>86</ele>
        <time>2014-09-07T09:41:05.000Z</time>
      </trkpt>
      <trkpt lat="48.22243" lon="3.23809">
        <ele>86</ele>
        <time>2014-09-07T09:41:06.000Z</time>
      </trkpt>
      <trkpt lat="48.22242" lon="3.23818">
        <ele>86</ele>
        <time>2014-09-07T09:41:07.000Z</time>
      </trkpt>
      <trkpt lat="48.2224" lon="3.23824">
        <ele>86</ele>
        <time>2014-09-07T09:41:08.000Z</time>
      </trkpt>
      <trkpt lat="48.22238" lon="3.23831">
        <ele>86</ele>
        <time>2014-09-07T09:41:09.000Z</time>
      </trkpt>
      <trkpt lat="48.22237" lon="3.23837">
        <ele>86</ele>
        <time>2014-09-07T09:41:10.000Z</time>
      </trkpt>
      <trkpt lat="48.22236" lon="3.23843">
        <ele>87</ele>
        <time>2014-09-07T09:41:11.000Z</time>
      </trkpt>
      <trkpt lat="48.22235" lon="3.23852">
        <ele>87</ele>
        <time>2014-09-07T09:41:12.000Z</time>
      </trkpt>
      <trkpt lat="48.22233" lon="3.23858">
        <ele>87</ele>
        <time>2014-09-07T09:41:13.000Z</time>
      </trkpt>
      <trkpt lat="48.22232" lon="3.23865">
        <ele>87</ele>
        <time>2014-09-07T09:41:14.000Z</time>
      </trkpt>
      <trkpt lat="48.22231" lon="3.23874">
        <ele>87</ele>
        <time>2014-09-07T09:41:15.000Z</time>
      </trkpt>
      <trkpt lat="48.2223" lon="3.2388">
        <ele>88</ele>
        <time>2014-09-07T09:41:16.000Z</time>
      </trkpt>
      <trkpt lat="48.22229" lon="3.23889">
        <ele>88</ele>
        <time>2014-09-07T09:41:17.000Z</time>
      </trkpt>
      <trkpt lat="48.22228" lon="3.23895">
        <ele>88</ele>
        <time>2014-09-07T09:41:18.000Z</time>
      </trkpt>
      <trkpt lat="48.22227" lon="3.23904">
        <ele>88</ele>
        <time>2014-09-07T09:41:19.000Z</time>
      </trkpt>
      <trkpt lat="48.22224" lon="3.2391">
        <ele>88</ele>
        <time>2014-09-07T09:41:20.000Z</time>
      </trkpt>
      <trkpt lat="48.22223" lon="3.23919">
        <ele>88</ele>
        <time>2014-09-07T09:41:21.000Z</time>
      </trkpt>
      <trkpt lat="48.22221" lon="3.23925">
        <ele>88</ele>
        <time>2014-09-07T09:41:22.000Z</time>
      </trkpt>
      <trkpt lat="48.22219" lon="3.23934">
        <ele>88</ele>
        <time>2014-09-07T09:41:23.000Z</time>
      </trkpt>
      <trkpt lat="48.22218" lon="3.2394">
        <ele>88</ele>
        <time>2014-09-07T09:41:24.000Z</time>
      </trkpt>
      <trkpt lat="48.22216" lon="3.23946">
        <ele>88</ele>
        <time>2014-09-07T09:41:25.000Z</time>
      </trkpt>
      <trkpt lat="48.22214" lon="3.23953">
        <ele>88</ele>
        <time>2014-09-07T09:41:26.000Z</time>
      </trkpt>
      <trkpt lat="48.22212" lon="3.23961">
        <ele>88</ele>
        <time>2014-09-07T09:41:27.000Z</time>
      </trkpt>
      <trkpt lat="48.22209" lon="3.23968">
        <ele>88</ele>
        <time>2014-09-07T09:41:28.000Z</time>
      </trkpt>
      <trkpt lat="48.22207" lon="3.23974">
        <ele>89</ele>
        <time>2014-09-07T09:41:29.000Z</time>
      </trkpt>
      <trkpt lat="48.22205" lon="3.23981">
        <ele>89</ele>
        <time>2014-09-07T09:41:30.000Z</time>
      </trkpt>
      <trkpt lat="48.22204" lon="3.23987">
        <ele>89</ele>
        <time>2014-09-07T09:41:31.000Z</time>
      </trkpt>
      <trkpt lat="48.22202" lon="3.23994">
        <ele>89</ele>
        <time>2014-09-07T09:41:32.000Z</time>
      </trkpt>
      <trkpt lat="48.222" lon="3.24">
        <ele>88</ele>
        <time>2014-09-07T09:41:33.000Z</time>
      </trkpt>
      <trkpt lat="48.22199" lon="3.24004">
        <ele>88</ele>
        <time>2014-09-07T09:41:34.000Z</time>
      </trkpt>
      <trkpt lat="48.22197" lon="3.24011">
        <ele>88</ele>
        <time>2014-09-07T09:41:35.000Z</time>
      </trkpt>
      <trkpt lat="48.22196" lon="3.24015">
        <ele>88</ele>
        <time>2014-09-07T09:41:36.000Z</time>
      </trkpt>
      <trkpt lat="48.22194" lon="3.24019">
        <ele>88</ele>
        <time>2014-09-07T09:41:37.000Z</time>
      </trkpt>
      <trkpt lat="48.22194" lon="3.24024">
        <ele>88</ele>
        <time>2014-09-07T09:41:38.000Z</time>
      </trkpt>
      <trkpt lat="48.22196" lon="3.24028">
        <ele>88</ele>
        <time>2014-09-07T09:41:39.000Z</time>
      </trkpt>
      <trkpt lat="48.22197" lon="3.24032">
        <ele>88</ele>
        <time>2014-09-07T09:41:40.000Z</time>
      </trkpt>
      <trkpt lat="48.22197" lon="3.24037">
        <ele>88</ele>
        <time>2014-09-07T09:41:41.000Z</time>
      </trkpt>
      <trkpt lat="48.22197" lon="3.24037">
        <ele>88</ele>
        <time>2014-09-07T09:41:44.000Z</time>
      </trkpt>
      <trkpt lat="48.22199" lon="3.24043">
        <ele>88</ele>
        <time>2014-09-07T09:41:45.000Z</time>
      </trkpt>
      <trkpt lat="48.22199" lon="3.24043">
        <ele>88</ele>
        <time>2014-09-07T09:42:16.000Z</time>
      </trkpt>
      <trkpt lat="48.22193" lon="3.24047">
        <ele>88</ele>
        <time>2014-09-07T09:42:17.000Z</time>
      </trkpt>
      <trkpt lat="48.22193" lon="3.24047">
        <ele>88</ele>
        <time>2014-09-07T09:42:19.000Z</time>
      </trkpt>
      <trkpt lat="48.22187" lon="3.24049">
        <ele>88</ele>
        <time>2014-09-07T09:42:20.000Z</time>
      </trkpt>
      <trkpt lat="48.22184" lon="3.24049">
        <ele>89</ele>
        <time>2014-09-07T09:42:22.000Z</time>
      </trkpt>
      <trkpt lat="48.22179" lon="3.24052">
        <ele>89</ele>
        <time>2014-09-07T09:42:23.000Z</time>
      </trkpt>
      <trkpt lat="48.22177" lon="3.24056">
        <ele>89</ele>
        <time>2014-09-07T09:42:24.000Z</time>
      </trkpt>
      <trkpt lat="48.22176" lon="3.2406">
        <ele>89</ele>
        <time>2014-09-07T09:42:25.000Z</time>
      </trkpt>
      <trkpt lat="48.22174" lon="3.24064">
        <ele>89</ele>
        <time>2014-09-07T09:42:26.000Z</time>
      </trkpt>
      <trkpt lat="48.22172" lon="3.24069">
        <ele>89</ele>
        <time>2014-09-07T09:42:27.000Z</time>
      </trkpt>
      <trkpt lat="48.22171" lon="3.24073">
        <ele>89</ele>
        <time>2014-09-07T09:42:28.000Z</time>
      </trkpt>
      <trkpt lat="48.22169" lon="3.24077">
        <ele>90</ele>
        <time>2014-09-07T09:42:29.000Z</time>
      </trkpt>
      <trkpt lat="48.22168" lon="3.24082">
        <ele>90</ele>
        <time>2014-09-07T09:42:30.000Z</time>
      </trkpt>
      <trkpt lat="48.22165" lon="3.24086">
        <ele>90</ele>
        <time>2014-09-07T09:42:31.000Z</time>
      </trkpt>
      <trkpt lat="48.22164" lon="3.2409">
        <ele>91</ele>
        <time>2014-09-07T09:42:32.000Z</time>
      </trkpt>
      <trkpt lat="48.22163" lon="3.24097">
        <ele>91</ele>
        <time>2014-09-07T09:42:33.000Z</time>
      </trkpt>
      <trkpt lat="48.22162" lon="3.24101">
        <ele>91</ele>
        <time>2014-09-07T09:42:34.000Z</time>
      </trkpt>
      <trkpt lat="48.22161" lon="3.24107">
        <ele>92</ele>
        <time>2014-09-07T09:42:35.000Z</time>
      </trkpt>
      <trkpt lat="48.2216" lon="3.24112">
        <ele>92</ele>
        <time>2014-09-07T09:42:36.000Z</time>
      </trkpt>
      <trkpt lat="48.2216" lon="3.24116">
        <ele>92</ele>
        <time>2014-09-07T09:42:37.000Z</time>
      </trkpt>
      <trkpt lat="48.22159" lon="3.2412">
        <ele>92</ele>
        <time>2014-09-07T09:42:38.000Z</time>
      </trkpt>
      <trkpt lat="48.22158" lon="3.24127">
        <ele>92</ele>
        <time>2014-09-07T09:42:39.000Z</time>
      </trkpt>
      <trkpt lat="48.22157" lon="3.24131">
        <ele>92</ele>
        <time>2014-09-07T09:42:40.000Z</time>
      </trkpt>
      <trkpt lat="48.22157" lon="3.24135">
        <ele>92</ele>
        <time>2014-09-07T09:42:41.000Z</time>
      </trkpt>
      <trkpt lat="48.22156" lon="3.2414">
        <ele>92</ele>
        <time>2014-09-07T09:42:42.000Z</time>
      </trkpt>
      <trkpt lat="48.22155" lon="3.24146">
        <ele>91</ele>
        <time>2014-09-07T09:42:43.000Z</time>
      </trkpt>
      <trkpt lat="48.22154" lon="3.2415">
        <ele>91</ele>
        <time>2014-09-07T09:42:44.000Z</time>
      </trkpt>
      <trkpt lat="48.22153" lon="3.24155">
        <ele>91</ele>
        <time>2014-09-07T09:42:45.000Z</time>
      </trkpt>
      <trkpt lat="48.22153" lon="3.24161">
        <ele>91</ele>
        <time>2014-09-07T09:42:46.000Z</time>
      </trkpt>
      <trkpt lat="48.22152" lon="3.24165">
        <ele>91</ele>
        <time>2014-09-07T09:42:47.000Z</time>
      </trkpt>
      <trkpt lat="48.2215" lon="3.24172">
        <ele>91</ele>
        <time>2014-09-07T09:42:48.000Z</time>
      </trkpt>
      <trkpt lat="48.22149" lon="3.24178">
        <ele>91</ele>
        <time>2014-09-07T09:42:49.000Z</time>
      </trkpt>
      <trkpt lat="48.22149" lon="3.24183">
        <ele>91</ele>
        <time>2014-09-07T09:42:50.000Z</time>
      </trkpt>
      <trkpt lat="48.22148" lon="3.24189">
        <ele>92</ele>
        <time>2014-09-07T09:42:51.000Z</time>
      </trkpt>
      <trkpt lat="48.22148" lon="3.24195">
        <ele>92</ele>
        <time>2014-09-07T09:42:52.000Z</time>
      </trkpt>
      <trkpt lat="48.22147" lon="3.24202">
        <ele>92</ele>
        <time>2014-09-07T09:42:53.000Z</time>
      </trkpt>
      <trkpt lat="48.22147" lon="3.24208">
        <ele>92</ele>
        <time>2014-09-07T09:42:54.000Z</time>
      </trkpt>
      <trkpt lat="48.22147" lon="3.24217">
        <ele>92</ele>
        <time>2014-09-07T09:42:55.000Z</time>
      </trkpt>
      <trkpt lat="48.22147" lon="3.24223">
        <ele>92</ele>
        <time>2014-09-07T09:42:56.000Z</time>
      </trkpt>
      <trkpt lat="48.22146" lon="3.2423">
        <ele>92</ele>
        <time>2014-09-07T09:42:57.000Z</time>
      </trkpt>
      <trkpt lat="48.22146" lon="3.24236">
        <ele>92</ele>
        <time>2014-09-07T09:42:58.000Z</time>
      </trkpt>
      <trkpt lat="48.22146" lon="3.24245">
        <ele>92</ele>
        <time>2014-09-07T09:42:59.000Z</time>
      </trkpt>
      <trkpt lat="48.22146" lon="3.24251">
        <ele>92</ele>
        <time>2014-09-07T09:43:00.000Z</time>
      </trkpt>
      <trkpt lat="48.22147" lon="3.24258">
        <ele>92</ele>
        <time>2014-09-07T09:43:01.000Z</time>
      </trkpt>
      <trkpt lat="48.22147" lon="3.24266">
        <ele>93</ele>
        <time>2014-09-07T09:43:02.000Z</time>
      </trkpt>
      <trkpt lat="48.22147" lon="3.24273">
        <ele>93</ele>
        <time>2014-09-07T09:43:03.000Z</time>
      </trkpt>
      <trkpt lat="48.22148" lon="3.24281">
        <ele>93</ele>
        <time>2014-09-07T09:43:04.000Z</time>
      </trkpt>
      <trkpt lat="48.22149" lon="3.24288">
        <ele>93</ele>
        <time>2014-09-07T09:43:05.000Z</time>
      </trkpt>
      <trkpt lat="48.22149" lon="3.24296">
        <ele>93</ele>
        <time>2014-09-07T09:43:06.000Z</time>
      </trkpt>
      <trkpt lat="48.2215" lon="3.24305">
        <ele>93</ele>
        <time>2014-09-07T09:43:07.000Z</time>
      </trkpt>
      <trkpt lat="48.22152" lon="3.24313">
        <ele>93</ele>
        <time>2014-09-07T09:43:08.000Z</time>
      </trkpt>
      <trkpt lat="48.22153" lon="3.24322">
        <ele>93</ele>
        <time>2014-09-07T09:43:09.000Z</time>
      </trkpt>
      <trkpt lat="48.22153" lon="3.24328">
        <ele>92</ele>
        <time>2014-09-07T09:43:10.000Z</time>
      </trkpt>
      <trkpt lat="48.22154" lon="3.24337">
        <ele>93</ele>
        <time>2014-09-07T09:43:11.000Z</time>
      </trkpt>
      <trkpt lat="48.22155" lon="3.24346">
        <ele>93</ele>
        <time>2014-09-07T09:43:12.000Z</time>
      </trkpt>
      <trkpt lat="48.22155" lon="3.24352">
        <ele>93</ele>
        <time>2014-09-07T09:43:13.000Z</time>
      </trkpt>
      <trkpt lat="48.22156" lon="3.24361">
        <ele>94</ele>
        <time>2014-09-07T09:43:14.000Z</time>
      </trkpt>
      <trkpt lat="48.22156" lon="3.24369">
        <ele>94</ele>
        <time>2014-09-07T09:43:15.000Z</time>
      </trkpt>
      <trkpt lat="48.22156" lon="3.24376">
        <ele>94</ele>
        <time>2014-09-07T09:43:16.000Z</time>
      </trkpt>
      <trkpt lat="48.22156" lon="3.24384">
        <ele>94</ele>
        <time>2014-09-07T09:43:17.000Z</time>
      </trkpt>
      <trkpt lat="48.22156" lon="3.24393">
        <ele>94</ele>
        <time>2014-09-07T09:43:18.000Z</time>
      </trkpt>
      <trkpt lat="48.22157" lon="3.24399">
        <ele>94</ele>
        <time>2014-09-07T09:43:19.000Z</time>
      </trkpt>
      <trkpt lat="48.22157" lon="3.24408">
        <ele>94</ele>
        <time>2014-09-07T09:43:20.000Z</time>
      </trkpt>
      <trkpt lat="48.22157" lon="3.24416">
        <ele>94</ele>
        <time>2014-09-07T09:43:21.000Z</time>
      </trkpt>
      <trkpt lat="48.22157" lon="3.24423">
        <ele>94</ele>
        <time>2014-09-07T09:43:22.000Z</time>
      </trkpt>
      <trkpt lat="48.22157" lon="3.24431">
        <ele>95</ele>
        <time>2014-09-07T09:43:23.000Z</time>
      </trkpt>
      <trkpt lat="48.22156" lon="3.24438">
        <ele>95</ele>
        <time>2014-09-07T09:43:24.000Z</time>
      </trkpt>
      <trkpt lat="48.22156" lon="3.24446">
        <ele>95</ele>
        <time>2014-09-07T09:43:25.000Z</time>
      </trkpt>
      <trkpt lat="48.22156" lon="3.24453">
        <ele>96</ele>
        <time>2014-09-07T09:43:26.000Z</time>
      </trkpt>
      <trkpt lat="48.22156" lon="3.24461">
        <ele>96</ele>
        <time>2014-09-07T09:43:27.000Z</time>
      </trkpt>
      <trkpt lat="48.22156" lon="3.24468">
        <ele>96</ele>
        <time>2014-09-07T09:43:28.000Z</time>
      </trkpt>
      <trkpt lat="48.22155" lon="3.24476">
        <ele>96</ele>
        <time>2014-09-07T09:43:29.000Z</time>
      </trkpt>
      <trkpt lat="48.22155" lon="3.24483">
        <ele>96</ele>
        <time>2014-09-07T09:43:30.000Z</time>
      </trkpt>
      <trkpt lat="48.22155" lon="3.24489">
        <ele>96</ele>
        <time>2014-09-07T09:43:31.000Z</time>
      </trkpt>
      <trkpt lat="48.22155" lon="3.24498">
        <ele>96</ele>
        <time>2014-09-07T09:43:32.000Z</time>
      </trkpt>
      <trkpt lat="48.22154" lon="3.24507">
        <ele>96</ele>
        <time>2014-09-07T09:43:33.000Z</time>
      </trkpt>
      <trkpt lat="48.22154" lon="3.24513">
        <ele>97</ele>
        <time>2014-09-07T09:43:34.000Z</time>
      </trkpt>
      <trkpt lat="48.22154" lon="3.24522">
        <ele>97</ele>
        <time>2014-09-07T09:43:35.000Z</time>
      </trkpt>
      <trkpt lat="48.22154" lon="3.24528">
        <ele>97</ele>
        <time>2014-09-07T09:43:36.000Z</time>
      </trkpt>
      <trkpt lat="48.22154" lon="3.24537">
        <ele>97</ele>
        <time>2014-09-07T09:43:37.000Z</time>
      </trkpt>
      <trkpt lat="48.22154" lon="3.24543">
        <ele>97</ele>
        <time>2014-09-07T09:43:38.000Z</time>
      </trkpt>
      <trkpt lat="48.22154" lon="3.24552">
        <ele>97</ele>
        <time>2014-09-07T09:43:39.000Z</time>
      </trkpt>
      <trkpt lat="48.22154" lon="3.24558">
        <ele>97</ele>
        <time>2014-09-07T09:43:40.000Z</time>
      </trkpt>
      <trkpt lat="48.22154" lon="3.24567">
        <ele>96</ele>
        <time>2014-09-07T09:43:41.000Z</time>
      </trkpt>
      <trkpt lat="48.22154" lon="3.24573">
        <ele>96</ele>
        <time>2014-09-07T09:43:42.000Z</time>
      </trkpt>
      <trkpt lat="48.22153" lon="3.24579">
        <ele>96</ele>
        <time>2014-09-07T09:43:43.000Z</time>
      </trkpt>
      <trkpt lat="48.22153" lon="3.24586">
        <ele>97</ele>
        <time>2014-09-07T09:43:44.000Z</time>
      </trkpt>
      <trkpt lat="48.22153" lon="3.2459">
        <ele>97</ele>
        <time>2014-09-07T09:43:45.000Z</time>
      </trkpt>
      <trkpt lat="48.22153" lon="3.24597">
        <ele>97</ele>
        <time>2014-09-07T09:43:46.000Z</time>
      </trkpt>
      <trkpt lat="48.22153" lon="3.24603">
        <ele>97</ele>
        <time>2014-09-07T09:43:47.000Z</time>
      </trkpt>
      <trkpt lat="48.22152" lon="3.2461">
        <ele>98</ele>
        <time>2014-09-07T09:43:48.000Z</time>
      </trkpt>
      <trkpt lat="48.22152" lon="3.24616">
        <ele>98</ele>
        <time>2014-09-07T09:43:49.000Z</time>
      </trkpt>
      <trkpt lat="48.22152" lon="3.24622">
        <ele>98</ele>
        <time>2014-09-07T09:43:50.000Z</time>
      </trkpt>
      <trkpt lat="48.22152" lon="3.24627">
        <ele>98</ele>
        <time>2014-09-07T09:43:51.000Z</time>
      </trkpt>
      <trkpt lat="48.2215" lon="3.24633">
        <ele>99</ele>
        <time>2014-09-07T09:43:52.000Z</time>
      </trkpt>
      <trkpt lat="48.2215" lon="3.2464">
        <ele>98</ele>
        <time>2014-09-07T09:43:53.000Z</time>
      </trkpt>
      <trkpt lat="48.2215" lon="3.24644">
        <ele>98</ele>
        <time>2014-09-07T09:43:54.000Z</time>
      </trkpt>
      <trkpt lat="48.2215" lon="3.2465">
        <ele>98</ele>
        <time>2014-09-07T09:43:55.000Z</time>
      </trkpt>
      <trkpt lat="48.2215" lon="3.24655">
        <ele>98</ele>
        <time>2014-09-07T09:43:56.000Z</time>
      </trkpt>
      <trkpt lat="48.2215" lon="3.24661">
        <ele>98</ele>
        <time>2014-09-07T09:43:57.000Z</time>
      </trkpt>
      <trkpt lat="48.22149" lon="3.24667">
        <ele>99</ele>
        <time>2014-09-07T09:43:58.000Z</time>
      </trkpt>
      <trkpt lat="48.22149" lon="3.24672">
        <ele>99</ele>
        <time>2014-09-07T09:43:59.000Z</time>
      </trkpt>
      <trkpt lat="48.22149" lon="3.24678">
        <ele>99</ele>
        <time>2014-09-07T09:44:00.000Z</time>
      </trkpt>
      <trkpt lat="48.22149" lon="3.24682">
        <ele>100</ele>
        <time>2014-09-07T09:44:01.000Z</time>
      </trkpt>
      <trkpt lat="48.22149" lon="3.24689">
        <ele>100</ele>
        <time>2014-09-07T09:44:02.000Z</time>
      </trkpt>
      <trkpt lat="48.22148" lon="3.24695">
        <ele>100</ele>
        <time>2014-09-07T09:44:03.000Z</time>
      </trkpt>
      <trkpt lat="48.22148" lon="3.247">
        <ele>100</ele>
        <time>2014-09-07T09:44:04.000Z</time>
      </trkpt>
      <trkpt lat="48.22148" lon="3.24706">
        <ele>101</ele>
        <time>2014-09-07T09:44:05.000Z</time>
      </trkpt>
      <trkpt lat="48.22148" lon="3.2471">
        <ele>101</ele>
        <time>2014-09-07T09:44:06.000Z</time>
      </trkpt>
      <trkpt lat="48.22148" lon="3.24717">
        <ele>101</ele>
        <time>2014-09-07T09:44:07.000Z</time>
      </trkpt>
      <trkpt lat="48.22148" lon="3.24721">
        <ele>101</ele>
        <time>2014-09-07T09:44:08.000Z</time>
      </trkpt>
      <trkpt lat="48.22147" lon="3.24728">
        <ele>100</ele>
        <time>2014-09-07T09:44:09.000Z</time>
      </trkpt>
      <trkpt lat="48.22147" lon="3.24734">
        <ele>100</ele>
        <time>2014-09-07T09:44:10.000Z</time>
      </trkpt>
      <trkpt lat="48.22147" lon="3.24738">
        <ele>100</ele>
        <time>2014-09-07T09:44:11.000Z</time>
      </trkpt>
      <trkpt lat="48.22147" lon="3.24745">
        <ele>100</ele>
        <time>2014-09-07T09:44:12.000Z</time>
      </trkpt>
      <trkpt lat="48.22147" lon="3.24749">
        <ele>100</ele>
        <time>2014-09-07T09:44:13.000Z</time>
      </trkpt>
      <trkpt lat="48.22147" lon="3.24755">
        <ele>101</ele>
        <time>2014-09-07T09:44:14.000Z</time>
      </trkpt>
      <trkpt lat="48.22147" lon="3.24762">
        <ele>101</ele>
        <time>2014-09-07T09:44:15.000Z</time>
      </trkpt>
      <trkpt lat="48.22146" lon="3.24768">
        <ele>102</ele>
        <time>2014-09-07T09:44:16.000Z</time>
      </trkpt>
      <trkpt lat="48.22146" lon="3.24775">
        <ele>102</ele>
        <time>2014-09-07T09:44:17.000Z</time>
      </trkpt>
      <trkpt lat="48.22146" lon="3.24779">
        <ele>102</ele>
        <time>2014-09-07T09:44:18.000Z</time>
      </trkpt>
      <trkpt lat="48.22146" lon="3.24785">
        <ele>102</ele>
        <time>2014-09-07T09:44:19.000Z</time>
      </trkpt>
      <trkpt lat="48.22146" lon="3.24792">
        <ele>102</ele>
        <time>2014-09-07T09:44:20.000Z</time>
      </trkpt>
      <trkpt lat="48.22146" lon="3.24798">
        <ele>102</ele>
        <time>2014-09-07T09:44:21.000Z</time>
      </trkpt>
      <trkpt lat="48.22146" lon="3.24805">
        <ele>102</ele>
        <time>2014-09-07T09:44:22.000Z</time>
      </trkpt>
      <trkpt lat="48.22146" lon="3.24811">
        <ele>102</ele>
        <time>2014-09-07T09:44:23.000Z</time>
      </trkpt>
      <trkpt lat="48.22146" lon="3.24816">
        <ele>102</ele>
        <time>2014-09-07T09:44:24.000Z</time>
      </trkpt>
      <trkpt lat="48.22145" lon="3.24822">
        <ele>102</ele>
        <time>2014-09-07T09:44:25.000Z</time>
      </trkpt>
      <trkpt lat="48.22145" lon="3.24828">
        <ele>101</ele>
        <time>2014-09-07T09:44:26.000Z</time>
      </trkpt>
      <trkpt lat="48.22145" lon="3.24835">
        <ele>102</ele>
        <time>2014-09-07T09:44:27.000Z</time>
      </trkpt>
      <trkpt lat="48.22145" lon="3.24841">
        <ele>102</ele>
        <time>2014-09-07T09:44:28.000Z</time>
      </trkpt>
      <trkpt lat="48.22145" lon="3.24848">
        <ele>102</ele>
        <time>2014-09-07T09:44:29.000Z</time>
      </trkpt>
      <trkpt lat="48.22144" lon="3.24854">
        <ele>103</ele>
        <time>2014-09-07T09:44:30.000Z</time>
      </trkpt>
      <trkpt lat="48.22144" lon="3.24861">
        <ele>103</ele>
        <time>2014-09-07T09:44:31.000Z</time>
      </trkpt>
      <trkpt lat="48.22143" lon="3.24865">
        <ele>103</ele>
        <time>2014-09-07T09:44:32.000Z</time>
      </trkpt>
      <trkpt lat="48.22143" lon="3.24871">
        <ele>103</ele>
        <time>2014-09-07T09:44:33.000Z</time>
      </trkpt>
      <trkpt lat="48.22143" lon="3.24878">
        <ele>103</ele>
        <time>2014-09-07T09:44:34.000Z</time>
      </trkpt>
      <trkpt lat="48.22142" lon="3.24882">
        <ele>103</ele>
        <time>2014-09-07T09:44:35.000Z</time>
      </trkpt>
      <trkpt lat="48.22142" lon="3.24886">
        <ele>103</ele>
        <time>2014-09-07T09:44:36.000Z</time>
      </trkpt>
      <trkpt lat="48.22142" lon="3.24893">
        <ele>103</ele>
        <time>2014-09-07T09:44:37.000Z</time>
      </trkpt>
      <trkpt lat="48.22142" lon="3.24897">
        <ele>103</ele>
        <time>2014-09-07T09:44:38.000Z</time>
      </trkpt>
      <trkpt lat="48.22141" lon="3.24901">
        <ele>103</ele>
        <time>2014-09-07T09:44:39.000Z</time>
      </trkpt>
      <trkpt lat="48.22141" lon="3.24906">
        <ele>103</ele>
        <time>2014-09-07T09:44:40.000Z</time>
      </trkpt>
      <trkpt lat="48.22141" lon="3.24912">
        <ele>103</ele>
        <time>2014-09-07T09:44:41.000Z</time>
      </trkpt>
      <trkpt lat="48.2214" lon="3.24916">
        <ele>103</ele>
        <time>2014-09-07T09:44:42.000Z</time>
      </trkpt>
      <trkpt lat="48.22139" lon="3.24923">
        <ele>103</ele>
        <time>2014-09-07T09:44:43.000Z</time>
      </trkpt>
      <trkpt lat="48.22139" lon="3.24929">
        <ele>104</ele>
        <time>2014-09-07T09:44:44.000Z</time>
      </trkpt>
      <trkpt lat="48.22138" lon="3.24936">
        <ele>104</ele>
        <time>2014-09-07T09:44:45.000Z</time>
      </trkpt>
      <trkpt lat="48.22138" lon="3.24942">
        <ele>104</ele>
        <time>2014-09-07T09:44:46.000Z</time>
      </trkpt>
      <trkpt lat="48.22137" lon="3.24949">
        <ele>104</ele>
        <time>2014-09-07T09:44:47.000Z</time>
      </trkpt>
      <trkpt lat="48.22137" lon="3.24955">
        <ele>104</ele>
        <time>2014-09-07T09:44:48.000Z</time>
      </trkpt>
      <trkpt lat="48.22135" lon="3.24961">
        <ele>104</ele>
        <time>2014-09-07T09:44:49.000Z</time>
      </trkpt>
      <trkpt lat="48.22135" lon="3.2497">
        <ele>104</ele>
        <time>2014-09-07T09:44:50.000Z</time>
      </trkpt>
      <trkpt lat="48.22134" lon="3.24976">
        <ele>104</ele>
        <time>2014-09-07T09:44:51.000Z</time>
      </trkpt>
      <trkpt lat="48.22133" lon="3.24983">
        <ele>104</ele>
        <time>2014-09-07T09:44:52.000Z</time>
      </trkpt>
      <trkpt lat="48.22133" lon="3.24989">
        <ele>104</ele>
        <time>2014-09-07T09:44:53.000Z</time>
      </trkpt>
      <trkpt lat="48.22132" lon="3.24996">
        <ele>104</ele>
        <time>2014-09-07T09:44:54.000Z</time>
      </trkpt>
      <trkpt lat="48.22132" lon="3.25004">
        <ele>104</ele>
        <time>2014-09-07T09:44:55.000Z</time>
      </trkpt>
      <trkpt lat="48.22131" lon="3.25011">
        <ele>105</ele>
        <time>2014-09-07T09:44:56.000Z</time>
      </trkpt>
      <trkpt lat="48.2213" lon="3.25017">
        <ele>105</ele>
        <time>2014-09-07T09:44:57.000Z</time>
      </trkpt>
      <trkpt lat="48.2213" lon="3.25024">
        <ele>105</ele>
        <time>2014-09-07T09:44:58.000Z</time>
      </trkpt>
      <trkpt lat="48.22129" lon="3.2503">
        <ele>105</ele>
        <time>2014-09-07T09:44:59.000Z</time>
      </trkpt>
      <trkpt lat="48.22128" lon="3.25037">
        <ele>105</ele>
        <time>2014-09-07T09:45:00.000Z</time>
      </trkpt>
      <trkpt lat="48.22127" lon="3.25045">
        <ele>105</ele>
        <time>2014-09-07T09:45:01.000Z</time>
      </trkpt>
      <trkpt lat="48.22126" lon="3.25052">
        <ele>105</ele>
        <time>2014-09-07T09:45:02.000Z</time>
      </trkpt>
      <trkpt lat="48.22126" lon="3.25058">
        <ele>105</ele>
        <time>2014-09-07T09:45:03.000Z</time>
      </trkpt>
      <trkpt lat="48.22125" lon="3.25064">
        <ele>105</ele>
        <time>2014-09-07T09:45:04.000Z</time>
      </trkpt>
      <trkpt lat="48.22124" lon="3.25071">
        <ele>105</ele>
        <time>2014-09-07T09:45:05.000Z</time>
      </trkpt>
      <trkpt lat="48.22123" lon="3.25077">
        <ele>106</ele>
        <time>2014-09-07T09:45:06.000Z</time>
      </trkpt>
      <trkpt lat="48.22122" lon="3.25086">
        <ele>105</ele>
        <time>2014-09-07T09:45:07.000Z</time>
      </trkpt>
      <trkpt lat="48.22122" lon="3.25092">
        <ele>105</ele>
        <time>2014-09-07T09:45:08.000Z</time>
      </trkpt>
      <trkpt lat="48.2212" lon="3.25099">
        <ele>105</ele>
        <time>2014-09-07T09:45:09.000Z</time>
      </trkpt>
      <trkpt lat="48.22119" lon="3.25105">
        <ele>105</ele>
        <time>2014-09-07T09:45:10.000Z</time>
      </trkpt>
      <trkpt lat="48.22118" lon="3.25112">
        <ele>105</ele>
        <time>2014-09-07T09:45:11.000Z</time>
      </trkpt>
      <trkpt lat="48.22118" lon="3.25118">
        <ele>105</ele>
        <time>2014-09-07T09:45:12.000Z</time>
      </trkpt>
      <trkpt lat="48.22117" lon="3.25125">
        <ele>105</ele>
        <time>2014-09-07T09:45:13.000Z</time>
      </trkpt>
      <trkpt lat="48.22116" lon="3.25133">
        <ele>105</ele>
        <time>2014-09-07T09:45:14.000Z</time>
      </trkpt>
      <trkpt lat="48.22115" lon="3.2514">
        <ele>105</ele>
        <time>2014-09-07T09:45:15.000Z</time>
      </trkpt>
      <trkpt lat="48.22114" lon="3.25146">
        <ele>105</ele>
        <time>2014-09-07T09:45:16.000Z</time>
      </trkpt>
      <trkpt lat="48.22113" lon="3.25152">
        <ele>105</ele>
        <time>2014-09-07T09:45:17.000Z</time>
      </trkpt>
      <trkpt lat="48.22112" lon="3.25159">
        <ele>105</ele>
        <time>2014-09-07T09:45:18.000Z</time>
      </trkpt>
      <trkpt lat="48.22111" lon="3.25167">
        <ele>105</ele>
        <time>2014-09-07T09:45:19.000Z</time>
      </trkpt>
      <trkpt lat="48.2211" lon="3.25174">
        <ele>105</ele>
        <time>2014-09-07T09:45:20.000Z</time>
      </trkpt>
      <trkpt lat="48.2211" lon="3.2518">
        <ele>105</ele>
        <time>2014-09-07T09:45:21.000Z</time>
      </trkpt>
      <trkpt lat="48.22109" lon="3.25189">
        <ele>105</ele>
        <time>2014-09-07T09:45:22.000Z</time>
      </trkpt>
      <trkpt lat="48.22108" lon="3.25195">
        <ele>104</ele>
        <time>2014-09-07T09:45:23.000Z</time>
      </trkpt>
      <trkpt lat="48.22106" lon="3.25204">
        <ele>104</ele>
        <time>2014-09-07T09:45:24.000Z</time>
      </trkpt>
      <trkpt lat="48.22106" lon="3.2521">
        <ele>104</ele>
        <time>2014-09-07T09:45:25.000Z</time>
      </trkpt>
      <trkpt lat="48.22105" lon="3.25219">
        <ele>105</ele>
        <time>2014-09-07T09:45:26.000Z</time>
      </trkpt>
      <trkpt lat="48.22104" lon="3.25227">
        <ele>105</ele>
        <time>2014-09-07T09:45:27.000Z</time>
      </trkpt>
      <trkpt lat="48.22103" lon="3.25236">
        <ele>105</ele>
        <time>2014-09-07T09:45:28.000Z</time>
      </trkpt>
      <trkpt lat="48.22102" lon="3.25245">
        <ele>106</ele>
        <time>2014-09-07T09:45:29.000Z</time>
      </trkpt>
      <trkpt lat="48.221" lon="3.25253">
        <ele>106</ele>
        <time>2014-09-07T09:45:30.000Z</time>
      </trkpt>
      <trkpt lat="48.22099" lon="3.25262">
        <ele>105</ele>
        <time>2014-09-07T09:45:31.000Z</time>
      </trkpt>
      <trkpt lat="48.22098" lon="3.25268">
        <ele>105</ele>
        <time>2014-09-07T09:45:32.000Z</time>
      </trkpt>
      <trkpt lat="48.22096" lon="3.25277">
        <ele>105</ele>
        <time>2014-09-07T09:45:33.000Z</time>
      </trkpt>
      <trkpt lat="48.22095" lon="3.25285">
        <ele>105</ele>
        <time>2014-09-07T09:45:34.000Z</time>
      </trkpt>
      <trkpt lat="48.22093" lon="3.25292">
        <ele>104</ele>
        <time>2014-09-07T09:45:35.000Z</time>
      </trkpt>
      <trkpt lat="48.22091" lon="3.253">
        <ele>105</ele>
        <time>2014-09-07T09:45:36.000Z</time>
      </trkpt>
      <trkpt lat="48.2209" lon="3.25307">
        <ele>105</ele>
        <time>2014-09-07T09:45:37.000Z</time>
      </trkpt>
      <trkpt lat="48.22088" lon="3.25315">
        <ele>105</ele>
        <time>2014-09-07T09:45:38.000Z</time>
      </trkpt>
      <trkpt lat="48.22087" lon="3.25322">
        <ele>106</ele>
        <time>2014-09-07T09:45:39.000Z</time>
      </trkpt>
      <trkpt lat="48.22086" lon="3.2533">
        <ele>107</ele>
        <time>2014-09-07T09:45:40.000Z</time>
      </trkpt>
      <trkpt lat="48.22085" lon="3.25339">
        <ele>106</ele>
        <time>2014-09-07T09:45:41.000Z</time>
      </trkpt>
      <trkpt lat="48.22083" lon="3.25348">
        <ele>107</ele>
        <time>2014-09-07T09:45:42.000Z</time>
      </trkpt>
      <trkpt lat="48.22082" lon="3.25356">
        <ele>106</ele>
        <time>2014-09-07T09:45:43.000Z</time>
      </trkpt>
      <trkpt lat="48.2208" lon="3.25365">
        <ele>106</ele>
        <time>2014-09-07T09:45:44.000Z</time>
      </trkpt>
      <trkpt lat="48.22078" lon="3.25373">
        <ele>105</ele>
        <time>2014-09-07T09:45:45.000Z</time>
      </trkpt>
      <trkpt lat="48.22075" lon="3.25382">
        <ele>105</ele>
        <time>2014-09-07T09:45:46.000Z</time>
      </trkpt>
      <trkpt lat="48.22071" lon="3.25391">
        <ele>105</ele>
        <time>2014-09-07T09:45:47.000Z</time>
      </trkpt>
      <trkpt lat="48.22068" lon="3.25399">
        <ele>105</ele>
        <time>2014-09-07T09:45:48.000Z</time>
      </trkpt>
      <trkpt lat="48.22064" lon="3.2541">
        <ele>104</ele>
        <time>2014-09-07T09:45:49.000Z</time>
      </trkpt>
      <trkpt lat="48.22059" lon="3.25418">
        <ele>102</ele>
        <time>2014-09-07T09:45:50.000Z</time>
      </trkpt>
      <trkpt lat="48.22055" lon="3.25429">
        <ele>102</ele>
        <time>2014-09-07T09:45:51.000Z</time>
      </trkpt>
      <trkpt lat="48.2205" lon="3.25438">
        <ele>102</ele>
        <time>2014-09-07T09:45:52.000Z</time>
      </trkpt>
      <trkpt lat="48.22045" lon="3.25446">
        <ele>102</ele>
        <time>2014-09-07T09:45:53.000Z</time>
      </trkpt>
      <trkpt lat="48.2204" lon="3.25457">
        <ele>101</ele>
        <time>2014-09-07T09:45:54.000Z</time>
      </trkpt>
      <trkpt lat="48.22036" lon="3.25466">
        <ele>101</ele>
        <time>2014-09-07T09:45:55.000Z</time>
      </trkpt>
      <trkpt lat="48.2203" lon="3.25474">
        <ele>101</ele>
        <time>2014-09-07T09:45:56.000Z</time>
      </trkpt>
      <trkpt lat="48.22026" lon="3.25485">
        <ele>100</ele>
        <time>2014-09-07T09:45:57.000Z</time>
      </trkpt>
      <trkpt lat="48.22021" lon="3.25494">
        <ele>100</ele>
        <time>2014-09-07T09:45:58.000Z</time>
      </trkpt>
      <trkpt lat="48.22015" lon="3.25502">
        <ele>98</ele>
        <time>2014-09-07T09:45:59.000Z</time>
      </trkpt>
      <trkpt lat="48.2201" lon="3.25513">
        <ele>98</ele>
        <time>2014-09-07T09:46:00.000Z</time>
      </trkpt>
      <trkpt lat="48.22005" lon="3.25524">
        <ele>98</ele>
        <time>2014-09-07T09:46:01.000Z</time>
      </trkpt>
      <trkpt lat="48.21999" lon="3.25534">
        <ele>96</ele>
        <time>2014-09-07T09:46:02.000Z</time>
      </trkpt>
      <trkpt lat="48.21994" lon="3.25545">
        <ele>96</ele>
        <time>2014-09-07T09:46:03.000Z</time>
      </trkpt>
      <trkpt lat="48.21988" lon="3.25556">
        <ele>96</ele>
        <time>2014-09-07T09:46:04.000Z</time>
      </trkpt>
      <trkpt lat="48.21982" lon="3.25569">
        <ele>96</ele>
        <time>2014-09-07T09:46:05.000Z</time>
      </trkpt>
      <trkpt lat="48.21977" lon="3.25579">
        <ele>95</ele>
        <time>2014-09-07T09:46:06.000Z</time>
      </trkpt>
      <trkpt lat="48.21971" lon="3.25592">
        <ele>94</ele>
        <time>2014-09-07T09:46:07.000Z</time>
      </trkpt>
      <trkpt lat="48.21965" lon="3.25605">
        <ele>94</ele>
        <time>2014-09-07T09:46:08.000Z</time>
      </trkpt>
      <trkpt lat="48.21959" lon="3.25616">
        <ele>93</ele>
        <time>2014-09-07T09:46:09.000Z</time>
      </trkpt>
      <trkpt lat="48.21953" lon="3.25629">
        <ele>93</ele>
        <time>2014-09-07T09:46:10.000Z</time>
      </trkpt>
      <trkpt lat="48.21948" lon="3.25642">
        <ele>93</ele>
        <time>2014-09-07T09:46:11.000Z</time>
      </trkpt>
      <trkpt lat="48.21941" lon="3.25652">
        <ele>93</ele>
        <time>2014-09-07T09:46:12.000Z</time>
      </trkpt>
      <trkpt lat="48.21935" lon="3.25665">
        <ele>92</ele>
        <time>2014-09-07T09:46:13.000Z</time>
      </trkpt>
      <trkpt lat="48.21929" lon="3.25676">
        <ele>91</ele>
        <time>2014-09-07T09:46:14.000Z</time>
      </trkpt>
      <trkpt lat="48.21923" lon="3.25689">
        <ele>91</ele>
        <time>2014-09-07T09:46:15.000Z</time>
      </trkpt>
      <trkpt lat="48.21917" lon="3.257">
        <ele>92</ele>
        <time>2014-09-07T09:46:16.000Z</time>
      </trkpt>
      <trkpt lat="48.2191" lon="3.2571">
        <ele>91</ele>
        <time>2014-09-07T09:46:17.000Z</time>
      </trkpt>
      <trkpt lat="48.21904" lon="3.25721">
        <ele>91</ele>
        <time>2014-09-07T09:46:18.000Z</time>
      </trkpt>
      <trkpt lat="48.21898" lon="3.25732">
        <ele>91</ele>
        <time>2014-09-07T09:46:19.000Z</time>
      </trkpt>
      <trkpt lat="48.21891" lon="3.2574">
        <ele>91</ele>
        <time>2014-09-07T09:46:20.000Z</time>
      </trkpt>
      <trkpt lat="48.21884" lon="3.25751">
        <ele>89</ele>
        <time>2014-09-07T09:46:21.000Z</time>
      </trkpt>
      <trkpt lat="48.21878" lon="3.25762">
        <ele>90</ele>
        <time>2014-09-07T09:46:22.000Z</time>
      </trkpt>
      <trkpt lat="48.21872" lon="3.2577">
        <ele>90</ele>
        <time>2014-09-07T09:46:23.000Z</time>
      </trkpt>
      <trkpt lat="48.21865" lon="3.25781">
        <ele>89</ele>
        <time>2014-09-07T09:46:24.000Z</time>
      </trkpt>
      <trkpt lat="48.2186" lon="3.25792">
        <ele>89</ele>
        <time>2014-09-07T09:46:25.000Z</time>
      </trkpt>
      <trkpt lat="48.21854" lon="3.25803">
        <ele>89</ele>
        <time>2014-09-07T09:46:26.000Z</time>
      </trkpt>
      <trkpt lat="48.21848" lon="3.25815">
        <ele>89</ele>
        <time>2014-09-07T09:46:27.000Z</time>
      </trkpt>
      <trkpt lat="48.21843" lon="3.25826">
        <ele>88</ele>
        <time>2014-09-07T09:46:28.000Z</time>
      </trkpt>
      <trkpt lat="48.21837" lon="3.25839">
        <ele>87</ele>
        <time>2014-09-07T09:46:29.000Z</time>
      </trkpt>
      <trkpt lat="48.21832" lon="3.25852">
        <ele>86</ele>
        <time>2014-09-07T09:46:30.000Z</time>
      </trkpt>
      <trkpt lat="48.21825" lon="3.25865">
        <ele>86</ele>
        <time>2014-09-07T09:46:31.000Z</time>
      </trkpt>
      <trkpt lat="48.21819" lon="3.25878">
        <ele>85</ele>
        <time>2014-09-07T09:46:32.000Z</time>
      </trkpt>
      <trkpt lat="48.21814" lon="3.25891">
        <ele>85</ele>
        <time>2014-09-07T09:46:33.000Z</time>
      </trkpt>
      <trkpt lat="48.21807" lon="3.25906">
        <ele>84</ele>
        <time>2014-09-07T09:46:34.000Z</time>
      </trkpt>
      <trkpt lat="48.218" lon="3.25918">
        <ele>81</ele>
        <time>2014-09-07T09:46:35.000Z</time>
      </trkpt>
      <trkpt lat="48.21794" lon="3.25933">
        <ele>81</ele>
        <time>2014-09-07T09:46:36.000Z</time>
      </trkpt>
      <trkpt lat="48.21788" lon="3.25946">
        <ele>81</ele>
        <time>2014-09-07T09:46:37.000Z</time>
      </trkpt>
      <trkpt lat="48.21781" lon="3.25959">
        <ele>80</ele>
        <time>2014-09-07T09:46:38.000Z</time>
      </trkpt>
      <trkpt lat="48.21775" lon="3.25974">
        <ele>80</ele>
        <time>2014-09-07T09:46:39.000Z</time>
      </trkpt>
      <trkpt lat="48.21769" lon="3.25987">
        <ele>79</ele>
        <time>2014-09-07T09:46:40.000Z</time>
      </trkpt>
      <trkpt lat="48.21761" lon="3.25998">
        <ele>78</ele>
        <time>2014-09-07T09:46:41.000Z</time>
      </trkpt>
      <trkpt lat="48.21754" lon="3.26011">
        <ele>77</ele>
        <time>2014-09-07T09:46:42.000Z</time>
      </trkpt>
      <trkpt lat="48.21746" lon="3.26026">
        <ele>75</ele>
        <time>2014-09-07T09:46:43.000Z</time>
      </trkpt>
      <trkpt lat="48.2174" lon="3.26039">
        <ele>75</ele>
        <time>2014-09-07T09:46:44.000Z</time>
      </trkpt>
      <trkpt lat="48.21732" lon="3.26051">
        <ele>74</ele>
        <time>2014-09-07T09:46:45.000Z</time>
      </trkpt>
      <trkpt lat="48.21726" lon="3.26066">
        <ele>74</ele>
        <time>2014-09-07T09:46:46.000Z</time>
      </trkpt>
      <trkpt lat="48.21719" lon="3.26079">
        <ele>74</ele>
        <time>2014-09-07T09:46:47.000Z</time>
      </trkpt>
      <trkpt lat="48.21713" lon="3.26092">
        <ele>72</ele>
        <time>2014-09-07T09:46:48.000Z</time>
      </trkpt>
      <trkpt lat="48.21706" lon="3.26103">
        <ele>72</ele>
        <time>2014-09-07T09:46:49.000Z</time>
      </trkpt>
      <trkpt lat="48.21699" lon="3.26116">
        <ele>71</ele>
        <time>2014-09-07T09:46:50.000Z</time>
      </trkpt>
      <trkpt lat="48.21692" lon="3.26129">
        <ele>71</ele>
        <time>2014-09-07T09:46:51.000Z</time>
      </trkpt>
      <trkpt lat="48.21686" lon="3.26139">
        <ele>71</ele>
        <time>2014-09-07T09:46:52.000Z</time>
      </trkpt>
      <trkpt lat="48.21679" lon="3.2615">
        <ele>70</ele>
        <time>2014-09-07T09:46:53.000Z</time>
      </trkpt>
      <trkpt lat="48.21673" lon="3.26161">
        <ele>70</ele>
        <time>2014-09-07T09:46:54.000Z</time>
      </trkpt>
      <trkpt lat="48.21668" lon="3.26172">
        <ele>69</ele>
        <time>2014-09-07T09:46:55.000Z</time>
      </trkpt>
      <trkpt lat="48.21662" lon="3.26182">
        <ele>68</ele>
        <time>2014-09-07T09:46:56.000Z</time>
      </trkpt>
      <trkpt lat="48.21657" lon="3.26195">
        <ele>68</ele>
        <time>2014-09-07T09:46:57.000Z</time>
      </trkpt>
      <trkpt lat="48.21652" lon="3.26206">
        <ele>67</ele>
        <time>2014-09-07T09:46:58.000Z</time>
      </trkpt>
      <trkpt lat="48.21645" lon="3.26217">
        <ele>67</ele>
        <time>2014-09-07T09:46:59.000Z</time>
      </trkpt>
      <trkpt lat="48.21639" lon="3.26227">
        <ele>67</ele>
        <time>2014-09-07T09:47:00.000Z</time>
      </trkpt>
      <trkpt lat="48.21632" lon="3.26238">
        <ele>67</ele>
        <time>2014-09-07T09:47:01.000Z</time>
      </trkpt>
      <trkpt lat="48.21626" lon="3.26249">
        <ele>66</ele>
        <time>2014-09-07T09:47:02.000Z</time>
      </trkpt>
      <trkpt lat="48.2162" lon="3.2626">
        <ele>65</ele>
        <time>2014-09-07T09:47:03.000Z</time>
      </trkpt>
      <trkpt lat="48.21615" lon="3.2627">
        <ele>65</ele>
        <time>2014-09-07T09:47:04.000Z</time>
      </trkpt>
      <trkpt lat="48.21611" lon="3.26283">
        <ele>65</ele>
        <time>2014-09-07T09:47:05.000Z</time>
      </trkpt>
      <trkpt lat="48.21605" lon="3.26294">
        <ele>65</ele>
        <time>2014-09-07T09:47:06.000Z</time>
      </trkpt>
      <trkpt lat="48.21601" lon="3.26305">
        <ele>65</ele>
        <time>2014-09-07T09:47:07.000Z</time>
      </trkpt>
      <trkpt lat="48.21595" lon="3.26313">
        <ele>65</ele>
        <time>2014-09-07T09:47:08.000Z</time>
      </trkpt>
      <trkpt lat="48.21588" lon="3.2632">
        <ele>64</ele>
        <time>2014-09-07T09:47:09.000Z</time>
      </trkpt>
      <trkpt lat="48.21582" lon="3.26326">
        <ele>65</ele>
        <time>2014-09-07T09:47:10.000Z</time>
      </trkpt>
      <trkpt lat="48.21575" lon="3.26333">
        <ele>65</ele>
        <time>2014-09-07T09:47:11.000Z</time>
      </trkpt>
      <trkpt lat="48.2157" lon="3.26339">
        <ele>65</ele>
        <time>2014-09-07T09:47:12.000Z</time>
      </trkpt>
      <trkpt lat="48.21565" lon="3.26343">
        <ele>66</ele>
        <time>2014-09-07T09:47:13.000Z</time>
      </trkpt>
      <trkpt lat="48.21559" lon="3.26348">
        <ele>66</ele>
        <time>2014-09-07T09:47:14.000Z</time>
      </trkpt>
      <trkpt lat="48.21554" lon="3.26352">
        <ele>66</ele>
        <time>2014-09-07T09:47:15.000Z</time>
      </trkpt>
      <trkpt lat="48.21549" lon="3.26356">
        <ele>67</ele>
        <time>2014-09-07T09:47:16.000Z</time>
      </trkpt>
      <trkpt lat="48.21544" lon="3.26358">
        <ele>67</ele>
        <time>2014-09-07T09:47:17.000Z</time>
      </trkpt>
      <trkpt lat="48.21539" lon="3.2636">
        <ele>67</ele>
        <time>2014-09-07T09:47:18.000Z</time>
      </trkpt>
      <trkpt lat="48.21534" lon="3.26363">
        <ele>67</ele>
        <time>2014-09-07T09:47:19.000Z</time>
      </trkpt>
      <trkpt lat="48.21528" lon="3.26365">
        <ele>67</ele>
        <time>2014-09-07T09:47:20.000Z</time>
      </trkpt>
      <trkpt lat="48.21522" lon="3.26367">
        <ele>67</ele>
        <time>2014-09-07T09:47:21.000Z</time>
      </trkpt>
      <trkpt lat="48.21516" lon="3.26369">
        <ele>67</ele>
        <time>2014-09-07T09:47:22.000Z</time>
      </trkpt>
      <trkpt lat="48.21511" lon="3.26371">
        <ele>67</ele>
        <time>2014-09-07T09:47:23.000Z</time>
      </trkpt>
      <trkpt lat="48.21506" lon="3.26371">
        <ele>67</ele>
        <time>2014-09-07T09:47:24.000Z</time>
      </trkpt>
      <trkpt lat="48.215" lon="3.26373">
        <ele>67</ele>
        <time>2014-09-07T09:47:25.000Z</time>
      </trkpt>
      <trkpt lat="48.21495" lon="3.26373">
        <ele>71</ele>
        <time>2014-09-07T09:47:26.000Z</time>
      </trkpt>
      <trkpt lat="48.2149" lon="3.26373">
        <ele>71</ele>
        <time>2014-09-07T09:47:27.000Z</time>
      </trkpt>
      <trkpt lat="48.21485" lon="3.26375">
        <ele>71</ele>
        <time>2014-09-07T09:47:28.000Z</time>
      </trkpt>
      <trkpt lat="48.21481" lon="3.26375">
        <ele>71</ele>
        <time>2014-09-07T09:47:29.000Z</time>
      </trkpt>
      <trkpt lat="48.21476" lon="3.26375">
        <ele>71</ele>
        <time>2014-09-07T09:47:30.000Z</time>
      </trkpt>
      <trkpt lat="48.21471" lon="3.26378">
        <ele>71</ele>
        <time>2014-09-07T09:47:31.000Z</time>
      </trkpt>
      <trkpt lat="48.21467" lon="3.26378">
        <ele>71</ele>
        <time>2014-09-07T09:47:32.000Z</time>
      </trkpt>
      <trkpt lat="48.21462" lon="3.2638">
        <ele>71</ele>
        <time>2014-09-07T09:47:33.000Z</time>
      </trkpt>
      <trkpt lat="48.21457" lon="3.2638">
        <ele>72</ele>
        <time>2014-09-07T09:47:34.000Z</time>
      </trkpt>
      <trkpt lat="48.21453" lon="3.26382">
        <ele>72</ele>
        <time>2014-09-07T09:47:35.000Z</time>
      </trkpt>
      <trkpt lat="48.21448" lon="3.26382">
        <ele>72</ele>
        <time>2014-09-07T09:47:36.000Z</time>
      </trkpt>
      <trkpt lat="48.21443" lon="3.26384">
        <ele>72</ele>
        <time>2014-09-07T09:47:37.000Z</time>
      </trkpt>
      <trkpt lat="48.21438" lon="3.26384">
        <ele>72</ele>
        <time>2014-09-07T09:47:38.000Z</time>
      </trkpt>
      <trkpt lat="48.21433" lon="3.26384">
        <ele>72</ele>
        <time>2014-09-07T09:47:39.000Z</time>
      </trkpt>
      <trkpt lat="48.21428" lon="3.26386">
        <ele>72</ele>
        <time>2014-09-07T09:47:40.000Z</time>
      </trkpt>
      <trkpt lat="48.21424" lon="3.26386">
        <ele>72</ele>
        <time>2014-09-07T09:47:41.000Z</time>
      </trkpt>
      <trkpt lat="48.2142" lon="3.26384">
        <ele>72</ele>
        <time>2014-09-07T09:47:42.000Z</time>
      </trkpt>
      <trkpt lat="48.21414" lon="3.26384">
        <ele>76</ele>
        <time>2014-09-07T09:47:43.000Z</time>
      </trkpt>
      <trkpt lat="48.2141" lon="3.26384">
        <ele>76</ele>
        <time>2014-09-07T09:47:44.000Z</time>
      </trkpt>
      <trkpt lat="48.21406" lon="3.26384">
        <ele>76</ele>
        <time>2014-09-07T09:47:45.000Z</time>
      </trkpt>
      <trkpt lat="48.21402" lon="3.26384">
        <ele>76</ele>
        <time>2014-09-07T09:47:46.000Z</time>
      </trkpt>
      <trkpt lat="48.21397" lon="3.26386">
        <ele>76</ele>
        <time>2014-09-07T09:47:47.000Z</time>
      </trkpt>
      <trkpt lat="48.21393" lon="3.26386">
        <ele>76</ele>
        <time>2014-09-07T09:47:48.000Z</time>
      </trkpt>
      <trkpt lat="48.21388" lon="3.26386">
        <ele>77</ele>
        <time>2014-09-07T09:47:49.000Z</time>
      </trkpt>
      <trkpt lat="48.21383" lon="3.26388">
        <ele>77</ele>
        <time>2014-09-07T09:47:50.000Z</time>
      </trkpt>
      <trkpt lat="48.21378" lon="3.26388">
        <ele>77</ele>
        <time>2014-09-07T09:47:51.000Z</time>
      </trkpt>
      <trkpt lat="48.21374" lon="3.26386">
        <ele>77</ele>
        <time>2014-09-07T09:47:52.000Z</time>
      </trkpt>
      <trkpt lat="48.21369" lon="3.26386">
        <ele>77</ele>
        <time>2014-09-07T09:47:53.000Z</time>
      </trkpt>
      <trkpt lat="48.21365" lon="3.26386">
        <ele>77</ele>
        <time>2014-09-07T09:47:54.000Z</time>
      </trkpt>
      <trkpt lat="48.21361" lon="3.26386">
        <ele>77</ele>
        <time>2014-09-07T09:47:55.000Z</time>
      </trkpt>
      <trkpt lat="48.21355" lon="3.26384">
        <ele>78</ele>
        <time>2014-09-07T09:47:56.000Z</time>
      </trkpt>
      <trkpt lat="48.21351" lon="3.26384">
        <ele>78</ele>
        <time>2014-09-07T09:47:57.000Z</time>
      </trkpt>
      <trkpt lat="48.21347" lon="3.26384">
        <ele>78</ele>
        <time>2014-09-07T09:47:58.000Z</time>
      </trkpt>
      <trkpt lat="48.21342" lon="3.26382">
        <ele>78</ele>
        <time>2014-09-07T09:47:59.000Z</time>
      </trkpt>
      <trkpt lat="48.21337" lon="3.26382">
        <ele>78</ele>
        <time>2014-09-07T09:48:00.000Z</time>
      </trkpt>
      <trkpt lat="48.21333" lon="3.2638">
        <ele>83</ele>
        <time>2014-09-07T09:48:01.000Z</time>
      </trkpt>
      <trkpt lat="48.21328" lon="3.2638">
        <ele>83</ele>
        <time>2014-09-07T09:48:02.000Z</time>
      </trkpt>
      <trkpt lat="48.21323" lon="3.2638">
        <ele>83</ele>
        <time>2014-09-07T09:48:03.000Z</time>
      </trkpt>
      <trkpt lat="48.21319" lon="3.26378">
        <ele>84</ele>
        <time>2014-09-07T09:48:04.000Z</time>
      </trkpt>
      <trkpt lat="48.21314" lon="3.26378">
        <ele>84</ele>
        <time>2014-09-07T09:48:05.000Z</time>
      </trkpt>
      <trkpt lat="48.21309" lon="3.2638">
        <ele>84</ele>
        <time>2014-09-07T09:48:06.000Z</time>
      </trkpt>
      <trkpt lat="48.21304" lon="3.26382">
        <ele>84</ele>
        <time>2014-09-07T09:48:07.000Z</time>
      </trkpt>
      <trkpt lat="48.21298" lon="3.26386">
        <ele>84</ele>
        <time>2014-09-07T09:48:08.000Z</time>
      </trkpt>
      <trkpt lat="48.21291" lon="3.26388">
        <ele>84</ele>
        <time>2014-09-07T09:48:09.000Z</time>
      </trkpt>
      <trkpt lat="48.21286" lon="3.26391">
        <ele>84</ele>
        <time>2014-09-07T09:48:10.000Z</time>
      </trkpt>
      <trkpt lat="48.2128" lon="3.26395">
        <ele>84</ele>
        <time>2014-09-07T09:48:11.000Z</time>
      </trkpt>
      <trkpt lat="48.21275" lon="3.26397">
        <ele>84</ele>
        <time>2014-09-07T09:48:12.000Z</time>
      </trkpt>
      <trkpt lat="48.21272" lon="3.26399">
        <ele>84</ele>
        <time>2014-09-07T09:48:13.000Z</time>
      </trkpt>
      <trkpt lat="48.21266" lon="3.26401">
        <ele>84</ele>
        <time>2014-09-07T09:48:14.000Z</time>
      </trkpt>
      <trkpt lat="48.21262" lon="3.26403">
        <ele>83</ele>
        <time>2014-09-07T09:48:15.000Z</time>
      </trkpt>
      <trkpt lat="48.21257" lon="3.26406">
        <ele>83</ele>
        <time>2014-09-07T09:48:16.000Z</time>
      </trkpt>
      <trkpt lat="48.21251" lon="3.26408">
        <ele>82</ele>
        <time>2014-09-07T09:48:17.000Z</time>
      </trkpt>
      <trkpt lat="48.21246" lon="3.2641">
        <ele>84</ele>
        <time>2014-09-07T09:48:18.000Z</time>
      </trkpt>
      <trkpt lat="48.21241" lon="3.26414">
        <ele>85</ele>
        <time>2014-09-07T09:48:19.000Z</time>
      </trkpt>
      <trkpt lat="48.21235" lon="3.26416">
        <ele>86</ele>
        <time>2014-09-07T09:48:20.000Z</time>
      </trkpt>
      <trkpt lat="48.2123" lon="3.26421">
        <ele>79</ele>
        <time>2014-09-07T09:48:21.000Z</time>
      </trkpt>
      <trkpt lat="48.21225" lon="3.26423">
        <ele>78</ele>
        <time>2014-09-07T09:48:22.000Z</time>
      </trkpt>
      <trkpt lat="48.21219" lon="3.26427">
        <ele>78</ele>
        <time>2014-09-07T09:48:23.000Z</time>
      </trkpt>
      <trkpt lat="48.21215" lon="3.26431">
        <ele>78</ele>
        <time>2014-09-07T09:48:24.000Z</time>
      </trkpt>
      <trkpt lat="48.2121" lon="3.26436">
        <ele>78</ele>
        <time>2014-09-07T09:48:25.000Z</time>
      </trkpt>
      <trkpt lat="48.21204" lon="3.2644">
        <ele>78</ele>
        <time>2014-09-07T09:48:26.000Z</time>
      </trkpt>
      <trkpt lat="48.212" lon="3.26444">
        <ele>77</ele>
        <time>2014-09-07T09:48:27.000Z</time>
      </trkpt>
      <trkpt lat="48.21196" lon="3.26448">
        <ele>77</ele>
        <time>2014-09-07T09:48:28.000Z</time>
      </trkpt>
      <trkpt lat="48.21191" lon="3.26455">
        <ele>77</ele>
        <time>2014-09-07T09:48:29.000Z</time>
      </trkpt>
      <trkpt lat="48.21187" lon="3.26459">
        <ele>76</ele>
        <time>2014-09-07T09:48:30.000Z</time>
      </trkpt>
      <trkpt lat="48.21182" lon="3.26466">
        <ele>75</ele>
        <time>2014-09-07T09:48:31.000Z</time>
      </trkpt>
      <trkpt lat="48.21175" lon="3.26472">
        <ele>74</ele>
        <time>2014-09-07T09:48:32.000Z</time>
      </trkpt>
      <trkpt lat="48.2117" lon="3.26481">
        <ele>73</ele>
        <time>2014-09-07T09:48:33.000Z</time>
      </trkpt>
      <trkpt lat="48.21163" lon="3.26487">
        <ele>73</ele>
        <time>2014-09-07T09:48:34.000Z</time>
      </trkpt>
      <trkpt lat="48.21158" lon="3.26491">
        <ele>72</ele>
        <time>2014-09-07T09:48:35.000Z</time>
      </trkpt>
      <trkpt lat="48.21153" lon="3.26498">
        <ele>72</ele>
        <time>2014-09-07T09:48:36.000Z</time>
      </trkpt>
      <trkpt lat="48.21147" lon="3.26504">
        <ele>67</ele>
        <time>2014-09-07T09:48:37.000Z</time>
      </trkpt>
      <trkpt lat="48.21141" lon="3.26509">
        <ele>67</ele>
        <time>2014-09-07T09:48:38.000Z</time>
      </trkpt>
      <trkpt lat="48.21134" lon="3.26515">
        <ele>67</ele>
        <time>2014-09-07T09:48:39.000Z</time>
      </trkpt>
      <trkpt lat="48.21128" lon="3.26519">
        <ele>67</ele>
        <time>2014-09-07T09:48:40.000Z</time>
      </trkpt>
      <trkpt lat="48.21122" lon="3.26524">
        <ele>67</ele>
        <time>2014-09-07T09:48:41.000Z</time>
      </trkpt>
      <trkpt lat="48.21115" lon="3.26528">
        <ele>67</ele>
        <time>2014-09-07T09:48:42.000Z</time>
      </trkpt>
      <trkpt lat="48.21109" lon="3.26532">
        <ele>67</ele>
        <time>2014-09-07T09:48:43.000Z</time>
      </trkpt>
      <trkpt lat="48.21102" lon="3.26536">
        <ele>67</ele>
        <time>2014-09-07T09:48:44.000Z</time>
      </trkpt>
      <trkpt lat="48.21096" lon="3.26541">
        <ele>67</ele>
        <time>2014-09-07T09:48:45.000Z</time>
      </trkpt>
      <trkpt lat="48.21088" lon="3.26545">
        <ele>67</ele>
        <time>2014-09-07T09:48:46.000Z</time>
      </trkpt>
      <trkpt lat="48.21082" lon="3.26547">
        <ele>67</ele>
        <time>2014-09-07T09:48:47.000Z</time>
      </trkpt>
      <trkpt lat="48.21074" lon="3.26551">
        <ele>66</ele>
        <time>2014-09-07T09:48:48.000Z</time>
      </trkpt>
      <trkpt lat="48.21067" lon="3.26556">
        <ele>66</ele>
        <time>2014-09-07T09:48:49.000Z</time>
      </trkpt>
      <trkpt lat="48.2106" lon="3.26558">
        <ele>66</ele>
        <time>2014-09-07T09:48:50.000Z</time>
      </trkpt>
      <trkpt lat="48.21053" lon="3.2656">
        <ele>66</ele>
        <time>2014-09-07T09:48:51.000Z</time>
      </trkpt>
      <trkpt lat="48.21045" lon="3.2656">
        <ele>66</ele>
        <time>2014-09-07T09:48:52.000Z</time>
      </trkpt>
      <trkpt lat="48.21038" lon="3.26558">
        <ele>66</ele>
        <time>2014-09-07T09:48:53.000Z</time>
      </trkpt>
      <trkpt lat="48.2103" lon="3.26558">
        <ele>66</ele>
        <time>2014-09-07T09:48:54.000Z</time>
      </trkpt>
      <trkpt lat="48.21023" lon="3.26556">
        <ele>66</ele>
        <time>2014-09-07T09:48:55.000Z</time>
      </trkpt>
      <trkpt lat="48.21014" lon="3.26554">
        <ele>66</ele>
        <time>2014-09-07T09:48:56.000Z</time>
      </trkpt>
      <trkpt lat="48.21007" lon="3.26551">
        <ele>66</ele>
        <time>2014-09-07T09:48:57.000Z</time>
      </trkpt>
      <trkpt lat="48.20999" lon="3.26549">
        <ele>66</ele>
        <time>2014-09-07T09:48:58.000Z</time>
      </trkpt>
      <trkpt lat="48.20991" lon="3.26547">
        <ele>66</ele>
        <time>2014-09-07T09:48:59.000Z</time>
      </trkpt>
      <trkpt lat="48.20982" lon="3.26545">
        <ele>66</ele>
        <time>2014-09-07T09:49:00.000Z</time>
      </trkpt>
      <trkpt lat="48.20975" lon="3.26545">
        <ele>66</ele>
        <time>2014-09-07T09:49:01.000Z</time>
      </trkpt>
      <trkpt lat="48.20967" lon="3.26545">
        <ele>66</ele>
        <time>2014-09-07T09:49:02.000Z</time>
      </trkpt>
      <trkpt lat="48.20961" lon="3.26547">
        <ele>65</ele>
        <time>2014-09-07T09:49:03.000Z</time>
      </trkpt>
      <trkpt lat="48.20955" lon="3.26551">
        <ele>65</ele>
        <time>2014-09-07T09:49:04.000Z</time>
      </trkpt>
      <trkpt lat="48.2095" lon="3.26558">
        <ele>65</ele>
        <time>2014-09-07T09:49:05.000Z</time>
      </trkpt>
      <trkpt lat="48.20946" lon="3.26566">
        <ele>65</ele>
        <time>2014-09-07T09:49:06.000Z</time>
      </trkpt>
      <trkpt lat="48.20943" lon="3.26577">
        <ele>65</ele>
        <time>2014-09-07T09:49:07.000Z</time>
      </trkpt>
      <trkpt lat="48.20946" lon="3.26592">
        <ele>65</ele>
        <time>2014-09-07T09:49:08.000Z</time>
      </trkpt>
      <trkpt lat="48.2095" lon="3.26605">
        <ele>65</ele>
        <time>2014-09-07T09:49:09.000Z</time>
      </trkpt>
      <trkpt lat="48.20953" lon="3.26616">
        <ele>65</ele>
        <time>2014-09-07T09:49:10.000Z</time>
      </trkpt>
      <trkpt lat="48.20956" lon="3.26627">
        <ele>65</ele>
        <time>2014-09-07T09:49:11.000Z</time>
      </trkpt>
      <trkpt lat="48.20958" lon="3.26639">
        <ele>65</ele>
        <time>2014-09-07T09:49:12.000Z</time>
      </trkpt>
      <trkpt lat="48.2096" lon="3.2665">
        <ele>65</ele>
        <time>2014-09-07T09:49:13.000Z</time>
      </trkpt>
      <trkpt lat="48.20961" lon="3.26661">
        <ele>65</ele>
        <time>2014-09-07T09:49:14.000Z</time>
      </trkpt>
      <trkpt lat="48.20961" lon="3.26672">
        <ele>65</ele>
        <time>2014-09-07T09:49:15.000Z</time>
      </trkpt>
      <trkpt lat="48.2096" lon="3.26684">
        <ele>65</ele>
        <time>2014-09-07T09:49:16.000Z</time>
      </trkpt>
      <trkpt lat="48.20955" lon="3.26695">
        <ele>65</ele>
        <time>2014-09-07T09:49:17.000Z</time>
      </trkpt>
      <trkpt lat="48.20951" lon="3.26706">
        <ele>65</ele>
        <time>2014-09-07T09:49:18.000Z</time>
      </trkpt>
      <trkpt lat="48.20948" lon="3.26715">
        <ele>65</ele>
        <time>2014-09-07T09:49:19.000Z</time>
      </trkpt>
      <trkpt lat="48.20943" lon="3.26721">
        <ele>65</ele>
        <time>2014-09-07T09:49:20.000Z</time>
      </trkpt>
      <trkpt lat="48.20939" lon="3.2673">
        <ele>65</ele>
        <time>2014-09-07T09:49:21.000Z</time>
      </trkpt>
      <trkpt lat="48.20934" lon="3.26734">
        <ele>64</ele>
        <time>2014-09-07T09:49:22.000Z</time>
      </trkpt>
      <trkpt lat="48.20928" lon="3.26736">
        <ele>64</ele>
        <time>2014-09-07T09:49:23.000Z</time>
      </trkpt>
      <trkpt lat="48.20924" lon="3.2674">
        <ele>64</ele>
        <time>2014-09-07T09:49:24.000Z</time>
      </trkpt>
      <trkpt lat="48.2092" lon="3.26745">
        <ele>64</ele>
        <time>2014-09-07T09:49:25.000Z</time>
      </trkpt>
      <trkpt lat="48.20916" lon="3.26749">
        <ele>64</ele>
        <time>2014-09-07T09:49:26.000Z</time>
      </trkpt>
      <trkpt lat="48.2091" lon="3.26753">
        <ele>64</ele>
        <time>2014-09-07T09:49:27.000Z</time>
      </trkpt>
      <trkpt lat="48.20906" lon="3.26757">
        <ele>64</ele>
        <time>2014-09-07T09:49:28.000Z</time>
      </trkpt>
      <trkpt lat="48.20902" lon="3.26764">
        <ele>64</ele>
        <time>2014-09-07T09:49:29.000Z</time>
      </trkpt>
      <trkpt lat="48.20897" lon="3.26768">
        <ele>64</ele>
        <time>2014-09-07T09:49:30.000Z</time>
      </trkpt>
      <trkpt lat="48.20893" lon="3.26775">
        <ele>64</ele>
        <time>2014-09-07T09:49:31.000Z</time>
      </trkpt>
      <trkpt lat="48.20889" lon="3.26781">
        <ele>64</ele>
        <time>2014-09-07T09:49:32.000Z</time>
      </trkpt>
      <trkpt lat="48.20884" lon="3.26787">
        <ele>64</ele>
        <time>2014-09-07T09:49:33.000Z</time>
      </trkpt>
      <trkpt lat="48.2088" lon="3.26794">
        <ele>64</ele>
        <time>2014-09-07T09:49:34.000Z</time>
      </trkpt>
      <trkpt lat="48.20876" lon="3.26802">
        <ele>64</ele>
        <time>2014-09-07T09:49:35.000Z</time>
      </trkpt>
      <trkpt lat="48.20872" lon="3.26809">
        <ele>65</ele>
        <time>2014-09-07T09:49:36.000Z</time>
      </trkpt>
      <trkpt lat="48.20868" lon="3.26815">
        <ele>65</ele>
        <time>2014-09-07T09:49:37.000Z</time>
      </trkpt>
      <trkpt lat="48.20864" lon="3.26824">
        <ele>65</ele>
        <time>2014-09-07T09:49:38.000Z</time>
      </trkpt>
      <trkpt lat="48.2086" lon="3.2683">
        <ele>65</ele>
        <time>2014-09-07T09:49:39.000Z</time>
      </trkpt>
      <trkpt lat="48.20855" lon="3.26839">
        <ele>65</ele>
        <time>2014-09-07T09:49:40.000Z</time>
      </trkpt>
      <trkpt lat="48.20851" lon="3.26845">
        <ele>65</ele>
        <time>2014-09-07T09:49:41.000Z</time>
      </trkpt>
      <trkpt lat="48.20847" lon="3.26852">
        <ele>65</ele>
        <time>2014-09-07T09:49:42.000Z</time>
      </trkpt>
      <trkpt lat="48.20843" lon="3.26858">
        <ele>65</ele>
        <time>2014-09-07T09:49:43.000Z</time>
      </trkpt>
      <trkpt lat="48.20838" lon="3.26865">
        <ele>65</ele>
        <time>2014-09-07T09:49:44.000Z</time>
      </trkpt>
      <trkpt lat="48.20833" lon="3.26871">
        <ele>65</ele>
        <time>2014-09-07T09:49:45.000Z</time>
      </trkpt>
      <trkpt lat="48.20829" lon="3.26878">
        <ele>66</ele>
        <time>2014-09-07T09:49:46.000Z</time>
      </trkpt>
      <trkpt lat="48.20824" lon="3.26884">
        <ele>66</ele>
        <time>2014-09-07T09:49:47.000Z</time>
      </trkpt>
      <trkpt lat="48.2082" lon="3.2689">
        <ele>66</ele>
        <time>2014-09-07T09:49:48.000Z</time>
      </trkpt>
      <trkpt lat="48.20816" lon="3.26897">
        <ele>66</ele>
        <time>2014-09-07T09:49:49.000Z</time>
      </trkpt>
      <trkpt lat="48.2081" lon="3.26903">
        <ele>66</ele>
        <time>2014-09-07T09:49:50.000Z</time>
      </trkpt>
      <trkpt lat="48.20806" lon="3.2691">
        <ele>66</ele>
        <time>2014-09-07T09:49:51.000Z</time>
      </trkpt>
      <trkpt lat="48.20801" lon="3.26916">
        <ele>66</ele>
        <time>2014-09-07T09:49:52.000Z</time>
      </trkpt>
      <trkpt lat="48.20795" lon="3.26923">
        <ele>65</ele>
        <time>2014-09-07T09:49:53.000Z</time>
      </trkpt>
      <trkpt lat="48.20791" lon="3.26929">
        <ele>65</ele>
        <time>2014-09-07T09:49:54.000Z</time>
      </trkpt>
      <trkpt lat="48.20787" lon="3.26936">
        <ele>65</ele>
        <time>2014-09-07T09:49:55.000Z</time>
      </trkpt>
      <trkpt lat="48.20783" lon="3.26942">
        <ele>64</ele>
        <time>2014-09-07T09:49:56.000Z</time>
      </trkpt>
      <trkpt lat="48.20778" lon="3.26948">
        <ele>64</ele>
        <time>2014-09-07T09:49:57.000Z</time>
      </trkpt>
      <trkpt lat="48.20774" lon="3.26957">
        <ele>64</ele>
        <time>2014-09-07T09:49:58.000Z</time>
      </trkpt>
      <trkpt lat="48.20769" lon="3.26963">
        <ele>64</ele>
        <time>2014-09-07T09:49:59.000Z</time>
      </trkpt>
      <trkpt lat="48.20764" lon="3.2697">
        <ele>64</ele>
        <time>2014-09-07T09:50:00.000Z</time>
      </trkpt>
      <trkpt lat="48.2076" lon="3.26978">
        <ele>64</ele>
        <time>2014-09-07T09:50:01.000Z</time>
      </trkpt>
      <trkpt lat="48.20756" lon="3.26985">
        <ele>64</ele>
        <time>2014-09-07T09:50:02.000Z</time>
      </trkpt>
      <trkpt lat="48.2075" lon="3.26989">
        <ele>63</ele>
        <time>2014-09-07T09:50:03.000Z</time>
      </trkpt>
      <trkpt lat="48.20746" lon="3.26996">
        <ele>63</ele>
        <time>2014-09-07T09:50:04.000Z</time>
      </trkpt>
      <trkpt lat="48.20742" lon="3.27">
        <ele>63</ele>
        <time>2014-09-07T09:50:05.000Z</time>
      </trkpt>
      <trkpt lat="48.20736" lon="3.27004">
        <ele>64</ele>
        <time>2014-09-07T09:50:06.000Z</time>
      </trkpt>
      <trkpt lat="48.20732" lon="3.27011">
        <ele>64</ele>
        <time>2014-09-07T09:50:07.000Z</time>
      </trkpt>
      <trkpt lat="48.20727" lon="3.27015">
        <ele>64</ele>
        <time>2014-09-07T09:50:08.000Z</time>
      </trkpt>
      <trkpt lat="48.20721" lon="3.27017">
        <ele>64</ele>
        <time>2014-09-07T09:50:09.000Z</time>
      </trkpt>
      <trkpt lat="48.20716" lon="3.27019">
        <ele>65</ele>
        <time>2014-09-07T09:50:10.000Z</time>
      </trkpt>
      <trkpt lat="48.20711" lon="3.27019">
        <ele>65</ele>
        <time>2014-09-07T09:50:11.000Z</time>
      </trkpt>
      <trkpt lat="48.20704" lon="3.27021">
        <ele>65</ele>
        <time>2014-09-07T09:50:12.000Z</time>
      </trkpt>
      <trkpt lat="48.20699" lon="3.27024">
        <ele>65</ele>
        <time>2014-09-07T09:50:13.000Z</time>
      </trkpt>
      <trkpt lat="48.20693" lon="3.27026">
        <ele>65</ele>
        <time>2014-09-07T09:50:14.000Z</time>
      </trkpt>
      <trkpt lat="48.20689" lon="3.27028">
        <ele>65</ele>
        <time>2014-09-07T09:50:15.000Z</time>
      </trkpt>
      <trkpt lat="48.20685" lon="3.27034">
        <ele>65</ele>
        <time>2014-09-07T09:50:16.000Z</time>
      </trkpt>
      <trkpt lat="48.20682" lon="3.27041">
        <ele>65</ele>
        <time>2014-09-07T09:50:17.000Z</time>
      </trkpt>
      <trkpt lat="48.20677" lon="3.27045">
        <ele>65</ele>
        <time>2014-09-07T09:50:18.000Z</time>
      </trkpt>
      <trkpt lat="48.20673" lon="3.27049">
        <ele>65</ele>
        <time>2014-09-07T09:50:19.000Z</time>
      </trkpt>
      <trkpt lat="48.20668" lon="3.27054">
        <ele>65</ele>
        <time>2014-09-07T09:50:20.000Z</time>
      </trkpt>
      <trkpt lat="48.20663" lon="3.27056">
        <ele>66</ele>
        <time>2014-09-07T09:50:21.000Z</time>
      </trkpt>
      <trkpt lat="48.20659" lon="3.2706">
        <ele>66</ele>
        <time>2014-09-07T09:50:22.000Z</time>
      </trkpt>
      <trkpt lat="48.20654" lon="3.27062">
        <ele>66</ele>
        <time>2014-09-07T09:50:23.000Z</time>
      </trkpt>
      <trkpt lat="48.2065" lon="3.27066">
        <ele>66</ele>
        <time>2014-09-07T09:50:24.000Z</time>
      </trkpt>
      <trkpt lat="48.20644" lon="3.27069">
        <ele>66</ele>
        <time>2014-09-07T09:50:25.000Z</time>
      </trkpt>
      <trkpt lat="48.2064" lon="3.27071">
        <ele>67</ele>
        <time>2014-09-07T09:50:26.000Z</time>
      </trkpt>
      <trkpt lat="48.20634" lon="3.27073">
        <ele>67</ele>
        <time>2014-09-07T09:50:27.000Z</time>
      </trkpt>
      <trkpt lat="48.2063" lon="3.27075">
        <ele>67</ele>
        <time>2014-09-07T09:50:28.000Z</time>
      </trkpt>
      <trkpt lat="48.20625" lon="3.27077">
        <ele>67</ele>
        <time>2014-09-07T09:50:29.000Z</time>
      </trkpt>
      <trkpt lat="48.20621" lon="3.27079">
        <ele>67</ele>
        <time>2014-09-07T09:50:30.000Z</time>
      </trkpt>
      <trkpt lat="48.20615" lon="3.27081">
        <ele>67</ele>
        <time>2014-09-07T09:50:31.000Z</time>
      </trkpt>
      <trkpt lat="48.2061" lon="3.27084">
        <ele>66</ele>
        <time>2014-09-07T09:50:32.000Z</time>
      </trkpt>
      <trkpt lat="48.20606" lon="3.27086">
        <ele>66</ele>
        <time>2014-09-07T09:50:33.000Z</time>
      </trkpt>
      <trkpt lat="48.206" lon="3.27088">
        <ele>66</ele>
        <time>2014-09-07T09:50:34.000Z</time>
      </trkpt>
      <trkpt lat="48.20596" lon="3.2709">
        <ele>66</ele>
        <time>2014-09-07T09:50:35.000Z</time>
      </trkpt>
      <trkpt lat="48.2059" lon="3.2709">
        <ele>66</ele>
        <time>2014-09-07T09:50:36.000Z</time>
      </trkpt>
      <trkpt lat="48.20586" lon="3.2709">
        <ele>67</ele>
        <time>2014-09-07T09:50:37.000Z</time>
      </trkpt>
      <trkpt lat="48.20582" lon="3.2709">
        <ele>67</ele>
        <time>2014-09-07T09:50:38.000Z</time>
      </trkpt>
      <trkpt lat="48.20577" lon="3.2709">
        <ele>66</ele>
        <time>2014-09-07T09:50:39.000Z</time>
      </trkpt>
      <trkpt lat="48.20572" lon="3.2709">
        <ele>66</ele>
        <time>2014-09-07T09:50:40.000Z</time>
      </trkpt>
      <trkpt lat="48.20567" lon="3.2709">
        <ele>66</ele>
        <time>2014-09-07T09:50:41.000Z</time>
      </trkpt>
      <trkpt lat="48.20563" lon="3.2709">
        <ele>66</ele>
        <time>2014-09-07T09:50:42.000Z</time>
      </trkpt>
      <trkpt lat="48.20557" lon="3.27092">
        <ele>66</ele>
        <time>2014-09-07T09:50:43.000Z</time>
      </trkpt>
      <trkpt lat="48.20553" lon="3.27094">
        <ele>66</ele>
        <time>2014-09-07T09:50:44.000Z</time>
      </trkpt>
      <trkpt lat="48.20548" lon="3.27096">
        <ele>66</ele>
        <time>2014-09-07T09:50:45.000Z</time>
      </trkpt>
      <trkpt lat="48.20543" lon="3.27099">
        <ele>66</ele>
        <time>2014-09-07T09:50:46.000Z</time>
      </trkpt>
      <trkpt lat="48.20539" lon="3.27101">
        <ele>66</ele>
        <time>2014-09-07T09:50:47.000Z</time>
      </trkpt>
      <trkpt lat="48.20535" lon="3.27105">
        <ele>66</ele>
        <time>2014-09-07T09:50:48.000Z</time>
      </trkpt>
      <trkpt lat="48.2053" lon="3.27109">
        <ele>66</ele>
        <time>2014-09-07T09:50:49.000Z</time>
      </trkpt>
      <trkpt lat="48.20526" lon="3.27114">
        <ele>66</ele>
        <time>2014-09-07T09:50:50.000Z</time>
      </trkpt>
      <trkpt lat="48.20521" lon="3.27116">
        <ele>66</ele>
        <time>2014-09-07T09:50:51.000Z</time>
      </trkpt>
      <trkpt lat="48.20516" lon="3.27118">
        <ele>66</ele>
        <time>2014-09-07T09:50:52.000Z</time>
      </trkpt>
      <trkpt lat="48.20512" lon="3.27122">
        <ele>66</ele>
        <time>2014-09-07T09:50:53.000Z</time>
      </trkpt>
      <trkpt lat="48.20508" lon="3.27124">
        <ele>66</ele>
        <time>2014-09-07T09:50:54.000Z</time>
      </trkpt>
      <trkpt lat="48.20503" lon="3.27127">
        <ele>65</ele>
        <time>2014-09-07T09:50:55.000Z</time>
      </trkpt>
      <trkpt lat="48.20498" lon="3.27129">
        <ele>65</ele>
        <time>2014-09-07T09:50:56.000Z</time>
      </trkpt>
      <trkpt lat="48.20493" lon="3.27131">
        <ele>65</ele>
        <time>2014-09-07T09:50:57.000Z</time>
      </trkpt>
      <trkpt lat="48.20489" lon="3.27133">
        <ele>65</ele>
        <time>2014-09-07T09:50:58.000Z</time>
      </trkpt>
      <trkpt lat="48.20483" lon="3.27135">
        <ele>65</ele>
        <time>2014-09-07T09:50:59.000Z</time>
      </trkpt>
      <trkpt lat="48.20479" lon="3.27137">
        <ele>65</ele>
        <time>2014-09-07T09:51:00.000Z</time>
      </trkpt>
      <trkpt lat="48.20474" lon="3.27142">
        <ele>65</ele>
        <time>2014-09-07T09:51:01.000Z</time>
      </trkpt>
      <trkpt lat="48.20469" lon="3.27144">
        <ele>65</ele>
        <time>2014-09-07T09:51:02.000Z</time>
      </trkpt>
      <trkpt lat="48.20464" lon="3.27146">
        <ele>65</ele>
        <time>2014-09-07T09:51:03.000Z</time>
      </trkpt>
      <trkpt lat="48.2046" lon="3.2715">
        <ele>65</ele>
        <time>2014-09-07T09:51:04.000Z</time>
      </trkpt>
      <trkpt lat="48.20454" lon="3.27154">
        <ele>65</ele>
        <time>2014-09-07T09:51:05.000Z</time>
      </trkpt>
      <trkpt lat="48.2045" lon="3.27157">
        <ele>65</ele>
        <time>2014-09-07T09:51:06.000Z</time>
      </trkpt>
      <trkpt lat="48.20445" lon="3.27161">
        <ele>65</ele>
        <time>2014-09-07T09:51:07.000Z</time>
      </trkpt>
      <trkpt lat="48.2044" lon="3.27165">
        <ele>65</ele>
        <time>2014-09-07T09:51:08.000Z</time>
      </trkpt>
      <trkpt lat="48.20438" lon="3.27172">
        <ele>65</ele>
        <time>2014-09-07T09:51:09.000Z</time>
      </trkpt>
      <trkpt lat="48.20435" lon="3.27178">
        <ele>65</ele>
        <time>2014-09-07T09:51:10.000Z</time>
      </trkpt>
      <trkpt lat="48.20433" lon="3.27184">
        <ele>65</ele>
        <time>2014-09-07T09:51:11.000Z</time>
      </trkpt>
      <trkpt lat="48.20433" lon="3.27193">
        <ele>65</ele>
        <time>2014-09-07T09:51:12.000Z</time>
      </trkpt>
      <trkpt lat="48.20432" lon="3.27199">
        <ele>65</ele>
        <time>2014-09-07T09:51:13.000Z</time>
      </trkpt>
      <trkpt lat="48.20432" lon="3.27208">
        <ele>65</ele>
        <time>2014-09-07T09:51:14.000Z</time>
      </trkpt>
      <trkpt lat="48.20432" lon="3.27217">
        <ele>66</ele>
        <time>2014-09-07T09:51:15.000Z</time>
      </trkpt>
      <trkpt lat="48.20433" lon="3.27223">
        <ele>66</ele>
        <time>2014-09-07T09:51:16.000Z</time>
      </trkpt>
      <trkpt lat="48.20433" lon="3.27232">
        <ele>66</ele>
        <time>2014-09-07T09:51:17.000Z</time>
      </trkpt>
      <trkpt lat="48.20434" lon="3.2724">
        <ele>66</ele>
        <time>2014-09-07T09:51:18.000Z</time>
      </trkpt>
      <trkpt lat="48.20435" lon="3.27249">
        <ele>66</ele>
        <time>2014-09-07T09:51:19.000Z</time>
      </trkpt>
      <trkpt lat="48.20436" lon="3.27255">
        <ele>66</ele>
        <time>2014-09-07T09:51:20.000Z</time>
      </trkpt>
      <trkpt lat="48.20437" lon="3.27262">
        <ele>66</ele>
        <time>2014-09-07T09:51:21.000Z</time>
      </trkpt>
      <trkpt lat="48.20438" lon="3.27268">
        <ele>66</ele>
        <time>2014-09-07T09:51:22.000Z</time>
      </trkpt>
      <trkpt lat="48.20438" lon="3.27275">
        <ele>66</ele>
        <time>2014-09-07T09:51:23.000Z</time>
      </trkpt>
      <trkpt lat="48.20439" lon="3.27281">
        <ele>66</ele>
        <time>2014-09-07T09:51:24.000Z</time>
      </trkpt>
      <trkpt lat="48.2044" lon="3.27287">
        <ele>66</ele>
        <time>2014-09-07T09:51:25.000Z</time>
      </trkpt>
      <trkpt lat="48.20441" lon="3.27294">
        <ele>66</ele>
        <time>2014-09-07T09:51:26.000Z</time>
      </trkpt>
      <trkpt lat="48.20442" lon="3.27298">
        <ele>66</ele>
        <time>2014-09-07T09:51:27.000Z</time>
      </trkpt>
      <trkpt lat="48.20444" lon="3.27305">
        <ele>66</ele>
        <time>2014-09-07T09:51:28.000Z</time>
      </trkpt>
      <trkpt lat="48.20445" lon="3.27309">
        <ele>66</ele>
        <time>2014-09-07T09:51:29.000Z</time>
      </trkpt>
      <trkpt lat="48.20446" lon="3.27315">
        <ele>66</ele>
        <time>2014-09-07T09:51:30.000Z</time>
      </trkpt>
      <trkpt lat="48.20447" lon="3.27322">
        <ele>66</ele>
        <time>2014-09-07T09:51:31.000Z</time>
      </trkpt>
      <trkpt lat="48.20448" lon="3.27326">
        <ele>66</ele>
        <time>2014-09-07T09:51:32.000Z</time>
      </trkpt>
      <trkpt lat="48.20448" lon="3.27332">
        <ele>66</ele>
        <time>2014-09-07T09:51:33.000Z</time>
      </trkpt>
      <trkpt lat="48.20449" lon="3.27339">
        <ele>67</ele>
        <time>2014-09-07T09:51:34.000Z</time>
      </trkpt>
      <trkpt lat="48.2045" lon="3.27343">
        <ele>67</ele>
        <time>2014-09-07T09:51:35.000Z</time>
      </trkpt>
      <trkpt lat="48.20451" lon="3.2735">
        <ele>67</ele>
        <time>2014-09-07T09:51:36.000Z</time>
      </trkpt>
      <trkpt lat="48.20452" lon="3.27354">
        <ele>67</ele>
        <time>2014-09-07T09:51:37.000Z</time>
      </trkpt>
      <trkpt lat="48.20452" lon="3.2736">
        <ele>67</ele>
        <time>2014-09-07T09:51:38.000Z</time>
      </trkpt>
      <trkpt lat="48.20453" lon="3.27365">
        <ele>67</ele>
        <time>2014-09-07T09:51:39.000Z</time>
      </trkpt>
      <trkpt lat="48.20454" lon="3.27371">
        <ele>67</ele>
        <time>2014-09-07T09:51:40.000Z</time>
      </trkpt>
      <trkpt lat="48.20455" lon="3.27375">
        <ele>67</ele>
        <time>2014-09-07T09:51:41.000Z</time>
      </trkpt>
      <trkpt lat="48.20455" lon="3.27382">
        <ele>67</ele>
        <time>2014-09-07T09:51:42.000Z</time>
      </trkpt>
      <trkpt lat="48.20456" lon="3.27388">
        <ele>67</ele>
        <time>2014-09-07T09:51:43.000Z</time>
      </trkpt>
      <trkpt lat="48.20457" lon="3.27393">
        <ele>67</ele>
        <time>2014-09-07T09:51:44.000Z</time>
      </trkpt>
      <trkpt lat="48.20459" lon="3.27399">
        <ele>67</ele>
        <time>2014-09-07T09:51:45.000Z</time>
      </trkpt>
      <trkpt lat="48.2046" lon="3.27403">
        <ele>67</ele>
        <time>2014-09-07T09:51:46.000Z</time>
      </trkpt>
      <trkpt lat="48.20461" lon="3.2741">
        <ele>67</ele>
        <time>2014-09-07T09:51:47.000Z</time>
      </trkpt>
      <trkpt lat="48.20462" lon="3.27416">
        <ele>67</ele>
        <time>2014-09-07T09:51:48.000Z</time>
      </trkpt>
      <trkpt lat="48.20463" lon="3.27423">
        <ele>67</ele>
        <time>2014-09-07T09:51:49.000Z</time>
      </trkpt>
      <trkpt lat="48.20464" lon="3.27427">
        <ele>67</ele>
        <time>2014-09-07T09:51:50.000Z</time>
      </trkpt>
      <trkpt lat="48.20465" lon="3.27433">
        <ele>67</ele>
        <time>2014-09-07T09:51:51.000Z</time>
      </trkpt>
      <trkpt lat="48.20466" lon="3.2744">
        <ele>67</ele>
        <time>2014-09-07T09:51:52.000Z</time>
      </trkpt>
      <trkpt lat="48.20467" lon="3.27446">
        <ele>67</ele>
        <time>2014-09-07T09:51:53.000Z</time>
      </trkpt>
      <trkpt lat="48.20468" lon="3.27453">
        <ele>67</ele>
        <time>2014-09-07T09:51:54.000Z</time>
      </trkpt>
      <trkpt lat="48.20469" lon="3.27459">
        <ele>67</ele>
        <time>2014-09-07T09:51:55.000Z</time>
      </trkpt>
      <trkpt lat="48.2047" lon="3.27466">
        <ele>67</ele>
        <time>2014-09-07T09:51:56.000Z</time>
      </trkpt>
      <trkpt lat="48.20472" lon="3.27472">
        <ele>66</ele>
        <time>2014-09-07T09:51:57.000Z</time>
      </trkpt>
      <trkpt lat="48.20474" lon="3.27478">
        <ele>66</ele>
        <time>2014-09-07T09:51:58.000Z</time>
      </trkpt>
      <trkpt lat="48.20475" lon="3.27485">
        <ele>66</ele>
        <time>2014-09-07T09:51:59.000Z</time>
      </trkpt>
      <trkpt lat="48.20476" lon="3.27491">
        <ele>66</ele>
        <time>2014-09-07T09:52:00.000Z</time>
      </trkpt>
      <trkpt lat="48.20477" lon="3.27498">
        <ele>66</ele>
        <time>2014-09-07T09:52:01.000Z</time>
      </trkpt>
      <trkpt lat="48.20478" lon="3.27506">
        <ele>66</ele>
        <time>2014-09-07T09:52:02.000Z</time>
      </trkpt>
      <trkpt lat="48.20479" lon="3.27513">
        <ele>66</ele>
        <time>2014-09-07T09:52:03.000Z</time>
      </trkpt>
      <trkpt lat="48.2048" lon="3.27519">
        <ele>66</ele>
        <time>2014-09-07T09:52:04.000Z</time>
      </trkpt>
      <trkpt lat="48.20481" lon="3.27526">
        <ele>66</ele>
        <time>2014-09-07T09:52:05.000Z</time>
      </trkpt>
      <trkpt lat="48.20483" lon="3.27532">
        <ele>66</ele>
        <time>2014-09-07T09:52:06.000Z</time>
      </trkpt>
      <trkpt lat="48.20484" lon="3.27541">
        <ele>66</ele>
        <time>2014-09-07T09:52:07.000Z</time>
      </trkpt>
      <trkpt lat="48.20485" lon="3.27547">
        <ele>66</ele>
        <time>2014-09-07T09:52:08.000Z</time>
      </trkpt>
      <trkpt lat="48.20486" lon="3.27556">
        <ele>65</ele>
        <time>2014-09-07T09:52:09.000Z</time>
      </trkpt>
      <trkpt lat="48.20487" lon="3.27562">
        <ele>65</ele>
        <time>2014-09-07T09:52:10.000Z</time>
      </trkpt>
      <trkpt lat="48.20489" lon="3.27571">
        <ele>65</ele>
        <time>2014-09-07T09:52:11.000Z</time>
      </trkpt>
      <trkpt lat="48.20491" lon="3.27577">
        <ele>65</ele>
        <time>2014-09-07T09:52:12.000Z</time>
      </trkpt>
      <trkpt lat="48.20492" lon="3.27586">
        <ele>65</ele>
        <time>2014-09-07T09:52:13.000Z</time>
      </trkpt>
      <trkpt lat="48.20493" lon="3.27594">
        <ele>65</ele>
        <time>2014-09-07T09:52:14.000Z</time>
      </trkpt>
      <trkpt lat="48.20494" lon="3.27603">
        <ele>65</ele>
        <time>2014-09-07T09:52:15.000Z</time>
      </trkpt>
      <trkpt lat="48.20496" lon="3.27614">
        <ele>65</ele>
        <time>2014-09-07T09:52:16.000Z</time>
      </trkpt>
      <trkpt lat="48.20498" lon="3.27624">
        <ele>65</ele>
        <time>2014-09-07T09:52:17.000Z</time>
      </trkpt>
      <trkpt lat="48.20499" lon="3.27635">
        <ele>65</ele>
        <time>2014-09-07T09:52:18.000Z</time>
      </trkpt>
      <trkpt lat="48.20501" lon="3.27646">
        <ele>65</ele>
        <time>2014-09-07T09:52:19.000Z</time>
      </trkpt>
      <trkpt lat="48.20504" lon="3.27659">
        <ele>64</ele>
        <time>2014-09-07T09:52:20.000Z</time>
      </trkpt>
      <trkpt lat="48.20506" lon="3.27669">
        <ele>64</ele>
        <time>2014-09-07T09:52:21.000Z</time>
      </trkpt>
      <trkpt lat="48.20507" lon="3.27682">
        <ele>65</ele>
        <time>2014-09-07T09:52:22.000Z</time>
      </trkpt>
      <trkpt lat="48.20509" lon="3.27693">
        <ele>65</ele>
        <time>2014-09-07T09:52:23.000Z</time>
      </trkpt>
      <trkpt lat="48.20511" lon="3.27706">
        <ele>65</ele>
        <time>2014-09-07T09:52:24.000Z</time>
      </trkpt>
      <trkpt lat="48.20512" lon="3.27717">
        <ele>65</ele>
        <time>2014-09-07T09:52:25.000Z</time>
      </trkpt>
      <trkpt lat="48.20514" lon="3.27727">
        <ele>65</ele>
        <time>2014-09-07T09:52:26.000Z</time>
      </trkpt>
      <trkpt lat="48.20513" lon="3.2774">
        <ele>65</ele>
        <time>2014-09-07T09:52:27.000Z</time>
      </trkpt>
      <trkpt lat="48.20513" lon="3.27751">
        <ele>64</ele>
        <time>2014-09-07T09:52:28.000Z</time>
      </trkpt>
      <trkpt lat="48.20512" lon="3.27764">
        <ele>64</ele>
        <time>2014-09-07T09:52:29.000Z</time>
      </trkpt>
      <trkpt lat="48.20511" lon="3.27775">
        <ele>64</ele>
        <time>2014-09-07T09:52:30.000Z</time>
      </trkpt>
      <trkpt lat="48.20509" lon="3.27783">
        <ele>64</ele>
        <time>2014-09-07T09:52:31.000Z</time>
      </trkpt>
      <trkpt lat="48.20507" lon="3.27792">
        <ele>64</ele>
        <time>2014-09-07T09:52:32.000Z</time>
      </trkpt>
      <trkpt lat="48.205" lon="3.27796">
        <ele>64</ele>
        <time>2014-09-07T09:52:33.000Z</time>
      </trkpt>
      <trkpt lat="48.20495" lon="3.278">
        <ele>64</ele>
        <time>2014-09-07T09:52:34.000Z</time>
      </trkpt>
      <trkpt lat="48.2049" lon="3.27802">
        <ele>64</ele>
        <time>2014-09-07T09:52:35.000Z</time>
      </trkpt>
      <trkpt lat="48.20483" lon="3.27807">
        <ele>64</ele>
        <time>2014-09-07T09:52:36.000Z</time>
      </trkpt>
      <trkpt lat="48.20478" lon="3.27809">
        <ele>65</ele>
        <time>2014-09-07T09:52:37.000Z</time>
      </trkpt>
      <trkpt lat="48.20472" lon="3.27811">
        <ele>65</ele>
        <time>2014-09-07T09:52:38.000Z</time>
      </trkpt>
      <trkpt lat="48.20467" lon="3.27813">
        <ele>65</ele>
        <time>2014-09-07T09:52:39.000Z</time>
      </trkpt>
      <trkpt lat="48.20462" lon="3.27815">
        <ele>65</ele>
        <time>2014-09-07T09:52:40.000Z</time>
      </trkpt>
      <trkpt lat="48.20456" lon="3.27817">
        <ele>65</ele>
        <time>2014-09-07T09:52:41.000Z</time>
      </trkpt>
      <trkpt lat="48.20451" lon="3.2782">
        <ele>65</ele>
        <time>2014-09-07T09:52:42.000Z</time>
      </trkpt>
      <trkpt lat="48.20446" lon="3.27822">
        <ele>65</ele>
        <time>2014-09-07T09:52:43.000Z</time>
      </trkpt>
      <trkpt lat="48.2044" lon="3.27826">
        <ele>65</ele>
        <time>2014-09-07T09:52:44.000Z</time>
      </trkpt>
      <trkpt lat="48.20435" lon="3.2783">
        <ele>65</ele>
        <time>2014-09-07T09:52:45.000Z</time>
      </trkpt>
      <trkpt lat="48.2043" lon="3.27835">
        <ele>65</ele>
        <time>2014-09-07T09:52:46.000Z</time>
      </trkpt>
      <trkpt lat="48.20425" lon="3.27839">
        <ele>65</ele>
        <time>2014-09-07T09:52:47.000Z</time>
      </trkpt>
      <trkpt lat="48.2042" lon="3.27843">
        <ele>65</ele>
        <time>2014-09-07T09:52:48.000Z</time>
      </trkpt>
      <trkpt lat="48.20416" lon="3.2785">
        <ele>66</ele>
        <time>2014-09-07T09:52:49.000Z</time>
      </trkpt>
      <trkpt lat="48.2041" lon="3.27854">
        <ele>66</ele>
        <time>2014-09-07T09:52:50.000Z</time>
      </trkpt>
      <trkpt lat="48.20406" lon="3.27858">
        <ele>66</ele>
        <time>2014-09-07T09:52:51.000Z</time>
      </trkpt>
      <trkpt lat="48.20401" lon="3.27863">
        <ele>66</ele>
        <time>2014-09-07T09:52:52.000Z</time>
      </trkpt>
      <trkpt lat="48.20396" lon="3.27869">
        <ele>67</ele>
        <time>2014-09-07T09:52:53.000Z</time>
      </trkpt>
      <trkpt lat="48.20391" lon="3.27875">
        <ele>67</ele>
        <time>2014-09-07T09:52:54.000Z</time>
      </trkpt>
      <trkpt lat="48.20387" lon="3.2788">
        <ele>67</ele>
        <time>2014-09-07T09:52:55.000Z</time>
      </trkpt>
      <trkpt lat="48.20381" lon="3.27886">
        <ele>67</ele>
        <time>2014-09-07T09:52:56.000Z</time>
      </trkpt>
      <trkpt lat="48.20377" lon="3.27893">
        <ele>67</ele>
        <time>2014-09-07T09:52:57.000Z</time>
      </trkpt>
      <trkpt lat="48.20372" lon="3.27899">
        <ele>67</ele>
        <time>2014-09-07T09:52:58.000Z</time>
      </trkpt>
      <trkpt lat="48.20367" lon="3.27908">
        <ele>67</ele>
        <time>2014-09-07T09:52:59.000Z</time>
      </trkpt>
      <trkpt lat="48.20362" lon="3.27914">
        <ele>67</ele>
        <time>2014-09-07T09:53:00.000Z</time>
      </trkpt>
      <trkpt lat="48.20358" lon="3.2792">
        <ele>67</ele>
        <time>2014-09-07T09:53:01.000Z</time>
      </trkpt>
      <trkpt lat="48.20352" lon="3.27927">
        <ele>67</ele>
        <time>2014-09-07T09:53:02.000Z</time>
      </trkpt>
      <trkpt lat="48.20347" lon="3.27933">
        <ele>67</ele>
        <time>2014-09-07T09:53:03.000Z</time>
      </trkpt>
      <trkpt lat="48.20342" lon="3.27938">
        <ele>67</ele>
        <time>2014-09-07T09:53:04.000Z</time>
      </trkpt>
      <trkpt lat="48.20336" lon="3.27944">
        <ele>67</ele>
        <time>2014-09-07T09:53:05.000Z</time>
      </trkpt>
      <trkpt lat="48.20332" lon="3.27948">
        <ele>67</ele>
        <time>2014-09-07T09:53:06.000Z</time>
      </trkpt>
      <trkpt lat="48.20327" lon="3.27953">
        <ele>67</ele>
        <time>2014-09-07T09:53:07.000Z</time>
      </trkpt>
      <trkpt lat="48.20321" lon="3.27957">
        <ele>67</ele>
        <time>2014-09-07T09:53:08.000Z</time>
      </trkpt>
      <trkpt lat="48.20316" lon="3.27961">
        <ele>67</ele>
        <time>2014-09-07T09:53:09.000Z</time>
      </trkpt>
      <trkpt lat="48.20312" lon="3.27965">
        <ele>67</ele>
        <time>2014-09-07T09:53:10.000Z</time>
      </trkpt>
      <trkpt lat="48.20306" lon="3.2797">
        <ele>67</ele>
        <time>2014-09-07T09:53:11.000Z</time>
      </trkpt>
      <trkpt lat="48.20302" lon="3.27974">
        <ele>67</ele>
        <time>2014-09-07T09:53:12.000Z</time>
      </trkpt>
      <trkpt lat="48.20298" lon="3.27978">
        <ele>67</ele>
        <time>2014-09-07T09:53:13.000Z</time>
      </trkpt>
      <trkpt lat="48.20294" lon="3.27981">
        <ele>67</ele>
        <time>2014-09-07T09:53:14.000Z</time>
      </trkpt>
      <trkpt lat="48.2029" lon="3.27985">
        <ele>67</ele>
        <time>2014-09-07T09:53:15.000Z</time>
      </trkpt>
      <trkpt lat="48.20287" lon="3.27987">
        <ele>67</ele>
        <time>2014-09-07T09:53:16.000Z</time>
      </trkpt>
      <trkpt lat="48.20284" lon="3.27991">
        <ele>67</ele>
        <time>2014-09-07T09:53:17.000Z</time>
      </trkpt>
      <trkpt lat="48.2028" lon="3.27996">
        <ele>67</ele>
        <time>2014-09-07T09:53:18.000Z</time>
      </trkpt>
      <trkpt lat="48.20277" lon="3.27998">
        <ele>67</ele>
        <time>2014-09-07T09:53:19.000Z</time>
      </trkpt>
      <trkpt lat="48.20274" lon="3.28002">
        <ele>67</ele>
        <time>2014-09-07T09:53:20.000Z</time>
      </trkpt>
      <trkpt lat="48.20271" lon="3.28004">
        <ele>67</ele>
        <time>2014-09-07T09:53:21.000Z</time>
      </trkpt>
      <trkpt lat="48.20269" lon="3.28008">
        <ele>67</ele>
        <time>2014-09-07T09:53:22.000Z</time>
      </trkpt>
      <trkpt lat="48.20266" lon="3.28011">
        <ele>67</ele>
        <time>2014-09-07T09:53:23.000Z</time>
      </trkpt>
      <trkpt lat="48.20264" lon="3.28015">
        <ele>67</ele>
        <time>2014-09-07T09:53:24.000Z</time>
      </trkpt>
      <trkpt lat="48.20262" lon="3.28015">
        <ele>67</ele>
        <time>2014-09-07T09:53:25.000Z</time>
      </trkpt>
      <trkpt lat="48.20259" lon="3.28019">
        <ele>67</ele>
        <time>2014-09-07T09:53:27.000Z</time>
      </trkpt>
      <trkpt lat="48.20258" lon="3.28021">
        <ele>67</ele>
        <time>2014-09-07T09:53:28.000Z</time>
      </trkpt>
      <trkpt lat="48.20258" lon="3.28021">
        <ele>67</ele>
        <time>2014-09-07T09:53:52.000Z</time>
      </trkpt>
      <trkpt lat="48.20249" lon="3.28028">
        <ele>68</ele>
        <time>2014-09-07T09:53:53.000Z</time>
      </trkpt>
      <trkpt lat="48.20249" lon="3.28028">
        <ele>68</ele>
        <time>2014-09-07T09:54:09.000Z</time>
      </trkpt>
      <trkpt lat="48.20248" lon="3.28043">
        <ele>68</ele>
        <time>2014-09-07T09:54:10.000Z</time>
      </trkpt>
      <trkpt lat="48.20248" lon="3.28043">
        <ele>68</ele>
        <time>2014-09-07T09:54:45.000Z</time>
      </trkpt>
      <trkpt lat="48.20253" lon="3.28056">
        <ele>67</ele>
        <time>2014-09-07T09:54:46.000Z</time>
      </trkpt>
      <trkpt lat="48.20253" lon="3.28056">
        <ele>67</ele>
        <time>2014-09-07T09:54:51.000Z</time>
      </trkpt>
      <trkpt lat="48.20261" lon="3.28058">
        <ele>67</ele>
        <time>2014-09-07T09:54:52.000Z</time>
      </trkpt>
      <trkpt lat="48.20261" lon="3.28058">
        <ele>67</ele>
        <time>2014-09-07T09:54:59.000Z</time>
      </trkpt>
      <trkpt lat="48.20271" lon="3.2806">
        <ele>67</ele>
        <time>2014-09-07T09:55:00.000Z</time>
      </trkpt>
      <trkpt lat="48.20271" lon="3.2806">
        <ele>67</ele>
        <time>2014-09-07T09:55:09.000Z</time>
      </trkpt>
      <trkpt lat="48.2028" lon="3.28058">
        <ele>67</ele>
        <time>2014-09-07T09:55:10.000Z</time>
      </trkpt>
      <trkpt lat="48.2028" lon="3.28058">
        <ele>67</ele>
        <time>2014-09-07T09:55:23.000Z</time>
      </trkpt>
    </trkseg>
  </trk>
</gpx>